<?xml version='1.0' encoding='UTF-8'?><gpx version="1.1" creator="JPX - https://github.com/jenetics/jpx" xmlns="http://www.topografix.com/GPX/1/1"><trk><trkseg><trkpt lat="44.01241794566625" lon="8.030276108660123"><ele>367.6</ele><time>2026-03-26T13:47:55Z</time></trkpt><trkpt lat="44.012495279347306" lon="8.03021108277292"><ele>369.20000000000005</ele><time>2026-03-26T13:47:58Z</time></trkpt><trkpt lat="44.01253782984923" lon="8.030086814455588"><ele>370.79999999999995</ele><time>2026-03-26T13:48:00Z</time></trkpt><trkpt lat="44.01257845909218" lon="8.030001399314298"><ele>372.4</ele><time>2026-03-26T13:48:01Z</time></trkpt><trkpt lat="44.012624574396895" lon="8.029918171060627"><ele>374.0</ele><time>2026-03-26T13:48:02Z</time></trkpt><trkpt lat="44.012722748448596" lon="8.029792977133582"><ele>378.6666666666667</ele><time>2026-03-26T13:48:04Z</time></trkpt><trkpt lat="44.012774148729086" lon="8.029718130783019"><ele>383.33333333333337</ele><time>2026-03-26T13:48:05Z</time></trkpt><trkpt lat="44.012840448462605" lon="8.02966525027331"><ele>388.0</ele><time>2026-03-26T13:48:07Z</time></trkpt><trkpt lat="44.01291238406884" lon="8.029583137339309"><ele>392.6666666666667</ele><time>2026-03-26T13:48:35Z</time></trkpt><trkpt lat="44.01297401265348" lon="8.02950823805625"><ele>397.3333333333333</ele><time>2026-03-26T13:48:38Z</time></trkpt><trkpt lat="44.013079363053905" lon="8.029438232492291"><ele>402.0</ele><time>2026-03-26T13:48:41Z</time></trkpt><trkpt lat="44.01317265380105" lon="8.02937323686169"><ele>402.0</ele><time>2026-03-26T13:48:43Z</time></trkpt><trkpt lat="44.013268786552445" lon="8.02930721494634"><ele>402.0</ele><time>2026-03-26T13:48:45Z</time></trkpt><trkpt lat="44.013352114488846" lon="8.029273571327133"><ele>402.0</ele><time>2026-03-26T13:48:47Z</time></trkpt><trkpt lat="44.01345512729183" lon="8.02920248811411"><ele>402.0</ele><time>2026-03-26T13:49:47Z</time></trkpt><trkpt lat="44.013551856594226" lon="8.029107371139178"><ele>402.0</ele><time>2026-03-26T13:49:49Z</time></trkpt><trkpt lat="44.01362345969911" lon="8.028989650701392"><ele>402.20000000000005</ele><time>2026-03-26T13:49:51Z</time></trkpt><trkpt lat="44.01369631001892" lon="8.02891580315962"><ele>402.4</ele><time>2026-03-26T13:49:53Z</time></trkpt><trkpt lat="44.01376040096218" lon="8.0287725710423"><ele>402.6</ele><time>2026-03-26T13:49:55Z</time></trkpt><trkpt lat="44.01381613079897" lon="8.028656993165493"><ele>402.79999999999995</ele><time>2026-03-26T13:49:56Z</time></trkpt><trkpt lat="44.01387944308971" lon="8.028571525664026"><ele>403.0</ele><time>2026-03-26T13:49:57Z</time></trkpt><trkpt lat="44.013954641012894" lon="8.028486740785215"><ele>403.0</ele><time>2026-03-26T13:49:58Z</time></trkpt><trkpt lat="44.0140224802699" lon="8.028441376753626"><ele>403.0</ele><time>2026-03-26T13:49:59Z</time></trkpt><trkpt lat="44.01407494353283" lon="8.028387577148447"><ele>403.0</ele><time>2026-03-26T13:50:00Z</time></trkpt><trkpt lat="44.014153908282644" lon="8.028281107219224"><ele>403.0</ele><time>2026-03-26T13:50:01Z</time></trkpt><trkpt lat="44.014225653857444" lon="8.02821717498345"><ele>403.0</ele><time>2026-03-26T13:50:02Z</time></trkpt><trkpt lat="44.01437434674825" lon="8.028200221345301"><ele>404.79999999999995</ele><time>2026-03-26T13:50:04Z</time></trkpt><trkpt lat="44.01445055270495" lon="8.02818852241926"><ele>406.6</ele><time>2026-03-26T13:50:05Z</time></trkpt><trkpt lat="44.01450404627429" lon="8.028128769192058"><ele>408.4</ele><time>2026-03-26T13:50:06Z</time></trkpt><trkpt lat="44.01455384751182" lon="8.028029274225647"><ele>410.20000000000005</ele><time>2026-03-26T13:50:08Z</time></trkpt><trkpt lat="44.014632962209504" lon="8.02806806495842"><ele>412.0</ele><time>2026-03-26T13:50:10Z</time></trkpt><trkpt lat="44.01467835389564" lon="8.028262857925396"><ele>406.83333333333337</ele><time>2026-03-26T13:50:12Z</time></trkpt><trkpt lat="44.014681119376334" lon="8.028375163351619"><ele>401.6666666666667</ele><time>2026-03-26T13:50:13Z</time></trkpt><trkpt lat="44.01468252551365" lon="8.028494423512793"><ele>396.5</ele><time>2026-03-26T13:50:14Z</time></trkpt><trkpt lat="44.01468660457672" lon="8.028588213167685"><ele>391.33333333333337</ele><time>2026-03-26T13:50:15Z</time></trkpt><trkpt lat="44.0146873014934" lon="8.02869410616102"><ele>386.1666666666667</ele><time>2026-03-26T13:50:16Z</time></trkpt><trkpt lat="44.014703406075235" lon="8.028812611926316"><ele>381.0</ele><time>2026-03-26T13:50:17Z</time></trkpt><trkpt lat="44.0147650396778" lon="8.028935721905997"><ele>381.0</ele><time>2026-03-26T13:50:19Z</time></trkpt><trkpt lat="44.0148705208886" lon="8.028972504100741"><ele>381.0</ele><time>2026-03-26T13:50:21Z</time></trkpt><trkpt lat="44.01490307319091" lon="8.029072564860464"><ele>381.0</ele><time>2026-03-26T13:50:23Z</time></trkpt><trkpt lat="44.014836703144084" lon="8.029175964916993"><ele>381.0</ele><time>2026-03-26T13:50:25Z</time></trkpt><trkpt lat="44.01481013013645" lon="8.029279799849393"><ele>381.0</ele><time>2026-03-26T13:50:26Z</time></trkpt><trkpt lat="44.014822964021526" lon="8.029409697275613"><ele>380.0</ele><time>2026-03-26T13:50:28Z</time></trkpt><trkpt lat="44.01492015260856" lon="8.029589512390613"><ele>379.0</ele><time>2026-03-26T13:50:30Z</time></trkpt><trkpt lat="44.01499896918129" lon="8.029703887930172"><ele>378.0</ele><time>2026-03-26T13:50:31Z</time></trkpt><trkpt lat="44.01506901615683" lon="8.029806704496982"><ele>377.0</ele><time>2026-03-26T13:50:32Z</time></trkpt><trkpt lat="44.01511672917218" lon="8.029909132486667"><ele>373.83333333333337</ele><time>2026-03-26T13:50:33Z</time></trkpt><trkpt lat="44.01515263051159" lon="8.030007746394267"><ele>370.6666666666667</ele><time>2026-03-26T13:50:34Z</time></trkpt><trkpt lat="44.01518957570429" lon="8.030116684412036"><ele>367.5</ele><time>2026-03-26T13:50:35Z</time></trkpt><trkpt lat="44.01522642817521" lon="8.030241180231586"><ele>364.3333333333333</ele><time>2026-03-26T13:50:36Z</time></trkpt><trkpt lat="44.015269407569036" lon="8.03037744902217"><ele>361.16666666666663</ele><time>2026-03-26T13:50:37Z</time></trkpt><trkpt lat="44.0153038489304" lon="8.03047018059063"><ele>358.0</ele><time>2026-03-26T13:50:38Z</time></trkpt><trkpt lat="44.01533188791017" lon="8.030580494771321"><ele>358.0</ele><time>2026-03-26T13:50:39Z</time></trkpt><trkpt lat="44.01533378748908" lon="8.030682013104961"><ele>358.0</ele><time>2026-03-26T13:50:40Z</time></trkpt><trkpt lat="44.015328742274264" lon="8.030802343809444"><ele>358.0</ele><time>2026-03-26T13:50:41Z</time></trkpt><trkpt lat="44.01528927788723" lon="8.030881157064476"><ele>358.0</ele><time>2026-03-26T13:50:42Z</time></trkpt><trkpt lat="44.01525509648442" lon="8.030999067782886"><ele>358.0</ele><time>2026-03-26T13:50:43Z</time></trkpt><trkpt lat="44.01522914472674" lon="8.031153769741925"><ele>358.0</ele><time>2026-03-26T13:50:44Z</time></trkpt><trkpt lat="44.01522272971464" lon="8.031278720657115"><ele>356.2</ele><time>2026-03-26T13:50:45Z</time></trkpt><trkpt lat="44.01524063105391" lon="8.03142571977873"><ele>354.4</ele><time>2026-03-26T13:50:46Z</time></trkpt><trkpt lat="44.01526173250749" lon="8.031592992915423"><ele>352.59999999999997</ele><time>2026-03-26T13:50:47Z</time></trkpt><trkpt lat="44.015275037120645" lon="8.031721968674733"><ele>350.79999999999995</ele><time>2026-03-26T13:50:48Z</time></trkpt><trkpt lat="44.01530422688748" lon="8.03181620756357"><ele>349.0</ele><time>2026-03-26T13:50:49Z</time></trkpt><trkpt lat="44.01536851829943" lon="8.031964108072348"><ele>347.66666666666663</ele><time>2026-03-26T13:50:51Z</time></trkpt><trkpt lat="44.01541216446905" lon="8.032050168991884"><ele>346.3333333333333</ele><time>2026-03-26T13:50:52Z</time></trkpt><trkpt lat="44.01546548774403" lon="8.03216374534711"><ele>345.0</ele><time>2026-03-26T13:50:53Z</time></trkpt><trkpt lat="44.01551459694222" lon="8.032246313163233"><ele>343.6666666666667</ele><time>2026-03-26T13:50:54Z</time></trkpt><trkpt lat="44.01556008568813" lon="8.032308776110252"><ele>342.33333333333337</ele><time>2026-03-26T13:50:55Z</time></trkpt><trkpt lat="44.015611356880065" lon="8.032400960602073"><ele>341.0</ele><time>2026-03-26T13:50:56Z</time></trkpt><trkpt lat="44.015675263808326" lon="8.03248648473491"><ele>342.5</ele><time>2026-03-26T13:50:57Z</time></trkpt><trkpt lat="44.01575080580787" lon="8.032507917226502"><ele>344.0</ele><time>2026-03-26T13:50:58Z</time></trkpt><trkpt lat="44.015822271597465" lon="8.032505846421229"><ele>345.5</ele><time>2026-03-26T13:50:59Z</time></trkpt><trkpt lat="44.0159047807222" lon="8.032466169709963"><ele>347.0</ele><time>2026-03-26T13:51:00Z</time></trkpt><trkpt lat="44.01597605382324" lon="8.032427929633734"><ele>348.5</ele><time>2026-03-26T13:51:01Z</time></trkpt><trkpt lat="44.016085882140914" lon="8.032400879363042"><ele>350.0</ele><time>2026-03-26T13:51:02Z</time></trkpt><trkpt lat="44.01620460833616" lon="8.03235141730761"><ele>354.4</ele><time>2026-03-26T13:51:03Z</time></trkpt><trkpt lat="44.016307616594595" lon="8.032293748730613"><ele>358.8</ele><time>2026-03-26T13:51:04Z</time></trkpt><trkpt lat="44.016404424474835" lon="8.032183205845552"><ele>363.20000000000005</ele><time>2026-03-26T13:51:06Z</time></trkpt><trkpt lat="44.016433374183855" lon="8.032081776680661"><ele>367.6</ele><time>2026-03-26T13:51:07Z</time></trkpt><trkpt lat="44.016465913172404" lon="8.03194535812338"><ele>372.0</ele><time>2026-03-26T13:51:08Z</time></trkpt><trkpt lat="44.01650544585385" lon="8.031849821037778"><ele>372.0</ele><time>2026-03-26T13:51:09Z</time></trkpt><trkpt lat="44.016614010181485" lon="8.031805851284448"><ele>372.0</ele><time>2026-03-26T13:51:11Z</time></trkpt><trkpt lat="44.016691711681055" lon="8.031812249127661"><ele>372.0</ele><time>2026-03-26T13:51:12Z</time></trkpt><trkpt lat="44.01680513515836" lon="8.031822290079527"><ele>372.0</ele><time>2026-03-26T13:51:13Z</time></trkpt><trkpt lat="44.01690700517912" lon="8.031857145469708"><ele>372.0</ele><time>2026-03-26T13:51:14Z</time></trkpt><trkpt lat="44.017000519210505" lon="8.031879816159199"><ele>370.8</ele><time>2026-03-26T13:51:15Z</time></trkpt><trkpt lat="44.01709846464519" lon="8.03179409940675"><ele>369.6</ele><time>2026-03-26T13:51:17Z</time></trkpt><trkpt lat="44.01718416027253" lon="8.031706657182276"><ele>368.40000000000003</ele><time>2026-03-26T13:51:18Z</time></trkpt><trkpt lat="44.017258562098505" lon="8.031628926185773"><ele>367.20000000000005</ele><time>2026-03-26T13:51:19Z</time></trkpt><trkpt lat="44.01730916905127" lon="8.031571337941552"><ele>366.0</ele><time>2026-03-26T13:51:20Z</time></trkpt><trkpt lat="44.017398098200495" lon="8.03150230434661"><ele>370.6</ele><time>2026-03-26T13:51:20.999Z</time></trkpt><trkpt lat="44.01746894901999" lon="8.031463847158253"><ele>375.20000000000005</ele><time>2026-03-26T13:51:21.999Z</time></trkpt><trkpt lat="44.01752787715528" lon="8.031426717875547"><ele>379.79999999999995</ele><time>2026-03-26T13:51:22.999Z</time></trkpt><trkpt lat="44.017619909776904" lon="8.031232233245134"><ele>384.4</ele><time>2026-03-26T13:51:24.999Z</time></trkpt><trkpt lat="44.01767584325955" lon="8.031133389949057"><ele>389.0</ele><time>2026-03-26T13:51:25.999Z</time></trkpt><trkpt lat="44.01773858619706" lon="8.031058444448767"><ele>388.99999999999994</ele><time>2026-03-26T13:51:26.999Z</time></trkpt><trkpt lat="44.01780666220908" lon="8.031002751836606"><ele>389.0</ele><time>2026-03-26T13:51:27.999Z</time></trkpt><trkpt lat="44.017907555748046" lon="8.030976283973194"><ele>389.0</ele><time>2026-03-26T13:51:30Z</time></trkpt><trkpt lat="44.01796437042759" lon="8.031030357536443"><ele>389.0</ele><time>2026-03-26T13:51:32Z</time></trkpt><trkpt lat="44.01796964017811" lon="8.031120058888392"><ele>388.99999999999994</ele><time>2026-03-26T13:51:35Z</time></trkpt><trkpt lat="44.01799272874308" lon="8.031226558530276"><ele>389.0</ele><time>2026-03-26T13:54:57Z</time></trkpt><trkpt lat="44.0179973604758" lon="8.031316368341441"><ele>389.0</ele><time>2026-03-26T13:54:58Z</time></trkpt><trkpt lat="44.01801117702918" lon="8.031450334459569"><ele>389.0</ele><time>2026-03-26T13:55:00Z</time></trkpt><trkpt lat="44.01803783250046" lon="8.031570868731707"><ele>389.0</ele><time>2026-03-26T13:55:02Z</time></trkpt><trkpt lat="44.018025243967664" lon="8.031668672764976"><ele>389.0</ele><time>2026-03-26T13:55:03Z</time></trkpt><trkpt lat="44.01798277743007" lon="8.031865181904704"><ele>389.0</ele><time>2026-03-26T13:55:05Z</time></trkpt><trkpt lat="44.01798561500804" lon="8.031961466812513"><ele>381.79999999999995</ele><time>2026-03-26T13:55:06Z</time></trkpt><trkpt lat="44.01799610855312" lon="8.032070243744048"><ele>374.59999999999997</ele><time>2026-03-26T13:55:07Z</time></trkpt><trkpt lat="44.01800199025253" lon="8.032227526159156"><ele>367.4</ele><time>2026-03-26T13:55:08Z</time></trkpt><trkpt lat="44.01798751079918" lon="8.032385762276432"><ele>360.2</ele><time>2026-03-26T13:55:09Z</time></trkpt><trkpt lat="44.017963566471735" lon="8.032540992161906"><ele>353.0</ele><time>2026-03-26T13:55:10Z</time></trkpt><trkpt lat="44.01793184880912" lon="8.0326731270202"><ele>348.2</ele><time>2026-03-26T13:55:11Z</time></trkpt><trkpt lat="44.017886891380236" lon="8.032817831650846"><ele>343.4</ele><time>2026-03-26T13:55:12Z</time></trkpt><trkpt lat="44.017855413534505" lon="8.032943393057131"><ele>338.59999999999997</ele><time>2026-03-26T13:55:13Z</time></trkpt><trkpt lat="44.01784282167357" lon="8.033083045741911"><ele>333.79999999999995</ele><time>2026-03-26T13:55:14Z</time></trkpt><trkpt lat="44.01784384297077" lon="8.033216917793862"><ele>329.0</ele><time>2026-03-26T13:55:15Z</time></trkpt><trkpt lat="44.017827644936546" lon="8.033323869963862"><ele>328.2</ele><time>2026-03-26T13:55:19Z</time></trkpt><trkpt lat="44.017803185278986" lon="8.033444459419366"><ele>327.4</ele><time>2026-03-26T13:55:21Z</time></trkpt><trkpt lat="44.01782405757603" lon="8.03357005696716"><ele>326.6</ele><time>2026-03-26T13:55:23Z</time></trkpt><trkpt lat="44.01785692045302" lon="8.033667714522727"><ele>325.8</ele><time>2026-03-26T13:55:24Z</time></trkpt><trkpt lat="44.017887513744675" lon="8.033787109572547"><ele>325.0</ele><time>2026-03-26T13:55:25Z</time></trkpt><trkpt lat="44.017908793490086" lon="8.033942745148414"><ele>325.0</ele><time>2026-03-26T13:55:27Z</time></trkpt><trkpt lat="44.01787707789607" lon="8.034031240006605"><ele>325.0</ele><time>2026-03-26T13:55:28Z</time></trkpt><trkpt lat="44.01782422226001" lon="8.034110372116725"><ele>325.0</ele><time>2026-03-26T13:55:29Z</time></trkpt><trkpt lat="44.017749935473724" lon="8.034224035580445"><ele>325.0</ele><time>2026-03-26T13:55:31Z</time></trkpt><trkpt lat="44.017739121494515" lon="8.034326384633086"><ele>325.0</ele><time>2026-03-26T13:55:32Z</time></trkpt><trkpt lat="44.017746744394294" lon="8.034483548999097"><ele>325.0</ele><time>2026-03-26T13:55:33Z</time></trkpt><trkpt lat="44.01773481695746" lon="8.034646073431938"><ele>325.0</ele><time>2026-03-26T13:55:34Z</time></trkpt><trkpt lat="44.01768957243911" lon="8.034783472653775"><ele>325.0</ele><time>2026-03-26T13:55:35Z</time></trkpt><trkpt lat="44.01765403252895" lon="8.03487446040855"><ele>325.0</ele><time>2026-03-26T13:55:36Z</time></trkpt><trkpt lat="44.0176879629655" lon="8.035040848697586"><ele>325.0</ele><time>2026-03-26T13:55:38Z</time></trkpt><trkpt lat="44.017746492398594" lon="8.035120423068294"><ele>325.0</ele><time>2026-03-26T13:55:38.999Z</time></trkpt><trkpt lat="44.017810768593684" lon="8.035219292889543"><ele>325.0</ele><time>2026-03-26T13:55:39.999Z</time></trkpt><trkpt lat="44.017838398393486" lon="8.035355645782454"><ele>325.0</ele><time>2026-03-26T13:55:41.999Z</time></trkpt><trkpt lat="44.01787171912475" lon="8.035458344362452"><ele>325.0</ele><time>2026-03-26T13:55:42.999Z</time></trkpt><trkpt lat="44.01792852334745" lon="8.035525039291672"><ele>325.0</ele><time>2026-03-26T13:55:43.999Z</time></trkpt><trkpt lat="44.01801804381099" lon="8.035618848820121"><ele>325.0</ele><time>2026-03-26T13:55:45.999Z</time></trkpt><trkpt lat="44.017961464294835" lon="8.035691297610272"><ele>325.0</ele><time>2026-03-26T13:55:48.998Z</time></trkpt><trkpt lat="44.017888990418285" lon="8.035626217073354"><ele>325.0</ele><time>2026-03-26T13:55:51.998Z</time></trkpt><trkpt lat="44.01783697411166" lon="8.035556374940484"><ele>325.0</ele><time>2026-03-26T13:55:52.998Z</time></trkpt><trkpt lat="44.01777415220902" lon="8.035457730427465"><ele>325.0</ele><time>2026-03-26T13:55:53.998Z</time></trkpt><trkpt lat="44.01770236795942" lon="8.035330762780221"><ele>325.0</ele><time>2026-03-26T13:55:54.998Z</time></trkpt><trkpt lat="44.017622154574916" lon="8.035168447238481"><ele>325.0</ele><time>2026-03-26T13:55:55.998Z</time></trkpt><trkpt lat="44.017535309001694" lon="8.035028541008021"><ele>325.16666666666663</ele><time>2026-03-26T13:55:56.998Z</time></trkpt><trkpt lat="44.01749248496361" lon="8.034925987880538"><ele>325.3333333333333</ele><time>2026-03-26T13:55:57.998Z</time></trkpt><trkpt lat="44.017487251694" lon="8.034833918242166"><ele>325.5</ele><time>2026-03-26T13:55:58.998Z</time></trkpt><trkpt lat="44.017496838381135" lon="8.034737605180597"><ele>325.6666666666667</ele><time>2026-03-26T13:55:59.998Z</time></trkpt><trkpt lat="44.01752413352134" lon="8.034636450850124"><ele>325.83333333333337</ele><time>2026-03-26T13:56:00.998Z</time></trkpt><trkpt lat="44.01755900473905" lon="8.034525855209022"><ele>326.0</ele><time>2026-03-26T13:56:01.997Z</time></trkpt><trkpt lat="44.01758654093138" lon="8.034422492797436"><ele>326.0</ele><time>2026-03-26T13:56:02.997Z</time></trkpt><trkpt lat="44.017587068163444" lon="8.034328021108188"><ele>326.0</ele><time>2026-03-26T13:56:03.997Z</time></trkpt><trkpt lat="44.01754520332731" lon="8.034221157615017"><ele>326.0</ele><time>2026-03-26T13:56:04.997Z</time></trkpt><trkpt lat="44.01749781990927" lon="8.034099020074676"><ele>326.0</ele><time>2026-03-26T13:56:05.997Z</time></trkpt><trkpt lat="44.017536253914386" lon="8.033919385989057"><ele>326.0</ele><time>2026-03-26T13:56:07.997Z</time></trkpt><trkpt lat="44.017551305532216" lon="8.033824299746547"><ele>328.20000000000005</ele><time>2026-03-26T13:56:08.997Z</time></trkpt><trkpt lat="44.01743050752841" lon="8.033689184772715"><ele>330.40000000000003</ele><time>2026-03-26T13:56:10.997Z</time></trkpt><trkpt lat="44.01734721913545" lon="8.033593821325054"><ele>332.6</ele><time>2026-03-26T13:56:11.997Z</time></trkpt><trkpt lat="44.01732845484187" lon="8.033479768222954"><ele>334.8</ele><time>2026-03-26T13:56:12.997Z</time></trkpt><trkpt lat="44.017327780155135" lon="8.03335544369386"><ele>337.0</ele><time>2026-03-26T13:56:13.997Z</time></trkpt><trkpt lat="44.0173725273863" lon="8.033274610710848"><ele>337.0</ele><time>2026-03-26T13:56:14.997Z</time></trkpt><trkpt lat="44.01740506547246" lon="8.033121932820128"><ele>337.0</ele><time>2026-03-26T13:56:16.997Z</time></trkpt><trkpt lat="44.01741820534855" lon="8.032969703685021"><ele>337.0</ele><time>2026-03-26T13:56:17.997Z</time></trkpt><trkpt lat="44.01741280902197" lon="8.03282021560646"><ele>337.0</ele><time>2026-03-26T13:56:18.997Z</time></trkpt><trkpt lat="44.01741880340466" lon="8.032700588281466"><ele>337.0</ele><time>2026-03-26T13:56:19.997Z</time></trkpt><trkpt lat="44.01743467091142" lon="8.032610754335424"><ele>337.0</ele><time>2026-03-26T13:56:20.997Z</time></trkpt><trkpt lat="44.01747941399272" lon="8.032502072088192"><ele>337.0</ele><time>2026-03-26T13:56:21.997Z</time></trkpt><trkpt lat="44.017506720363855" lon="8.032402197853242"><ele>337.0</ele><time>2026-03-26T13:56:22.997Z</time></trkpt><trkpt lat="44.01749243387858" lon="8.032314501928122"><ele>337.0</ele><time>2026-03-26T13:56:23.997Z</time></trkpt><trkpt lat="44.017475347819044" lon="8.032206446998705"><ele>337.0</ele><time>2026-03-26T13:56:24.997Z</time></trkpt><trkpt lat="44.01745682815904" lon="8.032111604634935"><ele>337.0</ele><time>2026-03-26T13:56:25.997Z</time></trkpt><trkpt lat="44.01738214680662" lon="8.032101597758782"><ele>337.0</ele><time>2026-03-26T13:56:27.997Z</time></trkpt><trkpt lat="44.017292683897416" lon="8.03227221066083"><ele>337.0</ele><time>2026-03-26T13:56:29.997Z</time></trkpt><trkpt lat="44.01725176840627" lon="8.032383973103626"><ele>337.0</ele><time>2026-03-26T13:56:30.997Z</time></trkpt><trkpt lat="44.01717553592023" lon="8.032445294865676"><ele>337.0</ele><time>2026-03-26T13:56:31.997Z</time></trkpt><trkpt lat="44.01709725813438" lon="8.032523399658466"><ele>337.0</ele><time>2026-03-26T13:56:32.997Z</time></trkpt><trkpt lat="44.01704060241242" lon="8.032587842448018"><ele>337.0</ele><time>2026-03-26T13:56:33.997Z</time></trkpt><trkpt lat="44.01697528546504" lon="8.03262224396751"><ele>337.0</ele><time>2026-03-26T13:56:34.997Z</time></trkpt><trkpt lat="44.01687559070491" lon="8.032659932092669"><ele>337.0</ele><time>2026-03-26T13:56:35.997Z</time></trkpt><trkpt lat="44.01681019117713" lon="8.032721794885369"><ele>337.0</ele><time>2026-03-26T13:56:36.997Z</time></trkpt><trkpt lat="44.016764124459726" lon="8.032808198635559"><ele>337.0</ele><time>2026-03-26T13:56:37.997Z</time></trkpt><trkpt lat="44.01673038729065" lon="8.032888730104222"><ele>337.0</ele><time>2026-03-26T13:56:38.997Z</time></trkpt><trkpt lat="44.01667962171259" lon="8.032951894399517"><ele>335.3333333333333</ele><time>2026-03-26T13:56:39.997Z</time></trkpt><trkpt lat="44.01660667107272" lon="8.033022954077222"><ele>333.66666666666663</ele><time>2026-03-26T13:56:40.997Z</time></trkpt><trkpt lat="44.01653757137904" lon="8.033073548896304"><ele>332.0</ele><time>2026-03-26T13:56:41.997Z</time></trkpt><trkpt lat="44.016456132209406" lon="8.033130637996397"><ele>330.3333333333333</ele><time>2026-03-26T13:56:42.997Z</time></trkpt><trkpt lat="44.01636561629724" lon="8.033208894929057"><ele>328.6666666666667</ele><time>2026-03-26T13:56:43.997Z</time></trkpt><trkpt lat="44.016320317271656" lon="8.033279051448908"><ele>327.0</ele><time>2026-03-26T13:56:44.997Z</time></trkpt><trkpt lat="44.016295695420084" lon="8.033381284658718"><ele>327.0</ele><time>2026-03-26T13:56:45.997Z</time></trkpt><trkpt lat="44.01624797170374" lon="8.03349229410159"><ele>327.0</ele><time>2026-03-26T13:56:46.997Z</time></trkpt><trkpt lat="44.01619215881006" lon="8.033598354982049"><ele>327.0</ele><time>2026-03-26T13:56:47.997Z</time></trkpt><trkpt lat="44.01613652333417" lon="8.033701964611696"><ele>327.0</ele><time>2026-03-26T13:56:48.997Z</time></trkpt><trkpt lat="44.016108009965876" lon="8.033784527324107"><ele>327.0</ele><time>2026-03-26T13:56:49.997Z</time></trkpt><trkpt lat="44.015998173658026" lon="8.033906013753727"><ele>327.0</ele><time>2026-03-26T13:56:51.997Z</time></trkpt><trkpt lat="44.015916221974635" lon="8.033978263952633"><ele>327.0</ele><time>2026-03-26T13:56:52.997Z</time></trkpt><trkpt lat="44.01583701190412" lon="8.034063111215756"><ele>327.0</ele><time>2026-03-26T13:56:53.997Z</time></trkpt><trkpt lat="44.01576921150419" lon="8.034147886552887"><ele>327.0</ele><time>2026-03-26T13:56:54.997Z</time></trkpt><trkpt lat="44.01570740480775" lon="8.03421713322033"><ele>327.0</ele><time>2026-03-26T13:56:55.997Z</time></trkpt><trkpt lat="44.015625507736985" lon="8.034280090627977"><ele>320.20000000000005</ele><time>2026-03-26T13:56:56.997Z</time></trkpt><trkpt lat="44.01557637380609" lon="8.03433623494151"><ele>313.40000000000003</ele><time>2026-03-26T13:56:57.997Z</time></trkpt><trkpt lat="44.01549638179778" lon="8.03445597709129"><ele>306.6</ele><time>2026-03-26T13:56:59.997Z</time></trkpt><trkpt lat="44.015462986460655" lon="8.034533288925518"><ele>299.8</ele><time>2026-03-26T13:57:01.997Z</time></trkpt><trkpt lat="44.01537088479753" lon="8.034538365776019"><ele>293.0</ele><time>2026-03-26T13:57:03.997Z</time></trkpt><trkpt lat="44.0152550390481" lon="8.034468068582582"><ele>293.0</ele><time>2026-03-26T13:57:05.997Z</time></trkpt><trkpt lat="44.01519093924829" lon="8.034466293553123"><ele>293.0</ele><time>2026-03-26T13:57:06.997Z</time></trkpt><trkpt lat="44.01510002486129" lon="8.034427645546216"><ele>293.0</ele><time>2026-03-26T13:57:07.997Z</time></trkpt><trkpt lat="44.01501408102613" lon="8.034342798859976"><ele>293.0</ele><time>2026-03-26T13:57:09.997Z</time></trkpt><trkpt lat="44.01494681943132" lon="8.034225855519043"><ele>293.0</ele><time>2026-03-26T13:57:11.997Z</time></trkpt><trkpt lat="44.014889128446605" lon="8.034153101926005"><ele>290.4</ele><time>2026-03-26T13:57:12.997Z</time></trkpt><trkpt lat="44.01479876292069" lon="8.0340607584658"><ele>287.8</ele><time>2026-03-26T13:57:14.997Z</time></trkpt><trkpt lat="44.0147415300114" lon="8.03396716880333"><ele>285.2</ele><time>2026-03-26T13:57:23.997Z</time></trkpt><trkpt lat="44.01465645973153" lon="8.033851599959773"><ele>282.6</ele><time>2026-03-26T13:57:25.997Z</time></trkpt><trkpt lat="44.01462199080867" lon="8.033774192325769"><ele>280.0</ele><time>2026-03-26T13:57:26.997Z</time></trkpt><trkpt lat="44.0145400312463" lon="8.033598390608132"><ele>280.0</ele><time>2026-03-26T13:57:28.997Z</time></trkpt><trkpt lat="44.014488533794975" lon="8.033493479120082"><ele>280.0</ele><time>2026-03-26T13:57:29.997Z</time></trkpt><trkpt lat="44.01444567218324" lon="8.03340848633016"><ele>280.0</ele><time>2026-03-26T13:57:30.997Z</time></trkpt><trkpt lat="44.0143442624853" lon="8.03333231600908"><ele>280.0</ele><time>2026-03-26T13:57:32.997Z</time></trkpt><trkpt lat="44.01427531742008" lon="8.033293274004405"><ele>280.0</ele><time>2026-03-26T13:57:33.997Z</time></trkpt><trkpt lat="44.0141649603205" lon="8.033263166560866"><ele>278.66666666666663</ele><time>2026-03-26T13:57:35.997Z</time></trkpt><trkpt lat="44.014092589654716" lon="8.03323625174531"><ele>277.3333333333333</ele><time>2026-03-26T13:57:36.997Z</time></trkpt><trkpt lat="44.01403213090197" lon="8.033207501805196"><ele>276.0</ele><time>2026-03-26T13:57:37.997Z</time></trkpt><trkpt lat="44.013966657298134" lon="8.033166456384887"><ele>274.6666666666667</ele><time>2026-03-26T13:57:38.996Z</time></trkpt><trkpt lat="44.013908239385614" lon="8.033080258139266"><ele>273.33333333333337</ele><time>2026-03-26T13:57:39.996Z</time></trkpt><trkpt lat="44.01384358545872" lon="8.032994169794632"><ele>272.0</ele><time>2026-03-26T13:57:40.997Z</time></trkpt><trkpt lat="44.01378125910189" lon="8.033075986528782"><ele>272.0</ele><time>2026-03-26T13:57:44.997Z</time></trkpt><trkpt lat="44.01382635078052" lon="8.033216028051408"><ele>272.0</ele><time>2026-03-26T13:57:46.997Z</time></trkpt><trkpt lat="44.013881498320416" lon="8.033341736233869"><ele>272.0</ele><time>2026-03-26T13:57:48.998Z</time></trkpt><trkpt lat="44.013956960606826" lon="8.033465842154744"><ele>272.0</ele><time>2026-03-26T13:57:50.998Z</time></trkpt><trkpt lat="44.013997164735294" lon="8.033552249046597"><ele>272.0</ele><time>2026-03-26T13:57:51.998Z</time></trkpt><trkpt lat="44.01403522171646" lon="8.033628999246499"><ele>273.6</ele><time>2026-03-26T13:57:52.998Z</time></trkpt><trkpt lat="44.01413185189608" lon="8.033706563975484"><ele>275.2</ele><time>2026-03-26T13:57:54.998Z</time></trkpt><trkpt lat="44.014217582030504" lon="8.033804090147425"><ele>276.8</ele><time>2026-03-26T13:57:56.998Z</time></trkpt><trkpt lat="44.01424159985055" lon="8.033977579593467"><ele>278.4</ele><time>2026-03-26T13:57:58.998Z</time></trkpt><trkpt lat="44.01426596496764" lon="8.034074541020038"><ele>280.0</ele><time>2026-03-26T13:57:59.999Z</time></trkpt><trkpt lat="44.0142916273628" lon="8.034157319721142"><ele>276.6</ele><time>2026-03-26T13:58:00.999Z</time></trkpt><trkpt lat="44.014354921952815" lon="8.034305515041641"><ele>273.2</ele><time>2026-03-26T13:58:02.999Z</time></trkpt><trkpt lat="44.014412765464726" lon="8.034414813563833"><ele>269.8</ele><time>2026-03-26T13:58:04.999Z</time></trkpt><trkpt lat="44.01449455129086" lon="8.034566720562559"><ele>266.4</ele><time>2026-03-26T13:58:05.999Z</time></trkpt><trkpt lat="44.014548011840546" lon="8.034668362658275"><ele>263.0</ele><time>2026-03-26T13:58:06.999Z</time></trkpt><trkpt lat="44.01460230074201" lon="8.034725421300458"><ele>263.0</ele><time>2026-03-26T13:58:07.999Z</time></trkpt><trkpt lat="44.01465799560867" lon="8.034811238295642"><ele>263.0</ele><time>2026-03-26T13:58:08.999Z</time></trkpt><trkpt lat="44.01472192511665" lon="8.0349096433699"><ele>263.0</ele><time>2026-03-26T13:58:09.999Z</time></trkpt><trkpt lat="44.014768126996636" lon="8.03498039457312"><ele>263.0</ele><time>2026-03-26T13:58:10.999Z</time></trkpt><trkpt lat="44.01481995388979" lon="8.035054554908266"><ele>263.0</ele><time>2026-03-26T13:58:11.999Z</time></trkpt><trkpt lat="44.014884366847504" lon="8.035135952845486"><ele>263.0</ele><time>2026-03-26T13:58:12.999Z</time></trkpt><trkpt lat="44.014971823736616" lon="8.035261850513665"><ele>263.5</ele><time>2026-03-26T13:58:14.999Z</time></trkpt><trkpt lat="44.01502910749584" lon="8.035322414704098"><ele>264.0</ele><time>2026-03-26T13:58:15.999Z</time></trkpt><trkpt lat="44.015146445389604" lon="8.035391646639653"><ele>264.5</ele><time>2026-03-26T13:58:17.999Z</time></trkpt><trkpt lat="44.0152096024331" lon="8.035407406500386"><ele>265.0</ele><time>2026-03-26T13:58:18.999Z</time></trkpt><trkpt lat="44.01527296931056" lon="8.035395362808414"><ele>265.5</ele><time>2026-03-26T13:58:19.999Z</time></trkpt><trkpt lat="44.0153908999372" lon="8.035377043088404"><ele>266.0</ele><time>2026-03-26T13:58:20.999Z</time></trkpt><trkpt lat="44.01549204127657" lon="8.03536703044063"><ele>266.0</ele><time>2026-03-26T13:58:21.999Z</time></trkpt><trkpt lat="44.01556428528294" lon="8.035355323384497"><ele>266.0</ele><time>2026-03-26T13:58:22.999Z</time></trkpt><trkpt lat="44.01563305447165" lon="8.035329268048267"><ele>266.0</ele><time>2026-03-26T13:58:23.999Z</time></trkpt><trkpt lat="44.015708455019016" lon="8.035263834572524"><ele>266.0</ele><time>2026-03-26T13:58:24.999Z</time></trkpt><trkpt lat="44.01579252226778" lon="8.035172629552175"><ele>266.0</ele><time>2026-03-26T13:58:25.999Z</time></trkpt><trkpt lat="44.01587582893991" lon="8.035115478505423"><ele>266.0</ele><time>2026-03-26T13:58:26.999Z</time></trkpt><trkpt lat="44.01597229312918" lon="8.035061849067025"><ele>267.2</ele><time>2026-03-26T13:58:27.999Z</time></trkpt><trkpt lat="44.01604720620101" lon="8.034972574072647"><ele>268.40000000000003</ele><time>2026-03-26T13:58:29.999Z</time></trkpt><trkpt lat="44.01615563127182" lon="8.034848567890322"><ele>269.6</ele><time>2026-03-26T13:58:31.999Z</time></trkpt><trkpt lat="44.016191560691176" lon="8.034773079418683"><ele>270.8</ele><time>2026-03-26T13:58:32.999Z</time></trkpt><trkpt lat="44.01623802898766" lon="8.034649727704494"><ele>272.0</ele><time>2026-03-26T13:58:34.999Z</time></trkpt><trkpt lat="44.01630276102977" lon="8.034684178311288"><ele>272.0</ele><time>2026-03-26T13:58:38.999Z</time></trkpt><trkpt lat="44.01633967384869" lon="8.034774247679085"><ele>272.0</ele><time>2026-03-26T13:58:42.999Z</time></trkpt><trkpt lat="44.01634712389449" lon="8.034902464082343"><ele>272.0</ele><time>2026-03-26T13:58:44.999Z</time></trkpt><trkpt lat="44.01632490468541" lon="8.035013668061888"><ele>272.0</ele><time>2026-03-26T13:58:45.999Z</time></trkpt><trkpt lat="44.01630298083679" lon="8.035132542269274"><ele>272.0</ele><time>2026-03-26T13:58:46.999Z</time></trkpt><trkpt lat="44.016275158592514" lon="8.035237192296975"><ele>272.0</ele><time>2026-03-26T13:58:47.999Z</time></trkpt><trkpt lat="44.01623958259727" lon="8.0353791212631"><ele>272.0</ele><time>2026-03-26T13:58:48.999Z</time></trkpt><trkpt lat="44.01620997981376" lon="8.035511352518583"><ele>272.0</ele><time>2026-03-26T13:58:49.999Z</time></trkpt><trkpt lat="44.01618554589055" lon="8.035631307235624"><ele>272.0</ele><time>2026-03-26T13:58:50.999Z</time></trkpt><trkpt lat="44.01618580313721" lon="8.03573000027158"><ele>272.0</ele><time>2026-03-26T13:58:51.999Z</time></trkpt><trkpt lat="44.01619812280262" lon="8.035846522590349"><ele>272.0</ele><time>2026-03-26T13:58:52.999Z</time></trkpt><trkpt lat="44.01618675249423" lon="8.035954533493172"><ele>272.0</ele><time>2026-03-26T13:58:53.999Z</time></trkpt><trkpt lat="44.01615237267216" lon="8.03608132061731"><ele>268.1666666666667</ele><time>2026-03-26T13:58:54.999Z</time></trkpt><trkpt lat="44.01613664437946" lon="8.036181162181157"><ele>264.33333333333337</ele><time>2026-03-26T13:58:55.999Z</time></trkpt><trkpt lat="44.01613268070866" lon="8.036276111728528"><ele>260.5</ele><time>2026-03-26T13:58:56.999Z</time></trkpt><trkpt lat="44.016113793189426" lon="8.036415084839753"><ele>256.6666666666667</ele><time>2026-03-26T13:58:58.999Z</time></trkpt><trkpt lat="44.0161282850881" lon="8.0365482904859"><ele>252.83333333333334</ele><time>2026-03-26T13:58:59.999Z</time></trkpt><trkpt lat="44.01614767289025" lon="8.036634614331733"><ele>249.0</ele><time>2026-03-26T13:59:00.999Z</time></trkpt><trkpt lat="44.01615746849229" lon="8.036789152235437"><ele>246.33333333333334</ele><time>2026-03-26T13:59:02.999Z</time></trkpt><trkpt lat="44.01616387807587" lon="8.036949495782611"><ele>243.66666666666669</ele><time>2026-03-26T13:59:04.999Z</time></trkpt><trkpt lat="44.01617276668062" lon="8.037054843969685"><ele>241.0</ele><time>2026-03-26T13:59:05.999Z</time></trkpt><trkpt lat="44.01619752613286" lon="8.0371544837595"><ele>238.33333333333334</ele><time>2026-03-26T13:59:07.999Z</time></trkpt><trkpt lat="44.01627001951568" lon="8.037191521150742"><ele>235.66666666666669</ele><time>2026-03-26T13:59:09.999Z</time></trkpt><trkpt lat="44.01633898073903" lon="8.037213008211562"><ele>233.0</ele><time>2026-03-26T13:59:10.999Z</time></trkpt><trkpt lat="44.016394618485656" lon="8.037279824658734"><ele>233.0</ele><time>2026-03-26T13:59:12.999Z</time></trkpt><trkpt lat="44.016410367126134" lon="8.037425769778258"><ele>233.0</ele><time>2026-03-26T13:59:14.999Z</time></trkpt><trkpt lat="44.016447978091506" lon="8.03753981383378"><ele>233.0</ele><time>2026-03-26T13:59:16.999Z</time></trkpt><trkpt lat="44.01648187889549" lon="8.03765728467268"><ele>233.0</ele><time>2026-03-26T13:59:18.999Z</time></trkpt><trkpt lat="44.01655618417101" lon="8.03775942701513"><ele>233.0</ele><time>2026-03-26T13:59:20.999Z</time></trkpt><trkpt lat="44.016651450958584" lon="8.037851093544834"><ele>235.60000000000002</ele><time>2026-03-26T13:59:22.999Z</time></trkpt><trkpt lat="44.01674078473208" lon="8.037990053040177"><ele>238.20000000000002</ele><time>2026-03-26T13:59:24.999Z</time></trkpt><trkpt lat="44.01677290969452" lon="8.038079920926121"><ele>240.8</ele><time>2026-03-26T13:59:25.999Z</time></trkpt><trkpt lat="44.01682109524808" lon="8.03825398888327"><ele>243.4</ele><time>2026-03-26T13:59:27.999Z</time></trkpt><trkpt lat="44.016857362578456" lon="8.0383434504373"><ele>246.0</ele><time>2026-03-26T13:59:28.999Z</time></trkpt><trkpt lat="44.016898694347134" lon="8.038432882492332"><ele>241.71428571428575</ele><time>2026-03-26T13:59:29.999Z</time></trkpt><trkpt lat="44.01693947089529" lon="8.038510525847967"><ele>237.42857142857144</ele><time>2026-03-26T13:59:30.999Z</time></trkpt><trkpt lat="44.016977085307026" lon="8.038585564213076"><ele>233.14285714285717</ele><time>2026-03-26T13:59:31.999Z</time></trkpt><trkpt lat="44.01704226863119" lon="8.0386593986019"><ele>228.8571428571429</ele><time>2026-03-26T13:59:33.999Z</time></trkpt><trkpt lat="44.01710808578759" lon="8.038681585178407"><ele>224.57142857142856</ele><time>2026-03-26T13:59:34.999Z</time></trkpt><trkpt lat="44.017173123576704" lon="8.038708528720646"><ele>220.28571428571428</ele><time>2026-03-26T13:59:35.999Z</time></trkpt><trkpt lat="44.017236058254916" lon="8.03876059461388"><ele>216.0</ele><time>2026-03-26T13:59:36.999Z</time></trkpt><trkpt lat="44.01728899585514" lon="8.038844261964787"><ele>216.0</ele><time>2026-03-26T13:59:37.999Z</time></trkpt><trkpt lat="44.01733539891121" lon="8.038930631818639"><ele>216.0</ele><time>2026-03-26T13:59:38.999Z</time></trkpt><trkpt lat="44.017389189451045" lon="8.038983729266064"><ele>216.0</ele><time>2026-03-26T13:59:39.999Z</time></trkpt><trkpt lat="44.0174476794661" lon="8.03903026276288"><ele>216.0</ele><time>2026-03-26T13:59:40.999Z</time></trkpt><trkpt lat="44.01751066500153" lon="8.03906060223101"><ele>216.0</ele><time>2026-03-26T13:59:41.999Z</time></trkpt><trkpt lat="44.017605211341" lon="8.039169842589326"><ele>216.0</ele><time>2026-03-26T13:59:43.999Z</time></trkpt><trkpt lat="44.01765605021323" lon="8.039262051709635"><ele>215.66666666666666</ele><time>2026-03-26T13:59:45Z</time></trkpt><trkpt lat="44.01770014444881" lon="8.039343080503677"><ele>215.33333333333331</ele><time>2026-03-26T13:59:46Z</time></trkpt><trkpt lat="44.01776500820406" lon="8.039420544897721"><ele>215.0</ele><time>2026-03-26T13:59:47Z</time></trkpt><trkpt lat="44.01781603604835" lon="8.03951478767827"><ele>214.66666666666666</ele><time>2026-03-26T13:59:48Z</time></trkpt><trkpt lat="44.017859704974576" lon="8.039621317512491"><ele>214.33333333333331</ele><time>2026-03-26T13:59:49Z</time></trkpt><trkpt lat="44.01790605174191" lon="8.039726748130972"><ele>214.0</ele><time>2026-03-26T13:59:50Z</time></trkpt><trkpt lat="44.01795299543969" lon="8.03984706969122"><ele>213.99999999999997</ele><time>2026-03-26T13:59:51Z</time></trkpt><trkpt lat="44.0180215645697" lon="8.039925823015748"><ele>214.0</ele><time>2026-03-26T13:59:52Z</time></trkpt><trkpt lat="44.01808320792475" lon="8.040025669428845"><ele>214.0</ele><time>2026-03-26T13:59:53Z</time></trkpt><trkpt lat="44.01814960637556" lon="8.040127802615078"><ele>214.0</ele><time>2026-03-26T13:59:54Z</time></trkpt><trkpt lat="44.018207266750835" lon="8.04021804304842"><ele>213.99999999999997</ele><time>2026-03-26T13:59:55Z</time></trkpt><trkpt lat="44.01824967476751" lon="8.040289215997236"><ele>214.0</ele><time>2026-03-26T13:59:56Z</time></trkpt><trkpt lat="44.01830275524645" lon="8.040447633637328"><ele>214.83333333333331</ele><time>2026-03-26T13:59:58Z</time></trkpt><trkpt lat="44.01833099277736" lon="8.04052771789003"><ele>215.66666666666666</ele><time>2026-03-26T13:59:59Z</time></trkpt><trkpt lat="44.0183747779797" lon="8.04062936175447"><ele>216.5</ele><time>2026-03-26T14:00:01Z</time></trkpt><trkpt lat="44.01847007993758" lon="8.040645442205994"><ele>217.33333333333331</ele><time>2026-03-26T14:00:03Z</time></trkpt><trkpt lat="44.018489983239135" lon="8.040755066839836"><ele>218.16666666666666</ele><time>2026-03-26T14:00:05Z</time></trkpt><trkpt lat="44.018508221161085" lon="8.04091969423825"><ele>219.0</ele><time>2026-03-26T14:00:07Z</time></trkpt><trkpt lat="44.01858774870645" lon="8.041000440028029"><ele>215.2</ele><time>2026-03-26T14:00:08Z</time></trkpt><trkpt lat="44.01868144008191" lon="8.041081269721316"><ele>211.39999999999998</ele><time>2026-03-26T14:00:09Z</time></trkpt><trkpt lat="44.018753184998765" lon="8.041163863234294"><ele>207.6</ele><time>2026-03-26T14:00:10Z</time></trkpt><trkpt lat="44.018875602490134" lon="8.041210486655583"><ele>203.8</ele><time>2026-03-26T14:00:12Z</time></trkpt><trkpt lat="44.01895555835548" lon="8.041211096282781"><ele>200.0</ele><time>2026-03-26T14:00:13Z</time></trkpt><trkpt lat="44.0190563726302" lon="8.041200244938938"><ele>202.8</ele><time>2026-03-26T14:00:14Z</time></trkpt><trkpt lat="44.01917701553421" lon="8.041207214859124"><ele>205.6</ele><time>2026-03-26T14:00:15Z</time></trkpt><trkpt lat="44.01926159466265" lon="8.04123530309561"><ele>208.39999999999998</ele><time>2026-03-26T14:00:16Z</time></trkpt><trkpt lat="44.01936107840356" lon="8.041272328129782"><ele>211.2</ele><time>2026-03-26T14:00:17Z</time></trkpt><trkpt lat="44.01944975153678" lon="8.04129732506569"><ele>214.0</ele><time>2026-03-26T14:00:18Z</time></trkpt><trkpt lat="44.01952561394437" lon="8.04132366870435"><ele>213.99999999999997</ele><time>2026-03-26T14:00:19Z</time></trkpt><trkpt lat="44.019599394878504" lon="8.041349186486311"><ele>214.0</ele><time>2026-03-26T14:00:20Z</time></trkpt><trkpt lat="44.01969888803523" lon="8.041333763512426"><ele>214.0</ele><time>2026-03-26T14:00:22Z</time></trkpt><trkpt lat="44.019780145891765" lon="8.041334938209701"><ele>214.0</ele><time>2026-03-26T14:00:23Z</time></trkpt><trkpt lat="44.019877814396864" lon="8.041315501746562"><ele>213.99999999999997</ele><time>2026-03-26T14:00:24Z</time></trkpt><trkpt lat="44.01996208284585" lon="8.041289659669648"><ele>214.0</ele><time>2026-03-26T14:00:25Z</time></trkpt><trkpt lat="44.020068935866384" lon="8.041262466299237"><ele>214.33333333333331</ele><time>2026-03-26T14:00:27Z</time></trkpt><trkpt lat="44.020144193898474" lon="8.041271070206916"><ele>214.66666666666666</ele><time>2026-03-26T14:00:28Z</time></trkpt><trkpt lat="44.020237339554214" lon="8.041298419172142"><ele>215.0</ele><time>2026-03-26T14:00:29Z</time></trkpt><trkpt lat="44.02033305242831" lon="8.041308519374963"><ele>215.33333333333331</ele><time>2026-03-26T14:00:30Z</time></trkpt><trkpt lat="44.020403657630304" lon="8.04131048656785"><ele>215.66666666666666</ele><time>2026-03-26T14:00:31Z</time></trkpt><trkpt lat="44.02048443718228" lon="8.041316601656444"><ele>216.0</ele><time>2026-03-26T14:00:33Z</time></trkpt><trkpt lat="44.02057583093825" lon="8.041453803922465"><ele>216.0</ele><time>2026-03-26T14:00:35Z</time></trkpt><trkpt lat="44.02064301186771" lon="8.041555521826298"><ele>216.00000000000003</ele><time>2026-03-26T14:00:36Z</time></trkpt><trkpt lat="44.020700782576085" lon="8.041627386350672"><ele>216.00000000000003</ele><time>2026-03-26T14:00:37Z</time></trkpt><trkpt lat="44.020749677712075" lon="8.041785107211675"><ele>216.0</ele><time>2026-03-26T14:00:39Z</time></trkpt><trkpt lat="44.020799782522815" lon="8.041889995781403"><ele>216.0</ele><time>2026-03-26T14:00:40Z</time></trkpt><trkpt lat="44.0208725669573" lon="8.041985231811271"><ele>209.5</ele><time>2026-03-26T14:00:41Z</time></trkpt><trkpt lat="44.020953271532626" lon="8.042103891967402"><ele>203.0</ele><time>2026-03-26T14:00:42Z</time></trkpt><trkpt lat="44.02103898291183" lon="8.042200663654215"><ele>196.5</ele><time>2026-03-26T14:00:43Z</time></trkpt><trkpt lat="44.021085028013715" lon="8.042293396163258"><ele>190.0</ele><time>2026-03-26T14:00:44Z</time></trkpt><trkpt lat="44.02118249792034" lon="8.042455352581745"><ele>188.0</ele><time>2026-03-26T14:00:46Z</time></trkpt><trkpt lat="44.02124571257747" lon="8.042542393883474"><ele>186.0</ele><time>2026-03-26T14:00:47Z</time></trkpt><trkpt lat="44.02134757460778" lon="8.042572253397385"><ele>184.0</ele><time>2026-03-26T14:00:49Z</time></trkpt><trkpt lat="44.02143763996156" lon="8.042608313133973"><ele>182.0</ele><time>2026-03-26T14:00:50Z</time></trkpt><trkpt lat="44.02152953815839" lon="8.042629481772227"><ele>180.0</ele><time>2026-03-26T14:00:51Z</time></trkpt><trkpt lat="44.02164625288395" lon="8.042653319019077"><ele>180.8</ele><time>2026-03-26T14:00:52Z</time></trkpt><trkpt lat="44.02175770618666" lon="8.042679908653001"><ele>181.6</ele><time>2026-03-26T14:00:53Z</time></trkpt><trkpt lat="44.02185125435491" lon="8.04271016768143"><ele>182.39999999999998</ele><time>2026-03-26T14:00:54Z</time></trkpt><trkpt lat="44.02199126972103" lon="8.042735470934193"><ele>183.2</ele><time>2026-03-26T14:00:56Z</time></trkpt><trkpt lat="44.02205201262622" lon="8.04267603952792"><ele>184.0</ele><time>2026-03-26T14:00:58Z</time></trkpt><trkpt lat="44.02215154703586" lon="8.042746942534702"><ele>184.0</ele><time>2026-03-26T14:01:01Z</time></trkpt><trkpt lat="44.022212156701464" lon="8.0428405045831"><ele>184.0</ele><time>2026-03-26T14:01:02Z</time></trkpt><trkpt lat="44.02228718037441" lon="8.042896438546904"><ele>184.0</ele><time>2026-03-26T14:01:03Z</time></trkpt><trkpt lat="44.02237803763442" lon="8.042908209049669"><ele>184.0</ele><time>2026-03-26T14:01:04Z</time></trkpt><trkpt lat="44.02247256801515" lon="8.042915756383811"><ele>184.0</ele><time>2026-03-26T14:01:05Z</time></trkpt><trkpt lat="44.02259510561196" lon="8.042929212009582"><ele>185.0</ele><time>2026-03-26T14:01:06Z</time></trkpt><trkpt lat="44.022740053277545" lon="8.042952688079554"><ele>186.0</ele><time>2026-03-26T14:01:07Z</time></trkpt><trkpt lat="44.022849200719406" lon="8.04297858143803"><ele>187.0</ele><time>2026-03-26T14:01:08Z</time></trkpt><trkpt lat="44.02293200292724" lon="8.043026745994291"><ele>188.0</ele><time>2026-03-26T14:01:09Z</time></trkpt><trkpt lat="44.023021498756236" lon="8.043083326176607"><ele>189.0</ele><time>2026-03-26T14:01:10Z</time></trkpt><trkpt lat="44.023089718994775" lon="8.043100011915431"><ele>189.0</ele><time>2026-03-26T14:01:11Z</time></trkpt><trkpt lat="44.02318649711535" lon="8.043124450727364"><ele>189.0</ele><time>2026-03-26T14:01:12Z</time></trkpt><trkpt lat="44.02328920387822" lon="8.043122456058642"><ele>189.0</ele><time>2026-03-26T14:01:13Z</time></trkpt><trkpt lat="44.02337597860903" lon="8.043142207857972"><ele>189.0</ele><time>2026-03-26T14:01:14Z</time></trkpt><trkpt lat="44.0234798861277" lon="8.043174135649368"><ele>189.0</ele><time>2026-03-26T14:01:15Z</time></trkpt><trkpt lat="44.02358741754696" lon="8.04319840190466"><ele>190.39999999999998</ele><time>2026-03-26T14:01:16Z</time></trkpt><trkpt lat="44.02365144991754" lon="8.04323982678055"><ele>191.8</ele><time>2026-03-26T14:01:17Z</time></trkpt><trkpt lat="44.02371191792783" lon="8.04329778530333"><ele>193.2</ele><time>2026-03-26T14:01:18Z</time></trkpt><trkpt lat="44.02377097315434" lon="8.043372427335767"><ele>194.60000000000002</ele><time>2026-03-26T14:01:19Z</time></trkpt><trkpt lat="44.023868124417035" lon="8.043469670328674"><ele>196.0</ele><time>2026-03-26T14:01:20Z</time></trkpt><trkpt lat="44.02397429787657" lon="8.043551907840541"><ele>191.4</ele><time>2026-03-26T14:01:21Z</time></trkpt><trkpt lat="44.02406378149164" lon="8.043631085216603"><ele>186.8</ele><time>2026-03-26T14:01:22Z</time></trkpt><trkpt lat="44.02414099612884" lon="8.043701140540481"><ele>182.20000000000002</ele><time>2026-03-26T14:01:23Z</time></trkpt><trkpt lat="44.024207850965446" lon="8.043730110460979"><ele>177.60000000000002</ele><time>2026-03-26T14:01:24Z</time></trkpt><trkpt lat="44.02430969724786" lon="8.043788159498861"><ele>173.0</ele><time>2026-03-26T14:01:25Z</time></trkpt><trkpt lat="44.02441376272195" lon="8.043849656835173"><ele>173.0</ele><time>2026-03-26T14:01:26Z</time></trkpt><trkpt lat="44.024487981574005" lon="8.043919494487824"><ele>173.0</ele><time>2026-03-26T14:01:27Z</time></trkpt><trkpt lat="44.02455761298955" lon="8.044001507634986"><ele>173.0</ele><time>2026-03-26T14:01:28Z</time></trkpt><trkpt lat="44.02463861759551" lon="8.044070588451008"><ele>173.0</ele><time>2026-03-26T14:01:29Z</time></trkpt><trkpt lat="44.02472287202382" lon="8.044087964238459"><ele>173.0</ele><time>2026-03-26T14:01:30Z</time></trkpt><trkpt lat="44.02478941906779" lon="8.044106286816616"><ele>173.0</ele><time>2026-03-26T14:01:31Z</time></trkpt><trkpt lat="44.0248583581828" lon="8.044129404410263"><ele>171.4</ele><time>2026-03-26T14:01:32Z</time></trkpt><trkpt lat="44.024940861351226" lon="8.044171099595376"><ele>169.8</ele><time>2026-03-26T14:03:38Z</time></trkpt><trkpt lat="44.02504494360842" lon="8.044265931897401"><ele>168.2</ele><time>2026-03-26T14:03:40Z</time></trkpt><trkpt lat="44.025093280271825" lon="8.044358439520035"><ele>166.6</ele><time>2026-03-26T14:03:41Z</time></trkpt><trkpt lat="44.02514546387624" lon="8.044420441320064"><ele>165.0</ele><time>2026-03-26T14:03:42Z</time></trkpt><trkpt lat="44.025249669025236" lon="8.0444227619731"><ele>164.33333333333334</ele><time>2026-03-26T14:03:44Z</time></trkpt><trkpt lat="44.0253205679639" lon="8.044457537133914"><ele>163.66666666666666</ele><time>2026-03-26T14:03:45Z</time></trkpt><trkpt lat="44.025412561411805" lon="8.04449994500608"><ele>163.0</ele><time>2026-03-26T14:03:46Z</time></trkpt><trkpt lat="44.02548345392883" lon="8.044545193056527"><ele>162.33333333333331</ele><time>2026-03-26T14:03:47Z</time></trkpt><trkpt lat="44.02555264633632" lon="8.044584449561913"><ele>161.66666666666666</ele><time>2026-03-26T14:03:48Z</time></trkpt><trkpt lat="44.02560907456198" lon="8.044625882020632"><ele>161.0</ele><time>2026-03-26T14:03:49Z</time></trkpt><trkpt lat="44.02567879189826" lon="8.044764186663114"><ele>161.0</ele><time>2026-03-26T14:03:51Z</time></trkpt><trkpt lat="44.02573375659658" lon="8.044898013379346"><ele>161.0</ele><time>2026-03-26T14:03:53Z</time></trkpt><trkpt lat="44.025773060959956" lon="8.04500817908924"><ele>161.0</ele><time>2026-03-26T14:03:56Z</time></trkpt><trkpt lat="44.02580694358131" lon="8.04509646752443"><ele>161.0</ele><time>2026-03-26T14:03:57.999Z</time></trkpt><trkpt lat="44.0258425047898" lon="8.045189772047797"><ele>161.0</ele><time>2026-03-26T14:03:59.999Z</time></trkpt><trkpt lat="44.02587433886894" lon="8.0452983127772"><ele>161.0</ele><time>2026-03-26T14:05:59Z</time></trkpt><trkpt lat="44.02587414701036" lon="8.04520478880945"><ele>161.0</ele><time>2026-03-26T14:06:10.999Z</time></trkpt><trkpt lat="44.02581918752516" lon="8.045087622026214"><ele>161.0</ele><time>2026-03-26T14:06:12.999Z</time></trkpt><trkpt lat="44.025784502014425" lon="8.044982753247648"><ele>161.0</ele><time>2026-03-26T14:06:13.999Z</time></trkpt><trkpt lat="44.02574489294436" lon="8.044868973813799"><ele>161.0</ele><time>2026-03-26T14:06:14.999Z</time></trkpt><trkpt lat="44.02571246084319" lon="8.044774377708638"><ele>161.0</ele><time>2026-03-26T14:06:15.999Z</time></trkpt><trkpt lat="44.02568119481102" lon="8.04468345608709"><ele>161.0</ele><time>2026-03-26T14:06:16.999Z</time></trkpt><trkpt lat="44.02561692501248" lon="8.044621402647847"><ele>161.0</ele><time>2026-03-26T14:06:17.999Z</time></trkpt><trkpt lat="44.02555841678836" lon="8.044567686167323"><ele>161.0</ele><time>2026-03-26T14:06:18.999Z</time></trkpt><trkpt lat="44.025408574383526" lon="8.044494173151637"><ele>161.0</ele><time>2026-03-26T14:06:20.999Z</time></trkpt><trkpt lat="44.02530502007787" lon="8.044445466030552"><ele>161.0</ele><time>2026-03-26T14:06:21.999Z</time></trkpt><trkpt lat="44.02522360571049" lon="8.044402820683276"><ele>161.0</ele><time>2026-03-26T14:06:22.999Z</time></trkpt><trkpt lat="44.025159667195055" lon="8.044387652936626"><ele>161.0</ele><time>2026-03-26T14:06:23.999Z</time></trkpt><trkpt lat="44.02504425047799" lon="8.044319081488672"><ele>161.0</ele><time>2026-03-26T14:06:25.999Z</time></trkpt><trkpt lat="44.024981300050726" lon="8.044226193113495"><ele>161.0</ele><time>2026-03-26T14:06:26.999Z</time></trkpt><trkpt lat="44.02494195738594" lon="8.044153783237336"><ele>161.0</ele><time>2026-03-26T14:06:27.999Z</time></trkpt><trkpt lat="44.02486488630065" lon="8.044130765271067"><ele>161.0</ele><time>2026-03-26T14:06:29.999Z</time></trkpt><trkpt lat="44.02493186651021" lon="8.044064445014067"><ele>161.0</ele><time>2026-03-26T14:07:23.999Z</time></trkpt><trkpt lat="44.025011268673204" lon="8.044066577564518"><ele>166.60000000000002</ele><time>2026-03-26T14:07:25.999Z</time></trkpt><trkpt lat="44.025136054933526" lon="8.044019842555734"><ele>172.2</ele><time>2026-03-26T14:08:15.999Z</time></trkpt><trkpt lat="44.0252228676264" lon="8.043997863743284"><ele>177.8</ele><time>2026-03-26T14:08:16.999Z</time></trkpt><trkpt lat="44.02531522527009" lon="8.043977695210822"><ele>183.39999999999998</ele><time>2026-03-26T14:08:17.999Z</time></trkpt><trkpt lat="44.02538222137441" lon="8.043994649976753"><ele>189.0</ele><time>2026-03-26T14:08:18.999Z</time></trkpt><trkpt lat="44.02546038494195" lon="8.044069941050974"><ele>189.0</ele><time>2026-03-26T14:08:19.999Z</time></trkpt><trkpt lat="44.02556593878531" lon="8.044124507336138"><ele>189.0</ele><time>2026-03-26T14:08:20.999Z</time></trkpt><trkpt lat="44.02566987087636" lon="8.044139200017007"><ele>189.0</ele><time>2026-03-26T14:08:21.999Z</time></trkpt><trkpt lat="44.02575147241328" lon="8.04413093011089"><ele>189.0</ele><time>2026-03-26T14:08:22.999Z</time></trkpt><trkpt lat="44.02581049671563" lon="8.044172488262445"><ele>189.0</ele><time>2026-03-26T14:08:23.999Z</time></trkpt><trkpt lat="44.0258829702586" lon="8.044274833367247"><ele>183.79999999999998</ele><time>2026-03-26T14:08:24.999Z</time></trkpt><trkpt lat="44.025964646426935" lon="8.044366037414122"><ele>178.6</ele><time>2026-03-26T14:08:25.999Z</time></trkpt><trkpt lat="44.02606489358276" lon="8.044481593363386"><ele>173.4</ele><time>2026-03-26T14:08:26.999Z</time></trkpt><trkpt lat="44.026156974535745" lon="8.044567331923167"><ele>168.2</ele><time>2026-03-26T14:08:27.999Z</time></trkpt><trkpt lat="44.02623841226067" lon="8.04461286031181"><ele>163.0</ele><time>2026-03-26T14:08:28.999Z</time></trkpt><trkpt lat="44.02633293058893" lon="8.044621778754136"><ele>163.0</ele><time>2026-03-26T14:08:29.999Z</time></trkpt><trkpt lat="44.02641952823054" lon="8.044603519041186"><ele>163.0</ele><time>2026-03-26T14:08:30.999Z</time></trkpt><trkpt lat="44.026482895805614" lon="8.044687164822756"><ele>163.0</ele><time>2026-03-26T14:08:45.999Z</time></trkpt><trkpt lat="44.02654706606693" lon="8.044763000911157"><ele>163.0</ele><time>2026-03-26T14:08:47.999Z</time></trkpt><trkpt lat="44.02660809475058" lon="8.044877092300853"><ele>163.0</ele><time>2026-03-26T14:08:49.999Z</time></trkpt><trkpt lat="44.02664080262563" lon="8.045051591451205"><ele>161.5</ele><time>2026-03-26T14:08:51.999Z</time></trkpt><trkpt lat="44.026664950186216" lon="8.045171920505163"><ele>160.0</ele><time>2026-03-26T14:08:53.999Z</time></trkpt><trkpt lat="44.02659011664759" lon="8.045240620372956"><ele>158.5</ele><time>2026-03-26T14:08:56.999Z</time></trkpt><trkpt lat="44.026605384200984" lon="8.045354074713373"><ele>157.0</ele><time>2026-03-26T14:08:59.999Z</time></trkpt><trkpt lat="44.026637436995955" lon="8.045480902795225"><ele>155.5</ele><time>2026-03-26T14:09:02.999Z</time></trkpt><trkpt lat="44.02665027021576" lon="8.045602788732582"><ele>154.0</ele><time>2026-03-26T14:09:05.999Z</time></trkpt><trkpt lat="44.026639159545894" lon="8.04549066800143"><ele>154.0</ele><time>2026-03-26T14:09:54Z</time></trkpt><trkpt lat="44.026620780539076" lon="8.045396433219274"><ele>154.0</ele><time>2026-03-26T14:09:57Z</time></trkpt><trkpt lat="44.02661654045975" lon="8.045292057254194"><ele>154.0</ele><time>2026-03-26T14:11:01Z</time></trkpt><trkpt lat="44.026662723925014" lon="8.045186569889015"><ele>154.0</ele><time>2026-03-26T14:11:06Z</time></trkpt><trkpt lat="44.02669075104579" lon="8.045076718167426"><ele>154.0</ele><time>2026-03-26T14:11:08Z</time></trkpt><trkpt lat="44.026631018821014" lon="8.044918342261784"><ele>154.0</ele><time>2026-03-26T14:11:10Z</time></trkpt><trkpt lat="44.026590003004586" lon="8.044825308946086"><ele>155.5</ele><time>2026-03-26T14:11:11Z</time></trkpt><trkpt lat="44.026523634003816" lon="8.04472143598491"><ele>157.0</ele><time>2026-03-26T14:11:13Z</time></trkpt><trkpt lat="44.026464272087715" lon="8.044654168642756"><ele>158.5</ele><time>2026-03-26T14:11:15Z</time></trkpt><trkpt lat="44.026449164485854" lon="8.044556838148637"><ele>160.0</ele><time>2026-03-26T14:11:18Z</time></trkpt><trkpt lat="44.02649625552892" lon="8.044497289451103"><ele>161.5</ele><time>2026-03-26T14:11:20Z</time></trkpt><trkpt lat="44.026528863782914" lon="8.04440305496784"><ele>163.0</ele><time>2026-03-26T14:11:21Z</time></trkpt><trkpt lat="44.02657757974074" lon="8.044327611081284"><ele>163.0</ele><time>2026-03-26T14:11:22Z</time></trkpt><trkpt lat="44.026618614436764" lon="8.044258093032822"><ele>163.0</ele><time>2026-03-26T14:11:23Z</time></trkpt><trkpt lat="44.02667927175611" lon="8.044117609621997"><ele>163.0</ele><time>2026-03-26T14:11:25Z</time></trkpt><trkpt lat="44.026727944858514" lon="8.044014391537031"><ele>163.0</ele><time>2026-03-26T14:11:26Z</time></trkpt><trkpt lat="44.02675995965393" lon="8.04391662179579"><ele>163.0</ele><time>2026-03-26T14:11:27Z</time></trkpt><trkpt lat="44.02677955329321" lon="8.043807967929542"><ele>163.0</ele><time>2026-03-26T14:11:28Z</time></trkpt><trkpt lat="44.02680664799594" lon="8.043683820729605"><ele>165.0</ele><time>2026-03-26T14:11:29Z</time></trkpt><trkpt lat="44.026851380995524" lon="8.043536424257407"><ele>167.0</ele><time>2026-03-26T14:11:30Z</time></trkpt><trkpt lat="44.026866856980746" lon="8.043431932774146"><ele>169.0</ele><time>2026-03-26T14:11:31Z</time></trkpt><trkpt lat="44.02688444896112" lon="8.043284255164204"><ele>171.0</ele><time>2026-03-26T14:11:32Z</time></trkpt><trkpt lat="44.026894113398086" lon="8.043110785944288"><ele>173.0</ele><time>2026-03-26T14:11:33Z</time></trkpt><trkpt lat="44.02690433340764" lon="8.042965806905626"><ele>177.60000000000002</ele><time>2026-03-26T14:11:34Z</time></trkpt><trkpt lat="44.02693195452962" lon="8.042846204114268"><ele>182.20000000000002</ele><time>2026-03-26T14:11:35Z</time></trkpt><trkpt lat="44.026959397647346" lon="8.042704194513954"><ele>186.8</ele><time>2026-03-26T14:11:36Z</time></trkpt><trkpt lat="44.02696941067245" lon="8.042563429662287"><ele>191.4</ele><time>2026-03-26T14:11:37Z</time></trkpt><trkpt lat="44.02699311730744" lon="8.042424303432238"><ele>196.0</ele><time>2026-03-26T14:11:38Z</time></trkpt><trkpt lat="44.02701942817061" lon="8.04231114171414"><ele>203.5</ele><time>2026-03-26T14:11:39Z</time></trkpt><trkpt lat="44.02707074807875" lon="8.042176832873595"><ele>211.0</ele><time>2026-03-26T14:11:40Z</time></trkpt><trkpt lat="44.02712566000571" lon="8.042039371157449"><ele>218.5</ele><time>2026-03-26T14:11:41Z</time></trkpt><trkpt lat="44.027169065943426" lon="8.041889907111647"><ele>226.0</ele><time>2026-03-26T14:11:42Z</time></trkpt><trkpt lat="44.02721585235422" lon="8.041721007343599"><ele>231.0</ele><time>2026-03-26T14:11:43Z</time></trkpt><trkpt lat="44.02726105215197" lon="8.04158159171607"><ele>236.0</ele><time>2026-03-26T14:11:44Z</time></trkpt><trkpt lat="44.02731911877094" lon="8.0414172437313"><ele>241.0</ele><time>2026-03-26T14:11:45Z</time></trkpt><trkpt lat="44.027380902824355" lon="8.041230765442055"><ele>246.0</ele><time>2026-03-26T14:11:46Z</time></trkpt><trkpt lat="44.02744681184015" lon="8.041090217323163"><ele>233.20000000000002</ele><time>2026-03-26T14:11:47Z</time></trkpt><trkpt lat="44.02749157765648" lon="8.04098523102714"><ele>220.40000000000003</ele><time>2026-03-26T14:11:48Z</time></trkpt><trkpt lat="44.027528847390094" lon="8.040899159924136"><ele>207.6</ele><time>2026-03-26T14:11:49Z</time></trkpt><trkpt lat="44.027558955755644" lon="8.040718605861668"><ele>194.8</ele><time>2026-03-26T14:11:51Z</time></trkpt><trkpt lat="44.02757320808984" lon="8.040549767174134"><ele>182.0</ele><time>2026-03-26T14:11:52Z</time></trkpt><trkpt lat="44.02758561184885" lon="8.040388490784498"><ele>182.0</ele><time>2026-03-26T14:11:53Z</time></trkpt><trkpt lat="44.027640357088735" lon="8.040327542979826"><ele>182.0</ele><time>2026-03-26T14:11:54Z</time></trkpt><trkpt lat="44.0276617106793" lon="8.040155440754447"><ele>182.0</ele><time>2026-03-26T14:11:55Z</time></trkpt><trkpt lat="44.02766718786999" lon="8.04000445598054"><ele>182.0</ele><time>2026-03-26T14:11:56Z</time></trkpt><trkpt lat="44.027653959225596" lon="8.03982947704046"><ele>182.0</ele><time>2026-03-26T14:11:58Z</time></trkpt><trkpt lat="44.02762597694077" lon="8.039711657487905"><ele>183.0</ele><time>2026-03-26T14:11:59Z</time></trkpt><trkpt lat="44.02762887360266" lon="8.039596774113697"><ele>184.0</ele><time>2026-03-26T14:12:00Z</time></trkpt><trkpt lat="44.02763478531121" lon="8.039475045232225"><ele>185.0</ele><time>2026-03-26T14:12:01Z</time></trkpt><trkpt lat="44.02764479581938" lon="8.039353344486665"><ele>186.0</ele><time>2026-03-26T14:12:02Z</time></trkpt><trkpt lat="44.027618533517256" lon="8.039164536052686"><ele>187.0</ele><time>2026-03-26T14:12:04Z</time></trkpt><trkpt lat="44.02760645552808" lon="8.03902176715614"><ele>188.2</ele><time>2026-03-26T14:12:05Z</time></trkpt><trkpt lat="44.02761265579158" lon="8.038868222903869"><ele>189.39999999999998</ele><time>2026-03-26T14:12:06Z</time></trkpt><trkpt lat="44.02761648281806" lon="8.038713982437718"><ele>190.60000000000002</ele><time>2026-03-26T14:12:07Z</time></trkpt><trkpt lat="44.02762671537103" lon="8.03859990635855"><ele>191.8</ele><time>2026-03-26T14:12:08Z</time></trkpt><trkpt lat="44.027660642066095" lon="8.038461044123466"><ele>193.0</ele><time>2026-03-26T14:12:09Z</time></trkpt><trkpt lat="44.0277018433997" lon="8.03833924802809"><ele>195.16666666666666</ele><time>2026-03-26T14:12:10Z</time></trkpt><trkpt lat="44.027753611779495" lon="8.038265800103574"><ele>197.33333333333331</ele><time>2026-03-26T14:12:11Z</time></trkpt><trkpt lat="44.02781510678443" lon="8.038185153753773"><ele>199.5</ele><time>2026-03-26T14:12:12Z</time></trkpt><trkpt lat="44.027896273887116" lon="8.038111721006228"><ele>201.66666666666669</ele><time>2026-03-26T14:12:13Z</time></trkpt><trkpt lat="44.02793964964777" lon="8.038045339090326"><ele>203.83333333333334</ele><time>2026-03-26T14:12:14Z</time></trkpt><trkpt lat="44.027977500376046" lon="8.037965074602399"><ele>206.0</ele><time>2026-03-26T14:12:15Z</time></trkpt><trkpt lat="44.028001845633064" lon="8.037848998276173"><ele>206.0</ele><time>2026-03-26T14:12:16Z</time></trkpt><trkpt lat="44.02804553318777" lon="8.03773988582461"><ele>206.0</ele><time>2026-03-26T14:12:17Z</time></trkpt><trkpt lat="44.02804819341257" lon="8.037628248491242"><ele>206.0</ele><time>2026-03-26T14:12:18Z</time></trkpt><trkpt lat="44.02803987713078" lon="8.037507210386144"><ele>206.0</ele><time>2026-03-26T14:12:19Z</time></trkpt><trkpt lat="44.02802907982001" lon="8.037378199928654"><ele>206.0</ele><time>2026-03-26T14:12:20Z</time></trkpt><trkpt lat="44.02803671873181" lon="8.037236382119598"><ele>208.25</ele><time>2026-03-26T14:12:21Z</time></trkpt><trkpt lat="44.02804259775055" lon="8.037048650143218"><ele>210.5</ele><time>2026-03-26T14:12:22Z</time></trkpt><trkpt lat="44.028057112720035" lon="8.036860785866578"><ele>212.75</ele><time>2026-03-26T14:12:23Z</time></trkpt><trkpt lat="44.0280662496613" lon="8.036732828350225"><ele>215.0</ele><time>2026-03-26T14:12:24Z</time></trkpt><trkpt lat="44.02810655892361" lon="8.036577889291241"><ele>215.0</ele><time>2026-03-26T14:12:25Z</time></trkpt><trkpt lat="44.028153452434324" lon="8.03642878774289"><ele>215.0</ele><time>2026-03-26T14:12:26Z</time></trkpt><trkpt lat="44.028204461100664" lon="8.03628769816477"><ele>215.0</ele><time>2026-03-26T14:12:27Z</time></trkpt><trkpt lat="44.0282357246956" lon="8.036146187094234"><ele>215.0</ele><time>2026-03-26T14:12:28Z</time></trkpt><trkpt lat="44.028224443528515" lon="8.03603488728539"><ele>215.0</ele><time>2026-03-26T14:12:29Z</time></trkpt><trkpt lat="44.028150155827845" lon="8.035814701041446"><ele>215.8</ele><time>2026-03-26T14:12:31Z</time></trkpt><trkpt lat="44.02812160754315" lon="8.035689841559511"><ele>216.6</ele><time>2026-03-26T14:12:32Z</time></trkpt><trkpt lat="44.0281206816899" lon="8.035568518214316"><ele>217.39999999999998</ele><time>2026-03-26T14:12:33Z</time></trkpt><trkpt lat="44.02812117807977" lon="8.035421188600516"><ele>218.2</ele><time>2026-03-26T14:12:34Z</time></trkpt><trkpt lat="44.028111479488246" lon="8.035261703464869"><ele>219.0</ele><time>2026-03-26T14:12:35Z</time></trkpt><trkpt lat="44.028115242117025" lon="8.035110321075914"><ele>219.0</ele><time>2026-03-26T14:12:36Z</time></trkpt><trkpt lat="44.02812411237889" lon="8.034911858785565"><ele>219.0</ele><time>2026-03-26T14:12:37Z</time></trkpt><trkpt lat="44.02813052306889" lon="8.03471703786418"><ele>219.0</ele><time>2026-03-26T14:12:38Z</time></trkpt><trkpt lat="44.02812469324442" lon="8.034570357091486"><ele>219.0</ele><time>2026-03-26T14:12:39Z</time></trkpt><trkpt lat="44.0281010862988" lon="8.034448843167029"><ele>219.0</ele><time>2026-03-26T14:12:40Z</time></trkpt><trkpt lat="44.02806792998528" lon="8.034283920765843"><ele>219.0</ele><time>2026-03-26T14:12:41Z</time></trkpt><trkpt lat="44.02800955233289" lon="8.034103890271448"><ele>219.0</ele><time>2026-03-26T14:12:42Z</time></trkpt><trkpt lat="44.02801114418945" lon="8.033980944274292"><ele>219.0</ele><time>2026-03-26T14:12:43Z</time></trkpt><trkpt lat="44.02801002666469" lon="8.033838157609415"><ele>217.75</ele><time>2026-03-26T14:12:44Z</time></trkpt><trkpt lat="44.02800181795403" lon="8.033667728374185"><ele>216.5</ele><time>2026-03-26T14:12:45Z</time></trkpt><trkpt lat="44.02797927705494" lon="8.033534213496363"><ele>215.25</ele><time>2026-03-26T14:12:46Z</time></trkpt><trkpt lat="44.027966232827936" lon="8.033373171371139"><ele>214.0</ele><time>2026-03-26T14:12:47Z</time></trkpt><trkpt lat="44.02793290832056" lon="8.033202503282897"><ele>213.5</ele><time>2026-03-26T14:12:48Z</time></trkpt><trkpt lat="44.02791717362043" lon="8.033018815824116"><ele>213.0</ele><time>2026-03-26T14:12:49Z</time></trkpt><trkpt lat="44.027926472093895" lon="8.032852835192639"><ele>212.5</ele><time>2026-03-26T14:12:50Z</time></trkpt><trkpt lat="44.02794520668863" lon="8.032707667360238"><ele>212.0</ele><time>2026-03-26T14:12:51Z</time></trkpt><trkpt lat="44.027958504812915" lon="8.032536143465173"><ele>212.5</ele><time>2026-03-26T14:12:52Z</time></trkpt><trkpt lat="44.02800362735023" lon="8.032369366681644"><ele>213.0</ele><time>2026-03-26T14:12:53Z</time></trkpt><trkpt lat="44.028076780708375" lon="8.032195025536708"><ele>213.5</ele><time>2026-03-26T14:12:54Z</time></trkpt><trkpt lat="44.02814345288995" lon="8.032056991147034"><ele>214.0</ele><time>2026-03-26T14:12:55Z</time></trkpt><trkpt lat="44.028203528080525" lon="8.031955864588076"><ele>213.99999999999997</ele><time>2026-03-26T14:12:56Z</time></trkpt><trkpt lat="44.02822917151144" lon="8.031866600060244"><ele>214.0</ele><time>2026-03-26T14:12:57Z</time></trkpt><trkpt lat="44.028233026858445" lon="8.031758673695572"><ele>214.0</ele><time>2026-03-26T14:12:58Z</time></trkpt><trkpt lat="44.02822178567415" lon="8.031633791545108"><ele>214.0</ele><time>2026-03-26T14:13:00Z</time></trkpt><trkpt lat="44.02817975571901" lon="8.03155764346055"><ele>213.99999999999997</ele><time>2026-03-26T14:13:05Z</time></trkpt><trkpt lat="44.02810109324699" lon="8.031519710362613"><ele>214.0</ele><time>2026-03-26T14:14:01Z</time></trkpt><trkpt lat="44.028052773880944" lon="8.031363028580463"><ele>212.6</ele><time>2026-03-26T14:14:03Z</time></trkpt><trkpt lat="44.02810200877972" lon="8.031252188107926"><ele>211.2</ele><time>2026-03-26T14:14:05Z</time></trkpt><trkpt lat="44.02814914168421" lon="8.031145649692196"><ele>209.79999999999998</ele><time>2026-03-26T14:14:07.001Z</time></trkpt><trkpt lat="44.02812262447539" lon="8.031036198840221"><ele>208.39999999999998</ele><time>2026-03-26T14:14:09.001Z</time></trkpt><trkpt lat="44.028111432986385" lon="8.030890210255619"><ele>207.0</ele><time>2026-03-26T14:14:12.001Z</time></trkpt><trkpt lat="44.0281042295751" lon="8.030719168979322"><ele>207.0</ele><time>2026-03-26T14:14:14.001Z</time></trkpt><trkpt lat="44.02810682187892" lon="8.030616698600559"><ele>207.0</ele><time>2026-03-26T14:14:15.001Z</time></trkpt><trkpt lat="44.028117589967344" lon="8.030530420687183"><ele>207.0</ele><time>2026-03-26T14:14:16.001Z</time></trkpt><trkpt lat="44.028209275201895" lon="8.030386820577895"><ele>207.0</ele><time>2026-03-26T14:14:18.001Z</time></trkpt><trkpt lat="44.02826763192691" lon="8.030258999867769"><ele>207.0</ele><time>2026-03-26T14:14:19.001Z</time></trkpt><trkpt lat="44.028291230735704" lon="8.03016808694499"><ele>202.71428571428572</ele><time>2026-03-26T14:14:20.001Z</time></trkpt><trkpt lat="44.02832878845294" lon="8.03005376324266"><ele>198.42857142857144</ele><time>2026-03-26T14:14:21.001Z</time></trkpt><trkpt lat="44.028367698069744" lon="8.029977013924741"><ele>194.14285714285717</ele><time>2026-03-26T14:14:22.001Z</time></trkpt><trkpt lat="44.02840623252705" lon="8.029902851677225"><ele>189.85714285714286</ele><time>2026-03-26T14:14:23.001Z</time></trkpt><trkpt lat="44.02844675040834" lon="8.029829230871282"><ele>185.57142857142856</ele><time>2026-03-26T14:14:24.001Z</time></trkpt><trkpt lat="44.028494995256374" lon="8.029744517138791"><ele>181.2857142857143</ele><time>2026-03-26T14:14:26.001Z</time></trkpt><trkpt lat="44.0285274460753" lon="8.029647939489932"><ele>177.0</ele><time>2026-03-26T14:19:51Z</time></trkpt><trkpt lat="44.028537553501884" lon="8.029531930205733"><ele>177.0</ele><time>2026-03-26T14:19:53Z</time></trkpt><trkpt lat="44.02853248458419" lon="8.029360045382152"><ele>177.0</ele><time>2026-03-26T14:19:55Z</time></trkpt><trkpt lat="44.02852550934364" lon="8.029260614530099"><ele>177.0</ele><time>2026-03-26T14:19:56Z</time></trkpt><trkpt lat="44.02851524100637" lon="8.029133856023966"><ele>177.0</ele><time>2026-03-26T14:19:57Z</time></trkpt><trkpt lat="44.028485211060364" lon="8.028993329103164"><ele>177.0</ele><time>2026-03-26T14:19:58Z</time></trkpt><trkpt lat="44.028444353610716" lon="8.028867571654729"><ele>177.39999999999998</ele><time>2026-03-26T14:19:59Z</time></trkpt><trkpt lat="44.02839054982317" lon="8.028750191012325"><ele>177.79999999999998</ele><time>2026-03-26T14:20:00Z</time></trkpt><trkpt lat="44.028333583561036" lon="8.028607666194539"><ele>178.2</ele><time>2026-03-26T14:20:01Z</time></trkpt><trkpt lat="44.02829279832974" lon="8.028489509425876"><ele>178.6</ele><time>2026-03-26T14:20:02Z</time></trkpt><trkpt lat="44.02828058591414" lon="8.028378040926134"><ele>179.0</ele><time>2026-03-26T14:20:03Z</time></trkpt><trkpt lat="44.0283003321931" lon="8.02824120012513"><ele>180.5</ele><time>2026-03-26T14:20:04Z</time></trkpt><trkpt lat="44.02833489918091" lon="8.028113908757954"><ele>182.0</ele><time>2026-03-26T14:20:05Z</time></trkpt><trkpt lat="44.02837999559953" lon="8.027959063743145"><ele>183.5</ele><time>2026-03-26T14:20:06Z</time></trkpt><trkpt lat="44.028434824912225" lon="8.02779451281171"><ele>185.0</ele><time>2026-03-26T14:20:07Z</time></trkpt><trkpt lat="44.02849340286344" lon="8.02762338232774"><ele>186.5</ele><time>2026-03-26T14:20:08Z</time></trkpt><trkpt lat="44.02855424911207" lon="8.027446250033773"><ele>188.0</ele><time>2026-03-26T14:20:09Z</time></trkpt><trkpt lat="44.028607830889705" lon="8.02726245466173"><ele>189.5</ele><time>2026-03-26T14:20:10Z</time></trkpt><trkpt lat="44.02865700473838" lon="8.027098398372349"><ele>191.0</ele><time>2026-03-26T14:20:11Z</time></trkpt><trkpt lat="44.02871148579893" lon="8.026932648054188"><ele>191.0</ele><time>2026-03-26T14:20:12Z</time></trkpt><trkpt lat="44.02876129906477" lon="8.026796295091831"><ele>191.0</ele><time>2026-03-26T14:20:13Z</time></trkpt><trkpt lat="44.02879099315492" lon="8.026676040662911"><ele>191.0</ele><time>2026-03-26T14:20:14Z</time></trkpt><trkpt lat="44.028810832459314" lon="8.026577051087404"><ele>191.0</ele><time>2026-03-26T14:20:15Z</time></trkpt><trkpt lat="44.02882569503614" lon="8.026479430031179"><ele>191.0</ele><time>2026-03-26T14:20:16Z</time></trkpt><trkpt lat="44.0288415427385" lon="8.026364259245511"><ele>191.0</ele><time>2026-03-26T14:20:17Z</time></trkpt><trkpt lat="44.028839363018164" lon="8.02624358208272"><ele>191.5</ele><time>2026-03-26T14:20:18Z</time></trkpt><trkpt lat="44.02880961216782" lon="8.026123061088287"><ele>192.0</ele><time>2026-03-26T14:20:19Z</time></trkpt><trkpt lat="44.02877689603348" lon="8.025998484274393"><ele>192.5</ele><time>2026-03-26T14:20:20.001Z</time></trkpt><trkpt lat="44.02874653744129" lon="8.02589442672628"><ele>193.0</ele><time>2026-03-26T14:20:21.001Z</time></trkpt><trkpt lat="44.02871072619067" lon="8.02582139813164"><ele>193.50000000000003</ele><time>2026-03-26T14:20:22.001Z</time></trkpt><trkpt lat="44.02865267096177" lon="8.025758095519548"><ele>194.0</ele><time>2026-03-26T14:20:23.001Z</time></trkpt><trkpt lat="44.028588415919465" lon="8.025687267506648"><ele>194.50000000000003</ele><time>2026-03-26T14:20:24.001Z</time></trkpt><trkpt lat="44.02852743683565" lon="8.025609466292455"><ele>195.0</ele><time>2026-03-26T14:20:25.001Z</time></trkpt><trkpt lat="44.028463607584065" lon="8.025532654817168"><ele>195.5</ele><time>2026-03-26T14:20:26.001Z</time></trkpt><trkpt lat="44.028401531624404" lon="8.025462151893496"><ele>196.0</ele><time>2026-03-26T14:20:27.001Z</time></trkpt><trkpt lat="44.028335179799235" lon="8.025423191933433"><ele>196.50000000000003</ele><time>2026-03-26T14:20:28.001Z</time></trkpt><trkpt lat="44.02826540505592" lon="8.02541430165138"><ele>197.0</ele><time>2026-03-26T14:20:29.001Z</time></trkpt><trkpt lat="44.02817664605969" lon="8.025405434798525"><ele>197.00000000000003</ele><time>2026-03-26T14:20:30.001Z</time></trkpt><trkpt lat="44.02808020379825" lon="8.02539534914195"><ele>197.0</ele><time>2026-03-26T14:20:31.001Z</time></trkpt><trkpt lat="44.02797850811032" lon="8.02537260478199"><ele>197.0</ele><time>2026-03-26T14:20:32.001Z</time></trkpt><trkpt lat="44.027902229275725" lon="8.025350615436347"><ele>197.0</ele><time>2026-03-26T14:20:33.001Z</time></trkpt><trkpt lat="44.02782743542637" lon="8.025323099574162"><ele>197.00000000000003</ele><time>2026-03-26T14:20:34.001Z</time></trkpt><trkpt lat="44.02776420764732" lon="8.025292251739812"><ele>197.0</ele><time>2026-03-26T14:20:35.001Z</time></trkpt><trkpt lat="44.02769845867337" lon="8.025227360700242"><ele>197.00000000000003</ele><time>2026-03-26T14:20:36.001Z</time></trkpt><trkpt lat="44.02764409047387" lon="8.025131318445784"><ele>197.0</ele><time>2026-03-26T14:20:37.001Z</time></trkpt><trkpt lat="44.027631239079945" lon="8.025044893390548"><ele>197.0</ele><time>2026-03-26T14:20:38.001Z</time></trkpt><trkpt lat="44.027633976060095" lon="8.024932464725547"><ele>197.0</ele><time>2026-03-26T14:20:39.001Z</time></trkpt><trkpt lat="44.02764618720575" lon="8.024831360490232"><ele>197.00000000000003</ele><time>2026-03-26T14:20:40.001Z</time></trkpt><trkpt lat="44.027655007969535" lon="8.024697121587383"><ele>197.0</ele><time>2026-03-26T14:20:41.001Z</time></trkpt><trkpt lat="44.02766168777142" lon="8.024562693666747"><ele>198.6</ele><time>2026-03-26T14:20:42.001Z</time></trkpt><trkpt lat="44.02767857883056" lon="8.024425677696579"><ele>200.2</ele><time>2026-03-26T14:20:43.001Z</time></trkpt><trkpt lat="44.02768566752953" lon="8.024319102388853"><ele>201.8</ele><time>2026-03-26T14:20:44.001Z</time></trkpt><trkpt lat="44.02771663259007" lon="8.02418787975741"><ele>203.4</ele><time>2026-03-26T14:20:45Z</time></trkpt><trkpt lat="44.02776705215781" lon="8.024084558253092"><ele>205.0</ele><time>2026-03-26T14:20:46Z</time></trkpt><trkpt lat="44.02781601415024" lon="8.02398030651714"><ele>205.0</ele><time>2026-03-26T14:20:47Z</time></trkpt><trkpt lat="44.027846201052526" lon="8.02386359295949"><ele>205.0</ele><time>2026-03-26T14:20:48Z</time></trkpt><trkpt lat="44.02786046561284" lon="8.023756538674794"><ele>205.0</ele><time>2026-03-26T14:20:49Z</time></trkpt><trkpt lat="44.02786937967648" lon="8.023585619155167"><ele>205.0</ele><time>2026-03-26T14:20:50Z</time></trkpt><trkpt lat="44.02788010388676" lon="8.023474792984823"><ele>205.0</ele><time>2026-03-26T14:20:51Z</time></trkpt><trkpt lat="44.02790403604779" lon="8.023314410445362"><ele>204.83333333333331</ele><time>2026-03-26T14:20:52Z</time></trkpt><trkpt lat="44.02791479448508" lon="8.023167445236961"><ele>204.66666666666666</ele><time>2026-03-26T14:20:53Z</time></trkpt><trkpt lat="44.02792578392467" lon="8.02307169038682"><ele>204.5</ele><time>2026-03-26T14:20:54Z</time></trkpt><trkpt lat="44.02793197993027" lon="8.022958101790204"><ele>204.33333333333331</ele><time>2026-03-26T14:20:55Z</time></trkpt><trkpt lat="44.02792991872137" lon="8.022848964797573"><ele>204.16666666666666</ele><time>2026-03-26T14:20:56Z</time></trkpt><trkpt lat="44.02791816475033" lon="8.022694301306782"><ele>204.0</ele><time>2026-03-26T14:20:57Z</time></trkpt><trkpt lat="44.02792533505947" lon="8.022557002355287"><ele>206.66666666666666</ele><time>2026-03-26T14:20:58Z</time></trkpt><trkpt lat="44.027929533998794" lon="8.022437212420893"><ele>209.33333333333331</ele><time>2026-03-26T14:20:59Z</time></trkpt><trkpt lat="44.0279510366803" lon="8.022293788306031"><ele>212.0</ele><time>2026-03-26T14:21:00Z</time></trkpt><trkpt lat="44.027955964192216" lon="8.02217186098678"><ele>214.66666666666666</ele><time>2026-03-26T14:21:01Z</time></trkpt><trkpt lat="44.027936818294705" lon="8.022060028188898"><ele>217.33333333333331</ele><time>2026-03-26T14:21:02Z</time></trkpt><trkpt lat="44.02788830218609" lon="8.021969419844892"><ele>220.0</ele><time>2026-03-26T14:21:03Z</time></trkpt><trkpt lat="44.02782116312723" lon="8.021885079792401"><ele>220.0</ele><time>2026-03-26T14:21:04Z</time></trkpt><trkpt lat="44.02776711328134" lon="8.021789297554715"><ele>220.0</ele><time>2026-03-26T14:21:05Z</time></trkpt><trkpt lat="44.027703244687004" lon="8.021697866242212"><ele>220.0</ele><time>2026-03-26T14:21:06Z</time></trkpt><trkpt lat="44.02762512438596" lon="8.02160404597972"><ele>220.0</ele><time>2026-03-26T14:21:07Z</time></trkpt><trkpt lat="44.02754268981451" lon="8.021527596634606"><ele>220.0</ele><time>2026-03-26T14:21:08Z</time></trkpt><trkpt lat="44.02744925508455" lon="8.021452728406512"><ele>219.8</ele><time>2026-03-26T14:21:09Z</time></trkpt><trkpt lat="44.027350956514006" lon="8.021374480579674"><ele>219.6</ele><time>2026-03-26T14:21:10Z</time></trkpt><trkpt lat="44.02724826652832" lon="8.021303544732243"><ele>219.39999999999998</ele><time>2026-03-26T14:21:11Z</time></trkpt><trkpt lat="44.027146769449715" lon="8.021241275510432"><ele>219.2</ele><time>2026-03-26T14:21:12Z</time></trkpt><trkpt lat="44.02707020481821" lon="8.02115555066157"><ele>219.0</ele><time>2026-03-26T14:21:13Z</time></trkpt><trkpt lat="44.026998476015926" lon="8.021056486581903"><ele>219.0</ele><time>2026-03-26T14:21:14Z</time></trkpt><trkpt lat="44.026929763829216" lon="8.020942619464236"><ele>219.0</ele><time>2026-03-26T14:21:15Z</time></trkpt><trkpt lat="44.02687033856542" lon="8.020812432025176"><ele>219.0</ele><time>2026-03-26T14:21:16Z</time></trkpt><trkpt lat="44.026820158734516" lon="8.020672535166812"><ele>219.0</ele><time>2026-03-26T14:21:17Z</time></trkpt><trkpt lat="44.02676536027213" lon="8.02051552581882"><ele>217.79999999999998</ele><time>2026-03-26T14:21:18Z</time></trkpt><trkpt lat="44.026703042105055" lon="8.020401447666577"><ele>216.59999999999997</ele><time>2026-03-26T14:21:19Z</time></trkpt><trkpt lat="44.026633298170594" lon="8.02027849835287"><ele>215.4</ele><time>2026-03-26T14:21:20Z</time></trkpt><trkpt lat="44.02655418203079" lon="8.020162949724382"><ele>214.2</ele><time>2026-03-26T14:21:21Z</time></trkpt><trkpt lat="44.02647174127973" lon="8.020059546022798"><ele>213.0</ele><time>2026-03-26T14:21:22Z</time></trkpt><trkpt lat="44.02639433710582" lon="8.019991545600739"><ele>212.83333333333334</ele><time>2026-03-26T14:21:23Z</time></trkpt><trkpt lat="44.02632986368262" lon="8.019922805078858"><ele>212.66666666666669</ele><time>2026-03-26T14:21:24Z</time></trkpt><trkpt lat="44.02628229853612" lon="8.01984376790011"><ele>212.5</ele><time>2026-03-26T14:21:25Z</time></trkpt><trkpt lat="44.02628944559256" lon="8.019695266324469"><ele>212.33333333333334</ele><time>2026-03-26T14:21:27Z</time></trkpt><trkpt lat="44.02638308183673" lon="8.019633585063653"><ele>212.16666666666669</ele><time>2026-03-26T14:21:29Z</time></trkpt><trkpt lat="44.02645160181807" lon="8.019639501799418"><ele>212.0</ele><time>2026-03-26T14:21:30Z</time></trkpt><trkpt lat="44.026549209595" lon="8.019653301182348"><ele>214.50000000000003</ele><time>2026-03-26T14:21:31Z</time></trkpt><trkpt lat="44.02664909003203" lon="8.019645878097228"><ele>217.0</ele><time>2026-03-26T14:21:32Z</time></trkpt><trkpt lat="44.02672662938077" lon="8.019622563032215"><ele>219.5</ele><time>2026-03-26T14:21:33Z</time></trkpt><trkpt lat="44.026788728981956" lon="8.019590533888989"><ele>222.0</ele><time>2026-03-26T14:21:34Z</time></trkpt><trkpt lat="44.026846588523945" lon="8.019476053250008"><ele>224.50000000000003</ele><time>2026-03-26T14:21:36Z</time></trkpt><trkpt lat="44.026801104911094" lon="8.019358527643176"><ele>227.0</ele><time>2026-03-26T14:21:38Z</time></trkpt><trkpt lat="44.02674330319849" lon="8.019317136559973"><ele>227.00000000000003</ele><time>2026-03-26T14:21:39Z</time></trkpt><trkpt lat="44.026672063878266" lon="8.019285284899176"><ele>227.0</ele><time>2026-03-26T14:21:40Z</time></trkpt><trkpt lat="44.02659124440906" lon="8.019227108774574"><ele>227.0</ele><time>2026-03-26T14:21:41Z</time></trkpt><trkpt lat="44.02653602177071" lon="8.019142786345627"><ele>227.0</ele><time>2026-03-26T14:21:42Z</time></trkpt><trkpt lat="44.02651585556144" lon="8.019055992760517"><ele>227.00000000000003</ele><time>2026-03-26T14:21:43Z</time></trkpt><trkpt lat="44.026494018427606" lon="8.018943826633885"><ele>227.0</ele><time>2026-03-26T14:21:44Z</time></trkpt><trkpt lat="44.02647467020153" lon="8.018817173391493"><ele>225.66666666666669</ele><time>2026-03-26T14:21:45Z</time></trkpt><trkpt lat="44.02646430503575" lon="8.018726343307474"><ele>224.33333333333334</ele><time>2026-03-26T14:21:46Z</time></trkpt><trkpt lat="44.02646156834663" lon="8.018622576613536"><ele>223.0</ele><time>2026-03-26T14:21:47Z</time></trkpt><trkpt lat="44.02645963550643" lon="8.01851615320946"><ele>221.66666666666669</ele><time>2026-03-26T14:21:48Z</time></trkpt><trkpt lat="44.02646025163789" lon="8.018377789846427"><ele>220.33333333333334</ele><time>2026-03-26T14:21:49Z</time></trkpt><trkpt lat="44.026467483609046" lon="8.018243915789624"><ele>219.0</ele><time>2026-03-26T14:21:50Z</time></trkpt><trkpt lat="44.02648337462594" lon="8.018118685941515"><ele>219.0</ele><time>2026-03-26T14:21:51Z</time></trkpt><trkpt lat="44.02650824616442" lon="8.017980200366509"><ele>218.99999999999997</ele><time>2026-03-26T14:21:52Z</time></trkpt><trkpt lat="44.02653786776768" lon="8.017845036286795"><ele>218.99999999999997</ele><time>2026-03-26T14:21:53Z</time></trkpt><trkpt lat="44.02655641734678" lon="8.017683384721266"><ele>219.0</ele><time>2026-03-26T14:21:54Z</time></trkpt><trkpt lat="44.026561825319575" lon="8.017544894071152"><ele>219.0</ele><time>2026-03-26T14:21:55Z</time></trkpt><trkpt lat="44.026552926562374" lon="8.017385618045282"><ele>218.2</ele><time>2026-03-26T14:21:56Z</time></trkpt><trkpt lat="44.02654252031782" lon="8.01723748252015"><ele>217.39999999999998</ele><time>2026-03-26T14:21:57Z</time></trkpt><trkpt lat="44.02653602668511" lon="8.017093673796998"><ele>216.6</ele><time>2026-03-26T14:21:58Z</time></trkpt><trkpt lat="44.02652521107948" lon="8.016953969484177"><ele>215.8</ele><time>2026-03-26T14:21:59Z</time></trkpt><trkpt lat="44.02653037511737" lon="8.0168313340516"><ele>215.0</ele><time>2026-03-26T14:22:00Z</time></trkpt><trkpt lat="44.026542302012814" lon="8.016725071575575"><ele>216.00000000000003</ele><time>2026-03-26T14:22:01Z</time></trkpt><trkpt lat="44.02654850050779" lon="8.016636884549568"><ele>217.0</ele><time>2026-03-26T14:22:02Z</time></trkpt><trkpt lat="44.026525548795675" lon="8.016552511813947"><ele>218.0</ele><time>2026-03-26T14:24:46.001Z</time></trkpt><trkpt lat="44.02646243711782" lon="8.016431509345521"><ele>219.0</ele><time>2026-03-26T14:24:48.001Z</time></trkpt><trkpt lat="44.02642768256399" lon="8.016358286086616"><ele>220.00000000000003</ele><time>2026-03-26T14:24:49.001Z</time></trkpt><trkpt lat="44.02639058195103" lon="8.01627461209757"><ele>221.0</ele><time>2026-03-26T14:24:50.001Z</time></trkpt><trkpt lat="44.026352483916234" lon="8.016128980048352"><ele>221.0</ele><time>2026-03-26T14:24:52.001Z</time></trkpt><trkpt lat="44.026345233956164" lon="8.015972643469853"><ele>221.00000000000003</ele><time>2026-03-26T14:24:54.001Z</time></trkpt><trkpt lat="44.02633023937192" lon="8.015817550591557"><ele>221.00000000000003</ele><time>2026-03-26T14:24:56.001Z</time></trkpt><trkpt lat="44.02627331506139" lon="8.015686012280646"><ele>221.0</ele><time>2026-03-26T14:24:58Z</time></trkpt><trkpt lat="44.02622080334417" lon="8.015635920598848"><ele>221.0</ele><time>2026-03-26T14:25:01Z</time></trkpt><trkpt lat="44.026174173273624" lon="8.015529620593739"><ele>221.50000000000003</ele><time>2026-03-26T14:25:26Z</time></trkpt><trkpt lat="44.0261131609589" lon="8.015443341987831"><ele>222.0</ele><time>2026-03-26T14:25:28Z</time></trkpt><trkpt lat="44.02604040717417" lon="8.015340804069814"><ele>222.5</ele><time>2026-03-26T14:25:30Z</time></trkpt><trkpt lat="44.025976593086185" lon="8.015261215654395"><ele>223.0</ele><time>2026-03-26T14:25:32Z</time></trkpt><trkpt lat="44.02591890193316" lon="8.01518732530733"><ele>223.50000000000003</ele><time>2026-03-26T14:25:34Z</time></trkpt><trkpt lat="44.02585734323225" lon="8.01514083808361"><ele>224.0</ele><time>2026-03-26T14:25:36Z</time></trkpt><trkpt lat="44.02576484429063" lon="8.01514351577229"><ele>224.00000000000003</ele><time>2026-03-26T14:29:10.999Z</time></trkpt><trkpt lat="44.02568051784507" lon="8.01512411389661"><ele>224.0</ele><time>2026-03-26T14:29:12.999Z</time></trkpt><trkpt lat="44.02558991435991" lon="8.015088000038132"><ele>224.0</ele><time>2026-03-26T14:29:14.999Z</time></trkpt><trkpt lat="44.02551859890173" lon="8.015065021805508"><ele>224.0</ele><time>2026-03-26T14:29:16.999Z</time></trkpt><trkpt lat="44.025453290753354" lon="8.01500181651793"><ele>224.00000000000003</ele><time>2026-03-26T14:29:18.999Z</time></trkpt><trkpt lat="44.025357940389" lon="8.014907986861218"><ele>224.0</ele><time>2026-03-26T14:29:20.999Z</time></trkpt><trkpt lat="44.02530288041036" lon="8.014859933562523"><ele>223.79999999999998</ele><time>2026-03-26T14:29:21.999Z</time></trkpt><trkpt lat="44.02524290367291" lon="8.014806402367762"><ele>223.59999999999997</ele><time>2026-03-26T14:29:22.999Z</time></trkpt><trkpt lat="44.02512526096246" lon="8.014788279871896"><ele>223.4</ele><time>2026-03-26T14:29:24.999Z</time></trkpt><trkpt lat="44.025061803546464" lon="8.014795679248053"><ele>223.2</ele><time>2026-03-26T14:29:25.999Z</time></trkpt><trkpt lat="44.02495400551757" lon="8.014832562078634"><ele>223.0</ele><time>2026-03-26T14:29:27.999Z</time></trkpt><trkpt lat="44.02485419075262" lon="8.014856615003703"><ele>223.0</ele><time>2026-03-26T14:29:29.999Z</time></trkpt><trkpt lat="44.02477062412393" lon="8.014759609740356"><ele>223.0</ele><time>2026-03-26T14:29:31.999Z</time></trkpt><trkpt lat="44.02477288537673" lon="8.014642518499246"><ele>223.0</ele><time>2026-03-26T14:29:33.999Z</time></trkpt><trkpt lat="44.024773581813406" lon="8.01452273699763"><ele>223.0</ele><time>2026-03-26T14:29:36Z</time></trkpt><trkpt lat="44.0247074429877" lon="8.014461738263597"><ele>223.0</ele><time>2026-03-26T14:29:38Z</time></trkpt><trkpt lat="44.02461329876418" lon="8.014364678440147"><ele>223.0</ele><time>2026-03-26T14:29:40Z</time></trkpt><trkpt lat="44.024546676229974" lon="8.014242604037738"><ele>223.0</ele><time>2026-03-26T14:29:42Z</time></trkpt><trkpt lat="44.02448941075497" lon="8.014108335392155"><ele>223.0</ele><time>2026-03-26T14:29:44Z</time></trkpt><trkpt lat="44.02444688377293" lon="8.014026332840318"><ele>223.0</ele><time>2026-03-26T14:29:45Z</time></trkpt><trkpt lat="44.02441957756466" lon="8.013942785629451"><ele>223.0</ele><time>2026-03-26T14:29:46Z</time></trkpt><trkpt lat="44.02433804281313" lon="8.013807375287831"><ele>223.66666666666666</ele><time>2026-03-26T14:29:48Z</time></trkpt><trkpt lat="44.024281207515735" lon="8.013723428612664"><ele>224.33333333333331</ele><time>2026-03-26T14:29:49Z</time></trkpt><trkpt lat="44.024225203877826" lon="8.013643891896727"><ele>225.0</ele><time>2026-03-26T14:29:50Z</time></trkpt><trkpt lat="44.02417742169498" lon="8.013573249046328"><ele>225.66666666666669</ele><time>2026-03-26T14:29:51Z</time></trkpt><trkpt lat="44.024107845963584" lon="8.01346995351678"><ele>226.33333333333334</ele><time>2026-03-26T14:29:53Z</time></trkpt><trkpt lat="44.02403398314076" lon="8.01336851331278"><ele>227.0</ele><time>2026-03-26T14:29:55Z</time></trkpt><trkpt lat="44.023970832455404" lon="8.013298997225824"><ele>228.00000000000003</ele><time>2026-03-26T14:29:57Z</time></trkpt><trkpt lat="44.0239074163468" lon="8.013263208605311"><ele>229.0</ele><time>2026-03-26T14:30:03Z</time></trkpt><trkpt lat="44.023838467273414" lon="8.013212223332287"><ele>230.0</ele><time>2026-03-26T14:30:08Z</time></trkpt><trkpt lat="44.023761408623535" lon="8.01314380184524"><ele>231.0</ele><time>2026-03-26T14:30:11Z</time></trkpt><trkpt lat="44.02370604966763" lon="8.013096188990412"><ele>232.00000000000003</ele><time>2026-03-26T14:30:13Z</time></trkpt><trkpt lat="44.02363480647207" lon="8.013010952267003"><ele>233.0</ele><time>2026-03-26T14:30:16Z</time></trkpt><trkpt lat="44.02356199115504" lon="8.012937393281883"><ele>233.0</ele><time>2026-03-26T14:30:18Z</time></trkpt><trkpt lat="44.023493689953696" lon="8.012858346037"><ele>233.0</ele><time>2026-03-26T14:30:20Z</time></trkpt><trkpt lat="44.023427317756806" lon="8.012784572621369"><ele>233.0</ele><time>2026-03-26T14:30:22Z</time></trkpt><trkpt lat="44.02339013707784" lon="8.012698579528289"><ele>233.0</ele><time>2026-03-26T14:30:25Z</time></trkpt><trkpt lat="44.02332238125389" lon="8.01268277160588"><ele>233.0</ele><time>2026-03-26T14:32:47.001Z</time></trkpt><trkpt lat="44.02326947826417" lon="8.012733356486144"><ele>233.0</ele><time>2026-03-26T14:32:49.001Z</time></trkpt><trkpt lat="44.02323472298414" lon="8.012806965526154"><ele>233.0</ele><time>2026-03-26T14:32:50.001Z</time></trkpt><trkpt lat="44.02321154817434" lon="8.01288911930504"><ele>233.0</ele><time>2026-03-26T14:32:51.001Z</time></trkpt><trkpt lat="44.02324638271097" lon="8.013009241237588"><ele>233.0</ele><time>2026-03-26T14:32:53.001Z</time></trkpt><trkpt lat="44.023302180063794" lon="8.013124326582032"><ele>233.0</ele><time>2026-03-26T14:33:12.001Z</time></trkpt><trkpt lat="44.0233584065476" lon="8.013258930781868"><ele>233.0</ele><time>2026-03-26T14:33:14.001Z</time></trkpt><trkpt lat="44.02330136132868" lon="8.013345827948633"><ele>233.0</ele><time>2026-03-26T14:33:16.001Z</time></trkpt><trkpt lat="44.02320909308314" lon="8.01329727320288"><ele>233.50000000000003</ele><time>2026-03-26T14:33:18.001Z</time></trkpt><trkpt lat="44.02317683117173" lon="8.013221392735463"><ele>234.0</ele><time>2026-03-26T14:33:19.001Z</time></trkpt><trkpt lat="44.02316103005611" lon="8.013097385665963"><ele>234.5</ele><time>2026-03-26T14:33:20.001Z</time></trkpt><trkpt lat="44.023145932559636" lon="8.012985842518601"><ele>235.0</ele><time>2026-03-26T14:33:21Z</time></trkpt><trkpt lat="44.023064855658426" lon="8.012969481724378"><ele>235.50000000000003</ele><time>2026-03-26T14:33:23Z</time></trkpt><trkpt lat="44.02295454580084" lon="8.012919718457477"><ele>236.0</ele><time>2026-03-26T14:33:25Z</time></trkpt><trkpt lat="44.02292784878674" lon="8.012821443535906"><ele>236.0</ele><time>2026-03-26T14:33:27Z</time></trkpt><trkpt lat="44.022929434812106" lon="8.012731129705957"><ele>236.00000000000003</ele><time>2026-03-26T14:33:28Z</time></trkpt><trkpt lat="44.02293801254109" lon="8.012594551379097"><ele>236.00000000000003</ele><time>2026-03-26T14:33:29Z</time></trkpt><trkpt lat="44.02294534205015" lon="8.012412578620017"><ele>236.0</ele><time>2026-03-26T14:33:30Z</time></trkpt><trkpt lat="44.02293768473847" lon="8.012252220535387"><ele>236.0</ele><time>2026-03-26T14:33:31Z</time></trkpt><trkpt lat="44.02290351778135" lon="8.012148115698555"><ele>237.0</ele><time>2026-03-26T14:33:32Z</time></trkpt><trkpt lat="44.022851835056" lon="8.011971731495189"><ele>238.0</ele><time>2026-03-26T14:33:33Z</time></trkpt><trkpt lat="44.022798797898226" lon="8.01180430302959"><ele>239.0</ele><time>2026-03-26T14:33:34Z</time></trkpt><trkpt lat="44.022739473069784" lon="8.011770532491253"><ele>240.0</ele><time>2026-03-26T14:33:36Z</time></trkpt><trkpt lat="44.022653457026514" lon="8.011888941860322"><ele>240.0</ele><time>2026-03-26T14:33:38Z</time></trkpt><trkpt lat="44.022619829954536" lon="8.01204708248207"><ele>240.0</ele><time>2026-03-26T14:33:40Z</time></trkpt><trkpt lat="44.02260629329865" lon="8.012203217718858"><ele>240.0</ele><time>2026-03-26T14:33:41Z</time></trkpt><trkpt lat="44.0225892934756" lon="8.012327542829674"><ele>240.0</ele><time>2026-03-26T14:33:42Z</time></trkpt><trkpt lat="44.022552299728574" lon="8.012434596362205"><ele>240.0</ele><time>2026-03-26T14:33:43Z</time></trkpt><trkpt lat="44.02251151810297" lon="8.012523166589231"><ele>243.66666666666666</ele><time>2026-03-26T14:33:44Z</time></trkpt><trkpt lat="44.02244350547344" lon="8.012636656146437"><ele>247.33333333333331</ele><time>2026-03-26T14:33:45Z</time></trkpt><trkpt lat="44.02237993916476" lon="8.012725667029756"><ele>251.0</ele><time>2026-03-26T14:33:46Z</time></trkpt><trkpt lat="44.022281998028014" lon="8.012766256828574"><ele>254.66666666666666</ele><time>2026-03-26T14:33:48Z</time></trkpt><trkpt lat="44.02221545703916" lon="8.012773454892546"><ele>258.3333333333333</ele><time>2026-03-26T14:33:49Z</time></trkpt><trkpt lat="44.02214215174146" lon="8.012764182910916"><ele>262.0</ele><time>2026-03-26T14:33:50Z</time></trkpt><trkpt lat="44.02206292850416" lon="8.012764598833051"><ele>262.0</ele><time>2026-03-26T14:33:51Z</time></trkpt><trkpt lat="44.02198274686566" lon="8.012777535797357"><ele>262.0</ele><time>2026-03-26T14:33:52Z</time></trkpt><trkpt lat="44.02187727098099" lon="8.012800483894292"><ele>262.0</ele><time>2026-03-26T14:33:54Z</time></trkpt><trkpt lat="44.021791414167616" lon="8.012854170813732"><ele>262.0</ele><time>2026-03-26T14:33:55Z</time></trkpt><trkpt lat="44.021706452908916" lon="8.012874024354895"><ele>262.0</ele><time>2026-03-26T14:33:56Z</time></trkpt><trkpt lat="44.02161107939917" lon="8.012885807031449"><ele>264.8333333333333</ele><time>2026-03-26T14:33:58Z</time></trkpt><trkpt lat="44.02154557770367" lon="8.01293382506587"><ele>267.66666666666663</ele><time>2026-03-26T14:33:59Z</time></trkpt><trkpt lat="44.02147724947243" lon="8.012961690308488"><ele>270.5</ele><time>2026-03-26T14:34:00Z</time></trkpt><trkpt lat="44.02136739795064" lon="8.012988967942926"><ele>273.3333333333333</ele><time>2026-03-26T14:34:02Z</time></trkpt><trkpt lat="44.021278345442916" lon="8.012958252518597"><ele>276.1666666666667</ele><time>2026-03-26T14:34:13Z</time></trkpt><trkpt lat="44.02120120117168" lon="8.012963175797962"><ele>279.0</ele><time>2026-03-26T14:34:14Z</time></trkpt><trkpt lat="44.02112891662743" lon="8.012957928339238"><ele>279.0</ele><time>2026-03-26T14:34:15Z</time></trkpt><trkpt lat="44.021020675879626" lon="8.01299916429551"><ele>279.0</ele><time>2026-03-26T14:34:17Z</time></trkpt><trkpt lat="44.02090853229972" lon="8.012985321879302"><ele>279.0</ele><time>2026-03-26T14:34:19Z</time></trkpt><trkpt lat="44.02083486407818" lon="8.012972567202974"><ele>279.0</ele><time>2026-03-26T14:34:20Z</time></trkpt><trkpt lat="44.02076095961609" lon="8.012985809489562"><ele>279.0</ele><time>2026-03-26T14:34:21Z</time></trkpt><trkpt lat="44.02069584777014" lon="8.012988872861417"><ele>279.0</ele><time>2026-03-26T14:34:22Z</time></trkpt><trkpt lat="44.02062418187078" lon="8.013003098787431"><ele>279.8</ele><time>2026-03-26T14:34:23.001Z</time></trkpt><trkpt lat="44.02053286714865" lon="8.013072016078402"><ele>280.59999999999997</ele><time>2026-03-26T14:34:25.001Z</time></trkpt><trkpt lat="44.020410903477085" lon="8.013027429028805"><ele>281.4</ele><time>2026-03-26T14:34:27.001Z</time></trkpt><trkpt lat="44.020322036216434" lon="8.012989535861312"><ele>282.2</ele><time>2026-03-26T14:34:28.001Z</time></trkpt><trkpt lat="44.02022190385727" lon="8.012968472369131"><ele>283.0</ele><time>2026-03-26T14:34:29.001Z</time></trkpt><trkpt lat="44.02015321588185" lon="8.01296337275385"><ele>283.0</ele><time>2026-03-26T14:34:30.001Z</time></trkpt><trkpt lat="44.020090047028575" lon="8.012976136465737"><ele>283.0</ele><time>2026-03-26T14:34:31.001Z</time></trkpt><trkpt lat="44.0199999161652" lon="8.012979971264325"><ele>283.0</ele><time>2026-03-26T14:34:32.001Z</time></trkpt><trkpt lat="44.019881648607004" lon="8.012951061113652"><ele>283.0</ele><time>2026-03-26T14:34:33.001Z</time></trkpt><trkpt lat="44.01975278334637" lon="8.012920094140847"><ele>283.0</ele><time>2026-03-26T14:34:34.001Z</time></trkpt><trkpt lat="44.01965655494489" lon="8.012893158505173"><ele>285.0</ele><time>2026-03-26T14:34:35.001Z</time></trkpt><trkpt lat="44.01955855683521" lon="8.01291793411158"><ele>287.0</ele><time>2026-03-26T14:34:36.001Z</time></trkpt><trkpt lat="44.0194687795412" lon="8.0129319041145"><ele>289.0</ele><time>2026-03-26T14:34:37.001Z</time></trkpt><trkpt lat="44.01939935975308" lon="8.012901047554879"><ele>291.0</ele><time>2026-03-26T14:34:38.001Z</time></trkpt><trkpt lat="44.01929792668362" lon="8.012900166594969"><ele>293.0</ele><time>2026-03-26T14:34:40.001Z</time></trkpt><trkpt lat="44.01925213892553" lon="8.012962949478903"><ele>295.0</ele><time>2026-03-26T14:34:41.001Z</time></trkpt><trkpt lat="44.019145860877344" lon="8.01303162914215"><ele>298.0</ele><time>2026-03-26T14:34:43.001Z</time></trkpt><trkpt lat="44.019021652357885" lon="8.013054275612548"><ele>301.0</ele><time>2026-03-26T14:34:45.001Z</time></trkpt><trkpt lat="44.018937561786515" lon="8.01307886836377"><ele>304.0</ele><time>2026-03-26T14:34:46.001Z</time></trkpt><trkpt lat="44.01885320092067" lon="8.013086656154432"><ele>307.0</ele><time>2026-03-26T14:34:47.001Z</time></trkpt><trkpt lat="44.01874136184877" lon="8.01311471320225"><ele>310.0</ele><time>2026-03-26T14:34:48.001Z</time></trkpt><trkpt lat="44.018623716187754" lon="8.01315677471761"><ele>310.0</ele><time>2026-03-26T14:34:49.001Z</time></trkpt><trkpt lat="44.01855677308749" lon="8.013164300966341"><ele>310.0</ele><time>2026-03-26T14:34:50.001Z</time></trkpt><trkpt lat="44.01849416202253" lon="8.01313169970489"><ele>310.0</ele><time>2026-03-26T14:34:51.001Z</time></trkpt><trkpt lat="44.01842921505706" lon="8.01308368629187"><ele>310.0</ele><time>2026-03-26T14:34:52.001Z</time></trkpt><trkpt lat="44.01835693798061" lon="8.013096362505111"><ele>310.0</ele><time>2026-03-26T14:34:53.001Z</time></trkpt><trkpt lat="44.01829460606682" lon="8.013148372391226"><ele>310.0</ele><time>2026-03-26T14:34:54.001Z</time></trkpt><trkpt lat="44.01822410841109" lon="8.0131629172424"><ele>310.0</ele><time>2026-03-26T14:34:55.001Z</time></trkpt><trkpt lat="44.01812496722632" lon="8.013142962116714"><ele>311.0</ele><time>2026-03-26T14:34:56.001Z</time></trkpt><trkpt lat="44.01802710735308" lon="8.013156768718945"><ele>312.0</ele><time>2026-03-26T14:34:57.001Z</time></trkpt><trkpt lat="44.01793240239694" lon="8.013210781963668"><ele>313.0</ele><time>2026-03-26T14:34:59.001Z</time></trkpt><trkpt lat="44.01778776591526" lon="8.013203810870303"><ele>314.0</ele><time>2026-03-26T14:35:01.001Z</time></trkpt><trkpt lat="44.01770020584208" lon="8.013228374286822"><ele>315.0</ele><time>2026-03-26T14:35:02.001Z</time></trkpt><trkpt lat="44.01759970228545" lon="8.013249344494096"><ele>315.0</ele><time>2026-03-26T14:35:03.001Z</time></trkpt><trkpt lat="44.01751209586335" lon="8.013257524917027"><ele>315.0</ele><time>2026-03-26T14:35:04.001Z</time></trkpt><trkpt lat="44.01742793328533" lon="8.013243921389915"><ele>315.0</ele><time>2026-03-26T14:35:05.001Z</time></trkpt><trkpt lat="44.017335856293826" lon="8.013232944990808"><ele>315.0</ele><time>2026-03-26T14:35:06.001Z</time></trkpt><trkpt lat="44.017400050206824" lon="8.013150622391791"><ele>315.0</ele><time>2026-03-26T14:35:07.001Z</time></trkpt><trkpt lat="44.017348271926515" lon="8.012986021140044"><ele>316.0</ele><time>2026-03-26T14:35:09.001Z</time></trkpt><trkpt lat="44.017309524451996" lon="8.012896889599244"><ele>317.0</ele><time>2026-03-26T14:35:10.001Z</time></trkpt><trkpt lat="44.01723402910502" lon="8.012929632043434"><ele>318.0</ele><time>2026-03-26T14:35:12.001Z</time></trkpt><trkpt lat="44.01716843858357" lon="8.013064953215503"><ele>319.0</ele><time>2026-03-26T14:35:14.001Z</time></trkpt><trkpt lat="44.01708489884911" lon="8.013130491665198"><ele>320.0</ele><time>2026-03-26T14:35:16.001Z</time></trkpt><trkpt lat="44.01695114822118" lon="8.013156843187636"><ele>320.0</ele><time>2026-03-26T14:35:18.001Z</time></trkpt><trkpt lat="44.01687089561671" lon="8.013189183930816"><ele>320.0</ele><time>2026-03-26T14:35:19.001Z</time></trkpt><trkpt lat="44.01676979889482" lon="8.0132012584397"><ele>320.0</ele><time>2026-03-26T14:35:20.001Z</time></trkpt><trkpt lat="44.01666543432099" lon="8.013174785445775"><ele>320.0</ele><time>2026-03-26T14:35:21.001Z</time></trkpt><trkpt lat="44.016587545861" lon="8.013145782912506"><ele>320.0</ele><time>2026-03-26T14:35:22.001Z</time></trkpt><trkpt lat="44.01648002789146" lon="8.013077821793223"><ele>318.5</ele><time>2026-03-26T14:35:24.001Z</time></trkpt><trkpt lat="44.01638537016738" lon="8.013031129985823"><ele>317.0</ele><time>2026-03-26T14:35:25.001Z</time></trkpt><trkpt lat="44.01630111834602" lon="8.013003822797415"><ele>315.5</ele><time>2026-03-26T14:35:26Z</time></trkpt><trkpt lat="44.0162402894156" lon="8.01298010807369"><ele>314.0</ele><time>2026-03-26T14:35:27Z</time></trkpt><trkpt lat="44.016161865587485" lon="8.01292652353398"><ele>312.5</ele><time>2026-03-26T14:35:28Z</time></trkpt><trkpt lat="44.01609323053722" lon="8.01288238100885"><ele>311.0</ele><time>2026-03-26T14:35:29Z</time></trkpt><trkpt lat="44.015991335441726" lon="8.012805804170432"><ele>311.0</ele><time>2026-03-26T14:35:30Z</time></trkpt><trkpt lat="44.01590943906764" lon="8.012715708133765"><ele>311.0</ele><time>2026-03-26T14:35:32Z</time></trkpt><trkpt lat="44.01584708479465" lon="8.012622518780667"><ele>311.0</ele><time>2026-03-26T14:35:34Z</time></trkpt><trkpt lat="44.015766829840274" lon="8.012700009411844"><ele>311.0</ele><time>2026-03-26T14:35:36Z</time></trkpt><trkpt lat="44.01570845335635" lon="8.012763415462535"><ele>311.0</ele><time>2026-03-26T14:35:37Z</time></trkpt><trkpt lat="44.01560277782399" lon="8.012800410217467"><ele>310.6666666666667</ele><time>2026-03-26T14:35:39Z</time></trkpt><trkpt lat="44.015517472481925" lon="8.01285132865849"><ele>310.33333333333337</ele><time>2026-03-26T14:35:41Z</time></trkpt><trkpt lat="44.01542394724305" lon="8.012864281738237"><ele>310.0</ele><time>2026-03-26T14:35:44Z</time></trkpt><trkpt lat="44.01534972506081" lon="8.01281621295991"><ele>309.6666666666667</ele><time>2026-03-26T14:35:46Z</time></trkpt><trkpt lat="44.01526047007661" lon="8.012797166214087"><ele>309.3333333333333</ele><time>2026-03-26T14:35:48Z</time></trkpt><trkpt lat="44.015196937506026" lon="8.012772559683773"><ele>309.0</ele><time>2026-03-26T14:35:49Z</time></trkpt><trkpt lat="44.01510024868649" lon="8.012759089752777"><ele>309.0</ele><time>2026-03-26T14:35:51Z</time></trkpt><trkpt lat="44.01505043896086" lon="8.012641255604596"><ele>309.0</ele><time>2026-03-26T14:35:53Z</time></trkpt><trkpt lat="44.01512383772346" lon="8.012556335473676"><ele>309.0</ele><time>2026-03-26T14:35:55Z</time></trkpt><trkpt lat="44.01521980141497" lon="8.012632583182677"><ele>309.0</ele><time>2026-03-26T14:35:57Z</time></trkpt><trkpt lat="44.01535284341051" lon="8.012618283888456"><ele>309.0</ele><time>2026-03-26T14:35:59Z</time></trkpt><trkpt lat="44.01542819076552" lon="8.012544318906876"><ele>313.3333333333333</ele><time>2026-03-26T14:36:00Z</time></trkpt><trkpt lat="44.015492883196906" lon="8.012447558367814"><ele>317.6666666666667</ele><time>2026-03-26T14:36:01.001Z</time></trkpt><trkpt lat="44.015545487314895" lon="8.012388520467468"><ele>322.0</ele><time>2026-03-26T14:36:02.001Z</time></trkpt><trkpt lat="44.01565677266109" lon="8.01231869328472"><ele>326.33333333333337</ele><time>2026-03-26T14:36:04.001Z</time></trkpt><trkpt lat="44.01570231087299" lon="8.012244357173765"><ele>330.6666666666667</ele><time>2026-03-26T14:36:05.001Z</time></trkpt><trkpt lat="44.01577394927077" lon="8.012162381966961"><ele>335.0</ele><time>2026-03-26T14:36:06.001Z</time></trkpt><trkpt lat="44.015855331101584" lon="8.012068404262157"><ele>335.5</ele><time>2026-03-26T14:36:08.001Z</time></trkpt><trkpt lat="44.01589182252497" lon="8.011976320186864"><ele>336.0</ele><time>2026-03-26T14:36:10.001Z</time></trkpt><trkpt lat="44.01595636773387" lon="8.01195380053531"><ele>336.5</ele><time>2026-03-26T14:36:13.001Z</time></trkpt><trkpt lat="44.01603296044007" lon="8.012008549947279"><ele>337.0</ele><time>2026-03-26T14:36:15.001Z</time></trkpt><trkpt lat="44.01612502749721" lon="8.012096797669138"><ele>337.5</ele><time>2026-03-26T14:36:17.001Z</time></trkpt><trkpt lat="44.01619674441432" lon="8.012135446845384"><ele>338.0</ele><time>2026-03-26T14:36:18.001Z</time></trkpt><trkpt lat="44.016258005894414" lon="8.0121972769035"><ele>338.0</ele><time>2026-03-26T14:36:19.001Z</time></trkpt><trkpt lat="44.01632772205332" lon="8.012302836091026"><ele>338.0</ele><time>2026-03-26T14:36:20.001Z</time></trkpt><trkpt lat="44.016379056460664" lon="8.012376911191728"><ele>338.0</ele><time>2026-03-26T14:36:21.001Z</time></trkpt><trkpt lat="44.01642283940196" lon="8.012278555904027"><ele>338.0</ele><time>2026-03-26T14:36:23.001Z</time></trkpt><trkpt lat="44.01636777741768" lon="8.012185039206352"><ele>338.0</ele><time>2026-03-26T14:36:25.001Z</time></trkpt><trkpt lat="44.016272713600735" lon="8.012043066325727"><ele>338.0</ele><time>2026-03-26T14:36:27.001Z</time></trkpt><trkpt lat="44.01624506086117" lon="8.011961834694324"><ele>338.0</ele><time>2026-03-26T14:36:28.001Z</time></trkpt><trkpt lat="44.01620117977294" lon="8.011880551707645"><ele>338.0</ele><time>2026-03-26T14:36:30.001Z</time></trkpt><trkpt lat="44.016120165812566" lon="8.011777308690666"><ele>338.0</ele><time>2026-03-26T14:36:32.001Z</time></trkpt><trkpt lat="44.01605411625325" lon="8.011719287033193"><ele>338.0</ele><time>2026-03-26T14:36:33.001Z</time></trkpt><trkpt lat="44.0159779494325" lon="8.01165740635802"><ele>338.0</ele><time>2026-03-26T14:36:34.001Z</time></trkpt><trkpt lat="44.0159109903723" lon="8.011637969813105"><ele>338.0</ele><time>2026-03-26T14:36:35.001Z</time></trkpt><trkpt lat="44.015829514274415" lon="8.011723803158459"><ele>338.0</ele><time>2026-03-26T14:36:37.001Z</time></trkpt><trkpt lat="44.01576923741201" lon="8.011775771990562"><ele>338.0</ele><time>2026-03-26T14:36:38.001Z</time></trkpt><trkpt lat="44.01568495169507" lon="8.01183460906378"><ele>338.0</ele><time>2026-03-26T14:36:40.001Z</time></trkpt><trkpt lat="44.01560676653695" lon="8.011898135497686"><ele>338.0</ele><time>2026-03-26T14:36:41.001Z</time></trkpt><trkpt lat="44.01550998402838" lon="8.011901896336138"><ele>337.25</ele><time>2026-03-26T14:36:42.001Z</time></trkpt><trkpt lat="44.01540167737578" lon="8.011857350448341"><ele>336.5</ele><time>2026-03-26T14:36:43.001Z</time></trkpt><trkpt lat="44.01528994054479" lon="8.011821337145049"><ele>335.75</ele><time>2026-03-26T14:36:44.001Z</time></trkpt><trkpt lat="44.01517781068504" lon="8.011780620192313"><ele>335.0</ele><time>2026-03-26T14:36:45.001Z</time></trkpt><trkpt lat="44.01507115450552" lon="8.01172010339427"><ele>333.83333333333337</ele><time>2026-03-26T14:36:46.001Z</time></trkpt><trkpt lat="44.01497092064656" lon="8.011690350568268"><ele>332.6666666666667</ele><time>2026-03-26T14:36:47.001Z</time></trkpt><trkpt lat="44.014923523345374" lon="8.01162015798713"><ele>331.5</ele><time>2026-03-26T14:36:50.001Z</time></trkpt><trkpt lat="44.01499338760528" lon="8.011606761279202"><ele>330.3333333333333</ele><time>2026-03-26T14:38:52.001Z</time></trkpt><trkpt lat="44.015097433327945" lon="8.011629847452486"><ele>329.16666666666663</ele><time>2026-03-26T14:38:54.001Z</time></trkpt><trkpt lat="44.01516609167103" lon="8.011630522563527"><ele>328.0</ele><time>2026-03-26T14:38:55.001Z</time></trkpt><trkpt lat="44.01524275993266" lon="8.011617970119632"><ele>333.5</ele><time>2026-03-26T14:38:56.001Z</time></trkpt><trkpt lat="44.015303685731844" lon="8.011595871398722"><ele>339.0</ele><time>2026-03-26T14:38:57.001Z</time></trkpt><trkpt lat="44.01536868732021" lon="8.01154963534235"><ele>344.5</ele><time>2026-03-26T14:38:58.001Z</time></trkpt><trkpt lat="44.01543594638754" lon="8.01154326709999"><ele>350.0</ele><time>2026-03-26T14:38:59.001Z</time></trkpt><trkpt lat="44.015555860234805" lon="8.011587262967014"><ele>355.5</ele><time>2026-03-26T14:39:01.001Z</time></trkpt><trkpt lat="44.01566281240161" lon="8.011588218471026"><ele>361.0</ele><time>2026-03-26T14:39:03.001Z</time></trkpt><trkpt lat="44.015750605102035" lon="8.01144746367712"><ele>361.0</ele><time>2026-03-26T14:39:05.001Z</time></trkpt><trkpt lat="44.0157922890376" lon="8.011349618399615"><ele>361.0</ele><time>2026-03-26T14:39:06.001Z</time></trkpt><trkpt lat="44.01586478054068" lon="8.011213456563155"><ele>361.0</ele><time>2026-03-26T14:39:08.001Z</time></trkpt><trkpt lat="44.01591957851602" lon="8.011153469816298"><ele>361.0</ele><time>2026-03-26T14:39:10.001Z</time></trkpt><trkpt lat="44.01599731080193" lon="8.011106627047544"><ele>361.0</ele><time>2026-03-26T14:39:12.001Z</time></trkpt><trkpt lat="44.01606191679897" lon="8.011140468250566"><ele>361.0</ele><time>2026-03-26T14:39:14.001Z</time></trkpt><trkpt lat="44.01616358242419" lon="8.011250899937377"><ele>362.20000000000005</ele><time>2026-03-26T14:39:16.001Z</time></trkpt><trkpt lat="44.01628863658543" lon="8.011273318842976"><ele>363.40000000000003</ele><time>2026-03-26T14:39:18.001Z</time></trkpt><trkpt lat="44.01634729730198" lon="8.011306715892365"><ele>364.6</ele><time>2026-03-26T14:39:19.001Z</time></trkpt><trkpt lat="44.0164233311903" lon="8.011370378880322"><ele>365.8</ele><time>2026-03-26T14:39:21.001Z</time></trkpt><trkpt lat="44.01651000447121" lon="8.011464556732768"><ele>367.0</ele><time>2026-03-26T14:39:23.001Z</time></trkpt><trkpt lat="44.016584300241306" lon="8.011497865763214"><ele>367.40000000000003</ele><time>2026-03-26T14:39:25.001Z</time></trkpt><trkpt lat="44.01668197271109" lon="8.011474928259764"><ele>367.8</ele><time>2026-03-26T14:39:27.002Z</time></trkpt><trkpt lat="44.016711938185495" lon="8.011336757239683"><ele>368.2</ele><time>2026-03-26T14:39:29.001Z</time></trkpt><trkpt lat="44.01670920973206" lon="8.011231898846338"><ele>368.6</ele><time>2026-03-26T14:39:31.001Z</time></trkpt><trkpt lat="44.0167072856486" lon="8.011116836301737"><ele>369.0</ele><time>2026-03-26T14:39:33.001Z</time></trkpt><trkpt lat="44.016742001753066" lon="8.010980214058685"><ele>369.0</ele><time>2026-03-26T14:39:35.001Z</time></trkpt><trkpt lat="44.016693623453044" lon="8.010903700032221"><ele>369.0</ele><time>2026-03-26T14:39:37.001Z</time></trkpt><trkpt lat="44.01660988669243" lon="8.010968731960743"><ele>369.0</ele><time>2026-03-26T14:39:39.001Z</time></trkpt><trkpt lat="44.01654256730625" lon="8.01094876897358"><ele>369.0</ele><time>2026-03-26T14:39:41.001Z</time></trkpt><trkpt lat="44.016595560460225" lon="8.010840192142556"><ele>369.0</ele><time>2026-03-26T14:41:44.001Z</time></trkpt><trkpt lat="44.01665759046864" lon="8.010789527940208"><ele>369.0</ele><time>2026-03-26T14:41:46.001Z</time></trkpt><trkpt lat="44.016711965777425" lon="8.010742755341719"><ele>373.3333333333333</ele><time>2026-03-26T14:41:47.001Z</time></trkpt><trkpt lat="44.016790568295605" lon="8.01070630749344"><ele>377.66666666666663</ele><time>2026-03-26T14:41:49.001Z</time></trkpt><trkpt lat="44.01686199625322" lon="8.010642971236619"><ele>382.0</ele><time>2026-03-26T14:41:58.001Z</time></trkpt><trkpt lat="44.0169304415953" lon="8.010539609646006"><ele>386.3333333333333</ele><time>2026-03-26T14:42:00.001Z</time></trkpt><trkpt lat="44.01701421075058" lon="8.010493500175167"><ele>390.66666666666663</ele><time>2026-03-26T14:42:02.001Z</time></trkpt><trkpt lat="44.01707774777401" lon="8.010486926480322"><ele>395.0</ele><time>2026-03-26T14:42:03.001Z</time></trkpt><trkpt lat="44.01716979867565" lon="8.010436963210736"><ele>394.99999999999994</ele><time>2026-03-26T14:42:05.001Z</time></trkpt><trkpt lat="44.017259906189" lon="8.010376634021739"><ele>395.0</ele><time>2026-03-26T14:42:07.001Z</time></trkpt><trkpt lat="44.01721961188824" lon="8.010307131064673"><ele>395.0</ele><time>2026-03-26T14:49:56.001Z</time></trkpt><trkpt lat="44.01715618843837" lon="8.010319617596966"><ele>395.0</ele><time>2026-03-26T14:49:57.001Z</time></trkpt><trkpt lat="44.01708016212122" lon="8.010330837098865"><ele>394.99999999999994</ele><time>2026-03-26T14:49:58.001Z</time></trkpt><trkpt lat="44.01695901118902" lon="8.01029867200496"><ele>395.0</ele><time>2026-03-26T14:50:00.001Z</time></trkpt><trkpt lat="44.01687915282063" lon="8.010301175065766"><ele>394.99999999999994</ele><time>2026-03-26T14:50:01.001Z</time></trkpt><trkpt lat="44.016801851744" lon="8.010302709624995"><ele>395.0</ele><time>2026-03-26T14:50:02.001Z</time></trkpt><trkpt lat="44.016734204278194" lon="8.010326604962518"><ele>395.0</ele><time>2026-03-26T14:50:03.001Z</time></trkpt><trkpt lat="44.01664268579442" lon="8.010304404265026"><ele>395.0</ele><time>2026-03-26T14:50:05.001Z</time></trkpt><trkpt lat="44.01656524052987" lon="8.010172438265725"><ele>394.99999999999994</ele><time>2026-03-26T14:50:07.001Z</time></trkpt><trkpt lat="44.01652867407324" lon="8.01008845995891"><ele>395.0</ele><time>2026-03-26T14:50:08Z</time></trkpt><trkpt lat="44.016486860093636" lon="8.010007208338802"><ele>397.8</ele><time>2026-03-26T14:50:09Z</time></trkpt><trkpt lat="44.01644018714507" lon="8.009946296274752"><ele>400.6</ele><time>2026-03-26T14:50:10Z</time></trkpt><trkpt lat="44.016372415367776" lon="8.009852008228664"><ele>403.4</ele><time>2026-03-26T14:50:11Z</time></trkpt><trkpt lat="44.01630262386646" lon="8.009748436773549"><ele>406.2</ele><time>2026-03-26T14:50:12Z</time></trkpt><trkpt lat="44.01622336567108" lon="8.009621732312748"><ele>409.0</ele><time>2026-03-26T14:50:13Z</time></trkpt><trkpt lat="44.01616281831762" lon="8.00953161305428"><ele>409.0</ele><time>2026-03-26T14:50:14Z</time></trkpt><trkpt lat="44.01610020784893" lon="8.009507933045484"><ele>409.0</ele><time>2026-03-26T14:50:15Z</time></trkpt><trkpt lat="44.01595286262894" lon="8.009471770954471"><ele>409.0</ele><time>2026-03-26T14:50:17Z</time></trkpt><trkpt lat="44.01589564128833" lon="8.009420573995362"><ele>409.0</ele><time>2026-03-26T14:50:18Z</time></trkpt><trkpt lat="44.0158364815868" lon="8.009376307277105"><ele>409.0</ele><time>2026-03-26T14:50:19Z</time></trkpt><trkpt lat="44.015726530091854" lon="8.009383044478586"><ele>410.1666666666667</ele><time>2026-03-26T14:50:21Z</time></trkpt><trkpt lat="44.015668208465314" lon="8.009431044877095"><ele>411.33333333333337</ele><time>2026-03-26T14:50:22Z</time></trkpt><trkpt lat="44.01561194866327" lon="8.009490480386567"><ele>412.5</ele><time>2026-03-26T14:50:23Z</time></trkpt><trkpt lat="44.01555698844709" lon="8.009556413065397"><ele>413.66666666666663</ele><time>2026-03-26T14:50:24Z</time></trkpt><trkpt lat="44.0155188154567" lon="8.009695204212674"><ele>414.8333333333333</ele><time>2026-03-26T14:50:26Z</time></trkpt><trkpt lat="44.015503928247206" lon="8.009787561097031"><ele>416.0</ele><time>2026-03-26T14:50:27Z</time></trkpt><trkpt lat="44.015465798464085" lon="8.009871715966094"><ele>415.99999999999994</ele><time>2026-03-26T14:50:28Z</time></trkpt><trkpt lat="44.01541273101058" lon="8.009931297064837"><ele>416.0</ele><time>2026-03-26T14:50:29Z</time></trkpt><trkpt lat="44.01535132562414" lon="8.009901252353409"><ele>416.0</ele><time>2026-03-26T14:50:31Z</time></trkpt><trkpt lat="44.01532127401955" lon="8.00978167058045"><ele>416.0</ele><time>2026-03-26T14:50:33Z</time></trkpt><trkpt lat="44.01533447871933" lon="8.00968691017778"><ele>415.99999999999994</ele><time>2026-03-26T14:50:34Z</time></trkpt><trkpt lat="44.015344320053046" lon="8.009575534816369"><ele>416.0</ele><time>2026-03-26T14:50:35Z</time></trkpt><trkpt lat="44.01534836291952" lon="8.009467601981727"><ele>415.99999999999994</ele><time>2026-03-26T14:50:36Z</time></trkpt><trkpt lat="44.015369796376014" lon="8.009334414544576"><ele>416.0</ele><time>2026-03-26T14:50:38Z</time></trkpt><trkpt lat="44.01536636904295" lon="8.00923632409968"><ele>416.0</ele><time>2026-03-26T14:51:35.001Z</time></trkpt><trkpt lat="44.015429985061864" lon="8.009078268075823"><ele>416.0</ele><time>2026-03-26T14:51:37.001Z</time></trkpt><trkpt lat="44.01546146732968" lon="8.008998812318506"><ele>415.99999999999994</ele><time>2026-03-26T14:51:38.001Z</time></trkpt><trkpt lat="44.01550388154373" lon="8.008901223369156"><ele>416.0</ele><time>2026-03-26T14:51:39.001Z</time></trkpt><trkpt lat="44.01554670744149" lon="8.008820469352946"><ele>420.4</ele><time>2026-03-26T14:51:40.001Z</time></trkpt><trkpt lat="44.01561375445213" lon="8.00872242443608"><ele>424.8</ele><time>2026-03-26T14:51:42.001Z</time></trkpt><trkpt lat="44.01571035133344" lon="8.008644827787423"><ele>429.19999999999993</ele><time>2026-03-26T14:51:44.001Z</time></trkpt><trkpt lat="44.01581381355686" lon="8.008528030973793"><ele>433.59999999999997</ele><time>2026-03-26T14:51:46.001Z</time></trkpt><trkpt lat="44.01590438673474" lon="8.008454447531559"><ele>438.0</ele><time>2026-03-26T14:51:47.001Z</time></trkpt><trkpt lat="44.01598984122957" lon="8.008415789647605"><ele>438.0</ele><time>2026-03-26T14:51:48.001Z</time></trkpt><trkpt lat="44.016071069752684" lon="8.008367221510179"><ele>437.99999999999994</ele><time>2026-03-26T14:51:49.001Z</time></trkpt><trkpt lat="44.016160593157124" lon="8.00831623115791"><ele>437.99999999999994</ele><time>2026-03-26T14:51:50.001Z</time></trkpt><trkpt lat="44.01622979284262" lon="8.008260731278535"><ele>438.0</ele><time>2026-03-26T14:51:51.001Z</time></trkpt><trkpt lat="44.01633476485038" lon="8.008186387574423"><ele>438.0</ele><time>2026-03-26T14:51:53.001Z</time></trkpt><trkpt lat="44.01639806549854" lon="8.008239456947779"><ele>443.1666666666667</ele><time>2026-03-26T14:51:55.001Z</time></trkpt><trkpt lat="44.01640523665644" lon="8.008138270350972"><ele>448.33333333333337</ele><time>2026-03-26T14:51:59.001Z</time></trkpt><trkpt lat="44.016334120885794" lon="8.008096792626624"><ele>453.5</ele><time>2026-03-26T14:52:01.001Z</time></trkpt><trkpt lat="44.01625124049447" lon="8.0080972648536"><ele>458.6666666666667</ele><time>2026-03-26T14:52:28Z</time></trkpt><trkpt lat="44.016122588006255" lon="8.008085431045597"><ele>463.83333333333337</ele><time>2026-03-26T14:52:30Z</time></trkpt><trkpt lat="44.01603699665026" lon="8.008090165842301"><ele>469.0</ele><time>2026-03-26T14:52:31Z</time></trkpt><trkpt lat="44.01594358245289" lon="8.008104848859663"><ele>469.0</ele><time>2026-03-26T14:52:32Z</time></trkpt><trkpt lat="44.01585202978689" lon="8.008149085635573"><ele>469.0</ele><time>2026-03-26T14:52:33Z</time></trkpt><trkpt lat="44.015751194665434" lon="8.00827773894264"><ele>469.0</ele><time>2026-03-26T14:52:35Z</time></trkpt><trkpt lat="44.0156677510183" lon="8.008327180888507"><ele>469.0</ele><time>2026-03-26T14:52:36Z</time></trkpt><trkpt lat="44.01559940713182" lon="8.008372546178927"><ele>469.0</ele><time>2026-03-26T14:52:37Z</time></trkpt><trkpt lat="44.01554956096104" lon="8.008460888734913"><ele>465.1666666666667</ele><time>2026-03-26T14:52:38Z</time></trkpt><trkpt lat="44.01546594526767" lon="8.008569502795558"><ele>461.33333333333337</ele><time>2026-03-26T14:52:40Z</time></trkpt><trkpt lat="44.01539733414168" lon="8.008552316007007"><ele>457.5</ele><time>2026-03-26T14:52:41Z</time></trkpt><trkpt lat="44.0153312145505" lon="8.00856351111409"><ele>453.66666666666663</ele><time>2026-03-26T14:52:42Z</time></trkpt><trkpt lat="44.01528700615009" lon="8.00863214256614"><ele>449.8333333333333</ele><time>2026-03-26T14:52:43Z</time></trkpt><trkpt lat="44.01524069606024" lon="8.008700473444948"><ele>446.0</ele><time>2026-03-26T14:52:44Z</time></trkpt><trkpt lat="44.01518503898603" lon="8.008752247686092"><ele>446.0</ele><time>2026-03-26T14:52:45Z</time></trkpt><trkpt lat="44.015126113684836" lon="8.008789638500128"><ele>446.0</ele><time>2026-03-26T14:52:46Z</time></trkpt><trkpt lat="44.01502437848473" lon="8.008774874426255"><ele>446.0</ele><time>2026-03-26T14:52:48Z</time></trkpt><trkpt lat="44.01494291150123" lon="8.008634235694"><ele>446.0</ele><time>2026-03-26T14:52:50Z</time></trkpt><trkpt lat="44.01490231284169" lon="8.008549504133521"><ele>446.0</ele><time>2026-03-26T14:52:51Z</time></trkpt><trkpt lat="44.0148542285784" lon="8.008459013847059"><ele>447.16666666666663</ele><time>2026-03-26T14:52:52Z</time></trkpt><trkpt lat="44.01480690219134" lon="8.008367613320363"><ele>448.3333333333333</ele><time>2026-03-26T14:52:53Z</time></trkpt><trkpt lat="44.01475694619514" lon="8.00823391497941"><ele>449.5</ele><time>2026-03-26T14:52:54Z</time></trkpt><trkpt lat="44.01471610554337" lon="8.00811156139861"><ele>450.66666666666663</ele><time>2026-03-26T14:52:55Z</time></trkpt><trkpt lat="44.01467868225862" lon="8.008025985726384"><ele>451.8333333333333</ele><time>2026-03-26T14:52:56Z</time></trkpt><trkpt lat="44.014620213605866" lon="8.007929888613669"><ele>453.0</ele><time>2026-03-26T14:52:57.001Z</time></trkpt><trkpt lat="44.014570701107324" lon="8.007833966068572"><ele>453.0</ele><time>2026-03-26T14:52:58.001Z</time></trkpt><trkpt lat="44.01450825540268" lon="8.007741737232317"><ele>452.99999999999994</ele><time>2026-03-26T14:53:00.001Z</time></trkpt><trkpt lat="44.01441479758483" lon="8.007670244247807"><ele>452.99999999999994</ele><time>2026-03-26T14:53:03.001Z</time></trkpt><trkpt lat="44.014357935754845" lon="8.007594967033178"><ele>453.0</ele><time>2026-03-26T14:53:04.001Z</time></trkpt><trkpt lat="44.014267318126294" lon="8.007533554226104"><ele>453.0</ele><time>2026-03-26T14:53:05.001Z</time></trkpt><trkpt lat="44.014175195117545" lon="8.007501647444004"><ele>459.0</ele><time>2026-03-26T14:53:06.001Z</time></trkpt><trkpt lat="44.014087088355616" lon="8.007485766103418"><ele>465.0</ele><time>2026-03-26T14:53:07.001Z</time></trkpt><trkpt lat="44.01402518855094" lon="8.007456662119278"><ele>471.0</ele><time>2026-03-26T14:53:08.001Z</time></trkpt><trkpt lat="44.01394590019138" lon="8.007349191612239"><ele>477.0</ele><time>2026-03-26T14:53:10.001Z</time></trkpt><trkpt lat="44.01387426282225" lon="8.007263228362412"><ele>483.0</ele><time>2026-03-26T14:53:12.001Z</time></trkpt><trkpt lat="44.01381202286796" lon="8.007310140064904"><ele>489.0</ele><time>2026-03-26T14:53:14.001Z</time></trkpt><trkpt lat="44.01376217581216" lon="8.007384558637305"><ele>489.0</ele><time>2026-03-26T14:53:15.001Z</time></trkpt><trkpt lat="44.013689892342924" lon="8.007457955834147"><ele>489.0</ele><time>2026-03-26T14:53:16.001Z</time></trkpt><trkpt lat="44.01361705446484" lon="8.007518752846222"><ele>489.0</ele><time>2026-03-26T14:53:17.001Z</time></trkpt><trkpt lat="44.01352378941602" lon="8.007571868421259"><ele>489.0</ele><time>2026-03-26T14:53:18.001Z</time></trkpt><trkpt lat="44.01344385443659" lon="8.007582463555105"><ele>489.0</ele><time>2026-03-26T14:53:19.001Z</time></trkpt><trkpt lat="44.01335693945957" lon="8.007558902708958"><ele>489.0</ele><time>2026-03-26T14:53:20.001Z</time></trkpt><trkpt lat="44.01326885403106" lon="8.007554509206066"><ele>487.5</ele><time>2026-03-26T14:53:21.001Z</time></trkpt><trkpt lat="44.01315006376913" lon="8.007564338420224"><ele>486.0</ele><time>2026-03-26T14:53:22.001Z</time></trkpt><trkpt lat="44.013075920752286" lon="8.007612012243454"><ele>484.5</ele><time>2026-03-26T14:53:23.001Z</time></trkpt><trkpt lat="44.01302926641114" lon="8.007680860142173"><ele>483.0</ele><time>2026-03-26T14:53:24.001Z</time></trkpt><trkpt lat="44.01301288758922" lon="8.007778730313893"><ele>481.5</ele><time>2026-03-26T14:53:25.001Z</time></trkpt><trkpt lat="44.012956562428386" lon="8.007889683830728"><ele>480.0</ele><time>2026-03-26T14:53:26.001Z</time></trkpt><trkpt lat="44.01290797038598" lon="8.007959984358303"><ele>480.0</ele><time>2026-03-26T14:53:28.001Z</time></trkpt><trkpt lat="44.012807929910274" lon="8.0079477157971"><ele>480.0</ele><time>2026-03-26T14:55:42Z</time></trkpt><trkpt lat="44.012735866390436" lon="8.008121244497236"><ele>480.0</ele><time>2026-03-26T14:55:44Z</time></trkpt><trkpt lat="44.01268435310693" lon="8.008206937274371"><ele>480.0</ele><time>2026-03-26T14:55:45Z</time></trkpt><trkpt lat="44.01256388300922" lon="8.008179532950034"><ele>480.0</ele><time>2026-03-26T14:55:47Z</time></trkpt><trkpt lat="44.012506788395" lon="8.008122681037635"><ele>482.5</ele><time>2026-03-26T14:55:48Z</time></trkpt><trkpt lat="44.01244446577669" lon="8.008058315069679"><ele>485.0</ele><time>2026-03-26T14:55:49Z</time></trkpt><trkpt lat="44.01236097630719" lon="8.00799563743454"><ele>487.5</ele><time>2026-03-26T14:55:50Z</time></trkpt><trkpt lat="44.012276189477426" lon="8.007944544627811"><ele>490.0</ele><time>2026-03-26T14:55:51Z</time></trkpt><trkpt lat="44.01221202661873" lon="8.007957611075954"><ele>492.5</ele><time>2026-03-26T14:55:52Z</time></trkpt><trkpt lat="44.0121661569443" lon="8.008031594875934"><ele>495.0</ele><time>2026-03-26T14:55:53Z</time></trkpt><trkpt lat="44.01212807060054" lon="8.008150886894919"><ele>495.0</ele><time>2026-03-26T14:55:54Z</time></trkpt><trkpt lat="44.012095211017765" lon="8.008302022107939"><ele>495.0</ele><time>2026-03-26T14:55:55Z</time></trkpt><trkpt lat="44.012060306886426" lon="8.008452119775704"><ele>495.0</ele><time>2026-03-26T14:55:56Z</time></trkpt><trkpt lat="44.012017966578284" lon="8.008547811260199"><ele>495.0</ele><time>2026-03-26T14:55:57Z</time></trkpt><trkpt lat="44.011909333553135" lon="8.008605415589308"><ele>495.0</ele><time>2026-03-26T14:55:59Z</time></trkpt><trkpt lat="44.011835852090805" lon="8.008598414626107"><ele>490.8333333333333</ele><time>2026-03-26T14:56:00Z</time></trkpt><trkpt lat="44.01176664771751" lon="8.008625622669364"><ele>486.66666666666663</ele><time>2026-03-26T14:56:01Z</time></trkpt><trkpt lat="44.01171201778319" lon="8.008688070174102"><ele>482.5</ele><time>2026-03-26T14:56:02Z</time></trkpt><trkpt lat="44.01165833937283" lon="8.008768620945002"><ele>478.3333333333333</ele><time>2026-03-26T14:56:03Z</time></trkpt><trkpt lat="44.01159608618017" lon="8.008849961282802"><ele>474.16666666666663</ele><time>2026-03-26T14:56:04Z</time></trkpt><trkpt lat="44.01152705496883" lon="8.008889291242836"><ele>470.0</ele><time>2026-03-26T14:56:05Z</time></trkpt><trkpt lat="44.0114533357391" lon="8.008890694948532"><ele>467.0</ele><time>2026-03-26T14:56:06Z</time></trkpt><trkpt lat="44.011386311940335" lon="8.008839344746539"><ele>464.0</ele><time>2026-03-26T14:56:07Z</time></trkpt><trkpt lat="44.01132152554365" lon="8.00875296952276"><ele>461.0</ele><time>2026-03-26T14:56:08Z</time></trkpt><trkpt lat="44.01127267913565" lon="8.008646416669647"><ele>458.0</ele><time>2026-03-26T14:56:09Z</time></trkpt><trkpt lat="44.01122153599254" lon="8.008526331052918"><ele>455.0</ele><time>2026-03-26T14:56:10Z</time></trkpt><trkpt lat="44.01116609094876" lon="8.00838580853582"><ele>463.5</ele><time>2026-03-26T14:56:11Z</time></trkpt><trkpt lat="44.011100309517666" lon="8.008223003289192"><ele>472.0</ele><time>2026-03-26T14:56:12Z</time></trkpt><trkpt lat="44.01103545414215" lon="8.008057426565687"><ele>480.5</ele><time>2026-03-26T14:56:13Z</time></trkpt><trkpt lat="44.01096888552196" lon="8.007913274526762"><ele>489.0</ele><time>2026-03-26T14:56:14Z</time></trkpt><trkpt lat="44.01090816575363" lon="8.007812104202937"><ele>489.0</ele><time>2026-03-26T14:56:15Z</time></trkpt><trkpt lat="44.01083746649888" lon="8.00775705596202"><ele>489.0</ele><time>2026-03-26T14:56:16Z</time></trkpt><trkpt lat="44.010763170210204" lon="8.00775939298428"><ele>489.0</ele><time>2026-03-26T14:56:17Z</time></trkpt><trkpt lat="44.01066581105293" lon="8.007760214255123"><ele>489.0</ele><time>2026-03-26T14:56:18Z</time></trkpt><trkpt lat="44.01057291637218" lon="8.007735300096208"><ele>489.0</ele><time>2026-03-26T14:56:19Z</time></trkpt><trkpt lat="44.010517604089195" lon="8.007678352126756"><ele>489.0</ele><time>2026-03-26T14:56:20Z</time></trkpt><trkpt lat="44.01045355752921" lon="8.00754109482895"><ele>488.5</ele><time>2026-03-26T14:56:22Z</time></trkpt><trkpt lat="44.01042978150973" lon="8.007454272494106"><ele>488.0</ele><time>2026-03-26T14:56:23Z</time></trkpt><trkpt lat="44.010418777994566" lon="8.007352048453585"><ele>487.5</ele><time>2026-03-26T14:56:24Z</time></trkpt><trkpt lat="44.010401768221065" lon="8.007265105530445"><ele>487.0</ele><time>2026-03-26T14:56:25Z</time></trkpt><trkpt lat="44.01033338274878" lon="8.007174140618988"><ele>486.5</ele><time>2026-03-26T14:56:26.999Z</time></trkpt><trkpt lat="44.01023076455039" lon="8.007111922625331"><ele>486.0</ele><time>2026-03-26T14:56:28.999Z</time></trkpt><trkpt lat="44.01014959660757" lon="8.00700047937541"><ele>486.0</ele><time>2026-03-26T14:56:30.999Z</time></trkpt><trkpt lat="44.01010275342248" lon="8.006920654330873"><ele>486.0</ele><time>2026-03-26T14:56:31.999Z</time></trkpt><trkpt lat="44.010010701482464" lon="8.006860008276279"><ele>486.0</ele><time>2026-03-26T14:56:35.999Z</time></trkpt><trkpt lat="44.00994791365128" lon="8.006894772086756"><ele>486.0</ele><time>2026-03-26T14:56:37.999Z</time></trkpt><trkpt lat="44.009883143476884" lon="8.006917611338814"><ele>486.0</ele><time>2026-03-26T14:56:39.999Z</time></trkpt><trkpt lat="44.00982959096534" lon="8.006868588382423"><ele>486.0</ele><time>2026-03-26T14:56:41.999Z</time></trkpt><trkpt lat="44.009752528463146" lon="8.006819782115757"><ele>486.1666666666667</ele><time>2026-03-26T14:56:47.999Z</time></trkpt><trkpt lat="44.009685409059685" lon="8.006712498538693"><ele>486.33333333333337</ele><time>2026-03-26T14:56:49.999Z</time></trkpt><trkpt lat="44.00965304177407" lon="8.006635812627312"><ele>486.5</ele><time>2026-03-26T14:56:50.999Z</time></trkpt><trkpt lat="44.00960902866819" lon="8.00653228932804"><ele>486.6666666666667</ele><time>2026-03-26T14:56:51.999Z</time></trkpt><trkpt lat="44.009572363244004" lon="8.006412853024422"><ele>486.83333333333337</ele><time>2026-03-26T14:56:52.999Z</time></trkpt><trkpt lat="44.00953889714653" lon="8.006289288162687"><ele>487.0</ele><time>2026-03-26T14:56:53.999Z</time></trkpt><trkpt lat="44.00949353136323" lon="8.006145711383192"><ele>487.0</ele><time>2026-03-26T14:56:54.999Z</time></trkpt><trkpt lat="44.00946097427834" lon="8.006050205803133"><ele>487.00000000000006</ele><time>2026-03-26T14:56:55.999Z</time></trkpt><trkpt lat="44.00943415248454" lon="8.005906578617187"><ele>487.00000000000006</ele><time>2026-03-26T14:56:56.999Z</time></trkpt><trkpt lat="44.00940905515297" lon="8.005753076430798"><ele>487.0</ele><time>2026-03-26T14:56:57.999Z</time></trkpt><trkpt lat="44.00938646284281" lon="8.005626649185078"><ele>487.0</ele><time>2026-03-26T14:56:58.999Z</time></trkpt><trkpt lat="44.00931914380507" lon="8.005618983444306"><ele>487.00000000000006</ele><time>2026-03-26T14:57:01.999Z</time></trkpt><trkpt lat="44.00926101586562" lon="8.005738855482194"><ele>487.0</ele><time>2026-03-26T14:57:03.999Z</time></trkpt><trkpt lat="44.00922842944266" lon="8.005823643619806"><ele>487.0</ele><time>2026-03-26T14:57:04.999Z</time></trkpt><trkpt lat="44.00917164068116" lon="8.00589293261435"><ele>487.0</ele><time>2026-03-26T14:57:05.999Z</time></trkpt><trkpt lat="44.009054428781354" lon="8.005962642216582"><ele>487.00000000000006</ele><time>2026-03-26T14:57:07.999Z</time></trkpt><trkpt lat="44.008984416678544" lon="8.005976178811688"><ele>487.0</ele><time>2026-03-26T14:57:08.999Z</time></trkpt><trkpt lat="44.00885264995584" lon="8.005935697623391"><ele>487.8</ele><time>2026-03-26T14:57:10.999Z</time></trkpt><trkpt lat="44.0087699060752" lon="8.005909150751922"><ele>488.6</ele><time>2026-03-26T14:57:11.999Z</time></trkpt><trkpt lat="44.00866543464296" lon="8.005842910354193"><ele>489.40000000000003</ele><time>2026-03-26T14:57:13.999Z</time></trkpt><trkpt lat="44.00862042285455" lon="8.005763212229953"><ele>490.20000000000005</ele><time>2026-03-26T14:57:15.999Z</time></trkpt><trkpt lat="44.00854117746305" lon="8.005719571367212"><ele>491.0</ele><time>2026-03-26T14:57:18.999Z</time></trkpt><trkpt lat="44.00846841270782" lon="8.005863331312817"><ele>490.99999999999994</ele><time>2026-03-26T14:57:20.999Z</time></trkpt><trkpt lat="44.008431445631224" lon="8.0059931828246"><ele>491.0</ele><time>2026-03-26T14:57:22.999Z</time></trkpt><trkpt lat="44.00836642840841" lon="8.006015545507811"><ele>491.0</ele><time>2026-03-26T14:57:26.999Z</time></trkpt><trkpt lat="44.00844636043245" lon="8.005906627358375"><ele>491.0</ele><time>2026-03-26T14:57:33.999Z</time></trkpt><trkpt lat="44.00848349603298" lon="8.005831026752615"><ele>490.99999999999994</ele><time>2026-03-26T14:57:34.999Z</time></trkpt><trkpt lat="44.008537754875206" lon="8.005766864838966"><ele>491.0</ele><time>2026-03-26T14:58:42Z</time></trkpt><trkpt lat="44.00862347478693" lon="8.005722249889912"><ele>491.0</ele><time>2026-03-26T14:58:44Z</time></trkpt><trkpt lat="44.00868478818327" lon="8.005828864818348"><ele>491.0</ele><time>2026-03-26T14:58:46Z</time></trkpt><trkpt lat="44.00872129526521" lon="8.005908282196858"><ele>491.0</ele><time>2026-03-26T14:58:47Z</time></trkpt><trkpt lat="44.0088435499834" lon="8.005955728395817"><ele>491.0</ele><time>2026-03-26T14:58:49Z</time></trkpt><trkpt lat="44.00892061275587" lon="8.00596966272765"><ele>491.0</ele><time>2026-03-26T14:58:50Z</time></trkpt><trkpt lat="44.009021973594095" lon="8.005978958958707"><ele>491.0</ele><time>2026-03-26T14:58:51Z</time></trkpt><trkpt lat="44.00908993941674" lon="8.005963074832879"><ele>490.99999999999994</ele><time>2026-03-26T14:58:52Z</time></trkpt><trkpt lat="44.009152007872686" lon="8.00591141931515"><ele>491.0</ele><time>2026-03-26T14:58:53Z</time></trkpt><trkpt lat="44.00920778950976" lon="8.00585093756868"><ele>491.0</ele><time>2026-03-26T14:58:54Z</time></trkpt><trkpt lat="44.00924456279097" lon="8.005779375382907"><ele>490.99999999999994</ele><time>2026-03-26T14:58:55Z</time></trkpt><trkpt lat="44.00928665739289" lon="8.005676952616962"><ele>491.0</ele><time>2026-03-26T14:58:56Z</time></trkpt><trkpt lat="44.009348637367125" lon="8.005597467303458"><ele>491.0</ele><time>2026-03-26T14:58:58Z</time></trkpt><trkpt lat="44.00941282695406" lon="8.005710197881053"><ele>490.3333333333333</ele><time>2026-03-26T14:59:01Z</time></trkpt><trkpt lat="44.00941880962508" lon="8.00586718976721"><ele>489.66666666666663</ele><time>2026-03-26T14:59:03Z</time></trkpt><trkpt lat="44.00943927170123" lon="8.005966279926318"><ele>489.0</ele><time>2026-03-26T14:59:04Z</time></trkpt><trkpt lat="44.009471795820296" lon="8.006102385018671"><ele>488.33333333333337</ele><time>2026-03-26T14:59:05Z</time></trkpt><trkpt lat="44.009499025895096" lon="8.006214152089255"><ele>487.6666666666667</ele><time>2026-03-26T14:59:06Z</time></trkpt><trkpt lat="44.009532309144056" lon="8.006302718646332"><ele>487.0</ele><time>2026-03-26T14:59:07Z</time></trkpt><trkpt lat="44.009577555084405" lon="8.006408767455879"><ele>487.00000000000006</ele><time>2026-03-26T14:59:08Z</time></trkpt><trkpt lat="44.00960745363264" lon="8.006511916299303"><ele>487.0</ele><time>2026-03-26T14:59:09Z</time></trkpt><trkpt lat="44.00963867414716" lon="8.006611586283965"><ele>487.0</ele><time>2026-03-26T14:59:10Z</time></trkpt><trkpt lat="44.009687787686126" lon="8.00670295053422"><ele>487.0</ele><time>2026-03-26T14:59:11Z</time></trkpt><trkpt lat="44.00973743590532" lon="8.006786345290266"><ele>487.00000000000006</ele><time>2026-03-26T14:59:12Z</time></trkpt><trkpt lat="44.00980576626827" lon="8.006887146670916"><ele>487.0</ele><time>2026-03-26T14:59:14Z</time></trkpt><trkpt lat="44.00985670032014" lon="8.006813429870625"><ele>486.83333333333337</ele><time>2026-03-26T14:59:51Z</time></trkpt><trkpt lat="44.009931796124924" lon="8.006760179053991"><ele>486.6666666666667</ele><time>2026-03-26T14:59:53Z</time></trkpt><trkpt lat="44.01000209541014" lon="8.00676845369574"><ele>486.5</ele><time>2026-03-26T14:59:54Z</time></trkpt><trkpt lat="44.010072824442354" lon="8.00678942516352"><ele>486.33333333333337</ele><time>2026-03-26T14:59:55Z</time></trkpt><trkpt lat="44.01013778550276" lon="8.006838455819716"><ele>486.1666666666667</ele><time>2026-03-26T14:59:57Z</time></trkpt><trkpt lat="44.010207500776524" lon="8.006934241893822"><ele>486.0</ele><time>2026-03-26T14:59:59Z</time></trkpt><trkpt lat="44.0103025844982" lon="8.007004287997306"><ele>486.0</ele><time>2026-03-26T15:00:01Z</time></trkpt><trkpt lat="44.01038444947143" lon="8.007030689060256"><ele>486.0</ele><time>2026-03-26T15:00:03Z</time></trkpt><trkpt lat="44.010460452208335" lon="8.00703972654848"><ele>486.0</ele><time>2026-03-26T15:00:04Z</time></trkpt><trkpt lat="44.010523921332364" lon="8.00707401201799"><ele>486.0</ele><time>2026-03-26T15:00:05Z</time></trkpt><trkpt lat="44.01057595480952" lon="8.007127543614514"><ele>486.0</ele><time>2026-03-26T15:00:06Z</time></trkpt><trkpt lat="44.01062203356509" lon="8.007229982525326"><ele>486.0</ele><time>2026-03-26T15:00:07Z</time></trkpt><trkpt lat="44.01071162910258" lon="8.007401217653468"><ele>486.0</ele><time>2026-03-26T15:00:09Z</time></trkpt><trkpt lat="44.01079243316201" lon="8.007430722024798"><ele>486.0</ele><time>2026-03-26T15:00:10Z</time></trkpt><trkpt lat="44.01087277473336" lon="8.007422572897868"><ele>486.0</ele><time>2026-03-26T15:00:11Z</time></trkpt><trkpt lat="44.0109649997601" lon="8.007404258843316"><ele>486.0</ele><time>2026-03-26T15:00:12Z</time></trkpt><trkpt lat="44.01106722855692" lon="8.00743587376567"><ele>486.0</ele><time>2026-03-26T15:00:13Z</time></trkpt><trkpt lat="44.011154656716556" lon="8.007514488982974"><ele>486.6</ele><time>2026-03-26T15:00:14Z</time></trkpt><trkpt lat="44.01123143921666" lon="8.007609874015614"><ele>487.20000000000005</ele><time>2026-03-26T15:00:15Z</time></trkpt><trkpt lat="44.01130736817332" lon="8.00772469372644"><ele>487.79999999999995</ele><time>2026-03-26T15:00:16Z</time></trkpt><trkpt lat="44.011373516139194" lon="8.007838516940732"><ele>488.4</ele><time>2026-03-26T15:00:17Z</time></trkpt><trkpt lat="44.01145989788838" lon="8.00784973957509"><ele>489.0</ele><time>2026-03-26T15:00:19Z</time></trkpt><trkpt lat="44.011501153814656" lon="8.007783186736972"><ele>489.0</ele><time>2026-03-26T15:00:20Z</time></trkpt><trkpt lat="44.0115272954095" lon="8.007687713397873"><ele>489.0</ele><time>2026-03-26T15:00:21Z</time></trkpt><trkpt lat="44.011538335254556" lon="8.007577804562615"><ele>489.0</ele><time>2026-03-26T15:00:22Z</time></trkpt><trkpt lat="44.01160464990349" lon="8.007438657459002"><ele>489.0</ele><time>2026-03-26T15:00:24Z</time></trkpt><trkpt lat="44.01165944185368" lon="8.007392888703505"><ele>489.0</ele><time>2026-03-26T15:00:25Z</time></trkpt><trkpt lat="44.01158787022263" lon="8.007387464658507"><ele>489.0</ele><time>2026-03-26T15:00:52Z</time></trkpt><trkpt lat="44.01149628700605" lon="8.007513084656916"><ele>489.0</ele><time>2026-03-26T15:00:54Z</time></trkpt><trkpt lat="44.01143898486817" lon="8.007613567317597"><ele>489.0</ele><time>2026-03-26T15:00:55Z</time></trkpt><trkpt lat="44.01135784859327" lon="8.007668811488722"><ele>489.0</ele><time>2026-03-26T15:00:57Z</time></trkpt><trkpt lat="44.0112969716376" lon="8.007563237642582"><ele>489.0</ele><time>2026-03-26T15:00:59Z</time></trkpt><trkpt lat="44.0112669552319" lon="8.00745974774583"><ele>489.0</ele><time>2026-03-26T15:01:00Z</time></trkpt><trkpt lat="44.01122614176471" lon="8.00734043379967"><ele>493.79999999999995</ele><time>2026-03-26T15:01:01Z</time></trkpt><trkpt lat="44.01117988857425" lon="8.007241747926834"><ele>498.59999999999997</ele><time>2026-03-26T15:01:02Z</time></trkpt><trkpt lat="44.011095183576245" lon="8.007149203414247"><ele>503.4</ele><time>2026-03-26T15:01:04Z</time></trkpt><trkpt lat="44.01101929757746" lon="8.007047539539004"><ele>508.2</ele><time>2026-03-26T15:01:06Z</time></trkpt><trkpt lat="44.01094757311966" lon="8.006908399785882"><ele>513.0</ele><time>2026-03-26T15:01:08Z</time></trkpt><trkpt lat="44.01086338118958" lon="8.006819124795244"><ele>511.8333333333333</ele><time>2026-03-26T15:01:10Z</time></trkpt><trkpt lat="44.01080004508429" lon="8.006787281443629"><ele>510.66666666666663</ele><time>2026-03-26T15:01:11Z</time></trkpt><trkpt lat="44.01073249177051" lon="8.00672844321278"><ele>509.5</ele><time>2026-03-26T15:01:12Z</time></trkpt><trkpt lat="44.01066722641163" lon="8.00666275277735"><ele>508.3333333333333</ele><time>2026-03-26T15:01:13Z</time></trkpt><trkpt lat="44.010586350188426" lon="8.006576519875404"><ele>507.16666666666663</ele><time>2026-03-26T15:01:15Z</time></trkpt><trkpt lat="44.010536995475" lon="8.006472992691103"><ele>506.0</ele><time>2026-03-26T15:01:17Z</time></trkpt><trkpt lat="44.01051904010159" lon="8.006296970633516"><ele>506.0</ele><time>2026-03-26T15:01:19Z</time></trkpt><trkpt lat="44.01051889860524" lon="8.006181801108578"><ele>506.0</ele><time>2026-03-26T15:01:20Z</time></trkpt><trkpt lat="44.010515968670056" lon="8.006063199958414"><ele>506.0</ele><time>2026-03-26T15:01:21Z</time></trkpt><trkpt lat="44.01047118349327" lon="8.005898284443864"><ele>506.0</ele><time>2026-03-26T15:01:23Z</time></trkpt><trkpt lat="44.01042147672393" lon="8.005826859008117"><ele>506.0</ele><time>2026-03-26T15:01:24Z</time></trkpt><trkpt lat="44.01034966890669" lon="8.005766900282731"><ele>508.49999999999994</ele><time>2026-03-26T15:01:25Z</time></trkpt><trkpt lat="44.01022437816146" lon="8.005710532932678"><ele>511.0</ele><time>2026-03-26T15:01:27Z</time></trkpt><trkpt lat="44.010149602284336" lon="8.005694018376749"><ele>513.5</ele><time>2026-03-26T15:01:28Z</time></trkpt><trkpt lat="44.010083918615265" lon="8.005660063064033"><ele>516.0</ele><time>2026-03-26T15:01:29Z</time></trkpt><trkpt lat="44.01002660060085" lon="8.005541670490736"><ele>518.5</ele><time>2026-03-26T15:01:31Z</time></trkpt><trkpt lat="44.010007188011095" lon="8.005452676635727"><ele>521.0</ele><time>2026-03-26T15:01:32Z</time></trkpt><trkpt lat="44.01000138925384" lon="8.005360512122918"><ele>521.0</ele><time>2026-03-26T15:01:33Z</time></trkpt><trkpt lat="44.00999440335745" lon="8.005234895306046"><ele>521.0</ele><time>2026-03-26T15:01:34Z</time></trkpt><trkpt lat="44.009993268227085" lon="8.005106839187516"><ele>521.0</ele><time>2026-03-26T15:01:35Z</time></trkpt><trkpt lat="44.01000453809626" lon="8.004993465306164"><ele>521.0</ele><time>2026-03-26T15:01:36Z</time></trkpt><trkpt lat="44.01002866792195" lon="8.004868035461444"><ele>521.0</ele><time>2026-03-26T15:01:37Z</time></trkpt><trkpt lat="44.01004844463509" lon="8.004741775993546"><ele>521.8</ele><time>2026-03-26T15:01:38Z</time></trkpt><trkpt lat="44.01005371641075" lon="8.004650217068415"><ele>522.6</ele><time>2026-03-26T15:01:39Z</time></trkpt><trkpt lat="44.009987966780514" lon="8.004527665350228"><ele>523.4</ele><time>2026-03-26T15:01:42Z</time></trkpt><trkpt lat="44.00987955785072" lon="8.004437178534335"><ele>524.2</ele><time>2026-03-26T15:01:44Z</time></trkpt><trkpt lat="44.009805282515266" lon="8.004387472978618"><ele>525.0</ele><time>2026-03-26T15:01:45Z</time></trkpt><trkpt lat="44.009720429038616" lon="8.004336992740459"><ele>525.0</ele><time>2026-03-26T15:01:46Z</time></trkpt><trkpt lat="44.009661485034336" lon="8.004301517250012"><ele>525.0</ele><time>2026-03-26T15:01:47Z</time></trkpt><trkpt lat="44.009572440109054" lon="8.004206546050495"><ele>525.0</ele><time>2026-03-26T15:01:49Z</time></trkpt><trkpt lat="44.00951524584749" lon="8.00407534782887"><ele>525.0</ele><time>2026-03-26T15:01:51Z</time></trkpt><trkpt lat="44.009583471240894" lon="8.004169554802406"><ele>525.0</ele><time>2026-03-26T15:02:05Z</time></trkpt><trkpt lat="44.00960968717079" lon="8.004256272374104"><ele>525.0</ele><time>2026-03-26T15:02:08Z</time></trkpt><trkpt lat="44.009662651409116" lon="8.004315668418396"><ele>525.0</ele><time>2026-03-26T15:02:11Z</time></trkpt><trkpt lat="44.0097526655092" lon="8.004352703744928"><ele>525.0</ele><time>2026-03-26T15:02:15Z</time></trkpt><trkpt lat="44.0098497353756" lon="8.004419429675261"><ele>525.0</ele><time>2026-03-26T15:02:17Z</time></trkpt><trkpt lat="44.009921984886276" lon="8.004463854858303"><ele>525.0</ele><time>2026-03-26T15:02:18Z</time></trkpt><trkpt lat="44.00998114924408" lon="8.004505167082533"><ele>525.0</ele><time>2026-03-26T15:02:19Z</time></trkpt><trkpt lat="44.01003926858692" lon="8.004629400056599"><ele>524.3333333333334</ele><time>2026-03-26T15:02:21Z</time></trkpt><trkpt lat="44.01005161361631" lon="8.004716016039206"><ele>523.6666666666666</ele><time>2026-03-26T15:02:22Z</time></trkpt><trkpt lat="44.0100374496443" lon="8.004812918004847"><ele>523.0</ele><time>2026-03-26T15:02:23Z</time></trkpt><trkpt lat="44.0100161585987" lon="8.004937570303946"><ele>522.3333333333333</ele><time>2026-03-26T15:02:24Z</time></trkpt><trkpt lat="44.00999046268931" lon="8.005080694335108"><ele>521.6666666666666</ele><time>2026-03-26T15:02:25Z</time></trkpt><trkpt lat="44.009975733286446" lon="8.005214391558107"><ele>521.0</ele><time>2026-03-26T15:02:26Z</time></trkpt><trkpt lat="44.00999670949412" lon="8.005413140234385"><ele>521.0</ele><time>2026-03-26T15:02:28Z</time></trkpt><trkpt lat="44.01002331975551" lon="8.005528953467405"><ele>521.0</ele><time>2026-03-26T15:02:29Z</time></trkpt><trkpt lat="44.010057605392646" lon="8.005632457793068"><ele>521.0</ele><time>2026-03-26T15:02:30Z</time></trkpt><trkpt lat="44.0101510614807" lon="8.005709896153123"><ele>521.0</ele><time>2026-03-26T15:02:32Z</time></trkpt><trkpt lat="44.0102170676453" lon="8.005740101502283"><ele>521.0</ele><time>2026-03-26T15:02:33Z</time></trkpt><trkpt lat="44.0102930756013" lon="8.005761742431636"><ele>521.0</ele><time>2026-03-26T15:02:34Z</time></trkpt><trkpt lat="44.01037007759951" lon="8.00580074692643"><ele>518.5</ele><time>2026-03-26T15:02:35Z</time></trkpt><trkpt lat="44.01042155185421" lon="8.005860408060482"><ele>516.0</ele><time>2026-03-26T15:02:36Z</time></trkpt><trkpt lat="44.01046703402156" lon="8.00593057042385"><ele>513.5</ele><time>2026-03-26T15:02:37Z</time></trkpt><trkpt lat="44.010506309913126" lon="8.006004672139161"><ele>511.0</ele><time>2026-03-26T15:02:38Z</time></trkpt><trkpt lat="44.010528264549684" lon="8.006089378414268"><ele>508.49999999999994</ele><time>2026-03-26T15:02:39Z</time></trkpt><trkpt lat="44.01054967142215" lon="8.006259670785953"><ele>506.0</ele><time>2026-03-26T15:02:41Z</time></trkpt><trkpt lat="44.010545104349895" lon="8.006363074150906"><ele>506.0</ele><time>2026-03-26T15:02:42Z</time></trkpt><trkpt lat="44.01056317563913" lon="8.006465206001003"><ele>506.0</ele><time>2026-03-26T15:02:43Z</time></trkpt><trkpt lat="44.01062460245745" lon="8.006611821254463"><ele>506.0</ele><time>2026-03-26T15:02:45Z</time></trkpt><trkpt lat="44.010762937690615" lon="8.00675826307346"><ele>506.0</ele><time>2026-03-26T15:02:47Z</time></trkpt><trkpt lat="44.010840666957115" lon="8.006812454052042"><ele>507.16666666666663</ele><time>2026-03-26T15:02:48Z</time></trkpt><trkpt lat="44.01089879237158" lon="8.006866556552923"><ele>508.3333333333333</ele><time>2026-03-26T15:02:49Z</time></trkpt><trkpt lat="44.01096471507893" lon="8.0069104104683"><ele>509.5</ele><time>2026-03-26T15:02:50Z</time></trkpt><trkpt lat="44.01103034513467" lon="8.006989206563802"><ele>510.66666666666663</ele><time>2026-03-26T15:02:51Z</time></trkpt><trkpt lat="44.01107894032757" lon="8.00707496021887"><ele>511.8333333333333</ele><time>2026-03-26T15:02:52Z</time></trkpt><trkpt lat="44.011147913215716" lon="8.007171848157487"><ele>513.0</ele><time>2026-03-26T15:02:53Z</time></trkpt><trkpt lat="44.0112149715022" lon="8.007254233522367"><ele>513.0</ele><time>2026-03-26T15:02:54Z</time></trkpt><trkpt lat="44.01125565105087" lon="8.007338757213008"><ele>513.0</ele><time>2026-03-26T15:02:55Z</time></trkpt><trkpt lat="44.01129592784228" lon="8.007451404484671"><ele>513.0</ele><time>2026-03-26T15:02:56Z</time></trkpt><trkpt lat="44.01134143101855" lon="8.007565438086223"><ele>513.0</ele><time>2026-03-26T15:02:57Z</time></trkpt><trkpt lat="44.01137407951142" lon="8.007646048300524"><ele>513.0</ele><time>2026-03-26T15:02:58Z</time></trkpt><trkpt lat="44.01143996633882" lon="8.007635205763501"><ele>513.0</ele><time>2026-03-26T15:03:00Z</time></trkpt><trkpt lat="44.01151833441905" lon="8.007471469700766"><ele>513.0</ele><time>2026-03-26T15:03:02Z</time></trkpt><trkpt lat="44.01155699543325" lon="8.00737465108424"><ele>513.0</ele><time>2026-03-26T15:03:03Z</time></trkpt><trkpt lat="44.01163711985197" lon="8.007350261267204"><ele>513.0</ele><time>2026-03-26T15:03:05Z</time></trkpt><trkpt lat="44.01169930271872" lon="8.007371761284809"><ele>513.0</ele><time>2026-03-26T15:03:07Z</time></trkpt><trkpt lat="44.01164024553904" lon="8.007455187000675"><ele>513.0</ele><time>2026-03-26T15:03:10Z</time></trkpt><trkpt lat="44.011555307471504" lon="8.007575300757633"><ele>513.0</ele><time>2026-03-26T15:03:12Z</time></trkpt><trkpt lat="44.01152466455561" lon="8.00768294749963"><ele>513.0</ele><time>2026-03-26T15:03:13Z</time></trkpt><trkpt lat="44.011486568956165" lon="8.007840186464637"><ele>513.0</ele><time>2026-03-26T15:03:15Z</time></trkpt><trkpt lat="44.011509356568396" lon="8.007709056011032"><ele>513.0</ele><time>2026-03-26T15:03:23Z</time></trkpt><trkpt lat="44.01155892178942" lon="8.007561917069504"><ele>513.0</ele><time>2026-03-26T15:03:25Z</time></trkpt><trkpt lat="44.01163417581355" lon="8.007448015479708"><ele>513.0</ele><time>2026-03-26T15:03:27Z</time></trkpt><trkpt lat="44.01170750055496" lon="8.007360863217423"><ele>514.8</ele><time>2026-03-26T15:08:54Z</time></trkpt><trkpt lat="44.01176511706926" lon="8.007270937291652"><ele>516.5999999999999</ele><time>2026-03-26T15:08:55Z</time></trkpt><trkpt lat="44.011811276672226" lon="8.00720514589358"><ele>518.4000000000001</ele><time>2026-03-26T15:08:56Z</time></trkpt><trkpt lat="44.011845689964886" lon="8.007127776840491"><ele>520.2</ele><time>2026-03-26T15:08:57Z</time></trkpt><trkpt lat="44.01196327738468" lon="8.006980250162028"><ele>522.0</ele><time>2026-03-26T15:08:59Z</time></trkpt><trkpt lat="44.012019519985145" lon="8.006913736688935"><ele>522.0</ele><time>2026-03-26T15:09:00Z</time></trkpt><trkpt lat="44.01207116961704" lon="8.006833270363492"><ele>522.0</ele><time>2026-03-26T15:09:01Z</time></trkpt><trkpt lat="44.012172758763285" lon="8.006745728479219"><ele>522.0</ele><time>2026-03-26T15:09:02.999Z</time></trkpt><trkpt lat="44.01226049693346" lon="8.006690788187928"><ele>522.0</ele><time>2026-03-26T15:09:04.999Z</time></trkpt><trkpt lat="44.012325615664054" lon="8.006637614812174"><ele>522.0</ele><time>2026-03-26T15:09:12.999Z</time></trkpt><trkpt lat="44.0123952208828" lon="8.006602384436983"><ele>522.0</ele><time>2026-03-26T15:09:13.999Z</time></trkpt><trkpt lat="44.01248533124653" lon="8.006559102282434"><ele>523.6666666666666</ele><time>2026-03-26T15:09:14.999Z</time></trkpt><trkpt lat="44.01254225198418" lon="8.006511035016322"><ele>525.3333333333334</ele><time>2026-03-26T15:09:15.999Z</time></trkpt><trkpt lat="44.012588149447645" lon="8.006432607556844"><ele>527.0</ele><time>2026-03-26T15:09:16.999Z</time></trkpt><trkpt lat="44.01262108322886" lon="8.006336105667943"><ele>528.6666666666667</ele><time>2026-03-26T15:09:17.999Z</time></trkpt><trkpt lat="44.01266809245821" lon="8.006254569881783"><ele>530.3333333333334</ele><time>2026-03-26T15:09:18.999Z</time></trkpt><trkpt lat="44.012780338364436" lon="8.006211653332688"><ele>532.0</ele><time>2026-03-26T15:09:20.999Z</time></trkpt><trkpt lat="44.012860326249964" lon="8.00621118695399"><ele>532.0</ele><time>2026-03-26T15:09:21.999Z</time></trkpt><trkpt lat="44.012946652918686" lon="8.006206723829246"><ele>532.0</ele><time>2026-03-26T15:09:22.999Z</time></trkpt><trkpt lat="44.01303556823114" lon="8.006169810209615"><ele>532.0</ele><time>2026-03-26T15:09:23.999Z</time></trkpt><trkpt lat="44.01313200949521" lon="8.006124230965275"><ele>532.0</ele><time>2026-03-26T15:09:24.999Z</time></trkpt><trkpt lat="44.013219497311574" lon="8.006095297327708"><ele>532.0</ele><time>2026-03-26T15:09:25.999Z</time></trkpt><trkpt lat="44.01328967487982" lon="8.00611714347417"><ele>532.0</ele><time>2026-03-26T15:09:26.999Z</time></trkpt><trkpt lat="44.01342018389868" lon="8.006089740487543"><ele>529.8000000000001</ele><time>2026-03-26T15:09:28.999Z</time></trkpt><trkpt lat="44.01349026218262" lon="8.006016764625548"><ele>527.6</ele><time>2026-03-26T15:09:29.999Z</time></trkpt><trkpt lat="44.0135405075482" lon="8.005912770991793"><ele>525.4000000000001</ele><time>2026-03-26T15:09:30.999Z</time></trkpt><trkpt lat="44.013589839296124" lon="8.00581162050109"><ele>523.2</ele><time>2026-03-26T15:09:31.999Z</time></trkpt><trkpt lat="44.01366286868299" lon="8.005726436526997"><ele>521.0</ele><time>2026-03-26T15:09:32.999Z</time></trkpt><trkpt lat="44.01375585819353" lon="8.0056633144799"><ele>523.5</ele><time>2026-03-26T15:09:33.999Z</time></trkpt><trkpt lat="44.01385580091768" lon="8.00559453123848"><ele>526.0</ele><time>2026-03-26T15:09:34.999Z</time></trkpt><trkpt lat="44.01393553246326" lon="8.00553395673161"><ele>528.5</ele><time>2026-03-26T15:09:36Z</time></trkpt><trkpt lat="44.01400259517326" lon="8.005491567958527"><ele>531.0</ele><time>2026-03-26T15:09:37Z</time></trkpt><trkpt lat="44.01407463631958" lon="8.005485852089096"><ele>533.5</ele><time>2026-03-26T15:09:38Z</time></trkpt><trkpt lat="44.014142801801604" lon="8.005515299139223"><ele>536.0</ele><time>2026-03-26T15:09:39Z</time></trkpt><trkpt lat="44.01423894641863" lon="8.00553570888072"><ele>536.0</ele><time>2026-03-26T15:09:40Z</time></trkpt><trkpt lat="44.01433004136532" lon="8.005576772033617"><ele>536.0</ele><time>2026-03-26T15:09:41Z</time></trkpt><trkpt lat="44.01439500303704" lon="8.005630424430244"><ele>536.0</ele><time>2026-03-26T15:09:42Z</time></trkpt><trkpt lat="44.014468318898274" lon="8.00567673528042"><ele>536.0</ele><time>2026-03-26T15:09:43Z</time></trkpt><trkpt lat="44.01456729534828" lon="8.005720759167225"><ele>536.0</ele><time>2026-03-26T15:09:44Z</time></trkpt><trkpt lat="44.014670739092" lon="8.005801227934867"><ele>535.8</ele><time>2026-03-26T15:09:45Z</time></trkpt><trkpt lat="44.01476219627112" lon="8.005906377550573"><ele>535.6</ele><time>2026-03-26T15:09:46Z</time></trkpt><trkpt lat="44.01484544856294" lon="8.00600879583005"><ele>535.4</ele><time>2026-03-26T15:09:47Z</time></trkpt><trkpt lat="44.01493736187126" lon="8.006121621912168"><ele>535.2</ele><time>2026-03-26T15:09:48Z</time></trkpt><trkpt lat="44.01501010322631" lon="8.006205736161961"><ele>535.0</ele><time>2026-03-26T15:09:49Z</time></trkpt><trkpt lat="44.01506377752428" lon="8.006311433968117"><ele>535.0</ele><time>2026-03-26T15:09:50Z</time></trkpt><trkpt lat="44.01511474569464" lon="8.006418587240212"><ele>535.0</ele><time>2026-03-26T15:09:51Z</time></trkpt><trkpt lat="44.01515853976105" lon="8.006534896757044"><ele>535.0</ele><time>2026-03-26T15:09:52Z</time></trkpt><trkpt lat="44.01522315707456" lon="8.006632317844394"><ele>535.0</ele><time>2026-03-26T15:09:53Z</time></trkpt><trkpt lat="44.015285140154404" lon="8.006685450801193"><ele>535.0</ele><time>2026-03-26T15:09:54Z</time></trkpt><trkpt lat="44.01538829549095" lon="8.006683642281487"><ele>535.0</ele><time>2026-03-26T15:09:56Z</time></trkpt><trkpt lat="44.0154056145537" lon="8.006562409569494"><ele>535.0</ele><time>2026-03-26T15:09:58Z</time></trkpt><trkpt lat="44.01530061151392" lon="8.006465247186776"><ele>535.0</ele><time>2026-03-26T15:10:00Z</time></trkpt><trkpt lat="44.01522968923131" lon="8.006432652201722"><ele>535.0</ele><time>2026-03-26T15:10:01Z</time></trkpt><trkpt lat="44.015186834229986" lon="8.006355829920995"><ele>535.0</ele><time>2026-03-26T15:10:02Z</time></trkpt><trkpt lat="44.01516289079547" lon="8.006255531741074"><ele>535.0</ele><time>2026-03-26T15:10:03Z</time></trkpt><trkpt lat="44.01509967103049" lon="8.00615821822692"><ele>535.0</ele><time>2026-03-26T15:10:04Z</time></trkpt><trkpt lat="44.015058291291126" lon="8.00603994418622"><ele>535.0</ele><time>2026-03-26T15:10:05Z</time></trkpt><trkpt lat="44.01499453675729" lon="8.005919710520779"><ele>535.0</ele><time>2026-03-26T15:10:06Z</time></trkpt><trkpt lat="44.01494103186619" lon="8.005833741290816"><ele>535.0</ele><time>2026-03-26T15:10:07Z</time></trkpt><trkpt lat="44.01487836413526" lon="8.005732545731927"><ele>535.0</ele><time>2026-03-26T15:10:08Z</time></trkpt><trkpt lat="44.01482923651074" lon="8.00562449323785"><ele>535.2</ele><time>2026-03-26T15:10:09Z</time></trkpt><trkpt lat="44.01476682301248" lon="8.005524583412281"><ele>535.4</ele><time>2026-03-26T15:10:10Z</time></trkpt><trkpt lat="44.01471201548604" lon="8.00541533334083"><ele>535.6</ele><time>2026-03-26T15:10:11Z</time></trkpt><trkpt lat="44.01465987745653" lon="8.005340285451972"><ele>535.8</ele><time>2026-03-26T15:10:12Z</time></trkpt><trkpt lat="44.01455660801559" lon="8.005315957255817"><ele>536.0</ele><time>2026-03-26T15:10:13Z</time></trkpt><trkpt lat="44.014457675544335" lon="8.00527526293458"><ele>536.0</ele><time>2026-03-26T15:10:14Z</time></trkpt><trkpt lat="44.01437706979028" lon="8.005209306741083"><ele>536.0</ele><time>2026-03-26T15:10:15Z</time></trkpt><trkpt lat="44.014307922039265" lon="8.005146484973608"><ele>536.0</ele><time>2026-03-26T15:10:16Z</time></trkpt><trkpt lat="44.01424411547324" lon="8.00506201482943"><ele>536.0</ele><time>2026-03-26T15:10:17Z</time></trkpt><trkpt lat="44.014162293499666" lon="8.005002203730136"><ele>536.0</ele><time>2026-03-26T15:10:18Z</time></trkpt><trkpt lat="44.014058583391446" lon="8.00496641388451"><ele>534.8333333333333</ele><time>2026-03-26T15:10:19Z</time></trkpt><trkpt lat="44.01395645842895" lon="8.004969881451862"><ele>533.6666666666666</ele><time>2026-03-26T15:10:20Z</time></trkpt><trkpt lat="44.013867007124524" lon="8.004977654679978"><ele>532.5</ele><time>2026-03-26T15:10:21Z</time></trkpt><trkpt lat="44.0137883094087" lon="8.004974121119469"><ele>531.3333333333334</ele><time>2026-03-26T15:10:22Z</time></trkpt><trkpt lat="44.013711750225006" lon="8.004974591853031"><ele>530.1666666666667</ele><time>2026-03-26T15:10:24Z</time></trkpt><trkpt lat="44.01363667617823" lon="8.005058564019222"><ele>529.0</ele><time>2026-03-26T15:10:36Z</time></trkpt><trkpt lat="44.01358337508218" lon="8.005121013026528"><ele>531.5</ele><time>2026-03-26T15:10:37Z</time></trkpt><trkpt lat="44.01349189798981" lon="8.005226476209316"><ele>534.0</ele><time>2026-03-26T15:10:39Z</time></trkpt><trkpt lat="44.01338963255555" lon="8.005252347396633"><ele>536.5</ele><time>2026-03-26T15:10:41Z</time></trkpt><trkpt lat="44.0133339318481" lon="8.005208696224061"><ele>539.0</ele><time>2026-03-26T15:10:42Z</time></trkpt><trkpt lat="44.013277007309085" lon="8.005158392977785"><ele>541.5</ele><time>2026-03-26T15:10:43Z</time></trkpt><trkpt lat="44.013218409208896" lon="8.005109966460935"><ele>544.0</ele><time>2026-03-26T15:10:44Z</time></trkpt><trkpt lat="44.01314981380692" lon="8.005082503237418"><ele>545.7142857142857</ele><time>2026-03-26T15:10:45Z</time></trkpt><trkpt lat="44.013085778725284" lon="8.005068110101128"><ele>547.4285714285714</ele><time>2026-03-26T15:10:46Z</time></trkpt><trkpt lat="44.013014666825384" lon="8.005061690273694"><ele>549.1428571428571</ele><time>2026-03-26T15:10:47Z</time></trkpt><trkpt lat="44.01294287762314" lon="8.005062586969725"><ele>550.8571428571429</ele><time>2026-03-26T15:10:48Z</time></trkpt><trkpt lat="44.01287237678882" lon="8.005071086239802"><ele>552.5714285714286</ele><time>2026-03-26T15:10:49Z</time></trkpt><trkpt lat="44.01279491391076" lon="8.005089303185908"><ele>554.2857142857142</ele><time>2026-03-26T15:10:50Z</time></trkpt><trkpt lat="44.012730608556744" lon="8.005113609106054"><ele>556.0</ele><time>2026-03-26T15:10:51Z</time></trkpt><trkpt lat="44.012623007326425" lon="8.005164779115372"><ele>556.0</ele><time>2026-03-26T15:10:53Z</time></trkpt><trkpt lat="44.01255337013396" lon="8.005201774662906"><ele>556.0</ele><time>2026-03-26T15:10:54Z</time></trkpt><trkpt lat="44.01247854413721" lon="8.005232425795871"><ele>556.0</ele><time>2026-03-26T15:10:55Z</time></trkpt><trkpt lat="44.01241427531596" lon="8.005275195750079"><ele>556.0</ele><time>2026-03-26T15:10:56Z</time></trkpt><trkpt lat="44.01234205268341" lon="8.00534547120321"><ele>556.0</ele><time>2026-03-26T15:10:58Z</time></trkpt><trkpt lat="44.012217707863414" lon="8.005391565985791"><ele>556.0</ele><time>2026-03-26T15:11:08Z</time></trkpt><trkpt lat="44.01212243663671" lon="8.005396451337738"><ele>559.0</ele><time>2026-03-26T15:11:09Z</time></trkpt><trkpt lat="44.012023304361286" lon="8.005404527787734"><ele>562.0</ele><time>2026-03-26T15:11:10Z</time></trkpt><trkpt lat="44.01191973071327" lon="8.005417874302836"><ele>565.0</ele><time>2026-03-26T15:11:11Z</time></trkpt><trkpt lat="44.01181116392565" lon="8.005437382208212"><ele>568.0</ele><time>2026-03-26T15:11:12Z</time></trkpt><trkpt lat="44.01171727144658" lon="8.005483394057709"><ele>571.0</ele><time>2026-03-26T15:11:13Z</time></trkpt><trkpt lat="44.011659983249075" lon="8.005541065449016"><ele>567.0</ele><time>2026-03-26T15:11:14Z</time></trkpt><trkpt lat="44.011624452383344" lon="8.005618224597372"><ele>563.0</ele><time>2026-03-26T15:11:15Z</time></trkpt><trkpt lat="44.01157302539434" lon="8.005707159350242"><ele>559.0</ele><time>2026-03-26T15:11:16Z</time></trkpt><trkpt lat="44.01150786685753" lon="8.005756086527576"><ele>555.0</ele><time>2026-03-26T15:11:17Z</time></trkpt><trkpt lat="44.011423381326075" lon="8.005798443539527"><ele>551.0</ele><time>2026-03-26T15:11:18Z</time></trkpt><trkpt lat="44.01134885337067" lon="8.005828701530072"><ele>547.0</ele><time>2026-03-26T15:11:19Z</time></trkpt><trkpt lat="44.01125820498231" lon="8.005730498047688"><ele>547.0</ele><time>2026-03-26T15:11:21Z</time></trkpt><trkpt lat="44.01120721180186" lon="8.005636717228914"><ele>547.0</ele><time>2026-03-26T15:11:22Z</time></trkpt><trkpt lat="44.01116561794443" lon="8.005556929872032"><ele>547.0</ele><time>2026-03-26T15:11:23Z</time></trkpt><trkpt lat="44.011114930645014" lon="8.005341050214803"><ele>547.0</ele><time>2026-03-26T15:11:25Z</time></trkpt><trkpt lat="44.01107284609834" lon="8.005214498229861"><ele>547.0</ele><time>2026-03-26T15:11:26Z</time></trkpt><trkpt lat="44.01104897805428" lon="8.005097544618891"><ele>549.2</ele><time>2026-03-26T15:11:27Z</time></trkpt><trkpt lat="44.011096779711075" lon="8.004887252883409"><ele>551.4000000000001</ele><time>2026-03-26T15:11:29Z</time></trkpt><trkpt lat="44.01110159193993" lon="8.00478996179561"><ele>553.5999999999999</ele><time>2026-03-26T15:11:30Z</time></trkpt><trkpt lat="44.01110758434646" lon="8.004648275228769"><ele>555.8</ele><time>2026-03-26T15:11:31Z</time></trkpt><trkpt lat="44.01109393556882" lon="8.00451694652101"><ele>558.0</ele><time>2026-03-26T15:11:32Z</time></trkpt><trkpt lat="44.011066925945975" lon="8.004379473256062"><ele>558.0</ele><time>2026-03-26T15:11:33Z</time></trkpt><trkpt lat="44.01104302458651" lon="8.004229933439099"><ele>558.0</ele><time>2026-03-26T15:11:34Z</time></trkpt><trkpt lat="44.011018643822716" lon="8.004072483155415"><ele>558.0</ele><time>2026-03-26T15:11:35Z</time></trkpt><trkpt lat="44.010998720893085" lon="8.003922491972999"><ele>558.0</ele><time>2026-03-26T15:11:36Z</time></trkpt><trkpt lat="44.010976731806466" lon="8.003813005572503"><ele>558.0</ele><time>2026-03-26T15:11:37Z</time></trkpt><trkpt lat="44.01095476171981" lon="8.003705924045706"><ele>558.6666666666666</ele><time>2026-03-26T15:11:38Z</time></trkpt><trkpt lat="44.010924398172314" lon="8.003587896844397"><ele>559.3333333333334</ele><time>2026-03-26T15:11:39Z</time></trkpt><trkpt lat="44.010887083377824" lon="8.00345654110944"><ele>560.0</ele><time>2026-03-26T15:11:40Z</time></trkpt><trkpt lat="44.010819867917" lon="8.00337074170462"><ele>560.6666666666667</ele><time>2026-03-26T15:11:41Z</time></trkpt><trkpt lat="44.0107592565998" lon="8.003297458492806"><ele>561.3333333333334</ele><time>2026-03-26T15:11:42Z</time></trkpt><trkpt lat="44.01072826534125" lon="8.003190746192441"><ele>562.0</ele><time>2026-03-26T15:11:43Z</time></trkpt><trkpt lat="44.01073686217722" lon="8.00306637536333"><ele>564.6666666666667</ele><time>2026-03-26T15:11:44Z</time></trkpt><trkpt lat="44.010738693501246" lon="8.002936035251446"><ele>567.3333333333334</ele><time>2026-03-26T15:11:45Z</time></trkpt><trkpt lat="44.01071541874906" lon="8.002808226653057"><ele>570.0</ele><time>2026-03-26T15:11:46Z</time></trkpt><trkpt lat="44.01069580679618" lon="8.002717646873151"><ele>572.6666666666666</ele><time>2026-03-26T15:11:47Z</time></trkpt><trkpt lat="44.01066187903959" lon="8.002633013499882"><ele>575.3333333333333</ele><time>2026-03-26T15:11:50Z</time></trkpt><trkpt lat="44.01054958902331" lon="8.002574411464684"><ele>578.0</ele><time>2026-03-26T15:11:52Z</time></trkpt><trkpt lat="44.01048876861521" lon="8.002503694864327"><ele>576.1666666666666</ele><time>2026-03-26T15:11:53Z</time></trkpt><trkpt lat="44.01042665944094" lon="8.00241111406476"><ele>574.3333333333333</ele><time>2026-03-26T15:11:54Z</time></trkpt><trkpt lat="44.01036259768918" lon="8.002331325993046"><ele>572.5</ele><time>2026-03-26T15:11:55Z</time></trkpt><trkpt lat="44.010304764383854" lon="8.002290006785246"><ele>570.6666666666666</ele><time>2026-03-26T15:11:56Z</time></trkpt><trkpt lat="44.01022929876522" lon="8.002269985375339"><ele>568.8333333333334</ele><time>2026-03-26T15:11:57Z</time></trkpt><trkpt lat="44.010154327733375" lon="8.002277855161637"><ele>567.0</ele><time>2026-03-26T15:11:58Z</time></trkpt><trkpt lat="44.010069575095315" lon="8.002289923609435"><ele>571.4</ele><time>2026-03-26T15:11:59Z</time></trkpt><trkpt lat="44.00998049625077" lon="8.002285993468737"><ele>575.8000000000001</ele><time>2026-03-26T15:12:00Z</time></trkpt><trkpt lat="44.00991397645221" lon="8.002258494398554"><ele>580.2</ele><time>2026-03-26T15:12:01Z</time></trkpt><trkpt lat="44.00982866805498" lon="8.002174980127284"><ele>584.6</ele><time>2026-03-26T15:12:03Z</time></trkpt><trkpt lat="44.00980012656773" lon="8.002093754695688"><ele>589.0</ele><time>2026-03-26T15:12:05Z</time></trkpt><trkpt lat="44.009710765378" lon="8.001941497625467"><ele>589.0</ele><time>2026-03-26T15:12:07Z</time></trkpt><trkpt lat="44.009648417811604" lon="8.00185443763876"><ele>589.0</ele><time>2026-03-26T15:12:08Z</time></trkpt><trkpt lat="44.00957989308085" lon="8.001796842271562"><ele>589.0</ele><time>2026-03-26T15:12:09Z</time></trkpt><trkpt lat="44.00945767181429" lon="8.001766544978038"><ele>589.0</ele><time>2026-03-26T15:12:11Z</time></trkpt><trkpt lat="44.00934221302153" lon="8.001732110617674"><ele>589.0</ele><time>2026-03-26T15:12:13.001Z</time></trkpt><trkpt lat="44.0092643010934" lon="8.001729161007237"><ele>589.0</ele><time>2026-03-26T15:12:14.001Z</time></trkpt><trkpt lat="44.00918489423692" lon="8.001734741316081"><ele>589.0</ele><time>2026-03-26T15:12:15.001Z</time></trkpt><trkpt lat="44.009115227487584" lon="8.001747142426556"><ele>589.0</ele><time>2026-03-26T15:12:16.001Z</time></trkpt><trkpt lat="44.00902816628696" lon="8.001722472298168"><ele>589.0</ele><time>2026-03-26T15:12:17.001Z</time></trkpt><trkpt lat="44.00893140396678" lon="8.001683052857736"><ele>589.0</ele><time>2026-03-26T15:12:18.001Z</time></trkpt><trkpt lat="44.008865005107936" lon="8.001645811144524"><ele>589.0</ele><time>2026-03-26T15:12:19.001Z</time></trkpt><trkpt lat="44.00879450242786" lon="8.001614371800857"><ele>587.6</ele><time>2026-03-26T15:12:20.001Z</time></trkpt><trkpt lat="44.00872299997868" lon="8.001604837700798"><ele>586.2</ele><time>2026-03-26T15:12:21.001Z</time></trkpt><trkpt lat="44.00860462737218" lon="8.001621759538411"><ele>584.8000000000001</ele><time>2026-03-26T15:12:23.001Z</time></trkpt><trkpt lat="44.00850566941603" lon="8.001699844479226"><ele>583.4</ele><time>2026-03-26T15:12:25.001Z</time></trkpt><trkpt lat="44.00845142983399" lon="8.001785027026324"><ele>582.0</ele><time>2026-03-26T15:12:28.001Z</time></trkpt><trkpt lat="44.00836182597715" lon="8.001828440599002"><ele>586.0</ele><time>2026-03-26T15:13:36Z</time></trkpt><trkpt lat="44.00828692950333" lon="8.001842600826256"><ele>590.0</ele><time>2026-03-26T15:13:37Z</time></trkpt><trkpt lat="44.008205742227226" lon="8.001845557789595"><ele>594.0</ele><time>2026-03-26T15:13:38Z</time></trkpt><trkpt lat="44.00813566960695" lon="8.001850342292599"><ele>598.0</ele><time>2026-03-26T15:13:39Z</time></trkpt><trkpt lat="44.00806708338265" lon="8.00186702553949"><ele>602.0</ele><time>2026-03-26T15:13:40Z</time></trkpt><trkpt lat="44.00800167977306" lon="8.001915733422207"><ele>606.0</ele><time>2026-03-26T15:13:41Z</time></trkpt><trkpt lat="44.00794048519684" lon="8.00195288141017"><ele>610.0</ele><time>2026-03-26T15:13:42Z</time></trkpt><trkpt lat="44.007824163029696" lon="8.001962847713427"><ele>610.0</ele><time>2026-03-26T15:13:44Z</time></trkpt><trkpt lat="44.0077526433404" lon="8.001942383421442"><ele>610.0</ele><time>2026-03-26T15:13:45Z</time></trkpt><trkpt lat="44.0076347382884" lon="8.001874217264294"><ele>610.0</ele><time>2026-03-26T15:13:47Z</time></trkpt><trkpt lat="44.00757519515967" lon="8.001837349985584"><ele>610.0</ele><time>2026-03-26T15:13:48Z</time></trkpt><trkpt lat="44.00748170846053" lon="8.001727688223799"><ele>610.0</ele><time>2026-03-26T15:13:50Z</time></trkpt><trkpt lat="44.00741923621064" lon="8.00165433269732"><ele>613.6666666666667</ele><time>2026-03-26T15:13:51Z</time></trkpt><trkpt lat="44.00734981105162" lon="8.001585106670346"><ele>617.3333333333334</ele><time>2026-03-26T15:13:52Z</time></trkpt><trkpt lat="44.00725135763973" lon="8.001543140638656"><ele>621.0</ele><time>2026-03-26T15:13:54Z</time></trkpt><trkpt lat="44.00718160239772" lon="8.001536595221413"><ele>624.6666666666666</ele><time>2026-03-26T15:13:55Z</time></trkpt><trkpt lat="44.00709564751846" lon="8.001531408901144"><ele>628.3333333333333</ele><time>2026-03-26T15:13:56Z</time></trkpt><trkpt lat="44.007019408892944" lon="8.00151362485701"><ele>632.0</ele><time>2026-03-26T15:13:57Z</time></trkpt><trkpt lat="44.006913485048884" lon="8.001504472997352"><ele>632.0</ele><time>2026-03-26T15:13:58Z</time></trkpt><trkpt lat="44.00682680717028" lon="8.001518966938171"><ele>632.0</ele><time>2026-03-26T15:13:59Z</time></trkpt><trkpt lat="44.0067703743064" lon="8.001573861218011"><ele>632.0</ele><time>2026-03-26T15:14:00Z</time></trkpt><trkpt lat="44.00672646816833" lon="8.001651354875168"><ele>632.0</ele><time>2026-03-26T15:14:01Z</time></trkpt><trkpt lat="44.00669511786592" lon="8.001745624193598"><ele>632.0</ele><time>2026-03-26T15:14:02Z</time></trkpt><trkpt lat="44.0066622652933" lon="8.001851063637595"><ele>632.0</ele><time>2026-03-26T15:14:03Z</time></trkpt><trkpt lat="44.006628739464695" lon="8.0019502285608"><ele>632.6</ele><time>2026-03-26T15:14:04Z</time></trkpt><trkpt lat="44.006566527237375" lon="8.002031740166489"><ele>633.2</ele><time>2026-03-26T15:14:05Z</time></trkpt><trkpt lat="44.00647725925064" lon="8.002104608178849"><ele>633.8</ele><time>2026-03-26T15:14:06.001Z</time></trkpt><trkpt lat="44.00637938524837" lon="8.00215643745134"><ele>634.4</ele><time>2026-03-26T15:14:07.001Z</time></trkpt><trkpt lat="44.00628758411382" lon="8.002191852724525"><ele>635.0</ele><time>2026-03-26T15:14:08.001Z</time></trkpt><trkpt lat="44.00620902572381" lon="8.00220588129319"><ele>635.0</ele><time>2026-03-26T15:14:09.001Z</time></trkpt><trkpt lat="44.006109346991416" lon="8.002097434908755"><ele>635.0</ele><time>2026-03-26T15:14:11.001Z</time></trkpt><trkpt lat="44.006070157511544" lon="8.002012185186224"><ele>635.0</ele><time>2026-03-26T15:14:12.001Z</time></trkpt><trkpt lat="44.00609700236556" lon="8.001919333872936"><ele>635.0</ele><time>2026-03-26T15:14:16.001Z</time></trkpt><trkpt lat="44.00616380617789" lon="8.00194448918967"><ele>635.0</ele><time>2026-03-26T15:14:42.001Z</time></trkpt><trkpt lat="44.006227825478376" lon="8.002013582701244"><ele>635.0</ele><time>2026-03-26T15:14:43.001Z</time></trkpt><trkpt lat="44.00636140974371" lon="8.001992945586204"><ele>635.0</ele><time>2026-03-26T15:14:45.001Z</time></trkpt><trkpt lat="44.00644229015715" lon="8.001932333241626"><ele>635.0</ele><time>2026-03-26T15:14:46.001Z</time></trkpt><trkpt lat="44.00652145555396" lon="8.001841577413009"><ele>635.0</ele><time>2026-03-26T15:14:47.001Z</time></trkpt><trkpt lat="44.006584863107165" lon="8.001727898820912"><ele>635.0</ele><time>2026-03-26T15:14:48.001Z</time></trkpt><trkpt lat="44.0066260438796" lon="8.001598639652064"><ele>635.0</ele><time>2026-03-26T15:14:49.001Z</time></trkpt><trkpt lat="44.006669637459794" lon="8.001441334156786"><ele>634.4</ele><time>2026-03-26T15:14:50.001Z</time></trkpt><trkpt lat="44.00672720676073" lon="8.00129674691258"><ele>633.8</ele><time>2026-03-26T15:14:51.001Z</time></trkpt><trkpt lat="44.00678612795399" lon="8.001206052361816"><ele>633.2</ele><time>2026-03-26T15:14:52.001Z</time></trkpt><trkpt lat="44.00683062593129" lon="8.00112727634874"><ele>632.6</ele><time>2026-03-26T15:14:53.001Z</time></trkpt><trkpt lat="44.006870075517526" lon="8.00100100204804"><ele>632.0</ele><time>2026-03-26T15:14:55.001Z</time></trkpt><trkpt lat="44.006794193478406" lon="8.00093799803716"><ele>632.0</ele><time>2026-03-26T15:18:46.001Z</time></trkpt><trkpt lat="44.00668962583128" lon="8.000840466976994"><ele>632.0</ele><time>2026-03-26T15:18:48.001Z</time></trkpt><trkpt lat="44.00661507136211" lon="8.000791805211989"><ele>632.0</ele><time>2026-03-26T15:18:49.001Z</time></trkpt><trkpt lat="44.00653347712246" lon="8.000739888336023"><ele>632.0</ele><time>2026-03-26T15:18:50.001Z</time></trkpt><trkpt lat="44.00644019882247" lon="8.00065269853451"><ele>632.0</ele><time>2026-03-26T15:18:51.001Z</time></trkpt><trkpt lat="44.006363211754426" lon="8.000545143497797"><ele>636.2</ele><time>2026-03-26T15:18:52.001Z</time></trkpt><trkpt lat="44.006312278510265" lon="8.000414455907197"><ele>640.4000000000001</ele><time>2026-03-26T15:18:53.001Z</time></trkpt><trkpt lat="44.006296556108786" lon="8.000276089403714"><ele>644.5999999999999</ele><time>2026-03-26T15:18:54.001Z</time></trkpt><trkpt lat="44.006291428800985" lon="8.000169217892513"><ele>648.8</ele><time>2026-03-26T15:18:55.001Z</time></trkpt><trkpt lat="44.00624564155623" lon="8.000052120917385"><ele>653.0</ele><time>2026-03-26T15:18:57.001Z</time></trkpt><trkpt lat="44.006180553022446" lon="7.999978004476728"><ele>653.0</ele><time>2026-03-26T15:19:01.001Z</time></trkpt><trkpt lat="44.006129350170305" lon="7.999926321655868"><ele>653.0</ele><time>2026-03-26T15:19:02.001Z</time></trkpt><trkpt lat="44.00605211848244" lon="7.999863682402881"><ele>653.0</ele><time>2026-03-26T15:19:03.001Z</time></trkpt><trkpt lat="44.005966869683796" lon="7.999781047296071"><ele>653.0</ele><time>2026-03-26T15:19:04.001Z</time></trkpt><trkpt lat="44.00587281930483" lon="7.999656682498552"><ele>653.0</ele><time>2026-03-26T15:19:05.001Z</time></trkpt><trkpt lat="44.00578904133636" lon="7.999497738374717"><ele>662.0</ele><time>2026-03-26T15:19:06.001Z</time></trkpt><trkpt lat="44.00572672099414" lon="7.999319657690053"><ele>671.0</ele><time>2026-03-26T15:19:07.001Z</time></trkpt><trkpt lat="44.0056600415092" lon="7.999140774865528"><ele>680.0</ele><time>2026-03-26T15:19:08.001Z</time></trkpt><trkpt lat="44.00556875476917" lon="7.998980971510671"><ele>689.0</ele><time>2026-03-26T15:19:09.001Z</time></trkpt><trkpt lat="44.00545137651273" lon="7.998825010424003"><ele>689.0</ele><time>2026-03-26T15:19:10.001Z</time></trkpt><trkpt lat="44.00534277290527" lon="7.998644957822411"><ele>689.0</ele><time>2026-03-26T15:19:11.001Z</time></trkpt><trkpt lat="44.00524966507611" lon="7.9984535716637"><ele>689.0</ele><time>2026-03-26T15:19:12.001Z</time></trkpt><trkpt lat="44.00517543941603" lon="7.998287191475497"><ele>685.4000000000001</ele><time>2026-03-26T15:19:13.001Z</time></trkpt><trkpt lat="44.005116395741965" lon="7.998144687796281"><ele>681.8</ele><time>2026-03-26T15:19:14.001Z</time></trkpt><trkpt lat="44.005097440395424" lon="7.998029751834372"><ele>678.2</ele><time>2026-03-26T15:19:15.001Z</time></trkpt><trkpt lat="44.00511299220743" lon="7.997889294605258"><ele>674.5999999999999</ele><time>2026-03-26T15:19:16.001Z</time></trkpt><trkpt lat="44.005169973542934" lon="7.997739559718298"><ele>671.0</ele><time>2026-03-26T15:19:17.001Z</time></trkpt><trkpt lat="44.00525891299796" lon="7.997566962447111"><ele>673.0</ele><time>2026-03-26T15:19:18.001Z</time></trkpt><trkpt lat="44.005351773159475" lon="7.997376255205102"><ele>675.0</ele><time>2026-03-26T15:19:19.001Z</time></trkpt><trkpt lat="44.00543763176729" lon="7.99717560903351"><ele>677.0</ele><time>2026-03-26T15:19:20.001Z</time></trkpt><trkpt lat="44.00552428114246" lon="7.996952174557463"><ele>677.0</ele><time>2026-03-26T15:19:21.001Z</time></trkpt><trkpt lat="44.00561284645233" lon="7.996752956563691"><ele>677.0</ele><time>2026-03-26T15:19:22.001Z</time></trkpt><trkpt lat="44.00572029190342" lon="7.99656335927385"><ele>677.0</ele><time>2026-03-26T15:19:23.001Z</time></trkpt><trkpt lat="44.00585225554855" lon="7.99639147074367"><ele>669.0</ele><time>2026-03-26T15:19:24.001Z</time></trkpt><trkpt lat="44.00599955531076" lon="7.996234325986362"><ele>661.0</ele><time>2026-03-26T15:19:25.001Z</time></trkpt><trkpt lat="44.006139878940715" lon="7.9961011342460715"><ele>653.0</ele><time>2026-03-26T15:19:26.001Z</time></trkpt><trkpt lat="44.006253480284826" lon="7.995990964524723"><ele>653.0</ele><time>2026-03-26T15:19:27.001Z</time></trkpt><trkpt lat="44.00632358682985" lon="7.995898843213118"><ele>653.0</ele><time>2026-03-26T15:19:28.001Z</time></trkpt><trkpt lat="44.006351758826234" lon="7.995789398714411"><ele>653.0</ele><time>2026-03-26T15:19:29.001Z</time></trkpt><trkpt lat="44.00632272296255" lon="7.995649863831194"><ele>653.0</ele><time>2026-03-26T15:19:30.001Z</time></trkpt><trkpt lat="44.00631192735209" lon="7.99546285727166"><ele>653.0</ele><time>2026-03-26T15:19:31.001Z</time></trkpt><trkpt lat="44.00628697483251" lon="7.995262703733248"><ele>663.0</ele><time>2026-03-26T15:19:32Z</time></trkpt><trkpt lat="44.00627535578947" lon="7.9950414169142885"><ele>673.0</ele><time>2026-03-26T15:19:33Z</time></trkpt><trkpt lat="44.00626473216069" lon="7.994808613648553"><ele>683.0</ele><time>2026-03-26T15:19:34Z</time></trkpt><trkpt lat="44.00628117884465" lon="7.994587740444639"><ele>689.6666666666666</ele><time>2026-03-26T15:19:35Z</time></trkpt><trkpt lat="44.006338026893516" lon="7.99438394170162"><ele>696.3333333333334</ele><time>2026-03-26T15:19:36Z</time></trkpt><trkpt lat="44.00642661364857" lon="7.994179458349145"><ele>703.0</ele><time>2026-03-26T15:19:37Z</time></trkpt><trkpt lat="44.006515625444685" lon="7.993969907517024"><ele>706.3333333333334</ele><time>2026-03-26T15:19:38Z</time></trkpt><trkpt lat="44.00658922095206" lon="7.993744130670024"><ele>709.6666666666666</ele><time>2026-03-26T15:19:39Z</time></trkpt><trkpt lat="44.00664756764445" lon="7.993518241859188"><ele>713.0</ele><time>2026-03-26T15:19:40Z</time></trkpt><trkpt lat="44.00670134986651" lon="7.993273475714886"><ele>700.3333333333333</ele><time>2026-03-26T15:19:41Z</time></trkpt><trkpt lat="44.00674264617239" lon="7.993032380286907"><ele>687.6666666666666</ele><time>2026-03-26T15:19:42Z</time></trkpt><trkpt lat="44.00675443777273" lon="7.992780305888007"><ele>675.0</ele><time>2026-03-26T15:19:43Z</time></trkpt><trkpt lat="44.00674579659165" lon="7.992527345055182"><ele>679.0</ele><time>2026-03-26T15:19:44Z</time></trkpt><trkpt lat="44.00673373858856" lon="7.9922817999951485"><ele>683.0</ele><time>2026-03-26T15:19:45Z</time></trkpt><trkpt lat="44.00672693487295" lon="7.992068533034783"><ele>687.0</ele><time>2026-03-26T15:19:46Z</time></trkpt><trkpt lat="44.00673761666973" lon="7.991855127366266"><ele>685.5</ele><time>2026-03-26T15:19:47Z</time></trkpt><trkpt lat="44.00677162486656" lon="7.991664712629223"><ele>684.0</ele><time>2026-03-26T15:19:48Z</time></trkpt><trkpt lat="44.00681854164106" lon="7.991505827422442"><ele>682.5</ele><time>2026-03-26T15:19:49Z</time></trkpt><trkpt lat="44.006889494383934" lon="7.991361564857252"><ele>681.0</ele><time>2026-03-26T15:19:50Z</time></trkpt><trkpt lat="44.00696886176057" lon="7.991250742310717"><ele>681.0</ele><time>2026-03-26T15:19:51Z</time></trkpt><trkpt lat="44.00704868569794" lon="7.99117196041699"><ele>681.0</ele><time>2026-03-26T15:19:52Z</time></trkpt><trkpt lat="44.007115270898936" lon="7.991109933106479"><ele>681.0</ele><time>2026-03-26T15:19:53Z</time></trkpt><trkpt lat="44.007174736753534" lon="7.9910180417321595"><ele>681.0</ele><time>2026-03-26T15:19:55Z</time></trkpt><trkpt lat="44.00726054792141" lon="7.991054943440018"><ele>681.0</ele><time>2026-03-26T15:19:57Z</time></trkpt><trkpt lat="44.007331009146114" lon="7.991082356508563"><ele>681.0</ele><time>2026-03-26T15:20:23Z</time></trkpt><trkpt lat="44.007405308990734" lon="7.991082973224802"><ele>677.0</ele><time>2026-03-26T15:20:24Z</time></trkpt><trkpt lat="44.007504759053745" lon="7.991064883795174"><ele>673.0</ele><time>2026-03-26T15:20:25Z</time></trkpt><trkpt lat="44.00762306528298" lon="7.991052717534688"><ele>669.0</ele><time>2026-03-26T15:20:26Z</time></trkpt><trkpt lat="44.00776114933591" lon="7.9910320839228515"><ele>665.0</ele><time>2026-03-26T15:20:27Z</time></trkpt><trkpt lat="44.00792150241356" lon="7.991011246945624"><ele>665.0</ele><time>2026-03-26T15:20:28Z</time></trkpt><trkpt lat="44.00809340828856" lon="7.990973827703333"><ele>665.0</ele><time>2026-03-26T15:20:29Z</time></trkpt><trkpt lat="44.008264511705704" lon="7.990918192664251"><ele>665.0</ele><time>2026-03-26T15:20:30Z</time></trkpt><trkpt lat="44.00843635071212" lon="7.990826385365029"><ele>670.6666666666666</ele><time>2026-03-26T15:20:31.001Z</time></trkpt><trkpt lat="44.008607323567" lon="7.9907229762828695"><ele>676.3333333333334</ele><time>2026-03-26T15:20:32.001Z</time></trkpt><trkpt lat="44.00878171664133" lon="7.990640157126498"><ele>682.0</ele><time>2026-03-26T15:20:33.001Z</time></trkpt><trkpt lat="44.00895523201579" lon="7.990600052160719"><ele>682.0</ele><time>2026-03-26T15:20:34.001Z</time></trkpt><trkpt lat="44.00910636834665" lon="7.990584950209281"><ele>682.0</ele><time>2026-03-26T15:20:35.001Z</time></trkpt><trkpt lat="44.00924053832694" lon="7.990543966909282"><ele>682.0</ele><time>2026-03-26T15:20:36.001Z</time></trkpt><trkpt lat="44.00937296833744" lon="7.990438923584642"><ele>682.0</ele><time>2026-03-26T15:20:37.001Z</time></trkpt><trkpt lat="44.00950742533929" lon="7.990285542054341"><ele>686.0</ele><time>2026-03-26T15:20:38.001Z</time></trkpt><trkpt lat="44.009650973498296" lon="7.990103818628322"><ele>690.0</ele><time>2026-03-26T15:20:39.001Z</time></trkpt><trkpt lat="44.00979616590295" lon="7.989957165808512"><ele>694.0</ele><time>2026-03-26T15:20:40.001Z</time></trkpt><trkpt lat="44.00993203948626" lon="7.989872251135451"><ele>689.5</ele><time>2026-03-26T15:20:41.001Z</time></trkpt><trkpt lat="44.01007794739934" lon="7.989864975603206"><ele>685.0</ele><time>2026-03-26T15:20:42.001Z</time></trkpt><trkpt lat="44.01022018249146" lon="7.989892367045289"><ele>680.5</ele><time>2026-03-26T15:20:43.001Z</time></trkpt><trkpt lat="44.01035886133921" lon="7.989952737971108"><ele>676.0</ele><time>2026-03-26T15:20:44.001Z</time></trkpt><trkpt lat="44.01051302501033" lon="7.990003469837572"><ele>676.0</ele><time>2026-03-26T15:20:45.001Z</time></trkpt><trkpt lat="44.0106202459966" lon="7.99004528022689"><ele>676.0</ele><time>2026-03-26T15:20:46.001Z</time></trkpt><trkpt lat="44.010701092075934" lon="7.990021302583491"><ele>676.0</ele><time>2026-03-26T15:20:47.001Z</time></trkpt><trkpt lat="44.010778087264356" lon="7.989960380080195"><ele>676.0</ele><time>2026-03-26T15:20:48.001Z</time></trkpt><trkpt lat="44.01082967378452" lon="7.9898482716410975"><ele>676.0</ele><time>2026-03-26T15:20:49.001Z</time></trkpt><trkpt lat="44.010851695463984" lon="7.9896915803572455"><ele>676.0</ele><time>2026-03-26T15:20:50.001Z</time></trkpt><trkpt lat="44.01083949120881" lon="7.9894990187037775"><ele>676.0</ele><time>2026-03-26T15:20:51.001Z</time></trkpt><trkpt lat="44.01079743021539" lon="7.989294162948743"><ele>676.0</ele><time>2026-03-26T15:20:52.001Z</time></trkpt><trkpt lat="44.010736406564" lon="7.989092782604212"><ele>676.0</ele><time>2026-03-26T15:20:53.001Z</time></trkpt><trkpt lat="44.010672430491034" lon="7.988891979755511"><ele>679.75</ele><time>2026-03-26T15:20:54.001Z</time></trkpt><trkpt lat="44.01064551859664" lon="7.9887108361351284"><ele>683.5</ele><time>2026-03-26T15:20:55.001Z</time></trkpt><trkpt lat="44.0106568571754" lon="7.988547296954019"><ele>687.25</ele><time>2026-03-26T15:20:56.001Z</time></trkpt><trkpt lat="44.010700806925996" lon="7.988343824181013"><ele>691.0</ele><time>2026-03-26T15:20:57.001Z</time></trkpt><trkpt lat="44.01077005524545" lon="7.988124927976515"><ele>682.5</ele><time>2026-03-26T15:20:58.001Z</time></trkpt><trkpt lat="44.010839600892815" lon="7.987928292127675"><ele>674.0</ele><time>2026-03-26T15:20:59.001Z</time></trkpt><trkpt lat="44.010886387749295" lon="7.987778957934789"><ele>665.5</ele><time>2026-03-26T15:21:00.001Z</time></trkpt><trkpt lat="44.01088726692121" lon="7.9876178205299295"><ele>657.0</ele><time>2026-03-26T15:21:01.001Z</time></trkpt><trkpt lat="44.0108512830636" lon="7.987444631445154"><ele>664.6666666666666</ele><time>2026-03-26T15:21:02.001Z</time></trkpt><trkpt lat="44.01079771333311" lon="7.987237007008323"><ele>672.3333333333333</ele><time>2026-03-26T15:21:03.001Z</time></trkpt><trkpt lat="44.01077947728902" lon="7.987016894939668"><ele>680.0</ele><time>2026-03-26T15:21:04.001Z</time></trkpt><trkpt lat="44.0108086885173" lon="7.986769765239667"><ele>670.3333333333333</ele><time>2026-03-26T15:21:05.001Z</time></trkpt><trkpt lat="44.01084621347308" lon="7.986499968342539"><ele>660.6666666666666</ele><time>2026-03-26T15:21:06.001Z</time></trkpt><trkpt lat="44.010882634609466" lon="7.986273925031938"><ele>651.0</ele><time>2026-03-26T15:21:07.001Z</time></trkpt><trkpt lat="44.010927327089625" lon="7.986107424439808"><ele>651.0</ele><time>2026-03-26T15:21:08.001Z</time></trkpt><trkpt lat="44.01097886711012" lon="7.986010539679465"><ele>651.0</ele><time>2026-03-26T15:21:09.001Z</time></trkpt><trkpt lat="44.01103551815871" lon="7.985970215878378"><ele>651.0</ele><time>2026-03-26T15:21:10.001Z</time></trkpt><trkpt lat="44.01110526024438" lon="7.985932068309904"><ele>651.0</ele><time>2026-03-26T15:21:31.001Z</time></trkpt><trkpt lat="44.011176211973975" lon="7.985864118912199"><ele>651.0</ele><time>2026-03-26T15:21:33.001Z</time></trkpt><trkpt lat="44.01124280087889" lon="7.985796330882484"><ele>651.0</ele><time>2026-03-26T15:21:34.001Z</time></trkpt><trkpt lat="44.0113243945126" lon="7.985698476931545"><ele>653.1666666666666</ele><time>2026-03-26T15:21:36.001Z</time></trkpt><trkpt lat="44.011384223347854" lon="7.985600691713013"><ele>655.3333333333334</ele><time>2026-03-26T15:21:39.001Z</time></trkpt><trkpt lat="44.011437962789515" lon="7.985506643568677"><ele>657.5</ele><time>2026-03-26T15:21:41.001Z</time></trkpt><trkpt lat="44.011493136737144" lon="7.985403181776686"><ele>659.6666666666667</ele><time>2026-03-26T15:21:43.001Z</time></trkpt><trkpt lat="44.01155619125003" lon="7.985298936604085"><ele>661.8333333333334</ele><time>2026-03-26T15:21:45.001Z</time></trkpt><trkpt lat="44.011606996878825" lon="7.985229082019001"><ele>664.0</ele><time>2026-03-26T15:21:47.001Z</time></trkpt><trkpt lat="44.01123974957482" lon="7.9847580422314826"><ele>665.6</ele><time>2026-03-26T15:21:51.001Z</time></trkpt><trkpt lat="44.01113138166059" lon="7.984812772824877"><ele>667.2</ele><time>2026-03-26T15:21:53.001Z</time></trkpt><trkpt lat="44.0110685320017" lon="7.984868576309878"><ele>668.8000000000001</ele><time>2026-03-26T15:21:55.001Z</time></trkpt><trkpt lat="44.01098737508875" lon="7.984888866351234"><ele>670.4000000000001</ele><time>2026-03-26T15:21:57Z</time></trkpt><trkpt lat="44.01095178323233" lon="7.984771243185289"><ele>672.0</ele><time>2026-03-26T15:21:59Z</time></trkpt><trkpt lat="44.0110060152758" lon="7.984631911049174"><ele>672.0</ele><time>2026-03-26T15:22:01Z</time></trkpt><trkpt lat="44.011059552227" lon="7.984581916171452"><ele>672.0</ele><time>2026-03-26T15:22:02Z</time></trkpt><trkpt lat="44.011118390392305" lon="7.984523880592237"><ele>672.0</ele><time>2026-03-26T15:22:03Z</time></trkpt><trkpt lat="44.011184060224345" lon="7.984469209776462"><ele>672.0</ele><time>2026-03-26T15:22:04Z</time></trkpt><trkpt lat="44.011245937113586" lon="7.984412605622269"><ele>672.0</ele><time>2026-03-26T15:22:05Z</time></trkpt><trkpt lat="44.01135809992345" lon="7.984280854765225"><ele>672.0</ele><time>2026-03-26T15:22:07Z</time></trkpt><trkpt lat="44.01143675593761" lon="7.9842573194517605"><ele>672.0</ele><time>2026-03-26T15:22:08Z</time></trkpt><trkpt lat="44.011531402849386" lon="7.984262001543368"><ele>672.0</ele><time>2026-03-26T15:22:09Z</time></trkpt><trkpt lat="44.01162675696744" lon="7.984263002681819"><ele>672.0</ele><time>2026-03-26T15:22:10Z</time></trkpt><trkpt lat="44.01170479207589" lon="7.984235663174"><ele>672.0</ele><time>2026-03-26T15:22:11Z</time></trkpt><trkpt lat="44.01177151130705" lon="7.984191680194617"><ele>672.0</ele><time>2026-03-26T15:22:12Z</time></trkpt><trkpt lat="44.01182643119036" lon="7.984119104973654"><ele>672.0</ele><time>2026-03-26T15:22:13Z</time></trkpt><trkpt lat="44.011869177534294" lon="7.984025039641957"><ele>672.8</ele><time>2026-03-26T15:22:14Z</time></trkpt><trkpt lat="44.01192021004219" lon="7.983906609924016"><ele>673.6</ele><time>2026-03-26T15:22:15Z</time></trkpt><trkpt lat="44.01196144376871" lon="7.9837919458064635"><ele>674.4</ele><time>2026-03-26T15:22:17Z</time></trkpt><trkpt lat="44.01196867279007" lon="7.983687891173458"><ele>675.1999999999999</ele><time>2026-03-26T15:22:18Z</time></trkpt><trkpt lat="44.01197089906644" lon="7.983519280066884"><ele>676.0</ele><time>2026-03-26T15:22:20Z</time></trkpt><trkpt lat="44.01200434088123" lon="7.983403580437807"><ele>678.3333333333334</ele><time>2026-03-26T15:22:21Z</time></trkpt><trkpt lat="44.012036339871806" lon="7.983322408875908"><ele>680.6666666666667</ele><time>2026-03-26T15:22:22Z</time></trkpt><trkpt lat="44.012074338034445" lon="7.983241403588109"><ele>683.0</ele><time>2026-03-26T15:22:23Z</time></trkpt><trkpt lat="44.01215625697179" lon="7.983190764927558"><ele>685.3333333333334</ele><time>2026-03-26T15:22:24Z</time></trkpt><trkpt lat="44.01221552914245" lon="7.98313121875304"><ele>687.6666666666666</ele><time>2026-03-26T15:22:25Z</time></trkpt><trkpt lat="44.0122871971422" lon="7.982969513279984"><ele>690.0</ele><time>2026-03-26T15:22:27Z</time></trkpt><trkpt lat="44.01232525218714" lon="7.982864354061074"><ele>690.0</ele><time>2026-03-26T15:22:28Z</time></trkpt><trkpt lat="44.01237950568467" lon="7.98281004801533"><ele>690.0</ele><time>2026-03-26T15:22:29Z</time></trkpt><trkpt lat="44.01243921308288" lon="7.9827402103760665"><ele>690.0</ele><time>2026-03-26T15:22:30Z</time></trkpt><trkpt lat="44.01252896496598" lon="7.9826919425099305"><ele>690.0</ele><time>2026-03-26T15:22:31Z</time></trkpt><trkpt lat="44.01261756853524" lon="7.982655846786119"><ele>690.0</ele><time>2026-03-26T15:22:32Z</time></trkpt><trkpt lat="44.01271377538483" lon="7.982620553737736"><ele>690.0</ele><time>2026-03-26T15:22:33Z</time></trkpt><trkpt lat="44.012769170667724" lon="7.982546108393212"><ele>691.6</ele><time>2026-03-26T15:22:35Z</time></trkpt><trkpt lat="44.012812905603695" lon="7.982472876031731"><ele>693.2</ele><time>2026-03-26T15:22:36Z</time></trkpt><trkpt lat="44.01290160783649" lon="7.982367875749924"><ele>694.8</ele><time>2026-03-26T15:22:38Z</time></trkpt><trkpt lat="44.01297220597858" lon="7.982305734438554"><ele>696.4</ele><time>2026-03-26T15:22:39Z</time></trkpt><trkpt lat="44.01308399332733" lon="7.982228424399059"><ele>698.0</ele><time>2026-03-26T15:22:40Z</time></trkpt><trkpt lat="44.013174344182595" lon="7.982178557338126"><ele>698.0</ele><time>2026-03-26T15:22:41Z</time></trkpt><trkpt lat="44.013239114962374" lon="7.982074652442036"><ele>698.0</ele><time>2026-03-26T15:22:43.001Z</time></trkpt><trkpt lat="44.01327264791613" lon="7.981977735557606"><ele>698.0</ele><time>2026-03-26T15:22:44.001Z</time></trkpt><trkpt lat="44.013303437745186" lon="7.981847032233116"><ele>698.0</ele><time>2026-03-26T15:22:45.001Z</time></trkpt><trkpt lat="44.01336000765916" lon="7.981706272271572"><ele>698.0</ele><time>2026-03-26T15:22:46.001Z</time></trkpt><trkpt lat="44.0134154823467" lon="7.981631704698967"><ele>694.75</ele><time>2026-03-26T15:22:47.001Z</time></trkpt><trkpt lat="44.01357213282815" lon="7.981568146634508"><ele>691.5</ele><time>2026-03-26T15:22:49.001Z</time></trkpt><trkpt lat="44.01368603494987" lon="7.981564691956964"><ele>688.25</ele><time>2026-03-26T15:22:50.001Z</time></trkpt><trkpt lat="44.013761386272584" lon="7.981546656977758"><ele>685.0</ele><time>2026-03-26T15:22:51.001Z</time></trkpt><trkpt lat="44.01382439245478" lon="7.981432693872925"><ele>685.0</ele><time>2026-03-26T15:22:53.001Z</time></trkpt><trkpt lat="44.013902732242556" lon="7.981305061747994"><ele>685.0</ele><time>2026-03-26T15:22:54.001Z</time></trkpt><trkpt lat="44.01397823922248" lon="7.9812498298419525"><ele>685.0</ele><time>2026-03-26T15:22:55.001Z</time></trkpt><trkpt lat="44.014077202783696" lon="7.981158260242184"><ele>685.0</ele><time>2026-03-26T15:22:56.001Z</time></trkpt><trkpt lat="44.014165223816406" lon="7.981082896781824"><ele>685.0</ele><time>2026-03-26T15:22:57.001Z</time></trkpt><trkpt lat="44.01422968431984" lon="7.98108296652765"><ele>685.2</ele><time>2026-03-26T15:22:58.001Z</time></trkpt><trkpt lat="44.01432605427739" lon="7.981119720648963"><ele>685.4</ele><time>2026-03-26T15:22:59.001Z</time></trkpt><trkpt lat="44.0143855750146" lon="7.98106175338991"><ele>685.5999999999999</ele><time>2026-03-26T15:23:00.001Z</time></trkpt><trkpt lat="44.014433416633906" lon="7.980978168074037"><ele>685.8</ele><time>2026-03-26T15:23:01.001Z</time></trkpt><trkpt lat="44.014475945526236" lon="7.980908658422848"><ele>686.0</ele><time>2026-03-26T15:23:02.001Z</time></trkpt><trkpt lat="44.014640238993344" lon="7.9807969337303515"><ele>686.0</ele><time>2026-03-26T15:23:03.001Z</time></trkpt><trkpt lat="44.01470670535812" lon="7.980736371485761"><ele>686.0</ele><time>2026-03-26T15:23:04.001Z</time></trkpt><trkpt lat="44.01482116159615" lon="7.980789739487065"><ele>686.0</ele><time>2026-03-26T15:23:06.001Z</time></trkpt><trkpt lat="44.014899894929535" lon="7.980869215071637"><ele>686.0</ele><time>2026-03-26T15:23:07.001Z</time></trkpt><trkpt lat="44.01495884198307" lon="7.980927404533431"><ele>686.0</ele><time>2026-03-26T15:23:08.001Z</time></trkpt><trkpt lat="44.01501890646026" lon="7.9808822782343745"><ele>686.0</ele><time>2026-03-26T15:23:11.001Z</time></trkpt><trkpt lat="44.01505914677841" lon="7.980801200118101"><ele>683.8333333333333</ele><time>2026-03-26T15:30:53Z</time></trkpt><trkpt lat="44.015142648920566" lon="7.980740814964977"><ele>681.6666666666666</ele><time>2026-03-26T15:30:55Z</time></trkpt><trkpt lat="44.01520621808265" lon="7.980730448370734"><ele>679.5</ele><time>2026-03-26T15:30:56Z</time></trkpt><trkpt lat="44.01527090133844" lon="7.98070367513754"><ele>677.3333333333334</ele><time>2026-03-26T15:30:57Z</time></trkpt><trkpt lat="44.01535984696462" lon="7.980574453887369"><ele>675.1666666666667</ele><time>2026-03-26T15:30:59Z</time></trkpt><trkpt lat="44.01542507443957" lon="7.98052926863739"><ele>673.0</ele><time>2026-03-26T15:31:00Z</time></trkpt><trkpt lat="44.01549317435914" lon="7.980538937380899"><ele>673.0</ele><time>2026-03-26T15:31:01Z</time></trkpt><trkpt lat="44.015564344757685" lon="7.98053861760206"><ele>673.0</ele><time>2026-03-26T15:31:02Z</time></trkpt><trkpt lat="44.015645048027764" lon="7.980524138612741"><ele>673.0</ele><time>2026-03-26T15:31:03Z</time></trkpt><trkpt lat="44.01572169972264" lon="7.980555123235444"><ele>673.0</ele><time>2026-03-26T15:31:04Z</time></trkpt><trkpt lat="44.015797147939686" lon="7.980620340292444"><ele>673.0</ele><time>2026-03-26T15:31:05Z</time></trkpt><trkpt lat="44.015882586043396" lon="7.980670398933513"><ele>673.0</ele><time>2026-03-26T15:31:06Z</time></trkpt><trkpt lat="44.015981033466886" lon="7.980725690191798"><ele>671.5999999999999</ele><time>2026-03-26T15:31:07Z</time></trkpt><trkpt lat="44.016082889959705" lon="7.980786407088373"><ele>670.1999999999999</ele><time>2026-03-26T15:31:08Z</time></trkpt><trkpt lat="44.0161519035388" lon="7.980850902860062"><ele>668.8</ele><time>2026-03-26T15:31:09Z</time></trkpt><trkpt lat="44.01621064220031" lon="7.980957976808771"><ele>667.4</ele><time>2026-03-26T15:31:10Z</time></trkpt><trkpt lat="44.016274123615794" lon="7.981041667463483"><ele>666.0</ele><time>2026-03-26T15:31:11Z</time></trkpt><trkpt lat="44.016355687466415" lon="7.981101285077636"><ele>659.8</ele><time>2026-03-26T15:31:12Z</time></trkpt><trkpt lat="44.01644440227105" lon="7.981179502684734"><ele>653.5999999999999</ele><time>2026-03-26T15:31:13Z</time></trkpt><trkpt lat="44.01650475554942" lon="7.981267521166392"><ele>647.4</ele><time>2026-03-26T15:31:14Z</time></trkpt><trkpt lat="44.016540877002186" lon="7.981378778397713"><ele>641.2</ele><time>2026-03-26T15:31:15Z</time></trkpt><trkpt lat="44.01653698874555" lon="7.981469086526711"><ele>635.0</ele><time>2026-03-26T15:31:16Z</time></trkpt><trkpt lat="44.01656348021353" lon="7.981617156611276"><ele>637.5</ele><time>2026-03-26T15:31:17Z</time></trkpt><trkpt lat="44.016610274121035" lon="7.981729437496197"><ele>640.0</ele><time>2026-03-26T15:31:18Z</time></trkpt><trkpt lat="44.016620550345024" lon="7.981859033244051"><ele>642.5</ele><time>2026-03-26T15:31:19Z</time></trkpt><trkpt lat="44.01662076127363" lon="7.981964895549419"><ele>645.0</ele><time>2026-03-26T15:31:20Z</time></trkpt><trkpt lat="44.01664785887233" lon="7.98206377868177"><ele>647.5</ele><time>2026-03-26T15:31:21Z</time></trkpt><trkpt lat="44.01670125751735" lon="7.982166583204837"><ele>650.0</ele><time>2026-03-26T15:31:22Z</time></trkpt><trkpt lat="44.01676000081308" lon="7.982294335092751"><ele>650.0</ele><time>2026-03-26T15:31:23Z</time></trkpt><trkpt lat="44.01680512523602" lon="7.982378369519932"><ele>650.0</ele><time>2026-03-26T15:31:24Z</time></trkpt><trkpt lat="44.016939667071334" lon="7.9824062393646225"><ele>650.0</ele><time>2026-03-26T15:31:26Z</time></trkpt><trkpt lat="44.01703169139136" lon="7.982453735292924"><ele>650.0</ele><time>2026-03-26T15:31:27Z</time></trkpt><trkpt lat="44.01709183758836" lon="7.982506929553053"><ele>650.0</ele><time>2026-03-26T15:31:28Z</time></trkpt><trkpt lat="44.017180827533906" lon="7.982445432897407"><ele>650.0</ele><time>2026-03-26T15:31:30Z</time></trkpt><trkpt lat="44.017220673862454" lon="7.982360968796633"><ele>650.0</ele><time>2026-03-26T15:31:31Z</time></trkpt><trkpt lat="44.0172342608289" lon="7.982270502834665"><ele>650.0</ele><time>2026-03-26T15:31:32Z</time></trkpt><trkpt lat="44.017229808136875" lon="7.982147673145715"><ele>650.0</ele><time>2026-03-26T15:31:33Z</time></trkpt><trkpt lat="44.01723462043425" lon="7.981990921166901"><ele>650.0</ele><time>2026-03-26T15:31:34Z</time></trkpt><trkpt lat="44.01723223690095" lon="7.981885658616708"><ele>650.0</ele><time>2026-03-26T15:31:35Z</time></trkpt><trkpt lat="44.017337556092365" lon="7.9817624179764834"><ele>655.0</ele><time>2026-03-26T15:31:37Z</time></trkpt><trkpt lat="44.01741893714141" lon="7.9816315701116896"><ele>660.0</ele><time>2026-03-26T15:31:38Z</time></trkpt><trkpt lat="44.017501466241455" lon="7.981476308959525"><ele>665.0</ele><time>2026-03-26T15:31:39Z</time></trkpt><trkpt lat="44.017583893690386" lon="7.981321232912829"><ele>670.0</ele><time>2026-03-26T15:31:40Z</time></trkpt><trkpt lat="44.017634711264634" lon="7.981210702098913"><ele>671.2</ele><time>2026-03-26T15:31:41Z</time></trkpt><trkpt lat="44.017743124365104" lon="7.9811726570457795"><ele>672.4</ele><time>2026-03-26T15:31:43Z</time></trkpt><trkpt lat="44.01782922851439" lon="7.981186795716827"><ele>673.5999999999999</ele><time>2026-03-26T15:31:44Z</time></trkpt><trkpt lat="44.01793889255717" lon="7.981186314189927"><ele>674.8</ele><time>2026-03-26T15:31:45Z</time></trkpt><trkpt lat="44.01798997589216" lon="7.981109902217359"><ele>676.0</ele><time>2026-03-26T15:31:47Z</time></trkpt><trkpt lat="44.01798959296131" lon="7.980899211267389"><ele>680.75</ele><time>2026-03-26T15:31:49Z</time></trkpt><trkpt lat="44.01797784002916" lon="7.980732845525038"><ele>685.5</ele><time>2026-03-26T15:31:50Z</time></trkpt><trkpt lat="44.01798994950488" lon="7.980530029257079"><ele>690.25</ele><time>2026-03-26T15:31:51Z</time></trkpt><trkpt lat="44.018023307291195" lon="7.980395205452732"><ele>695.0</ele><time>2026-03-26T15:31:52Z</time></trkpt><trkpt lat="44.01809820870872" lon="7.9803364605648"><ele>695.0</ele><time>2026-03-26T15:31:54Z</time></trkpt><trkpt lat="44.01818008039516" lon="7.980385559320755"><ele>695.0</ele><time>2026-03-26T15:31:55Z</time></trkpt><trkpt lat="44.01826631383375" lon="7.980440984314107"><ele>695.0</ele><time>2026-03-26T15:31:56Z</time></trkpt><trkpt lat="44.01834400915957" lon="7.980433017990721"><ele>695.0</ele><time>2026-03-26T15:31:57Z</time></trkpt><trkpt lat="44.018423701661185" lon="7.980275435172129"><ele>695.0</ele><time>2026-03-26T15:31:59Z</time></trkpt><trkpt lat="44.01846989765185" lon="7.98014276241849"><ele>691.6</ele><time>2026-03-26T15:32:00Z</time></trkpt><trkpt lat="44.018503449392384" lon="7.980006815499966"><ele>688.2</ele><time>2026-03-26T15:32:01Z</time></trkpt><trkpt lat="44.01854521914745" lon="7.979886933256666"><ele>684.8</ele><time>2026-03-26T15:32:02Z</time></trkpt><trkpt lat="44.01860451366035" lon="7.979805778865598"><ele>681.4</ele><time>2026-03-26T15:32:03Z</time></trkpt><trkpt lat="44.01870732515219" lon="7.979724830090652"><ele>678.0</ele><time>2026-03-26T15:32:04Z</time></trkpt><trkpt lat="44.0188213320378" lon="7.979652464436569"><ele>678.0</ele><time>2026-03-26T15:32:05Z</time></trkpt><trkpt lat="44.01894202565577" lon="7.979605704380168"><ele>678.0</ele><time>2026-03-26T15:32:06Z</time></trkpt><trkpt lat="44.019038614499436" lon="7.979632908213906"><ele>678.0</ele><time>2026-03-26T15:32:07Z</time></trkpt><trkpt lat="44.01913471796476" lon="7.97967892826743"><ele>678.0</ele><time>2026-03-26T15:32:08Z</time></trkpt><trkpt lat="44.01924205190923" lon="7.979734517057211"><ele>678.0</ele><time>2026-03-26T15:32:09Z</time></trkpt><trkpt lat="44.019328517528834" lon="7.979811358242909"><ele>674.25</ele><time>2026-03-26T15:32:10Z</time></trkpt><trkpt lat="44.01941127274458" lon="7.97998773772375"><ele>670.5</ele><time>2026-03-26T15:32:12Z</time></trkpt><trkpt lat="44.01947076570162" lon="7.980110202742802"><ele>666.75</ele><time>2026-03-26T15:32:13Z</time></trkpt><trkpt lat="44.01955585606714" lon="7.9802242594043955"><ele>663.0</ele><time>2026-03-26T15:32:14Z</time></trkpt><trkpt lat="44.0196291525748" lon="7.980289324508153"><ele>658.0</ele><time>2026-03-26T15:32:15Z</time></trkpt><trkpt lat="44.01969711011417" lon="7.980305562502413"><ele>653.0</ele><time>2026-03-26T15:32:16Z</time></trkpt><trkpt lat="44.01979369409204" lon="7.980306741991909"><ele>648.0</ele><time>2026-03-26T15:32:17Z</time></trkpt><trkpt lat="44.01991092221597" lon="7.980302580270476"><ele>643.0</ele><time>2026-03-26T15:32:18Z</time></trkpt><trkpt lat="44.020022705643726" lon="7.9803106772815555"><ele>638.0</ele><time>2026-03-26T15:32:19Z</time></trkpt><trkpt lat="44.02008375504698" lon="7.980281320387016"><ele>638.0</ele><time>2026-03-26T15:32:20Z</time></trkpt><trkpt lat="44.02016027551449" lon="7.980109418873859"><ele>638.0</ele><time>2026-03-26T15:32:22Z</time></trkpt><trkpt lat="44.020220446938254" lon="7.9799622521420925"><ele>638.0</ele><time>2026-03-26T15:32:23Z</time></trkpt><trkpt lat="44.020261308073295" lon="7.979869942872177"><ele>638.0</ele><time>2026-03-26T15:32:24Z</time></trkpt><trkpt lat="44.020270293397836" lon="7.979736411436741"><ele>638.0</ele><time>2026-03-26T15:32:26Z</time></trkpt><trkpt lat="44.02026154004791" lon="7.979646436158534"><ele>643.0</ele><time>2026-03-26T15:32:27Z</time></trkpt><trkpt lat="44.020323112895284" lon="7.97954974230725"><ele>648.0</ele><time>2026-03-26T15:32:29Z</time></trkpt><trkpt lat="44.02038696840233" lon="7.979541095739172"><ele>653.0</ele><time>2026-03-26T15:32:30Z</time></trkpt><trkpt lat="44.020446908066326" lon="7.979502248849225"><ele>658.0</ele><time>2026-03-26T15:32:31Z</time></trkpt><trkpt lat="44.02048372373168" lon="7.979408198471831"><ele>663.0</ele><time>2026-03-26T15:32:33Z</time></trkpt><trkpt lat="44.02051370962522" lon="7.979322805208561"><ele>668.0</ele><time>2026-03-26T15:32:34Z</time></trkpt><trkpt lat="44.02061572721928" lon="7.979206847185815"><ele>668.0</ele><time>2026-03-26T15:32:36Z</time></trkpt><trkpt lat="44.0206978219805" lon="7.979200424002351"><ele>668.0</ele><time>2026-03-26T15:32:37Z</time></trkpt><trkpt lat="44.02079432400895" lon="7.979207415107017"><ele>668.0</ele><time>2026-03-26T15:32:38Z</time></trkpt><trkpt lat="44.020868380165666" lon="7.9791846360519605"><ele>668.0</ele><time>2026-03-26T15:32:39Z</time></trkpt><trkpt lat="44.020920721626524" lon="7.9791321477520345"><ele>668.0</ele><time>2026-03-26T15:32:40Z</time></trkpt><trkpt lat="44.02097107450268" lon="7.979067975323558"><ele>668.0</ele><time>2026-03-26T15:32:41Z</time></trkpt><trkpt lat="44.021041332835324" lon="7.978938243371506"><ele>669.4</ele><time>2026-03-26T15:32:42Z</time></trkpt><trkpt lat="44.021105856874414" lon="7.978860204590278"><ele>670.8</ele><time>2026-03-26T15:32:43Z</time></trkpt><trkpt lat="44.02123533298023" lon="7.9788726988701955"><ele>672.2</ele><time>2026-03-26T15:32:45Z</time></trkpt><trkpt lat="44.02130879554109" lon="7.97895126392377"><ele>673.6</ele><time>2026-03-26T15:32:46Z</time></trkpt><trkpt lat="44.02139024589265" lon="7.979053858555704"><ele>675.0</ele><time>2026-03-26T15:32:47Z</time></trkpt><trkpt lat="44.021493620812564" lon="7.979156125704642"><ele>668.4</ele><time>2026-03-26T15:32:48Z</time></trkpt><trkpt lat="44.02161268316442" lon="7.9792259930097345"><ele>661.8</ele><time>2026-03-26T15:32:49Z</time></trkpt><trkpt lat="44.02171349101412" lon="7.97930703205617"><ele>655.2</ele><time>2026-03-26T15:32:50Z</time></trkpt><trkpt lat="44.02178858965426" lon="7.979389720550186"><ele>648.6</ele><time>2026-03-26T15:32:51Z</time></trkpt><trkpt lat="44.02183704678075" lon="7.979456640469685"><ele>642.0</ele><time>2026-03-26T15:32:52Z</time></trkpt><trkpt lat="44.02194340349808" lon="7.979362168207512"><ele>642.0</ele><time>2026-03-26T15:32:54Z</time></trkpt><trkpt lat="44.02203317293264" lon="7.979325446870982"><ele>642.0</ele><time>2026-03-26T15:32:55Z</time></trkpt><trkpt lat="44.02210660606376" lon="7.979335635690261"><ele>642.0</ele><time>2026-03-26T15:32:56Z</time></trkpt><trkpt lat="44.02217209530769" lon="7.979385372553643"><ele>642.0</ele><time>2026-03-26T15:32:57Z</time></trkpt><trkpt lat="44.02223636900801" lon="7.979443752455464"><ele>642.0</ele><time>2026-03-26T15:32:58Z</time></trkpt><trkpt lat="44.022292477859644" lon="7.979500334016838"><ele>642.0</ele><time>2026-03-26T15:32:59Z</time></trkpt><trkpt lat="44.022373575033676" lon="7.979593076729148"><ele>642.0</ele><time>2026-03-26T15:33:01Z</time></trkpt><trkpt lat="44.02246742767177" lon="7.979612281031932"><ele>642.0</ele><time>2026-03-26T15:33:03Z</time></trkpt><trkpt lat="44.022582812551924" lon="7.979716457772758"><ele>642.0</ele><time>2026-03-26T15:33:05Z</time></trkpt><trkpt lat="44.0226432007549" lon="7.9797918848697975"><ele>642.0</ele><time>2026-03-26T15:33:06Z</time></trkpt><trkpt lat="44.02270261214807" lon="7.979841750352077"><ele>642.0</ele><time>2026-03-26T15:33:07Z</time></trkpt><trkpt lat="44.022766190155956" lon="7.9798509220403435"><ele>642.0</ele><time>2026-03-26T15:33:08Z</time></trkpt><trkpt lat="44.02283662874785" lon="7.979847860457589"><ele>641.1666666666666</ele><time>2026-03-26T15:33:09Z</time></trkpt><trkpt lat="44.02292820113045" lon="7.979878135899721"><ele>640.3333333333334</ele><time>2026-03-26T15:33:11Z</time></trkpt><trkpt lat="44.02297774149981" lon="7.9799455501433245"><ele>639.5</ele><time>2026-03-26T15:33:14Z</time></trkpt><trkpt lat="44.023034024555336" lon="7.980017378335699"><ele>638.6666666666667</ele><time>2026-03-26T15:34:03Z</time></trkpt><trkpt lat="44.02309385902259" lon="7.9801021183211"><ele>637.8333333333334</ele><time>2026-03-26T15:34:04Z</time></trkpt><trkpt lat="44.02314377906707" lon="7.980197261335941"><ele>637.0</ele><time>2026-03-26T15:34:05Z</time></trkpt><trkpt lat="44.02319531005194" lon="7.980274847276909"><ele>637.0</ele><time>2026-03-26T15:34:06Z</time></trkpt><trkpt lat="44.02329807132605" lon="7.980364606534678"><ele>637.0</ele><time>2026-03-26T15:34:08Z</time></trkpt><trkpt lat="44.02337960024828" lon="7.980445016708908"><ele>637.0</ele><time>2026-03-26T15:34:09Z</time></trkpt><trkpt lat="44.02347247355637" lon="7.980531823601429"><ele>637.0</ele><time>2026-03-26T15:34:10Z</time></trkpt><trkpt lat="44.02355080338551" lon="7.980589539744632"><ele>637.0</ele><time>2026-03-26T15:34:11Z</time></trkpt><trkpt lat="44.02362220516276" lon="7.980623688728811"><ele>637.0</ele><time>2026-03-26T15:34:12Z</time></trkpt><trkpt lat="44.0236997823697" lon="7.980634366362019"><ele>637.0</ele><time>2026-03-26T15:34:13Z</time></trkpt><trkpt lat="44.023787224722234" lon="7.980635276332475"><ele>637.0</ele><time>2026-03-26T15:34:14Z</time></trkpt><trkpt lat="44.02387517782582" lon="7.980652879429128"><ele>637.0</ele><time>2026-03-26T15:34:15Z</time></trkpt><trkpt lat="44.02399246197426" lon="7.980770395541529"><ele>637.0</ele><time>2026-03-26T15:34:17Z</time></trkpt><trkpt lat="44.024070704979415" lon="7.980874271282586"><ele>640.6</ele><time>2026-03-26T15:34:18Z</time></trkpt><trkpt lat="44.02414979096505" lon="7.980983403437612"><ele>644.2</ele><time>2026-03-26T15:34:19Z</time></trkpt><trkpt lat="44.024241250386346" lon="7.9811162463875105"><ele>647.8</ele><time>2026-03-26T15:34:20Z</time></trkpt><trkpt lat="44.02429061017453" lon="7.981208304540983"><ele>651.4</ele><time>2026-03-26T15:34:21Z</time></trkpt><trkpt lat="44.02432540476741" lon="7.981299671365748"><ele>655.0</ele><time>2026-03-26T15:34:22Z</time></trkpt><trkpt lat="44.024364200420266" lon="7.981434899110937"><ele>655.0</ele><time>2026-03-26T15:34:23Z</time></trkpt><trkpt lat="44.024398178534014" lon="7.981588087915635"><ele>655.0</ele><time>2026-03-26T15:34:24Z</time></trkpt><trkpt lat="44.024425340584614" lon="7.981739092969491"><ele>655.0</ele><time>2026-03-26T15:34:25Z</time></trkpt><trkpt lat="44.02444851954897" lon="7.981832382857366"><ele>655.0</ele><time>2026-03-26T15:34:26Z</time></trkpt><trkpt lat="44.0244974753594" lon="7.9818986521666995"><ele>655.0</ele><time>2026-03-26T15:34:27Z</time></trkpt><trkpt lat="44.024576288222036" lon="7.982001748271629"><ele>651.4</ele><time>2026-03-26T15:34:28Z</time></trkpt><trkpt lat="44.02464983911428" lon="7.9821093501654286"><ele>647.8</ele><time>2026-03-26T15:34:29Z</time></trkpt><trkpt lat="44.02472290770211" lon="7.982212544559549"><ele>644.2</ele><time>2026-03-26T15:34:30Z</time></trkpt><trkpt lat="44.02479404522088" lon="7.982297624857957"><ele>640.6</ele><time>2026-03-26T15:34:31Z</time></trkpt><trkpt lat="44.02485831487546" lon="7.982353581759866"><ele>637.0</ele><time>2026-03-26T15:34:32Z</time></trkpt><trkpt lat="44.0249198181421" lon="7.982441855818404"><ele>640.0</ele><time>2026-03-26T15:34:33Z</time></trkpt><trkpt lat="44.02498716917205" lon="7.982530246726112"><ele>643.0</ele><time>2026-03-26T15:34:34Z</time></trkpt><trkpt lat="44.02505921147008" lon="7.982601582987843"><ele>646.0</ele><time>2026-03-26T15:34:35Z</time></trkpt><trkpt lat="44.02513569851254" lon="7.98264009214659"><ele>649.0</ele><time>2026-03-26T15:34:36Z</time></trkpt><trkpt lat="44.02521501324584" lon="7.9826908774186505"><ele>652.0</ele><time>2026-03-26T15:34:37Z</time></trkpt><trkpt lat="44.02529293078927" lon="7.9827573423002764"><ele>655.0</ele><time>2026-03-26T15:34:38Z</time></trkpt><trkpt lat="44.02538580401729" lon="7.98284764358365"><ele>655.0</ele><time>2026-03-26T15:34:39Z</time></trkpt><trkpt lat="44.02546899140593" lon="7.982912158466122"><ele>655.0</ele><time>2026-03-26T15:34:40Z</time></trkpt><trkpt lat="44.025541449085246" lon="7.982965557229287"><ele>655.0</ele><time>2026-03-26T15:34:41Z</time></trkpt><trkpt lat="44.025589889826584" lon="7.983021840786648"><ele>655.0</ele><time>2026-03-26T15:34:42Z</time></trkpt><trkpt lat="44.0256297525284" lon="7.983101020741701"><ele>655.0</ele><time>2026-03-26T15:34:43Z</time></trkpt><trkpt lat="44.025654382115654" lon="7.983196977554011"><ele>655.0</ele><time>2026-03-26T15:34:44Z</time></trkpt><trkpt lat="44.025657634970514" lon="7.983302566655896"><ele>657.4</ele><time>2026-03-26T15:34:45Z</time></trkpt><trkpt lat="44.02565140322135" lon="7.983430958680585"><ele>659.8</ele><time>2026-03-26T15:34:46Z</time></trkpt><trkpt lat="44.02567154519921" lon="7.983574533327015"><ele>662.2</ele><time>2026-03-26T15:34:47Z</time></trkpt><trkpt lat="44.02571192814202" lon="7.983714478977956"><ele>664.6</ele><time>2026-03-26T15:34:48Z</time></trkpt><trkpt lat="44.02576952609679" lon="7.983872457446942"><ele>667.0</ele><time>2026-03-26T15:34:49Z</time></trkpt><trkpt lat="44.02581976498787" lon="7.983976211679529"><ele>667.0</ele><time>2026-03-26T15:34:50Z</time></trkpt><trkpt lat="44.025877000915905" lon="7.984097145543233"><ele>667.0</ele><time>2026-03-26T15:34:51Z</time></trkpt><trkpt lat="44.02593091709921" lon="7.984183520168527"><ele>667.0</ele><time>2026-03-26T15:34:52Z</time></trkpt><trkpt lat="44.025973330350666" lon="7.984252396806187"><ele>667.0</ele><time>2026-03-26T15:34:53Z</time></trkpt><trkpt lat="44.02602960827952" lon="7.9843070056493275"><ele>667.0</ele><time>2026-03-26T15:34:54Z</time></trkpt><trkpt lat="44.026100103708586" lon="7.984378128512974"><ele>667.0</ele><time>2026-03-26T15:34:55Z</time></trkpt><trkpt lat="44.02616750047705" lon="7.984440547193645"><ele>665.6</ele><time>2026-03-26T15:34:56Z</time></trkpt><trkpt lat="44.02624722061523" lon="7.984501047396171"><ele>664.2</ele><time>2026-03-26T15:34:57Z</time></trkpt><trkpt lat="44.02630522354701" lon="7.984660006345575"><ele>662.8</ele><time>2026-03-26T15:34:59Z</time></trkpt><trkpt lat="44.026342887616764" lon="7.984781282047429"><ele>661.4</ele><time>2026-03-26T15:35:00Z</time></trkpt><trkpt lat="44.02640377047333" lon="7.9848740673901055"><ele>660.0</ele><time>2026-03-26T15:35:01Z</time></trkpt><trkpt lat="44.026479322288345" lon="7.9849626621742384"><ele>659.8</ele><time>2026-03-26T15:35:02Z</time></trkpt><trkpt lat="44.02655919390606" lon="7.985042293096368"><ele>659.6</ele><time>2026-03-26T15:35:03Z</time></trkpt><trkpt lat="44.02663722461091" lon="7.985124054752826"><ele>659.4000000000001</ele><time>2026-03-26T15:35:04Z</time></trkpt><trkpt lat="44.02673902607777" lon="7.985222276696162"><ele>659.2</ele><time>2026-03-26T15:35:05Z</time></trkpt><trkpt lat="44.0268077184226" lon="7.98528397407685"><ele>659.0</ele><time>2026-03-26T15:35:06Z</time></trkpt><trkpt lat="44.02692684685855" lon="7.985323447860801"><ele>659.0</ele><time>2026-03-26T15:35:07Z</time></trkpt><trkpt lat="44.02704969766164" lon="7.9853649451152195"><ele>659.0</ele><time>2026-03-26T15:35:08Z</time></trkpt><trkpt lat="44.0271441771086" lon="7.9854264623077"><ele>659.0</ele><time>2026-03-26T15:35:09Z</time></trkpt><trkpt lat="44.02723321466791" lon="7.985509587195127"><ele>659.0</ele><time>2026-03-26T15:35:10Z</time></trkpt><trkpt lat="44.02732211758874" lon="7.985592784622091"><ele>659.0</ele><time>2026-03-26T15:35:11Z</time></trkpt><trkpt lat="44.02741100767987" lon="7.985673706292458"><ele>660.1666666666666</ele><time>2026-03-26T15:35:12Z</time></trkpt><trkpt lat="44.027486920474956" lon="7.985731669120783"><ele>661.3333333333333</ele><time>2026-03-26T15:35:13Z</time></trkpt><trkpt lat="44.02756694837164" lon="7.985769140719699"><ele>662.5</ele><time>2026-03-26T15:35:14Z</time></trkpt><trkpt lat="44.02763950327475" lon="7.985806001313014"><ele>663.6666666666666</ele><time>2026-03-26T15:35:15Z</time></trkpt><trkpt lat="44.02768695045977" lon="7.985878611404872"><ele>664.8333333333334</ele><time>2026-03-26T15:35:17Z</time></trkpt><trkpt lat="44.02772489175797" lon="7.985948501248124"><ele>666.0</ele><time>2026-03-26T15:38:38Z</time></trkpt><trkpt lat="44.027788100100445" lon="7.985882551185569"><ele>666.0</ele><time>2026-03-26T15:38:41Z</time></trkpt><trkpt lat="44.02777240668565" lon="7.985782496135479"><ele>666.0</ele><time>2026-03-26T15:38:44Z</time></trkpt><trkpt lat="44.02774361156668" lon="7.985690989727228"><ele>666.0</ele><time>2026-03-26T15:38:47Z</time></trkpt><trkpt lat="44.02771040397236" lon="7.985604483753437"><ele>666.0</ele><time>2026-03-26T15:38:50Z</time></trkpt><trkpt lat="44.02765165760323" lon="7.985509710561106"><ele>666.0</ele><time>2026-03-26T15:39:00Z</time></trkpt><trkpt lat="44.02755782879509" lon="7.985449677629963"><ele>666.0</ele><time>2026-03-26T15:39:03Z</time></trkpt><trkpt lat="44.02748901496226" lon="7.98537434959338"><ele>665.6666666666666</ele><time>2026-03-26T15:39:05Z</time></trkpt><trkpt lat="44.027474124969395" lon="7.9852831358710015"><ele>665.3333333333334</ele><time>2026-03-26T15:39:07Z</time></trkpt><trkpt lat="44.02741793693229" lon="7.985221805520007"><ele>665.0</ele><time>2026-03-26T15:39:09Z</time></trkpt><trkpt lat="44.027331797758045" lon="7.985130648035079"><ele>664.6666666666667</ele><time>2026-03-26T15:39:11Z</time></trkpt><trkpt lat="44.02728985861821" lon="7.985049878197099"><ele>664.3333333333334</ele><time>2026-03-26T15:39:12Z</time></trkpt><trkpt lat="44.027249022996344" lon="7.9849641327791145"><ele>664.0</ele><time>2026-03-26T15:39:13Z</time></trkpt><trkpt lat="44.02715358905405" lon="7.984823314786619"><ele>664.0</ele><time>2026-03-26T15:39:15Z</time></trkpt><trkpt lat="44.027051900435815" lon="7.984738283304798"><ele>664.0</ele><time>2026-03-26T15:39:18Z</time></trkpt><trkpt lat="44.02696623533133" lon="7.9846425480640795"><ele>664.0</ele><time>2026-03-26T15:39:20Z</time></trkpt><trkpt lat="44.02690348770849" lon="7.984539547936563"><ele>664.0</ele><time>2026-03-26T15:39:22Z</time></trkpt><trkpt lat="44.02684206010752" lon="7.984452847005862"><ele>664.0</ele><time>2026-03-26T15:39:24Z</time></trkpt><trkpt lat="44.026758285157136" lon="7.984352318000203"><ele>664.0</ele><time>2026-03-26T15:39:26Z</time></trkpt><trkpt lat="44.02672665657732" lon="7.984265057507977"><ele>664.0</ele><time>2026-03-26T15:39:28Z</time></trkpt><trkpt lat="44.0267381893123" lon="7.984096887239948"><ele>664.0</ele><time>2026-03-26T15:39:30Z</time></trkpt><trkpt lat="44.02671358598522" lon="7.983999424544614"><ele>664.0</ele><time>2026-03-26T15:39:32Z</time></trkpt><trkpt lat="44.02666076823251" lon="7.983854198025285"><ele>664.0</ele><time>2026-03-26T15:39:34Z</time></trkpt><trkpt lat="44.026640610219424" lon="7.9836989681418515"><ele>664.0</ele><time>2026-03-26T15:39:36Z</time></trkpt><trkpt lat="44.02663232512524" lon="7.983609431324435"><ele>664.0</ele><time>2026-03-26T15:39:37Z</time></trkpt><trkpt lat="44.026590650664325" lon="7.983516897465697"><ele>664.0</ele><time>2026-03-26T15:39:39Z</time></trkpt><trkpt lat="44.02650292458169" lon="7.983374200975405"><ele>664.0</ele><time>2026-03-26T15:39:41Z</time></trkpt><trkpt lat="44.026454650147556" lon="7.983313963146184"><ele>664.0</ele><time>2026-03-26T15:39:42Z</time></trkpt><trkpt lat="44.02640990675585" lon="7.983195708394018"><ele>664.0</ele><time>2026-03-26T15:39:44Z</time></trkpt><trkpt lat="44.02636323818189" lon="7.983082180349064"><ele>664.0</ele><time>2026-03-26T15:39:46Z</time></trkpt><trkpt lat="44.026397430458466" lon="7.982982565590495"><ele>664.0</ele><time>2026-03-26T15:39:49Z</time></trkpt><trkpt lat="44.026448935625204" lon="7.98285301414172"><ele>664.0</ele><time>2026-03-26T15:39:51Z</time></trkpt><trkpt lat="44.02646841656979" lon="7.9827390573062456"><ele>664.0</ele><time>2026-03-26T15:39:53Z</time></trkpt><trkpt lat="44.026505337232024" lon="7.982617977605451"><ele>664.0</ele><time>2026-03-26T15:39:55Z</time></trkpt><trkpt lat="44.02654758139609" lon="7.982510731757358"><ele>661.5</ele><time>2026-03-26T15:39:57Z</time></trkpt><trkpt lat="44.02659315704231" lon="7.982393674522801"><ele>659.0</ele><time>2026-03-26T15:39:59Z</time></trkpt><trkpt lat="44.026623094242396" lon="7.982314889519885"><ele>656.5</ele><time>2026-03-26T15:40:00Z</time></trkpt><trkpt lat="44.02665203289018" lon="7.98222955111215"><ele>654.0</ele><time>2026-03-26T15:40:01Z</time></trkpt><trkpt lat="44.026680395557115" lon="7.982106017524473"><ele>651.5</ele><time>2026-03-26T15:40:03Z</time></trkpt><trkpt lat="44.0266668594747" lon="7.981994141865982"><ele>649.0</ele><time>2026-03-26T15:40:05Z</time></trkpt><trkpt lat="44.02665497480884" lon="7.981818698603775"><ele>645.3333333333334</ele><time>2026-03-26T15:40:07Z</time></trkpt><trkpt lat="44.02666484757541" lon="7.981674857896297"><ele>641.6666666666667</ele><time>2026-03-26T15:40:09Z</time></trkpt><trkpt lat="44.02669134408341" lon="7.981499657304828"><ele>638.0</ele><time>2026-03-26T15:40:11Z</time></trkpt><trkpt lat="44.02671367273966" lon="7.981413269274407"><ele>634.3333333333334</ele><time>2026-03-26T15:40:12Z</time></trkpt><trkpt lat="44.02670511268264" lon="7.981309509607092"><ele>630.6666666666666</ele><time>2026-03-26T15:40:15Z</time></trkpt><trkpt lat="44.026643006671776" lon="7.981289290895687"><ele>627.0</ele><time>2026-03-26T15:40:17Z</time></trkpt><trkpt lat="44.026555600867106" lon="7.981256638867959"><ele>627.0</ele><time>2026-03-26T15:40:19Z</time></trkpt><trkpt lat="44.026489290865364" lon="7.981239832200229"><ele>627.0</ele><time>2026-03-26T15:40:21Z</time></trkpt><trkpt lat="44.02641342758641" lon="7.981203660498837"><ele>627.0</ele><time>2026-03-26T15:40:23Z</time></trkpt><trkpt lat="44.02635923370617" lon="7.981137544337099"><ele>627.0</ele><time>2026-03-26T15:40:26Z</time></trkpt><trkpt lat="44.02631957300755" lon="7.981045774465436"><ele>627.0</ele><time>2026-03-26T15:43:19Z</time></trkpt><trkpt lat="44.02642839354504" lon="7.981007087376481"><ele>627.0</ele><time>2026-03-26T15:43:23Z</time></trkpt><trkpt lat="44.02652551652044" lon="7.981018746823072"><ele>627.0</ele><time>2026-03-26T15:43:25Z</time></trkpt><trkpt lat="44.02658737404812" lon="7.980941867905731"><ele>627.0</ele><time>2026-03-26T15:43:28Z</time></trkpt><trkpt lat="44.02662026037312" lon="7.980838657385534"><ele>627.0</ele><time>2026-03-26T15:43:30Z</time></trkpt><trkpt lat="44.026646308381224" lon="7.980742952621817"><ele>627.0</ele><time>2026-03-26T15:43:32Z</time></trkpt><trkpt lat="44.0266578294114" lon="7.980650975010038"><ele>627.0</ele><time>2026-03-26T15:43:35Z</time></trkpt><trkpt lat="44.0265921720766" lon="7.980609014436652"><ele>627.0</ele><time>2026-03-26T15:43:38Z</time></trkpt><trkpt lat="44.02649317290551" lon="7.980588721627737"><ele>621.3333333333334</ele><time>2026-03-26T15:43:42Z</time></trkpt><trkpt lat="44.0264248946357" lon="7.980538881530601"><ele>615.6666666666666</ele><time>2026-03-26T15:43:44Z</time></trkpt><trkpt lat="44.02636120045173" lon="7.980465219157189"><ele>610.0</ele><time>2026-03-26T15:43:46Z</time></trkpt><trkpt lat="44.026309644596836" lon="7.980406293132079"><ele>604.3333333333333</ele><time>2026-03-26T15:43:47Z</time></trkpt><trkpt lat="44.0262195149207" lon="7.980322721544029"><ele>598.6666666666666</ele><time>2026-03-26T15:43:51Z</time></trkpt><trkpt lat="44.026163028729854" lon="7.980251490103354"><ele>593.0</ele><time>2026-03-26T15:43:54Z</time></trkpt><trkpt lat="44.02609917441708" lon="7.980180214899495"><ele>593.0</ele><time>2026-03-26T15:43:56Z</time></trkpt><trkpt lat="44.02605255899596" lon="7.980108253482081"><ele>593.0</ele><time>2026-03-26T15:43:58Z</time></trkpt><trkpt lat="44.02606694509772" lon="7.979996252281028"><ele>593.0</ele><time>2026-03-26T15:44:01Z</time></trkpt><trkpt lat="44.02603906630464" lon="7.979914240716792"><ele>593.0</ele><time>2026-03-26T15:44:03Z</time></trkpt><trkpt lat="44.02594161103945" lon="7.979893101618663"><ele>593.0</ele><time>2026-03-26T15:44:06Z</time></trkpt><trkpt lat="44.02585206521676" lon="7.979858883619844"><ele>593.0</ele><time>2026-03-26T15:44:08Z</time></trkpt><trkpt lat="44.02578149242787" lon="7.9798469763344695"><ele>593.5</ele><time>2026-03-26T15:44:11Z</time></trkpt><trkpt lat="44.025708371398906" lon="7.979824599124468"><ele>594.0</ele><time>2026-03-26T15:44:13Z</time></trkpt><trkpt lat="44.02565605149454" lon="7.979764126510694"><ele>594.5</ele><time>2026-03-26T15:44:15Z</time></trkpt><trkpt lat="44.02563008474514" lon="7.979678118936172"><ele>595.0</ele><time>2026-03-26T15:44:18Z</time></trkpt><trkpt lat="44.02562362310462" lon="7.979584440051366"><ele>595.5</ele><time>2026-03-26T15:44:22Z</time></trkpt><trkpt lat="44.025623718631415" lon="7.979463980145755"><ele>596.0</ele><time>2026-03-26T15:44:25Z</time></trkpt><trkpt lat="44.02564228475461" lon="7.979346660932109"><ele>596.0</ele><time>2026-03-26T15:44:28.001Z</time></trkpt><trkpt lat="44.02566117690601" lon="7.979219537494576"><ele>596.0</ele><time>2026-03-26T15:44:30.001Z</time></trkpt><trkpt lat="44.02567440429414" lon="7.9791322846709285"><ele>596.0</ele><time>2026-03-26T15:44:32.001Z</time></trkpt><trkpt lat="44.025640454581755" lon="7.978999394279829"><ele>596.0</ele><time>2026-03-26T15:44:35.001Z</time></trkpt><trkpt lat="44.025613637022055" lon="7.978862704780441"><ele>596.0</ele><time>2026-03-26T15:44:37.001Z</time></trkpt><trkpt lat="44.02557597900128" lon="7.978756364304977"><ele>596.0</ele><time>2026-03-26T15:44:39.001Z</time></trkpt><trkpt lat="44.02551050830912" lon="7.9787130389379275"><ele>591.1666666666666</ele><time>2026-03-26T15:44:42Z</time></trkpt><trkpt lat="44.02544817879749" lon="7.978631684554882"><ele>586.3333333333333</ele><time>2026-03-26T15:44:49Z</time></trkpt><trkpt lat="44.02535862463681" lon="7.978529547224699"><ele>581.5</ele><time>2026-03-26T15:44:51Z</time></trkpt><trkpt lat="44.02529857455385" lon="7.978474720964638"><ele>576.6666666666666</ele><time>2026-03-26T15:44:52Z</time></trkpt><trkpt lat="44.02523031956864" lon="7.9784082491301485"><ele>571.8333333333334</ele><time>2026-03-26T15:44:53Z</time></trkpt><trkpt lat="44.025156802430686" lon="7.97834894088963"><ele>567.0</ele><time>2026-03-26T15:44:54Z</time></trkpt><trkpt lat="44.02507016265389" lon="7.978293435008749"><ele>569.2</ele><time>2026-03-26T15:44:56Z</time></trkpt><trkpt lat="44.02499815999781" lon="7.978235054242166"><ele>571.4000000000001</ele><time>2026-03-26T15:44:58Z</time></trkpt><trkpt lat="44.02492710920706" lon="7.978146893376994"><ele>573.5999999999999</ele><time>2026-03-26T15:45:01Z</time></trkpt><trkpt lat="44.024877835014244" lon="7.978041948418179"><ele>575.8</ele><time>2026-03-26T15:45:04Z</time></trkpt><trkpt lat="44.02484062322541" lon="7.977920363808005"><ele>578.0</ele><time>2026-03-26T15:45:07Z</time></trkpt><trkpt lat="44.02480461263532" lon="7.9778084442074775"><ele>578.0</ele><time>2026-03-26T15:45:09Z</time></trkpt><trkpt lat="44.024802734261556" lon="7.97769710771114"><ele>578.0</ele><time>2026-03-26T15:45:11Z</time></trkpt><trkpt lat="44.02478365501619" lon="7.977597793742448"><ele>578.0</ele><time>2026-03-26T15:45:14Z</time></trkpt><trkpt lat="44.02477844315734" lon="7.977480510869618"><ele>578.0</ele><time>2026-03-26T15:45:16Z</time></trkpt><trkpt lat="44.02478947111452" lon="7.977384641954187"><ele>578.0</ele><time>2026-03-26T15:45:18Z</time></trkpt><trkpt lat="44.02479341908717" lon="7.977292095937871"><ele>578.0</ele><time>2026-03-26T15:45:20Z</time></trkpt><trkpt lat="44.024810735373386" lon="7.977190578345489"><ele>573.8333333333333</ele><time>2026-03-26T15:45:23Z</time></trkpt><trkpt lat="44.02488839001055" lon="7.977131639782134"><ele>569.6666666666666</ele><time>2026-03-26T15:45:26Z</time></trkpt><trkpt lat="44.024966817690476" lon="7.977036643784718"><ele>565.5</ele><time>2026-03-26T15:45:28Z</time></trkpt><trkpt lat="44.02502844719509" lon="7.976958588250715"><ele>561.3333333333334</ele><time>2026-03-26T15:45:30Z</time></trkpt><trkpt lat="44.02509097551088" lon="7.976895865143571"><ele>557.1666666666667</ele><time>2026-03-26T15:46:28.001Z</time></trkpt><trkpt lat="44.02517069239617" lon="7.976843098349321"><ele>553.0</ele><time>2026-03-26T15:46:34.001Z</time></trkpt><trkpt lat="44.02525345920097" lon="7.976798671428112"><ele>549.0</ele><time>2026-03-26T15:46:36.001Z</time></trkpt><trkpt lat="44.02534945269" lon="7.976827376078265"><ele>545.0</ele><time>2026-03-26T15:46:38.001Z</time></trkpt><trkpt lat="44.02542026616954" lon="7.976845098982138"><ele>541.0</ele><time>2026-03-26T15:46:39.001Z</time></trkpt><trkpt lat="44.025507191508545" lon="7.976849548315834"><ele>537.0</ele><time>2026-03-26T15:46:40.001Z</time></trkpt><trkpt lat="44.02557617652265" lon="7.97683447358553"><ele>533.0</ele><time>2026-03-26T15:46:41.001Z</time></trkpt><trkpt lat="44.025661774594006" lon="7.976723509597237"><ele>529.0</ele><time>2026-03-26T15:46:43.001Z</time></trkpt><trkpt lat="44.02571580690316" lon="7.976674259896332"><ele>529.0</ele><time>2026-03-26T15:46:44.001Z</time></trkpt><trkpt lat="44.025774914346265" lon="7.9766051538036455"><ele>529.0</ele><time>2026-03-26T15:46:45.001Z</time></trkpt><trkpt lat="44.02583094030772" lon="7.9765463626573165"><ele>529.0</ele><time>2026-03-26T15:46:46.001Z</time></trkpt><trkpt lat="44.02587348041551" lon="7.976474349638206"><ele>529.0</ele><time>2026-03-26T15:46:47.001Z</time></trkpt><trkpt lat="44.025898686168624" lon="7.976372492530225"><ele>529.0</ele><time>2026-03-26T15:46:49Z</time></trkpt><trkpt lat="44.02593115435847" lon="7.976189004717651"><ele>529.0</ele><time>2026-03-26T15:46:56Z</time></trkpt><trkpt lat="44.025950094226005" lon="7.976086526677725"><ele>530.0</ele><time>2026-03-26T15:46:57Z</time></trkpt><trkpt lat="44.0260278729161" lon="7.975993070990901"><ele>531.0</ele><time>2026-03-26T15:46:59Z</time></trkpt><trkpt lat="44.026104844954965" lon="7.9759515191757755"><ele>532.0</ele><time>2026-03-26T15:47:00Z</time></trkpt><trkpt lat="44.026189520518706" lon="7.975919460252651"><ele>533.0</ele><time>2026-03-26T15:47:01Z</time></trkpt><trkpt lat="44.02628915684501" lon="7.975877583676237"><ele>534.0</ele><time>2026-03-26T15:47:02Z</time></trkpt><trkpt lat="44.02638044077281" lon="7.975802513968766"><ele>534.0</ele><time>2026-03-26T15:47:03Z</time></trkpt><trkpt lat="44.0264881507648" lon="7.975711324540053"><ele>534.0</ele><time>2026-03-26T15:47:04Z</time></trkpt><trkpt lat="44.02658710197183" lon="7.975605933441073"><ele>534.0</ele><time>2026-03-26T15:47:05Z</time></trkpt><trkpt lat="44.026660306868315" lon="7.97552552003695"><ele>534.0</ele><time>2026-03-26T15:47:06Z</time></trkpt><trkpt lat="44.02672705088759" lon="7.9754654405170236"><ele>534.0</ele><time>2026-03-26T15:47:07Z</time></trkpt><trkpt lat="44.02682503169412" lon="7.975388554803112"><ele>531.8333333333334</ele><time>2026-03-26T15:47:08Z</time></trkpt><trkpt lat="44.026888729709306" lon="7.975354626561265"><ele>529.6666666666666</ele><time>2026-03-26T15:47:09Z</time></trkpt><trkpt lat="44.0269735897541" lon="7.975292468701972"><ele>527.5</ele><time>2026-03-26T15:47:11Z</time></trkpt><trkpt lat="44.02698750845302" lon="7.975140545076819"><ele>525.3333333333333</ele><time>2026-03-26T15:47:13Z</time></trkpt><trkpt lat="44.02695820795922" lon="7.975048828451295"><ele>523.1666666666666</ele><time>2026-03-26T15:47:14Z</time></trkpt><trkpt lat="44.02690147562428" lon="7.974946962961392"><ele>521.0</ele><time>2026-03-26T15:47:15Z</time></trkpt><trkpt lat="44.0268378562356" lon="7.9748491254539475"><ele>521.0</ele><time>2026-03-26T15:47:16Z</time></trkpt><trkpt lat="44.026796067245456" lon="7.97470962112764"><ele>521.0</ele><time>2026-03-26T15:47:18Z</time></trkpt><trkpt lat="44.02676757295736" lon="7.974630100373929"><ele>521.0</ele><time>2026-03-26T15:47:19Z</time></trkpt><trkpt lat="44.02671793545124" lon="7.974524210702969"><ele>521.0</ele><time>2026-03-26T15:47:20Z</time></trkpt><trkpt lat="44.02666734743502" lon="7.974423653761826"><ele>521.0</ele><time>2026-03-26T15:47:21Z</time></trkpt><trkpt lat="44.02664130794671" lon="7.974338563483072"><ele>521.0</ele><time>2026-03-26T15:47:22Z</time></trkpt><trkpt lat="44.02666876665625" lon="7.974143661131507"><ele>520.6666666666666</ele><time>2026-03-26T15:47:24Z</time></trkpt><trkpt lat="44.02668897639555" lon="7.974025162927088"><ele>520.3333333333333</ele><time>2026-03-26T15:47:25Z</time></trkpt><trkpt lat="44.026729092920085" lon="7.973907114273997"><ele>520.0</ele><time>2026-03-26T15:47:26Z</time></trkpt><trkpt lat="44.026778710905646" lon="7.973843088675296"><ele>519.6666666666666</ele><time>2026-03-26T15:47:27Z</time></trkpt><trkpt lat="44.026862259437465" lon="7.973781921018189"><ele>519.3333333333334</ele><time>2026-03-26T15:47:28Z</time></trkpt><trkpt lat="44.026891887395514" lon="7.973703286874747"><ele>519.0</ele><time>2026-03-26T15:47:29Z</time></trkpt><trkpt lat="44.02687953923996" lon="7.97360741511711"><ele>519.0</ele><time>2026-03-26T15:47:30Z</time></trkpt><trkpt lat="44.026840343730335" lon="7.9735205449444315"><ele>519.0</ele><time>2026-03-26T15:47:31Z</time></trkpt><trkpt lat="44.0267680134878" lon="7.973455042408722"><ele>519.0</ele><time>2026-03-26T15:47:33Z</time></trkpt><trkpt lat="44.02670454441863" lon="7.973443622537431"><ele>519.0</ele><time>2026-03-26T15:47:35Z</time></trkpt><trkpt lat="44.0266406817343" lon="7.973450329921681"><ele>519.0</ele><time>2026-03-26T15:47:36Z</time></trkpt><trkpt lat="44.02655655037806" lon="7.973450235001673"><ele>519.0</ele><time>2026-03-26T15:47:37Z</time></trkpt><trkpt lat="44.026470665888866" lon="7.973472126609027"><ele>519.4</ele><time>2026-03-26T15:47:38Z</time></trkpt><trkpt lat="44.02637378931243" lon="7.973499924353625"><ele>519.8</ele><time>2026-03-26T15:47:39Z</time></trkpt><trkpt lat="44.02628767734611" lon="7.973482019245445"><ele>520.2</ele><time>2026-03-26T15:47:40Z</time></trkpt><trkpt lat="44.02622251512587" lon="7.973430236391172"><ele>520.6</ele><time>2026-03-26T15:47:41Z</time></trkpt><trkpt lat="44.0261280706511" lon="7.973371662841806"><ele>521.0</ele><time>2026-03-26T15:47:42Z</time></trkpt><trkpt lat="44.02601668603926" lon="7.973334991847253"><ele>521.0</ele><time>2026-03-26T15:47:43Z</time></trkpt><trkpt lat="44.02589014337772" lon="7.973318186570841"><ele>521.0</ele><time>2026-03-26T15:47:44Z</time></trkpt><trkpt lat="44.02577345670925" lon="7.973290024526032"><ele>521.0</ele><time>2026-03-26T15:47:45Z</time></trkpt><trkpt lat="44.0256938137768" lon="7.9732649228701495"><ele>521.0</ele><time>2026-03-26T15:47:46Z</time></trkpt><trkpt lat="44.02560225762698" lon="7.9732832651403776"><ele>521.0</ele><time>2026-03-26T15:47:47Z</time></trkpt><trkpt lat="44.02550036306095" lon="7.973270264682371"><ele>526.6</ele><time>2026-03-26T15:47:48Z</time></trkpt><trkpt lat="44.02542672796628" lon="7.97322366546262"><ele>532.2</ele><time>2026-03-26T15:47:49Z</time></trkpt><trkpt lat="44.025354726812694" lon="7.973201872096098"><ele>537.8</ele><time>2026-03-26T15:47:50Z</time></trkpt><trkpt lat="44.02523960169762" lon="7.97317741409883"><ele>543.4</ele><time>2026-03-26T15:47:51Z</time></trkpt><trkpt lat="44.02512788623131" lon="7.973159221250098"><ele>549.0</ele><time>2026-03-26T15:47:52Z</time></trkpt><trkpt lat="44.02503083971569" lon="7.973150595912129"><ele>556.0</ele><time>2026-03-26T15:47:53Z</time></trkpt><trkpt lat="44.02495770427404" lon="7.973035915355892"><ele>563.0</ele><time>2026-03-26T15:47:55Z</time></trkpt><trkpt lat="44.02495367834388" lon="7.972940160290952"><ele>570.0</ele><time>2026-03-26T15:47:56Z</time></trkpt><trkpt lat="44.024961338392146" lon="7.972825081576028"><ele>577.0</ele><time>2026-03-26T15:47:57Z</time></trkpt><trkpt lat="44.02496416309464" lon="7.972721437128302"><ele>584.0</ele><time>2026-03-26T15:47:58Z</time></trkpt><trkpt lat="44.024932800771815" lon="7.97261971149731"><ele>591.0</ele><time>2026-03-26T15:48:00Z</time></trkpt><trkpt lat="44.02487422115069" lon="7.972563324773159"><ele>585.8333333333334</ele><time>2026-03-26T15:48:01Z</time></trkpt><trkpt lat="44.02479729267946" lon="7.972520458191386"><ele>580.6666666666666</ele><time>2026-03-26T15:48:02Z</time></trkpt><trkpt lat="44.02472008569801" lon="7.972438746510787"><ele>575.5</ele><time>2026-03-26T15:48:03Z</time></trkpt><trkpt lat="44.02465304766684" lon="7.972334041936524"><ele>570.3333333333333</ele><time>2026-03-26T15:48:04Z</time></trkpt><trkpt lat="44.024611414087225" lon="7.972249708526323"><ele>565.1666666666666</ele><time>2026-03-26T15:48:05Z</time></trkpt><trkpt lat="44.02455726518877" lon="7.972157171932145"><ele>560.0</ele><time>2026-03-26T15:48:06Z</time></trkpt><trkpt lat="44.024516329369064" lon="7.97204778773359"><ele>560.0</ele><time>2026-03-26T15:48:07Z</time></trkpt><trkpt lat="44.024459235778046" lon="7.971948307509909"><ele>560.0</ele><time>2026-03-26T15:48:08Z</time></trkpt><trkpt lat="44.024393669273174" lon="7.971854566818636"><ele>560.0</ele><time>2026-03-26T15:48:09Z</time></trkpt><trkpt lat="44.024337270410946" lon="7.971768280478538"><ele>560.0</ele><time>2026-03-26T15:48:10Z</time></trkpt><trkpt lat="44.024269339923535" lon="7.971668000113249"><ele>560.0</ele><time>2026-03-26T15:48:11Z</time></trkpt><trkpt lat="44.02423812203681" lon="7.971561434577469"><ele>563.0</ele><time>2026-03-26T15:48:12Z</time></trkpt><trkpt lat="44.024155445748534" lon="7.97146544147537"><ele>566.0</ele><time>2026-03-26T15:48:14Z</time></trkpt><trkpt lat="44.02407222680036" lon="7.97144883603165"><ele>569.0</ele><time>2026-03-26T15:48:15Z</time></trkpt><trkpt lat="44.0240400644111" lon="7.971372229857266"><ele>572.0</ele><time>2026-03-26T15:48:17Z</time></trkpt><trkpt lat="44.02407227089793" lon="7.971265141918726"><ele>575.0</ele><time>2026-03-26T15:48:19Z</time></trkpt><trkpt lat="44.02417159252373" lon="7.9711590585477765"><ele>567.6</ele><time>2026-03-26T15:48:21Z</time></trkpt><trkpt lat="44.02426418180032" lon="7.971059948301741"><ele>560.2</ele><time>2026-03-26T15:48:22Z</time></trkpt><trkpt lat="44.024389305775074" lon="7.9709724853649755"><ele>552.8</ele><time>2026-03-26T15:48:23Z</time></trkpt><trkpt lat="44.02444803721064" lon="7.9709232622789985"><ele>545.4</ele><time>2026-03-26T15:48:24Z</time></trkpt><trkpt lat="44.024526839291184" lon="7.970827383779125"><ele>538.0</ele><time>2026-03-26T15:48:25Z</time></trkpt><trkpt lat="44.02464763804173" lon="7.970663512978739"><ele>538.0</ele><time>2026-03-26T15:48:26Z</time></trkpt><trkpt lat="44.024790639506946" lon="7.970544460346056"><ele>538.0</ele><time>2026-03-26T15:48:27Z</time></trkpt><trkpt lat="44.024874094369146" lon="7.970486244737555"><ele>538.0</ele><time>2026-03-26T15:48:28Z</time></trkpt><trkpt lat="44.02501169173556" lon="7.970449293508864"><ele>538.0</ele><time>2026-03-26T15:48:30Z</time></trkpt><trkpt lat="44.02513162450777" lon="7.970445605859769"><ele>530.5</ele><time>2026-03-26T15:48:31Z</time></trkpt><trkpt lat="44.02523819800959" lon="7.970408184568531"><ele>523.0</ele><time>2026-03-26T15:48:32Z</time></trkpt><trkpt lat="44.02530342880235" lon="7.97033983310537"><ele>515.5</ele><time>2026-03-26T15:48:33.001Z</time></trkpt><trkpt lat="44.02539084255737" lon="7.97022427147502"><ele>508.0</ele><time>2026-03-26T15:48:34.001Z</time></trkpt><trkpt lat="44.02547470619392" lon="7.970060712541088"><ele>507.79999999999995</ele><time>2026-03-26T15:48:35.001Z</time></trkpt><trkpt lat="44.025546837761205" lon="7.969905923883711"><ele>507.59999999999997</ele><time>2026-03-26T15:48:36.001Z</time></trkpt><trkpt lat="44.025604372259316" lon="7.969787088027218"><ele>507.40000000000003</ele><time>2026-03-26T15:48:37.001Z</time></trkpt><trkpt lat="44.025676356355724" lon="7.969697843869008"><ele>507.20000000000005</ele><time>2026-03-26T15:48:38.001Z</time></trkpt><trkpt lat="44.02577561275625" lon="7.969624558886935"><ele>507.0</ele><time>2026-03-26T15:48:39.001Z</time></trkpt><trkpt lat="44.02586911331714" lon="7.969618992454218"><ele>507.0</ele><time>2026-03-26T15:48:40.001Z</time></trkpt><trkpt lat="44.02599087009759" lon="7.969657810651483"><ele>507.0</ele><time>2026-03-26T15:48:41.001Z</time></trkpt><trkpt lat="44.02610904472934" lon="7.969650554155322"><ele>507.0</ele><time>2026-03-26T15:48:42.001Z</time></trkpt><trkpt lat="44.02615749641817" lon="7.969590646625128"><ele>507.0</ele><time>2026-03-26T15:48:43.001Z</time></trkpt><trkpt lat="44.02620492208998" lon="7.969396670035602"><ele>507.0</ele><time>2026-03-26T15:48:45.001Z</time></trkpt><trkpt lat="44.0262783599762" lon="7.969338832065671"><ele>507.00000000000006</ele><time>2026-03-26T15:48:46.001Z</time></trkpt><trkpt lat="44.026405138406794" lon="7.96930103024334"><ele>507.00000000000006</ele><time>2026-03-26T15:48:47.001Z</time></trkpt><trkpt lat="44.026536297911925" lon="7.969283839924841"><ele>507.0</ele><time>2026-03-26T15:48:48.001Z</time></trkpt><trkpt lat="44.02662618354133" lon="7.969329872942082"><ele>507.0</ele><time>2026-03-26T15:48:49.001Z</time></trkpt><trkpt lat="44.02675983795973" lon="7.969388852655111"><ele>510.25</ele><time>2026-03-26T15:48:50.001Z</time></trkpt><trkpt lat="44.02683377321392" lon="7.969377941687627"><ele>513.5</ele><time>2026-03-26T15:48:51.001Z</time></trkpt><trkpt lat="44.02693868475457" lon="7.969265915950563"><ele>516.75</ele><time>2026-03-26T15:48:53.001Z</time></trkpt><trkpt lat="44.02701921042191" lon="7.969118307944227"><ele>520.0</ele><time>2026-03-26T15:48:54Z</time></trkpt><trkpt lat="44.02710696674684" lon="7.968943337112088"><ele>520.0</ele><time>2026-03-26T15:48:55Z</time></trkpt><trkpt lat="44.02722675609446" lon="7.968811061164724"><ele>520.0</ele><time>2026-03-26T15:48:56Z</time></trkpt><trkpt lat="44.02733334782431" lon="7.968679938636573"><ele>520.0</ele><time>2026-03-26T15:48:57Z</time></trkpt><trkpt lat="44.02745723767412" lon="7.968586498017266"><ele>520.0</ele><time>2026-03-26T15:48:58Z</time></trkpt><trkpt lat="44.02755028814372" lon="7.968538528878397"><ele>517.8</ele><time>2026-03-26T15:48:59Z</time></trkpt><trkpt lat="44.02764156086001" lon="7.968551481333716"><ele>515.6</ele><time>2026-03-26T15:49:00Z</time></trkpt><trkpt lat="44.02772968195801" lon="7.968562766496632"><ele>513.4</ele><time>2026-03-26T15:49:01Z</time></trkpt><trkpt lat="44.027767365682934" lon="7.968443074514859"><ele>511.2</ele><time>2026-03-26T15:49:04Z</time></trkpt><trkpt lat="44.027762382074236" lon="7.968323988982241"><ele>509.0</ele><time>2026-03-26T15:49:27Z</time></trkpt><trkpt lat="44.027685667461036" lon="7.968160116311204"><ele>509.0</ele><time>2026-03-26T15:49:29Z</time></trkpt><trkpt lat="44.02762576667042" lon="7.968035524401742"><ele>509.0</ele><time>2026-03-26T15:49:30Z</time></trkpt><trkpt lat="44.02752585160087" lon="7.967905627598442"><ele>509.0</ele><time>2026-03-26T15:49:31Z</time></trkpt><trkpt lat="44.02741468441703" lon="7.967743219323208"><ele>509.0</ele><time>2026-03-26T15:49:32Z</time></trkpt><trkpt lat="44.02732716110579" lon="7.967634460155636"><ele>515.3333333333333</ele><time>2026-03-26T15:49:33Z</time></trkpt><trkpt lat="44.02727470171907" lon="7.967553252082708"><ele>521.6666666666666</ele><time>2026-03-26T15:49:34Z</time></trkpt><trkpt lat="44.02729595069217" lon="7.967430563582422"><ele>528.0</ele><time>2026-03-26T15:49:36Z</time></trkpt><trkpt lat="44.02735543867362" lon="7.96734639976992"><ele>534.3333333333334</ele><time>2026-03-26T15:49:37Z</time></trkpt><trkpt lat="44.027437808795504" lon="7.967234893768619"><ele>540.6666666666667</ele><time>2026-03-26T15:49:38Z</time></trkpt><trkpt lat="44.02746669931264" lon="7.967137565005029"><ele>547.0</ele><time>2026-03-26T15:49:40Z</time></trkpt><trkpt lat="44.027417540338654" lon="7.967071475070051"><ele>547.0</ele><time>2026-03-26T15:49:41Z</time></trkpt><trkpt lat="44.02733361692991" lon="7.967044097568644"><ele>547.0</ele><time>2026-03-26T15:49:42Z</time></trkpt><trkpt lat="44.027216242081856" lon="7.967019362088141"><ele>547.0</ele><time>2026-03-26T15:49:43Z</time></trkpt><trkpt lat="44.027119963749676" lon="7.966965693115975"><ele>547.0</ele><time>2026-03-26T15:49:44Z</time></trkpt><trkpt lat="44.027033975136995" lon="7.96690631593052"><ele>547.0</ele><time>2026-03-26T15:49:45Z</time></trkpt><trkpt lat="44.02690799706419" lon="7.966852358167193"><ele>547.0</ele><time>2026-03-26T15:49:46Z</time></trkpt><trkpt lat="44.02681210121946" lon="7.96679027709579"><ele>547.0</ele><time>2026-03-26T15:49:47Z</time></trkpt><trkpt lat="44.026740348348085" lon="7.966717528998036"><ele>547.0</ele><time>2026-03-26T15:49:48Z</time></trkpt><trkpt lat="44.026764909637386" lon="7.96632272514152"><ele>538.5</ele><time>2026-03-26T15:49:49Z</time></trkpt><trkpt lat="44.0270843695816" lon="7.966011751257542"><ele>530.0</ele><time>2026-03-26T15:49:50Z</time></trkpt><trkpt lat="44.02707591116958" lon="7.965879154841299"><ele>530.75</ele><time>2026-03-26T15:49:51Z</time></trkpt><trkpt lat="44.02713529707059" lon="7.965789779599226"><ele>531.5</ele><time>2026-03-26T15:49:54Z</time></trkpt><trkpt lat="44.027227362389546" lon="7.965806220372879"><ele>532.25</ele><time>2026-03-26T15:49:55Z</time></trkpt><trkpt lat="44.027325840900346" lon="7.965835711345649"><ele>533.0</ele><time>2026-03-26T15:49:56Z</time></trkpt><trkpt lat="44.02749659842732" lon="7.965880157822333"><ele>527.0</ele><time>2026-03-26T15:49:57Z</time></trkpt><trkpt lat="44.0276455073097" lon="7.9658970252270125"><ele>521.0</ele><time>2026-03-26T15:49:58Z</time></trkpt><trkpt lat="44.02778975658873" lon="7.96589865897048"><ele>515.0</ele><time>2026-03-26T15:49:59Z</time></trkpt><trkpt lat="44.02791711044916" lon="7.96590342304952"><ele>509.0</ele><time>2026-03-26T15:50:00Z</time></trkpt><trkpt lat="44.028033566168276" lon="7.965803769683012"><ele>509.0</ele><time>2026-03-26T15:50:02Z</time></trkpt><trkpt lat="44.028038634815566" lon="7.9656191280058275"><ele>509.0</ele><time>2026-03-26T15:50:04Z</time></trkpt><trkpt lat="44.02802902508468" lon="7.965459458454701"><ele>509.0</ele><time>2026-03-26T15:50:05Z</time></trkpt><trkpt lat="44.02802490987987" lon="7.965344456458758"><ele>509.0</ele><time>2026-03-26T15:50:06Z</time></trkpt><trkpt lat="44.028041302602546" lon="7.965229788701987"><ele>509.0</ele><time>2026-03-26T15:50:09.001Z</time></trkpt><trkpt lat="44.028070333206536" lon="7.965145790192834"><ele>509.0</ele><time>2026-03-26T15:50:10.001Z</time></trkpt><trkpt lat="44.02820466460223" lon="7.965130475327305"><ele>509.0</ele><time>2026-03-26T15:50:12.001Z</time></trkpt><trkpt lat="44.02836817017552" lon="7.965115438092901"><ele>509.0</ele><time>2026-03-26T15:50:13.001Z</time></trkpt><trkpt lat="44.028526720855446" lon="7.965071060027976"><ele>503.79999999999995</ele><time>2026-03-26T15:50:14.001Z</time></trkpt><trkpt lat="44.02863041092274" lon="7.965049168059482"><ele>498.59999999999997</ele><time>2026-03-26T15:50:15.001Z</time></trkpt><trkpt lat="44.02870440767789" lon="7.965112728213219"><ele>493.4</ele><time>2026-03-26T15:50:16.001Z</time></trkpt><trkpt lat="44.028771734720415" lon="7.96523557890368"><ele>488.2</ele><time>2026-03-26T15:50:17.001Z</time></trkpt><trkpt lat="44.02885239643017" lon="7.9653908057232465"><ele>483.0</ele><time>2026-03-26T15:50:18.001Z</time></trkpt><trkpt lat="44.0289290756637" lon="7.96547642672156"><ele>483.0</ele><time>2026-03-26T15:50:19.001Z</time></trkpt><trkpt lat="44.028992019478444" lon="7.96551104747645"><ele>482.99999999999994</ele><time>2026-03-26T15:50:20.001Z</time></trkpt><trkpt lat="44.029126841357225" lon="7.96555238074522"><ele>482.99999999999994</ele><time>2026-03-26T15:50:21.001Z</time></trkpt><trkpt lat="44.029254616260346" lon="7.965564881465273"><ele>483.0</ele><time>2026-03-26T15:50:22.001Z</time></trkpt><trkpt lat="44.0293423739839" lon="7.965578231323403"><ele>483.0</ele><time>2026-03-26T15:50:23.001Z</time></trkpt><trkpt lat="44.02944208861207" lon="7.9655599164987"><ele>483.79999999999995</ele><time>2026-03-26T15:50:24.001Z</time></trkpt><trkpt lat="44.02958935252172" lon="7.965542735222429"><ele>484.59999999999997</ele><time>2026-03-26T15:50:26.001Z</time></trkpt><trkpt lat="44.0296611460929" lon="7.965585045987041"><ele>485.40000000000003</ele><time>2026-03-26T15:50:27.001Z</time></trkpt><trkpt lat="44.02971665307488" lon="7.9657117885646676"><ele>486.20000000000005</ele><time>2026-03-26T15:50:29.001Z</time></trkpt><trkpt lat="44.02980274722596" lon="7.965807138727298"><ele>487.0</ele><time>2026-03-26T15:50:30.001Z</time></trkpt><trkpt lat="44.02990414096277" lon="7.965902842509669"><ele>483.20000000000005</ele><time>2026-03-26T15:50:31.001Z</time></trkpt><trkpt lat="44.03001759579497" lon="7.966012371504595"><ele>479.40000000000003</ele><time>2026-03-26T15:50:32.001Z</time></trkpt><trkpt lat="44.03010090244289" lon="7.966102622483534"><ele>475.59999999999997</ele><time>2026-03-26T15:50:33.001Z</time></trkpt><trkpt lat="44.03019890986082" lon="7.966088609425872"><ele>471.79999999999995</ele><time>2026-03-26T15:50:35.001Z</time></trkpt><trkpt lat="44.03024876796656" lon="7.9660207368005285"><ele>468.0</ele><time>2026-03-26T15:50:36.001Z</time></trkpt><trkpt lat="44.03031589775912" lon="7.965897887479444"><ele>475.75</ele><time>2026-03-26T15:50:37.001Z</time></trkpt><trkpt lat="44.03041602250771" lon="7.965771431357451"><ele>483.5</ele><time>2026-03-26T15:50:38.001Z</time></trkpt><trkpt lat="44.03053570777941" lon="7.965683531744781"><ele>491.25</ele><time>2026-03-26T15:50:39.001Z</time></trkpt><trkpt lat="44.030651351920206" lon="7.965630856093883"><ele>499.0</ele><time>2026-03-26T15:50:40.001Z</time></trkpt><trkpt lat="44.03077348821271" lon="7.965556557135085"><ele>497.5</ele><time>2026-03-26T15:50:41.001Z</time></trkpt><trkpt lat="44.030903931880914" lon="7.965491581552276"><ele>496.0</ele><time>2026-03-26T15:50:42.001Z</time></trkpt><trkpt lat="44.03102304552431" lon="7.965483802597215"><ele>494.5</ele><time>2026-03-26T15:50:43.001Z</time></trkpt><trkpt lat="44.03111748246815" lon="7.965531505590579"><ele>493.0</ele><time>2026-03-26T15:50:44.001Z</time></trkpt><trkpt lat="44.03120014907271" lon="7.965613941903106"><ele>493.0</ele><time>2026-03-26T15:50:45.001Z</time></trkpt><trkpt lat="44.03131666092633" lon="7.965712816011213"><ele>493.0</ele><time>2026-03-26T15:50:46.001Z</time></trkpt><trkpt lat="44.031446853810834" lon="7.965833967966463"><ele>493.0</ele><time>2026-03-26T15:50:47.001Z</time></trkpt><trkpt lat="44.031551749501254" lon="7.965961616975903"><ele>493.0</ele><time>2026-03-26T15:50:48.001Z</time></trkpt><trkpt lat="44.03162786298061" lon="7.966066819662851"><ele>491.59999999999997</ele><time>2026-03-26T15:50:49.001Z</time></trkpt><trkpt lat="44.03168666830731" lon="7.966112836017621"><ele>490.19999999999993</ele><time>2026-03-26T15:50:50.001Z</time></trkpt><trkpt lat="44.03176219478735" lon="7.966027028453519"><ele>488.8</ele><time>2026-03-26T15:50:52.001Z</time></trkpt><trkpt lat="44.03181269258626" lon="7.965913480113445"><ele>487.4</ele><time>2026-03-26T15:50:53.001Z</time></trkpt><trkpt lat="44.03184614930548" lon="7.9657624777681795"><ele>486.0</ele><time>2026-03-26T15:50:54.001Z</time></trkpt><trkpt lat="44.031861318861374" lon="7.965597585475873"><ele>486.0</ele><time>2026-03-26T15:50:55.001Z</time></trkpt><trkpt lat="44.03188608570884" lon="7.965477459163679"><ele>486.0</ele><time>2026-03-26T15:50:56.001Z</time></trkpt><trkpt lat="44.03189123400646" lon="7.965373357171232"><ele>486.0</ele><time>2026-03-26T15:50:57.001Z</time></trkpt><trkpt lat="44.0318890919473" lon="7.965272853238955"><ele>486.0</ele><time>2026-03-26T15:50:58.001Z</time></trkpt><trkpt lat="44.03190420116484" lon="7.965173482182695"><ele>486.0</ele><time>2026-03-26T15:50:59.001Z</time></trkpt><trkpt lat="44.03196219180202" lon="7.965079797979865"><ele>486.0</ele><time>2026-03-26T15:51:00.001Z</time></trkpt><trkpt lat="44.032038628072016" lon="7.965046473567128"><ele>486.0</ele><time>2026-03-26T15:51:01.001Z</time></trkpt><trkpt lat="44.032211872311215" lon="7.965039326517955"><ele>486.0</ele><time>2026-03-26T15:51:03.001Z</time></trkpt><trkpt lat="44.032359199994346" lon="7.964996274231864"><ele>486.0</ele><time>2026-03-26T15:51:04.001Z</time></trkpt><trkpt lat="44.03247006856577" lon="7.9649419334988405"><ele>486.0</ele><time>2026-03-26T15:51:05.001Z</time></trkpt><trkpt lat="44.0324914273971" lon="7.964802913369565"><ele>483.20000000000005</ele><time>2026-03-26T15:51:07.001Z</time></trkpt><trkpt lat="44.03247877405776" lon="7.964689771865299"><ele>480.40000000000003</ele><time>2026-03-26T15:51:08.001Z</time></trkpt><trkpt lat="44.03243538459269" lon="7.964572268558921"><ele>477.6</ele><time>2026-03-26T15:51:09.001Z</time></trkpt><trkpt lat="44.03236464369955" lon="7.964486548360455"><ele>474.8</ele><time>2026-03-26T15:51:10.001Z</time></trkpt><trkpt lat="44.032301835886315" lon="7.964439693138934"><ele>472.0</ele><time>2026-03-26T15:51:11.001Z</time></trkpt><trkpt lat="44.03222759421768" lon="7.964249204441426"><ele>482.8</ele><time>2026-03-26T15:51:13.001Z</time></trkpt><trkpt lat="44.03222796636794" lon="7.964083344556512"><ele>493.6</ele><time>2026-03-26T15:51:14.001Z</time></trkpt><trkpt lat="44.032225514547356" lon="7.963908912844799"><ele>504.40000000000003</ele><time>2026-03-26T15:51:15.001Z</time></trkpt><trkpt lat="44.03221784038305" lon="7.963768259018652"><ele>515.2</ele><time>2026-03-26T15:51:16.001Z</time></trkpt><trkpt lat="44.03228447296064" lon="7.9636860654837776"><ele>526.0</ele><time>2026-03-26T15:51:18.001Z</time></trkpt><trkpt lat="44.03235816323323" lon="7.963618793517067"><ele>526.0</ele><time>2026-03-26T15:51:19.001Z</time></trkpt><trkpt lat="44.03241325708471" lon="7.963548925993548"><ele>526.0</ele><time>2026-03-26T15:51:20.001Z</time></trkpt><trkpt lat="44.03246009657377" lon="7.9634819536145205"><ele>526.0</ele><time>2026-03-26T15:51:21.001Z</time></trkpt><trkpt lat="44.032488969266765" lon="7.963395515485885"><ele>526.0</ele><time>2026-03-26T15:51:22.001Z</time></trkpt><trkpt lat="44.032555689235906" lon="7.963283043730997"><ele>526.0</ele><time>2026-03-26T15:51:23.001Z</time></trkpt><trkpt lat="44.03266287088182" lon="7.963163864200101"><ele>520.4</ele><time>2026-03-26T15:51:24.001Z</time></trkpt><trkpt lat="44.03277897176316" lon="7.963034769633432"><ele>514.8</ele><time>2026-03-26T15:51:25.001Z</time></trkpt><trkpt lat="44.032881898303046" lon="7.962933549590437"><ele>509.19999999999993</ele><time>2026-03-26T15:51:26.001Z</time></trkpt><trkpt lat="44.03295147645855" lon="7.962893863769722"><ele>503.59999999999997</ele><time>2026-03-26T15:51:27.001Z</time></trkpt><trkpt lat="44.03303809366072" lon="7.962875032381738"><ele>498.0</ele><time>2026-03-26T15:51:28.001Z</time></trkpt><trkpt lat="44.0331434621962" lon="7.962877668000839"><ele>498.0</ele><time>2026-03-26T15:51:29.001Z</time></trkpt><trkpt lat="44.033265019321554" lon="7.962873248442313"><ele>497.99999999999994</ele><time>2026-03-26T15:51:30.001Z</time></trkpt><trkpt lat="44.0334088956617" lon="7.962848925004671"><ele>497.99999999999994</ele><time>2026-03-26T15:51:31.001Z</time></trkpt><trkpt lat="44.03352507082659" lon="7.962833626049677"><ele>498.0</ele><time>2026-03-26T15:51:32.001Z</time></trkpt><trkpt lat="44.03358398985522" lon="7.962794553798029"><ele>498.0</ele><time>2026-03-26T15:51:33.001Z</time></trkpt><trkpt lat="44.033678010912716" lon="7.9627162198415835"><ele>496.79999999999995</ele><time>2026-03-26T15:51:34.001Z</time></trkpt><trkpt lat="44.03378703013695" lon="7.962592604029087"><ele>495.59999999999997</ele><time>2026-03-26T15:51:35.001Z</time></trkpt><trkpt lat="44.03386368382462" lon="7.962503332643232"><ele>494.40000000000003</ele><time>2026-03-26T15:51:36.001Z</time></trkpt><trkpt lat="44.03384042254656" lon="7.962345132756427"><ele>493.20000000000005</ele><time>2026-03-26T15:51:39.001Z</time></trkpt><trkpt lat="44.03377449900722" lon="7.962268817553388"><ele>492.0</ele><time>2026-03-26T15:51:40.001Z</time></trkpt><trkpt lat="44.033678833322696" lon="7.962201746165439"><ele>492.0</ele><time>2026-03-26T15:51:41.001Z</time></trkpt><trkpt lat="44.0335609979458" lon="7.962126210750758"><ele>492.0</ele><time>2026-03-26T15:51:42.001Z</time></trkpt><trkpt lat="44.03345875489107" lon="7.962005233573528"><ele>492.0</ele><time>2026-03-26T15:51:43.001Z</time></trkpt><trkpt lat="44.03338856200868" lon="7.9618945965994605"><ele>492.0</ele><time>2026-03-26T15:51:44.001Z</time></trkpt><trkpt lat="44.0333627491452" lon="7.961769829142889"><ele>492.0</ele><time>2026-03-26T15:51:45.001Z</time></trkpt><trkpt lat="44.033341248752016" lon="7.961658018237626"><ele>492.00000000000006</ele><time>2026-03-26T15:51:46.001Z</time></trkpt><trkpt lat="44.03326156798004" lon="7.961496361374728"><ele>492.00000000000006</ele><time>2026-03-26T15:51:47.001Z</time></trkpt><trkpt lat="44.03319134709369" lon="7.961387914235806"><ele>492.0</ele><time>2026-03-26T15:51:48.001Z</time></trkpt><trkpt lat="44.03311396409048" lon="7.961364938430469"><ele>492.0</ele><time>2026-03-26T15:51:49.001Z</time></trkpt><trkpt lat="44.03303093840141" lon="7.96135936029252"><ele>492.0</ele><time>2026-03-26T15:51:50.001Z</time></trkpt><trkpt lat="44.032946453341076" lon="7.961401721790574"><ele>492.00000000000006</ele><time>2026-03-26T15:51:51.001Z</time></trkpt><trkpt lat="44.03283155205538" lon="7.961449631745675"><ele>492.00000000000006</ele><time>2026-03-26T15:51:52.001Z</time></trkpt><trkpt lat="44.03275064870269" lon="7.961479376422625"><ele>492.0</ele><time>2026-03-26T15:51:53.001Z</time></trkpt><trkpt lat="44.03265848020603" lon="7.9614947114417784"><ele>492.0</ele><time>2026-03-26T15:51:54.001Z</time></trkpt><trkpt lat="44.03252938826247" lon="7.961508923186503"><ele>496.1666666666667</ele><time>2026-03-26T15:51:55.001Z</time></trkpt><trkpt lat="44.032430391446404" lon="7.961481221858445"><ele>500.33333333333337</ele><time>2026-03-26T15:51:56.001Z</time></trkpt><trkpt lat="44.03235939552416" lon="7.961417956335641"><ele>504.5</ele><time>2026-03-26T15:51:57.001Z</time></trkpt><trkpt lat="44.03230348432696" lon="7.96134836569194"><ele>508.6666666666667</ele><time>2026-03-26T15:51:58.001Z</time></trkpt><trkpt lat="44.032262070806745" lon="7.961265312246926"><ele>512.8333333333334</ele><time>2026-03-26T15:51:59.001Z</time></trkpt><trkpt lat="44.03221632827221" lon="7.961136199864478"><ele>517.0</ele><time>2026-03-26T15:52:00.001Z</time></trkpt><trkpt lat="44.032177932471804" lon="7.960998332970199"><ele>517.0</ele><time>2026-03-26T15:52:01.001Z</time></trkpt><trkpt lat="44.03214288847471" lon="7.960925274172884"><ele>517.0</ele><time>2026-03-26T15:52:02.001Z</time></trkpt><trkpt lat="44.03211266769529" lon="7.960781027656259"><ele>517.0</ele><time>2026-03-26T15:52:04.001Z</time></trkpt><trkpt lat="44.03211348391311" lon="7.960627789950767"><ele>517.0</ele><time>2026-03-26T15:52:05.001Z</time></trkpt><trkpt lat="44.03209499391843" lon="7.960485880939994"><ele>517.0</ele><time>2026-03-26T15:52:06.001Z</time></trkpt><trkpt lat="44.03204645310411" lon="7.9603667780011715"><ele>510.75</ele><time>2026-03-26T15:52:07.001Z</time></trkpt><trkpt lat="44.03196242554339" lon="7.960275648618149"><ele>504.5</ele><time>2026-03-26T15:52:08.001Z</time></trkpt><trkpt lat="44.03185588483783" lon="7.960133546419258"><ele>498.25</ele><time>2026-03-26T15:52:09.001Z</time></trkpt><trkpt lat="44.031796644654875" lon="7.960010179611976"><ele>492.0</ele><time>2026-03-26T15:52:10.001Z</time></trkpt><trkpt lat="44.03176918583799" lon="7.959882617094486"><ele>494.20000000000005</ele><time>2026-03-26T15:52:11.001Z</time></trkpt><trkpt lat="44.03172628683245" lon="7.959797310987792"><ele>496.40000000000003</ele><time>2026-03-26T15:52:12.001Z</time></trkpt><trkpt lat="44.03162033731931" lon="7.959784819869745"><ele>498.59999999999997</ele><time>2026-03-26T15:52:14.001Z</time></trkpt><trkpt lat="44.03151652067726" lon="7.959795597022972"><ele>500.79999999999995</ele><time>2026-03-26T15:52:15.001Z</time></trkpt><trkpt lat="44.03142372188129" lon="7.959756929473038"><ele>503.0</ele><time>2026-03-26T15:52:16.001Z</time></trkpt><trkpt lat="44.031373928864376" lon="7.959667421675589"><ele>503.0</ele><time>2026-03-26T15:52:17.001Z</time></trkpt><trkpt lat="44.03133386908553" lon="7.959548811830371"><ele>502.99999999999994</ele><time>2026-03-26T15:52:18.001Z</time></trkpt><trkpt lat="44.03126576941545" lon="7.959458308418545"><ele>502.99999999999994</ele><time>2026-03-26T15:52:19.001Z</time></trkpt><trkpt lat="44.031162163027915" lon="7.959387512230743"><ele>503.0</ele><time>2026-03-26T15:52:20.001Z</time></trkpt><trkpt lat="44.031055516260764" lon="7.959316628838197"><ele>503.0</ele><time>2026-03-26T15:52:21.001Z</time></trkpt><trkpt lat="44.03097672927912" lon="7.959247145501669"><ele>498.4</ele><time>2026-03-26T15:52:22.001Z</time></trkpt><trkpt lat="44.030899374878985" lon="7.959152273692587"><ele>493.79999999999995</ele><time>2026-03-26T15:52:23.001Z</time></trkpt><trkpt lat="44.03084836192659" lon="7.959065994182322"><ele>489.2</ele><time>2026-03-26T15:52:24.001Z</time></trkpt><trkpt lat="44.03087682422568" lon="7.958921472326957"><ele>484.6</ele><time>2026-03-26T15:52:26.001Z</time></trkpt><trkpt lat="44.030971680149136" lon="7.958849738967557"><ele>480.0</ele><time>2026-03-26T15:52:28.001Z</time></trkpt><trkpt lat="44.03104213376507" lon="7.958815335986759"><ele>480.0</ele><time>2026-03-26T15:52:29.001Z</time></trkpt><trkpt lat="44.03113434961352" lon="7.958705657142115"><ele>480.0</ele><time>2026-03-26T15:52:30.001Z</time></trkpt><trkpt lat="44.031216367663504" lon="7.958635409323067"><ele>480.0</ele><time>2026-03-26T15:52:31.001Z</time></trkpt><trkpt lat="44.03126903569566" lon="7.9585772685481935"><ele>480.0</ele><time>2026-03-26T15:52:32.001Z</time></trkpt><trkpt lat="44.031344918786196" lon="7.958493220055613"><ele>480.0</ele><time>2026-03-26T15:52:33.001Z</time></trkpt><trkpt lat="44.031445749493244" lon="7.958398750779933"><ele>482.25</ele><time>2026-03-26T15:52:34.001Z</time></trkpt><trkpt lat="44.0315320711917" lon="7.958340590692552"><ele>484.5</ele><time>2026-03-26T15:52:35.001Z</time></trkpt><trkpt lat="44.031653274293056" lon="7.958290494953758"><ele>486.75</ele><time>2026-03-26T15:52:36.001Z</time></trkpt><trkpt lat="44.031785236203" lon="7.9582595044964375"><ele>489.0</ele><time>2026-03-26T15:52:37.001Z</time></trkpt><trkpt lat="44.03190605877946" lon="7.9582507153614035"><ele>483.6</ele><time>2026-03-26T15:52:38.001Z</time></trkpt><trkpt lat="44.03205340833812" lon="7.958203421170343"><ele>478.2</ele><time>2026-03-26T15:52:39.001Z</time></trkpt><trkpt lat="44.03213459499543" lon="7.958157653527398"><ele>472.80000000000007</ele><time>2026-03-26T15:52:40.001Z</time></trkpt><trkpt lat="44.0321385865244" lon="7.958055263233045"><ele>467.40000000000003</ele><time>2026-03-26T15:52:42.001Z</time></trkpt><trkpt lat="44.03212033750186" lon="7.9579435153495615"><ele>462.0</ele><time>2026-03-26T15:52:43.001Z</time></trkpt><trkpt lat="44.032081780333904" lon="7.957805205854567"><ele>462.0</ele><time>2026-03-26T15:52:44.001Z</time></trkpt><trkpt lat="44.03204597893839" lon="7.95765898513598"><ele>462.0</ele><time>2026-03-26T15:52:45.001Z</time></trkpt><trkpt lat="44.032064922105775" lon="7.957572309772371"><ele>462.0</ele><time>2026-03-26T15:52:46.001Z</time></trkpt><trkpt lat="44.03214492585415" lon="7.95749072551196"><ele>462.0</ele><time>2026-03-26T15:52:48.001Z</time></trkpt><trkpt lat="44.03223371677288" lon="7.957448355938916"><ele>462.0</ele><time>2026-03-26T15:52:50.001Z</time></trkpt><trkpt lat="44.032297337411514" lon="7.957451749612231"><ele>462.0</ele><time>2026-03-26T15:52:51.001Z</time></trkpt><trkpt lat="44.032460814311115" lon="7.957468099472866"><ele>460.75</ele><time>2026-03-26T15:52:52.001Z</time></trkpt><trkpt lat="44.03257590035362" lon="7.9574373269497976"><ele>459.5</ele><time>2026-03-26T15:52:53.001Z</time></trkpt><trkpt lat="44.03271948534069" lon="7.957340261216544"><ele>458.25</ele><time>2026-03-26T15:52:54.001Z</time></trkpt><trkpt lat="44.03286823517996" lon="7.957300566558177"><ele>457.0</ele><time>2026-03-26T15:52:55.001Z</time></trkpt><trkpt lat="44.03296494186646" lon="7.957299402169416"><ele>457.0</ele><time>2026-03-26T15:52:56.001Z</time></trkpt><trkpt lat="44.03305027566467" lon="7.957300887990957"><ele>457.00000000000006</ele><time>2026-03-26T15:52:57.001Z</time></trkpt><trkpt lat="44.03307456067313" lon="7.957179739768288"><ele>457.00000000000006</ele><time>2026-03-26T15:52:59.001Z</time></trkpt><trkpt lat="44.03305696678367" lon="7.95705017852951"><ele>457.0</ele><time>2026-03-26T15:53:00.001Z</time></trkpt><trkpt lat="44.033037266480726" lon="7.9569062111165225"><ele>457.0</ele><time>2026-03-26T15:53:01.001Z</time></trkpt><trkpt lat="44.033231564933075" lon="7.95679424043948"><ele>457.0</ele><time>2026-03-26T15:53:02.001Z</time></trkpt><trkpt lat="44.03323843020108" lon="7.956705868175852"><ele>457.0</ele><time>2026-03-26T15:53:03.001Z</time></trkpt><trkpt lat="44.033019444535135" lon="7.956611073868337"><ele>457.0</ele><time>2026-03-26T15:53:30.001Z</time></trkpt><trkpt lat="44.03305326828234" lon="7.956453218801514"><ele>457.0</ele><time>2026-03-26T15:57:30Z</time></trkpt><trkpt lat="44.03307333225235" lon="7.956324476920485"><ele>463.20000000000005</ele><time>2026-03-26T15:57:31Z</time></trkpt><trkpt lat="44.03308140100074" lon="7.956201778186058"><ele>469.40000000000003</ele><time>2026-03-26T15:57:32Z</time></trkpt><trkpt lat="44.03309613908617" lon="7.95611422783062"><ele>475.59999999999997</ele><time>2026-03-26T15:57:33Z</time></trkpt><trkpt lat="44.033089862186266" lon="7.955944525729361"><ele>481.79999999999995</ele><time>2026-03-26T15:57:34Z</time></trkpt><trkpt lat="44.033092096899004" lon="7.95575928350624"><ele>488.0</ele><time>2026-03-26T15:57:35Z</time></trkpt><trkpt lat="44.03307843178129" lon="7.9555688592501435"><ele>490.4</ele><time>2026-03-26T15:57:36Z</time></trkpt><trkpt lat="44.0330783569691" lon="7.955770958120478"><ele>492.79999999999995</ele><time>2026-03-26T15:57:37Z</time></trkpt><trkpt lat="44.03307480243994" lon="7.9556666433941405"><ele>495.2</ele><time>2026-03-26T15:57:38Z</time></trkpt><trkpt lat="44.03306468115199" lon="7.955523374864696"><ele>497.6</ele><time>2026-03-26T15:57:39Z</time></trkpt><trkpt lat="44.03307857770641" lon="7.955383974416852"><ele>500.0</ele><time>2026-03-26T15:57:40Z</time></trkpt><trkpt lat="44.033113621164446" lon="7.955309363934267"><ele>499.99999999999994</ele><time>2026-03-26T15:57:41Z</time></trkpt><trkpt lat="44.03317430599798" lon="7.955253074981756"><ele>500.0</ele><time>2026-03-26T15:57:42Z</time></trkpt><trkpt lat="44.03325259077375" lon="7.955234384526781"><ele>500.0</ele><time>2026-03-26T15:57:43Z</time></trkpt><trkpt lat="44.0333283325893" lon="7.955212920337859"><ele>500.0</ele><time>2026-03-26T15:57:44Z</time></trkpt><trkpt lat="44.03339323727474" lon="7.955158767684107"><ele>499.99999999999994</ele><time>2026-03-26T15:57:45Z</time></trkpt><trkpt lat="44.03345903354618" lon="7.955089257616159"><ele>500.0</ele><time>2026-03-26T15:57:46Z</time></trkpt><trkpt lat="44.03353232858689" lon="7.95498720215178"><ele>492.25</ele><time>2026-03-26T15:57:47Z</time></trkpt><trkpt lat="44.03361909016351" lon="7.954859896542537"><ele>484.5</ele><time>2026-03-26T15:57:48Z</time></trkpt><trkpt lat="44.033699669608126" lon="7.954756988768925"><ele>476.75</ele><time>2026-03-26T15:57:49Z</time></trkpt><trkpt lat="44.03376576562895" lon="7.954640011321752"><ele>469.0</ele><time>2026-03-26T15:57:50Z</time></trkpt><trkpt lat="44.03380613401582" lon="7.954487710172148"><ele>469.0</ele><time>2026-03-26T15:57:51Z</time></trkpt><trkpt lat="44.03382836768487" lon="7.954300312147967"><ele>469.0</ele><time>2026-03-26T15:57:52Z</time></trkpt><trkpt lat="44.03385634967495" lon="7.95415240952031"><ele>469.0</ele><time>2026-03-26T15:57:53Z</time></trkpt><trkpt lat="44.033942463514" lon="7.954124740321417"><ele>469.0</ele><time>2026-03-26T15:57:54Z</time></trkpt><trkpt lat="44.03401160404615" lon="7.954008968399753"><ele>469.0</ele><time>2026-03-26T15:57:55Z</time></trkpt><trkpt lat="44.03411120016996" lon="7.953904557096961"><ele>469.0</ele><time>2026-03-26T15:57:56Z</time></trkpt><trkpt lat="44.03420177174804" lon="7.95376531502391"><ele>469.0</ele><time>2026-03-26T15:57:57Z</time></trkpt><trkpt lat="44.03429332963942" lon="7.953610142598222"><ele>469.0</ele><time>2026-03-26T15:57:58Z</time></trkpt><trkpt lat="44.03438257063819" lon="7.953463906904103"><ele>469.0</ele><time>2026-03-26T15:57:59Z</time></trkpt><trkpt lat="44.03446819509571" lon="7.953399409576385"><ele>469.00000000000006</ele><time>2026-03-26T15:58:00Z</time></trkpt><trkpt lat="44.03454740265294" lon="7.953358721775187"><ele>469.0</ele><time>2026-03-26T15:58:01Z</time></trkpt><trkpt lat="44.034618656367606" lon="7.953375167799947"><ele>469.0</ele><time>2026-03-26T15:58:02Z</time></trkpt><trkpt lat="44.034699251684486" lon="7.953401512117583"><ele>469.0</ele><time>2026-03-26T15:58:03Z</time></trkpt><trkpt lat="44.03477477583649" lon="7.9534927589396425"><ele>469.00000000000006</ele><time>2026-03-26T15:58:04Z</time></trkpt><trkpt lat="44.034848364100256" lon="7.953584176126737"><ele>469.0</ele><time>2026-03-26T15:58:05Z</time></trkpt><trkpt lat="44.03490234694596" lon="7.953650538715091"><ele>469.00000000000006</ele><time>2026-03-26T15:58:06Z</time></trkpt><trkpt lat="44.034968883788196" lon="7.95371137877048"><ele>469.0</ele><time>2026-03-26T15:58:10Z</time></trkpt><trkpt lat="44.035073098035184" lon="7.953748701005445"><ele>469.0</ele><time>2026-03-26T15:58:12Z</time></trkpt><trkpt lat="44.03513336388697" lon="7.953721293096604"><ele>469.0</ele><time>2026-03-26T15:59:11Z</time></trkpt><trkpt lat="44.03521226322958" lon="7.953694936599008"><ele>469.00000000000006</ele><time>2026-03-26T15:59:12Z</time></trkpt><trkpt lat="44.03531134717633" lon="7.9536907921738935"><ele>469.0</ele><time>2026-03-26T15:59:13Z</time></trkpt><trkpt lat="44.03541725445018" lon="7.953678249386189"><ele>468.75</ele><time>2026-03-26T15:59:14Z</time></trkpt><trkpt lat="44.03554599289176" lon="7.953682388190256"><ele>468.5</ele><time>2026-03-26T15:59:15Z</time></trkpt><trkpt lat="44.03567645435818" lon="7.953719921329721"><ele>468.25</ele><time>2026-03-26T15:59:16Z</time></trkpt><trkpt lat="44.035797234193495" lon="7.953735780098461"><ele>468.0</ele><time>2026-03-26T15:59:17Z</time></trkpt><trkpt lat="44.03587246285418" lon="7.953749487315912"><ele>468.0</ele><time>2026-03-26T15:59:18Z</time></trkpt><trkpt lat="44.03594584834226" lon="7.953630679918918"><ele>467.99999999999994</ele><time>2026-03-26T15:59:20Z</time></trkpt><trkpt lat="44.035883074378276" lon="7.9534546945576405"><ele>467.99999999999994</ele><time>2026-03-26T15:59:22Z</time></trkpt><trkpt lat="44.03580706249066" lon="7.953428865549329"><ele>468.0</ele><time>2026-03-26T15:59:23Z</time></trkpt><trkpt lat="44.03571630740419" lon="7.953445464772431"><ele>468.0</ele><time>2026-03-26T15:59:24Z</time></trkpt><trkpt lat="44.0356072770763" lon="7.95347456696854"><ele>467.25</ele><time>2026-03-26T15:59:25Z</time></trkpt><trkpt lat="44.03547872170909" lon="7.953484376965576"><ele>466.5</ele><time>2026-03-26T15:59:26Z</time></trkpt><trkpt lat="44.03533950784051" lon="7.953461714483445"><ele>465.75</ele><time>2026-03-26T15:59:27Z</time></trkpt><trkpt lat="44.03519640118732" lon="7.95341611674134"><ele>465.0</ele><time>2026-03-26T15:59:28Z</time></trkpt><trkpt lat="44.03506416460273" lon="7.953363027876806"><ele>468.8</ele><time>2026-03-26T15:59:29Z</time></trkpt><trkpt lat="44.03497968957549" lon="7.953324668946703"><ele>472.6</ele><time>2026-03-26T15:59:30Z</time></trkpt><trkpt lat="44.034898605237096" lon="7.95316543579302"><ele>476.4</ele><time>2026-03-26T15:59:32Z</time></trkpt><trkpt lat="44.03484473193466" lon="7.953044007239176"><ele>480.2</ele><time>2026-03-26T15:59:33Z</time></trkpt><trkpt lat="44.03477989096723" lon="7.952907841743163"><ele>484.0</ele><time>2026-03-26T15:59:34Z</time></trkpt><trkpt lat="44.03469721276991" lon="7.95280417849364"><ele>484.79999999999995</ele><time>2026-03-26T15:59:35Z</time></trkpt><trkpt lat="44.03461928880245" lon="7.952740126058227"><ele>485.59999999999997</ele><time>2026-03-26T15:59:36Z</time></trkpt><trkpt lat="44.03448347374069" lon="7.952703520879549"><ele>486.4</ele><time>2026-03-26T15:59:38Z</time></trkpt><trkpt lat="44.03439680078406" lon="7.952766653959605"><ele>487.2</ele><time>2026-03-26T15:59:39Z</time></trkpt><trkpt lat="44.03431978461761" lon="7.952874836757498"><ele>488.0</ele><time>2026-03-26T15:59:40Z</time></trkpt><trkpt lat="44.034204763667105" lon="7.95293292464031"><ele>496.0</ele><time>2026-03-26T15:59:41Z</time></trkpt><trkpt lat="44.034076460929306" lon="7.953023903786738"><ele>504.0</ele><time>2026-03-26T15:59:42Z</time></trkpt><trkpt lat="44.03398386166424" lon="7.9531517240771175"><ele>512.0</ele><time>2026-03-26T15:59:43Z</time></trkpt><trkpt lat="44.03387269775592" lon="7.953263168597772"><ele>520.0</ele><time>2026-03-26T15:59:44Z</time></trkpt><trkpt lat="44.033756122055955" lon="7.953371023960352"><ele>514.0</ele><time>2026-03-26T15:59:45Z</time></trkpt><trkpt lat="44.033615564592964" lon="7.953407429363289"><ele>508.0</ele><time>2026-03-26T15:59:46Z</time></trkpt><trkpt lat="44.033482334285154" lon="7.953516728349523"><ele>502.0</ele><time>2026-03-26T15:59:47Z</time></trkpt><trkpt lat="44.03338821389564" lon="7.9536392819195765"><ele>496.0</ele><time>2026-03-26T15:59:48Z</time></trkpt><trkpt lat="44.0333328463826" lon="7.953791689164031"><ele>501.5</ele><time>2026-03-26T15:59:49Z</time></trkpt><trkpt lat="44.03325303489127" lon="7.953931660097973"><ele>507.0</ele><time>2026-03-26T15:59:50Z</time></trkpt><trkpt lat="44.03315567706361" lon="7.954023405635868"><ele>512.5</ele><time>2026-03-26T15:59:51Z</time></trkpt><trkpt lat="44.0330316824271" lon="7.954104990955137"><ele>518.0</ele><time>2026-03-26T15:59:52Z</time></trkpt><trkpt lat="44.032902274611615" lon="7.954190710838636"><ele>513.75</ele><time>2026-03-26T15:59:53Z</time></trkpt><trkpt lat="44.03280584425583" lon="7.954248916306014"><ele>509.5</ele><time>2026-03-26T15:59:54Z</time></trkpt><trkpt lat="44.03270121000859" lon="7.954224723567417"><ele>505.25</ele><time>2026-03-26T15:59:55Z</time></trkpt><trkpt lat="44.03257241164062" lon="7.954224566464728"><ele>501.0</ele><time>2026-03-26T15:59:56Z</time></trkpt><trkpt lat="44.03242168539366" lon="7.954137816738095"><ele>512.0</ele><time>2026-03-26T15:59:57Z</time></trkpt><trkpt lat="44.03226548168275" lon="7.954097310475373"><ele>523.0</ele><time>2026-03-26T15:59:58Z</time></trkpt><trkpt lat="44.03214363764176" lon="7.95409811980667"><ele>534.0</ele><time>2026-03-26T15:59:59Z</time></trkpt><trkpt lat="44.03205350522844" lon="7.954162674305987"><ele>545.0</ele><time>2026-03-26T16:00:00Z</time></trkpt><trkpt lat="44.03197711251407" lon="7.954257217178529"><ele>545.0</ele><time>2026-03-26T16:00:01Z</time></trkpt><trkpt lat="44.031907602468145" lon="7.954369229012319"><ele>545.0</ele><time>2026-03-26T16:00:02Z</time></trkpt><trkpt lat="44.031848643031" lon="7.954512720367162"><ele>545.0</ele><time>2026-03-26T16:00:03Z</time></trkpt><trkpt lat="44.031813302248345" lon="7.954705001561541"><ele>545.0</ele><time>2026-03-26T16:00:04Z</time></trkpt><trkpt lat="44.031837727982186" lon="7.954919424129313"><ele>541.75</ele><time>2026-03-26T16:00:05Z</time></trkpt><trkpt lat="44.03187125210453" lon="7.9550943266865355"><ele>538.5</ele><time>2026-03-26T16:00:06Z</time></trkpt><trkpt lat="44.03194022902796" lon="7.955267295493657"><ele>535.25</ele><time>2026-03-26T16:00:07Z</time></trkpt><trkpt lat="44.03199283897135" lon="7.955466541457246"><ele>532.0</ele><time>2026-03-26T16:00:08Z</time></trkpt><trkpt lat="44.03204413117507" lon="7.955644233110818"><ele>532.0</ele><time>2026-03-26T16:00:09Z</time></trkpt><trkpt lat="44.0320645032376" lon="7.955799246763616"><ele>532.0</ele><time>2026-03-26T16:00:10Z</time></trkpt><trkpt lat="44.03205557876526" lon="7.955914282951856"><ele>532.0</ele><time>2026-03-26T16:00:11Z</time></trkpt><trkpt lat="44.03200011691861" lon="7.955985770466179"><ele>532.0</ele><time>2026-03-26T16:00:12Z</time></trkpt><trkpt lat="44.03192026328906" lon="7.956006760866144"><ele>532.0</ele><time>2026-03-26T16:00:13Z</time></trkpt><trkpt lat="44.031827653172506" lon="7.955944566627904"><ele>532.0</ele><time>2026-03-26T16:00:14Z</time></trkpt><trkpt lat="44.03172104114817" lon="7.95586069316014"><ele>532.0</ele><time>2026-03-26T16:00:15Z</time></trkpt><trkpt lat="44.03159084801503" lon="7.955829561208791"><ele>532.0</ele><time>2026-03-26T16:00:16Z</time></trkpt><trkpt lat="44.031444848055244" lon="7.955807030479557"><ele>532.0</ele><time>2026-03-26T16:00:17Z</time></trkpt><trkpt lat="44.031285539325765" lon="7.955768625783528"><ele>535.75</ele><time>2026-03-26T16:00:18Z</time></trkpt><trkpt lat="44.03112472122989" lon="7.955708359216466"><ele>539.5</ele><time>2026-03-26T16:00:19Z</time></trkpt><trkpt lat="44.03097961964762" lon="7.955655975887046"><ele>543.25</ele><time>2026-03-26T16:00:20Z</time></trkpt><trkpt lat="44.030867682722985" lon="7.955675891286716"><ele>547.0</ele><time>2026-03-26T16:00:21Z</time></trkpt><trkpt lat="44.03075999427948" lon="7.955740612986293"><ele>547.0</ele><time>2026-03-26T16:00:22Z</time></trkpt><trkpt lat="44.03065482541915" lon="7.955848609910504"><ele>547.0</ele><time>2026-03-26T16:00:23Z</time></trkpt><trkpt lat="44.03055715002102" lon="7.955986846374533"><ele>547.0</ele><time>2026-03-26T16:00:24Z</time></trkpt><trkpt lat="44.030465345999275" lon="7.956160744126946"><ele>547.0</ele><time>2026-03-26T16:00:25Z</time></trkpt><trkpt lat="44.0303777682819" lon="7.956342947559471"><ele>547.0</ele><time>2026-03-26T16:00:26Z</time></trkpt><trkpt lat="44.030278229014996" lon="7.956503870956452"><ele>547.0</ele><time>2026-03-26T16:00:27Z</time></trkpt><trkpt lat="44.03021890784554" lon="7.956610612234466"><ele>547.0</ele><time>2026-03-26T16:00:28Z</time></trkpt><trkpt lat="44.03012776193015" lon="7.956619296820351"><ele>547.0</ele><time>2026-03-26T16:00:29Z</time></trkpt><trkpt lat="44.03002779748116" lon="7.956621080276243"><ele>547.0</ele><time>2026-03-26T16:00:30Z</time></trkpt><trkpt lat="44.02991922925718" lon="7.956581329866831"><ele>548.25</ele><time>2026-03-26T16:00:31Z</time></trkpt><trkpt lat="44.029793207206566" lon="7.956544797909163"><ele>549.5</ele><time>2026-03-26T16:00:32Z</time></trkpt><trkpt lat="44.02966035163079" lon="7.956583276095582"><ele>550.75</ele><time>2026-03-26T16:00:33Z</time></trkpt><trkpt lat="44.0295483873811" lon="7.956641984173989"><ele>552.0</ele><time>2026-03-26T16:00:34Z</time></trkpt><trkpt lat="44.02943435635384" lon="7.956729277824206"><ele>552.0</ele><time>2026-03-26T16:00:35Z</time></trkpt><trkpt lat="44.02932837479414" lon="7.956806079097085"><ele>552.0</ele><time>2026-03-26T16:00:36Z</time></trkpt><trkpt lat="44.02922958200759" lon="7.956897910336741"><ele>552.0</ele><time>2026-03-26T16:00:37Z</time></trkpt><trkpt lat="44.02915814473985" lon="7.956962689502994"><ele>552.0</ele><time>2026-03-26T16:00:38Z</time></trkpt><trkpt lat="44.02909051385246" lon="7.957055420495782"><ele>552.0</ele><time>2026-03-26T16:00:39Z</time></trkpt><trkpt lat="44.0290378472669" lon="7.957155321320194"><ele>559.4</ele><time>2026-03-26T16:00:40Z</time></trkpt><trkpt lat="44.02901164779614" lon="7.957270744831301"><ele>566.8000000000001</ele><time>2026-03-26T16:00:41Z</time></trkpt><trkpt lat="44.028996396055234" lon="7.957398808481901"><ele>574.2</ele><time>2026-03-26T16:00:42Z</time></trkpt><trkpt lat="44.028952684257256" lon="7.957492631899707"><ele>581.6</ele><time>2026-03-26T16:00:43Z</time></trkpt><trkpt lat="44.02888803739465" lon="7.957356159079957"><ele>589.0</ele><time>2026-03-26T16:00:46Z</time></trkpt><trkpt lat="44.028922405765954" lon="7.957235206621894"><ele>589.0</ele><time>2026-03-26T16:00:47Z</time></trkpt><trkpt lat="44.028939507110806" lon="7.957085700723477"><ele>589.0</ele><time>2026-03-26T16:00:48Z</time></trkpt><trkpt lat="44.02899577715145" lon="7.956933415669295"><ele>589.0</ele><time>2026-03-26T16:00:49Z</time></trkpt><trkpt lat="44.02907597223741" lon="7.95674795685161"><ele>589.0</ele><time>2026-03-26T16:00:50Z</time></trkpt><trkpt lat="44.02914396845309" lon="7.956522208931942"><ele>587.0</ele><time>2026-03-26T16:00:51Z</time></trkpt><trkpt lat="44.02923785413355" lon="7.956299402638927"><ele>585.0</ele><time>2026-03-26T16:00:52Z</time></trkpt><trkpt lat="44.029334821260335" lon="7.95607149113547"><ele>583.0</ele><time>2026-03-26T16:00:53Z</time></trkpt><trkpt lat="44.02940982135168" lon="7.955861128636408"><ele>583.0</ele><time>2026-03-26T16:00:54Z</time></trkpt><trkpt lat="44.029466008303935" lon="7.955643906127165"><ele>583.0</ele><time>2026-03-26T16:00:55Z</time></trkpt><trkpt lat="44.02953154573489" lon="7.955393822460392"><ele>583.0</ele><time>2026-03-26T16:00:56Z</time></trkpt><trkpt lat="44.02958838020975" lon="7.955115561220872"><ele>586.6</ele><time>2026-03-26T16:00:57Z</time></trkpt><trkpt lat="44.029635284087064" lon="7.954883183848743"><ele>590.1999999999999</ele><time>2026-03-26T16:00:58Z</time></trkpt><trkpt lat="44.02968095332139" lon="7.954740027511344"><ele>593.8</ele><time>2026-03-26T16:00:59Z</time></trkpt><trkpt lat="44.02973516652441" lon="7.954682993366237"><ele>597.4</ele><time>2026-03-26T16:01:00Z</time></trkpt><trkpt lat="44.02982329907396" lon="7.954668143936925"><ele>601.0</ele><time>2026-03-26T16:01:01Z</time></trkpt><trkpt lat="44.029948012987774" lon="7.954636955752765"><ele>595.6</ele><time>2026-03-26T16:01:02Z</time></trkpt><trkpt lat="44.030072489204926" lon="7.954603293982075"><ele>590.2</ele><time>2026-03-26T16:01:03Z</time></trkpt><trkpt lat="44.030193906613306" lon="7.9545969247226855"><ele>584.8</ele><time>2026-03-26T16:01:04Z</time></trkpt><trkpt lat="44.03028001555654" lon="7.954529489122401"><ele>579.4</ele><time>2026-03-26T16:01:05Z</time></trkpt><trkpt lat="44.03032723601562" lon="7.954419036829908"><ele>574.0</ele><time>2026-03-26T16:01:06Z</time></trkpt><trkpt lat="44.03039943002013" lon="7.9542784466907115"><ele>574.0</ele><time>2026-03-26T16:01:07Z</time></trkpt><trkpt lat="44.03050274326937" lon="7.954218951501188"><ele>574.0</ele><time>2026-03-26T16:01:08Z</time></trkpt><trkpt lat="44.03061456626" lon="7.954167742446232"><ele>574.0</ele><time>2026-03-26T16:01:09Z</time></trkpt><trkpt lat="44.030699080993855" lon="7.954094941337813"><ele>574.0</ele><time>2026-03-26T16:01:10Z</time></trkpt><trkpt lat="44.030673102758506" lon="7.953972806408155"><ele>574.0</ele><time>2026-03-26T16:01:12Z</time></trkpt><trkpt lat="44.030609154352554" lon="7.953932408105718"><ele>575.75</ele><time>2026-03-26T16:01:13Z</time></trkpt><trkpt lat="44.030522727489455" lon="7.953944877510431"><ele>577.5</ele><time>2026-03-26T16:01:14Z</time></trkpt><trkpt lat="44.03042279444016" lon="7.954025563065746"><ele>579.25</ele><time>2026-03-26T16:01:15Z</time></trkpt><trkpt lat="44.030301294287355" lon="7.954127818656567"><ele>581.0</ele><time>2026-03-26T16:01:16Z</time></trkpt><trkpt lat="44.03016174082373" lon="7.954157378473317"><ele>581.0</ele><time>2026-03-26T16:01:17Z</time></trkpt><trkpt lat="44.03001550849404" lon="7.954176452368776"><ele>581.0</ele><time>2026-03-26T16:01:18Z</time></trkpt><trkpt lat="44.029857543563644" lon="7.954194095317681"><ele>581.0</ele><time>2026-03-26T16:01:19Z</time></trkpt><trkpt lat="44.02973775065712" lon="7.954247747348897"><ele>581.0</ele><time>2026-03-26T16:01:20Z</time></trkpt><trkpt lat="44.0296434971196" lon="7.954305166974035"><ele>586.0</ele><time>2026-03-26T16:01:21Z</time></trkpt><trkpt lat="44.02956737472898" lon="7.954409079790065"><ele>591.0</ele><time>2026-03-26T16:01:22Z</time></trkpt><trkpt lat="44.02944998921976" lon="7.954545119106015"><ele>596.0</ele><time>2026-03-26T16:01:23Z</time></trkpt><trkpt lat="44.02934199922089" lon="7.954675967701279"><ele>601.0</ele><time>2026-03-26T16:01:24Z</time></trkpt><trkpt lat="44.02924947825673" lon="7.9548693956798"><ele>605.6666666666667</ele><time>2026-03-26T16:01:25Z</time></trkpt><trkpt lat="44.029141739631115" lon="7.955074897933142"><ele>610.3333333333334</ele><time>2026-03-26T16:01:26Z</time></trkpt><trkpt lat="44.02902099387402" lon="7.955284427522097"><ele>615.0</ele><time>2026-03-26T16:01:27Z</time></trkpt><trkpt lat="44.02892266096697" lon="7.955488007837369"><ele>615.0</ele><time>2026-03-26T16:01:28Z</time></trkpt><trkpt lat="44.028849483631845" lon="7.9555855109327"><ele>615.0</ele><time>2026-03-26T16:01:29Z</time></trkpt><trkpt lat="44.02878792416686" lon="7.955621358363655"><ele>615.0</ele><time>2026-03-26T16:01:30Z</time></trkpt><trkpt lat="44.02866864423544" lon="7.955610817978098"><ele>615.0</ele><time>2026-03-26T16:01:31Z</time></trkpt><trkpt lat="44.028552440315224" lon="7.955725342728004"><ele>615.0</ele><time>2026-03-26T16:01:32Z</time></trkpt><trkpt lat="44.028425323896144" lon="7.955814955178512"><ele>617.25</ele><time>2026-03-26T16:01:33Z</time></trkpt><trkpt lat="44.028285210905985" lon="7.955831610415674"><ele>619.5</ele><time>2026-03-26T16:01:34Z</time></trkpt><trkpt lat="44.028152065885685" lon="7.955912785021945"><ele>621.75</ele><time>2026-03-26T16:01:35Z</time></trkpt><trkpt lat="44.02806545515261" lon="7.956033849826454"><ele>624.0</ele><time>2026-03-26T16:01:36Z</time></trkpt><trkpt lat="44.02798817606907" lon="7.95617013867037"><ele>624.0</ele><time>2026-03-26T16:01:37Z</time></trkpt><trkpt lat="44.02791919595788" lon="7.956337965320947"><ele>624.0</ele><time>2026-03-26T16:01:38Z</time></trkpt><trkpt lat="44.02784256733897" lon="7.956518655821715"><ele>624.0</ele><time>2026-03-26T16:01:39Z</time></trkpt><trkpt lat="44.02772886466243" lon="7.956666230285374"><ele>624.0</ele><time>2026-03-26T16:01:40Z</time></trkpt><trkpt lat="44.02761114720525" lon="7.956823943325219"><ele>623.8</ele><time>2026-03-26T16:01:41Z</time></trkpt><trkpt lat="44.02752928345327" lon="7.956996479397094"><ele>623.5999999999999</ele><time>2026-03-26T16:01:42Z</time></trkpt><trkpt lat="44.02746512884575" lon="7.957101533940239"><ele>623.4</ele><time>2026-03-26T16:01:43Z</time></trkpt><trkpt lat="44.027412226754315" lon="7.957209021774041"><ele>623.1999999999999</ele><time>2026-03-26T16:01:44Z</time></trkpt><trkpt lat="44.02735503196371" lon="7.957335975420607"><ele>623.0</ele><time>2026-03-26T16:01:45Z</time></trkpt><trkpt lat="44.02731284103717" lon="7.957466897943374"><ele>625.1999999999999</ele><time>2026-03-26T16:01:46Z</time></trkpt><trkpt lat="44.02728418239456" lon="7.957609230948642"><ele>627.4</ele><time>2026-03-26T16:01:47Z</time></trkpt><trkpt lat="44.0272669127245" lon="7.957717372729951"><ele>629.5999999999999</ele><time>2026-03-26T16:01:48Z</time></trkpt><trkpt lat="44.02725504067997" lon="7.957820895261726"><ele>631.8</ele><time>2026-03-26T16:01:50Z</time></trkpt><trkpt lat="44.027265272426014" lon="7.9579916985429815"><ele>634.0</ele><time>2026-03-26T16:01:52Z</time></trkpt><trkpt lat="44.02728073481475" lon="7.958140947049443"><ele>634.0</ele><time>2026-03-26T16:01:53Z</time></trkpt><trkpt lat="44.02729453646834" lon="7.958322358988657"><ele>634.0</ele><time>2026-03-26T16:01:54Z</time></trkpt><trkpt lat="44.027257127203214" lon="7.958514352773346"><ele>634.0</ele><time>2026-03-26T16:01:55Z</time></trkpt><trkpt lat="44.02725177230521" lon="7.958744489668818"><ele>634.0</ele><time>2026-03-26T16:01:56Z</time></trkpt><trkpt lat="44.02729785201012" lon="7.958924307280249"><ele>635.0</ele><time>2026-03-26T16:01:57Z</time></trkpt><trkpt lat="44.02734593162115" lon="7.959096127748574"><ele>636.0</ele><time>2026-03-26T16:01:58Z</time></trkpt><trkpt lat="44.02734240037463" lon="7.959206178346518"><ele>637.0</ele><time>2026-03-26T16:01:59Z</time></trkpt><trkpt lat="44.0272354306712" lon="7.9592148999279795"><ele>638.0</ele><time>2026-03-26T16:02:01Z</time></trkpt><trkpt lat="44.027167404495856" lon="7.959095930264888"><ele>639.0</ele><time>2026-03-26T16:02:03Z</time></trkpt><trkpt lat="44.02717273957747" lon="7.9589435773059005"><ele>639.0</ele><time>2026-03-26T16:02:04Z</time></trkpt><trkpt lat="44.027128472667876" lon="7.958799831942584"><ele>639.0</ele><time>2026-03-26T16:02:05Z</time></trkpt><trkpt lat="44.027076700930046" lon="7.958653968987246"><ele>639.0</ele><time>2026-03-26T16:02:06Z</time></trkpt><trkpt lat="44.02704482835269" lon="7.958539554249117"><ele>639.0</ele><time>2026-03-26T16:02:07Z</time></trkpt><trkpt lat="44.02695161351594" lon="7.958448373669426"><ele>639.0</ele><time>2026-03-26T16:02:09Z</time></trkpt><trkpt lat="44.026876145057024" lon="7.958483642526875"><ele>639.0</ele><time>2026-03-26T16:02:10Z</time></trkpt><trkpt lat="44.026825760785584" lon="7.958584889120051"><ele>639.0</ele><time>2026-03-26T16:02:11Z</time></trkpt><trkpt lat="44.02680453302231" lon="7.958747062819312"><ele>639.0</ele><time>2026-03-26T16:02:12Z</time></trkpt><trkpt lat="44.02675495489058" lon="7.958908162215138"><ele>639.0</ele><time>2026-03-26T16:02:13Z</time></trkpt><trkpt lat="44.026721393754684" lon="7.959109784151786"><ele>641.6666666666666</ele><time>2026-03-26T16:02:14Z</time></trkpt><trkpt lat="44.02673132553351" lon="7.959328900491632"><ele>644.3333333333333</ele><time>2026-03-26T16:02:15Z</time></trkpt><trkpt lat="44.02670513429343" lon="7.959547208025347"><ele>647.0</ele><time>2026-03-26T16:02:16Z</time></trkpt><trkpt lat="44.02665442581537" lon="7.959754824084969"><ele>641.3333333333333</ele><time>2026-03-26T16:02:17Z</time></trkpt><trkpt lat="44.02657606264948" lon="7.9599572568864625"><ele>635.6666666666666</ele><time>2026-03-26T16:02:18Z</time></trkpt><trkpt lat="44.02649475287361" lon="7.960181920761423"><ele>630.0</ele><time>2026-03-26T16:02:19Z</time></trkpt><trkpt lat="44.02643646652492" lon="7.9603976597520525"><ele>630.0</ele><time>2026-03-26T16:02:20Z</time></trkpt><trkpt lat="44.02637415414428" lon="7.960502604260941"><ele>630.0</ele><time>2026-03-26T16:02:21Z</time></trkpt><trkpt lat="44.02630046828355" lon="7.960602046723552"><ele>630.0</ele><time>2026-03-26T16:02:22Z</time></trkpt><trkpt lat="44.02618350085993" lon="7.960716827185133"><ele>630.0</ele><time>2026-03-26T16:02:23Z</time></trkpt><trkpt lat="44.02611614233056" lon="7.9608797936568845"><ele>634.0</ele><time>2026-03-26T16:02:24Z</time></trkpt><trkpt lat="44.026037721639064" lon="7.961069523844185"><ele>638.0</ele><time>2026-03-26T16:02:25Z</time></trkpt><trkpt lat="44.025957225391736" lon="7.961259940165636"><ele>642.0</ele><time>2026-03-26T16:02:26Z</time></trkpt><trkpt lat="44.02589277803913" lon="7.961400900825239"><ele>646.0</ele><time>2026-03-26T16:02:27Z</time></trkpt><trkpt lat="44.02584301955047" lon="7.961490389271127"><ele>644.8333333333334</ele><time>2026-03-26T16:02:28Z</time></trkpt><trkpt lat="44.025799316553396" lon="7.961567037369556"><ele>643.6666666666667</ele><time>2026-03-26T16:02:29Z</time></trkpt><trkpt lat="44.0257100125166" lon="7.961611804466097"><ele>642.5</ele><time>2026-03-26T16:02:31Z</time></trkpt><trkpt lat="44.02562933312945" lon="7.961662937281538"><ele>641.3333333333334</ele><time>2026-03-26T16:02:32Z</time></trkpt><trkpt lat="44.02555083442407" lon="7.961709589376859"><ele>640.1666666666666</ele><time>2026-03-26T16:02:33Z</time></trkpt><trkpt lat="44.025462239366774" lon="7.961776691571467"><ele>639.0</ele><time>2026-03-26T16:02:34Z</time></trkpt><trkpt lat="44.02537201036668" lon="7.961877490741123"><ele>639.0</ele><time>2026-03-26T16:02:35Z</time></trkpt><trkpt lat="44.02531149779988" lon="7.9619875840274945"><ele>639.0</ele><time>2026-03-26T16:02:36Z</time></trkpt><trkpt lat="44.025269144928714" lon="7.962099707915821"><ele>639.0</ele><time>2026-03-26T16:02:37Z</time></trkpt><trkpt lat="44.02522890300007" lon="7.962198780355595"><ele>639.0</ele><time>2026-03-26T16:02:38Z</time></trkpt><trkpt lat="44.025182267465105" lon="7.962274056081951"><ele>639.0</ele><time>2026-03-26T16:02:39Z</time></trkpt><trkpt lat="44.0251235923676" lon="7.962329188058277"><ele>639.0</ele><time>2026-03-26T16:02:40Z</time></trkpt><trkpt lat="44.02504471902548" lon="7.96239590955628"><ele>639.0</ele><time>2026-03-26T16:02:41Z</time></trkpt><trkpt lat="44.02499214529281" lon="7.96244991116866"><ele>639.0</ele><time>2026-03-26T16:02:42Z</time></trkpt><trkpt lat="44.02490643793467" lon="7.962569293655277"><ele>639.0</ele><time>2026-03-26T16:02:43Z</time></trkpt><trkpt lat="44.024844981468064" lon="7.96267256162621"><ele>639.0</ele><time>2026-03-26T16:02:45Z</time></trkpt><trkpt lat="44.02476771187288" lon="7.962802400856528"><ele>639.0</ele><time>2026-03-26T16:02:50Z</time></trkpt><trkpt lat="44.02502581671384" lon="7.963176076285522"><ele>639.6666666666666</ele><time>2026-03-26T16:02:51Z</time></trkpt><trkpt lat="44.02503247318149" lon="7.963281623130348"><ele>640.3333333333334</ele><time>2026-03-26T16:02:52Z</time></trkpt><trkpt lat="44.02500030592677" lon="7.963425883254924"><ele>641.0</ele><time>2026-03-26T16:02:53Z</time></trkpt><trkpt lat="44.02496815210069" lon="7.963544404296786"><ele>641.6666666666667</ele><time>2026-03-26T16:02:54Z</time></trkpt><trkpt lat="44.024903646168966" lon="7.96359595076472"><ele>642.3333333333334</ele><time>2026-03-26T16:02:55Z</time></trkpt><trkpt lat="44.02484980730952" lon="7.963669927504587"><ele>643.0</ele><time>2026-03-26T16:02:56Z</time></trkpt><trkpt lat="44.02477850814457" lon="7.963738968290451"><ele>643.0</ele><time>2026-03-26T16:02:57Z</time></trkpt><trkpt lat="44.024701073685584" lon="7.963801959770592"><ele>643.0</ele><time>2026-03-26T16:02:58Z</time></trkpt><trkpt lat="44.02464095275885" lon="7.963833513923766"><ele>643.0</ele><time>2026-03-26T16:02:59Z</time></trkpt><trkpt lat="44.02457457993238" lon="7.96385927079694"><ele>643.0</ele><time>2026-03-26T16:03:00Z</time></trkpt><trkpt lat="44.02450164245661" lon="7.963900727381104"><ele>643.0</ele><time>2026-03-26T16:03:01Z</time></trkpt><trkpt lat="44.024428449117394" lon="7.963931010937197"><ele>643.0</ele><time>2026-03-26T16:03:02Z</time></trkpt><trkpt lat="44.02432521057465" lon="7.964002558354286"><ele>643.0</ele><time>2026-03-26T16:03:04Z</time></trkpt><trkpt lat="44.02420031678799" lon="7.963923960238505"><ele>643.0</ele><time>2026-03-26T16:03:05Z</time></trkpt><trkpt lat="44.02412934005457" lon="7.9639806159441715"><ele>643.0</ele><time>2026-03-26T16:03:06Z</time></trkpt><trkpt lat="44.02406952041921" lon="7.964021867640421"><ele>643.0</ele><time>2026-03-26T16:03:07Z</time></trkpt><trkpt lat="44.02399469305311" lon="7.964068968554654"><ele>643.0</ele><time>2026-03-26T16:03:08Z</time></trkpt><trkpt lat="44.0239133113773" lon="7.964119449892033"><ele>642.1999999999999</ele><time>2026-03-26T16:03:09Z</time></trkpt><trkpt lat="44.0238386206726" lon="7.964165780798946"><ele>641.4</ele><time>2026-03-26T16:03:10Z</time></trkpt><trkpt lat="44.023742952040685" lon="7.964229083074401"><ele>640.5999999999999</ele><time>2026-03-26T16:03:11Z</time></trkpt><trkpt lat="44.02363816783734" lon="7.964369858231985"><ele>639.8</ele><time>2026-03-26T16:03:12Z</time></trkpt><trkpt lat="44.023590862846724" lon="7.964450321994253"><ele>639.0</ele><time>2026-03-26T16:03:13Z</time></trkpt><trkpt lat="44.02353739651475" lon="7.9645410983288745"><ele>639.0</ele><time>2026-03-26T16:03:15Z</time></trkpt><trkpt lat="44.02378021066609" lon="7.964793225141232"><ele>639.0</ele><time>2026-03-26T16:03:35Z</time></trkpt><trkpt lat="44.02387054722325" lon="7.964751990167355"><ele>639.0</ele><time>2026-03-26T16:03:39Z</time></trkpt><trkpt lat="44.02375632748406" lon="7.964789671047984"><ele>639.0</ele><time>2026-03-26T16:03:42Z</time></trkpt><trkpt lat="44.023661114408355" lon="7.964872354654743"><ele>639.0</ele><time>2026-03-26T16:03:44Z</time></trkpt><trkpt lat="44.02357218388622" lon="7.964980628887013"><ele>639.0</ele><time>2026-03-26T16:03:46Z</time></trkpt><trkpt lat="44.02352132872127" lon="7.965072984349115"><ele>639.0</ele><time>2026-03-26T16:03:47Z</time></trkpt><trkpt lat="44.023293114592576" lon="7.964955410162384"><ele>643.8333333333334</ele><time>2026-03-26T16:03:48Z</time></trkpt><trkpt lat="44.02324083164141" lon="7.965042582511895"><ele>648.6666666666666</ele><time>2026-03-26T16:03:49Z</time></trkpt><trkpt lat="44.0231995164035" lon="7.965111468369627"><ele>653.5</ele><time>2026-03-26T16:03:50Z</time></trkpt><trkpt lat="44.02314369128854" lon="7.965186391541061"><ele>658.3333333333333</ele><time>2026-03-26T16:03:51Z</time></trkpt><trkpt lat="44.02307046628437" lon="7.965252938603797"><ele>663.1666666666666</ele><time>2026-03-26T16:03:53Z</time></trkpt><trkpt lat="44.0229661174762" lon="7.965306614476158"><ele>668.0</ele><time>2026-03-26T16:03:55Z</time></trkpt><trkpt lat="44.022892913241336" lon="7.965305149274572"><ele>668.0</ele><time>2026-03-26T16:03:57Z</time></trkpt><trkpt lat="44.02279118203272" lon="7.96529905785096"><ele>668.0</ele><time>2026-03-26T16:03:59Z</time></trkpt><trkpt lat="44.02267641828749" lon="7.965294076144509"><ele>668.0</ele><time>2026-03-26T16:04:01Z</time></trkpt><trkpt lat="44.0225996012429" lon="7.965269552278438"><ele>668.0</ele><time>2026-03-26T16:04:04Z</time></trkpt><trkpt lat="44.02253444617708" lon="7.965233241740716"><ele>668.0</ele><time>2026-03-26T16:04:05Z</time></trkpt><trkpt lat="44.02242765982301" lon="7.965116319304877"><ele>658.0</ele><time>2026-03-26T16:04:06Z</time></trkpt><trkpt lat="44.022365531895126" lon="7.965098855470152"><ele>648.0</ele><time>2026-03-26T16:04:07Z</time></trkpt><trkpt lat="44.02195491803209" lon="7.9652551730737065"><ele>648.0</ele><time>2026-03-26T16:04:08Z</time></trkpt><trkpt lat="44.02188609562155" lon="7.965353759020381"><ele>648.0</ele><time>2026-03-26T16:04:09Z</time></trkpt><trkpt lat="44.021828625575296" lon="7.965394237112507"><ele>648.0</ele><time>2026-03-26T16:04:12Z</time></trkpt><trkpt lat="44.02148046224243" lon="7.965909508463595"><ele>653.0</ele><time>2026-03-26T16:04:19Z</time></trkpt><trkpt lat="44.021346512395475" lon="7.965962591117996"><ele>658.0</ele><time>2026-03-26T16:04:22Z</time></trkpt><trkpt lat="44.02124825981409" lon="7.965965030482839"><ele>663.0</ele><time>2026-03-26T16:04:24Z</time></trkpt><trkpt lat="44.02115325493236" lon="7.965978487887304"><ele>668.0</ele><time>2026-03-26T16:04:25Z</time></trkpt><trkpt lat="44.02066156170414" lon="7.966102083757883"><ele>672.3333333333333</ele><time>2026-03-26T16:04:27Z</time></trkpt><trkpt lat="44.020603395885225" lon="7.966174937568566"><ele>676.6666666666666</ele><time>2026-03-26T16:04:28Z</time></trkpt><trkpt lat="44.02058106224261" lon="7.966263199486466"><ele>681.0</ele><time>2026-03-26T16:04:29Z</time></trkpt><trkpt lat="44.02054695350208" lon="7.9663717669342455"><ele>685.3333333333334</ele><time>2026-03-26T16:04:30Z</time></trkpt><trkpt lat="44.020520135278474" lon="7.966464934879132"><ele>689.6666666666667</ele><time>2026-03-26T16:04:31Z</time></trkpt><trkpt lat="44.02043543569522" lon="7.966439195759707"><ele>694.0</ele><time>2026-03-26T16:04:42Z</time></trkpt><trkpt lat="44.02033916819017" lon="7.966328385678324"><ele>694.0</ele><time>2026-03-26T16:04:43Z</time></trkpt><trkpt lat="44.02028593979263" lon="7.966196042959061"><ele>694.0</ele><time>2026-03-26T16:04:46Z</time></trkpt><trkpt lat="44.02026161339564" lon="7.9659959007061305"><ele>694.0</ele><time>2026-03-26T16:04:49Z</time></trkpt><trkpt lat="44.01992456910401" lon="7.965446040059303"><ele>694.4000000000001</ele><time>2026-03-26T16:04:51Z</time></trkpt><trkpt lat="44.01984229479032" lon="7.965307977582787"><ele>694.8</ele><time>2026-03-26T16:04:53Z</time></trkpt><trkpt lat="44.01975570019999" lon="7.96528183636369"><ele>695.2</ele><time>2026-03-26T16:04:54Z</time></trkpt><trkpt lat="44.01967421433008" lon="7.96525788936345"><ele>695.5999999999999</ele><time>2026-03-26T16:04:55Z</time></trkpt><trkpt lat="44.0195775675177" lon="7.965233206561871"><ele>696.0</ele><time>2026-03-26T16:04:56Z</time></trkpt><trkpt lat="44.019488171106275" lon="7.96522007186558"><ele>696.0</ele><time>2026-03-26T16:04:57Z</time></trkpt><trkpt lat="44.0194021512352" lon="7.965207477380905"><ele>696.0</ele><time>2026-03-26T16:04:58Z</time></trkpt><trkpt lat="44.01930677470882" lon="7.965269072847118"><ele>696.0</ele><time>2026-03-26T16:05:01Z</time></trkpt><trkpt lat="44.018948145322625" lon="7.965554741508456"><ele>696.5</ele><time>2026-03-26T16:05:02Z</time></trkpt><trkpt lat="44.018898425616655" lon="7.965452292651095"><ele>697.0</ele><time>2026-03-26T16:05:05Z</time></trkpt><trkpt lat="44.01887311558503" lon="7.965366844372394"><ele>697.5</ele><time>2026-03-26T16:05:06Z</time></trkpt><trkpt lat="44.018860493364" lon="7.965278742037266"><ele>698.0</ele><time>2026-03-26T16:05:07Z</time></trkpt><trkpt lat="44.01887489022167" lon="7.965147128037614"><ele>698.5</ele><time>2026-03-26T16:05:09Z</time></trkpt><trkpt lat="44.01888894562009" lon="7.964991795072921"><ele>699.0</ele><time>2026-03-26T16:05:11Z</time></trkpt><trkpt lat="44.01888219202014" lon="7.964902378785108"><ele>699.0</ele><time>2026-03-26T16:05:12Z</time></trkpt><trkpt lat="44.01888246773269" lon="7.964754158333229"><ele>699.0</ele><time>2026-03-26T16:05:14Z</time></trkpt><trkpt lat="44.01887861147867" lon="7.964662790024816"><ele>699.0</ele><time>2026-03-26T16:05:15Z</time></trkpt><trkpt lat="44.018905158610686" lon="7.964573616754443"><ele>699.0</ele><time>2026-03-26T16:05:16Z</time></trkpt><trkpt lat="44.018927999785554" lon="7.964459554967457"><ele>699.0</ele><time>2026-03-26T16:05:17Z</time></trkpt><trkpt lat="44.01895733173714" lon="7.964320891504701"><ele>699.0</ele><time>2026-03-26T16:05:18Z</time></trkpt><trkpt lat="44.01895096121174" lon="7.964231194378412"><ele>700.0</ele><time>2026-03-26T16:05:19Z</time></trkpt><trkpt lat="44.01885130689071" lon="7.9641677690113415"><ele>701.0</ele><time>2026-03-26T16:05:20.999Z</time></trkpt><trkpt lat="44.01875011033939" lon="7.964167353907326"><ele>702.0</ele><time>2026-03-26T16:05:21.999Z</time></trkpt><trkpt lat="44.018659412352015" lon="7.964139763330189"><ele>703.0</ele><time>2026-03-26T16:05:22.999Z</time></trkpt><trkpt lat="44.01857556695228" lon="7.964071949264293"><ele>704.0</ele><time>2026-03-26T16:05:23.999Z</time></trkpt><trkpt lat="44.018499089563626" lon="7.963978697369896"><ele>704.0</ele><time>2026-03-26T16:05:24.999Z</time></trkpt><trkpt lat="44.0184430943309" lon="7.9638841519940815"><ele>704.0</ele><time>2026-03-26T16:05:25.999Z</time></trkpt><trkpt lat="44.01837075045741" lon="7.963808895917191"><ele>704.0</ele><time>2026-03-26T16:05:26.999Z</time></trkpt><trkpt lat="44.01829174701358" lon="7.963744783396978"><ele>704.0</ele><time>2026-03-26T16:05:27.999Z</time></trkpt><trkpt lat="44.01820395773174" lon="7.963650294147068"><ele>704.0</ele><time>2026-03-26T16:05:28.999Z</time></trkpt><trkpt lat="44.018158673075455" lon="7.963586998694664"><ele>704.0</ele><time>2026-03-26T16:05:29.999Z</time></trkpt><trkpt lat="44.018107391880115" lon="7.963535131508476"><ele>704.2</ele><time>2026-03-26T16:05:30.999Z</time></trkpt><trkpt lat="44.01803562469589" lon="7.963484858737384"><ele>704.4000000000001</ele><time>2026-03-26T16:05:31.999Z</time></trkpt><trkpt lat="44.01793204638743" lon="7.963425578359009"><ele>704.6</ele><time>2026-03-26T16:05:32.999Z</time></trkpt><trkpt lat="44.017822954449265" lon="7.963398655813068"><ele>704.8</ele><time>2026-03-26T16:05:33.999Z</time></trkpt><trkpt lat="44.017728031761514" lon="7.9633519426871215"><ele>705.0</ele><time>2026-03-26T16:05:34.999Z</time></trkpt><trkpt lat="44.01764911108967" lon="7.9632759112713"><ele>705.0</ele><time>2026-03-26T16:05:35.999Z</time></trkpt><trkpt lat="44.01757644320726" lon="7.963199242887501"><ele>705.0</ele><time>2026-03-26T16:05:36.999Z</time></trkpt><trkpt lat="44.01749698080456" lon="7.96312757788867"><ele>705.0</ele><time>2026-03-26T16:05:37.999Z</time></trkpt><trkpt lat="44.01741668221061" lon="7.963081775996386"><ele>705.0</ele><time>2026-03-26T16:05:38.999Z</time></trkpt><trkpt lat="44.017335871874295" lon="7.96303500106089"><ele>705.0</ele><time>2026-03-26T16:05:39.999Z</time></trkpt><trkpt lat="44.01727381533712" lon="7.962981756704713"><ele>705.0</ele><time>2026-03-26T16:05:40.999Z</time></trkpt><trkpt lat="44.01722166052217" lon="7.962898911010005"><ele>704.3333333333334</ele><time>2026-03-26T16:05:41.998Z</time></trkpt><trkpt lat="44.017161846826696" lon="7.962794292179662"><ele>703.6666666666666</ele><time>2026-03-26T16:05:42.997Z</time></trkpt><trkpt lat="44.01710156104761" lon="7.9627253002900185"><ele>703.0</ele><time>2026-03-26T16:05:43.997Z</time></trkpt><trkpt lat="44.01704502322557" lon="7.962670983621205"><ele>702.3333333333333</ele><time>2026-03-26T16:05:44.997Z</time></trkpt><trkpt lat="44.016995148412335" lon="7.962608640026013"><ele>701.6666666666666</ele><time>2026-03-26T16:05:45.997Z</time></trkpt><trkpt lat="44.01695969305993" lon="7.962521370013746"><ele>701.0</ele><time>2026-03-26T16:05:47.997Z</time></trkpt><trkpt lat="44.01692181235046" lon="7.962369124826841"><ele>701.6666666666666</ele><time>2026-03-26T16:05:49.998Z</time></trkpt><trkpt lat="44.01692080575199" lon="7.962262220582192"><ele>702.3333333333333</ele><time>2026-03-26T16:05:52.998Z</time></trkpt><trkpt lat="44.01688376797765" lon="7.962171427939758"><ele>703.0</ele><time>2026-03-26T16:06:01.998Z</time></trkpt><trkpt lat="44.016805432402414" lon="7.962056413321912"><ele>703.6666666666666</ele><time>2026-03-26T16:06:03.998Z</time></trkpt><trkpt lat="44.01672470672145" lon="7.961999772223095"><ele>704.3333333333334</ele><time>2026-03-26T16:06:04.998Z</time></trkpt><trkpt lat="44.01665021858019" lon="7.96193696625031"><ele>705.0</ele><time>2026-03-26T16:06:05.998Z</time></trkpt><trkpt lat="44.01660605661405" lon="7.96187272935688"><ele>705.0</ele><time>2026-03-26T16:06:06.998Z</time></trkpt><trkpt lat="44.016530553684476" lon="7.961855109864323"><ele>705.0</ele><time>2026-03-26T16:06:08.998Z</time></trkpt><trkpt lat="44.016393755083875" lon="7.961790814471702"><ele>705.0</ele><time>2026-03-26T16:06:10.998Z</time></trkpt><trkpt lat="44.016321196029295" lon="7.961753548871205"><ele>705.0</ele><time>2026-03-26T16:06:11.998Z</time></trkpt><trkpt lat="44.01620262079771" lon="7.961711715455695"><ele>705.0</ele><time>2026-03-26T16:06:12.998Z</time></trkpt><trkpt lat="44.01612357092742" lon="7.961640994154821"><ele>705.6666666666666</ele><time>2026-03-26T16:06:13.998Z</time></trkpt><trkpt lat="44.016068965635405" lon="7.961570397099299"><ele>706.3333333333334</ele><time>2026-03-26T16:06:14.998Z</time></trkpt><trkpt lat="44.01599355071509" lon="7.961499263470826"><ele>707.0</ele><time>2026-03-26T16:06:15.998Z</time></trkpt><trkpt lat="44.01591354861451" lon="7.961407029620843"><ele>707.6666666666667</ele><time>2026-03-26T16:06:16.998Z</time></trkpt><trkpt lat="44.0158598365874" lon="7.961332888608817"><ele>708.3333333333334</ele><time>2026-03-26T16:06:17.998Z</time></trkpt><trkpt lat="44.0158190172471" lon="7.961264197132651"><ele>709.0</ele><time>2026-03-26T16:06:18.998Z</time></trkpt><trkpt lat="44.01574562210396" lon="7.96122519413543"><ele>704.8000000000001</ele><time>2026-03-26T16:06:20.998Z</time></trkpt><trkpt lat="44.01562674265913" lon="7.961230918319605"><ele>700.6</ele><time>2026-03-26T16:06:22.998Z</time></trkpt><trkpt lat="44.01553586889922" lon="7.9612244367336595"><ele>696.4</ele><time>2026-03-26T16:06:23.998Z</time></trkpt><trkpt lat="44.01546481311263" lon="7.9611993691165965"><ele>692.2</ele><time>2026-03-26T16:06:24.998Z</time></trkpt><trkpt lat="44.01537478989325" lon="7.961168182886377"><ele>688.0</ele><time>2026-03-26T16:06:25.998Z</time></trkpt><trkpt lat="44.015277379092076" lon="7.961143491287986"><ele>688.0</ele><time>2026-03-26T16:06:26.998Z</time></trkpt><trkpt lat="44.015174065653675" lon="7.961127904473243"><ele>688.0</ele><time>2026-03-26T16:06:27.998Z</time></trkpt><trkpt lat="44.01506794174499" lon="7.961112595384233"><ele>688.0</ele><time>2026-03-26T16:06:28.998Z</time></trkpt><trkpt lat="44.01496276188471" lon="7.9610864022935655"><ele>688.0</ele><time>2026-03-26T16:06:29.998Z</time></trkpt><trkpt lat="44.014883371106905" lon="7.961065493884256"><ele>688.0</ele><time>2026-03-26T16:06:30.998Z</time></trkpt><trkpt lat="44.01481788858789" lon="7.961011983789622"><ele>683.8333333333334</ele><time>2026-03-26T16:06:31.998Z</time></trkpt><trkpt lat="44.01477267399664" lon="7.960936208774623"><ele>679.6666666666667</ele><time>2026-03-26T16:06:32.998Z</time></trkpt><trkpt lat="44.01473089057854" lon="7.960854859369644"><ele>675.5</ele><time>2026-03-26T16:06:33.998Z</time></trkpt><trkpt lat="44.01467709437" lon="7.960741477066993"><ele>671.3333333333334</ele><time>2026-03-26T16:06:34.998Z</time></trkpt><trkpt lat="44.014612557661124" lon="7.9606124014922"><ele>667.1666666666666</ele><time>2026-03-26T16:06:35.999Z</time></trkpt><trkpt lat="44.01456803027334" lon="7.960505565154417"><ele>663.0</ele><time>2026-03-26T16:06:36.999Z</time></trkpt><trkpt lat="44.01452805724349" lon="7.960410231382243"><ele>663.0</ele><time>2026-03-26T16:06:37.999Z</time></trkpt><trkpt lat="44.01447824593185" lon="7.960321101041051"><ele>663.0</ele><time>2026-03-26T16:06:38.999Z</time></trkpt><trkpt lat="44.014417520176465" lon="7.960248849397082"><ele>663.0</ele><time>2026-03-26T16:06:39.999Z</time></trkpt><trkpt lat="44.0143536713383" lon="7.960168289613775"><ele>663.0</ele><time>2026-03-26T16:06:40.999Z</time></trkpt><trkpt lat="44.01439725021386" lon="7.959888485533741"><ele>663.1666666666666</ele><time>2026-03-26T16:06:41.999Z</time></trkpt><trkpt lat="44.014341294932514" lon="7.959822384506561"><ele>663.3333333333334</ele><time>2026-03-26T16:06:42.999Z</time></trkpt><trkpt lat="44.01429379871671" lon="7.959749468262584"><ele>663.5</ele><time>2026-03-26T16:06:43.999Z</time></trkpt><trkpt lat="44.01424408215451" lon="7.959669902344748"><ele>663.6666666666667</ele><time>2026-03-26T16:06:44.999Z</time></trkpt><trkpt lat="44.01419780152881" lon="7.959595835212013"><ele>663.8333333333334</ele><time>2026-03-26T16:06:45.999Z</time></trkpt><trkpt lat="44.014126188553114" lon="7.959481225146464"><ele>664.0</ele><time>2026-03-26T16:06:47.999Z</time></trkpt><trkpt lat="44.01406838571231" lon="7.9594382179523215"><ele>658.6666666666667</ele><time>2026-03-26T16:06:48.999Z</time></trkpt><trkpt lat="44.013983157669024" lon="7.959417383824789"><ele>653.3333333333334</ele><time>2026-03-26T16:06:49.999Z</time></trkpt><trkpt lat="44.013901925723665" lon="7.9594218507169"><ele>648.0</ele><time>2026-03-26T16:06:50.999Z</time></trkpt><trkpt lat="44.01381019846217" lon="7.959400692572359"><ele>642.6666666666666</ele><time>2026-03-26T16:06:52.999Z</time></trkpt><trkpt lat="44.01392972242403" lon="7.959433701904122"><ele>637.3333333333333</ele><time>2026-03-26T16:06:57.999Z</time></trkpt><trkpt lat="44.013995689269606" lon="7.959435946070869"><ele>632.0</ele><time>2026-03-26T16:06:58.999Z</time></trkpt><trkpt lat="44.01405465795805" lon="7.959391098969079"><ele>632.0</ele><time>2026-03-26T16:07:00.999Z</time></trkpt><trkpt lat="44.014013590185776" lon="7.959476902809791"><ele>632.0</ele><time>2026-03-26T16:09:22.999Z</time></trkpt><trkpt lat="44.013892525880905" lon="7.959436129572454"><ele>632.0</ele><time>2026-03-26T16:09:24.999Z</time></trkpt><trkpt lat="44.013817252271146" lon="7.959411814849772"><ele>632.0</ele><time>2026-03-26T16:09:25.999Z</time></trkpt><trkpt lat="44.013721211323166" lon="7.959354566578939"><ele>632.0</ele><time>2026-03-26T16:09:26.999Z</time></trkpt><trkpt lat="44.01362181500107" lon="7.959273284569587"><ele>630.75</ele><time>2026-03-26T16:09:27.999Z</time></trkpt><trkpt lat="44.01352044721834" lon="7.959171957437393"><ele>629.5</ele><time>2026-03-26T16:09:28.999Z</time></trkpt><trkpt lat="44.01339920705437" lon="7.959072938241964"><ele>628.25</ele><time>2026-03-26T16:09:29.999Z</time></trkpt><trkpt lat="44.013264299911135" lon="7.958998533926687"><ele>627.0</ele><time>2026-03-26T16:09:30.999Z</time></trkpt><trkpt lat="44.013132839310295" lon="7.958956610198071"><ele>627.0</ele><time>2026-03-26T16:09:31.999Z</time></trkpt><trkpt lat="44.01303191107122" lon="7.958912173885995"><ele>627.0</ele><time>2026-03-26T16:09:32.999Z</time></trkpt><trkpt lat="44.01294701046502" lon="7.958814664875398"><ele>627.0</ele><time>2026-03-26T16:09:33.999Z</time></trkpt><trkpt lat="44.012834591677304" lon="7.958719008088899"><ele>627.0</ele><time>2026-03-26T16:09:34.999Z</time></trkpt><trkpt lat="44.01275057302709" lon="7.958570775006157"><ele>627.0</ele><time>2026-03-26T16:09:35.999Z</time></trkpt><trkpt lat="44.012658542214425" lon="7.958483065599042"><ele>627.0</ele><time>2026-03-26T16:09:36.999Z</time></trkpt><trkpt lat="44.0125772230975" lon="7.958418221444099"><ele>627.0</ele><time>2026-03-26T16:09:37.999Z</time></trkpt><trkpt lat="44.01247859660935" lon="7.958398671807434"><ele>627.0</ele><time>2026-03-26T16:09:38.999Z</time></trkpt><trkpt lat="44.01236407553233" lon="7.958405191113036"><ele>627.0</ele><time>2026-03-26T16:09:39.999Z</time></trkpt><trkpt lat="44.01222951220405" lon="7.958423989429208"><ele>624.8000000000001</ele><time>2026-03-26T16:09:40.999Z</time></trkpt><trkpt lat="44.012118188083434" lon="7.958406536269748"><ele>622.6</ele><time>2026-03-26T16:09:41.999Z</time></trkpt><trkpt lat="44.012027129469345" lon="7.9583958723879125"><ele>620.4000000000001</ele><time>2026-03-26T16:09:42.999Z</time></trkpt><trkpt lat="44.01196644867024" lon="7.958343744769303"><ele>618.2</ele><time>2026-03-26T16:09:43.999Z</time></trkpt><trkpt lat="44.011918581974335" lon="7.95823809117617"><ele>616.0</ele><time>2026-03-26T16:09:44.999Z</time></trkpt><trkpt lat="44.01183975249484" lon="7.958156188654508"><ele>615.6</ele><time>2026-03-26T16:09:45.999Z</time></trkpt><trkpt lat="44.01174794308082" lon="7.958117631981001"><ele>615.2</ele><time>2026-03-26T16:09:46.999Z</time></trkpt><trkpt lat="44.011655403564696" lon="7.95819131365233"><ele>614.8</ele><time>2026-03-26T16:09:47.999Z</time></trkpt><trkpt lat="44.01156702333115" lon="7.958281363669882"><ele>614.4</ele><time>2026-03-26T16:09:48.999Z</time></trkpt><trkpt lat="44.01147451948995" lon="7.9583717676767645"><ele>614.0</ele><time>2026-03-26T16:09:49.999Z</time></trkpt><trkpt lat="44.01138877294131" lon="7.958411471210139"><ele>614.0</ele><time>2026-03-26T16:09:50.999Z</time></trkpt><trkpt lat="44.01129996346338" lon="7.958375931505743"><ele>614.0</ele><time>2026-03-26T16:09:51.999Z</time></trkpt><trkpt lat="44.01120851198436" lon="7.958316972741023"><ele>614.0</ele><time>2026-03-26T16:09:52.997Z</time></trkpt><trkpt lat="44.011091232731154" lon="7.958260363626324"><ele>614.0</ele><time>2026-03-26T16:09:53.997Z</time></trkpt><trkpt lat="44.010977265739506" lon="7.958259912832994"><ele>614.0</ele><time>2026-03-26T16:09:54.997Z</time></trkpt><trkpt lat="44.01090344577485" lon="7.958227500037261"><ele>617.6</ele><time>2026-03-26T16:09:55.997Z</time></trkpt><trkpt lat="44.01083525915639" lon="7.958073242320813"><ele>621.2</ele><time>2026-03-26T16:09:57.997Z</time></trkpt><trkpt lat="44.010815175838765" lon="7.957931556777474"><ele>624.8000000000001</ele><time>2026-03-26T16:09:58.997Z</time></trkpt><trkpt lat="44.01080413429252" lon="7.957792726855891"><ele>628.4</ele><time>2026-03-26T16:09:59.997Z</time></trkpt><trkpt lat="44.010821407886816" lon="7.957667855678223"><ele>632.0</ele><time>2026-03-26T16:10:00.997Z</time></trkpt><trkpt lat="44.01085827714668" lon="7.957539854881481"><ele>633.0</ele><time>2026-03-26T16:10:01.997Z</time></trkpt><trkpt lat="44.010881981833634" lon="7.957404247259563"><ele>634.0</ele><time>2026-03-26T16:10:02.997Z</time></trkpt><trkpt lat="44.010871238685766" lon="7.957288795394356"><ele>635.0</ele><time>2026-03-26T16:10:03.997Z</time></trkpt><trkpt lat="44.010818342118526" lon="7.957178899849476"><ele>636.0</ele><time>2026-03-26T16:10:04.997Z</time></trkpt><trkpt lat="44.01073070639997" lon="7.957068786886528"><ele>637.0</ele><time>2026-03-26T16:10:05.997Z</time></trkpt><trkpt lat="44.01064653925531" lon="7.956952968095199"><ele>629.5</ele><time>2026-03-26T16:10:06.997Z</time></trkpt><trkpt lat="44.01060670858764" lon="7.956801456538768"><ele>622.0</ele><time>2026-03-26T16:10:07.997Z</time></trkpt><trkpt lat="44.01055685449256" lon="7.95663924732379"><ele>614.5</ele><time>2026-03-26T16:10:08.997Z</time></trkpt><trkpt lat="44.01047079953451" lon="7.956496017493443"><ele>607.0</ele><time>2026-03-26T16:10:09.998Z</time></trkpt><trkpt lat="44.010358312690016" lon="7.956442019358213"><ele>607.0</ele><time>2026-03-26T16:10:10.998Z</time></trkpt><trkpt lat="44.010275009768584" lon="7.95639083287765"><ele>607.0</ele><time>2026-03-26T16:10:11.998Z</time></trkpt><trkpt lat="44.010224143180174" lon="7.95632406443652"><ele>607.0</ele><time>2026-03-26T16:10:12.998Z</time></trkpt><trkpt lat="44.01018805622543" lon="7.9561531065485775"><ele>607.0</ele><time>2026-03-26T16:10:14.998Z</time></trkpt><trkpt lat="44.0102069466992" lon="7.956034634872155"><ele>607.0</ele><time>2026-03-26T16:10:15.998Z</time></trkpt><trkpt lat="44.0102458831003" lon="7.955909544286775"><ele>605.8000000000001</ele><time>2026-03-26T16:10:16.998Z</time></trkpt><trkpt lat="44.010331430930506" lon="7.955828091579239"><ele>604.6</ele><time>2026-03-26T16:10:17.998Z</time></trkpt><trkpt lat="44.01044561890033" lon="7.955820461457063"><ele>603.4000000000001</ele><time>2026-03-26T16:10:18.998Z</time></trkpt><trkpt lat="44.0105530154462" lon="7.955780789945178"><ele>602.2</ele><time>2026-03-26T16:10:19.998Z</time></trkpt><trkpt lat="44.01061960745065" lon="7.955718648289795"><ele>601.0</ele><time>2026-03-26T16:10:20.998Z</time></trkpt><trkpt lat="44.01061546429868" lon="7.955582911202315"><ele>601.0</ele><time>2026-03-26T16:10:21.998Z</time></trkpt><trkpt lat="44.010623914792525" lon="7.955463999884611"><ele>601.0</ele><time>2026-03-26T16:10:22.998Z</time></trkpt><trkpt lat="44.01067274309483" lon="7.955356038113009"><ele>601.0</ele><time>2026-03-26T16:10:23.998Z</time></trkpt><trkpt lat="44.01071087866549" lon="7.955199106104719"><ele>601.0</ele><time>2026-03-26T16:10:24.998Z</time></trkpt><trkpt lat="44.0107550280969" lon="7.955021620833745"><ele>601.0</ele><time>2026-03-26T16:10:25.998Z</time></trkpt><trkpt lat="44.010773000320995" lon="7.954835143245442"><ele>598.6666666666667</ele><time>2026-03-26T16:10:26.998Z</time></trkpt><trkpt lat="44.010760219291086" lon="7.954625779576617"><ele>596.3333333333334</ele><time>2026-03-26T16:10:27.998Z</time></trkpt><trkpt lat="44.01071269705396" lon="7.9544043709313295"><ele>594.0</ele><time>2026-03-26T16:10:28.998Z</time></trkpt><trkpt lat="44.01063466716677" lon="7.954210991605847"><ele>594.0</ele><time>2026-03-26T16:10:29.998Z</time></trkpt><trkpt lat="44.0105519504676" lon="7.954002429811608"><ele>594.0</ele><time>2026-03-26T16:10:30.998Z</time></trkpt><trkpt lat="44.01047389491837" lon="7.953789465116004"><ele>594.0</ele><time>2026-03-26T16:10:31.998Z</time></trkpt><trkpt lat="44.010407943577384" lon="7.953585726968782"><ele>594.0</ele><time>2026-03-26T16:10:32.998Z</time></trkpt><trkpt lat="44.01035997843136" lon="7.9534006557783075"><ele>594.0</ele><time>2026-03-26T16:10:33.998Z</time></trkpt><trkpt lat="44.01030647661436" lon="7.953220159021745"><ele>594.0</ele><time>2026-03-26T16:10:34.998Z</time></trkpt><trkpt lat="44.01026086022189" lon="7.953034856254224"><ele>594.0</ele><time>2026-03-26T16:10:35.999Z</time></trkpt><trkpt lat="44.01023518582977" lon="7.952849986582781"><ele>597.75</ele><time>2026-03-26T16:10:36.999Z</time></trkpt><trkpt lat="44.01022802894634" lon="7.952668029837495"><ele>601.5</ele><time>2026-03-26T16:10:37.999Z</time></trkpt><trkpt lat="44.010225075008414" lon="7.952509996315513"><ele>605.25</ele><time>2026-03-26T16:10:38.999Z</time></trkpt><trkpt lat="44.010218310347085" lon="7.952369554218797"><ele>609.0</ele><time>2026-03-26T16:10:39.999Z</time></trkpt><trkpt lat="44.01021691986841" lon="7.952218334289075"><ele>610.6666666666666</ele><time>2026-03-26T16:10:40.999Z</time></trkpt><trkpt lat="44.01022600100839" lon="7.952096819520498"><ele>612.3333333333334</ele><time>2026-03-26T16:10:41.999Z</time></trkpt><trkpt lat="44.01024181020949" lon="7.9519750314638165"><ele>614.0</ele><time>2026-03-26T16:10:42.999Z</time></trkpt><trkpt lat="44.01025865238636" lon="7.951878389628448"><ele>615.6666666666667</ele><time>2026-03-26T16:10:43.999Z</time></trkpt><trkpt lat="44.010276812854976" lon="7.951782758276975"><ele>617.3333333333334</ele><time>2026-03-26T16:10:44.999Z</time></trkpt><trkpt lat="44.01030458005133" lon="7.951688071639603"><ele>619.0</ele><time>2026-03-26T16:10:45.999Z</time></trkpt><trkpt lat="44.01043338697833" lon="7.951711089397706"><ele>619.0</ele><time>2026-03-26T16:10:48.999Z</time></trkpt><trkpt lat="44.010509732201605" lon="7.951744619953362"><ele>619.0</ele><time>2026-03-26T16:10:49.999Z</time></trkpt><trkpt lat="44.01060908804401" lon="7.951760872747374"><ele>619.0</ele><time>2026-03-26T16:10:50.999Z</time></trkpt><trkpt lat="44.01069341104559" lon="7.951772616785714"><ele>619.0</ele><time>2026-03-26T16:10:51.999Z</time></trkpt><trkpt lat="44.01077547525342" lon="7.951749907440018"><ele>619.0</ele><time>2026-03-26T16:10:52.999Z</time></trkpt><trkpt lat="44.01088182893671" lon="7.951731425112602"><ele>619.25</ele><time>2026-03-26T16:10:53.999Z</time></trkpt><trkpt lat="44.011007992888295" lon="7.951691766668624"><ele>619.5</ele><time>2026-03-26T16:10:54.999Z</time></trkpt><trkpt lat="44.01111583246429" lon="7.95166346702049"><ele>619.75</ele><time>2026-03-26T16:10:55.999Z</time></trkpt><trkpt lat="44.01123943614314" lon="7.95167281879295"><ele>620.0</ele><time>2026-03-26T16:10:56.999Z</time></trkpt><trkpt lat="44.01137553612169" lon="7.951700251512225"><ele>625.0</ele><time>2026-03-26T16:10:57.999Z</time></trkpt><trkpt lat="44.01151712661557" lon="7.951720489243708"><ele>630.0</ele><time>2026-03-26T16:10:58.999Z</time></trkpt><trkpt lat="44.01164719336189" lon="7.951738884286645"><ele>635.0</ele><time>2026-03-26T16:10:59.999Z</time></trkpt><trkpt lat="44.01176041040743" lon="7.951769947312284"><ele>640.0</ele><time>2026-03-26T16:11:00.999Z</time></trkpt><trkpt lat="44.01186095172386" lon="7.951818828555186"><ele>640.4</ele><time>2026-03-26T16:11:01.999Z</time></trkpt><trkpt lat="44.01197249525472" lon="7.951912360637343"><ele>640.8</ele><time>2026-03-26T16:11:02.999Z</time></trkpt><trkpt lat="44.0120924162243" lon="7.951992650452242"><ele>641.2</ele><time>2026-03-26T16:11:03.999Z</time></trkpt><trkpt lat="44.012187126775494" lon="7.952004669288368"><ele>641.6</ele><time>2026-03-26T16:11:04.999Z</time></trkpt><trkpt lat="44.01226523753466" lon="7.951953268003882"><ele>642.0</ele><time>2026-03-26T16:11:05.999Z</time></trkpt><trkpt lat="44.01234398151482" lon="7.951868526618722"><ele>642.0</ele><time>2026-03-26T16:11:06.999Z</time></trkpt><trkpt lat="44.012421405230455" lon="7.951758647532371"><ele>642.0</ele><time>2026-03-26T16:11:07.999Z</time></trkpt><trkpt lat="44.012505585207734" lon="7.951651762090116"><ele>642.0</ele><time>2026-03-26T16:11:08.999Z</time></trkpt><trkpt lat="44.0125823137362" lon="7.951554864032325"><ele>642.0</ele><time>2026-03-26T16:11:09.999Z</time></trkpt><trkpt lat="44.01265243901876" lon="7.951535856505809"><ele>642.0</ele><time>2026-03-26T16:11:10.999Z</time></trkpt><trkpt lat="44.01274382870807" lon="7.951516334167731"><ele>638.8333333333334</ele><time>2026-03-26T16:11:11.999Z</time></trkpt><trkpt lat="44.01283819196468" lon="7.951507921973405"><ele>635.6666666666666</ele><time>2026-03-26T16:11:12.999Z</time></trkpt><trkpt lat="44.012912276238225" lon="7.951495236633507"><ele>632.5</ele><time>2026-03-26T16:11:13.999Z</time></trkpt><trkpt lat="44.012971558116774" lon="7.951529793690563"><ele>629.3333333333333</ele><time>2026-03-26T16:12:59.999Z</time></trkpt><trkpt lat="44.01290861664314" lon="7.9515137378034355"><ele>626.1666666666666</ele><time>2026-03-26T16:13:05Z</time></trkpt><trkpt lat="44.01283415329092" lon="7.951519290782763"><ele>623.0</ele><time>2026-03-26T16:13:58Z</time></trkpt><trkpt lat="44.01270050655524" lon="7.951516590738995"><ele>623.0</ele><time>2026-03-26T16:14:00Z</time></trkpt><trkpt lat="44.01260164117843" lon="7.951554133519974"><ele>623.0</ele><time>2026-03-26T16:14:01Z</time></trkpt><trkpt lat="44.01251286663248" lon="7.9516210152898585"><ele>623.0</ele><time>2026-03-26T16:14:02Z</time></trkpt><trkpt lat="44.01241943280988" lon="7.9517474887384445"><ele>623.0</ele><time>2026-03-26T16:14:03Z</time></trkpt><trkpt lat="44.01230699956689" lon="7.951903548110315"><ele>626.8</ele><time>2026-03-26T16:14:04Z</time></trkpt><trkpt lat="44.01223682073603" lon="7.952005499891973"><ele>630.5999999999999</ele><time>2026-03-26T16:14:04.999Z</time></trkpt><trkpt lat="44.012162817569155" lon="7.952044398392245"><ele>634.4000000000001</ele><time>2026-03-26T16:14:05.999Z</time></trkpt><trkpt lat="44.01206109979728" lon="7.952036391906836"><ele>638.2</ele><time>2026-03-26T16:14:06.999Z</time></trkpt><trkpt lat="44.01195831606583" lon="7.95194727548025"><ele>642.0</ele><time>2026-03-26T16:14:07.999Z</time></trkpt><trkpt lat="44.011856006791106" lon="7.951845299767126"><ele>642.0</ele><time>2026-03-26T16:14:08.999Z</time></trkpt><trkpt lat="44.01174974072493" lon="7.951740945776048"><ele>642.0</ele><time>2026-03-26T16:14:09.999Z</time></trkpt><trkpt lat="44.01165006880865" lon="7.951677172252317"><ele>642.0</ele><time>2026-03-26T16:14:10.999Z</time></trkpt><trkpt lat="44.011504506622586" lon="7.9516607558802335"><ele>642.0</ele><time>2026-03-26T16:14:11.999Z</time></trkpt><trkpt lat="44.011341346378295" lon="7.951666923945671"><ele>636.5</ele><time>2026-03-26T16:14:12.999Z</time></trkpt><trkpt lat="44.011187241995074" lon="7.951630991063657"><ele>631.0</ele><time>2026-03-26T16:14:13.999Z</time></trkpt><trkpt lat="44.01104868377334" lon="7.951635097383231"><ele>625.5</ele><time>2026-03-26T16:14:14.999Z</time></trkpt><trkpt lat="44.01092000363991" lon="7.951679908576834"><ele>620.0</ele><time>2026-03-26T16:14:15.999Z</time></trkpt><trkpt lat="44.01077643016047" lon="7.951722348994809"><ele>619.8</ele><time>2026-03-26T16:14:16.999Z</time></trkpt><trkpt lat="44.01063317563306" lon="7.95176632036581"><ele>619.6</ele><time>2026-03-26T16:14:17.999Z</time></trkpt><trkpt lat="44.01054888467463" lon="7.951720365536913"><ele>619.4</ele><time>2026-03-26T16:14:18.999Z</time></trkpt><trkpt lat="44.01046553337734" lon="7.951676611288898"><ele>619.2</ele><time>2026-03-26T16:14:19.999Z</time></trkpt><trkpt lat="44.01039281592654" lon="7.951619790130305"><ele>619.0</ele><time>2026-03-26T16:14:20.999Z</time></trkpt><trkpt lat="44.01030936606152" lon="7.951585691141689"><ele>619.0</ele><time>2026-03-26T16:14:22.999Z</time></trkpt><trkpt lat="44.0102264160345" lon="7.951873750809894"><ele>619.0</ele><time>2026-03-26T16:14:26Z</time></trkpt><trkpt lat="44.01020617492607" lon="7.952054583537301"><ele>619.0</ele><time>2026-03-26T16:14:27Z</time></trkpt><trkpt lat="44.010166575673125" lon="7.9522282451409"><ele>619.0</ele><time>2026-03-26T16:14:28Z</time></trkpt><trkpt lat="44.010175435291714" lon="7.952419411033595"><ele>619.0</ele><time>2026-03-26T16:14:29Z</time></trkpt><trkpt lat="44.01018693477749" lon="7.9526255326316475"><ele>619.0</ele><time>2026-03-26T16:14:30Z</time></trkpt><trkpt lat="44.01020420722412" lon="7.952831907663851"><ele>619.0</ele><time>2026-03-26T16:14:31Z</time></trkpt><trkpt lat="44.01022933692705" lon="7.953065227035843"><ele>615.6666666666667</ele><time>2026-03-26T16:14:32Z</time></trkpt><trkpt lat="44.01029366581797" lon="7.953291586636592"><ele>612.3333333333334</ele><time>2026-03-26T16:14:33Z</time></trkpt><trkpt lat="44.01036353348377" lon="7.953502642747735"><ele>609.0</ele><time>2026-03-26T16:14:34Z</time></trkpt><trkpt lat="44.01044226589548" lon="7.953719459193062"><ele>604.0</ele><time>2026-03-26T16:14:35Z</time></trkpt><trkpt lat="44.01050261649062" lon="7.953957164709779"><ele>599.0</ele><time>2026-03-26T16:14:36Z</time></trkpt><trkpt lat="44.01057177818859" lon="7.95417675324003"><ele>594.0</ele><time>2026-03-26T16:14:37Z</time></trkpt><trkpt lat="44.01063195579967" lon="7.954364446980068"><ele>594.0</ele><time>2026-03-26T16:14:38Z</time></trkpt><trkpt lat="44.010698322423934" lon="7.954566468109266"><ele>594.0</ele><time>2026-03-26T16:14:39Z</time></trkpt><trkpt lat="44.01075399786013" lon="7.9547308202086775"><ele>594.0</ele><time>2026-03-26T16:14:40Z</time></trkpt><trkpt lat="44.01076664387255" lon="7.954893543452201"><ele>594.0</ele><time>2026-03-26T16:14:41Z</time></trkpt><trkpt lat="44.010721615451615" lon="7.955037967965767"><ele>595.4</ele><time>2026-03-26T16:14:42Z</time></trkpt><trkpt lat="44.010682191034284" lon="7.955201332696753"><ele>596.8</ele><time>2026-03-26T16:14:43Z</time></trkpt><trkpt lat="44.01063940910553" lon="7.9553470467193845"><ele>598.2</ele><time>2026-03-26T16:14:44Z</time></trkpt><trkpt lat="44.01061500145048" lon="7.9554574131401194"><ele>599.6</ele><time>2026-03-26T16:14:45Z</time></trkpt><trkpt lat="44.010542680972485" lon="7.955523820693966"><ele>601.0</ele><time>2026-03-26T16:14:46Z</time></trkpt><trkpt lat="44.01048786896593" lon="7.955618792887933"><ele>601.0</ele><time>2026-03-26T16:14:47Z</time></trkpt><trkpt lat="44.01051764768933" lon="7.955797145281058"><ele>601.0</ele><time>2026-03-26T16:14:48Z</time></trkpt><trkpt lat="44.010442482330355" lon="7.955811495361379"><ele>601.0</ele><time>2026-03-26T16:14:49Z</time></trkpt><trkpt lat="44.01035736417721" lon="7.955847298769045"><ele>601.0</ele><time>2026-03-26T16:14:50Z</time></trkpt><trkpt lat="44.010251734372126" lon="7.955891499650674"><ele>601.0</ele><time>2026-03-26T16:14:51Z</time></trkpt><trkpt lat="44.01017982046304" lon="7.955991052080903"><ele>602.2</ele><time>2026-03-26T16:14:52Z</time></trkpt><trkpt lat="44.010160688191455" lon="7.95612259514481"><ele>603.4000000000001</ele><time>2026-03-26T16:14:53Z</time></trkpt><trkpt lat="44.01017960369106" lon="7.95626920191448"><ele>604.6</ele><time>2026-03-26T16:14:54Z</time></trkpt><trkpt lat="44.01023156997464" lon="7.956401580372269"><ele>605.8000000000001</ele><time>2026-03-26T16:14:55Z</time></trkpt><trkpt lat="44.01031366714307" lon="7.956466304470052"><ele>607.0</ele><time>2026-03-26T16:14:56Z</time></trkpt><trkpt lat="44.0104292074545" lon="7.956506955107227"><ele>607.0</ele><time>2026-03-26T16:14:57Z</time></trkpt><trkpt lat="44.01051246687484" lon="7.95660990507133"><ele>607.0</ele><time>2026-03-26T16:14:58Z</time></trkpt><trkpt lat="44.0105595687867" lon="7.9567342153399405"><ele>607.0</ele><time>2026-03-26T16:14:59Z</time></trkpt><trkpt lat="44.01059267545268" lon="7.956873332330031"><ele>607.0</ele><time>2026-03-26T16:15:00Z</time></trkpt><trkpt lat="44.010639603737204" lon="7.956999262950855"><ele>607.0</ele><time>2026-03-26T16:15:01Z</time></trkpt><trkpt lat="44.01068690281503" lon="7.9570813647184995"><ele>605.0</ele><time>2026-03-26T16:15:02Z</time></trkpt><trkpt lat="44.01077349406884" lon="7.9571451240454145"><ele>603.0</ele><time>2026-03-26T16:15:03Z</time></trkpt><trkpt lat="44.01082132473788" lon="7.9572494707048715"><ele>601.0</ele><time>2026-03-26T16:15:04Z</time></trkpt><trkpt lat="44.01087262926231" lon="7.957332965768013"><ele>599.0</ele><time>2026-03-26T16:15:05Z</time></trkpt><trkpt lat="44.01085309545735" lon="7.957438635196093"><ele>597.0</ele><time>2026-03-26T16:15:06Z</time></trkpt><trkpt lat="44.0108234018413" lon="7.957549976792462"><ele>595.0</ele><time>2026-03-26T16:15:07Z</time></trkpt><trkpt lat="44.01079969012527" lon="7.957671237629302"><ele>594.0</ele><time>2026-03-26T16:15:08Z</time></trkpt><trkpt lat="44.010780685573515" lon="7.957791496552938"><ele>593.0</ele><time>2026-03-26T16:15:09Z</time></trkpt><trkpt lat="44.01079816926185" lon="7.9579219524271885"><ele>592.0</ele><time>2026-03-26T16:15:10Z</time></trkpt><trkpt lat="44.01082053448446" lon="7.958040129981273"><ele>591.0</ele><time>2026-03-26T16:15:11Z</time></trkpt><trkpt lat="44.01084881458537" lon="7.958141533331591"><ele>590.0</ele><time>2026-03-26T16:15:12Z</time></trkpt><trkpt lat="44.01086115644235" lon="7.958230774558335"><ele>589.0</ele><time>2026-03-26T16:15:13.001Z</time></trkpt><trkpt lat="44.01102118498353" lon="7.958293510105465"><ele>595.25</ele><time>2026-03-26T16:15:15.001Z</time></trkpt><trkpt lat="44.011139910385594" lon="7.958316449059403"><ele>601.5</ele><time>2026-03-26T16:15:16.001Z</time></trkpt><trkpt lat="44.011264941707566" lon="7.958394348763021"><ele>607.75</ele><time>2026-03-26T16:15:17.001Z</time></trkpt><trkpt lat="44.01139409416098" lon="7.958414090229657"><ele>614.0</ele><time>2026-03-26T16:15:18.001Z</time></trkpt><trkpt lat="44.01149966509446" lon="7.958395900953443"><ele>617.6</ele><time>2026-03-26T16:15:19.001Z</time></trkpt><trkpt lat="44.011591766527616" lon="7.958314941450139"><ele>621.2</ele><time>2026-03-26T16:15:20.001Z</time></trkpt><trkpt lat="44.01168685361444" lon="7.958206779746127"><ele>624.8000000000001</ele><time>2026-03-26T16:15:21.001Z</time></trkpt><trkpt lat="44.01180199654081" lon="7.958149368755399"><ele>628.4</ele><time>2026-03-26T16:15:22.001Z</time></trkpt><trkpt lat="44.01186367899307" lon="7.958179040911182"><ele>632.0</ele><time>2026-03-26T16:15:23.001Z</time></trkpt><trkpt lat="44.01192700492007" lon="7.958291648408836"><ele>628.0</ele><time>2026-03-26T16:15:24.001Z</time></trkpt><trkpt lat="44.01199185215016" lon="7.958405111806595"><ele>624.0</ele><time>2026-03-26T16:15:25.001Z</time></trkpt><trkpt lat="44.01207353944141" lon="7.958473780832284"><ele>620.0</ele><time>2026-03-26T16:15:26.001Z</time></trkpt><trkpt lat="44.01218473228452" lon="7.958463539714483"><ele>616.0</ele><time>2026-03-26T16:15:27.001Z</time></trkpt><trkpt lat="44.01232498175465" lon="7.958423936793951"><ele>616.0</ele><time>2026-03-26T16:15:28.001Z</time></trkpt><trkpt lat="44.01247369664051" lon="7.958416661489328"><ele>616.0</ele><time>2026-03-26T16:15:29.001Z</time></trkpt><trkpt lat="44.0126036754104" lon="7.958474702998823"><ele>616.0</ele><time>2026-03-26T16:15:30.001Z</time></trkpt><trkpt lat="44.012702391999404" lon="7.958565430907684"><ele>616.0</ele><time>2026-03-26T16:15:31.001Z</time></trkpt><trkpt lat="44.01278826701497" lon="7.958699018903752"><ele>618.75</ele><time>2026-03-26T16:15:32.001Z</time></trkpt><trkpt lat="44.01290728470265" lon="7.958816086512364"><ele>621.5</ele><time>2026-03-26T16:15:33.001Z</time></trkpt><trkpt lat="44.01302223796358" lon="7.9589357035597885"><ele>624.25</ele><time>2026-03-26T16:15:34.001Z</time></trkpt><trkpt lat="44.01314982651531" lon="7.959008901063153"><ele>627.0</ele><time>2026-03-26T16:15:35.001Z</time></trkpt><trkpt lat="44.013294176211105" lon="7.959043052365298"><ele>628.25</ele><time>2026-03-26T16:15:36.001Z</time></trkpt><trkpt lat="44.01343523593881" lon="7.959136743067797"><ele>629.5</ele><time>2026-03-26T16:15:37.001Z</time></trkpt><trkpt lat="44.01354527080669" lon="7.959232277484366"><ele>630.75</ele><time>2026-03-26T16:15:38.001Z</time></trkpt><trkpt lat="44.013648638099745" lon="7.95933083038155"><ele>632.0</ele><time>2026-03-26T16:15:39.001Z</time></trkpt><trkpt lat="44.013744367867325" lon="7.959396099760361"><ele>632.0</ele><time>2026-03-26T16:15:40.001Z</time></trkpt><trkpt lat="44.01380289221607" lon="7.95944861059016"><ele>632.0</ele><time>2026-03-26T16:15:41.001Z</time></trkpt><trkpt lat="44.01385734728795" lon="7.959503949769491"><ele>632.0</ele><time>2026-03-26T16:17:05.001Z</time></trkpt><trkpt lat="44.01394535799264" lon="7.959495229594828"><ele>632.0</ele><time>2026-03-26T16:17:07.001Z</time></trkpt><trkpt lat="44.01404996774269" lon="7.959515921355184"><ele>632.0</ele><time>2026-03-26T16:17:09.001Z</time></trkpt><trkpt lat="44.01412046361664" lon="7.959576519562532"><ele>632.0</ele><time>2026-03-26T16:17:11.001Z</time></trkpt><trkpt lat="44.01419233086176" lon="7.959692808500925"><ele>637.1666666666666</ele><time>2026-03-26T16:17:13.001Z</time></trkpt><trkpt lat="44.014234563750875" lon="7.9597603975218005"><ele>642.3333333333333</ele><time>2026-03-26T16:17:14.001Z</time></trkpt><trkpt lat="44.01429003115867" lon="7.959849167543772"><ele>647.5</ele><time>2026-03-26T16:17:15.001Z</time></trkpt><trkpt lat="44.01434242565064" lon="7.95992385214191"><ele>652.6666666666666</ele><time>2026-03-26T16:17:16.001Z</time></trkpt><trkpt lat="44.014420958860455" lon="7.960005486166092"><ele>657.8333333333334</ele><time>2026-03-26T16:17:18.001Z</time></trkpt><trkpt lat="44.014514470482304" lon="7.960045997847114"><ele>663.0</ele><time>2026-03-26T16:17:20.001Z</time></trkpt><trkpt lat="44.014611381916446" lon="7.960097042084117"><ele>663.0</ele><time>2026-03-26T16:17:21.001Z</time></trkpt><trkpt lat="44.01468980134671" lon="7.960176210570269"><ele>663.0</ele><time>2026-03-26T16:17:22.001Z</time></trkpt><trkpt lat="44.01474924162106" lon="7.960256067093696"><ele>663.0</ele><time>2026-03-26T16:17:23.001Z</time></trkpt><trkpt lat="44.0148047493118" lon="7.960333280288859"><ele>663.0</ele><time>2026-03-26T16:17:24.001Z</time></trkpt><trkpt lat="44.014861286122326" lon="7.96040882195208"><ele>663.0</ele><time>2026-03-26T16:17:25.001Z</time></trkpt><trkpt lat="44.01492078303174" lon="7.960486691788226"><ele>663.0</ele><time>2026-03-26T16:17:26.001Z</time></trkpt><trkpt lat="44.01498054256079" lon="7.960545982179653"><ele>672.5</ele><time>2026-03-26T16:17:27.001Z</time></trkpt><trkpt lat="44.015407021098966" lon="7.960578996642396"><ele>682.0</ele><time>2026-03-26T16:17:36.001Z</time></trkpt><trkpt lat="44.015495798401005" lon="7.96053752315009"><ele>683.0</ele><time>2026-03-26T16:17:40.001Z</time></trkpt><trkpt lat="44.01593213695443" lon="7.960487098847023"><ele>684.0</ele><time>2026-03-26T16:17:42.001Z</time></trkpt><trkpt lat="44.01612436579831" lon="7.96074044726064"><ele>684.0</ele><time>2026-03-26T16:17:43.001Z</time></trkpt><trkpt lat="44.01623229120277" lon="7.960808358041219"><ele>684.0</ele><time>2026-03-26T16:17:45.002Z</time></trkpt><trkpt lat="44.01630907116032" lon="7.960837873309026"><ele>684.0</ele><time>2026-03-26T16:17:47.002Z</time></trkpt><trkpt lat="44.016385282768404" lon="7.960922805241872"><ele>684.0</ele><time>2026-03-26T16:17:49.002Z</time></trkpt><trkpt lat="44.01641204123862" lon="7.961019389835576"><ele>684.0</ele><time>2026-03-26T16:17:51.002Z</time></trkpt><trkpt lat="44.016448400248876" lon="7.961128555635544"><ele>688.2</ele><time>2026-03-26T16:17:53.002Z</time></trkpt><trkpt lat="44.01643498236849" lon="7.961216907427709"><ele>692.4000000000001</ele><time>2026-03-26T16:17:55.002Z</time></trkpt><trkpt lat="44.01641345706121" lon="7.961302744150917"><ele>696.6</ele><time>2026-03-26T16:17:57.002Z</time></trkpt><trkpt lat="44.01639945851664" lon="7.961392041726245"><ele>700.8</ele><time>2026-03-26T16:17:59.002Z</time></trkpt><trkpt lat="44.016388323405295" lon="7.961481878640492"><ele>705.0</ele><time>2026-03-26T16:18:01.002Z</time></trkpt><trkpt lat="44.01636098951746" lon="7.961748579787638"><ele>705.0</ele><time>2026-03-26T16:18:20.002Z</time></trkpt><trkpt lat="44.016437711493396" lon="7.961777788127085"><ele>705.0</ele><time>2026-03-26T16:18:29.001Z</time></trkpt><trkpt lat="44.01649698235958" lon="7.961815948908904"><ele>705.0</ele><time>2026-03-26T16:18:31.001Z</time></trkpt><trkpt lat="44.016583134483696" lon="7.961869635848925"><ele>705.0</ele><time>2026-03-26T16:18:38.001Z</time></trkpt><trkpt lat="44.01668657678844" lon="7.961963347450762"><ele>705.0</ele><time>2026-03-26T16:18:40.001Z</time></trkpt><trkpt lat="44.016758818258666" lon="7.962034134035593"><ele>704.4285714285713</ele><time>2026-03-26T16:18:41.001Z</time></trkpt><trkpt lat="44.01682954755108" lon="7.96210170549694"><ele>703.8571428571429</ele><time>2026-03-26T16:18:42.001Z</time></trkpt><trkpt lat="44.01689692201149" lon="7.962161382616657"><ele>703.2857142857142</ele><time>2026-03-26T16:18:43.001Z</time></trkpt><trkpt lat="44.016924192999916" lon="7.962252763700815"><ele>702.7142857142857</ele><time>2026-03-26T16:18:45.001Z</time></trkpt><trkpt lat="44.01693038234231" lon="7.9623484282337955"><ele>702.1428571428571</ele><time>2026-03-26T16:18:46.001Z</time></trkpt><trkpt lat="44.01695737425012" lon="7.9624350899755285"><ele>701.5714285714286</ele><time>2026-03-26T16:18:48.001Z</time></trkpt><trkpt lat="44.016993170615066" lon="7.962512058916279"><ele>701.0</ele><time>2026-03-26T16:20:29.002Z</time></trkpt><trkpt lat="44.01702682931274" lon="7.962618721830245"><ele>701.0</ele><time>2026-03-26T16:20:31.002Z</time></trkpt><trkpt lat="44.01708687176078" lon="7.96269405468795"><ele>701.0</ele><time>2026-03-26T16:20:33.002Z</time></trkpt><trkpt lat="44.017172661777664" lon="7.9627873966757265"><ele>701.0</ele><time>2026-03-26T16:20:35.002Z</time></trkpt><trkpt lat="44.01723035639522" lon="7.962863511295907"><ele>701.0</ele><time>2026-03-26T16:20:36.002Z</time></trkpt><trkpt lat="44.01728315789068" lon="7.962925326293948"><ele>701.0</ele><time>2026-03-26T16:20:37.002Z</time></trkpt><trkpt lat="44.01738575984635" lon="7.96305833987632"><ele>701.6666666666666</ele><time>2026-03-26T16:20:39.002Z</time></trkpt><trkpt lat="44.017496847264894" lon="7.963102198031274"><ele>702.3333333333333</ele><time>2026-03-26T16:20:41.002Z</time></trkpt><trkpt lat="44.01756803437867" lon="7.9631552832410275"><ele>703.0</ele><time>2026-03-26T16:20:42.002Z</time></trkpt><trkpt lat="44.01762926186413" lon="7.963228635362915"><ele>703.6666666666666</ele><time>2026-03-26T16:20:43.001Z</time></trkpt><trkpt lat="44.0176851937824" lon="7.963289219846142"><ele>704.3333333333334</ele><time>2026-03-26T16:20:44.001Z</time></trkpt><trkpt lat="44.017757188837635" lon="7.963352631551293"><ele>705.0</ele><time>2026-03-26T16:20:45.001Z</time></trkpt><trkpt lat="44.01783465606519" lon="7.963403649840904"><ele>703.2</ele><time>2026-03-26T16:20:46.001Z</time></trkpt><trkpt lat="44.01791879136329" lon="7.963440778837443"><ele>701.4</ele><time>2026-03-26T16:20:47.001Z</time></trkpt><trkpt lat="44.01801863520812" lon="7.96346408208613"><ele>699.5999999999999</ele><time>2026-03-26T16:20:48.001Z</time></trkpt><trkpt lat="44.01810235529899" lon="7.963523138951124"><ele>697.8</ele><time>2026-03-26T16:20:49.001Z</time></trkpt><trkpt lat="44.018184477335936" lon="7.963591495947554"><ele>696.0</ele><time>2026-03-26T16:20:50.001Z</time></trkpt><trkpt lat="44.01824490594677" lon="7.9636545148063"><ele>696.0</ele><time>2026-03-26T16:20:51.001Z</time></trkpt><trkpt lat="44.01831705036565" lon="7.963770025397952"><ele>696.0</ele><time>2026-03-26T16:20:53.001Z</time></trkpt><trkpt lat="44.01837776297839" lon="7.96383013323319"><ele>696.0</ele><time>2026-03-26T16:20:54.001Z</time></trkpt><trkpt lat="44.01844563599966" lon="7.963905228872166"><ele>696.0</ele><time>2026-03-26T16:20:55.001Z</time></trkpt><trkpt lat="44.018498925553025" lon="7.96400034506676"><ele>696.0</ele><time>2026-03-26T16:20:56.001Z</time></trkpt><trkpt lat="44.01857449858087" lon="7.964094248253833"><ele>696.5</ele><time>2026-03-26T16:20:57.001Z</time></trkpt><trkpt lat="44.01864717911763" lon="7.964155795951427"><ele>697.0</ele><time>2026-03-26T16:20:58.001Z</time></trkpt><trkpt lat="44.01874158921211" lon="7.964199948598804"><ele>697.5</ele><time>2026-03-26T16:20:59.001Z</time></trkpt><trkpt lat="44.018836558898535" lon="7.964213716364054"><ele>698.0</ele><time>2026-03-26T16:21:00.001Z</time></trkpt><trkpt lat="44.01892108561363" lon="7.964234341398136"><ele>698.5</ele><time>2026-03-26T16:21:01.001Z</time></trkpt><trkpt lat="44.01896518052985" lon="7.964322900521178"><ele>699.0</ele><time>2026-03-26T16:21:03.001Z</time></trkpt><trkpt lat="44.018941138634055" lon="7.9644063154816"><ele>699.0</ele><time>2026-03-26T16:21:04.001Z</time></trkpt><trkpt lat="44.01892652414225" lon="7.964505426165436"><ele>699.0</ele><time>2026-03-26T16:21:05.001Z</time></trkpt><trkpt lat="44.01890432119055" lon="7.964645441979849"><ele>699.0</ele><time>2026-03-26T16:21:06.001Z</time></trkpt><trkpt lat="44.01888586204532" lon="7.964792296127235"><ele>699.0</ele><time>2026-03-26T16:21:07.001Z</time></trkpt><trkpt lat="44.01889575425885" lon="7.964935208226473"><ele>699.0</ele><time>2026-03-26T16:21:08.001Z</time></trkpt><trkpt lat="44.01890881847385" lon="7.96507723608378"><ele>695.8000000000001</ele><time>2026-03-26T16:21:09.001Z</time></trkpt><trkpt lat="44.01889509283381" lon="7.965270351229892"><ele>692.6</ele><time>2026-03-26T16:21:11.001Z</time></trkpt><trkpt lat="44.01889624771536" lon="7.965403193209558"><ele>689.4</ele><time>2026-03-26T16:21:12.001Z</time></trkpt><trkpt lat="44.01892835973598" lon="7.965486705520847"><ele>686.2</ele><time>2026-03-26T16:21:13.001Z</time></trkpt><trkpt lat="44.01896860547841" lon="7.965590248448646"><ele>683.0</ele><time>2026-03-26T16:21:14.001Z</time></trkpt><trkpt lat="44.01905403168283" lon="7.965691663513472"><ele>683.0</ele><time>2026-03-26T16:21:15.001Z</time></trkpt><trkpt lat="44.019136828550415" lon="7.9657762104736545"><ele>683.0</ele><time>2026-03-26T16:21:16.001Z</time></trkpt><trkpt lat="44.01920845299396" lon="7.965831072680949"><ele>683.0</ele><time>2026-03-26T16:21:17.001Z</time></trkpt><trkpt lat="44.019292677081246" lon="7.9658798397195305"><ele>683.0</ele><time>2026-03-26T16:21:18.001Z</time></trkpt><trkpt lat="44.01937827392987" lon="7.965918412891724"><ele>683.0</ele><time>2026-03-26T16:21:19.001Z</time></trkpt><trkpt lat="44.019450012873754" lon="7.965946456246473"><ele>683.0</ele><time>2026-03-26T16:21:20.002Z</time></trkpt><trkpt lat="44.019531422602356" lon="7.965986760375977"><ele>688.8</ele><time>2026-03-26T16:21:21.002Z</time></trkpt><trkpt lat="44.01964889224734" lon="7.966112023785523"><ele>694.5999999999999</ele><time>2026-03-26T16:21:23.002Z</time></trkpt><trkpt lat="44.019720370126294" lon="7.966193299001264"><ele>700.4000000000001</ele><time>2026-03-26T16:21:24.002Z</time></trkpt><trkpt lat="44.01978514384416" lon="7.9663071775340635"><ele>706.2</ele><time>2026-03-26T16:21:25.002Z</time></trkpt><trkpt lat="44.01985413294842" lon="7.966410400470119"><ele>712.0</ele><time>2026-03-26T16:21:26.002Z</time></trkpt><trkpt lat="44.019912727173754" lon="7.966522424811145"><ele>712.0</ele><time>2026-03-26T16:21:27.002Z</time></trkpt><trkpt lat="44.01995067406338" lon="7.9666014963579395"><ele>712.0</ele><time>2026-03-26T16:21:28.002Z</time></trkpt><trkpt lat="44.0200008526387" lon="7.966712449131695"><ele>712.0</ele><time>2026-03-26T16:21:31.002Z</time></trkpt><trkpt lat="44.02008786125127" lon="7.9667597691725565"><ele>712.0</ele><time>2026-03-26T16:21:34.002Z</time></trkpt><trkpt lat="44.02015879121322" lon="7.966769388555609"><ele>712.0</ele><time>2026-03-26T16:22:00.002Z</time></trkpt><trkpt lat="44.02023297689683" lon="7.96680488938095"><ele>712.0</ele><time>2026-03-26T16:22:02.002Z</time></trkpt><trkpt lat="44.02030629828087" lon="7.966877534647177"><ele>711.8</ele><time>2026-03-26T16:22:03.002Z</time></trkpt><trkpt lat="44.0203734157" lon="7.966963497998645"><ele>711.6</ele><time>2026-03-26T16:22:04.002Z</time></trkpt><trkpt lat="44.020440927647606" lon="7.967077000865913"><ele>711.4</ele><time>2026-03-26T16:22:05.002Z</time></trkpt><trkpt lat="44.02052046037691" lon="7.967139432147368"><ele>711.1999999999999</ele><time>2026-03-26T16:22:06.002Z</time></trkpt><trkpt lat="44.02059737753089" lon="7.967175711931534"><ele>711.0</ele><time>2026-03-26T16:22:07.002Z</time></trkpt><trkpt lat="44.020681729451915" lon="7.967225359585654"><ele>711.0</ele><time>2026-03-26T16:22:09.002Z</time></trkpt><trkpt lat="44.020806017099254" lon="7.967173503454479"><ele>711.0</ele><time>2026-03-26T16:22:11.002Z</time></trkpt><trkpt lat="44.02086127093285" lon="7.967117694845311"><ele>711.0</ele><time>2026-03-26T16:22:12.002Z</time></trkpt><trkpt lat="44.02092875084235" lon="7.967046808715278"><ele>711.0</ele><time>2026-03-26T16:22:13.002Z</time></trkpt><trkpt lat="44.02102306690349" lon="7.9669341204369495"><ele>711.0</ele><time>2026-03-26T16:22:15.002Z</time></trkpt><trkpt lat="44.02106059043813" lon="7.966804334085002"><ele>708.6666666666666</ele><time>2026-03-26T16:22:17.002Z</time></trkpt><trkpt lat="44.021113462273064" lon="7.9667330208254645"><ele>706.3333333333334</ele><time>2026-03-26T16:22:18.002Z</time></trkpt><trkpt lat="44.02118399162084" lon="7.96668825833909"><ele>704.0</ele><time>2026-03-26T16:22:19.002Z</time></trkpt><trkpt lat="44.0212606823628" lon="7.966616106487512"><ele>701.6666666666667</ele><time>2026-03-26T16:22:20.002Z</time></trkpt><trkpt lat="44.02133136135884" lon="7.9665825039329565"><ele>699.3333333333334</ele><time>2026-03-26T16:22:21.002Z</time></trkpt><trkpt lat="44.02139459342921" lon="7.9665640096671035"><ele>697.0</ele><time>2026-03-26T16:22:22.002Z</time></trkpt><trkpt lat="44.02149377725257" lon="7.9664800332735926"><ele>693.6</ele><time>2026-03-26T16:22:23.002Z</time></trkpt><trkpt lat="44.02157917676222" lon="7.966431978643979"><ele>690.2</ele><time>2026-03-26T16:22:24.002Z</time></trkpt><trkpt lat="44.021693831506525" lon="7.9663986152487425"><ele>686.8</ele><time>2026-03-26T16:22:26.002Z</time></trkpt><trkpt lat="44.02176629999856" lon="7.966398075842929"><ele>683.4</ele><time>2026-03-26T16:22:27.002Z</time></trkpt><trkpt lat="44.02184747373645" lon="7.9663674881158535"><ele>680.0</ele><time>2026-03-26T16:22:28.002Z</time></trkpt><trkpt lat="44.021940080535344" lon="7.9663108440326384"><ele>680.0</ele><time>2026-03-26T16:22:29.002Z</time></trkpt><trkpt lat="44.0220028778481" lon="7.966270470060685"><ele>680.0</ele><time>2026-03-26T16:22:30.002Z</time></trkpt><trkpt lat="44.02206401988513" lon="7.96609600487057"><ele>680.0</ele><time>2026-03-26T16:22:32.002Z</time></trkpt><trkpt lat="44.022104181990926" lon="7.965966767977367"><ele>680.0</ele><time>2026-03-26T16:22:33.002Z</time></trkpt><trkpt lat="44.022163190739846" lon="7.96587839559129"><ele>680.0</ele><time>2026-03-26T16:22:35.002Z</time></trkpt><trkpt lat="44.022281627976824" lon="7.965804478337218"><ele>678.0</ele><time>2026-03-26T16:22:37.002Z</time></trkpt><trkpt lat="44.022321777234716" lon="7.965733076649817"><ele>676.0</ele><time>2026-03-26T16:22:38.002Z</time></trkpt><trkpt lat="44.02239358161675" lon="7.965649273776314"><ele>674.0</ele><time>2026-03-26T16:22:40.002Z</time></trkpt><trkpt lat="44.022514568384466" lon="7.965684254374999"><ele>672.0</ele><time>2026-03-26T16:22:42.002Z</time></trkpt><trkpt lat="44.022590269097996" lon="7.965722962237157"><ele>670.0</ele><time>2026-03-26T16:22:43.002Z</time></trkpt><trkpt lat="44.02266468163865" lon="7.965741835633292"><ele>668.0</ele><time>2026-03-26T16:22:44.002Z</time></trkpt><trkpt lat="44.02276923054283" lon="7.965689449558413"><ele>668.0</ele><time>2026-03-26T16:22:46.002Z</time></trkpt><trkpt lat="44.022828795072876" lon="7.965645983508062"><ele>668.0</ele><time>2026-03-26T16:22:47.002Z</time></trkpt><trkpt lat="44.02289919705799" lon="7.965678157434595"><ele>668.0</ele><time>2026-03-26T16:22:48.002Z</time></trkpt><trkpt lat="44.023000363178156" lon="7.965690035799928"><ele>668.0</ele><time>2026-03-26T16:22:49.002Z</time></trkpt><trkpt lat="44.023100613928214" lon="7.965645885610358"><ele>668.0</ele><time>2026-03-26T16:22:50.002Z</time></trkpt><trkpt lat="44.023179464917085" lon="7.965557362613485"><ele>668.0</ele><time>2026-03-26T16:22:51.002Z</time></trkpt><trkpt lat="44.02313846748666" lon="7.965276067326219"><ele>668.0</ele><time>2026-03-26T16:22:52.002Z</time></trkpt><trkpt lat="44.023201965012454" lon="7.965202130484727"><ele>668.0</ele><time>2026-03-26T16:22:53.002Z</time></trkpt><trkpt lat="44.02328535388372" lon="7.965076630865104"><ele>668.0</ele><time>2026-03-26T16:22:55.002Z</time></trkpt><trkpt lat="44.02334522155666" lon="7.964976812568898"><ele>668.0</ele><time>2026-03-26T16:22:56.002Z</time></trkpt><trkpt lat="44.023410603632556" lon="7.964867721166076"><ele>668.0</ele><time>2026-03-26T16:22:57.002Z</time></trkpt><trkpt lat="44.02345928774702" lon="7.964786471258392"><ele>664.3333333333333</ele><time>2026-03-26T16:22:58.002Z</time></trkpt><trkpt lat="44.02350706278363" lon="7.964704812470727"><ele>660.6666666666666</ele><time>2026-03-26T16:22:59.002Z</time></trkpt><trkpt lat="44.023549116861204" lon="7.9646317401369044"><ele>657.0</ele><time>2026-03-26T16:23:01.001Z</time></trkpt><trkpt lat="44.023716766730935" lon="7.965198261712695"><ele>657.0</ele><time>2026-03-26T16:24:06.002Z</time></trkpt><trkpt lat="44.023687079527924" lon="7.965280643167068"><ele>657.0</ele><time>2026-03-26T16:24:08.002Z</time></trkpt><trkpt lat="44.023672748004" lon="7.965427337943407"><ele>657.0</ele><time>2026-03-26T16:24:10.002Z</time></trkpt><trkpt lat="44.0236893556255" lon="7.9655989303258705"><ele>657.0</ele><time>2026-03-26T16:24:12.002Z</time></trkpt><trkpt lat="44.02368255393041" lon="7.965717696623674"><ele>657.0</ele><time>2026-03-26T16:24:14.002Z</time></trkpt><trkpt lat="44.0236779877672" lon="7.965882784921311"><ele>657.0</ele><time>2026-03-26T16:24:16.002Z</time></trkpt><trkpt lat="44.023674981166046" lon="7.966022669307748"><ele>657.0</ele><time>2026-03-26T16:24:17.002Z</time></trkpt><trkpt lat="44.02369510731983" lon="7.966125300862212"><ele>657.0</ele><time>2026-03-26T16:24:18.002Z</time></trkpt><trkpt lat="44.023713012486226" lon="7.966223597123443"><ele>657.0</ele><time>2026-03-26T16:24:19.002Z</time></trkpt><trkpt lat="44.02370560806871" lon="7.96635768738147"><ele>657.0</ele><time>2026-03-26T16:24:20.002Z</time></trkpt><trkpt lat="44.02368550601019" lon="7.966467017602071"><ele>657.0</ele><time>2026-03-26T16:24:21.002Z</time></trkpt><trkpt lat="44.02366875278657" lon="7.966583607386468"><ele>657.0</ele><time>2026-03-26T16:24:22.002Z</time></trkpt><trkpt lat="44.02361015777727" lon="7.966689244172579"><ele>657.0</ele><time>2026-03-26T16:24:23.002Z</time></trkpt><trkpt lat="44.02356343681192" lon="7.96683182500984"><ele>657.0</ele><time>2026-03-26T16:24:24.002Z</time></trkpt><trkpt lat="44.02353453057801" lon="7.96696632996525"><ele>657.0</ele><time>2026-03-26T16:24:25.002Z</time></trkpt><trkpt lat="44.02348460063013" lon="7.967057927816888"><ele>657.0</ele><time>2026-03-26T16:24:26.002Z</time></trkpt><trkpt lat="44.023371337292176" lon="7.967192871987408"><ele>656.8333333333334</ele><time>2026-03-26T16:24:28.002Z</time></trkpt><trkpt lat="44.02332347122181" lon="7.967277279067823"><ele>656.6666666666666</ele><time>2026-03-26T16:24:29.002Z</time></trkpt><trkpt lat="44.02327566436618" lon="7.967355244500991"><ele>656.5</ele><time>2026-03-26T16:24:30.002Z</time></trkpt><trkpt lat="44.02325534958105" lon="7.967498425873184"><ele>656.3333333333333</ele><time>2026-03-26T16:24:32.002Z</time></trkpt><trkpt lat="44.02321160250138" lon="7.967585108486741"><ele>656.1666666666666</ele><time>2026-03-26T16:24:33.002Z</time></trkpt><trkpt lat="44.02317657924778" lon="7.967705377676935"><ele>656.0</ele><time>2026-03-26T16:24:34.002Z</time></trkpt><trkpt lat="44.0231410359033" lon="7.967843209911258"><ele>656.0</ele><time>2026-03-26T16:24:35.002Z</time></trkpt><trkpt lat="44.02310258764388" lon="7.967935197694111"><ele>656.0</ele><time>2026-03-26T16:24:36.002Z</time></trkpt><trkpt lat="44.02304500676753" lon="7.968003989514024"><ele>656.0</ele><time>2026-03-26T16:24:37.002Z</time></trkpt><trkpt lat="44.022965652585725" lon="7.968080116714734"><ele>656.0</ele><time>2026-03-26T16:24:38.002Z</time></trkpt><trkpt lat="44.022873303398164" lon="7.96818659646036"><ele>656.0</ele><time>2026-03-26T16:24:39.002Z</time></trkpt><trkpt lat="44.02281333999729" lon="7.968308917198854"><ele>652.1999999999999</ele><time>2026-03-26T16:24:40.002Z</time></trkpt><trkpt lat="44.0227822531749" lon="7.968411281186167"><ele>648.4</ele><time>2026-03-26T16:24:41.002Z</time></trkpt><trkpt lat="44.022752193100686" lon="7.968534926903805"><ele>644.6</ele><time>2026-03-26T16:24:42.002Z</time></trkpt><trkpt lat="44.02272305756076" lon="7.968650959610402"><ele>640.8</ele><time>2026-03-26T16:24:43.002Z</time></trkpt><trkpt lat="44.022701243709996" lon="7.968734329712159"><ele>637.0</ele><time>2026-03-26T16:24:44.002Z</time></trkpt><trkpt lat="44.02265342573554" lon="7.969013698826879"><ele>637.0</ele><time>2026-03-26T16:24:46.002Z</time></trkpt><trkpt lat="44.02261704472585" lon="7.969141400408637"><ele>637.0</ele><time>2026-03-26T16:24:47.002Z</time></trkpt><trkpt lat="44.0225727672977" lon="7.969240828879678"><ele>637.0</ele><time>2026-03-26T16:24:48.002Z</time></trkpt><trkpt lat="44.022508460639166" lon="7.969341601228196"><ele>637.0</ele><time>2026-03-26T16:24:49.002Z</time></trkpt><trkpt lat="44.02242470179228" lon="7.969413229399219"><ele>637.0</ele><time>2026-03-26T16:24:50.002Z</time></trkpt><trkpt lat="44.022331738187766" lon="7.96946614936351"><ele>638.6666666666667</ele><time>2026-03-26T16:24:51.001Z</time></trkpt><trkpt lat="44.022246812796794" lon="7.9694925423390695"><ele>640.3333333333334</ele><time>2026-03-26T16:24:52.001Z</time></trkpt><trkpt lat="44.02217373908367" lon="7.969508090886651"><ele>642.0</ele><time>2026-03-26T16:24:53.001Z</time></trkpt><trkpt lat="44.022107268310634" lon="7.969518386525497"><ele>643.6666666666666</ele><time>2026-03-26T16:24:54.001Z</time></trkpt><trkpt lat="44.02203285319223" lon="7.969540920945502"><ele>645.3333333333333</ele><time>2026-03-26T16:24:55.001Z</time></trkpt><trkpt lat="44.021951379076654" lon="7.969602705335269"><ele>647.0</ele><time>2026-03-26T16:24:56.001Z</time></trkpt><trkpt lat="44.02190298253825" lon="7.969669230595393"><ele>647.0</ele><time>2026-03-26T16:24:57.001Z</time></trkpt><trkpt lat="44.02183364487239" lon="7.969702272950172"><ele>647.0</ele><time>2026-03-26T16:24:58.001Z</time></trkpt><trkpt lat="44.021737416963944" lon="7.969712574418683"><ele>647.0</ele><time>2026-03-26T16:24:59.001Z</time></trkpt><trkpt lat="44.02164038694689" lon="7.969757505713686"><ele>647.0</ele><time>2026-03-26T16:25:00.001Z</time></trkpt><trkpt lat="44.021580763819145" lon="7.969867112428481"><ele>647.0</ele><time>2026-03-26T16:25:02.001Z</time></trkpt><trkpt lat="44.021593444522" lon="7.970033752257267"><ele>646.6666666666666</ele><time>2026-03-26T16:25:04.001Z</time></trkpt><trkpt lat="44.02167092754512" lon="7.970138539938914"><ele>646.3333333333333</ele><time>2026-03-26T16:25:06.001Z</time></trkpt><trkpt lat="44.02169103224791" lon="7.970228337619147"><ele>646.0</ele><time>2026-03-26T16:25:07.001Z</time></trkpt><trkpt lat="44.02161570303388" lon="7.970304031130816"><ele>645.6666666666666</ele><time>2026-03-26T16:25:09.001Z</time></trkpt><trkpt lat="44.02154775943865" lon="7.970346435509022"><ele>645.3333333333334</ele><time>2026-03-26T16:25:10.001Z</time></trkpt><trkpt lat="44.02147786526189" lon="7.970395322606992"><ele>645.0</ele><time>2026-03-26T16:25:11.001Z</time></trkpt><trkpt lat="44.02134763353429" lon="7.970475899682592"><ele>653.4</ele><time>2026-03-26T16:25:13.001Z</time></trkpt><trkpt lat="44.02133971391034" lon="7.970635367726812"><ele>661.8</ele><time>2026-03-26T16:25:15.001Z</time></trkpt><trkpt lat="44.02141857043098" lon="7.970765090529132"><ele>670.2</ele><time>2026-03-26T16:25:17.001Z</time></trkpt><trkpt lat="44.021462115906274" lon="7.970837824449763"><ele>678.6</ele><time>2026-03-26T16:25:18.001Z</time></trkpt><trkpt lat="44.02150268211382" lon="7.970955292902375"><ele>687.0</ele><time>2026-03-26T16:25:19.001Z</time></trkpt><trkpt lat="44.021536773402225" lon="7.97108814039011"><ele>689.1666666666666</ele><time>2026-03-26T16:25:20.001Z</time></trkpt><trkpt lat="44.021546141480286" lon="7.971186842205726"><ele>691.3333333333334</ele><time>2026-03-26T16:25:21.001Z</time></trkpt><trkpt lat="44.02155711095709" lon="7.971281668430665"><ele>693.5</ele><time>2026-03-26T16:25:22.001Z</time></trkpt><trkpt lat="44.021673934877455" lon="7.971304982522929"><ele>695.6666666666667</ele><time>2026-03-26T16:25:24.001Z</time></trkpt><trkpt lat="44.0217581582587" lon="7.971333577897143"><ele>697.8333333333334</ele><time>2026-03-26T16:25:25.001Z</time></trkpt><trkpt lat="44.02181935161955" lon="7.97142998730267"><ele>700.0</ele><time>2026-03-26T16:25:27.001Z</time></trkpt><trkpt lat="44.0218185315334" lon="7.971637180807807"><ele>696.1666666666667</ele><time>2026-03-26T16:25:29.001Z</time></trkpt><trkpt lat="44.021817533044725" lon="7.971757008172999"><ele>692.3333333333334</ele><time>2026-03-26T16:25:30.001Z</time></trkpt><trkpt lat="44.02184094778012" lon="7.971850124365276"><ele>688.5</ele><time>2026-03-26T16:25:31.001Z</time></trkpt><trkpt lat="44.021908244452376" lon="7.971903317640577"><ele>684.6666666666666</ele><time>2026-03-26T16:25:33.001Z</time></trkpt><trkpt lat="44.021991381913544" lon="7.971919592229979"><ele>680.8333333333333</ele><time>2026-03-26T16:25:35.001Z</time></trkpt><trkpt lat="44.02207616637963" lon="7.971978653062547"><ele>677.0</ele><time>2026-03-26T16:25:36.001Z</time></trkpt><trkpt lat="44.02215816038601" lon="7.971967731602223"><ele>677.0</ele><time>2026-03-26T16:25:37.001Z</time></trkpt><trkpt lat="44.022221431305184" lon="7.971924076439405"><ele>677.0</ele><time>2026-03-26T16:25:38.001Z</time></trkpt><trkpt lat="44.02228432522704" lon="7.971905986490263"><ele>677.0</ele><time>2026-03-26T16:25:39.001Z</time></trkpt><trkpt lat="44.02232191991304" lon="7.972002705434858"><ele>677.0</ele><time>2026-03-26T16:25:41.001Z</time></trkpt><trkpt lat="44.02237121823428" lon="7.972137949564789"><ele>677.0</ele><time>2026-03-26T16:25:43.001Z</time></trkpt><trkpt lat="44.02237708545565" lon="7.972227058230176"><ele>677.0</ele><time>2026-03-26T16:25:44.001Z</time></trkpt><trkpt lat="44.022385653811625" lon="7.972363767668133"><ele>677.0</ele><time>2026-03-26T16:25:45.001Z</time></trkpt><trkpt lat="44.02241260255299" lon="7.9725106187160755"><ele>677.0</ele><time>2026-03-26T16:25:46.001Z</time></trkpt><trkpt lat="44.02244014289788" lon="7.972611730119798"><ele>677.0</ele><time>2026-03-26T16:25:47.001Z</time></trkpt><trkpt lat="44.02246539835905" lon="7.97277972997531"><ele>677.0</ele><time>2026-03-26T16:25:49.001Z</time></trkpt><trkpt lat="44.022521395651054" lon="7.972861376128005"><ele>677.0</ele><time>2026-03-26T16:25:50.001Z</time></trkpt><trkpt lat="44.02253299513666" lon="7.972966309755653"><ele>678.1666666666666</ele><time>2026-03-26T16:25:51.001Z</time></trkpt><trkpt lat="44.02250761346685" lon="7.973049936557828"><ele>679.3333333333333</ele><time>2026-03-26T16:25:53.001Z</time></trkpt><trkpt lat="44.02254221561692" lon="7.973131714615955"><ele>680.5</ele><time>2026-03-26T16:25:56.001Z</time></trkpt><trkpt lat="44.02260842941997" lon="7.973221863925579"><ele>681.6666666666666</ele><time>2026-03-26T16:27:49.001Z</time></trkpt><trkpt lat="44.02264789494285" lon="7.973334543010978"><ele>682.8333333333334</ele><time>2026-03-26T16:27:51.001Z</time></trkpt><trkpt lat="44.022701155394614" lon="7.973499841058329"><ele>684.0</ele><time>2026-03-26T16:27:53.001Z</time></trkpt><trkpt lat="44.022727395695064" lon="7.973603249011245"><ele>684.0</ele><time>2026-03-26T16:27:54.001Z</time></trkpt><trkpt lat="44.02281406677876" lon="7.973631605097341"><ele>684.0</ele><time>2026-03-26T16:27:56.001Z</time></trkpt><trkpt lat="44.022888243751275" lon="7.973606069253495"><ele>684.0</ele><time>2026-03-26T16:27:57.001Z</time></trkpt><trkpt lat="44.02298490175414" lon="7.973626420612315"><ele>684.0</ele><time>2026-03-26T16:27:59.001Z</time></trkpt><trkpt lat="44.02304512463365" lon="7.973666557139491"><ele>684.0</ele><time>2026-03-26T16:28:00.001Z</time></trkpt><trkpt lat="44.02310404790383" lon="7.973717413434729"><ele>684.0</ele><time>2026-03-26T16:28:01.001Z</time></trkpt><trkpt lat="44.02320402020829" lon="7.973852157832095"><ele>684.0</ele><time>2026-03-26T16:28:03.001Z</time></trkpt><trkpt lat="44.023285287085095" lon="7.973910360455299"><ele>684.0</ele><time>2026-03-26T16:28:04.001Z</time></trkpt><trkpt lat="44.02334850165746" lon="7.974027986709566"><ele>684.0</ele><time>2026-03-26T16:28:06.001Z</time></trkpt><trkpt lat="44.023420830455194" lon="7.9742303247558"><ele>684.0</ele><time>2026-03-26T16:28:08.001Z</time></trkpt><trkpt lat="44.023474942336506" lon="7.974308490601836"><ele>684.0</ele><time>2026-03-26T16:28:09.001Z</time></trkpt><trkpt lat="44.023587930205984" lon="7.974462360062222"><ele>677.8333333333334</ele><time>2026-03-26T16:28:11.001Z</time></trkpt><trkpt lat="44.02363680658099" lon="7.974548534501754"><ele>671.6666666666666</ele><time>2026-03-26T16:28:12.001Z</time></trkpt><trkpt lat="44.02367839362512" lon="7.974614922998596"><ele>665.5</ele><time>2026-03-26T16:28:13.001Z</time></trkpt><trkpt lat="44.023739551147415" lon="7.974720275801316"><ele>659.3333333333333</ele><time>2026-03-26T16:28:14.001Z</time></trkpt><trkpt lat="44.02380056889142" lon="7.974809300213269"><ele>653.1666666666666</ele><time>2026-03-26T16:28:15.001Z</time></trkpt><trkpt lat="44.023748069988855" lon="7.974932797708474"><ele>647.0</ele><time>2026-03-26T16:28:18.001Z</time></trkpt><trkpt lat="44.02367330993002" lon="7.975073997911794"><ele>644.6666666666666</ele><time>2026-03-26T16:28:20.001Z</time></trkpt><trkpt lat="44.02359752330844" lon="7.975149236836813"><ele>642.3333333333333</ele><time>2026-03-26T16:28:22.001Z</time></trkpt><trkpt lat="44.023542400716906" lon="7.975215913122371"><ele>640.0</ele><time>2026-03-26T16:28:25.001Z</time></trkpt><trkpt lat="44.02348920030664" lon="7.975282996759466"><ele>637.6666666666666</ele><time>2026-03-26T16:28:27.001Z</time></trkpt><trkpt lat="44.02343316404661" lon="7.97533312505625"><ele>635.3333333333334</ele><time>2026-03-26T16:28:33.001Z</time></trkpt><trkpt lat="44.02338018157763" lon="7.975390837236005"><ele>633.0</ele><time>2026-03-26T16:28:36.001Z</time></trkpt><trkpt lat="44.02331305070356" lon="7.975453149574694"><ele>633.0</ele><time>2026-03-26T16:28:38.001Z</time></trkpt><trkpt lat="44.02324503460059" lon="7.9755301299653505"><ele>633.0</ele><time>2026-03-26T16:28:40.001Z</time></trkpt><trkpt lat="44.02318606167501" lon="7.975636448762269"><ele>633.0</ele><time>2026-03-26T16:28:42.001Z</time></trkpt><trkpt lat="44.023144343587695" lon="7.975704778140704"><ele>633.0</ele><time>2026-03-26T16:28:43.001Z</time></trkpt><trkpt lat="44.02310602867548" lon="7.9757788565749586"><ele>633.0</ele><time>2026-03-26T16:28:44.001Z</time></trkpt><trkpt lat="44.023025852111026" lon="7.975843136713521"><ele>633.0</ele><time>2026-03-26T16:28:46.001Z</time></trkpt><trkpt lat="44.02294055059203" lon="7.975858221718452"><ele>630.3333333333334</ele><time>2026-03-26T16:28:48.001Z</time></trkpt><trkpt lat="44.0228463431072" lon="7.975917932999958"><ele>627.6666666666666</ele><time>2026-03-26T16:28:50.001Z</time></trkpt><trkpt lat="44.022787054633" lon="7.975975068308662"><ele>625.0</ele><time>2026-03-26T16:28:51.001Z</time></trkpt><trkpt lat="44.02272725085488" lon="7.9760333386031865"><ele>622.3333333333333</ele><time>2026-03-26T16:28:52.001Z</time></trkpt><trkpt lat="44.02266998808892" lon="7.9760817109064455"><ele>619.6666666666666</ele><time>2026-03-26T16:28:53.001Z</time></trkpt><trkpt lat="44.022613858600735" lon="7.97613842419095"><ele>617.0</ele><time>2026-03-26T16:28:54.001Z</time></trkpt><trkpt lat="44.02252827590812" lon="7.976176643370061"><ele>624.6666666666666</ele><time>2026-03-26T16:28:55.001Z</time></trkpt><trkpt lat="44.022465699125725" lon="7.976208301762787"><ele>632.3333333333333</ele><time>2026-03-26T16:28:56.001Z</time></trkpt><trkpt lat="44.022387277079865" lon="7.9762261558810135"><ele>640.0</ele><time>2026-03-26T16:28:58.001Z</time></trkpt><trkpt lat="44.02232186097943" lon="7.976256935808925"><ele>647.6666666666666</ele><time>2026-03-26T16:28:59.001Z</time></trkpt><trkpt lat="44.022256967843965" lon="7.976306284822198"><ele>655.3333333333334</ele><time>2026-03-26T16:29:01.001Z</time></trkpt><trkpt lat="44.02228059090272" lon="7.976425303659446"><ele>663.0</ele><time>2026-03-26T16:29:04.001Z</time></trkpt><trkpt lat="44.02224437338274" lon="7.9765128637413465"><ele>663.0</ele><time>2026-03-26T16:29:07.001Z</time></trkpt><trkpt lat="44.02224856214832" lon="7.976613713227633"><ele>663.0</ele><time>2026-03-26T16:29:12.001Z</time></trkpt><trkpt lat="44.02231078226422" lon="7.976680119662466"><ele>663.0</ele><time>2026-03-26T16:29:45.001Z</time></trkpt><trkpt lat="44.02237641188197" lon="7.976729064732285"><ele>663.0</ele><time>2026-03-26T16:29:47Z</time></trkpt><trkpt lat="44.02243437311681" lon="7.976878967600693"><ele>663.0</ele><time>2026-03-26T16:29:49Z</time></trkpt><trkpt lat="44.022463098036155" lon="7.976972167070902"><ele>663.0</ele><time>2026-03-26T16:29:50Z</time></trkpt><trkpt lat="44.022471671484595" lon="7.977100732577184"><ele>662.5</ele><time>2026-03-26T16:29:51Z</time></trkpt><trkpt lat="44.02251007830621" lon="7.9771948398977575"><ele>662.0</ele><time>2026-03-26T16:29:52Z</time></trkpt><trkpt lat="44.02253790706091" lon="7.9773046442067574"><ele>661.5</ele><time>2026-03-26T16:29:53Z</time></trkpt><trkpt lat="44.022602080036044" lon="7.977364925716821"><ele>661.0</ele><time>2026-03-26T16:29:57Z</time></trkpt><trkpt lat="44.02267588283021" lon="7.977421272970357"><ele>660.5</ele><time>2026-03-26T16:29:59Z</time></trkpt><trkpt lat="44.022736765253924" lon="7.977490336784464"><ele>660.0</ele><time>2026-03-26T16:30:01Z</time></trkpt><trkpt lat="44.02278475293986" lon="7.977580033363223"><ele>660.0</ele><time>2026-03-26T16:30:02Z</time></trkpt><trkpt lat="44.02283483893632" lon="7.977654600315977"><ele>660.0</ele><time>2026-03-26T16:30:03Z</time></trkpt><trkpt lat="44.02288550863142" lon="7.977758330570264"><ele>660.0</ele><time>2026-03-26T16:30:04Z</time></trkpt><trkpt lat="44.022937835733195" lon="7.977808391860116"><ele>660.0</ele><time>2026-03-26T16:30:05Z</time></trkpt><trkpt lat="44.02295211830463" lon="7.977907291384931"><ele>660.0</ele><time>2026-03-26T16:30:06Z</time></trkpt><trkpt lat="44.02302703065598" lon="7.978002839352154"><ele>660.0</ele><time>2026-03-26T16:30:07Z</time></trkpt><trkpt lat="44.02314190708979" lon="7.978121372720183"><ele>660.0</ele><time>2026-03-26T16:30:09Z</time></trkpt><trkpt lat="44.02321800858514" lon="7.978202162744205"><ele>660.0</ele><time>2026-03-26T16:30:10Z</time></trkpt><trkpt lat="44.023274503104275" lon="7.978257891094518"><ele>660.0</ele><time>2026-03-26T16:30:12Z</time></trkpt><trkpt lat="44.02331719456" lon="7.978334070177375"><ele>660.0</ele><time>2026-03-26T16:30:16Z</time></trkpt><trkpt lat="44.023392844566665" lon="7.978428203531404"><ele>660.0</ele><time>2026-03-26T16:30:23Z</time></trkpt><trkpt lat="44.02342650776625" lon="7.978569315947101"><ele>660.0</ele><time>2026-03-26T16:30:25Z</time></trkpt><trkpt lat="44.02344785496984" lon="7.978737321016438"><ele>660.6</ele><time>2026-03-26T16:30:27Z</time></trkpt><trkpt lat="44.02347509195469" lon="7.97881827148501"><ele>661.2</ele><time>2026-03-26T16:30:28Z</time></trkpt><trkpt lat="44.023536875931896" lon="7.978992415673252"><ele>661.8</ele><time>2026-03-26T16:30:30Z</time></trkpt><trkpt lat="44.02358417954984" lon="7.979091283713281"><ele>662.4</ele><time>2026-03-26T16:30:31Z</time></trkpt><trkpt lat="44.02362817588297" lon="7.979191175404939"><ele>663.0</ele><time>2026-03-26T16:30:32Z</time></trkpt><trkpt lat="44.023695887506456" lon="7.9793715010844055"><ele>663.0</ele><time>2026-03-26T16:30:34Z</time></trkpt><trkpt lat="44.02380568990309" lon="7.979453211910611"><ele>663.0</ele><time>2026-03-26T16:30:36Z</time></trkpt><trkpt lat="44.023872179467055" lon="7.979549591648179"><ele>663.0</ele><time>2026-03-26T16:30:37Z</time></trkpt><trkpt lat="44.02394864769495" lon="7.979642419068247"><ele>663.0</ele><time>2026-03-26T16:30:38Z</time></trkpt><trkpt lat="44.02402062255694" lon="7.97967405332776"><ele>663.0</ele><time>2026-03-26T16:30:39Z</time></trkpt><trkpt lat="44.02410832782497" lon="7.979698177698292"><ele>662.0</ele><time>2026-03-26T16:30:40Z</time></trkpt><trkpt lat="44.02421528099712" lon="7.979757331493033"><ele>661.0</ele><time>2026-03-26T16:30:41Z</time></trkpt><trkpt lat="44.024287381542216" lon="7.9798204782761015"><ele>660.0</ele><time>2026-03-26T16:30:42Z</time></trkpt><trkpt lat="44.024344632804635" lon="7.979882697050573"><ele>659.0</ele><time>2026-03-26T16:30:43Z</time></trkpt><trkpt lat="44.024416465061265" lon="7.979971857005624"><ele>658.0</ele><time>2026-03-26T16:30:44Z</time></trkpt><trkpt lat="44.02447128963774" lon="7.980078785821942"><ele>658.0</ele><time>2026-03-26T16:30:45Z</time></trkpt><trkpt lat="44.02451994027301" lon="7.980176218023861"><ele>658.0</ele><time>2026-03-26T16:30:46Z</time></trkpt><trkpt lat="44.024594033019696" lon="7.980314044169672"><ele>658.0</ele><time>2026-03-26T16:30:48Z</time></trkpt><trkpt lat="44.024617879744156" lon="7.980437665258467"><ele>658.0</ele><time>2026-03-26T16:30:50Z</time></trkpt><trkpt lat="44.02470244611912" lon="7.98052375318895"><ele>658.0</ele><time>2026-03-26T16:32:09Z</time></trkpt><trkpt lat="44.0248002552279" lon="7.980584673450635"><ele>658.0</ele><time>2026-03-26T16:32:11Z</time></trkpt><trkpt lat="44.024881838130234" lon="7.9806286544962175"><ele>658.0</ele><time>2026-03-26T16:32:13Z</time></trkpt><trkpt lat="44.02494070907487" lon="7.980691692004054"><ele>658.0</ele><time>2026-03-26T16:32:15Z</time></trkpt><trkpt lat="44.02500963142619" lon="7.98078970509005"><ele>658.0</ele><time>2026-03-26T16:32:17Z</time></trkpt><trkpt lat="44.025074981460435" lon="7.980881592458004"><ele>658.0</ele><time>2026-03-26T16:32:19Z</time></trkpt><trkpt lat="44.02514575732784" lon="7.980949246226266"><ele>658.0</ele><time>2026-03-26T16:32:21Z</time></trkpt><trkpt lat="44.02520960411159" lon="7.980989257204395"><ele>654.75</ele><time>2026-03-26T16:32:22Z</time></trkpt><trkpt lat="44.02533130531676" lon="7.981015298729716"><ele>651.5</ele><time>2026-03-26T16:32:24Z</time></trkpt><trkpt lat="44.02544624502588" lon="7.980981477525595"><ele>648.25</ele><time>2026-03-26T16:32:26Z</time></trkpt><trkpt lat="44.025551017283654" lon="7.980986957508807"><ele>645.0</ele><time>2026-03-26T16:32:28Z</time></trkpt><trkpt lat="44.02565863560024" lon="7.981001721530089"><ele>645.0</ele><time>2026-03-26T16:32:30Z</time></trkpt><trkpt lat="44.02575879280292" lon="7.981059463028523"><ele>645.0</ele><time>2026-03-26T16:32:32Z</time></trkpt><trkpt lat="44.02583964062437" lon="7.981043680538149"><ele>645.0</ele><time>2026-03-26T16:32:34Z</time></trkpt><trkpt lat="44.02592080637177" lon="7.9809537671373105"><ele>645.0</ele><time>2026-03-26T16:32:36Z</time></trkpt><trkpt lat="44.02599486267929" lon="7.980944317495075"><ele>645.0</ele><time>2026-03-26T16:32:38Z</time></trkpt><trkpt lat="44.026075387937404" lon="7.981020107341373"><ele>642.4285714285714</ele><time>2026-03-26T16:32:40Z</time></trkpt><trkpt lat="44.02614393177956" lon="7.981045956305436"><ele>639.8571428571428</ele><time>2026-03-26T16:32:42Z</time></trkpt><trkpt lat="44.02620951161845" lon="7.9810687841592"><ele>637.2857142857142</ele><time>2026-03-26T16:32:44Z</time></trkpt><trkpt lat="44.026279742969685" lon="7.981084247043184"><ele>634.7142857142858</ele><time>2026-03-26T16:32:46Z</time></trkpt><trkpt lat="44.02636283887124" lon="7.981080414683383"><ele>632.1428571428571</ele><time>2026-03-26T16:34:04Z</time></trkpt><trkpt lat="44.02630041458163" lon="7.981065237011596"><ele>629.5714285714286</ele><time>2026-03-26T16:34:08Z</time></trkpt><trkpt lat="44.02635109173069" lon="7.9811201871887665"><ele>627.0</ele><time>2026-03-26T16:35:14Z</time></trkpt><trkpt lat="44.02643127075578" lon="7.981134410039421"><ele>627.0</ele><time>2026-03-26T16:35:16Z</time></trkpt><trkpt lat="44.02649561413413" lon="7.98117124386901"><ele>627.0</ele><time>2026-03-26T16:35:17Z</time></trkpt><trkpt lat="44.02659386488993" lon="7.981226000473521"><ele>627.0</ele><time>2026-03-26T16:35:18Z</time></trkpt><trkpt lat="44.026665209986874" lon="7.981259431376878"><ele>627.0</ele><time>2026-03-26T16:35:19Z</time></trkpt><trkpt lat="44.02673645481213" lon="7.9812975618182165"><ele>627.0</ele><time>2026-03-26T16:35:21Z</time></trkpt><trkpt lat="44.02673359713777" lon="7.981421930769063"><ele>627.0</ele><time>2026-03-26T16:35:23Z</time></trkpt><trkpt lat="44.02668809830923" lon="7.9815123916674615"><ele>624.1666666666666</ele><time>2026-03-26T16:35:24Z</time></trkpt><trkpt lat="44.02667036190204" lon="7.981656773982381"><ele>621.3333333333334</ele><time>2026-03-26T16:35:25Z</time></trkpt><trkpt lat="44.02665800279636" lon="7.981768331143935"><ele>618.5</ele><time>2026-03-26T16:35:26Z</time></trkpt><trkpt lat="44.026664016573285" lon="7.981916074792064"><ele>615.6666666666667</ele><time>2026-03-26T16:35:28Z</time></trkpt><trkpt lat="44.02667744628487" lon="7.9820346077105215"><ele>612.8333333333334</ele><time>2026-03-26T16:35:29Z</time></trkpt><trkpt lat="44.026693263405186" lon="7.982123512436547"><ele>610.0</ele><time>2026-03-26T16:35:30Z</time></trkpt><trkpt lat="44.02667070148225" lon="7.982250561829554"><ele>610.0</ele><time>2026-03-26T16:35:32Z</time></trkpt><trkpt lat="44.026652877944684" lon="7.982450199641465"><ele>610.0</ele><time>2026-03-26T16:35:34Z</time></trkpt><trkpt lat="44.02663858215475" lon="7.982543213513386"><ele>610.0</ele><time>2026-03-26T16:35:35Z</time></trkpt><trkpt lat="44.02656835841903" lon="7.98266386265071"><ele>610.0</ele><time>2026-03-26T16:35:37Z</time></trkpt><trkpt lat="44.02649999889203" lon="7.982763633004217"><ele>610.0</ele><time>2026-03-26T16:35:39Z</time></trkpt><trkpt lat="44.026433877126856" lon="7.982923911828431"><ele>619.0</ele><time>2026-03-26T16:35:41Z</time></trkpt><trkpt lat="44.02641171442975" lon="7.983019463262253"><ele>628.0</ele><time>2026-03-26T16:35:42Z</time></trkpt><trkpt lat="44.02640431499638" lon="7.983106896102211"><ele>637.0</ele><time>2026-03-26T16:35:43Z</time></trkpt><trkpt lat="44.0264339853734" lon="7.9832029111759155"><ele>646.0</ele><time>2026-03-26T16:35:44Z</time></trkpt><trkpt lat="44.026488840302655" lon="7.983286172300702"><ele>655.0</ele><time>2026-03-26T16:35:45Z</time></trkpt><trkpt lat="44.02653792286159" lon="7.983385890140525"><ele>664.0</ele><time>2026-03-26T16:35:46Z</time></trkpt><trkpt lat="44.02660507863956" lon="7.983510602737802"><ele>659.8000000000001</ele><time>2026-03-26T16:35:47Z</time></trkpt><trkpt lat="44.02666445264798" lon="7.98362259530943"><ele>655.6</ele><time>2026-03-26T16:35:48Z</time></trkpt><trkpt lat="44.02668115087881" lon="7.983803095702148"><ele>651.4</ele><time>2026-03-26T16:35:50Z</time></trkpt><trkpt lat="44.02670259839684" lon="7.983935263572391"><ele>647.2</ele><time>2026-03-26T16:35:51Z</time></trkpt><trkpt lat="44.0267488806823" lon="7.984055091322015"><ele>643.0</ele><time>2026-03-26T16:35:52Z</time></trkpt><trkpt lat="44.026752599875415" lon="7.984162844575152"><ele>646.5</ele><time>2026-03-26T16:35:54Z</time></trkpt><trkpt lat="44.02673617281842" lon="7.9842558026974295"><ele>650.0</ele><time>2026-03-26T16:35:55Z</time></trkpt><trkpt lat="44.02674801570967" lon="7.984364703908005"><ele>653.5</ele><time>2026-03-26T16:35:56Z</time></trkpt><trkpt lat="44.02684021218789" lon="7.9844512147192415"><ele>657.0</ele><time>2026-03-26T16:35:58Z</time></trkpt><trkpt lat="44.02690618476524" lon="7.98454777680832"><ele>660.5</ele><time>2026-03-26T16:35:59Z</time></trkpt><trkpt lat="44.026965238669085" lon="7.984610543305831"><ele>664.0</ele><time>2026-03-26T16:36:00Z</time></trkpt><trkpt lat="44.027048072119264" lon="7.984705853473211"><ele>664.0</ele><time>2026-03-26T16:36:01Z</time></trkpt><trkpt lat="44.02712415322022" lon="7.98478007360667"><ele>664.0</ele><time>2026-03-26T16:36:02Z</time></trkpt><trkpt lat="44.027190766449685" lon="7.984840214509999"><ele>664.0</ele><time>2026-03-26T16:36:03Z</time></trkpt><trkpt lat="44.02726437646524" lon="7.984924460472285"><ele>664.0</ele><time>2026-03-26T16:36:04Z</time></trkpt><trkpt lat="44.02730950453119" lon="7.98501051495554"><ele>664.0</ele><time>2026-03-26T16:36:05Z</time></trkpt><trkpt lat="44.02735044805023" lon="7.985094633570544"><ele>664.0</ele><time>2026-03-26T16:36:06Z</time></trkpt><trkpt lat="44.02741598077247" lon="7.985172166641491"><ele>664.4000000000001</ele><time>2026-03-26T16:36:07Z</time></trkpt><trkpt lat="44.02748329647065" lon="7.985241962017419"><ele>664.8</ele><time>2026-03-26T16:36:08Z</time></trkpt><trkpt lat="44.02753873733755" lon="7.985325100684166"><ele>665.2</ele><time>2026-03-26T16:36:09Z</time></trkpt><trkpt lat="44.027585883507086" lon="7.985402918221417"><ele>665.5999999999999</ele><time>2026-03-26T16:36:10Z</time></trkpt><trkpt lat="44.02768898621905" lon="7.985517083637475"><ele>666.0</ele><time>2026-03-26T16:36:12Z</time></trkpt><trkpt lat="44.02775731559574" lon="7.985633819381958"><ele>666.0</ele><time>2026-03-26T16:36:14Z</time></trkpt><trkpt lat="44.02777084847116" lon="7.985745344186716"><ele>666.0</ele><time>2026-03-26T16:36:15Z</time></trkpt><trkpt lat="44.02779512384057" lon="7.985837042051317"><ele>666.0</ele><time>2026-03-26T16:36:16Z</time></trkpt><trkpt lat="44.027796231841975" lon="7.9859340694890015"><ele>666.0</ele><time>2026-03-26T16:36:18Z</time></trkpt><trkpt lat="44.027733920446295" lon="7.985957091989621"><ele>666.0</ele><time>2026-03-26T16:36:20Z</time></trkpt><trkpt lat="44.02766480510079" lon="7.985864242097237"><ele>666.0</ele><time>2026-03-26T16:36:31Z</time></trkpt><trkpt lat="44.02761232661563" lon="7.985776998217208"><ele>666.0</ele><time>2026-03-26T16:36:33Z</time></trkpt><trkpt lat="44.02752960116806" lon="7.985739354878009"><ele>666.0</ele><time>2026-03-26T16:42:04Z</time></trkpt><trkpt lat="44.02745442970421" lon="7.985692107432659"><ele>666.0</ele><time>2026-03-26T16:42:05Z</time></trkpt><trkpt lat="44.02736945483275" lon="7.985642603639488"><ele>666.0</ele><time>2026-03-26T16:42:06Z</time></trkpt><trkpt lat="44.02726975220494" lon="7.985565835681216"><ele>666.0</ele><time>2026-03-26T16:42:07Z</time></trkpt><trkpt lat="44.02718503988221" lon="7.985493207124372"><ele>664.5999999999999</ele><time>2026-03-26T16:42:08Z</time></trkpt><trkpt lat="44.027101463457804" lon="7.98542489030156"><ele>663.2</ele><time>2026-03-26T16:42:09Z</time></trkpt><trkpt lat="44.0270085396391" lon="7.985359043649865"><ele>661.8</ele><time>2026-03-26T16:42:10Z</time></trkpt><trkpt lat="44.02690140461865" lon="7.985302253499552"><ele>660.4000000000001</ele><time>2026-03-26T16:42:11Z</time></trkpt><trkpt lat="44.02682026363579" lon="7.985263509773583"><ele>659.0</ele><time>2026-03-26T16:42:12Z</time></trkpt><trkpt lat="44.02673155446427" lon="7.985205497822588"><ele>659.0</ele><time>2026-03-26T16:42:13Z</time></trkpt><trkpt lat="44.026645290823275" lon="7.98513884488741"><ele>659.0</ele><time>2026-03-26T16:42:14Z</time></trkpt><trkpt lat="44.02654355023788" lon="7.985024415287278"><ele>659.0</ele><time>2026-03-26T16:42:15Z</time></trkpt><trkpt lat="44.026440528815506" lon="7.9849181944415815"><ele>659.0</ele><time>2026-03-26T16:42:16Z</time></trkpt><trkpt lat="44.02634377229642" lon="7.9847984307730675"><ele>659.1666666666666</ele><time>2026-03-26T16:42:17Z</time></trkpt><trkpt lat="44.02627452450584" lon="7.984695863589715"><ele>659.3333333333333</ele><time>2026-03-26T16:42:18Z</time></trkpt><trkpt lat="44.02622434656941" lon="7.984587593495646"><ele>659.5</ele><time>2026-03-26T16:42:19Z</time></trkpt><trkpt lat="44.02618328636866" lon="7.98446217216451"><ele>659.6666666666666</ele><time>2026-03-26T16:42:20Z</time></trkpt><trkpt lat="44.02613257408135" lon="7.9843796288615785"><ele>659.8333333333334</ele><time>2026-03-26T16:42:21Z</time></trkpt><trkpt lat="44.02606348189716" lon="7.984334960719758"><ele>660.0</ele><time>2026-03-26T16:42:22Z</time></trkpt><trkpt lat="44.025982961571756" lon="7.984289894378366"><ele>660.0</ele><time>2026-03-26T16:42:23Z</time></trkpt><trkpt lat="44.02591849158006" lon="7.98422757144327"><ele>660.0</ele><time>2026-03-26T16:42:24Z</time></trkpt><trkpt lat="44.025858339916134" lon="7.984158421082157"><ele>660.0</ele><time>2026-03-26T16:42:25Z</time></trkpt><trkpt lat="44.025822759580585" lon="7.984063127140388"><ele>660.0</ele><time>2026-03-26T16:42:26Z</time></trkpt><trkpt lat="44.025775659082925" lon="7.983925821281487"><ele>660.0</ele><time>2026-03-26T16:42:27Z</time></trkpt><trkpt lat="44.025714318062526" lon="7.983800005666841"><ele>658.75</ele><time>2026-03-26T16:42:28Z</time></trkpt><trkpt lat="44.02564963628839" lon="7.9836671046859555"><ele>657.5</ele><time>2026-03-26T16:42:29Z</time></trkpt><trkpt lat="44.02561226733596" lon="7.983498889893473"><ele>656.25</ele><time>2026-03-26T16:42:30Z</time></trkpt><trkpt lat="44.025582198868044" lon="7.983339757877548"><ele>655.0</ele><time>2026-03-26T16:42:31Z</time></trkpt><trkpt lat="44.02554790194279" lon="7.983175755235273"><ele>655.0</ele><time>2026-03-26T16:42:32Z</time></trkpt><trkpt lat="44.02551600126578" lon="7.9830457712197145"><ele>655.0</ele><time>2026-03-26T16:42:33Z</time></trkpt><trkpt lat="44.02548417570166" lon="7.982969740100052"><ele>655.0</ele><time>2026-03-26T16:42:34Z</time></trkpt><trkpt lat="44.02545428500499" lon="7.982860806494619"><ele>655.0</ele><time>2026-03-26T16:42:35Z</time></trkpt><trkpt lat="44.02541765010414" lon="7.982776510883825"><ele>655.0</ele><time>2026-03-26T16:42:36Z</time></trkpt><trkpt lat="44.02535657801146" lon="7.982742319845981"><ele>655.0</ele><time>2026-03-26T16:42:37Z</time></trkpt><trkpt lat="44.025236111637064" lon="7.982646060772674"><ele>655.0</ele><time>2026-03-26T16:42:38Z</time></trkpt><trkpt lat="44.025120695886066" lon="7.982555666899899"><ele>655.0</ele><time>2026-03-26T16:42:39Z</time></trkpt><trkpt lat="44.0250272070984" lon="7.982508447947656"><ele>655.0</ele><time>2026-03-26T16:42:40Z</time></trkpt><trkpt lat="44.02493814291413" lon="7.982451464805119"><ele>655.0</ele><time>2026-03-26T16:42:41Z</time></trkpt><trkpt lat="44.02483432174174" lon="7.982329860188808"><ele>650.5</ele><time>2026-03-26T16:42:42Z</time></trkpt><trkpt lat="44.02476109644522" lon="7.982254931117014"><ele>646.0</ele><time>2026-03-26T16:42:43Z</time></trkpt><trkpt lat="44.0246644698764" lon="7.982120114278841"><ele>641.5</ele><time>2026-03-26T16:42:44Z</time></trkpt><trkpt lat="44.02457040431036" lon="7.982003004221037"><ele>637.0</ele><time>2026-03-26T16:42:45Z</time></trkpt><trkpt lat="44.024494740730674" lon="7.981891373612145"><ele>637.0</ele><time>2026-03-26T16:42:46Z</time></trkpt><trkpt lat="44.024413883315646" lon="7.98175974900966"><ele>637.0</ele><time>2026-03-26T16:42:47Z</time></trkpt><trkpt lat="44.024349460483684" lon="7.981636392984993"><ele>637.0</ele><time>2026-03-26T16:42:48Z</time></trkpt><trkpt lat="44.024301318228225" lon="7.981501722920388"><ele>637.0</ele><time>2026-03-26T16:42:49Z</time></trkpt><trkpt lat="44.0242859980906" lon="7.981338001264087"><ele>637.0</ele><time>2026-03-26T16:42:50Z</time></trkpt><trkpt lat="44.02424258576871" lon="7.981181155220173"><ele>637.0</ele><time>2026-03-26T16:42:51Z</time></trkpt><trkpt lat="44.024189014349545" lon="7.981057574061735"><ele>637.0</ele><time>2026-03-26T16:42:52Z</time></trkpt><trkpt lat="44.02412472862724" lon="7.980948260098669"><ele>637.0</ele><time>2026-03-26T16:42:53Z</time></trkpt><trkpt lat="44.02402971025925" lon="7.980837192435675"><ele>643.25</ele><time>2026-03-26T16:42:54Z</time></trkpt><trkpt lat="44.0239319629365" lon="7.980709640728443"><ele>649.5</ele><time>2026-03-26T16:42:55Z</time></trkpt><trkpt lat="44.023836525837446" lon="7.980610801119822"><ele>655.75</ele><time>2026-03-26T16:42:56Z</time></trkpt><trkpt lat="44.02370145996134" lon="7.980582704798098"><ele>662.0</ele><time>2026-03-26T16:42:58Z</time></trkpt><trkpt lat="44.02362940502465" lon="7.9805702380342565"><ele>662.0</ele><time>2026-03-26T16:42:59Z</time></trkpt><trkpt lat="44.02353651080172" lon="7.980561143554976"><ele>662.0</ele><time>2026-03-26T16:43:00Z</time></trkpt><trkpt lat="44.023447252760114" lon="7.980522592560448"><ele>662.0</ele><time>2026-03-26T16:43:01Z</time></trkpt><trkpt lat="44.02336308427503" lon="7.9804710558634895"><ele>662.0</ele><time>2026-03-26T16:43:02Z</time></trkpt><trkpt lat="44.02328475770732" lon="7.9803981617050095"><ele>662.0</ele><time>2026-03-26T16:43:03Z</time></trkpt><trkpt lat="44.023192990741904" lon="7.980305897588386"><ele>661.6</ele><time>2026-03-26T16:43:04Z</time></trkpt><trkpt lat="44.023086827934044" lon="7.980195864331904"><ele>661.2</ele><time>2026-03-26T16:43:05Z</time></trkpt><trkpt lat="44.022982302536406" lon="7.980072033525395"><ele>660.8</ele><time>2026-03-26T16:43:06Z</time></trkpt><trkpt lat="44.02295231290696" lon="7.97998370072513"><ele>660.4</ele><time>2026-03-26T16:43:07Z</time></trkpt><trkpt lat="44.02291543752137" lon="7.979891217287376"><ele>660.0</ele><time>2026-03-26T16:43:08Z</time></trkpt><trkpt lat="44.022843745026556" lon="7.979817213523622"><ele>660.0</ele><time>2026-03-26T16:43:10Z</time></trkpt><trkpt lat="44.022730285198286" lon="7.979811027453373"><ele>660.0</ele><time>2026-03-26T16:43:12Z</time></trkpt><trkpt lat="44.022645417684124" lon="7.979800655615768"><ele>660.0</ele><time>2026-03-26T16:43:13Z</time></trkpt><trkpt lat="44.02257364573285" lon="7.979773757172206"><ele>660.0</ele><time>2026-03-26T16:43:14Z</time></trkpt><trkpt lat="44.022514238220126" lon="7.979705173942095"><ele>660.0</ele><time>2026-03-26T16:43:15Z</time></trkpt><trkpt lat="44.02244937795358" lon="7.979622480053486"><ele>660.0</ele><time>2026-03-26T16:43:16Z</time></trkpt><trkpt lat="44.02235427619556" lon="7.97955357180103"><ele>656.4</ele><time>2026-03-26T16:43:18Z</time></trkpt><trkpt lat="44.0222568223629" lon="7.979520332703059"><ele>652.8</ele><time>2026-03-26T16:43:20Z</time></trkpt><trkpt lat="44.02219484778384" lon="7.979450434126153"><ele>649.2</ele><time>2026-03-26T16:43:21Z</time></trkpt><trkpt lat="44.022140503964074" lon="7.979382162509696"><ele>645.6</ele><time>2026-03-26T16:43:22Z</time></trkpt><trkpt lat="44.022078600686655" lon="7.9793404763501385"><ele>642.0</ele><time>2026-03-26T16:43:23Z</time></trkpt><trkpt lat="44.02194732117311" lon="7.979347896449739"><ele>642.0</ele><time>2026-03-26T16:43:25Z</time></trkpt><trkpt lat="44.02185543579942" lon="7.979420168002864"><ele>642.0</ele><time>2026-03-26T16:43:26Z</time></trkpt><trkpt lat="44.02179318791922" lon="7.979449777165165"><ele>642.0</ele><time>2026-03-26T16:43:27Z</time></trkpt><trkpt lat="44.02172474709235" lon="7.979414318494653"><ele>642.0</ele><time>2026-03-26T16:43:28Z</time></trkpt><trkpt lat="44.021633522178035" lon="7.979315526108855"><ele>642.0</ele><time>2026-03-26T16:43:30Z</time></trkpt><trkpt lat="44.021552441616436" lon="7.9792605842321125"><ele>650.25</ele><time>2026-03-26T16:43:31Z</time></trkpt><trkpt lat="44.02148373427459" lon="7.979181519073406"><ele>658.5</ele><time>2026-03-26T16:43:32Z</time></trkpt><trkpt lat="44.02137989715871" lon="7.9790846292380175"><ele>666.75</ele><time>2026-03-26T16:43:33Z</time></trkpt><trkpt lat="44.02125007307694" lon="7.978973285916948"><ele>675.0</ele><time>2026-03-26T16:43:34Z</time></trkpt><trkpt lat="44.02118335297161" lon="7.978903278124521"><ele>675.0</ele><time>2026-03-26T16:43:35Z</time></trkpt><trkpt lat="44.02107220447211" lon="7.978915256364107"><ele>675.0</ele><time>2026-03-26T16:43:37Z</time></trkpt><trkpt lat="44.02101237438828" lon="7.978959279049616"><ele>675.0</ele><time>2026-03-26T16:43:38Z</time></trkpt><trkpt lat="44.020968956650144" lon="7.979031306310051"><ele>675.0</ele><time>2026-03-26T16:43:39Z</time></trkpt><trkpt lat="44.02089135149294" lon="7.979117618341828"><ele>675.0</ele><time>2026-03-26T16:43:40Z</time></trkpt><trkpt lat="44.020764728418406" lon="7.97916102248078"><ele>673.6</ele><time>2026-03-26T16:43:42Z</time></trkpt><trkpt lat="44.020667088505206" lon="7.979183693454538"><ele>672.2</ele><time>2026-03-26T16:43:43Z</time></trkpt><trkpt lat="44.02054827493877" lon="7.979204464737695"><ele>670.8</ele><time>2026-03-26T16:43:44Z</time></trkpt><trkpt lat="44.02048585879448" lon="7.979371190392124"><ele>669.4</ele><time>2026-03-26T16:43:46Z</time></trkpt><trkpt lat="44.02046660076016" lon="7.979491958224816"><ele>668.0</ele><time>2026-03-26T16:43:47Z</time></trkpt><trkpt lat="44.02039329620504" lon="7.979505972059685"><ele>668.0</ele><time>2026-03-26T16:43:49Z</time></trkpt><trkpt lat="44.020317464646304" lon="7.979546406069989"><ele>668.0</ele><time>2026-03-26T16:43:50Z</time></trkpt><trkpt lat="44.02025546018686" lon="7.979612887315663"><ele>668.0</ele><time>2026-03-26T16:43:51Z</time></trkpt><trkpt lat="44.0202421538143" lon="7.979759943147064"><ele>668.0</ele><time>2026-03-26T16:43:53Z</time></trkpt><trkpt lat="44.02025904825204" lon="7.979872401002828"><ele>668.0</ele><time>2026-03-26T16:43:54Z</time></trkpt><trkpt lat="44.020214735856634" lon="7.980031695016579"><ele>662.0</ele><time>2026-03-26T16:43:56Z</time></trkpt><trkpt lat="44.02016900940315" lon="7.98016902234617"><ele>656.0</ele><time>2026-03-26T16:43:57Z</time></trkpt><trkpt lat="44.020103695306325" lon="7.980292672474588"><ele>650.0</ele><time>2026-03-26T16:43:58Z</time></trkpt><trkpt lat="44.0199852662728" lon="7.980327578236941"><ele>644.0</ele><time>2026-03-26T16:44:00Z</time></trkpt><trkpt lat="44.01990704442005" lon="7.980295816775369"><ele>638.0</ele><time>2026-03-26T16:44:01Z</time></trkpt><trkpt lat="44.01976356192261" lon="7.980290336052018"><ele>636.4</ele><time>2026-03-26T16:44:02Z</time></trkpt><trkpt lat="44.01962390549633" lon="7.98027006911096"><ele>634.8</ele><time>2026-03-26T16:44:03Z</time></trkpt><trkpt lat="44.01954576556922" lon="7.980233468049797"><ele>633.2</ele><time>2026-03-26T16:44:04Z</time></trkpt><trkpt lat="44.0194919247458" lon="7.980157877623133"><ele>631.6</ele><time>2026-03-26T16:44:05Z</time></trkpt><trkpt lat="44.019419755813736" lon="7.980029523338344"><ele>630.0</ele><time>2026-03-26T16:44:06Z</time></trkpt><trkpt lat="44.01934824203578" lon="7.97989724004548"><ele>638.25</ele><time>2026-03-26T16:44:07Z</time></trkpt><trkpt lat="44.0192748736479" lon="7.979769186324157"><ele>646.5</ele><time>2026-03-26T16:44:08Z</time></trkpt><trkpt lat="44.019216171241005" lon="7.979698472259258"><ele>654.75</ele><time>2026-03-26T16:44:09Z</time></trkpt><trkpt lat="44.019066545717294" lon="7.979647882350541"><ele>663.0</ele><time>2026-03-26T16:44:11Z</time></trkpt><trkpt lat="44.01896042020483" lon="7.97959642838422"><ele>666.0</ele><time>2026-03-26T16:44:12Z</time></trkpt><trkpt lat="44.018870995920686" lon="7.979607463310937"><ele>669.0</ele><time>2026-03-26T16:44:13Z</time></trkpt><trkpt lat="44.01880922447286" lon="7.97966361198006"><ele>672.0</ele><time>2026-03-26T16:44:14Z</time></trkpt><trkpt lat="44.01870358074832" lon="7.97972771774381"><ele>675.0</ele><time>2026-03-26T16:44:15Z</time></trkpt><trkpt lat="44.018611718144236" lon="7.9797793566367385"><ele>678.0</ele><time>2026-03-26T16:44:16Z</time></trkpt><trkpt lat="44.018527531945296" lon="7.9798673086287355"><ele>678.0</ele><time>2026-03-26T16:44:17Z</time></trkpt><trkpt lat="44.018440650771744" lon="7.979988733681869"><ele>678.0</ele><time>2026-03-26T16:44:18Z</time></trkpt><trkpt lat="44.01838557497651" lon="7.980176104698069"><ele>678.0</ele><time>2026-03-26T16:44:19Z</time></trkpt><trkpt lat="44.01836353270581" lon="7.980316070123961"><ele>678.0</ele><time>2026-03-26T16:44:20Z</time></trkpt><trkpt lat="44.01832885319275" lon="7.980391814145978"><ele>678.0</ele><time>2026-03-26T16:44:21Z</time></trkpt><trkpt lat="44.018264417591695" lon="7.980452729944597"><ele>682.25</ele><time>2026-03-26T16:44:22Z</time></trkpt><trkpt lat="44.01819873164649" lon="7.9804669461076"><ele>686.5</ele><time>2026-03-26T16:44:23Z</time></trkpt><trkpt lat="44.018055740210485" lon="7.980395142316927"><ele>690.75</ele><time>2026-03-26T16:44:25Z</time></trkpt><trkpt lat="44.01798733785085" lon="7.980532951945642"><ele>695.0</ele><time>2026-03-26T16:44:28Z</time></trkpt><trkpt lat="44.01796193167211" lon="7.980708356045332"><ele>691.2</ele><time>2026-03-26T16:44:29Z</time></trkpt><trkpt lat="44.0179782075918" lon="7.980869339464958"><ele>687.4</ele><time>2026-03-26T16:44:30Z</time></trkpt><trkpt lat="44.018011939887586" lon="7.981001776601131"><ele>683.5999999999999</ele><time>2026-03-26T16:44:31Z</time></trkpt><trkpt lat="44.0179848215326" lon="7.981150939875075"><ele>679.8</ele><time>2026-03-26T16:44:32Z</time></trkpt><trkpt lat="44.01790993521712" lon="7.981233400602294"><ele>676.0</ele><time>2026-03-26T16:44:34Z</time></trkpt><trkpt lat="44.0178399341551" lon="7.981230744067029"><ele>676.0</ele><time>2026-03-26T16:44:35Z</time></trkpt><trkpt lat="44.01776838355579" lon="7.981236739633217"><ele>676.0</ele><time>2026-03-26T16:44:36Z</time></trkpt><trkpt lat="44.017657025732866" lon="7.9812433273354655"><ele>676.0</ele><time>2026-03-26T16:44:37Z</time></trkpt><trkpt lat="44.01759521022017" lon="7.981274670671281"><ele>676.0</ele><time>2026-03-26T16:44:38Z</time></trkpt><trkpt lat="44.017521581190614" lon="7.981455076362851"><ele>676.0</ele><time>2026-03-26T16:44:40Z</time></trkpt><trkpt lat="44.01741951622643" lon="7.98164883580973"><ele>669.5</ele><time>2026-03-26T16:44:41Z</time></trkpt><trkpt lat="44.01732487989821" lon="7.981852810399254"><ele>663.0</ele><time>2026-03-26T16:44:42Z</time></trkpt><trkpt lat="44.01721587749635" lon="7.981966720877927"><ele>656.5</ele><time>2026-03-26T16:44:43Z</time></trkpt><trkpt lat="44.01718006104499" lon="7.982073561039786"><ele>650.0</ele><time>2026-03-26T16:44:44Z</time></trkpt><trkpt lat="44.017206065003876" lon="7.982178489624815"><ele>650.0</ele><time>2026-03-26T16:44:45Z</time></trkpt><trkpt lat="44.01715642072835" lon="7.982356635301036"><ele>650.0</ele><time>2026-03-26T16:44:46Z</time></trkpt><trkpt lat="44.01713487472508" lon="7.98248828377799"><ele>650.0</ele><time>2026-03-26T16:44:47Z</time></trkpt><trkpt lat="44.01705620227356" lon="7.982580366793143"><ele>650.0</ele><time>2026-03-26T16:44:49Z</time></trkpt><trkpt lat="44.01693428540526" lon="7.98251895151076"><ele>650.0</ele><time>2026-03-26T16:44:51Z</time></trkpt><trkpt lat="44.01682587239939" lon="7.982423734515757"><ele>650.0</ele><time>2026-03-26T16:44:52Z</time></trkpt><trkpt lat="44.016704165132936" lon="7.982340085900873"><ele>650.0</ele><time>2026-03-26T16:44:53Z</time></trkpt><trkpt lat="44.0166487707214" lon="7.982164224192871"><ele>650.0</ele><time>2026-03-26T16:44:55Z</time></trkpt><trkpt lat="44.016577072478164" lon="7.9819642201176375"><ele>647.0</ele><time>2026-03-26T16:44:56Z</time></trkpt><trkpt lat="44.01653567369838" lon="7.981820651096199"><ele>644.0</ele><time>2026-03-26T16:44:57Z</time></trkpt><trkpt lat="44.016548695788686" lon="7.981716542711372"><ele>641.0</ele><time>2026-03-26T16:44:58Z</time></trkpt><trkpt lat="44.01653816353674" lon="7.98152721144027"><ele>638.0</ele><time>2026-03-26T16:44:59Z</time></trkpt><trkpt lat="44.01648518254394" lon="7.981369369909715"><ele>635.0</ele><time>2026-03-26T16:45:00Z</time></trkpt><trkpt lat="44.0164533074662" lon="7.981229141477452"><ele>635.0</ele><time>2026-03-26T16:45:01Z</time></trkpt><trkpt lat="44.01641421897572" lon="7.981108784301071"><ele>635.0</ele><time>2026-03-26T16:45:02Z</time></trkpt><trkpt lat="44.016325920144084" lon="7.98102335918066"><ele>635.0</ele><time>2026-03-26T16:45:03Z</time></trkpt><trkpt lat="44.01620818540904" lon="7.9809424246603"><ele>635.0</ele><time>2026-03-26T16:45:04Z</time></trkpt><trkpt lat="44.01610222120597" lon="7.9808699399477865"><ele>642.75</ele><time>2026-03-26T16:45:05Z</time></trkpt><trkpt lat="44.01604502935283" lon="7.980792681818266"><ele>650.5</ele><time>2026-03-26T16:45:06Z</time></trkpt><trkpt lat="44.01594764494227" lon="7.980683404923022"><ele>658.25</ele><time>2026-03-26T16:45:07Z</time></trkpt><trkpt lat="44.015834860931946" lon="7.980626937012668"><ele>666.0</ele><time>2026-03-26T16:45:08Z</time></trkpt><trkpt lat="44.01571155572568" lon="7.980573924088162"><ele>667.75</ele><time>2026-03-26T16:45:09Z</time></trkpt><trkpt lat="44.015601968236616" lon="7.9805003179245695"><ele>669.5</ele><time>2026-03-26T16:45:10Z</time></trkpt><trkpt lat="44.0154572305203" lon="7.980525132526763"><ele>671.25</ele><time>2026-03-26T16:45:12Z</time></trkpt><trkpt lat="44.01532917305522" lon="7.9805637576329564"><ele>673.0</ele><time>2026-03-26T16:45:13Z</time></trkpt><trkpt lat="44.01526047508662" lon="7.980583181622666"><ele>673.0</ele><time>2026-03-26T16:45:14Z</time></trkpt><trkpt lat="44.015218822078175" lon="7.980708469892806"><ele>673.0</ele><time>2026-03-26T16:45:16Z</time></trkpt><trkpt lat="44.01514573892184" lon="7.98075204707204"><ele>673.0</ele><time>2026-03-26T16:45:17Z</time></trkpt><trkpt lat="44.01505029507401" lon="7.980763767968146"><ele>673.0</ele><time>2026-03-26T16:45:18Z</time></trkpt><trkpt lat="44.01492680504976" lon="7.98088518747894"><ele>673.0</ele><time>2026-03-26T16:45:19Z</time></trkpt><trkpt lat="44.01484523091365" lon="7.980863963775817"><ele>671.0</ele><time>2026-03-26T16:45:21Z</time></trkpt><trkpt lat="44.014748913206674" lon="7.980796136895103"><ele>669.0</ele><time>2026-03-26T16:45:22Z</time></trkpt><trkpt lat="44.014654589900054" lon="7.980747884679275"><ele>667.0</ele><time>2026-03-26T16:45:23Z</time></trkpt><trkpt lat="44.01453667022641" lon="7.980847124222234"><ele>665.0</ele><time>2026-03-26T16:45:25Z</time></trkpt><trkpt lat="44.01448879519107" lon="7.9809333406814895"><ele>663.0</ele><time>2026-03-26T16:45:26Z</time></trkpt><trkpt lat="44.01441413075248" lon="7.981036642626227"><ele>663.0</ele><time>2026-03-26T16:45:27Z</time></trkpt><trkpt lat="44.014308662813384" lon="7.9810944896173615"><ele>663.0</ele><time>2026-03-26T16:45:28Z</time></trkpt><trkpt lat="44.01420974846955" lon="7.9811462007587"><ele>663.0</ele><time>2026-03-26T16:45:29Z</time></trkpt><trkpt lat="44.014070444044656" lon="7.981119892246771"><ele>663.0</ele><time>2026-03-26T16:45:31Z</time></trkpt><trkpt lat="44.0140152985929" lon="7.981194444939975"><ele>663.0</ele><time>2026-03-26T16:45:32Z</time></trkpt><trkpt lat="44.013917596533474" lon="7.981323326713284"><ele>662.4</ele><time>2026-03-26T16:45:33Z</time></trkpt><trkpt lat="44.0138192669838" lon="7.981425079766725"><ele>661.8</ele><time>2026-03-26T16:45:34Z</time></trkpt><trkpt lat="44.01375243182086" lon="7.981513894669622"><ele>661.2</ele><time>2026-03-26T16:45:35.001Z</time></trkpt><trkpt lat="44.01368799287312" lon="7.981616610810737"><ele>660.6</ele><time>2026-03-26T16:45:36.001Z</time></trkpt><trkpt lat="44.01361615170774" lon="7.981689975222558"><ele>660.0</ele><time>2026-03-26T16:45:37.001Z</time></trkpt><trkpt lat="44.01355084067934" lon="7.981660872585063"><ele>660.0</ele><time>2026-03-26T16:45:38.001Z</time></trkpt><trkpt lat="44.01343548756447" lon="7.981667780018896"><ele>660.0</ele><time>2026-03-26T16:45:39.001Z</time></trkpt><trkpt lat="44.013331765001034" lon="7.981733094139235"><ele>660.0</ele><time>2026-03-26T16:45:40.001Z</time></trkpt><trkpt lat="44.013275560491465" lon="7.981866472194457"><ele>660.0</ele><time>2026-03-26T16:45:42.001Z</time></trkpt><trkpt lat="44.01325319757184" lon="7.982010025912896"><ele>660.0</ele><time>2026-03-26T16:45:43.001Z</time></trkpt><trkpt lat="44.01322633539694" lon="7.982164832276276"><ele>661.2</ele><time>2026-03-26T16:45:44.001Z</time></trkpt><trkpt lat="44.01315713603436" lon="7.982228747850149"><ele>662.4</ele><time>2026-03-26T16:45:45.001Z</time></trkpt><trkpt lat="44.013076419831144" lon="7.982265767158573"><ele>663.5999999999999</ele><time>2026-03-26T16:45:47.001Z</time></trkpt><trkpt lat="44.01293985220709" lon="7.982341313284986"><ele>664.8</ele><time>2026-03-26T16:45:49.001Z</time></trkpt><trkpt lat="44.012843489903396" lon="7.982448334026961"><ele>666.0</ele><time>2026-03-26T16:45:50.001Z</time></trkpt><trkpt lat="44.01278344957222" lon="7.982520549983396"><ele>666.0</ele><time>2026-03-26T16:45:51.001Z</time></trkpt><trkpt lat="44.01274180260877" lon="7.982589842857381"><ele>666.0</ele><time>2026-03-26T16:45:52.001Z</time></trkpt><trkpt lat="44.01269270194363" lon="7.982667869405325"><ele>666.0</ele><time>2026-03-26T16:45:53.001Z</time></trkpt><trkpt lat="44.01262813920767" lon="7.982723227961498"><ele>666.0</ele><time>2026-03-26T16:45:55.001Z</time></trkpt><trkpt lat="44.01248126841085" lon="7.982772828051061"><ele>666.0</ele><time>2026-03-26T16:45:57.001Z</time></trkpt><trkpt lat="44.012406464309095" lon="7.982818368711091"><ele>666.0</ele><time>2026-03-26T16:45:58.001Z</time></trkpt><trkpt lat="44.012330757422326" lon="7.982896053236612"><ele>667.6666666666666</ele><time>2026-03-26T16:45:59Z</time></trkpt><trkpt lat="44.01225755825554" lon="7.982998096687368"><ele>669.3333333333334</ele><time>2026-03-26T16:46:00Z</time></trkpt><trkpt lat="44.01220736311927" lon="7.983080388642553"><ele>671.0</ele><time>2026-03-26T16:46:01Z</time></trkpt><trkpt lat="44.01217016309553" lon="7.983153888378311"><ele>672.6666666666667</ele><time>2026-03-26T16:46:02Z</time></trkpt><trkpt lat="44.01213345044828" lon="7.983226972878404"><ele>674.3333333333334</ele><time>2026-03-26T16:46:03Z</time></trkpt><trkpt lat="44.01202531250275" lon="7.983342531520303"><ele>676.0</ele><time>2026-03-26T16:46:05Z</time></trkpt><trkpt lat="44.01196576281862" lon="7.98342891138289"><ele>676.0</ele><time>2026-03-26T16:46:06Z</time></trkpt><trkpt lat="44.01193306385229" lon="7.983514123684677"><ele>676.0</ele><time>2026-03-26T16:46:07Z</time></trkpt><trkpt lat="44.01189428952408" lon="7.983682432600889"><ele>676.0</ele><time>2026-03-26T16:46:09Z</time></trkpt><trkpt lat="44.011897034120324" lon="7.9837815155941625"><ele>676.0</ele><time>2026-03-26T16:46:10Z</time></trkpt><trkpt lat="44.01190212306839" lon="7.9838791047541315"><ele>676.0</ele><time>2026-03-26T16:46:11Z</time></trkpt><trkpt lat="44.01186122595355" lon="7.984014823961004"><ele>676.0</ele><time>2026-03-26T16:46:13Z</time></trkpt><trkpt lat="44.01181503897754" lon="7.984088055434491"><ele>675.1999999999999</ele><time>2026-03-26T16:46:14Z</time></trkpt><trkpt lat="44.01171380431639" lon="7.984186149302357"><ele>674.4</ele><time>2026-03-26T16:46:16Z</time></trkpt><trkpt lat="44.011638078178905" lon="7.9842265868611255"><ele>673.6</ele><time>2026-03-26T16:46:17Z</time></trkpt><trkpt lat="44.01155378402678" lon="7.9842431300665435"><ele>672.8</ele><time>2026-03-26T16:46:18Z</time></trkpt><trkpt lat="44.011450789917355" lon="7.984255433579572"><ele>672.0</ele><time>2026-03-26T16:46:19Z</time></trkpt><trkpt lat="44.011329251493414" lon="7.984279637194034"><ele>672.0</ele><time>2026-03-26T16:46:20Z</time></trkpt><trkpt lat="44.01123750236599" lon="7.984327996508022"><ele>672.0</ele><time>2026-03-26T16:46:21Z</time></trkpt><trkpt lat="44.011148077963874" lon="7.984411319745829"><ele>672.0</ele><time>2026-03-26T16:46:22Z</time></trkpt><trkpt lat="44.01107035147939" lon="7.9844938200243085"><ele>672.0</ele><time>2026-03-26T16:46:23Z</time></trkpt><trkpt lat="44.011008717896395" lon="7.984571041864845"><ele>672.0</ele><time>2026-03-26T16:46:24Z</time></trkpt><trkpt lat="44.01093216965296" lon="7.984667274524853"><ele>672.0</ele><time>2026-03-26T16:46:25Z</time></trkpt><trkpt lat="44.01091313470235" lon="7.984779518468"><ele>672.0</ele><time>2026-03-26T16:46:26Z</time></trkpt><trkpt lat="44.01097904380666" lon="7.984887573684993"><ele>672.0</ele><time>2026-03-26T16:46:28Z</time></trkpt><trkpt lat="44.011121720244844" lon="7.984811495179632"><ele>672.0</ele><time>2026-03-26T16:46:30Z</time></trkpt><trkpt lat="44.01119594437991" lon="7.984748075260087"><ele>672.0</ele><time>2026-03-26T16:46:31Z</time></trkpt><trkpt lat="44.011286191313154" lon="7.9847616382054305"><ele>672.0</ele><time>2026-03-26T16:46:33Z</time></trkpt><trkpt lat="44.01130238919919" lon="7.984905166661824"><ele>672.0</ele><time>2026-03-26T16:46:35Z</time></trkpt><trkpt lat="44.01126014336994" lon="7.9850829965299575"><ele>672.0</ele><time>2026-03-26T16:46:37Z</time></trkpt><trkpt lat="44.01122710992409" lon="7.985202511481439"><ele>672.0</ele><time>2026-03-26T16:46:38Z</time></trkpt><trkpt lat="44.011202038399354" lon="7.985304474742818"><ele>672.0</ele><time>2026-03-26T16:46:39Z</time></trkpt><trkpt lat="44.0111882194861" lon="7.985404313410467"><ele>670.4000000000001</ele><time>2026-03-26T16:46:40Z</time></trkpt><trkpt lat="44.01118238184861" lon="7.985494724864765"><ele>668.8000000000001</ele><time>2026-03-26T16:46:41Z</time></trkpt><trkpt lat="44.01115121030419" lon="7.98563652157196"><ele>667.2</ele><time>2026-03-26T16:46:43Z</time></trkpt><trkpt lat="44.01108863401678" lon="7.985739984949537"><ele>665.6</ele><time>2026-03-26T16:46:45Z</time></trkpt><trkpt lat="44.01102769555662" lon="7.98587614779206"><ele>664.0</ele><time>2026-03-26T16:46:47Z</time></trkpt><trkpt lat="44.01098826004007" lon="7.985978753991017"><ele>665.8000000000001</ele><time>2026-03-26T16:46:49Z</time></trkpt><trkpt lat="44.01093955023014" lon="7.986041212253351"><ele>667.6</ele><time>2026-03-26T16:46:51Z</time></trkpt><trkpt lat="44.01087304445199" lon="7.986190357243072"><ele>669.4</ele><time>2026-03-26T16:46:53Z</time></trkpt><trkpt lat="44.010833545021974" lon="7.9863117383637166"><ele>671.2</ele><time>2026-03-26T16:46:54Z</time></trkpt><trkpt lat="44.010816465781765" lon="7.986469187399139"><ele>673.0</ele><time>2026-03-26T16:46:55Z</time></trkpt><trkpt lat="44.01080765839304" lon="7.986657061914888"><ele>675.3333333333334</ele><time>2026-03-26T16:46:56Z</time></trkpt><trkpt lat="44.01078811097943" lon="7.986860106172069"><ele>677.6666666666666</ele><time>2026-03-26T16:46:57Z</time></trkpt><trkpt lat="44.010766997934624" lon="7.987079761665183"><ele>680.0</ele><time>2026-03-26T16:46:58Z</time></trkpt><trkpt lat="44.01075106669249" lon="7.9873094298607885"><ele>682.75</ele><time>2026-03-26T16:46:59Z</time></trkpt><trkpt lat="44.01080759014803" lon="7.987521833618908"><ele>685.5</ele><time>2026-03-26T16:47:00Z</time></trkpt><trkpt lat="44.010835771718064" lon="7.987689817237887"><ele>688.25</ele><time>2026-03-26T16:47:01Z</time></trkpt><trkpt lat="44.01083513260005" lon="7.987830898173722"><ele>691.0</ele><time>2026-03-26T16:47:02Z</time></trkpt><trkpt lat="44.010800322997575" lon="7.987957366171179"><ele>691.0</ele><time>2026-03-26T16:47:03Z</time></trkpt><trkpt lat="44.010745177045635" lon="7.988094446925586"><ele>691.0</ele><time>2026-03-26T16:47:04Z</time></trkpt><trkpt lat="44.01068186955267" lon="7.988263360385629"><ele>691.0</ele><time>2026-03-26T16:47:05Z</time></trkpt><trkpt lat="44.0106381399289" lon="7.988471379493917"><ele>691.0</ele><time>2026-03-26T16:47:06Z</time></trkpt><trkpt lat="44.01061414454711" lon="7.988680151140234"><ele>691.25</ele><time>2026-03-26T16:47:07Z</time></trkpt><trkpt lat="44.010620466706094" lon="7.988864355762633"><ele>691.5</ele><time>2026-03-26T16:47:08Z</time></trkpt><trkpt lat="44.01066332902578" lon="7.989021733579442"><ele>691.75</ele><time>2026-03-26T16:47:09Z</time></trkpt><trkpt lat="44.010728653542195" lon="7.989195761024115"><ele>692.0</ele><time>2026-03-26T16:47:10Z</time></trkpt><trkpt lat="44.01076377450561" lon="7.9893880715862755"><ele>688.8</ele><time>2026-03-26T16:47:11Z</time></trkpt><trkpt lat="44.01079726701137" lon="7.9895659442519"><ele>685.6</ele><time>2026-03-26T16:47:12Z</time></trkpt><trkpt lat="44.010785661920366" lon="7.989733370682427"><ele>682.4</ele><time>2026-03-26T16:47:13Z</time></trkpt><trkpt lat="44.01078515488487" lon="7.989862443806638"><ele>679.1999999999999</ele><time>2026-03-26T16:47:14Z</time></trkpt><trkpt lat="44.010742994993" lon="7.989951822375917"><ele>676.0</ele><time>2026-03-26T16:47:15Z</time></trkpt><trkpt lat="44.01067355721084" lon="7.990005260395628"><ele>676.0</ele><time>2026-03-26T16:47:16Z</time></trkpt><trkpt lat="44.01057629482003" lon="7.989993828421953"><ele>676.0</ele><time>2026-03-26T16:47:17Z</time></trkpt><trkpt lat="44.01046856027353" lon="7.989978014439783"><ele>676.0</ele><time>2026-03-26T16:47:18Z</time></trkpt><trkpt lat="44.010345938402395" lon="7.989908637278009"><ele>676.0</ele><time>2026-03-26T16:47:19Z</time></trkpt><trkpt lat="44.01020383274039" lon="7.98984561297375"><ele>676.0</ele><time>2026-03-26T16:47:20Z</time></trkpt><trkpt lat="44.010051587301824" lon="7.989817781820425"><ele>676.0</ele><time>2026-03-26T16:47:21Z</time></trkpt><trkpt lat="44.009886503751176" lon="7.989855364787278"><ele>676.0</ele><time>2026-03-26T16:47:22Z</time></trkpt><trkpt lat="44.00974146988784" lon="7.989939629910556"><ele>673.3333333333334</ele><time>2026-03-26T16:47:23Z</time></trkpt><trkpt lat="44.009598489780394" lon="7.990077357289946"><ele>670.6666666666666</ele><time>2026-03-26T16:47:24Z</time></trkpt><trkpt lat="44.009460793610856" lon="7.990237700663229"><ele>668.0</ele><time>2026-03-26T16:47:25Z</time></trkpt><trkpt lat="44.0093415986396" lon="7.990361636025682"><ele>668.0</ele><time>2026-03-26T16:47:26Z</time></trkpt><trkpt lat="44.009204729757684" lon="7.990487502848178"><ele>668.0</ele><time>2026-03-26T16:47:27Z</time></trkpt><trkpt lat="44.009058117945855" lon="7.990564848713204"><ele>668.0</ele><time>2026-03-26T16:47:28Z</time></trkpt><trkpt lat="44.00886185395669" lon="7.990596630828875"><ele>671.6666666666666</ele><time>2026-03-26T16:47:29Z</time></trkpt><trkpt lat="44.008686747308914" lon="7.9906325353092775"><ele>675.3333333333334</ele><time>2026-03-26T16:47:30Z</time></trkpt><trkpt lat="44.008502621925345" lon="7.990716064255846"><ele>679.0</ele><time>2026-03-26T16:47:31Z</time></trkpt><trkpt lat="44.008324667772285" lon="7.990825784000229"><ele>674.3333333333334</ele><time>2026-03-26T16:47:32Z</time></trkpt><trkpt lat="44.00815130169303" lon="7.990915498705205"><ele>669.6666666666666</ele><time>2026-03-26T16:47:33Z</time></trkpt><trkpt lat="44.00797663021535" lon="7.990962377895153"><ele>665.0</ele><time>2026-03-26T16:47:34Z</time></trkpt><trkpt lat="44.007790884070026" lon="7.990986317313052"><ele>665.0</ele><time>2026-03-26T16:47:35Z</time></trkpt><trkpt lat="44.00760970147714" lon="7.991013590994664"><ele>665.0</ele><time>2026-03-26T16:47:36Z</time></trkpt><trkpt lat="44.00746897214536" lon="7.991030212313673"><ele>665.0</ele><time>2026-03-26T16:47:37Z</time></trkpt><trkpt lat="44.00737261248894" lon="7.991015038969537"><ele>665.0</ele><time>2026-03-26T16:47:38Z</time></trkpt><trkpt lat="44.007296871603764" lon="7.99101415094325"><ele>665.0</ele><time>2026-03-26T16:47:39Z</time></trkpt><trkpt lat="44.007242443082944" lon="7.990969569081864"><ele>665.0</ele><time>2026-03-26T16:47:40Z</time></trkpt><trkpt lat="44.007178041928526" lon="7.990970069392792"><ele>665.0</ele><time>2026-03-26T16:47:44.001Z</time></trkpt><trkpt lat="44.00719047823071" lon="7.9908810778814585"><ele>665.0</ele><time>2026-03-26T16:49:21Z</time></trkpt><trkpt lat="44.00725115066288" lon="7.990751297805951"><ele>665.0</ele><time>2026-03-26T16:49:26Z</time></trkpt><trkpt lat="44.007279191114975" lon="7.990643114351156"><ele>665.0</ele><time>2026-03-26T16:49:27Z</time></trkpt><trkpt lat="44.00733350952851" lon="7.990507476066191"><ele>665.0</ele><time>2026-03-26T16:49:28Z</time></trkpt><trkpt lat="44.007410168383934" lon="7.990378181563601"><ele>665.0</ele><time>2026-03-26T16:49:29Z</time></trkpt><trkpt lat="44.007504349930755" lon="7.9902245143611115"><ele>665.0</ele><time>2026-03-26T16:49:30Z</time></trkpt><trkpt lat="44.007595899204574" lon="7.990050793523322"><ele>665.0</ele><time>2026-03-26T16:49:31Z</time></trkpt><trkpt lat="44.00768733262016" lon="7.989883344170455"><ele>666.25</ele><time>2026-03-26T16:49:32Z</time></trkpt><trkpt lat="44.007788893027765" lon="7.989774333146443"><ele>667.5</ele><time>2026-03-26T16:49:33Z</time></trkpt><trkpt lat="44.00786670613763" lon="7.989607475643706"><ele>668.75</ele><time>2026-03-26T16:49:34Z</time></trkpt><trkpt lat="44.0079331364826" lon="7.989441340998481"><ele>670.0</ele><time>2026-03-26T16:49:35Z</time></trkpt><trkpt lat="44.007963920652536" lon="7.989282408721579"><ele>665.6</ele><time>2026-03-26T16:49:36Z</time></trkpt><trkpt lat="44.00796321048246" lon="7.989128711276292"><ele>661.2</ele><time>2026-03-26T16:49:37Z</time></trkpt><trkpt lat="44.00795010842926" lon="7.988963457036794"><ele>656.8</ele><time>2026-03-26T16:49:38Z</time></trkpt><trkpt lat="44.00794993711526" lon="7.988826942187762"><ele>652.4</ele><time>2026-03-26T16:49:39Z</time></trkpt><trkpt lat="44.00798099845732" lon="7.988736297102867"><ele>648.0</ele><time>2026-03-26T16:49:40Z</time></trkpt><trkpt lat="44.00806455583689" lon="7.988706837694108"><ele>648.0</ele><time>2026-03-26T16:49:41Z</time></trkpt><trkpt lat="44.00814777593892" lon="7.988608588199103"><ele>648.0</ele><time>2026-03-26T16:49:42Z</time></trkpt><trkpt lat="44.00826444763129" lon="7.988501735292534"><ele>648.0</ele><time>2026-03-26T16:49:43Z</time></trkpt><trkpt lat="44.008392627166224" lon="7.988378911266941"><ele>648.0</ele><time>2026-03-26T16:49:44Z</time></trkpt><trkpt lat="44.008534314615886" lon="7.9883679715368565"><ele>650.5</ele><time>2026-03-26T16:49:45Z</time></trkpt><trkpt lat="44.0086341543506" lon="7.988298451979047"><ele>653.0</ele><time>2026-03-26T16:49:46Z</time></trkpt><trkpt lat="44.0087263188261" lon="7.9881508788621804"><ele>655.5</ele><time>2026-03-26T16:49:47.001Z</time></trkpt><trkpt lat="44.008815984643526" lon="7.987997557802635"><ele>658.0</ele><time>2026-03-26T16:49:48.001Z</time></trkpt><trkpt lat="44.00888062726687" lon="7.987848779561916"><ele>658.0</ele><time>2026-03-26T16:49:49.001Z</time></trkpt><trkpt lat="44.008931566417246" lon="7.987652930070514"><ele>658.0</ele><time>2026-03-26T16:49:50.001Z</time></trkpt><trkpt lat="44.00896500119558" lon="7.987466391301622"><ele>658.0</ele><time>2026-03-26T16:49:51.001Z</time></trkpt><trkpt lat="44.008997740435646" lon="7.987336398845208"><ele>658.0</ele><time>2026-03-26T16:49:52.001Z</time></trkpt><trkpt lat="44.009045404968575" lon="7.987258575809691"><ele>659.0</ele><time>2026-03-26T16:49:53.001Z</time></trkpt><trkpt lat="44.0091497051473" lon="7.9872788576982705"><ele>660.0</ele><time>2026-03-26T16:49:54.001Z</time></trkpt><trkpt lat="44.00927417994388" lon="7.987202241256768"><ele>661.0</ele><time>2026-03-26T16:49:55.001Z</time></trkpt><trkpt lat="44.00939633042619" lon="7.987083753641144"><ele>662.0</ele><time>2026-03-26T16:49:56.001Z</time></trkpt><trkpt lat="44.00947156258805" lon="7.986900414086752"><ele>662.0</ele><time>2026-03-26T16:49:57.001Z</time></trkpt><trkpt lat="44.00951379803715" lon="7.9867013486868705"><ele>662.0</ele><time>2026-03-26T16:49:58.001Z</time></trkpt><trkpt lat="44.00951829932135" lon="7.986482953253791"><ele>662.0</ele><time>2026-03-26T16:49:59.001Z</time></trkpt><trkpt lat="44.00948776077838" lon="7.986281276433188"><ele>657.0</ele><time>2026-03-26T16:50:00.001Z</time></trkpt><trkpt lat="44.00944873704878" lon="7.986105896796575"><ele>652.0</ele><time>2026-03-26T16:50:01.001Z</time></trkpt><trkpt lat="44.00944036846198" lon="7.985944556114308"><ele>647.0</ele><time>2026-03-26T16:50:02.001Z</time></trkpt><trkpt lat="44.00950328297432" lon="7.9857552619686025"><ele>642.0</ele><time>2026-03-26T16:50:03.001Z</time></trkpt><trkpt lat="44.0094924451546" lon="7.985551933381642"><ele>639.0</ele><time>2026-03-26T16:50:04.001Z</time></trkpt><trkpt lat="44.00941331228054" lon="7.98539224768433"><ele>636.0</ele><time>2026-03-26T16:50:05.001Z</time></trkpt><trkpt lat="44.009362572937945" lon="7.98526572022918"><ele>633.0</ele><time>2026-03-26T16:50:06.001Z</time></trkpt><trkpt lat="44.00935720823876" lon="7.985141016481137"><ele>630.0</ele><time>2026-03-26T16:50:07.001Z</time></trkpt><trkpt lat="44.009427039381485" lon="7.985020695518894"><ele>627.0</ele><time>2026-03-26T16:50:08.001Z</time></trkpt><trkpt lat="44.009492632883024" lon="7.984855820415021"><ele>623.6666666666666</ele><time>2026-03-26T16:50:09.001Z</time></trkpt><trkpt lat="44.009572694955715" lon="7.984652754702539"><ele>620.3333333333333</ele><time>2026-03-26T16:50:10.001Z</time></trkpt><trkpt lat="44.00967054940359" lon="7.9844602422421085"><ele>617.0</ele><time>2026-03-26T16:50:11.001Z</time></trkpt><trkpt lat="44.00979372477312" lon="7.984331684879595"><ele>612.25</ele><time>2026-03-26T16:50:12.001Z</time></trkpt><trkpt lat="44.00983021334826" lon="7.984165463395908"><ele>607.5</ele><time>2026-03-26T16:50:13.001Z</time></trkpt><trkpt lat="44.00988300924817" lon="7.983994877218892"><ele>602.75</ele><time>2026-03-26T16:50:14.001Z</time></trkpt><trkpt lat="44.00986581328196" lon="7.983758371531619"><ele>598.0</ele><time>2026-03-26T16:50:15.001Z</time></trkpt><trkpt lat="44.00988312457388" lon="7.983534476956741"><ele>598.0</ele><time>2026-03-26T16:50:16.001Z</time></trkpt><trkpt lat="44.00995323808988" lon="7.9833590019052565"><ele>598.0</ele><time>2026-03-26T16:50:17Z</time></trkpt><trkpt lat="44.01003557791515" lon="7.983187121924084"><ele>598.0</ele><time>2026-03-26T16:50:18Z</time></trkpt><trkpt lat="44.01006725300838" lon="7.9829990198314675"><ele>598.0</ele><time>2026-03-26T16:50:19Z</time></trkpt><trkpt lat="44.01004580824058" lon="7.982779772760821"><ele>593.3333333333334</ele><time>2026-03-26T16:50:20Z</time></trkpt><trkpt lat="44.01003485414508" lon="7.982537899688192"><ele>588.6666666666666</ele><time>2026-03-26T16:50:21Z</time></trkpt><trkpt lat="44.010006053903304" lon="7.9822887243082485"><ele>584.0</ele><time>2026-03-26T16:50:22Z</time></trkpt><trkpt lat="44.00995001000007" lon="7.98206572299589"><ele>584.0</ele><time>2026-03-26T16:50:23Z</time></trkpt><trkpt lat="44.00989828922259" lon="7.981911288319817"><ele>584.0</ele><time>2026-03-26T16:50:24Z</time></trkpt><trkpt lat="44.00986614056773" lon="7.9818241359448185"><ele>584.0</ele><time>2026-03-26T16:50:25Z</time></trkpt><trkpt lat="44.009836367198076" lon="7.981735185119336"><ele>584.0</ele><time>2026-03-26T16:50:27Z</time></trkpt><trkpt lat="44.0098801129375" lon="7.98185630360772"><ele>584.0</ele><time>2026-03-26T16:50:31Z</time></trkpt><trkpt lat="44.00989438026589" lon="7.981997359406757"><ele>584.0</ele><time>2026-03-26T16:50:32Z</time></trkpt><trkpt lat="44.009946605681854" lon="7.982109178993395"><ele>584.0</ele><time>2026-03-26T16:50:33Z</time></trkpt><trkpt lat="44.009951274762514" lon="7.982220043767977"><ele>584.0</ele><time>2026-03-26T16:50:35Z</time></trkpt><trkpt lat="44.00997776477895" lon="7.9823087133066"><ele>584.0</ele><time>2026-03-26T16:50:59Z</time></trkpt><trkpt lat="44.00999260305967" lon="7.982424594949083"><ele>584.0</ele><time>2026-03-26T16:51:00Z</time></trkpt><trkpt lat="44.00999144294669" lon="7.982555626385472"><ele>584.0</ele><time>2026-03-26T16:51:01Z</time></trkpt><trkpt lat="44.00999043467989" lon="7.982669506739234"><ele>584.1666666666666</ele><time>2026-03-26T16:51:02Z</time></trkpt><trkpt lat="44.00999377636978" lon="7.982771386978162"><ele>584.3333333333333</ele><time>2026-03-26T16:51:03Z</time></trkpt><trkpt lat="44.00999701615189" lon="7.982864539213709"><ele>584.5</ele><time>2026-03-26T16:51:04Z</time></trkpt><trkpt lat="44.010014399055045" lon="7.983012999235903"><ele>584.6666666666666</ele><time>2026-03-26T16:51:05Z</time></trkpt><trkpt lat="44.00999234805974" lon="7.9831507452047985"><ele>584.8333333333334</ele><time>2026-03-26T16:51:06Z</time></trkpt><trkpt lat="44.009959994514496" lon="7.983242045467627"><ele>585.0</ele><time>2026-03-26T16:51:07Z</time></trkpt><trkpt lat="44.00992469358474" lon="7.983317614522755"><ele>587.1666666666666</ele><time>2026-03-26T16:51:08Z</time></trkpt><trkpt lat="44.009886099682575" lon="7.9833954815862205"><ele>589.3333333333334</ele><time>2026-03-26T16:51:11Z</time></trkpt><trkpt lat="44.00985282104568" lon="7.983497350299324"><ele>591.5</ele><time>2026-03-26T16:51:13Z</time></trkpt><trkpt lat="44.009817899457005" lon="7.9836034737348776"><ele>593.6666666666667</ele><time>2026-03-26T16:51:14Z</time></trkpt><trkpt lat="44.009794148937885" lon="7.983741263695536"><ele>595.8333333333334</ele><time>2026-03-26T16:51:16Z</time></trkpt><trkpt lat="44.00979852158741" lon="7.983893334219268"><ele>598.0</ele><time>2026-03-26T16:51:19Z</time></trkpt><trkpt lat="44.009804874595964" lon="7.984121033150753"><ele>604.3333333333334</ele><time>2026-03-26T16:51:20Z</time></trkpt><trkpt lat="44.009630344708036" lon="7.984438940482847"><ele>610.6666666666666</ele><time>2026-03-26T16:51:21Z</time></trkpt><trkpt lat="44.009558100811425" lon="7.9845530650766285"><ele>617.0</ele><time>2026-03-26T16:51:26Z</time></trkpt><trkpt lat="44.009522410670094" lon="7.984638703644842"><ele>617.0</ele><time>2026-03-26T16:51:28Z</time></trkpt><trkpt lat="44.00948828004405" lon="7.984723991827313"><ele>617.0</ele><time>2026-03-26T16:51:30Z</time></trkpt><trkpt lat="44.009442938275875" lon="7.984837295171028"><ele>617.0</ele><time>2026-03-26T16:51:52Z</time></trkpt><trkpt lat="44.009383254111235" lon="7.984986438642003"><ele>617.0</ele><time>2026-03-26T16:51:54.001Z</time></trkpt><trkpt lat="44.00934009105975" lon="7.985108811910454"><ele>617.0</ele><time>2026-03-26T16:51:56.001Z</time></trkpt><trkpt lat="44.009304982251265" lon="7.985211980166144"><ele>620.3333333333333</ele><time>2026-03-26T16:51:57.001Z</time></trkpt><trkpt lat="44.00923923697536" lon="7.985312330964559"><ele>623.6666666666666</ele><time>2026-03-26T16:51:58.001Z</time></trkpt><trkpt lat="44.00926521970406" lon="7.9854596719084014"><ele>627.0</ele><time>2026-03-26T16:52:05.001Z</time></trkpt><trkpt lat="44.009205261414984" lon="7.986126452078388"><ele>607.0</ele><time>2026-03-26T16:52:07.001Z</time></trkpt><trkpt lat="44.008598662404445" lon="7.986304250240265"><ele>607.0</ele><time>2026-03-26T16:52:11Z</time></trkpt><trkpt lat="44.00850517448126" lon="7.986330356004769"><ele>607.0</ele><time>2026-03-26T16:52:12Z</time></trkpt><trkpt lat="44.00839947939921" lon="7.9863574081174535"><ele>607.0</ele><time>2026-03-26T16:52:13Z</time></trkpt><trkpt lat="44.008296780161956" lon="7.986403355078787"><ele>607.0</ele><time>2026-03-26T16:52:14Z</time></trkpt><trkpt lat="44.00821826838345" lon="7.986462337136441"><ele>607.0</ele><time>2026-03-26T16:52:15Z</time></trkpt><trkpt lat="44.00816872069635" lon="7.986592419490765"><ele>604.6</ele><time>2026-03-26T16:52:17Z</time></trkpt><trkpt lat="44.00815939107741" lon="7.986801075155993"><ele>602.2</ele><time>2026-03-26T16:52:19Z</time></trkpt><trkpt lat="44.00815909380557" lon="7.986911713524532"><ele>599.8</ele><time>2026-03-26T16:52:20Z</time></trkpt><trkpt lat="44.008132690257185" lon="7.986998544432599"><ele>597.4</ele><time>2026-03-26T16:52:22Z</time></trkpt><trkpt lat="44.00803919583803" lon="7.987065513251742"><ele>595.0</ele><time>2026-03-26T16:52:24Z</time></trkpt><trkpt lat="44.00796385367939" lon="7.9871008942950805"><ele>595.0</ele><time>2026-03-26T16:52:25Z</time></trkpt><trkpt lat="44.00787829074177" lon="7.9872121633885"><ele>595.0</ele><time>2026-03-26T16:52:27Z</time></trkpt><trkpt lat="44.00783652286722" lon="7.987321633981529"><ele>595.0</ele><time>2026-03-26T16:52:28Z</time></trkpt><trkpt lat="44.00779144226243" lon="7.987444429837209"><ele>595.0</ele><time>2026-03-26T16:52:29Z</time></trkpt><trkpt lat="44.00773957416417" lon="7.987601142671459"><ele>595.0</ele><time>2026-03-26T16:52:30Z</time></trkpt><trkpt lat="44.007677384722925" lon="7.987691611505005"><ele>596.8</ele><time>2026-03-26T16:52:31Z</time></trkpt><trkpt lat="44.00758432584547" lon="7.987742995772468"><ele>598.6</ele><time>2026-03-26T16:52:32Z</time></trkpt><trkpt lat="44.007492113482364" lon="7.987751452304879"><ele>600.4</ele><time>2026-03-26T16:52:33Z</time></trkpt><trkpt lat="44.007393841347465" lon="7.987747228625204"><ele>602.2</ele><time>2026-03-26T16:52:34Z</time></trkpt><trkpt lat="44.00729422096645" lon="7.987771688814213"><ele>604.0</ele><time>2026-03-26T16:52:35Z</time></trkpt><trkpt lat="44.007180600565476" lon="7.9878332740756495"><ele>604.0</ele><time>2026-03-26T16:52:36Z</time></trkpt><trkpt lat="44.00705805459258" lon="7.987912856601928"><ele>604.0</ele><time>2026-03-26T16:52:37Z</time></trkpt><trkpt lat="44.00698542971641" lon="7.987975805149208"><ele>604.0</ele><time>2026-03-26T16:52:38Z</time></trkpt><trkpt lat="44.006916835176916" lon="7.988066866085093"><ele>604.0</ele><time>2026-03-26T16:52:39Z</time></trkpt><trkpt lat="44.00687828076262" lon="7.988150954043936"><ele>604.0</ele><time>2026-03-26T16:52:40Z</time></trkpt><trkpt lat="44.00686405485742" lon="7.98824287732453"><ele>607.2</ele><time>2026-03-26T16:52:41Z</time></trkpt><trkpt lat="44.006860834539005" lon="7.988354959815661"><ele>610.4</ele><time>2026-03-26T16:52:42Z</time></trkpt><trkpt lat="44.00684475306227" lon="7.988472737430712"><ele>613.6</ele><time>2026-03-26T16:52:43Z</time></trkpt><trkpt lat="44.0068224225245" lon="7.988555777170145"><ele>616.8</ele><time>2026-03-26T16:52:44Z</time></trkpt><trkpt lat="44.00674398833838" lon="7.9885638632178635"><ele>620.0</ele><time>2026-03-26T16:52:46Z</time></trkpt><trkpt lat="44.00659884305824" lon="7.988585924940561"><ele>620.0</ele><time>2026-03-26T16:52:48Z</time></trkpt><trkpt lat="44.00651258246755" lon="7.988638460103231"><ele>620.0</ele><time>2026-03-26T16:52:49Z</time></trkpt><trkpt lat="44.006423956869796" lon="7.988597091907247"><ele>620.0</ele><time>2026-03-26T16:52:51Z</time></trkpt><trkpt lat="44.00636484622918" lon="7.9885413399824365"><ele>620.0</ele><time>2026-03-26T16:52:52Z</time></trkpt><trkpt lat="44.006300869532495" lon="7.988521867753342"><ele>620.0</ele><time>2026-03-26T16:52:53Z</time></trkpt><trkpt lat="44.00614203339852" lon="7.98840867502135"><ele>620.0</ele><time>2026-03-26T16:52:55Z</time></trkpt><trkpt lat="44.00607799972689" lon="7.988430147723019"><ele>620.0</ele><time>2026-03-26T16:52:56Z</time></trkpt><trkpt lat="44.006016736362156" lon="7.988491124174504"><ele>620.0</ele><time>2026-03-26T16:52:57Z</time></trkpt><trkpt lat="44.00598101536664" lon="7.988600710614358"><ele>620.0</ele><time>2026-03-26T16:52:58Z</time></trkpt><trkpt lat="44.00594258748697" lon="7.9887402243638315"><ele>620.0</ele><time>2026-03-26T16:52:59Z</time></trkpt><trkpt lat="44.00591145039617" lon="7.988881414580465"><ele>620.0</ele><time>2026-03-26T16:53:00Z</time></trkpt><trkpt lat="44.00586836045167" lon="7.988968377969731"><ele>619.3333333333333</ele><time>2026-03-26T16:53:01Z</time></trkpt><trkpt lat="44.00579864292574" lon="7.988985798292174"><ele>618.6666666666666</ele><time>2026-03-26T16:53:02Z</time></trkpt><trkpt lat="44.00570624830457" lon="7.989011684637253"><ele>618.0</ele><time>2026-03-26T16:53:03Z</time></trkpt><trkpt lat="44.0056346081994" lon="7.989068313756952"><ele>617.3333333333334</ele><time>2026-03-26T16:53:04Z</time></trkpt><trkpt lat="44.005581194632185" lon="7.9891572541063685"><ele>616.6666666666667</ele><time>2026-03-26T16:53:05Z</time></trkpt><trkpt lat="44.005485111042425" lon="7.989141777147104"><ele>616.0</ele><time>2026-03-26T16:53:07Z</time></trkpt><trkpt lat="44.00543019975389" lon="7.989057987947839"><ele>616.0</ele><time>2026-03-26T16:53:08Z</time></trkpt><trkpt lat="44.005374550352265" lon="7.9889628650273785"><ele>616.0</ele><time>2026-03-26T16:53:09Z</time></trkpt><trkpt lat="44.00528548250431" lon="7.9889021181002295"><ele>616.0</ele><time>2026-03-26T16:53:10Z</time></trkpt><trkpt lat="44.00518843474795" lon="7.988967240131532"><ele>616.0</ele><time>2026-03-26T16:53:12Z</time></trkpt><trkpt lat="44.0051717978587" lon="7.989075917900374"><ele>616.0</ele><time>2026-03-26T16:53:13Z</time></trkpt><trkpt lat="44.00516080195072" lon="7.989211024785428"><ele>621.4</ele><time>2026-03-26T16:53:14Z</time></trkpt><trkpt lat="44.00516988163318" lon="7.989357398441082"><ele>626.8</ele><time>2026-03-26T16:53:15Z</time></trkpt><trkpt lat="44.00511332726534" lon="7.989426998952829"><ele>632.1999999999999</ele><time>2026-03-26T16:53:17Z</time></trkpt><trkpt lat="44.00498886691995" lon="7.989343565346705"><ele>637.6</ele><time>2026-03-26T16:53:19Z</time></trkpt><trkpt lat="44.004879011292246" lon="7.989280604242806"><ele>643.0</ele><time>2026-03-26T16:53:20Z</time></trkpt><trkpt lat="44.004794044676075" lon="7.989284898104689"><ele>643.3333333333334</ele><time>2026-03-26T16:53:21Z</time></trkpt><trkpt lat="44.004724508250874" lon="7.989326945460192"><ele>643.6666666666667</ele><time>2026-03-26T16:53:22Z</time></trkpt><trkpt lat="44.00465552526387" lon="7.989408213865563"><ele>644.0</ele><time>2026-03-26T16:53:23Z</time></trkpt><trkpt lat="44.00458482753207" lon="7.989462049924952"><ele>644.3333333333334</ele><time>2026-03-26T16:53:24Z</time></trkpt><trkpt lat="44.00450496476918" lon="7.989474836268793"><ele>644.6666666666666</ele><time>2026-03-26T16:53:25Z</time></trkpt><trkpt lat="44.00439002681351" lon="7.989462288669795"><ele>645.0</ele><time>2026-03-26T16:53:26Z</time></trkpt><trkpt lat="44.00426015771347" lon="7.989436857198765"><ele>641.25</ele><time>2026-03-26T16:53:27Z</time></trkpt><trkpt lat="44.00415340038586" lon="7.989439137717949"><ele>637.5</ele><time>2026-03-26T16:53:28Z</time></trkpt><trkpt lat="44.00404320998722" lon="7.9894671912835555"><ele>633.75</ele><time>2026-03-26T16:53:29Z</time></trkpt><trkpt lat="44.003899147413854" lon="7.989484319243942"><ele>630.0</ele><time>2026-03-26T16:53:30Z</time></trkpt><trkpt lat="44.003798999443056" lon="7.989464449645145"><ele>630.0</ele><time>2026-03-26T16:53:31Z</time></trkpt><trkpt lat="44.00370574167928" lon="7.989409982055842"><ele>630.0</ele><time>2026-03-26T16:53:32Z</time></trkpt><trkpt lat="44.00360265296265" lon="7.989345735104144"><ele>630.0</ele><time>2026-03-26T16:53:33Z</time></trkpt><trkpt lat="44.003532671187344" lon="7.98924043038939"><ele>630.0</ele><time>2026-03-26T16:53:34Z</time></trkpt><trkpt lat="44.00346616707888" lon="7.989198833034275"><ele>630.0</ele><time>2026-03-26T16:53:35Z</time></trkpt><trkpt lat="44.0033291334375" lon="7.989182289036756"><ele>621.75</ele><time>2026-03-26T16:53:37Z</time></trkpt><trkpt lat="44.00319498917924" lon="7.98919951225217"><ele>613.5</ele><time>2026-03-26T16:53:38Z</time></trkpt><trkpt lat="44.003043061661685" lon="7.989225845464071"><ele>605.25</ele><time>2026-03-26T16:53:39Z</time></trkpt><trkpt lat="44.002934550984484" lon="7.989251078101482"><ele>597.0</ele><time>2026-03-26T16:53:40Z</time></trkpt><trkpt lat="44.00287996246598" lon="7.989296815357991"><ele>597.0</ele><time>2026-03-26T16:53:41Z</time></trkpt><trkpt lat="44.00285342339641" lon="7.989453702770565"><ele>597.0</ele><time>2026-03-26T16:53:43Z</time></trkpt><trkpt lat="44.00282548073557" lon="7.989618777699094"><ele>597.0</ele><time>2026-03-26T16:53:44Z</time></trkpt><trkpt lat="44.00278072622914" lon="7.989791186293268"><ele>597.0</ele><time>2026-03-26T16:53:45Z</time></trkpt><trkpt lat="44.002755289088675" lon="7.989913840270226"><ele>598.0</ele><time>2026-03-26T16:53:46Z</time></trkpt><trkpt lat="44.00274257125063" lon="7.990025095442205"><ele>599.0</ele><time>2026-03-26T16:53:47Z</time></trkpt><trkpt lat="44.00273846515532" lon="7.990163519712319"><ele>600.0</ele><time>2026-03-26T16:53:48Z</time></trkpt><trkpt lat="44.00273226667157" lon="7.990301215096436"><ele>601.0</ele><time>2026-03-26T16:53:49Z</time></trkpt><trkpt lat="44.00269654603169" lon="7.990409625047907"><ele>602.0</ele><time>2026-03-26T16:53:50Z</time></trkpt><trkpt lat="44.00264260695991" lon="7.990548916061793"><ele>602.0</ele><time>2026-03-26T16:53:52Z</time></trkpt><trkpt lat="44.00268742217438" lon="7.990715446834042"><ele>602.0</ele><time>2026-03-26T16:53:53Z</time></trkpt><trkpt lat="44.00271152715063" lon="7.99085422380625"><ele>602.0</ele><time>2026-03-26T16:53:54Z</time></trkpt><trkpt lat="44.0026652526076" lon="7.990981452157827"><ele>602.0</ele><time>2026-03-26T16:53:56Z</time></trkpt><trkpt lat="44.00260431498337" lon="7.991053445242508"><ele>602.0</ele><time>2026-03-26T16:53:57Z</time></trkpt><trkpt lat="44.002528846319194" lon="7.991136230640148"><ele>599.2</ele><time>2026-03-26T16:53:58Z</time></trkpt><trkpt lat="44.00248323904871" lon="7.991201355958371"><ele>596.4000000000001</ele><time>2026-03-26T16:53:59Z</time></trkpt><trkpt lat="44.00236714478327" lon="7.991216816194651"><ele>593.5999999999999</ele><time>2026-03-26T16:54:01Z</time></trkpt><trkpt lat="44.00227300210801" lon="7.991193815271905"><ele>590.8</ele><time>2026-03-26T16:54:02Z</time></trkpt><trkpt lat="44.002181704523395" lon="7.991155149474757"><ele>588.0</ele><time>2026-03-26T16:54:03Z</time></trkpt><trkpt lat="44.00205880668036" lon="7.991230522556381"><ele>588.0</ele><time>2026-03-26T16:54:05Z</time></trkpt><trkpt lat="44.00200949632042" lon="7.991305157919965"><ele>588.0</ele><time>2026-03-26T16:54:06Z</time></trkpt><trkpt lat="44.00197981693573" lon="7.991400761607637"><ele>588.0</ele><time>2026-03-26T16:54:07Z</time></trkpt><trkpt lat="44.00194628291681" lon="7.991514762442943"><ele>588.0</ele><time>2026-03-26T16:54:08Z</time></trkpt><trkpt lat="44.0019071453953" lon="7.991593498930787"><ele>588.0</ele><time>2026-03-26T16:54:09Z</time></trkpt><trkpt lat="44.001846808142936" lon="7.991687693087528"><ele>588.0</ele><time>2026-03-26T16:54:10Z</time></trkpt><trkpt lat="44.00179293798848" lon="7.991797530126897"><ele>586.0</ele><time>2026-03-26T16:54:11Z</time></trkpt><trkpt lat="44.001734339770884" lon="7.991951934703177"><ele>584.0</ele><time>2026-03-26T16:54:12Z</time></trkpt><trkpt lat="44.001659034264144" lon="7.992081328475685"><ele>582.0</ele><time>2026-03-26T16:54:13Z</time></trkpt><trkpt lat="44.00156801141704" lon="7.992230233951352"><ele>580.0</ele><time>2026-03-26T16:54:14Z</time></trkpt><trkpt lat="44.00149240489154" lon="7.992350819764006"><ele>580.0</ele><time>2026-03-26T16:54:15Z</time></trkpt><trkpt lat="44.00140518214004" lon="7.992381863761493"><ele>580.0</ele><time>2026-03-26T16:54:16Z</time></trkpt><trkpt lat="44.0013315470077" lon="7.992427489179952"><ele>580.0</ele><time>2026-03-26T16:54:17Z</time></trkpt><trkpt lat="44.00125425881226" lon="7.992571557817726"><ele>580.0</ele><time>2026-03-26T16:54:19Z</time></trkpt><trkpt lat="44.00120062484066" lon="7.992668125695383"><ele>580.0</ele><time>2026-03-26T16:54:21Z</time></trkpt><trkpt lat="44.00115262597753" lon="7.992833939426552"><ele>584.0</ele><time>2026-03-26T16:54:23Z</time></trkpt><trkpt lat="44.0011331733272" lon="7.992933092990263"><ele>588.0</ele><time>2026-03-26T16:54:24Z</time></trkpt><trkpt lat="44.001039592752555" lon="7.993085390299312"><ele>592.0</ele><time>2026-03-26T16:54:26Z</time></trkpt><trkpt lat="44.00096327071149" lon="7.993189018926472"><ele>596.0</ele><time>2026-03-26T16:54:27Z</time></trkpt><trkpt lat="44.000901046612874" lon="7.993265403940203"><ele>600.0</ele><time>2026-03-26T16:54:28Z</time></trkpt><trkpt lat="44.00084681952712" lon="7.993319833468989"><ele>602.0</ele><time>2026-03-26T16:54:29Z</time></trkpt><trkpt lat="44.00078561588776" lon="7.99340723504272"><ele>604.0</ele><time>2026-03-26T16:54:31Z</time></trkpt><trkpt lat="44.000743071445605" lon="7.993475434247499"><ele>606.0</ele><time>2026-03-26T16:54:32Z</time></trkpt><trkpt lat="44.00079914563579" lon="7.993387858125801"><ele>608.0</ele><time>2026-03-26T16:54:34Z</time></trkpt><trkpt lat="44.00076928838799" lon="7.99354370059371"><ele>610.0</ele><time>2026-03-26T16:55:28Z</time></trkpt><trkpt lat="44.00070526251444" lon="7.993552227301618"><ele>612.0</ele><time>2026-03-26T16:55:30Z</time></trkpt><trkpt lat="44.000599672876724" lon="7.993490690175081"><ele>612.0</ele><time>2026-03-26T16:55:32Z</time></trkpt><trkpt lat="44.0004817531057" lon="7.993415426970942"><ele>612.0</ele><time>2026-03-26T16:55:33Z</time></trkpt><trkpt lat="44.000362918269076" lon="7.993323987369111"><ele>612.0</ele><time>2026-03-26T16:55:34Z</time></trkpt><trkpt lat="44.00027194774702" lon="7.993274406221982"><ele>612.0</ele><time>2026-03-26T16:55:35Z</time></trkpt><trkpt lat="44.00020720981863" lon="7.993301153671172"><ele>612.0</ele><time>2026-03-26T16:55:36Z</time></trkpt><trkpt lat="44.00017064827313" lon="7.993376000932716"><ele>612.0</ele><time>2026-03-26T16:55:37Z</time></trkpt><trkpt lat="44.000143163162306" lon="7.99348861989866"><ele>612.0</ele><time>2026-03-26T16:55:38Z</time></trkpt><trkpt lat="44.000117159399224" lon="7.993593826236389"><ele>612.0</ele><time>2026-03-26T16:55:39Z</time></trkpt><trkpt lat="44.000018768451625" lon="7.993755149299834"><ele>612.0</ele><time>2026-03-26T16:55:41Z</time></trkpt><trkpt lat="43.99995420495735" lon="7.9938926475430225"><ele>612.0</ele><time>2026-03-26T16:55:42Z</time></trkpt><trkpt lat="43.99987400290189" lon="7.994069289869839"><ele>619.0</ele><time>2026-03-26T16:55:43Z</time></trkpt><trkpt lat="43.99978256434848" lon="7.9942741708814165"><ele>626.0</ele><time>2026-03-26T16:55:44Z</time></trkpt><trkpt lat="43.99971125125342" lon="7.994428225543754"><ele>633.0</ele><time>2026-03-26T16:55:45Z</time></trkpt><trkpt lat="43.99963476690109" lon="7.994526774690774"><ele>640.0</ele><time>2026-03-26T16:55:46Z</time></trkpt><trkpt lat="43.99959412062255" lon="7.994617841060546"><ele>640.0</ele><time>2026-03-26T16:55:47Z</time></trkpt><trkpt lat="43.999556036776326" lon="7.994694177504321"><ele>640.0</ele><time>2026-03-26T16:55:48Z</time></trkpt><trkpt lat="43.99948696331774" lon="7.9946729252957685"><ele>640.0</ele><time>2026-03-26T16:57:06Z</time></trkpt><trkpt lat="43.99943196326678" lon="7.994720764651786"><ele>640.0</ele><time>2026-03-26T16:57:08Z</time></trkpt><trkpt lat="43.99935581772287" lon="7.994778931719568"><ele>640.0</ele><time>2026-03-26T16:57:10Z</time></trkpt><trkpt lat="43.999300545219754" lon="7.994822006214726"><ele>640.0</ele><time>2026-03-26T16:57:11Z</time></trkpt><trkpt lat="43.99923978390169" lon="7.9948952529837385"><ele>640.0</ele><time>2026-03-26T16:57:12Z</time></trkpt><trkpt lat="43.999162266902445" lon="7.994975634219589"><ele>639.6666666666667</ele><time>2026-03-26T16:57:13Z</time></trkpt><trkpt lat="43.99907558474217" lon="7.9950277324593815"><ele>639.3333333333334</ele><time>2026-03-26T16:57:14Z</time></trkpt><trkpt lat="43.99898874698215" lon="7.995016030783476"><ele>639.0</ele><time>2026-03-26T16:57:15Z</time></trkpt><trkpt lat="43.99891187209645" lon="7.995082453421253"><ele>638.6666666666666</ele><time>2026-03-26T16:57:17Z</time></trkpt><trkpt lat="43.99890365800624" lon="7.995184912426791"><ele>638.3333333333333</ele><time>2026-03-26T16:57:19Z</time></trkpt><trkpt lat="43.99891301150595" lon="7.995279145001671"><ele>638.0</ele><time>2026-03-26T16:57:21Z</time></trkpt><trkpt lat="43.99886697754932" lon="7.995468668381359"><ele>638.0</ele><time>2026-03-26T16:57:36Z</time></trkpt><trkpt lat="43.99883878584782" lon="7.995558284459522"><ele>638.0</ele><time>2026-03-26T16:57:37Z</time></trkpt><trkpt lat="43.99880213921427" lon="7.995633435965449"><ele>638.0</ele><time>2026-03-26T16:57:41Z</time></trkpt><trkpt lat="43.998729007129455" lon="7.995584152120279"><ele>638.0</ele><time>2026-03-26T16:57:44Z</time></trkpt><trkpt lat="43.99887872399549" lon="7.995506279550878"><ele>638.0</ele><time>2026-03-26T16:58:00Z</time></trkpt><trkpt lat="43.99880561886192" lon="7.995595805121784"><ele>638.0</ele><time>2026-03-26T16:58:16Z</time></trkpt><trkpt lat="43.998743815908036" lon="7.995538468280357"><ele>638.0</ele><time>2026-03-26T16:58:20Z</time></trkpt><trkpt lat="43.998648605012704" lon="7.99549145156199"><ele>638.0</ele><time>2026-03-26T16:58:23Z</time></trkpt><trkpt lat="43.998553881521104" lon="7.995443995947705"><ele>638.0</ele><time>2026-03-26T16:58:26Z</time></trkpt><trkpt lat="43.99848258998964" lon="7.995492118970077"><ele>638.0</ele><time>2026-03-26T16:58:28Z</time></trkpt><trkpt lat="43.998379284817574" lon="7.995573017786029"><ele>635.8333333333333</ele><time>2026-03-26T16:58:30Z</time></trkpt><trkpt lat="43.998297890524164" lon="7.9955592216799465"><ele>633.6666666666666</ele><time>2026-03-26T16:58:34Z</time></trkpt><trkpt lat="43.998194076474924" lon="7.995626233799404"><ele>631.5</ele><time>2026-03-26T16:58:36Z</time></trkpt><trkpt lat="43.9981462385381" lon="7.995713293824462"><ele>629.3333333333334</ele><time>2026-03-26T16:58:38Z</time></trkpt><trkpt lat="43.99808346360535" lon="7.9956913985943645"><ele>627.1666666666667</ele><time>2026-03-26T16:58:43Z</time></trkpt><trkpt lat="43.99802406043364" lon="7.995578314843287"><ele>625.0</ele><time>2026-03-26T16:59:19Z</time></trkpt><trkpt lat="43.99801034623456" lon="7.995492588398966"><ele>625.0</ele><time>2026-03-26T16:59:21Z</time></trkpt><trkpt lat="43.99798188168998" lon="7.995407884077363"><ele>625.0</ele><time>2026-03-26T16:59:24Z</time></trkpt><trkpt lat="43.99791652826368" lon="7.995332276154454"><ele>625.0</ele><time>2026-03-26T16:59:26Z</time></trkpt><trkpt lat="43.99784059129582" lon="7.995242738633157"><ele>625.0</ele><time>2026-03-26T16:59:28Z</time></trkpt><trkpt lat="43.99770617892588" lon="7.99523820010549"><ele>625.0</ele><time>2026-03-26T16:59:30Z</time></trkpt><trkpt lat="43.99759502799485" lon="7.995188550413697"><ele>625.0</ele><time>2026-03-26T16:59:32Z</time></trkpt><trkpt lat="43.997547258045465" lon="7.995102346805477"><ele>625.0</ele><time>2026-03-26T16:59:39Z</time></trkpt><trkpt lat="43.997566312745164" lon="7.994995244056174"><ele>625.0</ele><time>2026-03-26T16:59:41Z</time></trkpt><trkpt lat="43.99760513469791" lon="7.994923115178328"><ele>625.0</ele><time>2026-03-26T16:59:44Z</time></trkpt><trkpt lat="43.997661788751245" lon="7.994883438350672"><ele>625.0</ele><time>2026-03-26T17:00:44Z</time></trkpt><trkpt lat="43.99771321159421" lon="7.994775217722314"><ele>625.0</ele><time>2026-03-26T17:00:46Z</time></trkpt><trkpt lat="43.99774325321303" lon="7.994675948522771"><ele>622.0</ele><time>2026-03-26T17:00:47Z</time></trkpt><trkpt lat="43.99778595344538" lon="7.99456444892881"><ele>619.0</ele><time>2026-03-26T17:00:48Z</time></trkpt><trkpt lat="43.99782642157875" lon="7.994485540962917"><ele>616.0</ele><time>2026-03-26T17:00:49Z</time></trkpt><trkpt lat="43.99784312518099" lon="7.994391127512434"><ele>613.0</ele><time>2026-03-26T17:00:51Z</time></trkpt><trkpt lat="43.997848604577506" lon="7.994245417577208"><ele>610.0</ele><time>2026-03-26T17:00:53Z</time></trkpt><trkpt lat="43.99786833734835" lon="7.9941218198469635"><ele>607.0</ele><time>2026-03-26T17:00:55Z</time></trkpt><trkpt lat="43.997822020854294" lon="7.993957228835696"><ele>603.5</ele><time>2026-03-26T17:00:57Z</time></trkpt><trkpt lat="43.99788848676875" lon="7.993764461866712"><ele>600.0</ele><time>2026-03-26T17:00:59Z</time></trkpt><trkpt lat="43.997826056322445" lon="7.993642284632027"><ele>596.5</ele><time>2026-03-26T17:01:01Z</time></trkpt><trkpt lat="43.9977149426836" lon="7.993543582978268"><ele>593.0</ele><time>2026-03-26T17:01:03Z</time></trkpt><trkpt lat="43.99766892981137" lon="7.9934550598043685"><ele>590.0</ele><time>2026-03-26T17:01:05Z</time></trkpt><trkpt lat="43.99766019885781" lon="7.99332945625401"><ele>587.0</ele><time>2026-03-26T17:01:07Z</time></trkpt><trkpt lat="43.9976854996657" lon="7.993170295460361"><ele>584.0</ele><time>2026-03-26T17:01:09Z</time></trkpt><trkpt lat="43.99770208185797" lon="7.993044942324296"><ele>581.0</ele><time>2026-03-26T17:01:11Z</time></trkpt><trkpt lat="43.99769702967952" lon="7.992955398474214"><ele>578.0</ele><time>2026-03-26T17:01:12Z</time></trkpt><trkpt lat="43.99765156186562" lon="7.99285370573824"><ele>578.0</ele><time>2026-03-26T17:01:14Z</time></trkpt><trkpt lat="43.997612303029804" lon="7.992754095305562"><ele>578.0</ele><time>2026-03-26T17:01:17Z</time></trkpt><trkpt lat="43.99769644070858" lon="7.992770758324571"><ele>578.0</ele><time>2026-03-26T17:01:45Z</time></trkpt><trkpt lat="43.99777809915914" lon="7.992861358487869"><ele>578.0</ele><time>2026-03-26T17:01:47Z</time></trkpt><trkpt lat="43.99784512047003" lon="7.993001005734117"><ele>578.0</ele><time>2026-03-26T17:01:49Z</time></trkpt><trkpt lat="43.99793193630792" lon="7.993107984288615"><ele>578.0</ele><time>2026-03-26T17:01:51Z</time></trkpt><trkpt lat="43.998030500833366" lon="7.993073948187248"><ele>578.0</ele><time>2026-03-26T17:01:55Z</time></trkpt><trkpt lat="43.99799300256355" lon="7.992922526482895"><ele>578.0</ele><time>2026-03-26T17:01:57Z</time></trkpt><trkpt lat="43.99795248166843" lon="7.992830001610094"><ele>578.0</ele><time>2026-03-26T17:01:58Z</time></trkpt><trkpt lat="43.99790328628149" lon="7.992681694646355"><ele>578.0</ele><time>2026-03-26T17:02:00Z</time></trkpt><trkpt lat="43.997888523965216" lon="7.99252771596521"><ele>576.1999999999999</ele><time>2026-03-26T17:02:02Z</time></trkpt><trkpt lat="43.997833212367546" lon="7.992371009774951"><ele>574.4</ele><time>2026-03-26T17:02:04Z</time></trkpt><trkpt lat="43.997774559498794" lon="7.992303233984988"><ele>572.5999999999999</ele><time>2026-03-26T17:02:05Z</time></trkpt><trkpt lat="43.99770732932564" lon="7.992204866905211"><ele>570.8</ele><time>2026-03-26T17:02:07Z</time></trkpt><trkpt lat="43.99771316321961" lon="7.9920482668709365"><ele>569.0</ele><time>2026-03-26T17:02:09Z</time></trkpt><trkpt lat="43.99770940081104" lon="7.991913091191443"><ele>569.0</ele><time>2026-03-26T17:02:10Z</time></trkpt><trkpt lat="43.99772170791201" lon="7.991757106619843"><ele>569.0</ele><time>2026-03-26T17:02:11Z</time></trkpt><trkpt lat="43.9977583324127" lon="7.991576495351591"><ele>569.0</ele><time>2026-03-26T17:02:12Z</time></trkpt><trkpt lat="43.9977787839406" lon="7.991396509351204"><ele>569.0</ele><time>2026-03-26T17:02:13Z</time></trkpt><trkpt lat="43.997797562925435" lon="7.991257781248835"><ele>567.4</ele><time>2026-03-26T17:02:14Z</time></trkpt><trkpt lat="43.99781002331394" lon="7.991135683329544"><ele>565.8</ele><time>2026-03-26T17:02:15Z</time></trkpt><trkpt lat="43.9978197861371" lon="7.9910292277130335"><ele>564.2</ele><time>2026-03-26T17:02:16Z</time></trkpt><trkpt lat="43.99782273770232" lon="7.990895224183214"><ele>562.6</ele><time>2026-03-26T17:02:18Z</time></trkpt><trkpt lat="43.99780966704188" lon="7.990778232313056"><ele>561.0</ele><time>2026-03-26T17:02:19Z</time></trkpt><trkpt lat="43.99781236583111" lon="7.9906094030362835"><ele>559.8</ele><time>2026-03-26T17:02:21Z</time></trkpt><trkpt lat="43.99785060209311" lon="7.990468474570751"><ele>558.6</ele><time>2026-03-26T17:02:22Z</time></trkpt><trkpt lat="43.99788536251378" lon="7.990326343706745"><ele>557.4</ele><time>2026-03-26T17:02:23Z</time></trkpt><trkpt lat="43.99794023853357" lon="7.990251730418641"><ele>556.2</ele><time>2026-03-26T17:02:24Z</time></trkpt><trkpt lat="43.99803763376936" lon="7.990157946209978"><ele>555.0</ele><time>2026-03-26T17:02:25Z</time></trkpt><trkpt lat="43.99812734060606" lon="7.990053876940335"><ele>555.6666666666666</ele><time>2026-03-26T17:02:26Z</time></trkpt><trkpt lat="43.99819083149632" lon="7.989971662166324"><ele>556.3333333333334</ele><time>2026-03-26T17:02:27Z</time></trkpt><trkpt lat="43.998245678941814" lon="7.989898266409399"><ele>557.0</ele><time>2026-03-26T17:02:28Z</time></trkpt><trkpt lat="43.99831948379734" lon="7.989829523023368"><ele>557.6666666666667</ele><time>2026-03-26T17:02:29Z</time></trkpt><trkpt lat="43.99838288125954" lon="7.989798616840782"><ele>558.3333333333334</ele><time>2026-03-26T17:02:30Z</time></trkpt><trkpt lat="43.99847385530122" lon="7.989776950802876"><ele>559.0</ele><time>2026-03-26T17:02:31Z</time></trkpt><trkpt lat="43.9985300711213" lon="7.989730239155633"><ele>559.4</ele><time>2026-03-26T17:02:32Z</time></trkpt><trkpt lat="43.99852163625516" lon="7.989642377825163"><ele>559.8</ele><time>2026-03-26T17:02:33Z</time></trkpt><trkpt lat="43.99847048896659" lon="7.989529201069946"><ele>560.2</ele><time>2026-03-26T17:02:34Z</time></trkpt><trkpt lat="43.99841788658788" lon="7.989375883003015"><ele>560.6</ele><time>2026-03-26T17:02:35Z</time></trkpt><trkpt lat="43.998363331555936" lon="7.989194469925961"><ele>561.0</ele><time>2026-03-26T17:02:36Z</time></trkpt><trkpt lat="43.998292814632485" lon="7.988988354386921"><ele>561.0</ele><time>2026-03-26T17:02:37Z</time></trkpt><trkpt lat="43.998241134388415" lon="7.988744555788215"><ele>561.0</ele><time>2026-03-26T17:02:38Z</time></trkpt><trkpt lat="43.99824639985917" lon="7.988626095346667"><ele>561.0</ele><time>2026-03-26T17:02:39Z</time></trkpt><trkpt lat="43.99820406611248" lon="7.988529887562247"><ele>561.0</ele><time>2026-03-26T17:02:40Z</time></trkpt><trkpt lat="43.99812584557049" lon="7.988550919602064"><ele>561.0</ele><time>2026-03-26T17:02:41Z</time></trkpt><trkpt lat="43.998075276509944" lon="7.988412632033693"><ele>558.25</ele><time>2026-03-26T17:02:42Z</time></trkpt><trkpt lat="43.998047939469224" lon="7.988286174052781"><ele>555.5</ele><time>2026-03-26T17:02:43Z</time></trkpt><trkpt lat="43.99795596992146" lon="7.988102673494084"><ele>552.75</ele><time>2026-03-26T17:02:44Z</time></trkpt><trkpt lat="43.99790034696318" lon="7.987923356667358"><ele>550.0</ele><time>2026-03-26T17:02:45Z</time></trkpt><trkpt lat="43.997835317053585" lon="7.987786431066059"><ele>550.0</ele><time>2026-03-26T17:02:46Z</time></trkpt><trkpt lat="43.99775091978268" lon="7.987695602964339"><ele>550.0</ele><time>2026-03-26T17:02:47Z</time></trkpt><trkpt lat="43.997728045822996" lon="7.98752563454849"><ele>550.0</ele><time>2026-03-26T17:02:48Z</time></trkpt><trkpt lat="43.99769243445005" lon="7.987418542105137"><ele>550.0</ele><time>2026-03-26T17:02:49Z</time></trkpt><trkpt lat="43.99765791012405" lon="7.987285535019987"><ele>550.0</ele><time>2026-03-26T17:02:50Z</time></trkpt><trkpt lat="43.99757905276032" lon="7.987211856502732"><ele>552.2</ele><time>2026-03-26T17:02:51Z</time></trkpt><trkpt lat="43.997501195667404" lon="7.9871325034862615"><ele>554.4</ele><time>2026-03-26T17:02:52Z</time></trkpt><trkpt lat="43.99741793431339" lon="7.987019114822586"><ele>556.6</ele><time>2026-03-26T17:02:53Z</time></trkpt><trkpt lat="43.99734073222681" lon="7.986932271810544"><ele>558.8</ele><time>2026-03-26T17:02:54Z</time></trkpt><trkpt lat="43.99724714154104" lon="7.9868585637110225"><ele>561.0</ele><time>2026-03-26T17:02:55Z</time></trkpt><trkpt lat="43.99715308410136" lon="7.986798704350674"><ele>561.0</ele><time>2026-03-26T17:02:56Z</time></trkpt><trkpt lat="43.997103030416824" lon="7.986745173374632"><ele>561.0</ele><time>2026-03-26T17:02:57Z</time></trkpt><trkpt lat="43.997078112962924" lon="7.986592421686772"><ele>561.0</ele><time>2026-03-26T17:02:59Z</time></trkpt><trkpt lat="43.99709590457678" lon="7.986508128871407"><ele>561.0</ele><time>2026-03-26T17:03:00Z</time></trkpt><trkpt lat="43.99712886808389" lon="7.986402694553481"><ele>561.0</ele><time>2026-03-26T17:03:01Z</time></trkpt><trkpt lat="43.99715878909869" lon="7.986289071968266"><ele>561.0</ele><time>2026-03-26T17:03:02Z</time></trkpt><trkpt lat="43.997171539763976" lon="7.986185813704029"><ele>559.0</ele><time>2026-03-26T17:03:03Z</time></trkpt><trkpt lat="43.997176644927514" lon="7.986072486827863"><ele>557.0</ele><time>2026-03-26T17:03:04Z</time></trkpt><trkpt lat="43.997189414841806" lon="7.98598642857537"><ele>555.0</ele><time>2026-03-26T17:03:05Z</time></trkpt><trkpt lat="43.99718690874287" lon="7.985893806314348"><ele>553.0</ele><time>2026-03-26T17:03:07Z</time></trkpt><trkpt lat="43.997123527768295" lon="7.9858469771495635"><ele>551.0</ele><time>2026-03-26T17:03:09Z</time></trkpt><trkpt lat="43.99706656052358" lon="7.985807792588371"><ele>549.0</ele><time>2026-03-26T17:03:11Z</time></trkpt><trkpt lat="43.99701091633469" lon="7.9857366945894634"><ele>547.0</ele><time>2026-03-26T17:03:12Z</time></trkpt><trkpt lat="43.996970534667476" lon="7.985635269640592"><ele>543.8000000000001</ele><time>2026-03-26T17:03:13Z</time></trkpt><trkpt lat="43.996927852121516" lon="7.985514064613354"><ele>540.6</ele><time>2026-03-26T17:03:14Z</time></trkpt><trkpt lat="43.9968826942927" lon="7.9853897848922175"><ele>537.4000000000001</ele><time>2026-03-26T17:03:15Z</time></trkpt><trkpt lat="43.996841907596256" lon="7.985294632649196"><ele>534.2</ele><time>2026-03-26T17:03:16Z</time></trkpt><trkpt lat="43.996778182754944" lon="7.9851682837180284"><ele>531.0</ele><time>2026-03-26T17:03:18Z</time></trkpt><trkpt lat="43.99672561216167" lon="7.985101810373893"><ele>534.25</ele><time>2026-03-26T17:03:20Z</time></trkpt><trkpt lat="43.996672051596526" lon="7.98497864080889"><ele>537.5</ele><time>2026-03-26T17:03:22Z</time></trkpt><trkpt lat="43.99666120499327" lon="7.984792873436315"><ele>540.75</ele><time>2026-03-26T17:03:24Z</time></trkpt><trkpt lat="43.996643210065926" lon="7.98460861043756"><ele>544.0</ele><time>2026-03-26T17:03:25Z</time></trkpt><trkpt lat="43.99661840003363" lon="7.984417993096383"><ele>544.0</ele><time>2026-03-26T17:03:26Z</time></trkpt><trkpt lat="43.99659009625857" lon="7.984261379394146"><ele>544.0</ele><time>2026-03-26T17:03:27Z</time></trkpt><trkpt lat="43.99655598195191" lon="7.9841641915257835"><ele>544.0</ele><time>2026-03-26T17:03:28Z</time></trkpt><trkpt lat="43.99650340017221" lon="7.9840930840921365"><ele>544.0</ele><time>2026-03-26T17:03:29Z</time></trkpt><trkpt lat="43.99640897638907" lon="7.984014441324892"><ele>544.0</ele><time>2026-03-26T17:03:30Z</time></trkpt><trkpt lat="43.99631664591966" lon="7.9839603672877475"><ele>542.6</ele><time>2026-03-26T17:03:31Z</time></trkpt><trkpt lat="43.996221388657005" lon="7.983927560122895"><ele>541.2</ele><time>2026-03-26T17:03:32Z</time></trkpt><trkpt lat="43.996128834792856" lon="7.983924270215451"><ele>539.8000000000001</ele><time>2026-03-26T17:03:33Z</time></trkpt><trkpt lat="43.99601605701591" lon="7.9839783152268415"><ele>538.4</ele><time>2026-03-26T17:03:34Z</time></trkpt><trkpt lat="43.99589594983938" lon="7.98404986160592"><ele>537.0</ele><time>2026-03-26T17:03:35Z</time></trkpt><trkpt lat="43.99579480347594" lon="7.984103278076921"><ele>537.0</ele><time>2026-03-26T17:03:36Z</time></trkpt><trkpt lat="43.99572694454018" lon="7.984161819012263"><ele>537.0</ele><time>2026-03-26T17:03:37Z</time></trkpt><trkpt lat="43.99567215764091" lon="7.9842424010986015"><ele>537.0</ele><time>2026-03-26T17:03:38Z</time></trkpt><trkpt lat="43.99564673030226" lon="7.984329557883226"><ele>537.0</ele><time>2026-03-26T17:03:39Z</time></trkpt><trkpt lat="43.99557903162011" lon="7.984409022097047"><ele>537.0</ele><time>2026-03-26T17:03:41Z</time></trkpt><trkpt lat="43.99547953266881" lon="7.984354945104582"><ele>537.0</ele><time>2026-03-26T17:03:43Z</time></trkpt><trkpt lat="43.99541409057189" lon="7.984302806355315"><ele>537.0</ele><time>2026-03-26T17:03:44Z</time></trkpt><trkpt lat="43.99533703847863" lon="7.98423388909202"><ele>537.0</ele><time>2026-03-26T17:03:45Z</time></trkpt><trkpt lat="43.9952441365522" lon="7.984143426902282"><ele>537.0</ele><time>2026-03-26T17:03:46Z</time></trkpt><trkpt lat="43.99512660731076" lon="7.9840375389891785"><ele>537.0</ele><time>2026-03-26T17:03:47Z</time></trkpt><trkpt lat="43.99503792679966" lon="7.983969519192542"><ele>537.0</ele><time>2026-03-26T17:03:48Z</time></trkpt><trkpt lat="43.99491627951192" lon="7.984027278830941"><ele>537.25</ele><time>2026-03-26T17:03:50Z</time></trkpt><trkpt lat="43.99480791740698" lon="7.984093600130152"><ele>537.5</ele><time>2026-03-26T17:03:51Z</time></trkpt><trkpt lat="43.994715569012314" lon="7.984170228216689"><ele>537.75</ele><time>2026-03-26T17:03:52Z</time></trkpt><trkpt lat="43.99461968679702" lon="7.984200060827274"><ele>538.0</ele><time>2026-03-26T17:03:54Z</time></trkpt><trkpt lat="43.99451358033865" lon="7.984079901004251"><ele>538.0</ele><time>2026-03-26T17:03:56Z</time></trkpt><trkpt lat="43.99441647399688" lon="7.983977409203873"><ele>538.0</ele><time>2026-03-26T17:03:57Z</time></trkpt><trkpt lat="43.99432374013356" lon="7.983867863880575"><ele>538.0</ele><time>2026-03-26T17:03:58Z</time></trkpt><trkpt lat="43.99424251436158" lon="7.983788833129312"><ele>538.0</ele><time>2026-03-26T17:03:59Z</time></trkpt><trkpt lat="43.994152833117255" lon="7.983696219481549"><ele>539.0</ele><time>2026-03-26T17:04:00Z</time></trkpt><trkpt lat="43.9940727886631" lon="7.98364480480446"><ele>540.0</ele><time>2026-03-26T17:04:01Z</time></trkpt><trkpt lat="43.99399586138396" lon="7.983632892675803"><ele>541.0</ele><time>2026-03-26T17:04:02Z</time></trkpt><trkpt lat="43.993901990034296" lon="7.983628878672751"><ele>542.0</ele><time>2026-03-26T17:04:03Z</time></trkpt><trkpt lat="43.9937926376601" lon="7.983645630170695"><ele>543.0</ele><time>2026-03-26T17:04:04Z</time></trkpt><trkpt lat="43.99371462926386" lon="7.9836302116631765"><ele>544.0</ele><time>2026-03-26T17:04:05Z</time></trkpt><trkpt lat="43.99362740746172" lon="7.98358153305289"><ele>544.0</ele><time>2026-03-26T17:04:06Z</time></trkpt><trkpt lat="43.993556422197344" lon="7.983536092329508"><ele>544.0</ele><time>2026-03-26T17:04:07Z</time></trkpt><trkpt lat="43.993510506415504" lon="7.983455750616226"><ele>544.0</ele><time>2026-03-26T17:04:09Z</time></trkpt><trkpt lat="43.99352515063664" lon="7.98331106100163"><ele>544.0</ele><time>2026-03-26T17:04:11Z</time></trkpt><trkpt lat="43.99352721058822" lon="7.983173353951674"><ele>544.0</ele><time>2026-03-26T17:04:12Z</time></trkpt><trkpt lat="43.993521448421006" lon="7.983004885154963"><ele>538.75</ele><time>2026-03-26T17:04:13Z</time></trkpt><trkpt lat="43.993522976289434" lon="7.982831634420975"><ele>533.5</ele><time>2026-03-26T17:04:14Z</time></trkpt><trkpt lat="43.99353166399843" lon="7.982657069778997"><ele>528.25</ele><time>2026-03-26T17:04:15Z</time></trkpt><trkpt lat="43.99354823850292" lon="7.982474597871769"><ele>523.0</ele><time>2026-03-26T17:04:16Z</time></trkpt><trkpt lat="43.993559512624714" lon="7.982288557726324"><ele>520.1999999999999</ele><time>2026-03-26T17:04:17Z</time></trkpt><trkpt lat="43.99356964678413" lon="7.982152282189939"><ele>517.4</ele><time>2026-03-26T17:04:18Z</time></trkpt><trkpt lat="43.99355981499024" lon="7.982051458357798"><ele>514.5999999999999</ele><time>2026-03-26T17:04:19Z</time></trkpt><trkpt lat="43.99350990605956" lon="7.981942933686705"><ele>511.79999999999995</ele><time>2026-03-26T17:04:20Z</time></trkpt><trkpt lat="43.993458591418246" lon="7.981833664092034"><ele>509.0</ele><time>2026-03-26T17:04:21Z</time></trkpt><trkpt lat="43.99335805852084" lon="7.981813567292565"><ele>514.2</ele><time>2026-03-26T17:04:23Z</time></trkpt><trkpt lat="43.993260248904534" lon="7.98193379025979"><ele>519.4</ele><time>2026-03-26T17:04:25Z</time></trkpt><trkpt lat="43.993200573756624" lon="7.982028181665646"><ele>524.6</ele><time>2026-03-26T17:04:26Z</time></trkpt><trkpt lat="43.993132783362604" lon="7.982155838853914"><ele>529.8</ele><time>2026-03-26T17:04:27Z</time></trkpt><trkpt lat="43.99308371224395" lon="7.9822730775867825"><ele>535.0</ele><time>2026-03-26T17:04:28Z</time></trkpt><trkpt lat="43.993033297369394" lon="7.982337551212869"><ele>535.0</ele><time>2026-03-26T17:04:30Z</time></trkpt><trkpt lat="43.99313146158289" lon="7.982190248982723"><ele>535.0</ele><time>2026-03-26T17:04:46Z</time></trkpt><trkpt lat="43.99308053974009" lon="7.982272246849598"><ele>535.0</ele><time>2026-03-26T17:06:00Z</time></trkpt><trkpt lat="43.993115371057094" lon="7.982378195112297"><ele>535.0</ele><time>2026-03-26T17:06:04Z</time></trkpt><trkpt lat="43.99302786848962" lon="7.982510663616265"><ele>535.0</ele><time>2026-03-26T17:06:07Z</time></trkpt><trkpt lat="43.992994890531506" lon="7.982607415439995"><ele>536.5</ele><time>2026-03-26T17:06:08Z</time></trkpt><trkpt lat="43.99293976324312" lon="7.982686468287574"><ele>538.0</ele><time>2026-03-26T17:06:09Z</time></trkpt><trkpt lat="43.992873068853285" lon="7.982732999852912"><ele>539.5</ele><time>2026-03-26T17:06:10Z</time></trkpt><trkpt lat="43.99279975095243" lon="7.982725827097124"><ele>541.0</ele><time>2026-03-26T17:06:11Z</time></trkpt><trkpt lat="43.99272486103023" lon="7.982696070938144"><ele>542.5</ele><time>2026-03-26T17:06:12Z</time></trkpt><trkpt lat="43.99265172059133" lon="7.982665133675283"><ele>544.0</ele><time>2026-03-26T17:06:13Z</time></trkpt><trkpt lat="43.99258402206042" lon="7.98262788307382"><ele>544.0</ele><time>2026-03-26T17:06:14Z</time></trkpt><trkpt lat="43.99251886640433" lon="7.982636807077411"><ele>544.0</ele><time>2026-03-26T17:06:16Z</time></trkpt><trkpt lat="43.992541366686226" lon="7.982777554183021"><ele>544.0</ele><time>2026-03-26T17:06:18Z</time></trkpt><trkpt lat="43.992603614200625" lon="7.982874099902528"><ele>544.0</ele><time>2026-03-26T17:06:19Z</time></trkpt><trkpt lat="43.99268961267109" lon="7.9829797616210545"><ele>544.0</ele><time>2026-03-26T17:06:20Z</time></trkpt><trkpt lat="43.99278790463816" lon="7.983098931198332"><ele>544.0</ele><time>2026-03-26T17:06:21Z</time></trkpt><trkpt lat="43.99289470943546" lon="7.983196718459648"><ele>544.0</ele><time>2026-03-26T17:06:22Z</time></trkpt><trkpt lat="43.993000789696985" lon="7.983273875886573"><ele>544.0</ele><time>2026-03-26T17:06:23Z</time></trkpt><trkpt lat="43.99308896580812" lon="7.983323596668056"><ele>544.0</ele><time>2026-03-26T17:06:24Z</time></trkpt><trkpt lat="43.99317152743085" lon="7.983455168386645"><ele>547.0</ele><time>2026-03-26T17:06:26Z</time></trkpt><trkpt lat="43.993105993906624" lon="7.98361915445142"><ele>550.0</ele><time>2026-03-26T17:06:28Z</time></trkpt><trkpt lat="43.99304263933491" lon="7.983698855490156"><ele>553.0</ele><time>2026-03-26T17:06:29Z</time></trkpt><trkpt lat="43.99298108608334" lon="7.9837678239569"><ele>556.0</ele><time>2026-03-26T17:06:30Z</time></trkpt><trkpt lat="43.99293850715159" lon="7.983866173714868"><ele>559.0</ele><time>2026-03-26T17:06:31Z</time></trkpt><trkpt lat="43.99291935191312" lon="7.9839617738213144"><ele>559.0</ele><time>2026-03-26T17:06:32Z</time></trkpt><trkpt lat="43.992939187788004" lon="7.9840699628288245"><ele>559.0</ele><time>2026-03-26T17:06:33Z</time></trkpt><trkpt lat="43.99299110503465" lon="7.984194766955174"><ele>559.0</ele><time>2026-03-26T17:06:34Z</time></trkpt><trkpt lat="43.99305295278495" lon="7.984305451500024"><ele>559.0</ele><time>2026-03-26T17:06:35Z</time></trkpt><trkpt lat="43.99310344183403" lon="7.984416500023062"><ele>559.0</ele><time>2026-03-26T17:06:36Z</time></trkpt><trkpt lat="43.993133253610196" lon="7.984534971454047"><ele>562.0</ele><time>2026-03-26T17:06:37Z</time></trkpt><trkpt lat="43.993137311985535" lon="7.984678696686997"><ele>565.0</ele><time>2026-03-26T17:06:39Z</time></trkpt><trkpt lat="43.99316506376504" lon="7.984761204061834"><ele>568.0</ele><time>2026-03-26T17:06:40Z</time></trkpt><trkpt lat="43.99321578117801" lon="7.984854256983831"><ele>571.0</ele><time>2026-03-26T17:06:41Z</time></trkpt><trkpt lat="43.99327077819341" lon="7.9849436502080815"><ele>574.0</ele><time>2026-03-26T17:06:42Z</time></trkpt><trkpt lat="43.99330930640722" lon="7.985053167323997"><ele>577.0</ele><time>2026-03-26T17:06:43Z</time></trkpt><trkpt lat="43.993359713665406" lon="7.985173710752411"><ele>577.2</ele><time>2026-03-26T17:06:44Z</time></trkpt><trkpt lat="43.99341434472557" lon="7.985301287985787"><ele>577.4000000000001</ele><time>2026-03-26T17:06:45Z</time></trkpt><trkpt lat="43.99345921143035" lon="7.9854094902433665"><ele>577.5999999999999</ele><time>2026-03-26T17:06:46Z</time></trkpt><trkpt lat="43.99349905716014" lon="7.985499462853326"><ele>577.8</ele><time>2026-03-26T17:06:47Z</time></trkpt><trkpt lat="43.993599694660375" lon="7.985591918316232"><ele>578.0</ele><time>2026-03-26T17:06:49Z</time></trkpt><trkpt lat="43.99367350749006" lon="7.985615769591698"><ele>578.0</ele><time>2026-03-26T17:06:50Z</time></trkpt><trkpt lat="43.993738907389755" lon="7.9856630090728835"><ele>578.0</ele><time>2026-03-26T17:06:51Z</time></trkpt><trkpt lat="43.99379206637069" lon="7.985734849091308"><ele>578.0</ele><time>2026-03-26T17:06:52Z</time></trkpt><trkpt lat="43.99382814545376" lon="7.985835389989958"><ele>578.0</ele><time>2026-03-26T17:06:53Z</time></trkpt><trkpt lat="43.993867030481454" lon="7.985946700353597"><ele>578.0</ele><time>2026-03-26T17:06:54Z</time></trkpt><trkpt lat="43.99392083780218" lon="7.986062661190471"><ele>578.0</ele><time>2026-03-26T17:06:55Z</time></trkpt><trkpt lat="43.993991814025335" lon="7.9861869198885005"><ele>579.1999999999999</ele><time>2026-03-26T17:06:56Z</time></trkpt><trkpt lat="43.99405913992167" lon="7.9863323069664345"><ele>580.4</ele><time>2026-03-26T17:06:57Z</time></trkpt><trkpt lat="43.99410646241275" lon="7.9864669481599755"><ele>581.5999999999999</ele><time>2026-03-26T17:06:58Z</time></trkpt><trkpt lat="43.99416762387536" lon="7.986551114565663"><ele>582.8</ele><time>2026-03-26T17:06:59Z</time></trkpt><trkpt lat="43.99425070571149" lon="7.98661710882602"><ele>584.0</ele><time>2026-03-26T17:07:00Z</time></trkpt><trkpt lat="43.99433653566323" lon="7.986685057255119"><ele>586.8333333333333</ele><time>2026-03-26T17:07:01Z</time></trkpt><trkpt lat="43.99441327962841" lon="7.986767198015014"><ele>589.6666666666666</ele><time>2026-03-26T17:07:02Z</time></trkpt><trkpt lat="43.99447222107114" lon="7.986862131321876"><ele>592.5</ele><time>2026-03-26T17:07:03Z</time></trkpt><trkpt lat="43.99450296834151" lon="7.986947907564723"><ele>595.3333333333334</ele><time>2026-03-26T17:07:05Z</time></trkpt><trkpt lat="43.99453391118104" lon="7.987051199284583"><ele>598.1666666666667</ele><time>2026-03-26T17:07:29Z</time></trkpt><trkpt lat="43.9945509043825" lon="7.987141885201362"><ele>601.0</ele><time>2026-03-26T17:07:30Z</time></trkpt><trkpt lat="43.994601441184855" lon="7.987245103551174"><ele>601.0</ele><time>2026-03-26T17:07:31Z</time></trkpt><trkpt lat="43.99466985698691" lon="7.987363040484906"><ele>601.0</ele><time>2026-03-26T17:07:32Z</time></trkpt><trkpt lat="43.99473762896743" lon="7.9874971807054616"><ele>601.0</ele><time>2026-03-26T17:07:33Z</time></trkpt><trkpt lat="43.99478820967183" lon="7.987632922591012"><ele>601.0</ele><time>2026-03-26T17:07:34Z</time></trkpt><trkpt lat="43.99482611839017" lon="7.987777454542574"><ele>601.0</ele><time>2026-03-26T17:07:35Z</time></trkpt><trkpt lat="43.99487529799178" lon="7.987922579469533"><ele>603.2</ele><time>2026-03-26T17:07:36Z</time></trkpt><trkpt lat="43.99492826349936" lon="7.988057068172854"><ele>605.4000000000001</ele><time>2026-03-26T17:07:37Z</time></trkpt><trkpt lat="43.9949966395749" lon="7.988140332079054"><ele>607.6</ele><time>2026-03-26T17:07:38Z</time></trkpt><trkpt lat="43.995076992830484" lon="7.988232712372168"><ele>609.8000000000001</ele><time>2026-03-26T17:07:40Z</time></trkpt><trkpt lat="43.99517726575421" lon="7.988253156291002"><ele>612.0</ele><time>2026-03-26T17:07:41Z</time></trkpt><trkpt lat="43.99527428740672" lon="7.98830642749323"><ele>612.0</ele><time>2026-03-26T17:07:42Z</time></trkpt><trkpt lat="43.9953463536566" lon="7.988321726850088"><ele>612.0</ele><time>2026-03-26T17:07:43Z</time></trkpt><trkpt lat="43.995412867700644" lon="7.988292568199637"><ele>612.0</ele><time>2026-03-26T17:07:44Z</time></trkpt><trkpt lat="43.99548207595198" lon="7.9882618619236645"><ele>612.0</ele><time>2026-03-26T17:07:45Z</time></trkpt><trkpt lat="43.99556449036426" lon="7.988243536830907"><ele>612.0</ele><time>2026-03-26T17:07:46Z</time></trkpt><trkpt lat="43.995654548885895" lon="7.9883114703778695"><ele>612.0</ele><time>2026-03-26T17:07:48Z</time></trkpt><trkpt lat="43.99568938643649" lon="7.988409693081936"><ele>612.1666666666666</ele><time>2026-03-26T17:07:49Z</time></trkpt><trkpt lat="43.995706770868175" lon="7.988526829859147"><ele>612.3333333333334</ele><time>2026-03-26T17:07:50Z</time></trkpt><trkpt lat="43.99570163037903" lon="7.988676994296537"><ele>612.5</ele><time>2026-03-26T17:07:51Z</time></trkpt><trkpt lat="43.99569086655513" lon="7.988801664273737"><ele>612.6666666666667</ele><time>2026-03-26T17:07:52Z</time></trkpt><trkpt lat="43.99572407093386" lon="7.988876351032933"><ele>612.8333333333334</ele><time>2026-03-26T17:07:53Z</time></trkpt><trkpt lat="43.99579553070322" lon="7.988915870549698"><ele>613.0</ele><time>2026-03-26T17:07:54Z</time></trkpt><trkpt lat="43.99587553352729" lon="7.9889570964815"><ele>613.0</ele><time>2026-03-26T17:07:55Z</time></trkpt><trkpt lat="43.995946954105335" lon="7.988987766922002"><ele>613.0</ele><time>2026-03-26T17:07:56Z</time></trkpt><trkpt lat="43.99602389043728" lon="7.989106821816378"><ele>613.0</ele><time>2026-03-26T17:07:57Z</time></trkpt><trkpt lat="43.9960125935419" lon="7.9892581484524925"><ele>613.0</ele><time>2026-03-26T17:07:58Z</time></trkpt><trkpt lat="43.996024882489735" lon="7.989393150131642"><ele>613.0</ele><time>2026-03-26T17:07:59Z</time></trkpt><trkpt lat="43.99606851006446" lon="7.989502008439384"><ele>613.8333333333334</ele><time>2026-03-26T17:08:00Z</time></trkpt><trkpt lat="43.996066144043574" lon="7.989640332374012"><ele>614.6666666666667</ele><time>2026-03-26T17:08:02Z</time></trkpt><trkpt lat="43.996020884878035" lon="7.98976735441674"><ele>615.5</ele><time>2026-03-26T17:08:04Z</time></trkpt><trkpt lat="43.99597417092037" lon="7.989850832749766"><ele>616.3333333333334</ele><time>2026-03-26T17:08:05Z</time></trkpt><trkpt lat="43.9959362497005" lon="7.989930588782302"><ele>617.1666666666666</ele><time>2026-03-26T17:08:06Z</time></trkpt><trkpt lat="43.99592318236961" lon="7.990032697917054"><ele>618.0</ele><time>2026-03-26T17:08:07Z</time></trkpt><trkpt lat="43.99590816703005" lon="7.990144001230713"><ele>618.0</ele><time>2026-03-26T17:08:08Z</time></trkpt><trkpt lat="43.99588079890343" lon="7.990284078219899"><ele>618.0</ele><time>2026-03-26T17:08:09Z</time></trkpt><trkpt lat="43.99584659459374" lon="7.990458261541621"><ele>618.0</ele><time>2026-03-26T17:08:10Z</time></trkpt><trkpt lat="43.9958079187565" lon="7.990670388429425"><ele>618.0</ele><time>2026-03-26T17:08:11Z</time></trkpt><trkpt lat="43.995756976707355" lon="7.990858171830084"><ele>619.5</ele><time>2026-03-26T17:08:12Z</time></trkpt><trkpt lat="43.99571743938803" lon="7.990970792127628"><ele>621.0</ele><time>2026-03-26T17:08:13Z</time></trkpt><trkpt lat="43.99568170364148" lon="7.991096497654282"><ele>622.5</ele><time>2026-03-26T17:08:14Z</time></trkpt><trkpt lat="43.99565491638861" lon="7.991176068911435"><ele>624.0</ele><time>2026-03-26T17:08:15Z</time></trkpt><trkpt lat="43.995627277685884" lon="7.991312865943541"><ele>625.5</ele><time>2026-03-26T17:08:17Z</time></trkpt><trkpt lat="43.9956157406702" lon="7.991405060252695"><ele>627.0</ele><time>2026-03-26T17:08:20Z</time></trkpt><trkpt lat="43.99562858400713" lon="7.991496845765965"><ele>627.0</ele><time>2026-03-26T17:08:22Z</time></trkpt><trkpt lat="43.99564784668824" lon="7.991604484513359"><ele>627.0</ele><time>2026-03-26T17:08:23Z</time></trkpt><trkpt lat="43.99565686184299" lon="7.991717917610705"><ele>627.0</ele><time>2026-03-26T17:08:24Z</time></trkpt><trkpt lat="43.9956226179303" lon="7.991818076201658"><ele>627.0</ele><time>2026-03-26T17:08:26Z</time></trkpt><trkpt lat="43.99561320743557" lon="7.991908453122469"><ele>627.0</ele><time>2026-03-26T17:08:28Z</time></trkpt><trkpt lat="43.995635369357466" lon="7.991800445030369"><ele>627.0</ele><time>2026-03-26T17:08:31Z</time></trkpt><trkpt lat="43.99563206338366" lon="7.9916785622560385"><ele>627.0</ele><time>2026-03-26T17:08:32Z</time></trkpt><trkpt lat="43.99563080746075" lon="7.991560553571454"><ele>627.0</ele><time>2026-03-26T17:08:33Z</time></trkpt><trkpt lat="43.995607182460475" lon="7.991390355108914"><ele>627.0</ele><time>2026-03-26T17:08:35Z</time></trkpt><trkpt lat="43.995606825961254" lon="7.9912738380826145"><ele>627.0</ele><time>2026-03-26T17:08:37Z</time></trkpt><trkpt lat="43.99563609053488" lon="7.99118607649982"><ele>627.0</ele><time>2026-03-26T17:08:39Z</time></trkpt><trkpt lat="43.99567443690439" lon="7.991073103035626"><ele>627.0</ele><time>2026-03-26T17:08:41Z</time></trkpt><trkpt lat="43.995711961606894" lon="7.990955319771431"><ele>627.0</ele><time>2026-03-26T17:08:44Z</time></trkpt><trkpt lat="43.99572410919818" lon="7.990835388603552"><ele>627.0</ele><time>2026-03-26T17:08:46Z</time></trkpt><trkpt lat="43.99574701907929" lon="7.990670842682661"><ele>627.0</ele><time>2026-03-26T17:08:48Z</time></trkpt><trkpt lat="43.995764971746624" lon="7.990568702818719"><ele>627.0</ele><time>2026-03-26T17:08:49Z</time></trkpt><trkpt lat="43.995790232157205" lon="7.990470142751241"><ele>627.0</ele><time>2026-03-26T17:08:50Z</time></trkpt><trkpt lat="43.995833327444664" lon="7.990359573741189"><ele>627.0</ele><time>2026-03-26T17:08:52Z</time></trkpt><trkpt lat="43.995775278322206" lon="7.9904887009877585"><ele>627.0</ele><time>2026-03-26T17:08:57Z</time></trkpt><trkpt lat="43.99575784998799" lon="7.990645077554054"><ele>627.0</ele><time>2026-03-26T17:08:59Z</time></trkpt><trkpt lat="43.99572897012738" lon="7.990749446139729"><ele>627.0</ele><time>2026-03-26T17:09:01Z</time></trkpt><trkpt lat="43.99570145749347" lon="7.990880051152983"><ele>627.0</ele><time>2026-03-26T17:09:04Z</time></trkpt><trkpt lat="43.995667515813444" lon="7.991012584051887"><ele>627.0</ele><time>2026-03-26T17:09:07Z</time></trkpt><trkpt lat="43.99564927837127" lon="7.991099619358964"><ele>627.0</ele><time>2026-03-26T17:09:09Z</time></trkpt><trkpt lat="43.99564058444433" lon="7.991189610304815"><ele>627.0</ele><time>2026-03-26T17:09:11Z</time></trkpt><trkpt lat="43.99561335445372" lon="7.9912843123056785"><ele>627.0</ele><time>2026-03-26T17:09:14Z</time></trkpt><trkpt lat="43.995544641758784" lon="7.991229131712656"><ele>627.0</ele><time>2026-03-26T17:09:21Z</time></trkpt><trkpt lat="43.99556223072986" lon="7.991126992452244"><ele>627.0</ele><time>2026-03-26T17:09:25Z</time></trkpt><trkpt lat="43.99557032133139" lon="7.9910211039741315"><ele>627.0</ele><time>2026-03-26T17:09:28Z</time></trkpt><trkpt lat="43.995536110088395" lon="7.99090545284746"><ele>627.0</ele><time>2026-03-26T17:09:31Z</time></trkpt><trkpt lat="43.995496544405526" lon="7.990829707349963"><ele>627.0</ele><time>2026-03-26T17:09:35Z</time></trkpt><trkpt lat="43.99541936962989" lon="7.990789001137589"><ele>627.0</ele><time>2026-03-26T17:09:38Z</time></trkpt><trkpt lat="43.995358780376435" lon="7.990749938828836"><ele>627.0</ele><time>2026-03-26T17:10:11Z</time></trkpt><trkpt lat="43.99535236185519" lon="7.99066094675821"><ele>627.0</ele><time>2026-03-26T17:10:13Z</time></trkpt><trkpt lat="43.99540531401231" lon="7.990520864184781"><ele>627.6666666666666</ele><time>2026-03-26T17:10:17Z</time></trkpt><trkpt lat="43.99545715335631" lon="7.990446985987945"><ele>628.3333333333334</ele><time>2026-03-26T17:10:19Z</time></trkpt><trkpt lat="43.995445388419284" lon="7.990355027099079"><ele>629.0</ele><time>2026-03-26T17:10:22Z</time></trkpt><trkpt lat="43.995385882792974" lon="7.99024994303775"><ele>629.6666666666667</ele><time>2026-03-26T17:10:25Z</time></trkpt><trkpt lat="43.99533657328015" lon="7.990308579519714"><ele>630.3333333333334</ele><time>2026-03-26T17:10:28Z</time></trkpt><trkpt lat="43.99536356396477" lon="7.990439305750489"><ele>631.0</ele><time>2026-03-26T17:10:31Z</time></trkpt><trkpt lat="43.99537692190818" lon="7.990586667500832"><ele>631.0</ele><time>2026-03-26T17:10:34Z</time></trkpt><trkpt lat="43.995338927522695" lon="7.990722457603928"><ele>631.0</ele><time>2026-03-26T17:10:36Z</time></trkpt><trkpt lat="43.995309232081496" lon="7.99085078604053"><ele>631.0</ele><time>2026-03-26T17:10:38Z</time></trkpt><trkpt lat="43.995312794904834" lon="7.990978732988948"><ele>631.0</ele><time>2026-03-26T17:10:40Z</time></trkpt><trkpt lat="43.99532830251941" lon="7.991113674038324"><ele>631.0</ele><time>2026-03-26T17:10:42Z</time></trkpt><trkpt lat="43.99536351705152" lon="7.991257548726234"><ele>630.4</ele><time>2026-03-26T17:10:44Z</time></trkpt><trkpt lat="43.9953853890142" lon="7.991437676707909"><ele>629.8</ele><time>2026-03-26T17:10:46.001Z</time></trkpt><trkpt lat="43.99540131803168" lon="7.991528504238323"><ele>629.1999999999999</ele><time>2026-03-26T17:10:47.001Z</time></trkpt><trkpt lat="43.99542971748699" lon="7.99168824942627"><ele>628.6</ele><time>2026-03-26T17:10:49.001Z</time></trkpt><trkpt lat="43.99546152194607" lon="7.9918623574639085"><ele>628.0</ele><time>2026-03-26T17:10:51.001Z</time></trkpt><trkpt lat="43.995470232027394" lon="7.991958357872835"><ele>628.0</ele><time>2026-03-26T17:10:52.001Z</time></trkpt><trkpt lat="43.99549133506564" lon="7.9920417879097485"><ele>628.0</ele><time>2026-03-26T17:10:54.001Z</time></trkpt><trkpt lat="43.99555695493366" lon="7.992143671247093"><ele>628.0</ele><time>2026-03-26T17:10:57.001Z</time></trkpt><trkpt lat="43.9956565171746" lon="7.992251442429951"><ele>628.0</ele><time>2026-03-26T17:10:59.001Z</time></trkpt><trkpt lat="43.99570039678697" lon="7.992401662642208"><ele>628.0</ele><time>2026-03-26T17:11:01.001Z</time></trkpt><trkpt lat="43.99571509970282" lon="7.992487298963445"><ele>628.8</ele><time>2026-03-26T17:11:02.001Z</time></trkpt><trkpt lat="43.99572764593248" lon="7.9925832474443865"><ele>629.5999999999999</ele><time>2026-03-26T17:11:03.001Z</time></trkpt><trkpt lat="43.99573311119147" lon="7.992756504388434"><ele>630.4000000000001</ele><time>2026-03-26T17:11:05.001Z</time></trkpt><trkpt lat="43.99575223326336" lon="7.992868098981632"><ele>631.2</ele><time>2026-03-26T17:11:06.001Z</time></trkpt><trkpt lat="43.99577286876291" lon="7.993005239655118"><ele>632.0</ele><time>2026-03-26T17:11:07.001Z</time></trkpt><trkpt lat="43.99577618514052" lon="7.993162707600245"><ele>632.0</ele><time>2026-03-26T17:11:08.001Z</time></trkpt><trkpt lat="43.99576228388908" lon="7.993282252827922"><ele>632.0</ele><time>2026-03-26T17:11:09.001Z</time></trkpt><trkpt lat="43.995760996092315" lon="7.99347020055843"><ele>632.0</ele><time>2026-03-26T17:11:11.001Z</time></trkpt><trkpt lat="43.99578637364039" lon="7.9936303363726005"><ele>632.0</ele><time>2026-03-26T17:11:12.001Z</time></trkpt><trkpt lat="43.995807321194796" lon="7.993717037551094"><ele>632.0</ele><time>2026-03-26T17:11:13.001Z</time></trkpt><trkpt lat="43.99582549756577" lon="7.993806887511984"><ele>633.0</ele><time>2026-03-26T17:11:14.001Z</time></trkpt><trkpt lat="43.99584679468502" lon="7.993916863424038"><ele>634.0</ele><time>2026-03-26T17:11:15.001Z</time></trkpt><trkpt lat="43.99581898206231" lon="7.994079864004168"><ele>635.0</ele><time>2026-03-26T17:11:16.001Z</time></trkpt><trkpt lat="43.995762532846335" lon="7.994246422600604"><ele>636.0</ele><time>2026-03-26T17:11:17.001Z</time></trkpt><trkpt lat="43.9957488039145" lon="7.994377639494029"><ele>637.0</ele><time>2026-03-26T17:11:18.001Z</time></trkpt><trkpt lat="43.99573300172401" lon="7.994508279294021"><ele>637.2</ele><time>2026-03-26T17:11:21Z</time></trkpt><trkpt lat="43.995783948741696" lon="7.994576518397258"><ele>637.4000000000001</ele><time>2026-03-26T17:11:22Z</time></trkpt><trkpt lat="43.99586748804398" lon="7.994675368047416"><ele>637.5999999999999</ele><time>2026-03-26T17:11:24Z</time></trkpt><trkpt lat="43.995992103399544" lon="7.994711483167936"><ele>637.8</ele><time>2026-03-26T17:11:26Z</time></trkpt><trkpt lat="43.99610135409396" lon="7.994820350172351"><ele>638.0</ele><time>2026-03-26T17:11:28Z</time></trkpt><trkpt lat="43.99618253326704" lon="7.994875244797831"><ele>638.0</ele><time>2026-03-26T17:11:30Z</time></trkpt><trkpt lat="43.99616172907224" lon="7.99497178403086"><ele>638.0</ele><time>2026-03-26T17:11:33Z</time></trkpt><trkpt lat="43.99607275234245" lon="7.995004273747685"><ele>638.0</ele><time>2026-03-26T17:13:16.999Z</time></trkpt><trkpt lat="43.99593959210505" lon="7.995008953454776"><ele>638.0</ele><time>2026-03-26T17:13:18.999Z</time></trkpt><trkpt lat="43.9958669363033" lon="7.995001036837491"><ele>638.0</ele><time>2026-03-26T17:13:19.999Z</time></trkpt><trkpt lat="43.995786857637135" lon="7.994974740651843"><ele>639.5</ele><time>2026-03-26T17:13:20.999Z</time></trkpt><trkpt lat="43.995692298926706" lon="7.99493676409755"><ele>641.0</ele><time>2026-03-26T17:13:21.999Z</time></trkpt><trkpt lat="43.99560907720132" lon="7.99487447729917"><ele>642.5</ele><time>2026-03-26T17:13:22.999Z</time></trkpt><trkpt lat="43.99555008821173" lon="7.9949178494257165"><ele>644.0</ele><time>2026-03-26T17:13:24.999Z</time></trkpt><trkpt lat="43.9956068674616" lon="7.995056639591001"><ele>645.5</ele><time>2026-03-26T17:13:26.999Z</time></trkpt><trkpt lat="43.99565436775766" lon="7.995115707864166"><ele>647.0</ele><time>2026-03-26T17:13:27.999Z</time></trkpt><trkpt lat="43.995711919063694" lon="7.9951928859681125"><ele>646.6666666666666</ele><time>2026-03-26T17:13:28.999Z</time></trkpt><trkpt lat="43.99576544812452" lon="7.995281771207185"><ele>646.3333333333333</ele><time>2026-03-26T17:13:29.999Z</time></trkpt><trkpt lat="43.995909390532844" lon="7.995351180904539"><ele>646.0</ele><time>2026-03-26T17:13:31.999Z</time></trkpt><trkpt lat="43.99596607354566" lon="7.995391612965368"><ele>645.6666666666666</ele><time>2026-03-26T17:13:32.999Z</time></trkpt><trkpt lat="43.996012527236424" lon="7.995465287447595"><ele>645.3333333333334</ele><time>2026-03-26T17:13:33.999Z</time></trkpt><trkpt lat="43.996051528178825" lon="7.995556800924844"><ele>645.0</ele><time>2026-03-26T17:13:34.999Z</time></trkpt><trkpt lat="43.99608268826758" lon="7.995637614142578"><ele>645.0</ele><time>2026-03-26T17:13:36.999Z</time></trkpt><trkpt lat="43.99620369081215" lon="7.995669424385663"><ele>645.0</ele><time>2026-03-26T17:13:38.999Z</time></trkpt><trkpt lat="43.99626838285365" lon="7.995722747912921"><ele>645.0</ele><time>2026-03-26T17:13:39.999Z</time></trkpt><trkpt lat="43.996316501114585" lon="7.9958087490161756"><ele>645.0</ele><time>2026-03-26T17:13:40.999Z</time></trkpt><trkpt lat="43.99633878693586" lon="7.995890934666888"><ele>645.0</ele><time>2026-03-26T17:13:41.999Z</time></trkpt><trkpt lat="43.99632059316546" lon="7.996015658919379"><ele>645.0</ele><time>2026-03-26T17:13:42.999Z</time></trkpt><trkpt lat="43.99631683362316" lon="7.996132029234442"><ele>646.8</ele><time>2026-03-26T17:13:43.999Z</time></trkpt><trkpt lat="43.996299674724185" lon="7.996253140638907"><ele>648.6</ele><time>2026-03-26T17:13:44.999Z</time></trkpt><trkpt lat="43.99627952176453" lon="7.996380017877092"><ele>650.4000000000001</ele><time>2026-03-26T17:13:45.999Z</time></trkpt><trkpt lat="43.99626897391699" lon="7.996538345173643"><ele>652.2</ele><time>2026-03-26T17:13:46.999Z</time></trkpt><trkpt lat="43.99623074133005" lon="7.996688737288285"><ele>654.0</ele><time>2026-03-26T17:13:47.999Z</time></trkpt><trkpt lat="43.99616071598918" lon="7.9968052182266085"><ele>655.5</ele><time>2026-03-26T17:13:48.999Z</time></trkpt><trkpt lat="43.99610384730092" lon="7.996900615651372"><ele>657.0</ele><time>2026-03-26T17:13:49.999Z</time></trkpt><trkpt lat="43.996054685190444" lon="7.996986699516568"><ele>658.5</ele><time>2026-03-26T17:13:50.999Z</time></trkpt><trkpt lat="43.99599042295977" lon="7.997105826179792"><ele>660.0</ele><time>2026-03-26T17:13:52.999Z</time></trkpt><trkpt lat="43.9960346445185" lon="7.9972144732792065"><ele>661.5</ele><time>2026-03-26T17:13:54.999Z</time></trkpt><trkpt lat="43.99607753628291" lon="7.997280237600054"><ele>663.0</ele><time>2026-03-26T17:13:55.999Z</time></trkpt><trkpt lat="43.996134199148194" lon="7.997335897082029"><ele>663.0</ele><time>2026-03-26T17:13:56.999Z</time></trkpt><trkpt lat="43.99627394656935" lon="7.997343481657837"><ele>663.0</ele><time>2026-03-26T17:13:58.999Z</time></trkpt><trkpt lat="43.99638306604492" lon="7.997350800900061"><ele>663.0</ele><time>2026-03-26T17:13:59.999Z</time></trkpt><trkpt lat="43.996505850480744" lon="7.997385270755573"><ele>663.0</ele><time>2026-03-26T17:14:00.999Z</time></trkpt><trkpt lat="43.99658273813398" lon="7.9974275852228445"><ele>666.0</ele><time>2026-03-26T17:14:01.999Z</time></trkpt><trkpt lat="43.996614174408464" lon="7.99750782385938"><ele>669.0</ele><time>2026-03-26T17:14:02.999Z</time></trkpt><trkpt lat="43.9966039352212" lon="7.99761964585947"><ele>672.0</ele><time>2026-03-26T17:14:03.999Z</time></trkpt><trkpt lat="43.996585400547254" lon="7.997743549350596"><ele>675.0</ele><time>2026-03-26T17:14:04.999Z</time></trkpt><trkpt lat="43.99659308688902" lon="7.99786494229913"><ele>678.0</ele><time>2026-03-26T17:14:05.999Z</time></trkpt><trkpt lat="43.99661533725247" lon="7.997983940712166"><ele>681.0</ele><time>2026-03-26T17:14:06.999Z</time></trkpt><trkpt lat="43.996656661164266" lon="7.998095865275905"><ele>681.0</ele><time>2026-03-26T17:14:07.999Z</time></trkpt><trkpt lat="43.99665524836689" lon="7.99820063357086"><ele>681.0</ele><time>2026-03-26T17:14:08.999Z</time></trkpt><trkpt lat="43.996696973221695" lon="7.998303779801358"><ele>681.0</ele><time>2026-03-26T17:14:11.999Z</time></trkpt><trkpt lat="43.99681002680778" lon="7.998258301636883"><ele>681.0</ele><time>2026-03-26T17:14:13.999Z</time></trkpt><trkpt lat="43.99693186045379" lon="7.998357408422698"><ele>681.0</ele><time>2026-03-26T17:14:15.999Z</time></trkpt><trkpt lat="43.996996724737066" lon="7.9984937216006795"><ele>682.6666666666666</ele><time>2026-03-26T17:14:16.999Z</time></trkpt><trkpt lat="43.997061690633736" lon="7.9985969507767605"><ele>684.3333333333334</ele><time>2026-03-26T17:14:17.999Z</time></trkpt><trkpt lat="43.99711745035487" lon="7.998665676848665"><ele>686.0</ele><time>2026-03-26T17:14:18.999Z</time></trkpt><trkpt lat="43.997139333621725" lon="7.998756846653075"><ele>687.6666666666667</ele><time>2026-03-26T17:14:20.999Z</time></trkpt><trkpt lat="43.997106139818946" lon="7.998875016119274"><ele>689.3333333333334</ele><time>2026-03-26T17:14:22.999Z</time></trkpt><trkpt lat="43.9971658974398" lon="7.9989186703877815"><ele>691.0</ele><time>2026-03-26T17:14:44.999Z</time></trkpt><trkpt lat="43.99729479048789" lon="7.998928582055467"><ele>691.0</ele><time>2026-03-26T17:14:46.999Z</time></trkpt><trkpt lat="43.997397535508505" lon="7.998952522728766"><ele>691.0</ele><time>2026-03-26T17:14:48.999Z</time></trkpt><trkpt lat="43.99744160393759" lon="7.999016746946517"><ele>691.0</ele><time>2026-03-26T17:14:49.999Z</time></trkpt><trkpt lat="43.99746887142479" lon="7.999129417667927"><ele>691.0</ele><time>2026-03-26T17:14:51.999Z</time></trkpt><trkpt lat="43.99754532285524" lon="7.999262418529019"><ele>691.0</ele><time>2026-03-26T17:14:53.999Z</time></trkpt><trkpt lat="43.997607253598446" lon="7.999351279520651"><ele>695.5999999999999</ele><time>2026-03-26T17:14:55.999Z</time></trkpt><trkpt lat="43.99760270588088" lon="7.999472759986538"><ele>700.2</ele><time>2026-03-26T17:14:58Z</time></trkpt><trkpt lat="43.99764261246443" lon="7.999637979108255"><ele>704.8</ele><time>2026-03-26T17:15:00Z</time></trkpt><trkpt lat="43.99766667586963" lon="7.999725857116172"><ele>709.4000000000001</ele><time>2026-03-26T17:15:01Z</time></trkpt><trkpt lat="43.99769390812607" lon="7.999838966254851"><ele>714.0</ele><time>2026-03-26T17:15:03Z</time></trkpt><trkpt lat="43.99773838326957" lon="7.999964915454333"><ele>714.0</ele><time>2026-03-26T17:15:05Z</time></trkpt><trkpt lat="43.99776373707955" lon="8.000123522486623"><ele>714.0</ele><time>2026-03-26T17:15:07Z</time></trkpt><trkpt lat="43.997732726158986" lon="8.0002560456858"><ele>714.0</ele><time>2026-03-26T17:15:09Z</time></trkpt><trkpt lat="43.99774848132585" lon="8.000418212240959"><ele>714.0</ele><time>2026-03-26T17:15:11Z</time></trkpt><trkpt lat="43.99775505456417" lon="8.000519880498791"><ele>714.0</ele><time>2026-03-26T17:15:12Z</time></trkpt><trkpt lat="43.997771939284966" lon="8.000635637861198"><ele>714.0</ele><time>2026-03-26T17:15:13Z</time></trkpt><trkpt lat="43.997802399652386" lon="8.000752236044415"><ele>714.0</ele><time>2026-03-26T17:15:14Z</time></trkpt><trkpt lat="43.99782695238263" lon="8.000836050664141"><ele>714.0</ele><time>2026-03-26T17:15:15Z</time></trkpt><trkpt lat="43.99789813024533" lon="8.000914200454435"><ele>714.0</ele><time>2026-03-26T17:15:17Z</time></trkpt><trkpt lat="43.99799423386973" lon="8.000902370383379"><ele>714.0</ele><time>2026-03-26T17:15:19Z</time></trkpt><trkpt lat="43.99807430385632" lon="8.000915660673"><ele>714.0</ele><time>2026-03-26T17:15:23Z</time></trkpt><trkpt lat="43.99816377933676" lon="8.000861170975847"><ele>714.0</ele><time>2026-03-26T17:15:25Z</time></trkpt><trkpt lat="43.99824661774025" lon="8.000731856588322"><ele>714.0</ele><time>2026-03-26T17:15:27Z</time></trkpt><trkpt lat="43.998340448866216" lon="8.000695486597024"><ele>714.0</ele><time>2026-03-26T17:15:29Z</time></trkpt><trkpt lat="43.99842664584916" lon="8.000733260986266"><ele>714.0</ele><time>2026-03-26T17:15:31Z</time></trkpt><trkpt lat="43.99853408098719" lon="8.000821331555617"><ele>714.0</ele><time>2026-03-26T17:15:32.999Z</time></trkpt><trkpt lat="43.998601848783046" lon="8.000951020612867"><ele>722.5</ele><time>2026-03-26T17:15:34.999Z</time></trkpt><trkpt lat="43.99862706055438" lon="8.001128741523738"><ele>731.0</ele><time>2026-03-26T17:15:36.999Z</time></trkpt><trkpt lat="43.99864040145661" lon="8.001223553766966"><ele>739.5</ele><time>2026-03-26T17:15:37.999Z</time></trkpt><trkpt lat="43.99869318228708" lon="8.00134483030646"><ele>748.0</ele><time>2026-03-26T17:15:39.999Z</time></trkpt><trkpt lat="43.998888636672845" lon="8.001192624043235"><ele>748.0</ele><time>2026-03-26T17:16:54.999Z</time></trkpt><trkpt lat="43.9989851296807" lon="8.001117422963706"><ele>748.0</ele><time>2026-03-26T17:16:56.999Z</time></trkpt><trkpt lat="43.999059311945366" lon="8.001098263255603"><ele>748.0</ele><time>2026-03-26T17:16:57.999Z</time></trkpt><trkpt lat="43.999131286805614" lon="8.001018486563694"><ele>748.0</ele><time>2026-03-26T17:16:59.999Z</time></trkpt><trkpt lat="43.99913969674516" lon="8.000829759195089"><ele>748.0</ele><time>2026-03-26T17:17:01.999Z</time></trkpt><trkpt lat="43.99918127972017" lon="8.000718355509406"><ele>751.0</ele><time>2026-03-26T17:17:04Z</time></trkpt><trkpt lat="43.999256904241484" lon="8.000669389711685"><ele>754.0</ele><time>2026-03-26T17:17:06Z</time></trkpt><trkpt lat="43.99932256707086" lon="8.000613354752462"><ele>757.0</ele><time>2026-03-26T17:17:07Z</time></trkpt><trkpt lat="43.999342785695475" lon="8.000460408247514"><ele>760.0</ele><time>2026-03-26T17:17:09Z</time></trkpt><trkpt lat="43.999318425113316" lon="8.000305520794337"><ele>763.0</ele><time>2026-03-26T17:17:11Z</time></trkpt><trkpt lat="43.99931582682412" lon="8.000195136580782"><ele>763.0</ele><time>2026-03-26T17:17:13Z</time></trkpt><trkpt lat="43.99937386246497" lon="8.000060406142827"><ele>763.0</ele><time>2026-03-26T17:17:15Z</time></trkpt><trkpt lat="43.99945264492494" lon="7.9999880257672435"><ele>763.0</ele><time>2026-03-26T17:17:16Z</time></trkpt><trkpt lat="43.999505367016255" lon="7.999892397856785"><ele>763.0</ele><time>2026-03-26T17:17:17Z</time></trkpt><trkpt lat="43.99955830303617" lon="7.999813217826523"><ele>763.0</ele><time>2026-03-26T17:17:18Z</time></trkpt><trkpt lat="43.99962113586604" lon="7.999752683122334"><ele>763.0</ele><time>2026-03-26T17:17:19Z</time></trkpt><trkpt lat="43.99968686200293" lon="7.999718340824089"><ele>763.0</ele><time>2026-03-26T17:17:20Z</time></trkpt><trkpt lat="43.999770236681194" lon="7.999653109489"><ele>763.0</ele><time>2026-03-26T17:17:21Z</time></trkpt><trkpt lat="43.99983692742234" lon="7.999635603320915"><ele>763.0</ele><time>2026-03-26T17:17:22Z</time></trkpt><trkpt lat="43.99991878815573" lon="7.999649487994162"><ele>763.0</ele><time>2026-03-26T17:17:23Z</time></trkpt><trkpt lat="44.00002031241674" lon="7.99964309306038"><ele>763.0</ele><time>2026-03-26T17:17:24Z</time></trkpt><trkpt lat="44.000112609298554" lon="7.999593070108489"><ele>763.0</ele><time>2026-03-26T17:17:25Z</time></trkpt><trkpt lat="44.00016477533717" lon="7.999538151180282"><ele>763.0</ele><time>2026-03-26T17:17:26Z</time></trkpt><trkpt lat="44.00022522764674" lon="7.999434871277939"><ele>763.0</ele><time>2026-03-26T17:17:28Z</time></trkpt><trkpt lat="44.00012648672362" lon="7.999338955763903"><ele>763.0</ele><time>2026-03-26T17:17:30Z</time></trkpt><trkpt lat="44.00006573414452" lon="7.999303104882262"><ele>763.0</ele><time>2026-03-26T17:17:31Z</time></trkpt><trkpt lat="44.000052083565656" lon="7.999103189393938"><ele>763.0</ele><time>2026-03-26T17:17:33Z</time></trkpt><trkpt lat="44.00006378229721" lon="7.999006979511013"><ele>760.6666666666667</ele><time>2026-03-26T17:17:34Z</time></trkpt><trkpt lat="44.00008351548075" lon="7.998907788712519"><ele>758.3333333333334</ele><time>2026-03-26T17:17:35Z</time></trkpt><trkpt lat="44.00010136478216" lon="7.998814757419281"><ele>756.0</ele><time>2026-03-26T17:17:36Z</time></trkpt><trkpt lat="44.00018707097829" lon="7.9987837163303634"><ele>753.6666666666666</ele><time>2026-03-26T17:17:38Z</time></trkpt><trkpt lat="44.00025451379365" lon="7.9988056942080705"><ele>751.3333333333333</ele><time>2026-03-26T17:17:39Z</time></trkpt><trkpt lat="44.00034896913699" lon="7.998822738709594"><ele>749.0</ele><time>2026-03-26T17:17:40Z</time></trkpt><trkpt lat="44.000485834637125" lon="7.998836545064836"><ele>749.0</ele><time>2026-03-26T17:17:41Z</time></trkpt><trkpt lat="44.000614761006545" lon="7.998800822997786"><ele>749.0</ele><time>2026-03-26T17:17:41.999Z</time></trkpt><trkpt lat="44.00070602913958" lon="7.998779659774384"><ele>749.0</ele><time>2026-03-26T17:17:42.999Z</time></trkpt><trkpt lat="44.00077332075906" lon="7.998742830699245"><ele>749.0</ele><time>2026-03-26T17:17:43.999Z</time></trkpt><trkpt lat="44.00077447992665" lon="7.998647192072505"><ele>749.0</ele><time>2026-03-26T17:17:44.999Z</time></trkpt><trkpt lat="44.00078278685618" lon="7.998528807120253"><ele>753.2</ele><time>2026-03-26T17:17:45.999Z</time></trkpt><trkpt lat="44.00090373703927" lon="7.9985098205915"><ele>757.4000000000001</ele><time>2026-03-26T17:17:47.999Z</time></trkpt><trkpt lat="44.001003316012316" lon="7.998573596932231"><ele>761.6</ele><time>2026-03-26T17:17:48.999Z</time></trkpt><trkpt lat="44.001093715377436" lon="7.998617628676869"><ele>765.8</ele><time>2026-03-26T17:17:49.999Z</time></trkpt><trkpt lat="44.00111998447555" lon="7.998486395318993"><ele>770.0</ele><time>2026-03-26T17:17:51.999Z</time></trkpt><trkpt lat="44.00106605586536" lon="7.998389041937033"><ele>766.4</ele><time>2026-03-26T17:17:52.999Z</time></trkpt><trkpt lat="44.00101459160741" lon="7.998278239145562"><ele>762.8</ele><time>2026-03-26T17:17:53.999Z</time></trkpt><trkpt lat="44.00103305672634" lon="7.998175367292287"><ele>759.2</ele><time>2026-03-26T17:17:54.999Z</time></trkpt><trkpt lat="44.00110177521994" lon="7.998048148185519"><ele>755.6</ele><time>2026-03-26T17:17:55.999Z</time></trkpt><trkpt lat="44.00118356455347" lon="7.997943888215238"><ele>752.0</ele><time>2026-03-26T17:17:56.999Z</time></trkpt><trkpt lat="44.001262630124025" lon="7.997857862916018"><ele>752.0</ele><time>2026-03-26T17:17:57.999Z</time></trkpt><trkpt lat="44.0013540020565" lon="7.997781802394559"><ele>752.0</ele><time>2026-03-26T17:17:58.999Z</time></trkpt><trkpt lat="44.00144481944881" lon="7.997678982791288"><ele>752.0</ele><time>2026-03-26T17:17:59.999Z</time></trkpt><trkpt lat="44.00150626131317" lon="7.997584567315397"><ele>752.0</ele><time>2026-03-26T17:18:00.999Z</time></trkpt><trkpt lat="44.00154735489976" lon="7.9974502993013035"><ele>752.0</ele><time>2026-03-26T17:18:01.999Z</time></trkpt><trkpt lat="44.00158841631766" lon="7.997310942946994"><ele>753.8</ele><time>2026-03-26T17:18:02.999Z</time></trkpt><trkpt lat="44.001611103810966" lon="7.997199659836024"><ele>755.6</ele><time>2026-03-26T17:18:03.999Z</time></trkpt><trkpt lat="44.001633727402236" lon="7.9971111808061135"><ele>757.4</ele><time>2026-03-26T17:18:04.999Z</time></trkpt><trkpt lat="44.0017197607188" lon="7.9969933580743655"><ele>759.1999999999999</ele><time>2026-03-26T17:18:06.999Z</time></trkpt><trkpt lat="44.00176773929942" lon="7.9968919234836955"><ele>761.0</ele><time>2026-03-26T17:18:07.999Z</time></trkpt><trkpt lat="44.00181952878588" lon="7.996770627168689"><ele>757.1999999999999</ele><time>2026-03-26T17:18:08.999Z</time></trkpt><trkpt lat="44.00188889744869" lon="7.996653358011538"><ele>753.4</ele><time>2026-03-26T17:18:09.999Z</time></trkpt><trkpt lat="44.001947840586354" lon="7.996565660247481"><ele>749.6</ele><time>2026-03-26T17:18:10.999Z</time></trkpt><trkpt lat="44.00204515022088" lon="7.99639161775044"><ele>745.8</ele><time>2026-03-26T17:18:12.999Z</time></trkpt><trkpt lat="44.002054133069265" lon="7.996300156533359"><ele>742.0</ele><time>2026-03-26T17:18:13.999Z</time></trkpt><trkpt lat="44.00202743802302" lon="7.996197018375661"><ele>742.0</ele><time>2026-03-26T17:18:14.999Z</time></trkpt><trkpt lat="44.00204584400832" lon="7.996059296269175"><ele>742.0</ele><time>2026-03-26T17:18:16.999Z</time></trkpt><trkpt lat="44.00214681675941" lon="7.995891277932515"><ele>742.0</ele><time>2026-03-26T17:18:18.999Z</time></trkpt><trkpt lat="44.00219932229292" lon="7.9957757846726345"><ele>742.0</ele><time>2026-03-26T17:18:19.999Z</time></trkpt><trkpt lat="44.00222529043982" lon="7.995657556681811"><ele>742.0</ele><time>2026-03-26T17:18:20.999Z</time></trkpt><trkpt lat="44.00226166357968" lon="7.995529164653814"><ele>744.75</ele><time>2026-03-26T17:18:21.999Z</time></trkpt><trkpt lat="44.00231810797237" lon="7.995420002999418"><ele>747.5</ele><time>2026-03-26T17:18:22.999Z</time></trkpt><trkpt lat="44.002399745228104" lon="7.995286719544082"><ele>750.25</ele><time>2026-03-26T17:18:23.999Z</time></trkpt><trkpt lat="44.002474258031384" lon="7.9951757596971476"><ele>753.0</ele><time>2026-03-26T17:18:24.999Z</time></trkpt><trkpt lat="44.002565716458065" lon="7.99506646259809"><ele>747.5999999999999</ele><time>2026-03-26T17:18:25.999Z</time></trkpt><trkpt lat="44.00264491748804" lon="7.9949795200399985"><ele>742.1999999999999</ele><time>2026-03-26T17:18:26.999Z</time></trkpt><trkpt lat="44.002700679952625" lon="7.994886041480853"><ele>736.8</ele><time>2026-03-26T17:18:27.999Z</time></trkpt><trkpt lat="44.002744350845234" lon="7.994802759101545"><ele>731.4</ele><time>2026-03-26T17:18:28.999Z</time></trkpt><trkpt lat="44.00279728371058" lon="7.9947232686282685"><ele>726.0</ele><time>2026-03-26T17:18:29.999Z</time></trkpt><trkpt lat="44.00291288395848" lon="7.994704079236787"><ele>726.0</ele><time>2026-03-26T17:18:31.999Z</time></trkpt><trkpt lat="44.00300889222096" lon="7.994688194045724"><ele>726.0</ele><time>2026-03-26T17:18:32.999Z</time></trkpt><trkpt lat="44.0031392241107" lon="7.994674541727238"><ele>726.0</ele><time>2026-03-26T17:18:33.999Z</time></trkpt><trkpt lat="44.003304592400475" lon="7.994651053951905"><ele>726.0</ele><time>2026-03-26T17:18:34.999Z</time></trkpt><trkpt lat="44.003472122804105" lon="7.994636390614665"><ele>730.4</ele><time>2026-03-26T17:18:35.999Z</time></trkpt><trkpt lat="44.00358210453055" lon="7.994636270645177"><ele>734.8</ele><time>2026-03-26T17:18:36.999Z</time></trkpt><trkpt lat="44.00364994571998" lon="7.994600251997511"><ele>739.1999999999999</ele><time>2026-03-26T17:18:37.999Z</time></trkpt><trkpt lat="44.00371819873243" lon="7.994514743002155"><ele>743.5999999999999</ele><time>2026-03-26T17:18:38.999Z</time></trkpt><trkpt lat="44.00381252090203" lon="7.994441781793502"><ele>748.0</ele><time>2026-03-26T17:18:39.999Z</time></trkpt><trkpt lat="44.00389060117668" lon="7.994410131051553"><ele>748.0</ele><time>2026-03-26T17:18:40.999Z</time></trkpt><trkpt lat="44.00395759408564" lon="7.994361121904616"><ele>748.0</ele><time>2026-03-26T17:18:41.999Z</time></trkpt><trkpt lat="44.004010416371635" lon="7.994274811800601"><ele>748.0</ele><time>2026-03-26T17:18:42.999Z</time></trkpt><trkpt lat="44.00407961593979" lon="7.9941362312632265"><ele>748.0</ele><time>2026-03-26T17:18:43.999Z</time></trkpt><trkpt lat="44.00417986715806" lon="7.994019805594552"><ele>748.0</ele><time>2026-03-26T17:18:44.999Z</time></trkpt><trkpt lat="44.00425328282742" lon="7.9939106278857155"><ele>744.4</ele><time>2026-03-26T17:18:45.999Z</time></trkpt><trkpt lat="44.0043271247482" lon="7.9938197914303215"><ele>740.8</ele><time>2026-03-26T17:18:46.999Z</time></trkpt><trkpt lat="44.004382853720614" lon="7.9937762964503465"><ele>737.2</ele><time>2026-03-26T17:18:47.999Z</time></trkpt><trkpt lat="44.00442309982536" lon="7.993694281368507"><ele>733.6</ele><time>2026-03-26T17:18:48.999Z</time></trkpt><trkpt lat="44.00454952092929" lon="7.993487438819343"><ele>730.0</ele><time>2026-03-26T17:18:49.999Z</time></trkpt><trkpt lat="44.004610892777016" lon="7.993276873700593"><ele>725.2</ele><time>2026-03-26T17:18:50.999Z</time></trkpt><trkpt lat="44.00467522388565" lon="7.993144998197939"><ele>720.4</ele><time>2026-03-26T17:18:51.999Z</time></trkpt><trkpt lat="44.004707323368166" lon="7.993011030934924"><ele>715.5999999999999</ele><time>2026-03-26T17:18:52.999Z</time></trkpt><trkpt lat="44.00471044997833" lon="7.992914984727888"><ele>710.8</ele><time>2026-03-26T17:18:53.999Z</time></trkpt><trkpt lat="44.00471212751784" lon="7.992746713039307"><ele>706.0</ele><time>2026-03-26T17:18:54.999Z</time></trkpt><trkpt lat="44.00470146803818" lon="7.9925832709563895"><ele>702.25</ele><time>2026-03-26T17:18:55.999Z</time></trkpt><trkpt lat="44.004679714199945" lon="7.992422275420251"><ele>698.5</ele><time>2026-03-26T17:18:56.999Z</time></trkpt><trkpt lat="44.004651607575965" lon="7.992281727560746"><ele>694.75</ele><time>2026-03-26T17:18:57.999Z</time></trkpt><trkpt lat="44.004661196752835" lon="7.992123040276812"><ele>691.0</ele><time>2026-03-26T17:18:59.999Z</time></trkpt><trkpt lat="44.00478249492941" lon="7.992070154649575"><ele>691.0</ele><time>2026-03-26T17:19:01.999Z</time></trkpt><trkpt lat="44.004905261526694" lon="7.992081636277647"><ele>691.0</ele><time>2026-03-26T17:19:02.999Z</time></trkpt><trkpt lat="44.00502533174792" lon="7.992137487835678"><ele>691.0</ele><time>2026-03-26T17:19:03.999Z</time></trkpt><trkpt lat="44.005094854822" lon="7.992122811449326"><ele>691.0</ele><time>2026-03-26T17:19:04.999Z</time></trkpt><trkpt lat="44.00516821130867" lon="7.992125488097881"><ele>691.0</ele><time>2026-03-26T17:19:05.999Z</time></trkpt><trkpt lat="44.00528374842447" lon="7.992100182312915"><ele>691.8</ele><time>2026-03-26T17:19:06.999Z</time></trkpt><trkpt lat="44.005355039866274" lon="7.992044981667503"><ele>692.5999999999999</ele><time>2026-03-26T17:19:07.999Z</time></trkpt><trkpt lat="44.00544736862863" lon="7.991946760215541"><ele>693.4</ele><time>2026-03-26T17:19:08.999Z</time></trkpt><trkpt lat="44.005519754805896" lon="7.991828503501422"><ele>694.2</ele><time>2026-03-26T17:19:10Z</time></trkpt><trkpt lat="44.00557610800035" lon="7.9917042058963785"><ele>695.0</ele><time>2026-03-26T17:19:11Z</time></trkpt><trkpt lat="44.00563101726196" lon="7.9916426229392465"><ele>695.0</ele><time>2026-03-26T17:19:12Z</time></trkpt><trkpt lat="44.00568597759461" lon="7.991595249424093"><ele>695.0</ele><time>2026-03-26T17:19:13Z</time></trkpt><trkpt lat="44.00575743723938" lon="7.991569749465881"><ele>695.0</ele><time>2026-03-26T17:19:14Z</time></trkpt><trkpt lat="44.00582827251551" lon="7.991559452803426"><ele>695.0</ele><time>2026-03-26T17:19:15Z</time></trkpt><trkpt lat="44.00593010906159" lon="7.991551430910546"><ele>695.0</ele><time>2026-03-26T17:19:16Z</time></trkpt><trkpt lat="44.00601679656485" lon="7.991548664518524"><ele>695.0</ele><time>2026-03-26T17:19:17Z</time></trkpt><trkpt lat="44.00612431511738" lon="7.991557097042252"><ele>695.8</ele><time>2026-03-26T17:19:18Z</time></trkpt><trkpt lat="44.006204791979485" lon="7.991550478665623"><ele>696.6</ele><time>2026-03-26T17:19:19Z</time></trkpt><trkpt lat="44.00629698189357" lon="7.991523224534276"><ele>697.4000000000001</ele><time>2026-03-26T17:19:20Z</time></trkpt><trkpt lat="44.00639616009913" lon="7.991508895900621"><ele>698.2</ele><time>2026-03-26T17:19:21Z</time></trkpt><trkpt lat="44.00648749615531" lon="7.991474238010211"><ele>699.0</ele><time>2026-03-26T17:19:22Z</time></trkpt><trkpt lat="44.00659533183702" lon="7.991393210648959"><ele>695.4000000000001</ele><time>2026-03-26T17:19:23Z</time></trkpt><trkpt lat="44.00669391981284" lon="7.991332109094168"><ele>691.8</ele><time>2026-03-26T17:19:24Z</time></trkpt><trkpt lat="44.006767045329006" lon="7.9912839400148785"><ele>688.2</ele><time>2026-03-26T17:19:25Z</time></trkpt><trkpt lat="44.00683929414917" lon="7.991222792096774"><ele>684.5999999999999</ele><time>2026-03-26T17:19:26Z</time></trkpt><trkpt lat="44.00697528966839" lon="7.991258778023994"><ele>681.0</ele><time>2026-03-26T17:19:27Z</time></trkpt><trkpt lat="44.007039867051645" lon="7.991180389967285"><ele>681.0</ele><time>2026-03-26T17:19:29Z</time></trkpt><trkpt lat="44.00708844354766" lon="7.99111183385501"><ele>681.0</ele><time>2026-03-26T17:19:32Z</time></trkpt><trkpt lat="44.00713495771788" lon="7.991046188357731"><ele>681.0</ele><time>2026-03-26T17:19:35Z</time></trkpt><trkpt lat="44.007183166905534" lon="7.990971150177771"><ele>681.0</ele><time>2026-03-26T17:19:38Z</time></trkpt><trkpt lat="44.00711460246309" lon="7.990863852418061"><ele>681.0</ele><time>2026-03-26T17:19:50Z</time></trkpt><trkpt lat="44.007181675649534" lon="7.990824200914895"><ele>681.0</ele><time>2026-03-26T17:19:55Z</time></trkpt><trkpt lat="44.00717989435616" lon="7.990940280245048"><ele>681.0</ele><time>2026-03-26T17:19:58Z</time></trkpt><trkpt lat="44.0070728956068" lon="7.991050455505874"><ele>681.0</ele><time>2026-03-26T17:20:00Z</time></trkpt><trkpt lat="44.00700650663616" lon="7.99112856815635"><ele>681.0</ele><time>2026-03-26T17:20:01Z</time></trkpt><trkpt lat="44.00694194512088" lon="7.991217641826993"><ele>681.0</ele><time>2026-03-26T17:20:02Z</time></trkpt><trkpt lat="44.00686457082826" lon="7.991318224214208"><ele>681.0</ele><time>2026-03-26T17:20:03Z</time></trkpt><trkpt lat="44.006788116644245" lon="7.991449468213679"><ele>681.0</ele><time>2026-03-26T17:20:04Z</time></trkpt><trkpt lat="44.00673008313155" lon="7.991616354390059"><ele>681.0</ele><time>2026-03-26T17:20:05Z</time></trkpt><trkpt lat="44.00669463881175" lon="7.99180871810184"><ele>681.0</ele><time>2026-03-26T17:20:05.999Z</time></trkpt><trkpt lat="44.00667859703803" lon="7.9920274083008085"><ele>681.0</ele><time>2026-03-26T17:20:06.999Z</time></trkpt><trkpt lat="44.00668203913932" lon="7.992276185286106"><ele>679.0</ele><time>2026-03-26T17:20:07.999Z</time></trkpt><trkpt lat="44.00669230693112" lon="7.992531247057345"><ele>677.0</ele><time>2026-03-26T17:20:08.999Z</time></trkpt><trkpt lat="44.0066962004797" lon="7.992776187782236"><ele>675.0</ele><time>2026-03-26T17:20:09.999Z</time></trkpt><trkpt lat="44.006690518475835" lon="7.993000279879435"><ele>675.0</ele><time>2026-03-26T17:20:10.999Z</time></trkpt><trkpt lat="44.00666295773591" lon="7.993234741743648"><ele>675.0</ele><time>2026-03-26T17:20:11.999Z</time></trkpt><trkpt lat="44.006615159954336" lon="7.993460893273079"><ele>675.0</ele><time>2026-03-26T17:20:12.999Z</time></trkpt><trkpt lat="44.00655476197771" lon="7.993696336382324"><ele>684.3333333333334</ele><time>2026-03-26T17:20:13.999Z</time></trkpt><trkpt lat="44.006481610933136" lon="7.99394139145846"><ele>693.6666666666667</ele><time>2026-03-26T17:20:14.999Z</time></trkpt><trkpt lat="44.00639158869387" lon="7.994188982785261"><ele>703.0</ele><time>2026-03-26T17:20:15.999Z</time></trkpt><trkpt lat="44.00630976404996" lon="7.994395691271304"><ele>703.0</ele><time>2026-03-26T17:20:16.999Z</time></trkpt><trkpt lat="44.00625163387551" lon="7.994590054668667"><ele>703.0</ele><time>2026-03-26T17:20:17.999Z</time></trkpt><trkpt lat="44.00622643819585" lon="7.994781570422328"><ele>703.0</ele><time>2026-03-26T17:20:18.999Z</time></trkpt><trkpt lat="44.00622334312116" lon="7.994990580072348"><ele>703.0</ele><time>2026-03-26T17:20:19.999Z</time></trkpt><trkpt lat="44.006247308346865" lon="7.995242572529638"><ele>698.0</ele><time>2026-03-26T17:20:20.999Z</time></trkpt><trkpt lat="44.00627297820498" lon="7.9954809267369695"><ele>693.0</ele><time>2026-03-26T17:20:21.999Z</time></trkpt><trkpt lat="44.0062897788684" lon="7.995671261593719"><ele>688.0</ele><time>2026-03-26T17:20:22.999Z</time></trkpt><trkpt lat="44.00629226483371" lon="7.995828487776917"><ele>683.0</ele><time>2026-03-26T17:20:23.999Z</time></trkpt><trkpt lat="44.006265221149896" lon="7.9959281160604245"><ele>686.4</ele><time>2026-03-26T17:20:24.999Z</time></trkpt><trkpt lat="44.00621750790407" lon="7.995995703526991"><ele>689.8</ele><time>2026-03-26T17:20:25.999Z</time></trkpt><trkpt lat="44.00612824198864" lon="7.996062453306282"><ele>693.2</ele><time>2026-03-26T17:20:26.999Z</time></trkpt><trkpt lat="44.00602660826193" lon="7.996151772780002"><ele>696.6</ele><time>2026-03-26T17:20:27.999Z</time></trkpt><trkpt lat="44.00591520087235" lon="7.9962740844821445"><ele>700.0</ele><time>2026-03-26T17:20:28.999Z</time></trkpt><trkpt lat="44.00579387969157" lon="7.99641634799694"><ele>700.0</ele><time>2026-03-26T17:20:29.999Z</time></trkpt><trkpt lat="44.00566401902921" lon="7.996583393405689"><ele>700.0</ele><time>2026-03-26T17:20:30.999Z</time></trkpt><trkpt lat="44.00555919820797" lon="7.996758496126079"><ele>700.0</ele><time>2026-03-26T17:20:31.999Z</time></trkpt><trkpt lat="44.00546136625187" lon="7.996988271322806"><ele>692.3333333333334</ele><time>2026-03-26T17:20:32.999Z</time></trkpt><trkpt lat="44.00536491147103" lon="7.99723261809643"><ele>684.6666666666666</ele><time>2026-03-26T17:20:33.999Z</time></trkpt><trkpt lat="44.00526675463057" lon="7.997470753465137"><ele>677.0</ele><time>2026-03-26T17:20:34.999Z</time></trkpt><trkpt lat="44.005187409406204" lon="7.997660005952451"><ele>675.8</ele><time>2026-03-26T17:20:35.999Z</time></trkpt><trkpt lat="44.005122402148324" lon="7.997824385978127"><ele>674.6</ele><time>2026-03-26T17:20:36.999Z</time></trkpt><trkpt lat="44.00508323961161" lon="7.997952049674318"><ele>673.4</ele><time>2026-03-26T17:20:37.999Z</time></trkpt><trkpt lat="44.00505006569519" lon="7.998042850627561"><ele>672.1999999999999</ele><time>2026-03-26T17:20:38.999Z</time></trkpt><trkpt lat="44.00506195186894" lon="7.998143699910522"><ele>671.0</ele><time>2026-03-26T17:20:39.999Z</time></trkpt><trkpt lat="44.00513804380039" lon="7.998265512365171"><ele>677.0</ele><time>2026-03-26T17:20:40.999Z</time></trkpt><trkpt lat="44.00521320060393" lon="7.9984174935246335"><ele>683.0</ele><time>2026-03-26T17:20:41.999Z</time></trkpt><trkpt lat="44.005305886695474" lon="7.9986020207646105"><ele>689.0</ele><time>2026-03-26T17:20:42.999Z</time></trkpt><trkpt lat="44.005403175421755" lon="7.998800690809697"><ele>689.0</ele><time>2026-03-26T17:20:43.999Z</time></trkpt><trkpt lat="44.00552659241657" lon="7.998982377000793"><ele>689.0</ele><time>2026-03-26T17:20:44.999Z</time></trkpt><trkpt lat="44.00563121579746" lon="7.99914849743925"><ele>689.0</ele><time>2026-03-26T17:20:45.999Z</time></trkpt><trkpt lat="44.00571178025383" lon="7.999358308906925"><ele>692.6666666666666</ele><time>2026-03-26T17:20:46.999Z</time></trkpt><trkpt lat="44.00580462466203" lon="7.9995955565982335"><ele>696.3333333333334</ele><time>2026-03-26T17:20:47.999Z</time></trkpt><trkpt lat="44.005944557280316" lon="7.999778701442718"><ele>700.0</ele><time>2026-03-26T17:20:48.999Z</time></trkpt><trkpt lat="44.00607419783396" lon="7.999933421586139"><ele>688.25</ele><time>2026-03-26T17:20:49.999Z</time></trkpt><trkpt lat="44.00618686676904" lon="8.000042641839878"><ele>676.5</ele><time>2026-03-26T17:20:50.999Z</time></trkpt><trkpt lat="44.00625481206147" lon="8.000145718176366"><ele>664.75</ele><time>2026-03-26T17:20:51.999Z</time></trkpt><trkpt lat="44.006272500159994" lon="8.000306754040118"><ele>653.0</ele><time>2026-03-26T17:20:52.999Z</time></trkpt><trkpt lat="44.00631439661519" lon="8.000496912433128"><ele>653.0</ele><time>2026-03-26T17:20:53.999Z</time></trkpt><trkpt lat="44.006414880953116" lon="8.000664796735407"><ele>653.0</ele><time>2026-03-26T17:20:54.999Z</time></trkpt><trkpt lat="44.006531375617165" lon="8.000781043635305"><ele>653.0</ele><time>2026-03-26T17:20:55.999Z</time></trkpt><trkpt lat="44.00664890274886" lon="8.00085362309009"><ele>653.0</ele><time>2026-03-26T17:20:56.999Z</time></trkpt><trkpt lat="44.00674161601385" lon="8.000911779471208"><ele>653.4</ele><time>2026-03-26T17:20:57.999Z</time></trkpt><trkpt lat="44.00679797989629" lon="8.000967785704727"><ele>653.8</ele><time>2026-03-26T17:20:58.999Z</time></trkpt><trkpt lat="44.006798059391535" lon="8.00112746733375"><ele>654.2</ele><time>2026-03-26T17:21:00.999Z</time></trkpt><trkpt lat="44.00672318039086" lon="8.00124085466868"><ele>654.6</ele><time>2026-03-26T17:21:02.999Z</time></trkpt><trkpt lat="44.006668494163875" lon="8.001330474048192"><ele>655.0</ele><time>2026-03-26T17:21:04.999Z</time></trkpt><trkpt lat="44.006622479422454" lon="8.001413357652186"><ele>655.0</ele><time>2026-03-26T17:21:06.999Z</time></trkpt><trkpt lat="44.0065832030651" lon="8.001517071825491"><ele>655.0</ele><time>2026-03-26T17:21:09.999Z</time></trkpt><trkpt lat="44.006556851130036" lon="8.001599760650576"><ele>655.0</ele><time>2026-03-26T17:21:35Z</time></trkpt><trkpt lat="44.00649549137811" lon="8.00178445635546"><ele>655.0</ele><time>2026-03-26T17:21:37Z</time></trkpt><trkpt lat="44.00641325237617" lon="8.001906456480837"><ele>655.0</ele><time>2026-03-26T17:21:38Z</time></trkpt><trkpt lat="44.006297876286325" lon="8.001974353298943"><ele>651.6666666666667</ele><time>2026-03-26T17:21:39Z</time></trkpt><trkpt lat="44.00620102140133" lon="8.001981889339083"><ele>648.3333333333334</ele><time>2026-03-26T17:21:40Z</time></trkpt><trkpt lat="44.00613448259312" lon="8.001965175704523"><ele>645.0</ele><time>2026-03-26T17:21:41Z</time></trkpt><trkpt lat="44.006091983103545" lon="8.00189027889368"><ele>641.6666666666666</ele><time>2026-03-26T17:21:43Z</time></trkpt><trkpt lat="44.00609883676034" lon="8.002089181733627"><ele>638.3333333333333</ele><time>2026-03-26T17:21:48Z</time></trkpt><trkpt lat="44.00615220331273" lon="8.002144431026638"><ele>635.0</ele><time>2026-03-26T17:21:49Z</time></trkpt><trkpt lat="44.00621530362508" lon="8.002168918865914"><ele>635.0</ele><time>2026-03-26T17:21:50Z</time></trkpt><trkpt lat="44.00627993823864" lon="8.00215622519268"><ele>635.0</ele><time>2026-03-26T17:21:52Z</time></trkpt><trkpt lat="44.006374605818024" lon="8.00212249676428"><ele>635.0</ele><time>2026-03-26T17:21:57Z</time></trkpt><trkpt lat="44.0064565963267" lon="8.002079119184861"><ele>635.0</ele><time>2026-03-26T17:21:58Z</time></trkpt><trkpt lat="44.006546698791006" lon="8.001997270427026"><ele>635.0</ele><time>2026-03-26T17:21:59Z</time></trkpt><trkpt lat="44.006632849838056" lon="8.00191135867442"><ele>634.4</ele><time>2026-03-26T17:22:00Z</time></trkpt><trkpt lat="44.006690027619555" lon="8.001803101306876"><ele>633.8</ele><time>2026-03-26T17:22:01Z</time></trkpt><trkpt lat="44.00673285295832" lon="8.001672509770835"><ele>633.2</ele><time>2026-03-26T17:22:02Z</time></trkpt><trkpt lat="44.006796055325886" lon="8.001548496753026"><ele>632.6</ele><time>2026-03-26T17:22:03Z</time></trkpt><trkpt lat="44.00690071142245" lon="8.00146303615952"><ele>632.0</ele><time>2026-03-26T17:22:05Z</time></trkpt><trkpt lat="44.00696438992589" lon="8.001478402834156"><ele>632.0</ele><time>2026-03-26T17:22:06Z</time></trkpt><trkpt lat="44.00708991137731" lon="8.001509308453564"><ele>632.0</ele><time>2026-03-26T17:22:07Z</time></trkpt><trkpt lat="44.007219701705644" lon="8.00154175374843"><ele>632.0</ele><time>2026-03-26T17:22:08Z</time></trkpt><trkpt lat="44.007319898773964" lon="8.001568494682068"><ele>632.0</ele><time>2026-03-26T17:22:09Z</time></trkpt><trkpt lat="44.00739277902977" lon="8.001606207777568"><ele>632.0</ele><time>2026-03-26T17:22:10Z</time></trkpt><trkpt lat="44.00744789645991" lon="8.001663063452998"><ele>627.6</ele><time>2026-03-26T17:22:11Z</time></trkpt><trkpt lat="44.00750678282729" lon="8.001742688492449"><ele>623.2</ele><time>2026-03-26T17:22:12Z</time></trkpt><trkpt lat="44.0075693945957" lon="8.001837147618126"><ele>618.8</ele><time>2026-03-26T17:22:13Z</time></trkpt><trkpt lat="44.007678103149146" lon="8.001913205668865"><ele>614.4</ele><time>2026-03-26T17:22:14.999Z</time></trkpt><trkpt lat="44.007787442640065" lon="8.001955909670503"><ele>610.0</ele><time>2026-03-26T17:22:15.999Z</time></trkpt><trkpt lat="44.007883148573775" lon="8.001977061554882"><ele>610.0</ele><time>2026-03-26T17:22:16.999Z</time></trkpt><trkpt lat="44.00795424125102" lon="8.001980112720139"><ele>610.0</ele><time>2026-03-26T17:22:17.999Z</time></trkpt><trkpt lat="44.008022106367825" lon="8.00194444378562"><ele>610.0</ele><time>2026-03-26T17:22:18.999Z</time></trkpt><trkpt lat="44.00812347055192" lon="8.001860793134302"><ele>610.0</ele><time>2026-03-26T17:22:19.999Z</time></trkpt><trkpt lat="44.008216201185014" lon="8.001804778021496"><ele>610.0</ele><time>2026-03-26T17:22:20.999Z</time></trkpt><trkpt lat="44.00832246774771" lon="8.00179777600961"><ele>607.6</ele><time>2026-03-26T17:22:21.999Z</time></trkpt><trkpt lat="44.008444776579" lon="8.001770045351357"><ele>605.2</ele><time>2026-03-26T17:22:22.999Z</time></trkpt><trkpt lat="44.00855546431939" lon="8.001705008016613"><ele>602.8</ele><time>2026-03-26T17:22:23.999Z</time></trkpt><trkpt lat="44.00860056660945" lon="8.001630387555982"><ele>600.4</ele><time>2026-03-26T17:22:24.999Z</time></trkpt><trkpt lat="44.00866395403266" lon="8.001577618262136"><ele>598.0</ele><time>2026-03-26T17:22:25.999Z</time></trkpt><trkpt lat="44.00877352284295" lon="8.001585231625414"><ele>598.0</ele><time>2026-03-26T17:22:27.999Z</time></trkpt><trkpt lat="44.00886206116109" lon="8.001616880226699"><ele>598.0</ele><time>2026-03-26T17:22:28.999Z</time></trkpt><trkpt lat="44.008962466259035" lon="8.001672019313718"><ele>598.0</ele><time>2026-03-26T17:22:29.999Z</time></trkpt><trkpt lat="44.00906824704793" lon="8.001686283096786"><ele>598.0</ele><time>2026-03-26T17:22:30.999Z</time></trkpt><trkpt lat="44.00916152005944" lon="8.001714637402173"><ele>598.0</ele><time>2026-03-26T17:22:31.999Z</time></trkpt><trkpt lat="44.009252801322" lon="8.001712462501539"><ele>596.1999999999999</ele><time>2026-03-26T17:22:32.999Z</time></trkpt><trkpt lat="44.00933441187035" lon="8.001706762800909"><ele>594.4</ele><time>2026-03-26T17:22:33.999Z</time></trkpt><trkpt lat="44.00940703819282" lon="8.001718868589396"><ele>592.5999999999999</ele><time>2026-03-26T17:22:34.999Z</time></trkpt><trkpt lat="44.00951126272187" lon="8.00176916377557"><ele>590.8</ele><time>2026-03-26T17:22:35.999Z</time></trkpt><trkpt lat="44.00961574865958" lon="8.00181812301681"><ele>589.0</ele><time>2026-03-26T17:22:36.999Z</time></trkpt><trkpt lat="44.00968715428483" lon="8.001885082472302"><ele>589.0</ele><time>2026-03-26T17:22:37.999Z</time></trkpt><trkpt lat="44.00974821028192" lon="8.00199640901886"><ele>589.0</ele><time>2026-03-26T17:22:38.999Z</time></trkpt><trkpt lat="44.00984159664284" lon="8.002147834024628"><ele>589.0</ele><time>2026-03-26T17:22:39.999Z</time></trkpt><trkpt lat="44.00993332110044" lon="8.002287437645025"><ele>589.0</ele><time>2026-03-26T17:22:40.999Z</time></trkpt><trkpt lat="44.00999755695067" lon="8.002334203361462"><ele>584.6</ele><time>2026-03-26T17:22:41.999Z</time></trkpt><trkpt lat="44.0100810722131" lon="8.002328609591988"><ele>580.2</ele><time>2026-03-26T17:22:42.999Z</time></trkpt><trkpt lat="44.01021865907629" lon="8.002310369654479"><ele>575.8000000000001</ele><time>2026-03-26T17:22:43.999Z</time></trkpt><trkpt lat="44.01032524745144" lon="8.002315440953835"><ele>571.4</ele><time>2026-03-26T17:22:44.999Z</time></trkpt><trkpt lat="44.01039521135779" lon="8.002351167194835"><ele>567.0</ele><time>2026-03-26T17:22:45.999Z</time></trkpt><trkpt lat="44.01047577823529" lon="8.002451579077517"><ele>569.2</ele><time>2026-03-26T17:22:46.999Z</time></trkpt><trkpt lat="44.010591595335676" lon="8.002592551444554"><ele>571.4000000000001</ele><time>2026-03-26T17:22:47.999Z</time></trkpt><trkpt lat="44.01067973309594" lon="8.002699934600177"><ele>573.5999999999999</ele><time>2026-03-26T17:22:48.999Z</time></trkpt><trkpt lat="44.010743908008344" lon="8.00273586555648"><ele>575.8</ele><time>2026-03-26T17:22:49.999Z</time></trkpt><trkpt lat="44.010812835097234" lon="8.00277635255344"><ele>578.0</ele><time>2026-03-26T17:22:50.999Z</time></trkpt><trkpt lat="44.0107577673689" lon="8.002725003494826"><ele>578.0</ele><time>2026-03-26T17:22:53.999Z</time></trkpt><trkpt lat="44.01068779707253" lon="8.002718647326487"><ele>578.0</ele><time>2026-03-26T17:23:01.999Z</time></trkpt><trkpt lat="44.01068490485937" lon="8.002846462126726"><ele>578.0</ele><time>2026-03-26T17:23:03.999Z</time></trkpt><trkpt lat="44.010719492057156" lon="8.002961122165695"><ele>578.0</ele><time>2026-03-26T17:23:04.999Z</time></trkpt><trkpt lat="44.01074731493436" lon="8.003138295765382"><ele>578.0</ele><time>2026-03-26T17:23:05.999Z</time></trkpt><trkpt lat="44.01074469258648" lon="8.003291178919289"><ele>576.4</ele><time>2026-03-26T17:23:06.999Z</time></trkpt><trkpt lat="44.010758894294845" lon="8.003406244262617"><ele>574.8</ele><time>2026-03-26T17:23:07.999Z</time></trkpt><trkpt lat="44.01081976300962" lon="8.003490582339742"><ele>573.2</ele><time>2026-03-26T17:23:08.999Z</time></trkpt><trkpt lat="44.010908251728765" lon="8.003602902114778"><ele>571.6</ele><time>2026-03-26T17:23:09.999Z</time></trkpt><trkpt lat="44.01095595468521" lon="8.003730927240804"><ele>570.0</ele><time>2026-03-26T17:23:10.999Z</time></trkpt><trkpt lat="44.01099014034673" lon="8.003901573233227"><ele>570.0</ele><time>2026-03-26T17:23:11.999Z</time></trkpt><trkpt lat="44.01102917836381" lon="8.00412020422475"><ele>570.0</ele><time>2026-03-26T17:23:12.999Z</time></trkpt><trkpt lat="44.011065253780174" lon="8.00437461543719"><ele>570.0</ele><time>2026-03-26T17:23:13.999Z</time></trkpt><trkpt lat="44.01109295371759" lon="8.004591313621185"><ele>567.6</ele><time>2026-03-26T17:23:14.999Z</time></trkpt><trkpt lat="44.01111967395806" lon="8.00475292485655"><ele>565.2</ele><time>2026-03-26T17:23:15.999Z</time></trkpt><trkpt lat="44.011120514063876" lon="8.004903834865535"><ele>562.8</ele><time>2026-03-26T17:23:16.999Z</time></trkpt><trkpt lat="44.01108355327472" lon="8.005035651875845"><ele>560.4</ele><time>2026-03-26T17:23:17.999Z</time></trkpt><trkpt lat="44.011041315600956" lon="8.005189115621784"><ele>558.0</ele><time>2026-03-26T17:23:18.999Z</time></trkpt><trkpt lat="44.01106468982402" lon="8.005300006745625"><ele>555.8</ele><time>2026-03-26T17:23:19.999Z</time></trkpt><trkpt lat="44.01114150339131" lon="8.005427967032803"><ele>553.5999999999999</ele><time>2026-03-26T17:23:20.999Z</time></trkpt><trkpt lat="44.011186985051665" lon="8.005582846393"><ele>551.4000000000001</ele><time>2026-03-26T17:23:22Z</time></trkpt><trkpt lat="44.01121440232241" lon="8.005663450184219"><ele>549.2</ele><time>2026-03-26T17:23:23Z</time></trkpt><trkpt lat="44.01127596803555" lon="8.00574467793198"><ele>547.0</ele><time>2026-03-26T17:23:24Z</time></trkpt><trkpt lat="44.011353937973645" lon="8.005801546710781"><ele>547.0</ele><time>2026-03-26T17:23:25Z</time></trkpt><trkpt lat="44.011493412985764" lon="8.005726571223054"><ele>547.0</ele><time>2026-03-26T17:23:27Z</time></trkpt><trkpt lat="44.011601406138745" lon="8.00561291944265"><ele>547.0</ele><time>2026-03-26T17:23:28Z</time></trkpt><trkpt lat="44.011670492276764" lon="8.005530354908824"><ele>547.0</ele><time>2026-03-26T17:23:29Z</time></trkpt><trkpt lat="44.01171222012157" lon="8.005453682603088"><ele>547.0</ele><time>2026-03-26T17:23:30Z</time></trkpt><trkpt lat="44.011894729239145" lon="8.005378246813072"><ele>555.0</ele><time>2026-03-26T17:23:32Z</time></trkpt><trkpt lat="44.01205968082444" lon="8.005385750558712"><ele>563.0</ele><time>2026-03-26T17:23:33Z</time></trkpt><trkpt lat="44.01223093788846" lon="8.005381830210371"><ele>571.0</ele><time>2026-03-26T17:23:34Z</time></trkpt><trkpt lat="44.01235763998534" lon="8.00536030511824"><ele>571.0</ele><time>2026-03-26T17:23:35Z</time></trkpt><trkpt lat="44.01246030478952" lon="8.005308438528234"><ele>571.0</ele><time>2026-03-26T17:23:36Z</time></trkpt><trkpt lat="44.012594835699495" lon="8.005222312156382"><ele>571.0</ele><time>2026-03-26T17:23:37Z</time></trkpt><trkpt lat="44.012716029675786" lon="8.00513076920066"><ele>571.0</ele><time>2026-03-26T17:23:38Z</time></trkpt><trkpt lat="44.01280834543854" lon="8.005085390907281"><ele>567.25</ele><time>2026-03-26T17:23:39Z</time></trkpt><trkpt lat="44.01291298095389" lon="8.005051863950888"><ele>563.5</ele><time>2026-03-26T17:23:40Z</time></trkpt><trkpt lat="44.013040085996565" lon="8.005062218792943"><ele>559.75</ele><time>2026-03-26T17:23:41Z</time></trkpt><trkpt lat="44.01318254337053" lon="8.005084294525815"><ele>556.0</ele><time>2026-03-26T17:23:42Z</time></trkpt><trkpt lat="44.013287139678496" lon="8.005115545176057"><ele>553.6</ele><time>2026-03-26T17:23:43Z</time></trkpt><trkpt lat="44.01338727536391" lon="8.005181483857697"><ele>551.2</ele><time>2026-03-26T17:23:44Z</time></trkpt><trkpt lat="44.013454243913515" lon="8.005230691485366"><ele>548.8</ele><time>2026-03-26T17:23:45Z</time></trkpt><trkpt lat="44.01351913723341" lon="8.005172618892551"><ele>546.4</ele><time>2026-03-26T17:23:47Z</time></trkpt><trkpt lat="44.01357783412001" lon="8.005088165155785"><ele>544.0</ele><time>2026-03-26T17:23:48Z</time></trkpt><trkpt lat="44.0136609704351" lon="8.00499879672112"><ele>544.0</ele><time>2026-03-26T17:23:49Z</time></trkpt><trkpt lat="44.01379017741714" lon="8.004965171470662"><ele>544.0</ele><time>2026-03-26T17:23:51Z</time></trkpt><trkpt lat="44.013919135752985" lon="8.004972690687177"><ele>544.0</ele><time>2026-03-26T17:23:52Z</time></trkpt><trkpt lat="44.01406632241372" lon="8.004998942153955"><ele>544.0</ele><time>2026-03-26T17:23:53Z</time></trkpt><trkpt lat="44.014169655397225" lon="8.005021434997076"><ele>542.4</ele><time>2026-03-26T17:23:54Z</time></trkpt><trkpt lat="44.01426386064759" lon="8.00508028953759"><ele>540.8</ele><time>2026-03-26T17:23:55Z</time></trkpt><trkpt lat="44.014348700267135" lon="8.005185310049933"><ele>539.2</ele><time>2026-03-26T17:23:56Z</time></trkpt><trkpt lat="44.01443252033405" lon="8.00529201630557"><ele>537.6</ele><time>2026-03-26T17:23:57Z</time></trkpt><trkpt lat="44.01451987946744" lon="8.005341198628452"><ele>536.0</ele><time>2026-03-26T17:23:58Z</time></trkpt><trkpt lat="44.01462067233127" lon="8.005374795398836"><ele>536.0</ele><time>2026-03-26T17:23:59Z</time></trkpt><trkpt lat="44.01471401460788" lon="8.005420411846758"><ele>536.0</ele><time>2026-03-26T17:23:59.999Z</time></trkpt><trkpt lat="44.014768042092925" lon="8.005557765442964"><ele>536.0</ele><time>2026-03-26T17:24:00.999Z</time></trkpt><trkpt lat="44.014828492357196" lon="8.005695231718846"><ele>536.0</ele><time>2026-03-26T17:24:01.999Z</time></trkpt><trkpt lat="44.01491366995565" lon="8.005845400221396"><ele>535.8</ele><time>2026-03-26T17:24:02.999Z</time></trkpt><trkpt lat="44.01497594176638" lon="8.005959046562447"><ele>535.6</ele><time>2026-03-26T17:24:03.999Z</time></trkpt><trkpt lat="44.015039984378184" lon="8.006071181493212"><ele>535.4</ele><time>2026-03-26T17:24:04.999Z</time></trkpt><trkpt lat="44.015110366940924" lon="8.006207964892468"><ele>535.2</ele><time>2026-03-26T17:24:05.999Z</time></trkpt><trkpt lat="44.01517655771227" lon="8.006349537586459"><ele>535.0</ele><time>2026-03-26T17:24:06.999Z</time></trkpt><trkpt lat="44.01524525040911" lon="8.006465053754592"><ele>535.0</ele><time>2026-03-26T17:24:07.999Z</time></trkpt><trkpt lat="44.01529674059147" lon="8.006534412058354"><ele>535.0</ele><time>2026-03-26T17:24:08.999Z</time></trkpt><trkpt lat="44.01536196759885" lon="8.00655954855485"><ele>535.0</ele><time>2026-03-26T17:24:09.999Z</time></trkpt><trkpt lat="44.01540653015776" lon="8.006650968448549"><ele>535.0</ele><time>2026-03-26T17:24:11.999Z</time></trkpt><trkpt lat="44.01529326741938" lon="8.006684499861926"><ele>535.0</ele><time>2026-03-26T17:24:13.999Z</time></trkpt><trkpt lat="44.01522883025569" lon="8.006649774453843"><ele>535.0</ele><time>2026-03-26T17:24:14.999Z</time></trkpt><trkpt lat="44.015160614376356" lon="8.006571712119795"><ele>535.0</ele><time>2026-03-26T17:24:15.999Z</time></trkpt><trkpt lat="44.01512167157259" lon="8.00646134763402"><ele>535.0</ele><time>2026-03-26T17:24:16.999Z</time></trkpt><trkpt lat="44.015056204344226" lon="8.00629946217073"><ele>535.0</ele><time>2026-03-26T17:24:17.999Z</time></trkpt><trkpt lat="44.01496034361275" lon="8.006140484581374"><ele>535.0</ele><time>2026-03-26T17:24:18.999Z</time></trkpt><trkpt lat="44.01487216246793" lon="8.006006180970228"><ele>535.25</ele><time>2026-03-26T17:24:19.999Z</time></trkpt><trkpt lat="44.01476916359759" lon="8.005911926749995"><ele>535.5</ele><time>2026-03-26T17:24:20.999Z</time></trkpt><trkpt lat="44.01465456803519" lon="8.005780197132161"><ele>535.75</ele><time>2026-03-26T17:24:21.999Z</time></trkpt><trkpt lat="44.01456673623571" lon="8.005674550762649"><ele>536.0</ele><time>2026-03-26T17:24:22.999Z</time></trkpt><trkpt lat="44.01445094836945" lon="8.005606516158347"><ele>536.0</ele><time>2026-03-26T17:24:23.999Z</time></trkpt><trkpt lat="44.01430935632377" lon="8.005541809554641"><ele>536.0</ele><time>2026-03-26T17:24:24.999Z</time></trkpt><trkpt lat="44.014208550408846" lon="8.005511702202563"><ele>536.0</ele><time>2026-03-26T17:24:25.999Z</time></trkpt><trkpt lat="44.01411519362181" lon="8.00548546322181"><ele>536.0</ele><time>2026-03-26T17:24:26.999Z</time></trkpt><trkpt lat="44.01399816230643" lon="8.005481929639194"><ele>537.6</ele><time>2026-03-26T17:24:27.999Z</time></trkpt><trkpt lat="44.01388993758096" lon="8.005474009273236"><ele>539.2</ele><time>2026-03-26T17:24:28.999Z</time></trkpt><trkpt lat="44.01381413487528" lon="8.005523897584698"><ele>540.8</ele><time>2026-03-26T17:24:29.999Z</time></trkpt><trkpt lat="44.01373287886729" lon="8.005627197196619"><ele>542.4</ele><time>2026-03-26T17:24:30.999Z</time></trkpt><trkpt lat="44.013638509193754" lon="8.00572143531728"><ele>544.0</ele><time>2026-03-26T17:24:31.999Z</time></trkpt><trkpt lat="44.013525239816595" lon="8.0058378678795"><ele>542.0</ele><time>2026-03-26T17:24:32.999Z</time></trkpt><trkpt lat="44.013446790030805" lon="8.005932178713175"><ele>540.0</ele><time>2026-03-26T17:24:33.999Z</time></trkpt><trkpt lat="44.013384034407494" lon="8.006027723116931"><ele>538.0</ele><time>2026-03-26T17:24:34.999Z</time></trkpt><trkpt lat="44.013315852615555" lon="8.006100528212935"><ele>536.0</ele><time>2026-03-26T17:24:35.999Z</time></trkpt><trkpt lat="44.01325275350192" lon="8.006122406552866"><ele>534.0</ele><time>2026-03-26T17:24:36.999Z</time></trkpt><trkpt lat="44.013168569317" lon="8.00613367853599"><ele>532.0</ele><time>2026-03-26T17:24:37.999Z</time></trkpt><trkpt lat="44.01303902298432" lon="8.00615605160821"><ele>532.0</ele><time>2026-03-26T17:24:38.999Z</time></trkpt><trkpt lat="44.01294716271331" lon="8.006174992718584"><ele>532.0</ele><time>2026-03-26T17:24:39.999Z</time></trkpt><trkpt lat="44.01282033338762" lon="8.006226209266144"><ele>532.0</ele><time>2026-03-26T17:24:40.999Z</time></trkpt><trkpt lat="44.01268821697121" lon="8.006243464218304"><ele>532.0</ele><time>2026-03-26T17:24:41.999Z</time></trkpt><trkpt lat="44.01260412185738" lon="8.006290030113288"><ele>532.0</ele><time>2026-03-26T17:24:42.999Z</time></trkpt><trkpt lat="44.012551731799384" lon="8.006370929622431"><ele>532.0</ele><time>2026-03-26T17:24:43.999Z</time></trkpt><trkpt lat="44.01251278855273" lon="8.00649174795145"><ele>532.0</ele><time>2026-03-26T17:24:44.999Z</time></trkpt><trkpt lat="44.01246254902251" lon="8.006578639040438"><ele>532.0</ele><time>2026-03-26T17:24:45.999Z</time></trkpt><trkpt lat="44.01238445766069" lon="8.006625883903942"><ele>532.0</ele><time>2026-03-26T17:24:46.999Z</time></trkpt><trkpt lat="44.012284610300235" lon="8.006644675013572"><ele>532.0</ele><time>2026-03-26T17:24:47.999Z</time></trkpt><trkpt lat="44.01215995943461" lon="8.00668591267456"><ele>530.0</ele><time>2026-03-26T17:24:48.999Z</time></trkpt><trkpt lat="44.0120601938389" lon="8.00677118049774"><ele>528.0</ele><time>2026-03-26T17:24:49.999Z</time></trkpt><trkpt lat="44.01200348992735" lon="8.006854194581823"><ele>526.0</ele><time>2026-03-26T17:24:50.999Z</time></trkpt><trkpt lat="44.011963556064124" lon="8.006933740197953"><ele>524.0</ele><time>2026-03-26T17:24:51.999Z</time></trkpt><trkpt lat="44.01189629737868" lon="8.007027528411987"><ele>522.0</ele><time>2026-03-26T17:24:52.999Z</time></trkpt><trkpt lat="44.01179670579276" lon="8.007130003388482"><ele>522.0</ele><time>2026-03-26T17:24:53.999Z</time></trkpt><trkpt lat="44.01173194563257" lon="8.007229949560521"><ele>522.0</ele><time>2026-03-26T17:24:54.999Z</time></trkpt><trkpt lat="44.011668314923014" lon="8.007336946250385"><ele>522.0</ele><time>2026-03-26T17:24:55.999Z</time></trkpt><trkpt lat="44.01159091045342" lon="8.007450287759651"><ele>522.0</ele><time>2026-03-26T17:24:56.999Z</time></trkpt><trkpt lat="44.01152496206829" lon="8.00755826667649"><ele>522.0</ele><time>2026-03-26T17:24:57.999Z</time></trkpt><trkpt lat="44.01149087495717" lon="8.007669920179849"><ele>515.4</ele><time>2026-03-26T17:24:58.999Z</time></trkpt><trkpt lat="44.01144054330274" lon="8.007758185407756"><ele>508.80000000000007</ele><time>2026-03-26T17:24:59.999Z</time></trkpt><trkpt lat="44.01136513142206" lon="8.007828398523454"><ele>502.2</ele><time>2026-03-26T17:25:01.999Z</time></trkpt><trkpt lat="44.0112669185413" lon="8.007724491933459"><ele>495.6</ele><time>2026-03-26T17:25:03.999Z</time></trkpt><trkpt lat="44.01120880758677" lon="8.00762273931869"><ele>489.0</ele><time>2026-03-26T17:25:04.999Z</time></trkpt><trkpt lat="44.0111245515007" lon="8.007502478194219"><ele>488.4</ele><time>2026-03-26T17:25:05.999Z</time></trkpt><trkpt lat="44.011036640079396" lon="8.007425258460893"><ele>487.79999999999995</ele><time>2026-03-26T17:25:06.999Z</time></trkpt><trkpt lat="44.01093396760793" lon="8.007401150371702"><ele>487.20000000000005</ele><time>2026-03-26T17:25:07.999Z</time></trkpt><trkpt lat="44.01083327539758" lon="8.007398828517323"><ele>486.6</ele><time>2026-03-26T17:25:08.999Z</time></trkpt><trkpt lat="44.0107352738117" lon="8.007408560619195"><ele>486.0</ele><time>2026-03-26T17:25:09.999Z</time></trkpt><trkpt lat="44.010665417422345" lon="8.007377844260269"><ele>486.0</ele><time>2026-03-26T17:25:10.999Z</time></trkpt><trkpt lat="44.01059791866838" lon="8.007283875187243"><ele>486.0</ele><time>2026-03-26T17:25:11.999Z</time></trkpt><trkpt lat="44.010541022279696" lon="8.007135843829833"><ele>486.0</ele><time>2026-03-26T17:25:12.999Z</time></trkpt><trkpt lat="44.01048658744286" lon="8.007026087739211"><ele>486.0</ele><time>2026-03-26T17:25:13.999Z</time></trkpt><trkpt lat="44.01041361759679" lon="8.007003846688962"><ele>486.0</ele><time>2026-03-26T17:25:14.999Z</time></trkpt><trkpt lat="44.010294866502804" lon="8.007004563434386"><ele>486.0</ele><time>2026-03-26T17:25:15.999Z</time></trkpt><trkpt lat="44.010198776101696" lon="8.006949314641725"><ele>486.0</ele><time>2026-03-26T17:25:16.999Z</time></trkpt><trkpt lat="44.010145329798156" lon="8.006860174042346"><ele>486.0</ele><time>2026-03-26T17:25:17.999Z</time></trkpt><trkpt lat="44.010107086725206" lon="8.00675744349697"><ele>486.0</ele><time>2026-03-26T17:25:18.999Z</time></trkpt><trkpt lat="44.01003903728037" lon="8.006752631725464"><ele>486.0</ele><time>2026-03-26T17:25:19.999Z</time></trkpt><trkpt lat="44.009943032811826" lon="8.006758184834295"><ele>486.0</ele><time>2026-03-26T17:25:20.999Z</time></trkpt><trkpt lat="44.00986743104437" lon="8.006777073220986"><ele>486.0</ele><time>2026-03-26T17:25:21.999Z</time></trkpt><trkpt lat="44.00985151531616" lon="8.00688211099925"><ele>486.0</ele><time>2026-03-26T17:25:23.999Z</time></trkpt><trkpt lat="44.00995501564786" lon="8.006903720055153"><ele>486.0</ele><time>2026-03-26T17:25:25.999Z</time></trkpt><trkpt lat="44.010043034449275" lon="8.006863848190413"><ele>486.0</ele><time>2026-03-26T17:25:26.999Z</time></trkpt><trkpt lat="44.010111771770774" lon="8.00687562141204"><ele>486.0</ele><time>2026-03-26T17:25:28Z</time></trkpt><trkpt lat="44.01015941620253" lon="8.006960066490448"><ele>486.0</ele><time>2026-03-26T17:25:29Z</time></trkpt><trkpt lat="44.01023044522678" lon="8.00707227782318"><ele>486.0</ele><time>2026-03-26T17:25:30Z</time></trkpt><trkpt lat="44.010337078512" lon="8.00717733321654"><ele>486.0</ele><time>2026-03-26T17:25:31Z</time></trkpt><trkpt lat="44.010411512696955" lon="8.00724776803764"><ele>486.0</ele><time>2026-03-26T17:25:32Z</time></trkpt><trkpt lat="44.01042562480765" lon="8.007473198935445"><ele>486.0</ele><time>2026-03-26T17:25:34Z</time></trkpt><trkpt lat="44.01048582909522" lon="8.007612469082638"><ele>486.6</ele><time>2026-03-26T17:25:35Z</time></trkpt><trkpt lat="44.010540414165355" lon="8.007700504949064"><ele>487.20000000000005</ele><time>2026-03-26T17:25:36Z</time></trkpt><trkpt lat="44.010604386394554" lon="8.007767859387588"><ele>487.79999999999995</ele><time>2026-03-26T17:25:37Z</time></trkpt><trkpt lat="44.01072207560668" lon="8.00776633922371"><ele>488.4</ele><time>2026-03-26T17:25:38Z</time></trkpt><trkpt lat="44.010833861804045" lon="8.007774191770306"><ele>489.0</ele><time>2026-03-26T17:25:39Z</time></trkpt><trkpt lat="44.01089617782965" lon="8.007828624462126"><ele>489.0</ele><time>2026-03-26T17:25:40Z</time></trkpt><trkpt lat="44.01095833674264" lon="8.00788551341811"><ele>489.0</ele><time>2026-03-26T17:25:41Z</time></trkpt><trkpt lat="44.01099222914208" lon="8.007998819473686"><ele>489.0</ele><time>2026-03-26T17:25:42Z</time></trkpt><trkpt lat="44.01106405240279" lon="8.00812537927683"><ele>489.0</ele><time>2026-03-26T17:25:43Z</time></trkpt><trkpt lat="44.011092360844614" lon="8.008248825095537"><ele>489.0</ele><time>2026-03-26T17:25:44Z</time></trkpt><trkpt lat="44.011147781626256" lon="8.00834786598298"><ele>483.3333333333333</ele><time>2026-03-26T17:25:45Z</time></trkpt><trkpt lat="44.01118439113428" lon="8.008458814869181"><ele>477.66666666666663</ele><time>2026-03-26T17:25:46Z</time></trkpt><trkpt lat="44.01121862817732" lon="8.008560975535861"><ele>472.0</ele><time>2026-03-26T17:25:47Z</time></trkpt><trkpt lat="44.011271235968096" lon="8.008651144115568"><ele>466.3333333333333</ele><time>2026-03-26T17:25:48Z</time></trkpt><trkpt lat="44.011319004025516" lon="8.008742528883827"><ele>460.66666666666663</ele><time>2026-03-26T17:25:49Z</time></trkpt><trkpt lat="44.0113679478632" lon="8.008818299091157"><ele>455.0</ele><time>2026-03-26T17:25:50Z</time></trkpt><trkpt lat="44.01142848164254" lon="8.008880474860618"><ele>454.99999999999994</ele><time>2026-03-26T17:25:51Z</time></trkpt><trkpt lat="44.011495796934355" lon="8.008902086232483"><ele>455.0</ele><time>2026-03-26T17:25:52Z</time></trkpt><trkpt lat="44.01156709324187" lon="8.008880278381524"><ele>455.0</ele><time>2026-03-26T17:25:53Z</time></trkpt><trkpt lat="44.011629811454405" lon="8.008814957597448"><ele>455.0</ele><time>2026-03-26T17:25:54Z</time></trkpt><trkpt lat="44.0117185816233" lon="8.008756981761746"><ele>454.99999999999994</ele><time>2026-03-26T17:25:55Z</time></trkpt><trkpt lat="44.0118137191725" lon="8.008673937103328"><ele>455.0</ele><time>2026-03-26T17:25:56Z</time></trkpt><trkpt lat="44.01189985685626" lon="8.008655780801794"><ele>458.0</ele><time>2026-03-26T17:25:57Z</time></trkpt><trkpt lat="44.01196865974618" lon="8.008622853562793"><ele>461.0</ele><time>2026-03-26T17:25:58Z</time></trkpt><trkpt lat="44.0120393189189" lon="8.008578862509598"><ele>464.0</ele><time>2026-03-26T17:25:59Z</time></trkpt><trkpt lat="44.01209793682427" lon="8.008383717201987"><ele>467.0</ele><time>2026-03-26T17:26:01Z</time></trkpt><trkpt lat="44.012125255445646" lon="8.008245906723227"><ele>470.0</ele><time>2026-03-26T17:26:02Z</time></trkpt><trkpt lat="44.01216612183345" lon="8.008102066178093"><ele>472.0</ele><time>2026-03-26T17:26:03Z</time></trkpt><trkpt lat="44.01220793269311" lon="8.00799525589274"><ele>474.0</ele><time>2026-03-26T17:26:04Z</time></trkpt><trkpt lat="44.0123124871974" lon="8.007965102337778"><ele>476.0</ele><time>2026-03-26T17:26:06Z</time></trkpt><trkpt lat="44.01238923642169" lon="8.008027053330332"><ele>478.0</ele><time>2026-03-26T17:26:07Z</time></trkpt><trkpt lat="44.01248225994759" lon="8.008110744830391"><ele>480.0</ele><time>2026-03-26T17:26:08Z</time></trkpt><trkpt lat="44.01258263551499" lon="8.008190632849773"><ele>480.0</ele><time>2026-03-26T17:26:09Z</time></trkpt><trkpt lat="44.012652448969924" lon="8.008251724425287"><ele>480.0</ele><time>2026-03-26T17:26:10Z</time></trkpt><trkpt lat="44.01273950628847" lon="8.008144441579518"><ele>480.0</ele><time>2026-03-26T17:26:12Z</time></trkpt><trkpt lat="44.01277738390524" lon="8.008035049818172"><ele>480.0</ele><time>2026-03-26T17:26:13Z</time></trkpt><trkpt lat="44.012828646046415" lon="8.00795596646666"><ele>480.0</ele><time>2026-03-26T17:26:14Z</time></trkpt><trkpt lat="44.01290196089323" lon="8.007907464598713"><ele>480.0</ele><time>2026-03-26T17:26:16Z</time></trkpt><trkpt lat="44.012968023121985" lon="8.007902017438528"><ele>480.0</ele><time>2026-03-26T17:26:17Z</time></trkpt><trkpt lat="44.0130081657984" lon="8.007791621905415"><ele>480.0</ele><time>2026-03-26T17:26:18Z</time></trkpt><trkpt lat="44.01306991552397" lon="8.007660391741776"><ele>480.0</ele><time>2026-03-26T17:26:19Z</time></trkpt><trkpt lat="44.01313121632479" lon="8.00757328291298"><ele>480.0</ele><time>2026-03-26T17:26:20Z</time></trkpt><trkpt lat="44.013197942448265" lon="8.007551265312719"><ele>480.0</ele><time>2026-03-26T17:26:21Z</time></trkpt><trkpt lat="44.01330017937581" lon="8.007552918858442"><ele>481.8</ele><time>2026-03-26T17:26:22Z</time></trkpt><trkpt lat="44.01343458948121" lon="8.007559477226687"><ele>483.6</ele><time>2026-03-26T17:26:23Z</time></trkpt><trkpt lat="44.01353713650386" lon="8.007567058785375"><ele>485.4</ele><time>2026-03-26T17:26:24Z</time></trkpt><trkpt lat="44.01360784541765" lon="8.007529652719791"><ele>487.2</ele><time>2026-03-26T17:26:24.999Z</time></trkpt><trkpt lat="44.013702334463744" lon="8.007451162742234"><ele>489.0</ele><time>2026-03-26T17:26:25.999Z</time></trkpt><trkpt lat="44.01380706633118" lon="8.007341365946573"><ele>489.0</ele><time>2026-03-26T17:26:26.999Z</time></trkpt><trkpt lat="44.01387509092226" lon="8.007252798622918"><ele>489.0</ele><time>2026-03-26T17:26:27.999Z</time></trkpt><trkpt lat="44.01393553143823" lon="8.00729192455809"><ele>489.0</ele><time>2026-03-26T17:26:29.999Z</time></trkpt><trkpt lat="44.01398451389187" lon="8.00736594744079"><ele>489.0</ele><time>2026-03-26T17:26:30.999Z</time></trkpt><trkpt lat="44.01406074368523" lon="8.007454535751043"><ele>489.0</ele><time>2026-03-26T17:26:31.999Z</time></trkpt><trkpt lat="44.01415782063162" lon="8.007507846745153"><ele>489.0</ele><time>2026-03-26T17:26:32.999Z</time></trkpt><trkpt lat="44.01427717939606" lon="8.007527477977813"><ele>481.79999999999995</ele><time>2026-03-26T17:26:33.999Z</time></trkpt><trkpt lat="44.014394263878124" lon="8.007570346868611"><ele>474.59999999999997</ele><time>2026-03-26T17:26:34.999Z</time></trkpt><trkpt lat="44.014482980499366" lon="8.00766412429053"><ele>467.4</ele><time>2026-03-26T17:26:35.999Z</time></trkpt><trkpt lat="44.014570986689336" lon="8.007791512453398"><ele>460.2</ele><time>2026-03-26T17:26:36.999Z</time></trkpt><trkpt lat="44.01462637367294" lon="8.007883621096768"><ele>453.0</ele><time>2026-03-26T17:26:37.999Z</time></trkpt><trkpt lat="44.01465370148223" lon="8.007969427354036"><ele>453.0</ele><time>2026-03-26T17:26:38.999Z</time></trkpt><trkpt lat="44.01471672876015" lon="8.008102727142845"><ele>453.0</ele><time>2026-03-26T17:26:39.999Z</time></trkpt><trkpt lat="44.01478744825871" lon="8.008263784174323"><ele>453.0</ele><time>2026-03-26T17:26:40.999Z</time></trkpt><trkpt lat="44.0148499095268" lon="8.008445974675775"><ele>453.0</ele><time>2026-03-26T17:26:41.999Z</time></trkpt><trkpt lat="44.014914426589876" lon="8.008586381945493"><ele>451.59999999999997</ele><time>2026-03-26T17:26:42.999Z</time></trkpt><trkpt lat="44.01498925161405" lon="8.008706212590111"><ele>450.19999999999993</ele><time>2026-03-26T17:26:43.999Z</time></trkpt><trkpt lat="44.01504621575521" lon="8.008810975750777"><ele>448.8</ele><time>2026-03-26T17:26:44.999Z</time></trkpt><trkpt lat="44.01514430237258" lon="8.008791113616434"><ele>447.4</ele><time>2026-03-26T17:26:46.999Z</time></trkpt><trkpt lat="44.01520106499332" lon="8.008748003258214"><ele>446.0</ele><time>2026-03-26T17:26:47.999Z</time></trkpt><trkpt lat="44.015255575099076" lon="8.00866891905466"><ele>445.99999999999994</ele><time>2026-03-26T17:26:48.999Z</time></trkpt><trkpt lat="44.01532508734003" lon="8.008580647536476"><ele>446.0</ele><time>2026-03-26T17:26:49.999Z</time></trkpt><trkpt lat="44.01538202380551" lon="8.008514050329161"><ele>446.0</ele><time>2026-03-26T17:26:50.999Z</time></trkpt><trkpt lat="44.015449588685755" lon="8.00848735517628"><ele>446.0</ele><time>2026-03-26T17:26:51.999Z</time></trkpt><trkpt lat="44.01552742218852" lon="8.008482249276064"><ele>445.99999999999994</ele><time>2026-03-26T17:26:52.999Z</time></trkpt><trkpt lat="44.01561067329311" lon="8.0083638530391"><ele>446.0</ele><time>2026-03-26T17:26:54.999Z</time></trkpt><trkpt lat="44.01566335443495" lon="8.008292764196215"><ele>450.6</ele><time>2026-03-26T17:26:55.999Z</time></trkpt><trkpt lat="44.01575381089484" lon="8.008243362578574"><ele>455.20000000000005</ele><time>2026-03-26T17:26:56.999Z</time></trkpt><trkpt lat="44.01583507666995" lon="8.008191328399603"><ele>459.79999999999995</ele><time>2026-03-26T17:26:57.999Z</time></trkpt><trkpt lat="44.015908648238536" lon="8.008140312827882"><ele>464.4</ele><time>2026-03-26T17:26:58.999Z</time></trkpt><trkpt lat="44.01598477261819" lon="8.008090901299802"><ele>469.0</ele><time>2026-03-26T17:26:59.999Z</time></trkpt><trkpt lat="44.016083012179706" lon="8.008122432613392"><ele>469.0</ele><time>2026-03-26T17:27:00.999Z</time></trkpt><trkpt lat="44.01621082710461" lon="8.0081348331197"><ele>469.0</ele><time>2026-03-26T17:27:01.999Z</time></trkpt><trkpt lat="44.01633608878044" lon="8.008131772274941"><ele>469.0</ele><time>2026-03-26T17:27:02.999Z</time></trkpt><trkpt lat="44.01640493683509" lon="8.008184579997074"><ele>469.0</ele><time>2026-03-26T17:27:04.999Z</time></trkpt><trkpt lat="44.01636984379834" lon="8.008258367699305"><ele>469.0</ele><time>2026-03-26T17:27:06.999Z</time></trkpt><trkpt lat="44.01623857351457" lon="8.008225551195554"><ele>469.0</ele><time>2026-03-26T17:27:08.999Z</time></trkpt><trkpt lat="44.01617645887326" lon="8.008299610840568"><ele>469.0</ele><time>2026-03-26T17:27:09.999Z</time></trkpt><trkpt lat="44.01609911535738" lon="8.008407461562847"><ele>469.0</ele><time>2026-03-26T17:27:10.999Z</time></trkpt><trkpt lat="44.01598325071701" lon="8.008479321723547"><ele>469.0</ele><time>2026-03-26T17:27:11.999Z</time></trkpt><trkpt lat="44.015896622420904" lon="8.008496157223666"><ele>469.0</ele><time>2026-03-26T17:27:12.999Z</time></trkpt><trkpt lat="44.015815148214195" lon="8.008552598640147"><ele>465.1666666666667</ele><time>2026-03-26T17:27:13.999Z</time></trkpt><trkpt lat="44.01574780060752" lon="8.008620775278967"><ele>461.33333333333337</ele><time>2026-03-26T17:27:14.999Z</time></trkpt><trkpt lat="44.015685672709914" lon="8.008696470550735"><ele>457.5</ele><time>2026-03-26T17:27:15.999Z</time></trkpt><trkpt lat="44.01562004045618" lon="8.008769991227352"><ele>453.66666666666663</ele><time>2026-03-26T17:27:16.999Z</time></trkpt><trkpt lat="44.015546624487655" lon="8.008824521357385"><ele>449.8333333333333</ele><time>2026-03-26T17:27:17.999Z</time></trkpt><trkpt lat="44.01551863483174" lon="8.00892263979345"><ele>446.0</ele><time>2026-03-26T17:27:18.999Z</time></trkpt><trkpt lat="44.015461189823974" lon="8.009016914759567"><ele>440.0</ele><time>2026-03-26T17:27:19.999Z</time></trkpt><trkpt lat="44.01539304140453" lon="8.00917436706936"><ele>434.0</ele><time>2026-03-26T17:27:20.999Z</time></trkpt><trkpt lat="44.01534862525709" lon="8.009333651063956"><ele>428.0</ele><time>2026-03-26T17:27:21.999Z</time></trkpt><trkpt lat="44.01535101438139" lon="8.009453512284582"><ele>422.0</ele><time>2026-03-26T17:27:22.999Z</time></trkpt><trkpt lat="44.01535338410202" lon="8.009575358321724"><ele>416.0</ele><time>2026-03-26T17:27:23.999Z</time></trkpt><trkpt lat="44.01535024939416" lon="8.009721616902453"><ele>415.99999999999994</ele><time>2026-03-26T17:27:24.999Z</time></trkpt><trkpt lat="44.0153490627902" lon="8.00983679447179"><ele>416.0</ele><time>2026-03-26T17:27:25.999Z</time></trkpt><trkpt lat="44.01542950314106" lon="8.00985963065491"><ele>416.0</ele><time>2026-03-26T17:27:28.999Z</time></trkpt><trkpt lat="44.01551094923099" lon="8.00974623766609"><ele>416.0</ele><time>2026-03-26T17:27:30.999Z</time></trkpt><trkpt lat="44.01554800949429" lon="8.009662391368568"><ele>415.99999999999994</ele><time>2026-03-26T17:27:31.999Z</time></trkpt><trkpt lat="44.01557158748064" lon="8.009555455283431"><ele>416.0</ele><time>2026-03-26T17:27:32.999Z</time></trkpt><trkpt lat="44.0156504775109" lon="8.009405232773878"><ele>416.0</ele><time>2026-03-26T17:27:35Z</time></trkpt><trkpt lat="44.01572594861934" lon="8.009352074848126"><ele>416.0</ele><time>2026-03-26T17:27:36Z</time></trkpt><trkpt lat="44.01581145480909" lon="8.00931960145176"><ele>416.0</ele><time>2026-03-26T17:27:37Z</time></trkpt><trkpt lat="44.015939106764385" lon="8.009409058066035"><ele>416.0</ele><time>2026-03-26T17:27:39Z</time></trkpt><trkpt lat="44.01601077048813" lon="8.009482329926318"><ele>416.0</ele><time>2026-03-26T17:27:40Z</time></trkpt><trkpt lat="44.01606740449516" lon="8.009526651124045"><ele>414.25</ele><time>2026-03-26T17:27:41Z</time></trkpt><trkpt lat="44.016156963068255" lon="8.009558926980283"><ele>412.5</ele><time>2026-03-26T17:27:42Z</time></trkpt><trkpt lat="44.01625069782454" lon="8.00958616071093"><ele>410.75</ele><time>2026-03-26T17:27:43Z</time></trkpt><trkpt lat="44.016312592109315" lon="8.009708335898674"><ele>409.0</ele><time>2026-03-26T17:27:44Z</time></trkpt><trkpt lat="44.01641940536175" lon="8.009893879535388"><ele>406.2</ele><time>2026-03-26T17:27:45Z</time></trkpt><trkpt lat="44.016519510131985" lon="8.010038078446938"><ele>403.4</ele><time>2026-03-26T17:27:46Z</time></trkpt><trkpt lat="44.01657527327717" lon="8.010112320097544"><ele>400.6</ele><time>2026-03-26T17:27:47Z</time></trkpt><trkpt lat="44.01661283544382" lon="8.010209007688477"><ele>397.8</ele><time>2026-03-26T17:27:48Z</time></trkpt><trkpt lat="44.01666103975193" lon="8.010316492453017"><ele>395.0</ele><time>2026-03-26T17:27:49Z</time></trkpt><trkpt lat="44.016778597701084" lon="8.01031328861602"><ele>395.0</ele><time>2026-03-26T17:27:51Z</time></trkpt><trkpt lat="44.0168746226887" lon="8.010274655971749"><ele>395.0</ele><time>2026-03-26T17:27:52Z</time></trkpt><trkpt lat="44.01699059131995" lon="8.010254560099783"><ele>395.0</ele><time>2026-03-26T17:27:53Z</time></trkpt><trkpt lat="44.01709181707132" lon="8.010271093916637"><ele>395.0</ele><time>2026-03-26T17:27:54Z</time></trkpt><trkpt lat="44.01717297476269" lon="8.010310855068417"><ele>395.0</ele><time>2026-03-26T17:27:55Z</time></trkpt><trkpt lat="44.01726711562904" lon="8.010291077799053"><ele>394.99999999999994</ele><time>2026-03-26T17:27:57Z</time></trkpt><trkpt lat="44.01729235148129" lon="8.010377077042119"><ele>395.0</ele><time>2026-03-26T17:27:59Z</time></trkpt><trkpt lat="44.01720603253565" lon="8.010422970214925"><ele>395.0</ele><time>2026-03-26T17:28:02Z</time></trkpt><trkpt lat="44.017101763638685" lon="8.010485442801256"><ele>395.0</ele><time>2026-03-26T17:28:04Z</time></trkpt><trkpt lat="44.017010694943714" lon="8.010519739968618"><ele>394.99999999999994</ele><time>2026-03-26T17:28:05Z</time></trkpt><trkpt lat="44.01693020036116" lon="8.010541364294344"><ele>395.0</ele><time>2026-03-26T17:28:06Z</time></trkpt><trkpt lat="44.016833913924636" lon="8.01070500713269"><ele>394.99999999999994</ele><time>2026-03-26T17:28:08Z</time></trkpt><trkpt lat="44.01677229613493" lon="8.010739413652752"><ele>395.0</ele><time>2026-03-26T17:28:09Z</time></trkpt><trkpt lat="44.016687665465575" lon="8.010790796289367"><ele>395.0</ele><time>2026-03-26T17:28:10Z</time></trkpt><trkpt lat="44.01660858174682" lon="8.010836347044211"><ele>395.0</ele><time>2026-03-26T17:28:11Z</time></trkpt><trkpt lat="44.01654654091542" lon="8.010879745573941"><ele>394.99999999999994</ele><time>2026-03-26T17:28:12Z</time></trkpt><trkpt lat="44.016617638838305" lon="8.010958879593352"><ele>395.0</ele><time>2026-03-26T17:28:16Z</time></trkpt><trkpt lat="44.01671226415982" lon="8.010908341198023"><ele>390.66666666666663</ele><time>2026-03-26T17:28:18Z</time></trkpt><trkpt lat="44.01673145176622" lon="8.011009873683378"><ele>386.3333333333333</ele><time>2026-03-26T17:28:19.999Z</time></trkpt><trkpt lat="44.01671402106518" lon="8.011113442019777"><ele>382.0</ele><time>2026-03-26T17:28:20.999Z</time></trkpt><trkpt lat="44.01672660863776" lon="8.01126254171112"><ele>377.66666666666663</ele><time>2026-03-26T17:28:22.999Z</time></trkpt><trkpt lat="44.0167399438371" lon="8.011357595982036"><ele>373.3333333333333</ele><time>2026-03-26T17:28:23.999Z</time></trkpt><trkpt lat="44.01671669801122" lon="8.011456182918131"><ele>369.0</ele><time>2026-03-26T17:28:25.999Z</time></trkpt><trkpt lat="44.01662710735822" lon="8.011533548129469"><ele>368.6</ele><time>2026-03-26T17:28:27.999Z</time></trkpt><trkpt lat="44.016558762015414" lon="8.011505288087553"><ele>368.2</ele><time>2026-03-26T17:28:28.999Z</time></trkpt><trkpt lat="44.01647668541958" lon="8.011397920806736"><ele>367.8</ele><time>2026-03-26T17:28:30.999Z</time></trkpt><trkpt lat="44.01640800552296" lon="8.01136801200235"><ele>367.40000000000003</ele><time>2026-03-26T17:28:31.999Z</time></trkpt><trkpt lat="44.01634734956807" lon="8.011329679355487"><ele>367.0</ele><time>2026-03-26T17:28:32.999Z</time></trkpt><trkpt lat="44.016231782227734" lon="8.011235750838503"><ele>367.0</ele><time>2026-03-26T17:28:34.999Z</time></trkpt><trkpt lat="44.016146898682514" lon="8.01119924348431"><ele>367.0</ele><time>2026-03-26T17:28:35.999Z</time></trkpt><trkpt lat="44.016074303137614" lon="8.011173666642348"><ele>367.0</ele><time>2026-03-26T17:28:36.999Z</time></trkpt><trkpt lat="44.01599845472721" lon="8.011071072054099"><ele>367.0</ele><time>2026-03-26T17:28:38.999Z</time></trkpt><trkpt lat="44.015936418844284" lon="8.01114762680499"><ele>367.0</ele><time>2026-03-26T17:28:40.999Z</time></trkpt><trkpt lat="44.01583537971319" lon="8.011268002158562"><ele>365.8</ele><time>2026-03-26T17:28:42.999Z</time></trkpt><trkpt lat="44.015797438028834" lon="8.011362119805414"><ele>364.6</ele><time>2026-03-26T17:28:43.999Z</time></trkpt><trkpt lat="44.015761697156144" lon="8.011443357605307"><ele>363.40000000000003</ele><time>2026-03-26T17:28:44.999Z</time></trkpt><trkpt lat="44.01570218864976" lon="8.011539874453591"><ele>362.20000000000005</ele><time>2026-03-26T17:28:45.999Z</time></trkpt><trkpt lat="44.015630524600134" lon="8.011615860195315"><ele>361.0</ele><time>2026-03-26T17:28:46.999Z</time></trkpt><trkpt lat="44.01550532986875" lon="8.011572640006303"><ele>361.0</ele><time>2026-03-26T17:28:48.999Z</time></trkpt><trkpt lat="44.01538228179766" lon="8.011529307858552"><ele>361.0</ele><time>2026-03-26T17:28:49.999Z</time></trkpt><trkpt lat="44.0152935523116" lon="8.011542790592296"><ele>361.0</ele><time>2026-03-26T17:28:50.999Z</time></trkpt><trkpt lat="44.01521471775301" lon="8.011595192991978"><ele>361.0</ele><time>2026-03-26T17:28:51.999Z</time></trkpt><trkpt lat="44.01513621396995" lon="8.011623982477987"><ele>361.0</ele><time>2026-03-26T17:28:52.999Z</time></trkpt><trkpt lat="44.01502847198197" lon="8.0116207873811"><ele>358.4</ele><time>2026-03-26T17:28:53.999Z</time></trkpt><trkpt lat="44.014960827469636" lon="8.011607326810115"><ele>355.8</ele><time>2026-03-26T17:28:54.999Z</time></trkpt><trkpt lat="44.01499486293857" lon="8.011684899963113"><ele>353.2</ele><time>2026-03-26T17:28:58.999Z</time></trkpt><trkpt lat="44.015069716951224" lon="8.011704300654626"><ele>350.59999999999997</ele><time>2026-03-26T17:28:59.999Z</time></trkpt><trkpt lat="44.015175116883526" lon="8.011752804160803"><ele>348.0</ele><time>2026-03-26T17:29:00.999Z</time></trkpt><trkpt lat="44.01529685170353" lon="8.01182075631795"><ele>345.4</ele><time>2026-03-26T17:29:01.999Z</time></trkpt><trkpt lat="44.015421588263536" lon="8.01185303356652"><ele>342.79999999999995</ele><time>2026-03-26T17:29:02.999Z</time></trkpt><trkpt lat="44.01555659517605" lon="8.011866145956613"><ele>340.2</ele><time>2026-03-26T17:29:03.999Z</time></trkpt><trkpt lat="44.015631449314256" lon="8.011861867606795"><ele>337.6</ele><time>2026-03-26T17:29:04.999Z</time></trkpt><trkpt lat="44.015713153096954" lon="8.011799055041163"><ele>335.0</ele><time>2026-03-26T17:29:05.999Z</time></trkpt><trkpt lat="44.01581581348769" lon="8.011729463492967"><ele>335.75</ele><time>2026-03-26T17:29:07.999Z</time></trkpt><trkpt lat="44.01596569406641" lon="8.011606718154889"><ele>336.5</ele><time>2026-03-26T17:29:09.999Z</time></trkpt><trkpt lat="44.01607475824401" lon="8.011666100131713"><ele>337.25</ele><time>2026-03-26T17:29:11.999Z</time></trkpt><trkpt lat="44.016149541648424" lon="8.011760726465777"><ele>338.0</ele><time>2026-03-26T17:29:12.999Z</time></trkpt><trkpt lat="44.01625907871233" lon="8.01189029802447"><ele>338.0</ele><time>2026-03-26T17:29:13.999Z</time></trkpt><trkpt lat="44.01633461018769" lon="8.012025774165611"><ele>338.0</ele><time>2026-03-26T17:29:14.999Z</time></trkpt><trkpt lat="44.01636807878348" lon="8.01214431770702"><ele>338.0</ele><time>2026-03-26T17:29:15.999Z</time></trkpt><trkpt lat="44.0164167845895" lon="8.012223070881182"><ele>338.0</ele><time>2026-03-26T17:29:16.999Z</time></trkpt><trkpt lat="44.01647999257695" lon="8.01230834262889"><ele>338.0</ele><time>2026-03-26T17:29:18.999Z</time></trkpt><trkpt lat="44.01637780246116" lon="8.012353807969266"><ele>338.0</ele><time>2026-03-26T17:29:20.999Z</time></trkpt><trkpt lat="44.01632167970517" lon="8.01230145247396"><ele>338.0</ele><time>2026-03-26T17:29:21.999Z</time></trkpt><trkpt lat="44.016244317975904" lon="8.012194879767302"><ele>338.0</ele><time>2026-03-26T17:29:22.999Z</time></trkpt><trkpt lat="44.016162728814585" lon="8.012057848651471"><ele>338.0</ele><time>2026-03-26T17:29:23.999Z</time></trkpt><trkpt lat="44.01608097822893" lon="8.012016205522144"><ele>338.0</ele><time>2026-03-26T17:29:24.999Z</time></trkpt><trkpt lat="44.01599291864672" lon="8.011964881896104"><ele>338.0</ele><time>2026-03-26T17:29:25.999Z</time></trkpt><trkpt lat="44.015939252455446" lon="8.011892465137139"><ele>338.0</ele><time>2026-03-26T17:29:26.999Z</time></trkpt><trkpt lat="44.015862122987826" lon="8.011925994891596"><ele>338.0</ele><time>2026-03-26T17:29:28.999Z</time></trkpt><trkpt lat="44.015824995106634" lon="8.01207427111927"><ele>338.0</ele><time>2026-03-26T17:29:30.999Z</time></trkpt><trkpt lat="44.01578410832507" lon="8.012153375458897"><ele>338.0</ele><time>2026-03-26T17:29:32.999Z</time></trkpt><trkpt lat="44.01568776076205" lon="8.012296648122286"><ele>337.5</ele><time>2026-03-26T17:29:34.999Z</time></trkpt><trkpt lat="44.015620882177444" lon="8.01238960813111"><ele>337.0</ele><time>2026-03-26T17:29:35.999Z</time></trkpt><trkpt lat="44.01551289734619" lon="8.012455980342033"><ele>336.5</ele><time>2026-03-26T17:29:36.999Z</time></trkpt><trkpt lat="44.01543296840695" lon="8.012479051070919"><ele>336.0</ele><time>2026-03-26T17:29:37.999Z</time></trkpt><trkpt lat="44.01537228396262" lon="8.01254305054099"><ele>335.5</ele><time>2026-03-26T17:29:38.999Z</time></trkpt><trkpt lat="44.01531134885927" lon="8.012609260170784"><ele>335.0</ele><time>2026-03-26T17:29:40Z</time></trkpt><trkpt lat="44.01525118047832" lon="8.012649855786382"><ele>330.6666666666667</ele><time>2026-03-26T17:29:41Z</time></trkpt><trkpt lat="44.015168027903336" lon="8.012624174248693"><ele>326.33333333333337</ele><time>2026-03-26T17:29:42Z</time></trkpt><trkpt lat="44.01509498298702" lon="8.012558210732406"><ele>322.0</ele><time>2026-03-26T17:29:43Z</time></trkpt><trkpt lat="44.01503069229387" lon="8.01260798678441"><ele>317.6666666666667</ele><time>2026-03-26T17:29:45Z</time></trkpt><trkpt lat="44.01505011867448" lon="8.012693702822578"><ele>313.3333333333333</ele><time>2026-03-26T17:29:46Z</time></trkpt><trkpt lat="44.015100740582966" lon="8.012776893150674"><ele>309.0</ele><time>2026-03-26T17:29:47Z</time></trkpt><trkpt lat="44.015166966393714" lon="8.012800970571611"><ele>309.0</ele><time>2026-03-26T17:29:47.999Z</time></trkpt><trkpt lat="44.01527582641967" lon="8.012782286643217"><ele>309.0</ele><time>2026-03-26T17:29:49.999Z</time></trkpt><trkpt lat="44.01538514805551" lon="8.012804282350466"><ele>309.0</ele><time>2026-03-26T17:29:51.999Z</time></trkpt><trkpt lat="44.015484367393974" lon="8.012859163374367"><ele>309.0</ele><time>2026-03-26T17:29:54Z</time></trkpt><trkpt lat="44.015569970234765" lon="8.012830304725673"><ele>309.0</ele><time>2026-03-26T17:29:57Z</time></trkpt><trkpt lat="44.01565407797394" lon="8.012747428412421"><ele>309.0</ele><time>2026-03-26T17:29:59Z</time></trkpt><trkpt lat="44.015720601807566" lon="8.012715137530368"><ele>309.0</ele><time>2026-03-26T17:30:00Z</time></trkpt><trkpt lat="44.01577949263731" lon="8.012683507373392"><ele>309.0</ele><time>2026-03-26T17:30:01Z</time></trkpt><trkpt lat="44.015860060785215" lon="8.012627782860166"><ele>309.0</ele><time>2026-03-26T17:30:03Z</time></trkpt><trkpt lat="44.01592769679196" lon="8.01266314251078"><ele>309.0</ele><time>2026-03-26T17:30:05Z</time></trkpt><trkpt lat="44.015964030343966" lon="8.012785523863979"><ele>309.0</ele><time>2026-03-26T17:30:07Z</time></trkpt><trkpt lat="44.0160874345323" lon="8.0128614949682"><ele>309.4</ele><time>2026-03-26T17:30:09Z</time></trkpt><trkpt lat="44.01618726713711" lon="8.012924167817863"><ele>309.79999999999995</ele><time>2026-03-26T17:30:10Z</time></trkpt><trkpt lat="44.016277122181705" lon="8.012982820212109"><ele>310.20000000000005</ele><time>2026-03-26T17:30:11Z</time></trkpt><trkpt lat="44.01636523825213" lon="8.013030507192834"><ele>310.6</ele><time>2026-03-26T17:30:12Z</time></trkpt><trkpt lat="44.01646943952284" lon="8.013049625229435"><ele>311.0</ele><time>2026-03-26T17:30:13Z</time></trkpt><trkpt lat="44.01656802859226" lon="8.013090748588903"><ele>312.8</ele><time>2026-03-26T17:30:14Z</time></trkpt><trkpt lat="44.0166801508397" lon="8.013131923260682"><ele>314.6</ele><time>2026-03-26T17:30:15Z</time></trkpt><trkpt lat="44.01676936073774" lon="8.013164167546401"><ele>316.4</ele><time>2026-03-26T17:30:16Z</time></trkpt><trkpt lat="44.016843538581874" lon="8.013188868041093"><ele>318.2</ele><time>2026-03-26T17:30:17Z</time></trkpt><trkpt lat="44.016921444545396" lon="8.013175976703698"><ele>320.0</ele><time>2026-03-26T17:30:18Z</time></trkpt><trkpt lat="44.01701709780919" lon="8.013139882439566"><ele>320.0</ele><time>2026-03-26T17:30:19Z</time></trkpt><trkpt lat="44.017119271766475" lon="8.01309009448364"><ele>320.0</ele><time>2026-03-26T17:30:20Z</time></trkpt><trkpt lat="44.0171895773192" lon="8.013072264440476"><ele>320.0</ele><time>2026-03-26T17:30:21Z</time></trkpt><trkpt lat="44.01726877563223" lon="8.012944994539637"><ele>320.0</ele><time>2026-03-26T17:30:23Z</time></trkpt><trkpt lat="44.01730511650243" lon="8.012871791704839"><ele>320.0</ele><time>2026-03-26T17:30:24Z</time></trkpt><trkpt lat="44.01736817080901" lon="8.0128857658585"><ele>320.0</ele><time>2026-03-26T17:30:26Z</time></trkpt><trkpt lat="44.017419908444325" lon="8.013028142614976"><ele>320.0</ele><time>2026-03-26T17:30:28Z</time></trkpt><trkpt lat="44.01746206954238" lon="8.013147686301014"><ele>320.0</ele><time>2026-03-26T17:30:29Z</time></trkpt><trkpt lat="44.01753530004137" lon="8.013246192638192"><ele>320.0</ele><time>2026-03-26T17:30:31Z</time></trkpt><trkpt lat="44.017632657904976" lon="8.01323115105852"><ele>320.0</ele><time>2026-03-26T17:30:32.999Z</time></trkpt><trkpt lat="44.0177240041086" lon="8.013215840638708"><ele>320.0</ele><time>2026-03-26T17:30:33.999Z</time></trkpt><trkpt lat="44.01779633714515" lon="8.01320279341306"><ele>319.2857142857143</ele><time>2026-03-26T17:30:34.999Z</time></trkpt><trkpt lat="44.01788277496601" lon="8.013181953017018"><ele>318.57142857142856</ele><time>2026-03-26T17:30:35.999Z</time></trkpt><trkpt lat="44.01796174818785" lon="8.013168963193424"><ele>317.8571428571429</ele><time>2026-03-26T17:30:36.999Z</time></trkpt><trkpt lat="44.018027526740234" lon="8.013180548329638"><ele>317.1428571428571</ele><time>2026-03-26T17:30:37.999Z</time></trkpt><trkpt lat="44.01809587106614" lon="8.01316479318786"><ele>316.42857142857144</ele><time>2026-03-26T17:30:38.999Z</time></trkpt><trkpt lat="44.01815508297587" lon="8.013132953339444"><ele>315.7142857142857</ele><time>2026-03-26T17:30:39.999Z</time></trkpt><trkpt lat="44.018236467588146" lon="8.013127779286451"><ele>315.0</ele><time>2026-03-26T17:30:40.999Z</time></trkpt><trkpt lat="44.018304951827226" lon="8.013160392647729"><ele>314.1666666666667</ele><time>2026-03-26T17:30:41.999Z</time></trkpt><trkpt lat="44.01841783989183" lon="8.013104972955112"><ele>313.3333333333333</ele><time>2026-03-26T17:30:43.999Z</time></trkpt><trkpt lat="44.01849430509301" lon="8.013074257512868"><ele>312.5</ele><time>2026-03-26T17:30:44.999Z</time></trkpt><trkpt lat="44.018558140779014" lon="8.013121839077003"><ele>311.66666666666663</ele><time>2026-03-26T17:30:45.999Z</time></trkpt><trkpt lat="44.018634093258584" lon="8.013148676415538"><ele>310.8333333333333</ele><time>2026-03-26T17:30:46.999Z</time></trkpt><trkpt lat="44.01870344000714" lon="8.013148092740146"><ele>310.0</ele><time>2026-03-26T17:30:47.999Z</time></trkpt><trkpt lat="44.01877731581537" lon="8.01313330948615"><ele>310.0</ele><time>2026-03-26T17:30:48.999Z</time></trkpt><trkpt lat="44.01885740088552" lon="8.01310436632192"><ele>310.0</ele><time>2026-03-26T17:30:49.999Z</time></trkpt><trkpt lat="44.01894066463536" lon="8.01306857468208"><ele>310.0</ele><time>2026-03-26T17:30:50.999Z</time></trkpt><trkpt lat="44.01904328710381" lon="8.01304681995733"><ele>310.0</ele><time>2026-03-26T17:30:51.999Z</time></trkpt><trkpt lat="44.01914099929969" lon="8.013028097694137"><ele>310.0</ele><time>2026-03-26T17:30:52.999Z</time></trkpt><trkpt lat="44.019211008970395" lon="8.013006726338784"><ele>310.0</ele><time>2026-03-26T17:30:53.999Z</time></trkpt><trkpt lat="44.01931829922261" lon="8.012933361222789"><ele>307.5</ele><time>2026-03-26T17:30:55.999Z</time></trkpt><trkpt lat="44.019385447715415" lon="8.012881171289179"><ele>305.0</ele><time>2026-03-26T17:30:56.999Z</time></trkpt><trkpt lat="44.01944929012381" lon="8.012861803143645"><ele>302.5</ele><time>2026-03-26T17:30:57.999Z</time></trkpt><trkpt lat="44.01950892795857" lon="8.012895149801613"><ele>300.0</ele><time>2026-03-26T17:30:58.999Z</time></trkpt><trkpt lat="44.01957799374979" lon="8.012938218318116"><ele>297.5</ele><time>2026-03-26T17:30:59.999Z</time></trkpt><trkpt lat="44.01971644335001" lon="8.012903061476644"><ele>295.0</ele><time>2026-03-26T17:31:01.999Z</time></trkpt><trkpt lat="44.01981394513516" lon="8.012906655538542"><ele>295.0</ele><time>2026-03-26T17:31:02.999Z</time></trkpt><trkpt lat="44.019900373133616" lon="8.012943603041345"><ele>295.0</ele><time>2026-03-26T17:31:03.999Z</time></trkpt><trkpt lat="44.02001115381254" lon="8.01297213856529"><ele>295.0</ele><time>2026-03-26T17:31:04.999Z</time></trkpt><trkpt lat="44.02012503126403" lon="8.012978721758515"><ele>295.0</ele><time>2026-03-26T17:31:05.999Z</time></trkpt><trkpt lat="44.020232324407154" lon="8.012964637647922"><ele>295.0</ele><time>2026-03-26T17:31:06.999Z</time></trkpt><trkpt lat="44.02030835752158" lon="8.012953599246917"><ele>292.6</ele><time>2026-03-26T17:31:07.999Z</time></trkpt><trkpt lat="44.02038507358215" lon="8.012987247199293"><ele>290.2</ele><time>2026-03-26T17:31:08.999Z</time></trkpt><trkpt lat="44.020472380429354" lon="8.01302310710242"><ele>287.8</ele><time>2026-03-26T17:31:09.999Z</time></trkpt><trkpt lat="44.020562472527004" lon="8.013039715452896"><ele>285.4</ele><time>2026-03-26T17:31:10.999Z</time></trkpt><trkpt lat="44.02066172398107" lon="8.013025943902495"><ele>283.0</ele><time>2026-03-26T17:31:11.999Z</time></trkpt><trkpt lat="44.0207515874565" lon="8.012969071628898"><ele>282.2</ele><time>2026-03-26T17:31:12.999Z</time></trkpt><trkpt lat="44.020882678277005" lon="8.012973092116965"><ele>281.4</ele><time>2026-03-26T17:31:14.999Z</time></trkpt><trkpt lat="44.020962282393576" lon="8.012979811953818"><ele>280.59999999999997</ele><time>2026-03-26T17:31:15.999Z</time></trkpt><trkpt lat="44.02104936412594" lon="8.01299807284358"><ele>279.8</ele><time>2026-03-26T17:31:16.999Z</time></trkpt><trkpt lat="44.02113563276648" lon="8.012991285542046"><ele>279.0</ele><time>2026-03-26T17:31:17.999Z</time></trkpt><trkpt lat="44.021216118089995" lon="8.012947711452309"><ele>279.0</ele><time>2026-03-26T17:31:18.999Z</time></trkpt><trkpt lat="44.02135681291305" lon="8.012966856460244"><ele>279.0</ele><time>2026-03-26T17:31:20.999Z</time></trkpt><trkpt lat="44.02145000892935" lon="8.012968458559468"><ele>279.0</ele><time>2026-03-26T17:31:21.999Z</time></trkpt><trkpt lat="44.02152024874493" lon="8.01293146195235"><ele>279.0</ele><time>2026-03-26T17:31:22.999Z</time></trkpt><trkpt lat="44.02161930954413" lon="8.012859871980636"><ele>279.0</ele><time>2026-03-26T17:31:23.999Z</time></trkpt><trkpt lat="44.02170521753633" lon="8.012825811972391"><ele>275.59999999999997</ele><time>2026-03-26T17:31:24.999Z</time></trkpt><trkpt lat="44.02178768918245" lon="8.012823841683534"><ele>272.2</ele><time>2026-03-26T17:31:25.999Z</time></trkpt><trkpt lat="44.02187885592189" lon="8.012789518671765"><ele>268.79999999999995</ele><time>2026-03-26T17:31:26.999Z</time></trkpt><trkpt lat="44.0219450016338" lon="8.012744639502428"><ele>265.4</ele><time>2026-03-26T17:31:27.999Z</time></trkpt><trkpt lat="44.02207330349597" lon="8.012743299367491"><ele>262.0</ele><time>2026-03-26T17:31:29.999Z</time></trkpt><trkpt lat="44.022149154565085" lon="8.012770424938589"><ele>262.0</ele><time>2026-03-26T17:31:30.999Z</time></trkpt><trkpt lat="44.022248302872946" lon="8.012769468950513"><ele>262.0</ele><time>2026-03-26T17:31:31.999Z</time></trkpt><trkpt lat="44.02232683541126" lon="8.012765974212405"><ele>262.0</ele><time>2026-03-26T17:31:32.999Z</time></trkpt><trkpt lat="44.02241927538729" lon="8.012693389481743"><ele>262.0</ele><time>2026-03-26T17:31:34.999Z</time></trkpt><trkpt lat="44.02246802531065" lon="8.012545466858464"><ele>262.0</ele><time>2026-03-26T17:31:36.999Z</time></trkpt><trkpt lat="44.02252266407364" lon="8.012419882548452"><ele>258.3333333333333</ele><time>2026-03-26T17:31:37.999Z</time></trkpt><trkpt lat="44.022580870755256" lon="8.012301441833232"><ele>254.66666666666666</ele><time>2026-03-26T17:31:38.999Z</time></trkpt><trkpt lat="44.02260068646696" lon="8.012211364445918"><ele>251.0</ele><time>2026-03-26T17:31:39.999Z</time></trkpt><trkpt lat="44.022632361451485" lon="8.012098117525392"><ele>247.33333333333331</ele><time>2026-03-26T17:31:40.999Z</time></trkpt><trkpt lat="44.02264253155872" lon="8.011980283249654"><ele>243.66666666666666</ele><time>2026-03-26T17:31:41.999Z</time></trkpt><trkpt lat="44.02266272293687" lon="8.011850545806336"><ele>240.0</ele><time>2026-03-26T17:31:42.999Z</time></trkpt><trkpt lat="44.02274760439706" lon="8.011753388078908"><ele>240.0</ele><time>2026-03-26T17:31:44.999Z</time></trkpt><trkpt lat="44.02281855491181" lon="8.011805421577764"><ele>240.0</ele><time>2026-03-26T17:31:47Z</time></trkpt><trkpt lat="44.022867685767125" lon="8.012019468909587"><ele>240.0</ele><time>2026-03-26T17:31:49Z</time></trkpt><trkpt lat="44.0228997678277" lon="8.012179185464014"><ele>240.0</ele><time>2026-03-26T17:31:50Z</time></trkpt><trkpt lat="44.02294844284548" lon="8.012305010957586"><ele>240.0</ele><time>2026-03-26T17:31:51Z</time></trkpt><trkpt lat="44.02296928385617" lon="8.01243411418347"><ele>240.0</ele><time>2026-03-26T17:31:53Z</time></trkpt><trkpt lat="44.02295564554571" lon="8.012616640644604"><ele>240.0</ele><time>2026-03-26T17:31:55Z</time></trkpt><trkpt lat="44.022959349018144" lon="8.012761009024754"><ele>240.0</ele><time>2026-03-26T17:31:56Z</time></trkpt><trkpt lat="44.02295730170178" lon="8.012869795387475"><ele>240.0</ele><time>2026-03-26T17:31:57Z</time></trkpt><trkpt lat="44.02302124263858" lon="8.012964378834926"><ele>239.83333333333334</ele><time>2026-03-26T17:31:59Z</time></trkpt><trkpt lat="44.02308469001148" lon="8.012993837895932"><ele>239.66666666666669</ele><time>2026-03-26T17:32:00Z</time></trkpt><trkpt lat="44.02315273833758" lon="8.013000858371216"><ele>239.5</ele><time>2026-03-26T17:32:01Z</time></trkpt><trkpt lat="44.023201498404774" lon="8.013118410054679"><ele>239.33333333333334</ele><time>2026-03-26T17:32:04Z</time></trkpt><trkpt lat="44.02319889116146" lon="8.013229678231"><ele>239.16666666666669</ele><time>2026-03-26T17:32:05Z</time></trkpt><trkpt lat="44.02322403186528" lon="8.013321423227152"><ele>239.0</ele><time>2026-03-26T17:32:06Z</time></trkpt><trkpt lat="44.02328507299671" lon="8.013372681434522"><ele>238.39999999999998</ele><time>2026-03-26T17:32:07Z</time></trkpt><trkpt lat="44.023356144140365" lon="8.013291345607431"><ele>237.79999999999998</ele><time>2026-03-26T17:32:09Z</time></trkpt><trkpt lat="44.02332145665342" lon="8.013134173007344"><ele>237.20000000000002</ele><time>2026-03-26T17:32:11Z</time></trkpt><trkpt lat="44.02327100524688" lon="8.012998472822202"><ele>236.60000000000002</ele><time>2026-03-26T17:32:12Z</time></trkpt><trkpt lat="44.02323280341557" lon="8.012843456421479"><ele>236.0</ele><time>2026-03-26T17:32:13Z</time></trkpt><trkpt lat="44.02324357365517" lon="8.012705900473435"><ele>236.0</ele><time>2026-03-26T17:32:14Z</time></trkpt><trkpt lat="44.023298696242726" lon="8.012602506872405"><ele>236.00000000000003</ele><time>2026-03-26T17:32:15Z</time></trkpt><trkpt lat="44.023394998259676" lon="8.012661821595284"><ele>236.00000000000003</ele><time>2026-03-26T17:32:17Z</time></trkpt><trkpt lat="44.02343642288992" lon="8.012728523143798"><ele>236.0</ele><time>2026-03-26T17:32:18Z</time></trkpt><trkpt lat="44.02347091512443" lon="8.012846233091262"><ele>236.0</ele><time>2026-03-26T17:32:20Z</time></trkpt><trkpt lat="44.0235634947918" lon="8.012929912700303"><ele>235.4</ele><time>2026-03-26T17:32:22Z</time></trkpt><trkpt lat="44.02365626416676" lon="8.013012649049413"><ele>234.8</ele><time>2026-03-26T17:32:23Z</time></trkpt><trkpt lat="44.02376671107047" lon="8.013141343107502"><ele>234.20000000000002</ele><time>2026-03-26T17:32:24Z</time></trkpt><trkpt lat="44.02385916651361" lon="8.013228037251322"><ele>233.60000000000002</ele><time>2026-03-26T17:32:25Z</time></trkpt><trkpt lat="44.02392843253125" lon="8.013283413052415"><ele>233.0</ele><time>2026-03-26T17:32:27Z</time></trkpt><trkpt lat="44.024050494773654" lon="8.01336227162716"><ele>231.5</ele><time>2026-03-26T17:32:29Z</time></trkpt><trkpt lat="44.024128625868094" lon="8.0134739505442"><ele>230.0</ele><time>2026-03-26T17:32:30Z</time></trkpt><trkpt lat="44.02423376010267" lon="8.013633487364118"><ele>228.5</ele><time>2026-03-26T17:32:31Z</time></trkpt><trkpt lat="44.024353633050836" lon="8.013810920628321"><ele>227.0</ele><time>2026-03-26T17:32:32Z</time></trkpt><trkpt lat="44.024460660300974" lon="8.01397450373974"><ele>226.0</ele><time>2026-03-26T17:32:33Z</time></trkpt><trkpt lat="44.02451887473844" lon="8.014121289126356"><ele>225.0</ele><time>2026-03-26T17:32:34Z</time></trkpt><trkpt lat="44.024586487529135" lon="8.014290624806621"><ele>224.0</ele><time>2026-03-26T17:32:35Z</time></trkpt><trkpt lat="44.02466552041793" lon="8.014429004611301"><ele>223.0</ele><time>2026-03-26T17:32:36Z</time></trkpt><trkpt lat="44.02472688890253" lon="8.014509525862223"><ele>222.99999999999997</ele><time>2026-03-26T17:32:37Z</time></trkpt><trkpt lat="44.02479054383955" lon="8.014557817447983"><ele>223.0</ele><time>2026-03-26T17:32:38Z</time></trkpt><trkpt lat="44.02481479655685" lon="8.014653803538714"><ele>223.0</ele><time>2026-03-26T17:32:40Z</time></trkpt><trkpt lat="44.02480055293145" lon="8.01476065927901"><ele>223.0</ele><time>2026-03-26T17:32:41Z</time></trkpt><trkpt lat="44.024866238771814" lon="8.014866865368017"><ele>222.99999999999997</ele><time>2026-03-26T17:32:43Z</time></trkpt><trkpt lat="44.024946356766534" lon="8.014867428338164"><ele>223.0</ele><time>2026-03-26T17:32:44Z</time></trkpt><trkpt lat="44.025049260350116" lon="8.014821290528872"><ele>223.2</ele><time>2026-03-26T17:32:44.999Z</time></trkpt><trkpt lat="44.02518198618555" lon="8.014763071198415"><ele>223.4</ele><time>2026-03-26T17:32:45.999Z</time></trkpt><trkpt lat="44.02528392614005" lon="8.01476879162615"><ele>223.59999999999997</ele><time>2026-03-26T17:32:46.999Z</time></trkpt><trkpt lat="44.02535801761083" lon="8.014824449375194"><ele>223.79999999999998</ele><time>2026-03-26T17:32:47.999Z</time></trkpt><trkpt lat="44.0254448929137" lon="8.014920698734727"><ele>224.0</ele><time>2026-03-26T17:32:48.999Z</time></trkpt><trkpt lat="44.025529920189854" lon="8.015029952013526"><ele>224.0</ele><time>2026-03-26T17:32:49.999Z</time></trkpt><trkpt lat="44.02562247050938" lon="8.015095433386449"><ele>223.99999999999997</ele><time>2026-03-26T17:32:50.999Z</time></trkpt><trkpt lat="44.025730563734285" lon="8.015132678922502"><ele>223.99999999999997</ele><time>2026-03-26T17:32:51.999Z</time></trkpt><trkpt lat="44.02584155851085" lon="8.0151655375814"><ele>224.0</ele><time>2026-03-26T17:32:52.999Z</time></trkpt><trkpt lat="44.02590846882884" lon="8.015188150724342"><ele>224.0</ele><time>2026-03-26T17:32:53.999Z</time></trkpt><trkpt lat="44.02599540739168" lon="8.015246228860084"><ele>223.25</ele><time>2026-03-26T17:32:54.999Z</time></trkpt><trkpt lat="44.02608836809741" lon="8.015366567442266"><ele>222.5</ele><time>2026-03-26T17:32:55.999Z</time></trkpt><trkpt lat="44.02619847395245" lon="8.01552954211714"><ele>221.75</ele><time>2026-03-26T17:32:56.999Z</time></trkpt><trkpt lat="44.02629461235532" lon="8.015708692919283"><ele>221.0</ele><time>2026-03-26T17:32:57.999Z</time></trkpt><trkpt lat="44.026353665292945" lon="8.015846449856577"><ele>221.0</ele><time>2026-03-26T17:32:58.999Z</time></trkpt><trkpt lat="44.026375365384844" lon="8.01598043132792"><ele>221.0</ele><time>2026-03-26T17:32:59.999Z</time></trkpt><trkpt lat="44.02639050545163" lon="8.016182925046992"><ele>221.0</ele><time>2026-03-26T17:33:00.999Z</time></trkpt><trkpt lat="44.02640499487915" lon="8.016366085333527"><ele>221.0</ele><time>2026-03-26T17:33:01.999Z</time></trkpt><trkpt lat="44.0264574834712" lon="8.016476766204594"><ele>221.0</ele><time>2026-03-26T17:33:02.999Z</time></trkpt><trkpt lat="44.026521257828634" lon="8.016606165083314"><ele>221.0</ele><time>2026-03-26T17:33:03.999Z</time></trkpt><trkpt lat="44.026544536145124" lon="8.016722591654034"><ele>221.0</ele><time>2026-03-26T17:33:04.999Z</time></trkpt><trkpt lat="44.02655931875346" lon="8.01689841426675"><ele>221.0</ele><time>2026-03-26T17:33:05.999Z</time></trkpt><trkpt lat="44.02654358971581" lon="8.017114061285287"><ele>220.33333333333334</ele><time>2026-03-26T17:33:06.999Z</time></trkpt><trkpt lat="44.026543099154935" lon="8.017361478880412"><ele>219.66666666666669</ele><time>2026-03-26T17:33:07.999Z</time></trkpt><trkpt lat="44.02654631469055" lon="8.017601419871067"><ele>219.0</ele><time>2026-03-26T17:33:08.999Z</time></trkpt><trkpt lat="44.026535952212754" lon="8.017818047936707"><ele>219.0</ele><time>2026-03-26T17:33:09.999Z</time></trkpt><trkpt lat="44.026509943114334" lon="8.018007505277211"><ele>219.0</ele><time>2026-03-26T17:33:10.999Z</time></trkpt><trkpt lat="44.02647313762115" lon="8.018188339233383"><ele>219.0</ele><time>2026-03-26T17:33:11.999Z</time></trkpt><trkpt lat="44.02645151270343" lon="8.01833872478596"><ele>219.0</ele><time>2026-03-26T17:33:12.999Z</time></trkpt><trkpt lat="44.02644723198834" lon="8.018525478066426"><ele>217.75</ele><time>2026-03-26T17:33:13.999Z</time></trkpt><trkpt lat="44.026464112870876" lon="8.01873828539157"><ele>216.5</ele><time>2026-03-26T17:33:14.999Z</time></trkpt><trkpt lat="44.02648642776134" lon="8.018928749177325"><ele>215.25</ele><time>2026-03-26T17:33:15.999Z</time></trkpt><trkpt lat="44.02651171237614" lon="8.019081708451857"><ele>214.0</ele><time>2026-03-26T17:33:16.999Z</time></trkpt><trkpt lat="44.02654696549419" lon="8.019164662575724"><ele>216.6</ele><time>2026-03-26T17:33:17.999Z</time></trkpt><trkpt lat="44.02665204842441" lon="8.019286797874386"><ele>219.2</ele><time>2026-03-26T17:33:19.999Z</time></trkpt><trkpt lat="44.02676301066282" lon="8.019378935530638"><ele>221.79999999999998</ele><time>2026-03-26T17:33:20.999Z</time></trkpt><trkpt lat="44.02682905856389" lon="8.019438707756919"><ele>224.39999999999998</ele><time>2026-03-26T17:33:21.999Z</time></trkpt><trkpt lat="44.02683003142624" lon="8.019531548289578"><ele>227.0</ele><time>2026-03-26T17:33:23.999Z</time></trkpt><trkpt lat="44.026734846479805" lon="8.019591950805932"><ele>223.25</ele><time>2026-03-26T17:33:25.999Z</time></trkpt><trkpt lat="44.02663370804322" lon="8.01962988008975"><ele>219.5</ele><time>2026-03-26T17:33:26.999Z</time></trkpt><trkpt lat="44.02650446438387" lon="8.019651762965198"><ele>215.75</ele><time>2026-03-26T17:33:27.999Z</time></trkpt><trkpt lat="44.02636999654408" lon="8.019665337273384"><ele>212.0</ele><time>2026-03-26T17:33:28.999Z</time></trkpt><trkpt lat="44.02628686151009" lon="8.019679311319702"><ele>212.0</ele><time>2026-03-26T17:33:29.999Z</time></trkpt><trkpt lat="44.02625897038934" lon="8.01976883909522"><ele>212.0</ele><time>2026-03-26T17:33:31.999Z</time></trkpt><trkpt lat="44.02633012342685" lon="8.01991969837985"><ele>212.0</ele><time>2026-03-26T17:33:33.999Z</time></trkpt><trkpt lat="44.0264156316125" lon="8.020013204974502"><ele>212.0</ele><time>2026-03-26T17:33:34.999Z</time></trkpt><trkpt lat="44.026515837745734" lon="8.020122783687723"><ele>212.0</ele><time>2026-03-26T17:33:35.999Z</time></trkpt><trkpt lat="44.02661915961245" lon="8.020276948813377"><ele>214.33333333333334</ele><time>2026-03-26T17:33:36.999Z</time></trkpt><trkpt lat="44.026719961411814" lon="8.020470594468"><ele>216.66666666666669</ele><time>2026-03-26T17:33:37.999Z</time></trkpt><trkpt lat="44.026814353061376" lon="8.020681413645018"><ele>219.0</ele><time>2026-03-26T17:33:38.999Z</time></trkpt><trkpt lat="44.02689278519483" lon="8.020878056151687"><ele>219.0</ele><time>2026-03-26T17:33:39.999Z</time></trkpt><trkpt lat="44.02696295839306" lon="8.021016605217014"><ele>219.0</ele><time>2026-03-26T17:33:40.999Z</time></trkpt><trkpt lat="44.02704797092446" lon="8.021139727575903"><ele>219.0</ele><time>2026-03-26T17:33:41.999Z</time></trkpt><trkpt lat="44.027158221011085" lon="8.021251509109167"><ele>219.0</ele><time>2026-03-26T17:33:42.999Z</time></trkpt><trkpt lat="44.02728506858015" lon="8.021330821961241"><ele>219.0</ele><time>2026-03-26T17:33:43.999Z</time></trkpt><trkpt lat="44.027442414902715" lon="8.021434295070575"><ele>219.0</ele><time>2026-03-26T17:33:44.999Z</time></trkpt><trkpt lat="44.02758309986225" lon="8.02155758034172"><ele>219.0</ele><time>2026-03-26T17:33:45.999Z</time></trkpt><trkpt lat="44.02769387528217" lon="8.021682338953223"><ele>219.25</ele><time>2026-03-26T17:33:46.999Z</time></trkpt><trkpt lat="44.02778953911666" lon="8.021819542220372"><ele>219.5</ele><time>2026-03-26T17:33:47.999Z</time></trkpt><trkpt lat="44.027865752708124" lon="8.021955934531304"><ele>219.75</ele><time>2026-03-26T17:33:48.999Z</time></trkpt><trkpt lat="44.02791251928085" lon="8.022073296781901"><ele>220.0</ele><time>2026-03-26T17:33:49.999Z</time></trkpt><trkpt lat="44.027951053659486" lon="8.022197117140147"><ele>220.0</ele><time>2026-03-26T17:33:50.999Z</time></trkpt><trkpt lat="44.027960832757344" lon="8.02232778835735"><ele>220.0</ele><time>2026-03-26T17:33:52Z</time></trkpt><trkpt lat="44.02793825611638" lon="8.022495090881359"><ele>220.0</ele><time>2026-03-26T17:33:53Z</time></trkpt><trkpt lat="44.02791480548853" lon="8.022720506071106"><ele>220.0</ele><time>2026-03-26T17:33:54Z</time></trkpt><trkpt lat="44.027918391371166" lon="8.022956612335328"><ele>216.25</ele><time>2026-03-26T17:33:55Z</time></trkpt><trkpt lat="44.02792743920628" lon="8.023134605787865"><ele>212.5</ele><time>2026-03-26T17:33:56Z</time></trkpt><trkpt lat="44.027912881251375" lon="8.023306223616455"><ele>208.75</ele><time>2026-03-26T17:33:57Z</time></trkpt><trkpt lat="44.02790386553503" lon="8.023511857179562"><ele>205.0</ele><time>2026-03-26T17:33:58Z</time></trkpt><trkpt lat="44.02788073798294" lon="8.023721285912497"><ele>205.0</ele><time>2026-03-26T17:33:59Z</time></trkpt><trkpt lat="44.027843608474186" lon="8.02392367605713"><ele>205.0</ele><time>2026-03-26T17:34:00Z</time></trkpt><trkpt lat="44.027794112307454" lon="8.02409758713356"><ele>205.0</ele><time>2026-03-26T17:34:01Z</time></trkpt><trkpt lat="44.02772068812964" lon="8.024256151197639"><ele>205.0</ele><time>2026-03-26T17:34:02Z</time></trkpt><trkpt lat="44.02766525098755" lon="8.024391109144473"><ele>205.4</ele><time>2026-03-26T17:34:03Z</time></trkpt><trkpt lat="44.027648510024335" lon="8.024508579137155"><ele>205.8</ele><time>2026-03-26T17:34:04Z</time></trkpt><trkpt lat="44.027639703237675" lon="8.024655331525"><ele>206.2</ele><time>2026-03-26T17:34:05Z</time></trkpt><trkpt lat="44.02763901602212" lon="8.024822147716973"><ele>206.6</ele><time>2026-03-26T17:34:06Z</time></trkpt><trkpt lat="44.02763965113178" lon="8.025008385722478"><ele>207.0</ele><time>2026-03-26T17:34:07Z</time></trkpt><trkpt lat="44.02763370101271" lon="8.025147287297209"><ele>205.0</ele><time>2026-03-26T17:34:08Z</time></trkpt><trkpt lat="44.027662767639" lon="8.025225840039495"><ele>203.0</ele><time>2026-03-26T17:34:09Z</time></trkpt><trkpt lat="44.02773466952236" lon="8.025308253838002"><ele>201.0</ele><time>2026-03-26T17:34:10Z</time></trkpt><trkpt lat="44.027811661133455" lon="8.025342548835496"><ele>199.0</ele><time>2026-03-26T17:34:11Z</time></trkpt><trkpt lat="44.02792263522192" lon="8.02537780279651"><ele>197.0</ele><time>2026-03-26T17:34:12Z</time></trkpt><trkpt lat="44.02807088725825" lon="8.025392960827173"><ele>197.0</ele><time>2026-03-26T17:34:13Z</time></trkpt><trkpt lat="44.028234694854" lon="8.025424545181785"><ele>197.0</ele><time>2026-03-26T17:34:14Z</time></trkpt><trkpt lat="44.02835803044126" lon="8.025453268737484"><ele>197.0</ele><time>2026-03-26T17:34:15Z</time></trkpt><trkpt lat="44.02843028625291" lon="8.025486694638943"><ele>197.0</ele><time>2026-03-26T17:34:16Z</time></trkpt><trkpt lat="44.028508214948474" lon="8.025571864060893"><ele>196.25</ele><time>2026-03-26T17:34:17Z</time></trkpt><trkpt lat="44.028617343083425" lon="8.025717646074428"><ele>195.5</ele><time>2026-03-26T17:34:18Z</time></trkpt><trkpt lat="44.028715287578564" lon="8.0258612129531"><ele>194.75</ele><time>2026-03-26T17:34:19Z</time></trkpt><trkpt lat="44.0287801723028" lon="8.025990718254354"><ele>194.0</ele><time>2026-03-26T17:34:20Z</time></trkpt><trkpt lat="44.02880928398072" lon="8.026133729114838"><ele>194.0</ele><time>2026-03-26T17:34:21Z</time></trkpt><trkpt lat="44.02883558398766" lon="8.026326132048005"><ele>194.0</ele><time>2026-03-26T17:34:22Z</time></trkpt><trkpt lat="44.028835471267435" lon="8.026487741759999"><ele>194.0</ele><time>2026-03-26T17:34:23Z</time></trkpt><trkpt lat="44.02880827855706" lon="8.02662387132327"><ele>194.0</ele><time>2026-03-26T17:34:24Z</time></trkpt><trkpt lat="44.02875197816627" lon="8.02682193438026"><ele>193.0</ele><time>2026-03-26T17:34:25Z</time></trkpt><trkpt lat="44.02867396645752" lon="8.027041993204387"><ele>192.0</ele><time>2026-03-26T17:34:26Z</time></trkpt><trkpt lat="44.02857080172808" lon="8.027294024951711"><ele>191.0</ele><time>2026-03-26T17:34:27Z</time></trkpt><trkpt lat="44.028497480176554" lon="8.027527039640079"><ele>189.0</ele><time>2026-03-26T17:34:28Z</time></trkpt><trkpt lat="44.02843112166885" lon="8.027724089167219"><ele>187.0</ele><time>2026-03-26T17:34:29Z</time></trkpt><trkpt lat="44.02836152427403" lon="8.027925979929327"><ele>185.0</ele><time>2026-03-26T17:34:30Z</time></trkpt><trkpt lat="44.028301798921476" lon="8.028129163949567"><ele>183.8</ele><time>2026-03-26T17:34:31Z</time></trkpt><trkpt lat="44.02826306144112" lon="8.028284011755645"><ele>182.6</ele><time>2026-03-26T17:34:32Z</time></trkpt><trkpt lat="44.02824588703103" lon="8.028411480087238"><ele>181.39999999999998</ele><time>2026-03-26T17:34:33Z</time></trkpt><trkpt lat="44.02825945375473" lon="8.028514946508318"><ele>180.2</ele><time>2026-03-26T17:34:34Z</time></trkpt><trkpt lat="44.02829349138275" lon="8.02862844187938"><ele>179.0</ele><time>2026-03-26T17:34:35Z</time></trkpt><trkpt lat="44.02835896840876" lon="8.02876225675453"><ele>179.0</ele><time>2026-03-26T17:34:36Z</time></trkpt><trkpt lat="44.02844171037991" lon="8.028922459626783"><ele>179.0</ele><time>2026-03-26T17:34:37Z</time></trkpt><trkpt lat="44.02849139134337" lon="8.029089397629583"><ele>179.0</ele><time>2026-03-26T17:34:38Z</time></trkpt><trkpt lat="44.02851365811224" lon="8.02924826006331"><ele>179.0</ele><time>2026-03-26T17:34:39Z</time></trkpt><trkpt lat="44.02851148408268" lon="8.029393397718525"><ele>178.66666666666666</ele><time>2026-03-26T17:34:40Z</time></trkpt><trkpt lat="44.02850916332736" lon="8.029512633587581"><ele>178.33333333333331</ele><time>2026-03-26T17:34:41Z</time></trkpt><trkpt lat="44.028502145127014" lon="8.029617934114501"><ele>178.0</ele><time>2026-03-26T17:34:42Z</time></trkpt><trkpt lat="44.028471201502285" lon="8.029741766334803"><ele>177.66666666666666</ele><time>2026-03-26T17:34:44Z</time></trkpt><trkpt lat="44.02842337248228" lon="8.029860605040053"><ele>177.33333333333334</ele><time>2026-03-26T17:34:51Z</time></trkpt><trkpt lat="44.0283703641167" lon="8.029963842738056"><ele>177.0</ele><time>2026-03-26T17:35:41.999Z</time></trkpt><trkpt lat="44.0283017785915" lon="8.030113350764937"><ele>182.0</ele><time>2026-03-26T17:35:43.999Z</time></trkpt><trkpt lat="44.028267185841564" lon="8.030230790219125"><ele>187.0</ele><time>2026-03-26T17:35:44.999Z</time></trkpt><trkpt lat="44.02822940982525" lon="8.030356789450392"><ele>192.0</ele><time>2026-03-26T17:35:45.999Z</time></trkpt><trkpt lat="44.02818112121778" lon="8.030461906292402"><ele>197.0</ele><time>2026-03-26T17:35:46.999Z</time></trkpt><trkpt lat="44.02814116947578" lon="8.030550665888995"><ele>202.0</ele><time>2026-03-26T17:35:47.999Z</time></trkpt><trkpt lat="44.02813117097155" lon="8.030644000362631"><ele>207.0</ele><time>2026-03-26T17:35:48.999Z</time></trkpt><trkpt lat="44.028129731896705" lon="8.030801649349181"><ele>207.0</ele><time>2026-03-26T17:35:50.999Z</time></trkpt><trkpt lat="44.028152618360046" lon="8.030955393046247"><ele>207.0</ele><time>2026-03-26T17:35:51.999Z</time></trkpt><trkpt lat="44.028164349903626" lon="8.031084238628113"><ele>207.0</ele><time>2026-03-26T17:35:52.999Z</time></trkpt><trkpt lat="44.02818223259141" lon="8.03117942565445"><ele>207.0</ele><time>2026-03-26T17:35:54.999Z</time></trkpt><trkpt lat="44.028131437017095" lon="8.031281960562222"><ele>207.0</ele><time>2026-03-26T17:35:59Z</time></trkpt><trkpt lat="44.028094105768105" lon="8.031385463829547"><ele>207.0</ele><time>2026-03-26T17:36:02Z</time></trkpt><trkpt lat="44.02815544715313" lon="8.031478985292466"><ele>207.0</ele><time>2026-03-26T17:36:04Z</time></trkpt><trkpt lat="44.02823068161984" lon="8.031583647132939"><ele>207.0</ele><time>2026-03-26T17:36:06Z</time></trkpt><trkpt lat="44.02824282968492" lon="8.031780911041771"><ele>207.0</ele><time>2026-03-26T17:36:08Z</time></trkpt><trkpt lat="44.02823590731973" lon="8.031912603882182"><ele>207.0</ele><time>2026-03-26T17:36:10Z</time></trkpt><trkpt lat="44.02820352743918" lon="8.03201232895916"><ele>208.25</ele><time>2026-03-26T17:36:11Z</time></trkpt><trkpt lat="44.02814631784543" lon="8.032140153013138"><ele>209.5</ele><time>2026-03-26T17:36:12Z</time></trkpt><trkpt lat="44.02807966761342" lon="8.032284852922599"><ele>210.75</ele><time>2026-03-26T17:36:13Z</time></trkpt><trkpt lat="44.02802335157414" lon="8.032440084862905"><ele>212.0</ele><time>2026-03-26T17:36:14Z</time></trkpt><trkpt lat="44.02796978513844" lon="8.032618636922317"><ele>212.0</ele><time>2026-03-26T17:36:15Z</time></trkpt><trkpt lat="44.02795877270804" lon="8.032776504262769"><ele>212.0</ele><time>2026-03-26T17:36:16Z</time></trkpt><trkpt lat="44.02796131717499" lon="8.032911681111704"><ele>212.0</ele><time>2026-03-26T17:36:17Z</time></trkpt><trkpt lat="44.02794962263404" lon="8.033059867343711"><ele>212.0</ele><time>2026-03-26T17:36:18Z</time></trkpt><trkpt lat="44.027945581158235" lon="8.033222495988547"><ele>212.0</ele><time>2026-03-26T17:36:19Z</time></trkpt><trkpt lat="44.027972156069254" lon="8.033387143985781"><ele>212.5</ele><time>2026-03-26T17:36:20Z</time></trkpt><trkpt lat="44.028006133914765" lon="8.033585610999673"><ele>213.0</ele><time>2026-03-26T17:36:21Z</time></trkpt><trkpt lat="44.028038947261294" lon="8.033767243103087"><ele>213.5</ele><time>2026-03-26T17:36:22Z</time></trkpt><trkpt lat="44.02805335974387" lon="8.033907884736072"><ele>214.0</ele><time>2026-03-26T17:36:23Z</time></trkpt><trkpt lat="44.028059154298134" lon="8.034034805874827"><ele>215.0</ele><time>2026-03-26T17:36:24Z</time></trkpt><trkpt lat="44.02805062499675" lon="8.034151824544256"><ele>215.99999999999997</ele><time>2026-03-26T17:36:25Z</time></trkpt><trkpt lat="44.02806014342148" lon="8.034293175353147"><ele>216.99999999999997</ele><time>2026-03-26T17:36:26Z</time></trkpt><trkpt lat="44.02809504730041" lon="8.034406134673551"><ele>218.0</ele><time>2026-03-26T17:36:27Z</time></trkpt><trkpt lat="44.028141399316084" lon="8.034530751816748"><ele>219.0</ele><time>2026-03-26T17:36:28Z</time></trkpt><trkpt lat="44.02817242646823" lon="8.034688690225899"><ele>219.0</ele><time>2026-03-26T17:36:29Z</time></trkpt><trkpt lat="44.0281665668716" lon="8.034878574189065"><ele>219.0</ele><time>2026-03-26T17:36:30Z</time></trkpt><trkpt lat="44.02815619333339" lon="8.035082937257542"><ele>219.0</ele><time>2026-03-26T17:36:31Z</time></trkpt><trkpt lat="44.02815869299997" lon="8.035305519369674"><ele>219.0</ele><time>2026-03-26T17:36:32Z</time></trkpt><trkpt lat="44.028164831036605" lon="8.035477498617059"><ele>219.0</ele><time>2026-03-26T17:36:33Z</time></trkpt><trkpt lat="44.02818190723346" lon="8.035589092082247"><ele>218.99999999999997</ele><time>2026-03-26T17:36:34Z</time></trkpt><trkpt lat="44.02819377925737" lon="8.035713186665339"><ele>218.99999999999997</ele><time>2026-03-26T17:36:35Z</time></trkpt><trkpt lat="44.02819377798749" lon="8.035840143578005"><ele>219.0</ele><time>2026-03-26T17:36:36Z</time></trkpt><trkpt lat="44.02819530157937" lon="8.035966946575769"><ele>219.0</ele><time>2026-03-26T17:36:37Z</time></trkpt><trkpt lat="44.02822678095711" lon="8.036095881919612"><ele>218.5</ele><time>2026-03-26T17:36:38Z</time></trkpt><trkpt lat="44.028212627700306" lon="8.03626903785675"><ele>218.0</ele><time>2026-03-26T17:36:40Z</time></trkpt><trkpt lat="44.028180762182096" lon="8.036401389796636"><ele>217.5</ele><time>2026-03-26T17:36:41Z</time></trkpt><trkpt lat="44.0281133088421" lon="8.03656521580384"><ele>217.0</ele><time>2026-03-26T17:36:42Z</time></trkpt><trkpt lat="44.02807754655389" lon="8.0367022646462"><ele>217.0</ele><time>2026-03-26T17:36:43Z</time></trkpt><trkpt lat="44.02806072855769" lon="8.036855915547337"><ele>217.0</ele><time>2026-03-26T17:36:44Z</time></trkpt><trkpt lat="44.028050265673784" lon="8.037025434281095"><ele>217.0</ele><time>2026-03-26T17:36:45Z</time></trkpt><trkpt lat="44.02803384394413" lon="8.03716950108409"><ele>217.0</ele><time>2026-03-26T17:36:46Z</time></trkpt><trkpt lat="44.0280314073748" lon="8.037317360155509"><ele>217.0</ele><time>2026-03-26T17:36:47Z</time></trkpt><trkpt lat="44.028031566869835" lon="8.037505020647933"><ele>214.8</ele><time>2026-03-26T17:36:48Z</time></trkpt><trkpt lat="44.02803942816221" lon="8.037683730717994"><ele>212.6</ele><time>2026-03-26T17:36:49Z</time></trkpt><trkpt lat="44.02803219840484" lon="8.037819957953742"><ele>210.4</ele><time>2026-03-26T17:36:50Z</time></trkpt><trkpt lat="44.02800037811558" lon="8.037943873643371"><ele>208.20000000000002</ele><time>2026-03-26T17:36:51Z</time></trkpt><trkpt lat="44.02795110618783" lon="8.038066201174262"><ele>206.0</ele><time>2026-03-26T17:36:52Z</time></trkpt><trkpt lat="44.027882630007156" lon="8.038160031944182"><ele>206.0</ele><time>2026-03-26T17:36:53Z</time></trkpt><trkpt lat="44.02780252911229" lon="8.038271008224628"><ele>206.0</ele><time>2026-03-26T17:36:54Z</time></trkpt><trkpt lat="44.027702425645074" lon="8.038410460174795"><ele>206.0</ele><time>2026-03-26T17:36:55Z</time></trkpt><trkpt lat="44.02763548162247" lon="8.038527114323633"><ele>206.0</ele><time>2026-03-26T17:36:56Z</time></trkpt><trkpt lat="44.027632228168045" lon="8.038636505828928"><ele>206.0</ele><time>2026-03-26T17:36:57Z</time></trkpt><trkpt lat="44.02764063370631" lon="8.038795929289382"><ele>203.4</ele><time>2026-03-26T17:36:58Z</time></trkpt><trkpt lat="44.02763438761385" lon="8.038955333240494"><ele>200.8</ele><time>2026-03-26T17:36:59Z</time></trkpt><trkpt lat="44.02762849924635" lon="8.039096906375283"><ele>198.20000000000002</ele><time>2026-03-26T17:37:00Z</time></trkpt><trkpt lat="44.02762926832847" lon="8.039232438691418"><ele>195.60000000000002</ele><time>2026-03-26T17:37:01Z</time></trkpt><trkpt lat="44.02763655790222" lon="8.039393780330899"><ele>193.0</ele><time>2026-03-26T17:37:02Z</time></trkpt><trkpt lat="44.02763481497519" lon="8.039554544440325"><ele>191.5</ele><time>2026-03-26T17:37:03Z</time></trkpt><trkpt lat="44.0276269366106" lon="8.039700195589633"><ele>190.0</ele><time>2026-03-26T17:37:04Z</time></trkpt><trkpt lat="44.02764753195394" lon="8.039811236724404"><ele>188.5</ele><time>2026-03-26T17:37:04.999Z</time></trkpt><trkpt lat="44.027690285269294" lon="8.040063423951553"><ele>187.0</ele><time>2026-03-26T17:37:06.999Z</time></trkpt><trkpt lat="44.02769518889886" lon="8.040202145993128"><ele>185.75</ele><time>2026-03-26T17:37:07.999Z</time></trkpt><trkpt lat="44.027661727352395" lon="8.040350996336285"><ele>184.5</ele><time>2026-03-26T17:37:08.999Z</time></trkpt><trkpt lat="44.027631333026406" lon="8.040544534640391"><ele>183.25</ele><time>2026-03-26T17:37:09.999Z</time></trkpt><trkpt lat="44.027603968685646" lon="8.040700672203533"><ele>182.0</ele><time>2026-03-26T17:37:10.999Z</time></trkpt><trkpt lat="44.027584672009645" lon="8.040846060855673"><ele>180.0</ele><time>2026-03-26T17:37:11.999Z</time></trkpt><trkpt lat="44.027536599717465" lon="8.040988252291182"><ele>178.0</ele><time>2026-03-26T17:37:12.999Z</time></trkpt><trkpt lat="44.02749131284056" lon="8.041140462375841"><ele>176.0</ele><time>2026-03-26T17:37:13.999Z</time></trkpt><trkpt lat="44.02739360924093" lon="8.041234309384532"><ele>174.0</ele><time>2026-03-26T17:37:15.999Z</time></trkpt><trkpt lat="44.02734979742201" lon="8.041383428322945"><ele>187.0</ele><time>2026-03-26T17:37:16.999Z</time></trkpt><trkpt lat="44.02728816445175" lon="8.041574205595138"><ele>200.0</ele><time>2026-03-26T17:37:17.999Z</time></trkpt><trkpt lat="44.02720002846839" lon="8.041753671573042"><ele>213.0</ele><time>2026-03-26T17:37:18.999Z</time></trkpt><trkpt lat="44.02715107230044" lon="8.041910350582212"><ele>226.0</ele><time>2026-03-26T17:37:19.999Z</time></trkpt><trkpt lat="44.02711102319596" lon="8.042091241799344"><ele>226.0</ele><time>2026-03-26T17:37:20.999Z</time></trkpt><trkpt lat="44.02704569920764" lon="8.042258280286308"><ele>226.0</ele><time>2026-03-26T17:37:21.999Z</time></trkpt><trkpt lat="44.02697249572026" lon="8.042434678596406"><ele>226.0</ele><time>2026-03-26T17:37:22.999Z</time></trkpt><trkpt lat="44.02692765858233" lon="8.042581821973677"><ele>226.0</ele><time>2026-03-26T17:37:23.999Z</time></trkpt><trkpt lat="44.02691868101622" lon="8.04272447366459"><ele>218.5</ele><time>2026-03-26T17:37:24.999Z</time></trkpt><trkpt lat="44.02690466534934" lon="8.042916367549044"><ele>211.0</ele><time>2026-03-26T17:37:25.999Z</time></trkpt><trkpt lat="44.02687112497271" lon="8.04309445017909"><ele>203.5</ele><time>2026-03-26T17:37:26.999Z</time></trkpt><trkpt lat="44.02685870104334" lon="8.043253206234201"><ele>196.0</ele><time>2026-03-26T17:37:27.999Z</time></trkpt><trkpt lat="44.026843897983944" lon="8.043459945231763"><ele>191.4</ele><time>2026-03-26T17:37:28.999Z</time></trkpt><trkpt lat="44.026828262884614" lon="8.043603284215537"><ele>186.8</ele><time>2026-03-26T17:37:29.999Z</time></trkpt><trkpt lat="44.02678857093132" lon="8.043727702857792"><ele>182.20000000000002</ele><time>2026-03-26T17:37:30.999Z</time></trkpt><trkpt lat="44.0267450427088" lon="8.043882304167361"><ele>177.60000000000002</ele><time>2026-03-26T17:37:31.999Z</time></trkpt><trkpt lat="44.02671344606984" lon="8.044027485281937"><ele>173.0</ele><time>2026-03-26T17:37:32.999Z</time></trkpt><trkpt lat="44.02668225822983" lon="8.044160397727063"><ele>171.0</ele><time>2026-03-26T17:37:33.999Z</time></trkpt><trkpt lat="44.02662625938475" lon="8.04425332208473"><ele>169.0</ele><time>2026-03-26T17:37:34.999Z</time></trkpt><trkpt lat="44.026561909748395" lon="8.044357641784616"><ele>167.0</ele><time>2026-03-26T17:37:35.999Z</time></trkpt><trkpt lat="44.02645941435065" lon="8.044459610721203"><ele>165.0</ele><time>2026-03-26T17:37:36.999Z</time></trkpt><trkpt lat="44.02640028684107" lon="8.044562521459106"><ele>163.0</ele><time>2026-03-26T17:37:37.999Z</time></trkpt><trkpt lat="44.026321575267026" lon="8.044603816712081"><ele>163.0</ele><time>2026-03-26T17:37:39.999Z</time></trkpt><trkpt lat="44.02624611602516" lon="8.04459140219217"><ele>163.0</ele><time>2026-03-26T17:37:40.999Z</time></trkpt><trkpt lat="44.02615056889614" lon="8.044568306572701"><ele>163.0</ele><time>2026-03-26T17:37:41.999Z</time></trkpt><trkpt lat="44.02604423084695" lon="8.04449218262789"><ele>163.0</ele><time>2026-03-26T17:37:42.999Z</time></trkpt><trkpt lat="44.02593795763763" lon="8.044363836025514"><ele>163.0</ele><time>2026-03-26T17:37:43.999Z</time></trkpt><trkpt lat="44.02581254887877" lon="8.044212495073223"><ele>168.2</ele><time>2026-03-26T17:37:44.999Z</time></trkpt><trkpt lat="44.02570577783858" lon="8.044105892039498"><ele>173.4</ele><time>2026-03-26T17:37:45.999Z</time></trkpt><trkpt lat="44.02563681571177" lon="8.044070924485654"><ele>178.6</ele><time>2026-03-26T17:37:46.999Z</time></trkpt><trkpt lat="44.025561705640335" lon="8.04406941427779"><ele>183.79999999999998</ele><time>2026-03-26T17:37:47.999Z</time></trkpt><trkpt lat="44.02548518366051" lon="8.044090952296767"><ele>189.0</ele><time>2026-03-26T17:37:48.999Z</time></trkpt><trkpt lat="44.025397698852544" lon="8.044046776594705"><ele>189.0</ele><time>2026-03-26T17:37:49.999Z</time></trkpt><trkpt lat="44.02529065086504" lon="8.044006820036257"><ele>189.0</ele><time>2026-03-26T17:37:50.999Z</time></trkpt><trkpt lat="44.02522296864862" lon="8.04398643428857"><ele>189.0</ele><time>2026-03-26T17:37:51.999Z</time></trkpt><trkpt lat="44.02516406036605" lon="8.044039318966862"><ele>189.0</ele><time>2026-03-26T17:37:52.999Z</time></trkpt><trkpt lat="44.02503676252868" lon="8.044085841173683"><ele>189.0</ele><time>2026-03-26T17:37:53.999Z</time></trkpt><trkpt lat="44.024888885873885" lon="8.044129593444946"><ele>186.33333333333334</ele><time>2026-03-26T17:37:54.999Z</time></trkpt><trkpt lat="44.02479754714771" lon="8.044126614399142"><ele>183.66666666666666</ele><time>2026-03-26T17:37:55.999Z</time></trkpt><trkpt lat="44.02471553080374" lon="8.044112238220835"><ele>181.0</ele><time>2026-03-26T17:37:56.999Z</time></trkpt><trkpt lat="44.024653786038826" lon="8.044070584102988"><ele>178.33333333333331</ele><time>2026-03-26T17:37:59.999Z</time></trkpt><trkpt lat="44.02457017369284" lon="8.044028649084002"><ele>175.66666666666666</ele><time>2026-03-26T17:38:00.999Z</time></trkpt><trkpt lat="44.02446732092" lon="8.043975394746566"><ele>173.0</ele><time>2026-03-26T17:38:01.999Z</time></trkpt><trkpt lat="44.024371942887896" lon="8.043871415658314"><ele>173.0</ele><time>2026-03-26T17:38:02.999Z</time></trkpt><trkpt lat="44.02426073776332" lon="8.043767231905504"><ele>173.0</ele><time>2026-03-26T17:38:04Z</time></trkpt><trkpt lat="44.024154010060165" lon="8.043695289161457"><ele>173.0</ele><time>2026-03-26T17:38:05Z</time></trkpt><trkpt lat="44.02404586618701" lon="8.043636543019227"><ele>173.0</ele><time>2026-03-26T17:38:06Z</time></trkpt><trkpt lat="44.02395175898328" lon="8.043556594687164"><ele>172.0</ele><time>2026-03-26T17:38:07Z</time></trkpt><trkpt lat="44.023867821402305" lon="8.043461880539525"><ele>171.0</ele><time>2026-03-26T17:38:08Z</time></trkpt><trkpt lat="44.02376178705501" lon="8.043366049144176"><ele>170.0</ele><time>2026-03-26T17:38:09Z</time></trkpt><trkpt lat="44.023652044797245" lon="8.043272967362933"><ele>169.0</ele><time>2026-03-26T17:38:10Z</time></trkpt><trkpt lat="44.023578677077595" lon="8.043190410026797"><ele>173.0</ele><time>2026-03-26T17:38:11Z</time></trkpt><trkpt lat="44.02349779513652" lon="8.043159500525269"><ele>177.0</ele><time>2026-03-26T17:38:12Z</time></trkpt><trkpt lat="44.02339254925902" lon="8.043144613992697"><ele>181.0</ele><time>2026-03-26T17:38:13Z</time></trkpt><trkpt lat="44.02326429472424" lon="8.043138254823072"><ele>185.0</ele><time>2026-03-26T17:38:14Z</time></trkpt><trkpt lat="44.02314342505428" lon="8.043116985880706"><ele>189.0</ele><time>2026-03-26T17:38:15Z</time></trkpt><trkpt lat="44.02306813858834" lon="8.043099703626165"><ele>189.0</ele><time>2026-03-26T17:38:16Z</time></trkpt><trkpt lat="44.023003903565055" lon="8.04307959474522"><ele>189.0</ele><time>2026-03-26T17:38:17Z</time></trkpt><trkpt lat="44.022888302577975" lon="8.043026371772022"><ele>189.0</ele><time>2026-03-26T17:38:18Z</time></trkpt><trkpt lat="44.02275696779666" lon="8.042950208447106"><ele>189.0</ele><time>2026-03-26T17:38:19Z</time></trkpt><trkpt lat="44.022662396898525" lon="8.042935659256635"><ele>189.0</ele><time>2026-03-26T17:38:20Z</time></trkpt><trkpt lat="44.02254180169404" lon="8.042905711323717"><ele>188.0</ele><time>2026-03-26T17:38:21Z</time></trkpt><trkpt lat="44.02240318769023" lon="8.042884002986678"><ele>187.0</ele><time>2026-03-26T17:38:22Z</time></trkpt><trkpt lat="44.02230204879655" lon="8.042867741638274"><ele>186.0</ele><time>2026-03-26T17:38:23Z</time></trkpt><trkpt lat="44.022213670274105" lon="8.042847359499062"><ele>185.0</ele><time>2026-03-26T17:38:24Z</time></trkpt><trkpt lat="44.02214843009741" lon="8.042784872313236"><ele>184.0</ele><time>2026-03-26T17:38:25Z</time></trkpt><trkpt lat="44.02209675813102" lon="8.042716206033884"><ele>184.0</ele><time>2026-03-26T17:38:26Z</time></trkpt><trkpt lat="44.02204926740047" lon="8.042638617800135"><ele>184.0</ele><time>2026-03-26T17:38:27Z</time></trkpt><trkpt lat="44.02194265830816" lon="8.04274818923738"><ele>184.0</ele><time>2026-03-26T17:38:30Z</time></trkpt><trkpt lat="44.02180731154995" lon="8.042714226547501"><ele>184.0</ele><time>2026-03-26T17:38:32Z</time></trkpt><trkpt lat="44.0216860937522" lon="8.042669834577648"><ele>183.2</ele><time>2026-03-26T17:38:33Z</time></trkpt><trkpt lat="44.021561926443795" lon="8.042646601254368"><ele>182.39999999999998</ele><time>2026-03-26T17:38:34Z</time></trkpt><trkpt lat="44.02146145268777" lon="8.042626468436595"><ele>181.6</ele><time>2026-03-26T17:38:35Z</time></trkpt><trkpt lat="44.02135934338487" lon="8.042591546448898"><ele>180.8</ele><time>2026-03-26T17:38:36Z</time></trkpt><trkpt lat="44.02127303917351" lon="8.042553889679528"><ele>180.0</ele><time>2026-03-26T17:38:37Z</time></trkpt><trkpt lat="44.02119208834954" lon="8.042510771257493"><ele>182.0</ele><time>2026-03-26T17:38:38Z</time></trkpt><trkpt lat="44.02114122660425" lon="8.042454321586026"><ele>184.0</ele><time>2026-03-26T17:38:39Z</time></trkpt><trkpt lat="44.021093098468235" lon="8.042395708178468"><ele>186.0</ele><time>2026-03-26T17:38:40Z</time></trkpt><trkpt lat="44.02104589759934" lon="8.042316136319624"><ele>188.0</ele><time>2026-03-26T17:38:41Z</time></trkpt><trkpt lat="44.02095883954727" lon="8.042194565266149"><ele>190.0</ele><time>2026-03-26T17:38:42Z</time></trkpt><trkpt lat="44.020849368156334" lon="8.042067415111898"><ele>189.75</ele><time>2026-03-26T17:38:43Z</time></trkpt><trkpt lat="44.02081161053773" lon="8.041967057858797"><ele>189.5</ele><time>2026-03-26T17:38:44Z</time></trkpt><trkpt lat="44.02070751761056" lon="8.04180784003862"><ele>189.25</ele><time>2026-03-26T17:38:45Z</time></trkpt><trkpt lat="44.02065606587195" lon="8.041677960870487"><ele>189.0</ele><time>2026-03-26T17:38:46Z</time></trkpt><trkpt lat="44.020608461886646" lon="8.041513176428788"><ele>193.5</ele><time>2026-03-26T17:38:47Z</time></trkpt><trkpt lat="44.020560081822076" lon="8.041426789989764"><ele>198.0</ele><time>2026-03-26T17:38:48Z</time></trkpt><trkpt lat="44.02047744907797" lon="8.041347117843761"><ele>202.5</ele><time>2026-03-26T17:38:49Z</time></trkpt><trkpt lat="44.02040308006994" lon="8.041278443650905"><ele>207.0</ele><time>2026-03-26T17:38:50Z</time></trkpt><trkpt lat="44.02033604597478" lon="8.041260143668067"><ele>211.5</ele><time>2026-03-26T17:38:51Z</time></trkpt><trkpt lat="44.020266039495176" lon="8.041272806365047"><ele>216.0</ele><time>2026-03-26T17:38:52Z</time></trkpt><trkpt lat="44.02019335499154" lon="8.041287085234806"><ele>216.0</ele><time>2026-03-26T17:38:53Z</time></trkpt><trkpt lat="44.020098117718696" lon="8.041311325184626"><ele>216.00000000000003</ele><time>2026-03-26T17:38:54Z</time></trkpt><trkpt lat="44.01999140024472" lon="8.041311147749205"><ele>216.00000000000003</ele><time>2026-03-26T17:38:55Z</time></trkpt><trkpt lat="44.01986066664552" lon="8.041293252390487"><ele>216.0</ele><time>2026-03-26T17:38:56Z</time></trkpt><trkpt lat="44.01975146052653" lon="8.041323248121289"><ele>216.0</ele><time>2026-03-26T17:38:56.999Z</time></trkpt><trkpt lat="44.01964447821455" lon="8.041318585073258"><ele>215.60000000000002</ele><time>2026-03-26T17:38:57.999Z</time></trkpt><trkpt lat="44.01954100593733" lon="8.041345211643822"><ele>215.20000000000002</ele><time>2026-03-26T17:38:58.999Z</time></trkpt><trkpt lat="44.019446792859604" lon="8.04134323780725"><ele>214.79999999999998</ele><time>2026-03-26T17:38:59.999Z</time></trkpt><trkpt lat="44.019358842792066" lon="8.041329119687038"><ele>214.39999999999998</ele><time>2026-03-26T17:39:00.999Z</time></trkpt><trkpt lat="44.01927059564174" lon="8.041270823254905"><ele>214.0</ele><time>2026-03-26T17:39:01.999Z</time></trkpt><trkpt lat="44.01918099966397" lon="8.041229933917975"><ele>211.2</ele><time>2026-03-26T17:39:02.999Z</time></trkpt><trkpt lat="44.01906171500989" lon="8.041202741079928"><ele>208.39999999999998</ele><time>2026-03-26T17:39:03.999Z</time></trkpt><trkpt lat="44.01898498462569" lon="8.041196328030503"><ele>205.6</ele><time>2026-03-26T17:39:04.999Z</time></trkpt><trkpt lat="44.01890945167512" lon="8.041182270532923"><ele>202.8</ele><time>2026-03-26T17:39:05.999Z</time></trkpt><trkpt lat="44.01879492531382" lon="8.04117714730392"><ele>200.0</ele><time>2026-03-26T17:39:06.999Z</time></trkpt><trkpt lat="44.018726002633414" lon="8.04119211879816"><ele>200.00000000000003</ele><time>2026-03-26T17:39:07.999Z</time></trkpt><trkpt lat="44.01867038256979" lon="8.041148879908945"><ele>200.0</ele><time>2026-03-26T17:39:08.999Z</time></trkpt><trkpt lat="44.01863024800493" lon="8.041076108138856"><ele>200.0</ele><time>2026-03-26T17:39:09.999Z</time></trkpt><trkpt lat="44.01854574553391" lon="8.040961782143984"><ele>200.0</ele><time>2026-03-26T17:39:10.999Z</time></trkpt><trkpt lat="44.01846185240981" lon="8.040859032348814"><ele>200.00000000000003</ele><time>2026-03-26T17:39:11.999Z</time></trkpt><trkpt lat="44.018410775671576" lon="8.040760254036291"><ele>200.0</ele><time>2026-03-26T17:39:12.999Z</time></trkpt><trkpt lat="44.01843352279039" lon="8.040610228487362"><ele>200.83333333333334</ele><time>2026-03-26T17:39:14.999Z</time></trkpt><trkpt lat="44.018354794129735" lon="8.040576844238231"><ele>201.66666666666669</ele><time>2026-03-26T17:39:16.999Z</time></trkpt><trkpt lat="44.01828411984545" lon="8.040568286961369"><ele>202.5</ele><time>2026-03-26T17:39:17.999Z</time></trkpt><trkpt lat="44.01823124204215" lon="8.040462052107875"><ele>203.33333333333331</ele><time>2026-03-26T17:39:19.999Z</time></trkpt><trkpt lat="44.01821955248193" lon="8.040370761350218"><ele>204.16666666666666</ele><time>2026-03-26T17:39:20.999Z</time></trkpt><trkpt lat="44.018197940393975" lon="8.040268052642613"><ele>205.0</ele><time>2026-03-26T17:39:21.999Z</time></trkpt><trkpt lat="44.01814086434889" lon="8.040150869834303"><ele>205.0</ele><time>2026-03-26T17:39:22.999Z</time></trkpt><trkpt lat="44.018068751033624" lon="8.040063942553077"><ele>205.0</ele><time>2026-03-26T17:39:23.999Z</time></trkpt><trkpt lat="44.018001951160656" lon="8.039943089099623"><ele>205.0</ele><time>2026-03-26T17:39:24.999Z</time></trkpt><trkpt lat="44.01792727453879" lon="8.039807810623026"><ele>205.0</ele><time>2026-03-26T17:39:25.999Z</time></trkpt><trkpt lat="44.017856915912745" lon="8.039679375241159"><ele>205.0</ele><time>2026-03-26T17:39:26.999Z</time></trkpt><trkpt lat="44.01780332570715" lon="8.03957925925146"><ele>206.8</ele><time>2026-03-26T17:39:27.999Z</time></trkpt><trkpt lat="44.01776415248052" lon="8.03945731510604"><ele>208.6</ele><time>2026-03-26T17:39:28.999Z</time></trkpt><trkpt lat="44.01768353324223" lon="8.03934887656806"><ele>210.39999999999998</ele><time>2026-03-26T17:39:29.999Z</time></trkpt><trkpt lat="44.017615998413866" lon="8.039252768578221"><ele>212.2</ele><time>2026-03-26T17:39:30.999Z</time></trkpt><trkpt lat="44.01755964016431" lon="8.039166018901087"><ele>214.0</ele><time>2026-03-26T17:39:31.999Z</time></trkpt><trkpt lat="44.017495799568955" lon="8.039064575019658"><ele>214.39999999999998</ele><time>2026-03-26T17:39:32.999Z</time></trkpt><trkpt lat="44.017431493068585" lon="8.038993645218211"><ele>214.79999999999998</ele><time>2026-03-26T17:39:33.999Z</time></trkpt><trkpt lat="44.017308649899526" lon="8.03894699753811"><ele>215.20000000000002</ele><time>2026-03-26T17:39:35.999Z</time></trkpt><trkpt lat="44.01725132402454" lon="8.038878370689872"><ele>215.60000000000002</ele><time>2026-03-26T17:39:36.999Z</time></trkpt><trkpt lat="44.01719345418932" lon="8.038752203687162"><ele>216.0</ele><time>2026-03-26T17:39:37.999Z</time></trkpt><trkpt lat="44.017129265814916" lon="8.038671466426564"><ele>216.0</ele><time>2026-03-26T17:39:38.999Z</time></trkpt><trkpt lat="44.01706186625939" lon="8.03864145998014"><ele>216.00000000000003</ele><time>2026-03-26T17:39:39.999Z</time></trkpt><trkpt lat="44.016940887684854" lon="8.038584385255794"><ele>216.00000000000003</ele><time>2026-03-26T17:39:41.999Z</time></trkpt><trkpt lat="44.01689478446489" lon="8.038497114409097"><ele>216.0</ele><time>2026-03-26T17:39:42.999Z</time></trkpt><trkpt lat="44.01685542713002" lon="8.038360893164507"><ele>216.0</ele><time>2026-03-26T17:39:43.999Z</time></trkpt><trkpt lat="44.01681497739327" lon="8.038241481887637"><ele>216.4</ele><time>2026-03-26T17:39:44.999Z</time></trkpt><trkpt lat="44.01676298019885" lon="8.038115700515604"><ele>216.8</ele><time>2026-03-26T17:39:45.999Z</time></trkpt><trkpt lat="44.01671235548811" lon="8.03795495112629"><ele>217.20000000000002</ele><time>2026-03-26T17:39:46.999Z</time></trkpt><trkpt lat="44.0166675084634" lon="8.037836307917546"><ele>217.60000000000002</ele><time>2026-03-26T17:39:47.999Z</time></trkpt><trkpt lat="44.01657542436746" lon="8.03777994402322"><ele>218.0</ele><time>2026-03-26T17:39:48.999Z</time></trkpt><trkpt lat="44.01653828978682" lon="8.037708954050077"><ele>218.0</ele><time>2026-03-26T17:39:49.999Z</time></trkpt><trkpt lat="44.016442092041046" lon="8.037655048511558"><ele>218.0</ele><time>2026-03-26T17:39:51.999Z</time></trkpt><trkpt lat="44.01640110282024" lon="8.037558363573444"><ele>218.0</ele><time>2026-03-26T17:39:53.999Z</time></trkpt><trkpt lat="44.016372264134596" lon="8.037454468933491"><ele>218.0</ele><time>2026-03-26T17:39:55.999Z</time></trkpt><trkpt lat="44.01633206755697" lon="8.03728866191139"><ele>218.0</ele><time>2026-03-26T17:39:57.999Z</time></trkpt><trkpt lat="44.0162548245787" lon="8.03721197191317"><ele>220.50000000000003</ele><time>2026-03-26T17:39:59.999Z</time></trkpt><trkpt lat="44.01619494795361" lon="8.037181872253774"><ele>223.0</ele><time>2026-03-26T17:40:00.999Z</time></trkpt><trkpt lat="44.016130571748405" lon="8.037071241320987"><ele>225.5</ele><time>2026-03-26T17:40:02.999Z</time></trkpt><trkpt lat="44.016118906549906" lon="8.03689169050182"><ele>228.0</ele><time>2026-03-26T17:40:04.999Z</time></trkpt><trkpt lat="44.01612472671649" lon="8.036788400483601"><ele>230.50000000000003</ele><time>2026-03-26T17:40:05.999Z</time></trkpt><trkpt lat="44.01612294503489" lon="8.036700435856229"><ele>233.0</ele><time>2026-03-26T17:40:06.999Z</time></trkpt><trkpt lat="44.01612640708079" lon="8.036604928085897"><ele>236.2</ele><time>2026-03-26T17:40:07.999Z</time></trkpt><trkpt lat="44.016085901900496" lon="8.036432346119962"><ele>239.4</ele><time>2026-03-26T17:40:10Z</time></trkpt><trkpt lat="44.01607909908595" lon="8.036327314168615"><ele>242.59999999999997</ele><time>2026-03-26T17:40:11Z</time></trkpt><trkpt lat="44.01609159215473" lon="8.036207097744681"><ele>245.79999999999998</ele><time>2026-03-26T17:40:12Z</time></trkpt><trkpt lat="44.01611445525775" lon="8.036069105634558"><ele>249.0</ele><time>2026-03-26T17:40:13Z</time></trkpt><trkpt lat="44.01613255083169" lon="8.035957481234554"><ele>249.0</ele><time>2026-03-26T17:40:14Z</time></trkpt><trkpt lat="44.016154839644024" lon="8.035825322674132"><ele>249.0</ele><time>2026-03-26T17:40:15Z</time></trkpt><trkpt lat="44.01616458743065" lon="8.035702584316496"><ele>249.0</ele><time>2026-03-26T17:40:16Z</time></trkpt><trkpt lat="44.016167146653416" lon="8.035581753318862"><ele>249.0</ele><time>2026-03-26T17:40:17Z</time></trkpt><trkpt lat="44.016164008605315" lon="8.035460616386558"><ele>249.0</ele><time>2026-03-26T17:40:18Z</time></trkpt><trkpt lat="44.01619900927862" lon="8.03536066493074"><ele>249.0</ele><time>2026-03-26T17:40:19Z</time></trkpt><trkpt lat="44.016239567017294" lon="8.035254189014765"><ele>253.6</ele><time>2026-03-26T17:40:20Z</time></trkpt><trkpt lat="44.0162670012809" lon="8.035072023383943"><ele>258.2</ele><time>2026-03-26T17:40:22Z</time></trkpt><trkpt lat="44.0163042962449" lon="8.034938503282632"><ele>262.79999999999995</ele><time>2026-03-26T17:40:23Z</time></trkpt><trkpt lat="44.016307987372436" lon="8.034817566656026"><ele>267.4</ele><time>2026-03-26T17:40:24Z</time></trkpt><trkpt lat="44.0162907696427" lon="8.034715293066018"><ele>272.0</ele><time>2026-03-26T17:40:26Z</time></trkpt><trkpt lat="44.01622949826116" lon="8.034664867489075"><ele>272.0</ele><time>2026-03-26T17:40:28Z</time></trkpt><trkpt lat="44.01616407276828" lon="8.034767570347663"><ele>272.0</ele><time>2026-03-26T17:40:31Z</time></trkpt><trkpt lat="44.016127357088514" lon="8.034920514064833"><ele>272.0</ele><time>2026-03-26T17:40:33Z</time></trkpt><trkpt lat="44.01602212136129" lon="8.035024334568407"><ele>272.0</ele><time>2026-03-26T17:40:35Z</time></trkpt><trkpt lat="44.01593497932778" lon="8.035082783474023"><ele>272.0</ele><time>2026-03-26T17:40:37Z</time></trkpt><trkpt lat="44.01583108450168" lon="8.035187894086457"><ele>270.8</ele><time>2026-03-26T17:40:39Z</time></trkpt><trkpt lat="44.015742861127734" lon="8.035251209956312"><ele>269.6</ele><time>2026-03-26T17:40:40Z</time></trkpt><trkpt lat="44.01564674438299" lon="8.035320620940492"><ele>268.40000000000003</ele><time>2026-03-26T17:40:41Z</time></trkpt><trkpt lat="44.015559955383445" lon="8.035391704295403"><ele>267.2</ele><time>2026-03-26T17:40:42Z</time></trkpt><trkpt lat="44.01548104499527" lon="8.035411605011191"><ele>266.0</ele><time>2026-03-26T17:40:43Z</time></trkpt><trkpt lat="44.01538585699096" lon="8.035404522455377"><ele>266.0</ele><time>2026-03-26T17:40:44Z</time></trkpt><trkpt lat="44.015296752744376" lon="8.03539876839356"><ele>266.0</ele><time>2026-03-26T17:40:45Z</time></trkpt><trkpt lat="44.01518532410956" lon="8.03540524366952"><ele>266.0</ele><time>2026-03-26T17:40:46Z</time></trkpt><trkpt lat="44.015081848876676" lon="8.035382329190822"><ele>266.0</ele><time>2026-03-26T17:40:47Z</time></trkpt><trkpt lat="44.01502052484865" lon="8.035348758311141"><ele>266.0</ele><time>2026-03-26T17:40:48Z</time></trkpt><trkpt lat="44.014953734120056" lon="8.035273413384212"><ele>265.40000000000003</ele><time>2026-03-26T17:40:49Z</time></trkpt><trkpt lat="44.01487591273405" lon="8.03515284401134"><ele>264.8</ele><time>2026-03-26T17:40:50Z</time></trkpt><trkpt lat="44.01479823691264" lon="8.035041494996706"><ele>264.20000000000005</ele><time>2026-03-26T17:40:51Z</time></trkpt><trkpt lat="44.01470593494458" lon="8.034902172498304"><ele>263.6</ele><time>2026-03-26T17:40:53Z</time></trkpt><trkpt lat="44.014652235556746" lon="8.034811196345602"><ele>263.0</ele><time>2026-03-26T17:40:54Z</time></trkpt><trkpt lat="44.01456116475427" lon="8.034679019110655"><ele>263.0</ele><time>2026-03-26T17:40:55Z</time></trkpt><trkpt lat="44.01447679927411" lon="8.034546892753585"><ele>263.0</ele><time>2026-03-26T17:40:56Z</time></trkpt><trkpt lat="44.014418195399045" lon="8.034441391580952"><ele>263.0</ele><time>2026-03-26T17:40:57Z</time></trkpt><trkpt lat="44.014360393795236" lon="8.034323576261082"><ele>263.0</ele><time>2026-03-26T17:40:58Z</time></trkpt><trkpt lat="44.01431209121092" lon="8.034203216162517"><ele>263.0</ele><time>2026-03-26T17:40:59Z</time></trkpt><trkpt lat="44.014250476456134" lon="8.034049474417168"><ele>262.33333333333337</ele><time>2026-03-26T17:41:00.999Z</time></trkpt><trkpt lat="44.01422188735681" lon="8.033967735989561"><ele>261.6666666666667</ele><time>2026-03-26T17:41:01.999Z</time></trkpt><trkpt lat="44.01420174513127" lon="8.033876687227421"><ele>261.0</ele><time>2026-03-26T17:41:02.999Z</time></trkpt><trkpt lat="44.014176608295976" lon="8.033744052579715"><ele>260.3333333333333</ele><time>2026-03-26T17:41:03.999Z</time></trkpt><trkpt lat="44.01413176808501" lon="8.033665204128123"><ele>259.66666666666663</ele><time>2026-03-26T17:41:04.999Z</time></trkpt><trkpt lat="44.014031528796544" lon="8.033627719765532"><ele>259.0</ele><time>2026-03-26T17:41:06.999Z</time></trkpt><trkpt lat="44.013962540483895" lon="8.033468073160753"><ele>259.0</ele><time>2026-03-26T17:41:08.999Z</time></trkpt><trkpt lat="44.01391242573636" lon="8.03336801169928"><ele>259.0</ele><time>2026-03-26T17:41:09.999Z</time></trkpt><trkpt lat="44.01386659925667" lon="8.033295926561346"><ele>259.0</ele><time>2026-03-26T17:41:10.999Z</time></trkpt><trkpt lat="44.01381572954389" lon="8.033215137930991"><ele>259.0</ele><time>2026-03-26T17:41:11.999Z</time></trkpt><trkpt lat="44.01379394144599" lon="8.033128707923309"><ele>259.0</ele><time>2026-03-26T17:41:12.999Z</time></trkpt><trkpt lat="44.01381693338783" lon="8.032992895140325"><ele>259.0</ele><time>2026-03-26T17:41:14.999Z</time></trkpt><trkpt lat="44.0139185032536" lon="8.033003072680726"><ele>261.59999999999997</ele><time>2026-03-26T17:41:16.999Z</time></trkpt><trkpt lat="44.01395722762039" lon="8.033129688824989"><ele>264.2</ele><time>2026-03-26T17:41:18.999Z</time></trkpt><trkpt lat="44.01406511172214" lon="8.03321515029216"><ele>266.79999999999995</ele><time>2026-03-26T17:41:20.999Z</time></trkpt><trkpt lat="44.01415033263917" lon="8.03326116913113"><ele>269.4</ele><time>2026-03-26T17:41:21.999Z</time></trkpt><trkpt lat="44.014248296649" lon="8.03330435611232"><ele>272.0</ele><time>2026-03-26T17:41:22.999Z</time></trkpt><trkpt lat="44.0143255161292" lon="8.033332598594667"><ele>273.6</ele><time>2026-03-26T17:41:23.999Z</time></trkpt><trkpt lat="44.0144594674832" lon="8.033378019802582"><ele>275.2</ele><time>2026-03-26T17:41:25.999Z</time></trkpt><trkpt lat="44.01451430021756" lon="8.033445845084188"><ele>276.8</ele><time>2026-03-26T17:41:26.999Z</time></trkpt><trkpt lat="44.01456466995791" lon="8.033602094703511"><ele>278.4</ele><time>2026-03-26T17:41:28.999Z</time></trkpt><trkpt lat="44.014599874001576" lon="8.033696032088125"><ele>280.0</ele><time>2026-03-26T17:41:29.999Z</time></trkpt><trkpt lat="44.01465273800876" lon="8.03379243477939"><ele>280.0</ele><time>2026-03-26T17:41:30.999Z</time></trkpt><trkpt lat="44.01472564077779" lon="8.033924801532315"><ele>280.0</ele><time>2026-03-26T17:41:32.999Z</time></trkpt><trkpt lat="44.014778096352565" lon="8.033998441547055"><ele>280.0</ele><time>2026-03-26T17:41:33.999Z</time></trkpt><trkpt lat="44.01482925684535" lon="8.034064833437666"><ele>280.0</ele><time>2026-03-26T17:41:34.999Z</time></trkpt><trkpt lat="44.0148909343397" lon="8.034148426373843"><ele>280.0</ele><time>2026-03-26T17:41:35.999Z</time></trkpt><trkpt lat="44.01495338164418" lon="8.034215332037581"><ele>280.0</ele><time>2026-03-26T17:41:36.999Z</time></trkpt><trkpt lat="44.01501664658126" lon="8.034283591887984"><ele>282.6</ele><time>2026-03-26T17:41:37.999Z</time></trkpt><trkpt lat="44.01505945104695" lon="8.034363083251566"><ele>285.2</ele><time>2026-03-26T17:41:38.999Z</time></trkpt><trkpt lat="44.01511817910004" lon="8.03442392960504"><ele>287.8</ele><time>2026-03-26T17:41:39.999Z</time></trkpt><trkpt lat="44.01520697579465" lon="8.034477119019417"><ele>290.4</ele><time>2026-03-26T17:41:40.999Z</time></trkpt><trkpt lat="44.01532336317932" lon="8.034513893130537"><ele>293.0</ele><time>2026-03-26T17:41:41.999Z</time></trkpt><trkpt lat="44.015417893027156" lon="8.03454315516325"><ele>293.0</ele><time>2026-03-26T17:41:42.999Z</time></trkpt><trkpt lat="44.01554253330701" lon="8.034488428114132"><ele>293.0</ele><time>2026-03-26T17:41:44.999Z</time></trkpt><trkpt lat="44.015585826735" lon="8.034417649387185"><ele>293.0</ele><time>2026-03-26T17:41:45.999Z</time></trkpt><trkpt lat="44.01561671657699" lon="8.034328890604142"><ele>293.0</ele><time>2026-03-26T17:41:46.999Z</time></trkpt><trkpt lat="44.01566266860166" lon="8.034229379804513"><ele>293.0</ele><time>2026-03-26T17:41:47.999Z</time></trkpt><trkpt lat="44.01572827014715" lon="8.034183643776315"><ele>293.0</ele><time>2026-03-26T17:41:48.999Z</time></trkpt><trkpt lat="44.0158275433297" lon="8.034095214012853"><ele>299.8</ele><time>2026-03-26T17:41:50.999Z</time></trkpt><trkpt lat="44.01587023704578" lon="8.034000763700064"><ele>306.6</ele><time>2026-03-26T17:41:51.999Z</time></trkpt><trkpt lat="44.015943060015644" lon="8.033901318193978"><ele>313.40000000000003</ele><time>2026-03-26T17:41:52.999Z</time></trkpt><trkpt lat="44.016027406474414" lon="8.033832930455898"><ele>320.20000000000005</ele><time>2026-03-26T17:41:53.999Z</time></trkpt><trkpt lat="44.01611597039878" lon="8.033730925901112"><ele>327.0</ele><time>2026-03-26T17:41:54.999Z</time></trkpt><trkpt lat="44.01618527634568" lon="8.033654825971174"><ele>327.0</ele><time>2026-03-26T17:41:56.999Z</time></trkpt><trkpt lat="44.01619775971334" lon="8.03356610952962"><ele>327.0</ele><time>2026-03-26T17:41:57.999Z</time></trkpt><trkpt lat="44.01624485696095" lon="8.033434442058555"><ele>327.0</ele><time>2026-03-26T17:41:59.999Z</time></trkpt><trkpt lat="44.016261577135374" lon="8.033326381100492"><ele>327.0</ele><time>2026-03-26T17:42:00.999Z</time></trkpt><trkpt lat="44.01632417240974" lon="8.033239097862438"><ele>327.0</ele><time>2026-03-26T17:42:01.999Z</time></trkpt><trkpt lat="44.016385796328656" lon="8.033152298045211"><ele>327.0</ele><time>2026-03-26T17:42:02.999Z</time></trkpt><trkpt lat="44.01652814025058" lon="8.033087959387556"><ele>328.6666666666667</ele><time>2026-03-26T17:42:04.999Z</time></trkpt><trkpt lat="44.016595860786225" lon="8.033037251971246"><ele>330.3333333333333</ele><time>2026-03-26T17:42:05.999Z</time></trkpt><trkpt lat="44.0166600833839" lon="8.032980621579673"><ele>332.0</ele><time>2026-03-26T17:42:06.999Z</time></trkpt><trkpt lat="44.016709739993" lon="8.032905405100092"><ele>333.66666666666663</ele><time>2026-03-26T17:42:07.999Z</time></trkpt><trkpt lat="44.01676056843122" lon="8.032829616595222"><ele>335.3333333333333</ele><time>2026-03-26T17:42:08.999Z</time></trkpt><trkpt lat="44.016810966586114" lon="8.032732607523691"><ele>337.0</ele><time>2026-03-26T17:42:09.999Z</time></trkpt><trkpt lat="44.01687964102259" lon="8.032651922171091"><ele>337.0</ele><time>2026-03-26T17:42:10.999Z</time></trkpt><trkpt lat="44.01693281564327" lon="8.032589476852968"><ele>337.0</ele><time>2026-03-26T17:42:11.999Z</time></trkpt><trkpt lat="44.017002370061505" lon="8.032537500733591"><ele>337.0</ele><time>2026-03-26T17:42:12.999Z</time></trkpt><trkpt lat="44.017113797530705" lon="8.032447885222663"><ele>337.0</ele><time>2026-03-26T17:42:14.999Z</time></trkpt><trkpt lat="44.01718968895769" lon="8.032356144984332"><ele>337.0</ele><time>2026-03-26T17:42:16Z</time></trkpt><trkpt lat="44.01720566136637" lon="8.03222417008511"><ele>337.0</ele><time>2026-03-26T17:42:17Z</time></trkpt><trkpt lat="44.01723277377678" lon="8.032120659623649"><ele>337.0</ele><time>2026-03-26T17:42:18Z</time></trkpt><trkpt lat="44.01727909754436" lon="8.032054863860752"><ele>337.0</ele><time>2026-03-26T17:42:19Z</time></trkpt><trkpt lat="44.01737388220631" lon="8.0321413828722"><ele>337.0</ele><time>2026-03-26T17:42:22Z</time></trkpt><trkpt lat="44.017409011408596" lon="8.032294354009888"><ele>337.0</ele><time>2026-03-26T17:42:24Z</time></trkpt><trkpt lat="44.017419169898545" lon="8.032385340090222"><ele>337.0</ele><time>2026-03-26T17:42:25Z</time></trkpt><trkpt lat="44.01744914379803" lon="8.032511032422144"><ele>337.00000000000006</ele><time>2026-03-26T17:42:26Z</time></trkpt><trkpt lat="44.01745332925563" lon="8.032620852288147"><ele>337.0</ele><time>2026-03-26T17:42:27Z</time></trkpt><trkpt lat="44.01740150123288" lon="8.03271454148927"><ele>337.0</ele><time>2026-03-26T17:42:28Z</time></trkpt><trkpt lat="44.017377787730396" lon="8.032799111347469"><ele>337.0</ele><time>2026-03-26T17:42:29Z</time></trkpt><trkpt lat="44.01738723181811" lon="8.03289077783714"><ele>337.0</ele><time>2026-03-26T17:42:30Z</time></trkpt><trkpt lat="44.017397434804764" lon="8.032991166545393"><ele>337.00000000000006</ele><time>2026-03-26T17:42:31Z</time></trkpt><trkpt lat="44.017377616349535" lon="8.03309512889236"><ele>337.0</ele><time>2026-03-26T17:42:32Z</time></trkpt><trkpt lat="44.017370352687735" lon="8.033211837187592"><ele>334.6</ele><time>2026-03-26T17:42:33Z</time></trkpt><trkpt lat="44.01735917568487" lon="8.033353157768014"><ele>332.20000000000005</ele><time>2026-03-26T17:42:34Z</time></trkpt><trkpt lat="44.01735161090925" lon="8.033490144463778"><ele>329.8</ele><time>2026-03-26T17:42:36Z</time></trkpt><trkpt lat="44.01735879483227" lon="8.033585611151723"><ele>327.4</ele><time>2026-03-26T17:42:37Z</time></trkpt><trkpt lat="44.01745296692917" lon="8.0337188398946"><ele>325.0</ele><time>2026-03-26T17:42:39Z</time></trkpt><trkpt lat="44.01750948924247" lon="8.033806757870503"><ele>325.0</ele><time>2026-03-26T17:42:40Z</time></trkpt><trkpt lat="44.017557672151774" lon="8.033913830480575"><ele>325.0</ele><time>2026-03-26T17:42:41Z</time></trkpt><trkpt lat="44.017532366629936" lon="8.033994625145683"><ele>325.0</ele><time>2026-03-26T17:42:42Z</time></trkpt><trkpt lat="44.01749534016043" lon="8.034109696699614"><ele>325.0</ele><time>2026-03-26T17:42:43Z</time></trkpt><trkpt lat="44.017513911382004" lon="8.034195896172994"><ele>325.0</ele><time>2026-03-26T17:42:44Z</time></trkpt><trkpt lat="44.017560134398195" lon="8.034351859079678"><ele>325.0</ele><time>2026-03-26T17:42:46Z</time></trkpt><trkpt lat="44.01758098042589" lon="8.034437941860235"><ele>325.0</ele><time>2026-03-26T17:42:47Z</time></trkpt><trkpt lat="44.01754901153568" lon="8.034612964604088"><ele>325.0</ele><time>2026-03-26T17:42:49Z</time></trkpt><trkpt lat="44.017528817214675" lon="8.03472300500105"><ele>325.0</ele><time>2026-03-26T17:42:50Z</time></trkpt><trkpt lat="44.01749989089944" lon="8.034820802624997"><ele>325.0</ele><time>2026-03-26T17:42:51Z</time></trkpt><trkpt lat="44.01750882180671" lon="8.03498073549883"><ele>325.0</ele><time>2026-03-26T17:42:53Z</time></trkpt><trkpt lat="44.01755976692018" lon="8.035078126477178"><ele>325.0</ele><time>2026-03-26T17:42:54Z</time></trkpt><trkpt lat="44.01763578024911" lon="8.035165514672661"><ele>325.0</ele><time>2026-03-26T17:42:55Z</time></trkpt><trkpt lat="44.01771867780773" lon="8.035296980251664"><ele>325.0</ele><time>2026-03-26T17:42:56Z</time></trkpt><trkpt lat="44.017809971810145" lon="8.035443155866787"><ele>325.0</ele><time>2026-03-26T17:42:57Z</time></trkpt><trkpt lat="44.017891055372324" lon="8.035596483480358"><ele>325.0</ele><time>2026-03-26T17:42:58Z</time></trkpt><trkpt lat="44.017953950355675" lon="8.035674156449012"><ele>325.0</ele><time>2026-03-26T17:42:59Z</time></trkpt><trkpt lat="44.01802326781568" lon="8.035726188112111"><ele>325.0</ele><time>2026-03-26T17:43:01Z</time></trkpt><trkpt lat="44.01802836325611" lon="8.035592061044223"><ele>325.0</ele><time>2026-03-26T17:43:03Z</time></trkpt><trkpt lat="44.01789939675733" lon="8.03550345681191"><ele>325.0</ele><time>2026-03-26T17:43:05Z</time></trkpt><trkpt lat="44.017839176618345" lon="8.035428516377506"><ele>325.0</ele><time>2026-03-26T17:43:05.999Z</time></trkpt><trkpt lat="44.01781313355395" lon="8.035337718476415"><ele>325.0</ele><time>2026-03-26T17:43:06.999Z</time></trkpt><trkpt lat="44.01778770137479" lon="8.035211880389276"><ele>325.0</ele><time>2026-03-26T17:43:07.999Z</time></trkpt><trkpt lat="44.01775681947" lon="8.0350984960649"><ele>325.0</ele><time>2026-03-26T17:43:08.999Z</time></trkpt><trkpt lat="44.017706238210906" lon="8.035023457986288"><ele>325.0</ele><time>2026-03-26T17:43:09.999Z</time></trkpt><trkpt lat="44.017644746864406" lon="8.034915309687266"><ele>325.0</ele><time>2026-03-26T17:43:10.999Z</time></trkpt><trkpt lat="44.017671718703824" lon="8.034748641948052"><ele>325.0</ele><time>2026-03-26T17:43:12.999Z</time></trkpt><trkpt lat="44.01771525202253" lon="8.034616440780422"><ele>325.0</ele><time>2026-03-26T17:43:13.999Z</time></trkpt><trkpt lat="44.01775488020987" lon="8.034457292335032"><ele>325.0</ele><time>2026-03-26T17:43:14.999Z</time></trkpt><trkpt lat="44.01777072288204" lon="8.034311113137411"><ele>325.0</ele><time>2026-03-26T17:43:15.999Z</time></trkpt><trkpt lat="44.01776853475889" lon="8.034163426654834"><ele>325.0</ele><time>2026-03-26T17:43:16.999Z</time></trkpt><trkpt lat="44.01779754333312" lon="8.034076522665718"><ele>325.0</ele><time>2026-03-26T17:43:17.999Z</time></trkpt><trkpt lat="44.01791229728335" lon="8.033951450519726"><ele>325.0</ele><time>2026-03-26T17:43:19.999Z</time></trkpt><trkpt lat="44.01793604371898" lon="8.033856288229098"><ele>325.0</ele><time>2026-03-26T17:43:20.999Z</time></trkpt><trkpt lat="44.017920376210334" lon="8.033762429911352"><ele>325.0</ele><time>2026-03-26T17:43:21.999Z</time></trkpt><trkpt lat="44.01789050155726" lon="8.033670780568997"><ele>325.0</ele><time>2026-03-26T17:43:22.999Z</time></trkpt><trkpt lat="44.01786554839858" lon="8.033568982702361"><ele>325.0</ele><time>2026-03-26T17:43:23.999Z</time></trkpt><trkpt lat="44.01781477881857" lon="8.033459897834124"><ele>325.0</ele><time>2026-03-26T17:43:24.999Z</time></trkpt><trkpt lat="44.01780185340829" lon="8.03336667460352"><ele>325.0</ele><time>2026-03-26T17:43:25.999Z</time></trkpt><trkpt lat="44.017829961470106" lon="8.033231589294079"><ele>325.0</ele><time>2026-03-26T17:43:26.999Z</time></trkpt><trkpt lat="44.01784900258189" lon="8.033050074333488"><ele>325.0</ele><time>2026-03-26T17:43:27.999Z</time></trkpt><trkpt lat="44.01786486163328" lon="8.032856353661636"><ele>325.0</ele><time>2026-03-26T17:43:28.999Z</time></trkpt><trkpt lat="44.01790311572229" lon="8.032681329789845"><ele>332.0</ele><time>2026-03-26T17:43:29.999Z</time></trkpt><trkpt lat="44.01795626599525" lon="8.032468533868737"><ele>339.0</ele><time>2026-03-26T17:43:30.999Z</time></trkpt><trkpt lat="44.01798992592656" lon="8.032293338955684"><ele>346.0</ele><time>2026-03-26T17:43:31.999Z</time></trkpt><trkpt lat="44.01799401394183" lon="8.032153539889231"><ele>353.0</ele><time>2026-03-26T17:43:32.999Z</time></trkpt><trkpt lat="44.01798956296671" lon="8.03201813015828"><ele>353.0</ele><time>2026-03-26T17:43:33.999Z</time></trkpt><trkpt lat="44.01797076078374" lon="8.031870244816863"><ele>353.0</ele><time>2026-03-26T17:43:34.999Z</time></trkpt><trkpt lat="44.01797750696556" lon="8.03172189239382"><ele>353.0</ele><time>2026-03-26T17:43:35.999Z</time></trkpt><trkpt lat="44.01800188055703" lon="8.031597448065774"><ele>353.0</ele><time>2026-03-26T17:43:36.999Z</time></trkpt><trkpt lat="44.01803402516293" lon="8.031481471934962"><ele>353.0</ele><time>2026-03-26T17:43:37.999Z</time></trkpt><trkpt lat="44.0179968066225" lon="8.03135800127756"><ele>360.2</ele><time>2026-03-26T17:43:39.999Z</time></trkpt><trkpt lat="44.017964675406596" lon="8.03128065213323"><ele>367.4</ele><time>2026-03-26T17:43:40.999Z</time></trkpt><trkpt lat="44.01798083562055" lon="8.031110878431846"><ele>374.59999999999997</ele><time>2026-03-26T17:43:42.999Z</time></trkpt><trkpt lat="44.017964370965885" lon="8.030981566540126"><ele>381.79999999999995</ele><time>2026-03-26T17:43:43.999Z</time></trkpt><trkpt lat="44.017894980055615" lon="8.030978009753001"><ele>389.0</ele><time>2026-03-26T17:43:45.999Z</time></trkpt><trkpt lat="44.017764683770416" lon="8.031050988055153"><ele>389.0</ele><time>2026-03-26T17:43:47.999Z</time></trkpt><trkpt lat="44.017693615412654" lon="8.03112595889014"><ele>389.0</ele><time>2026-03-26T17:43:48.999Z</time></trkpt><trkpt lat="44.01763401509118" lon="8.0312172428552"><ele>389.0</ele><time>2026-03-26T17:43:49.999Z</time></trkpt><trkpt lat="44.01757155412742" lon="8.03131846476743"><ele>389.0</ele><time>2026-03-26T17:43:50.999Z</time></trkpt><trkpt lat="44.01752828411292" lon="8.03144810349265"><ele>389.0</ele><time>2026-03-26T17:43:51.999Z</time></trkpt><trkpt lat="44.017486383228245" lon="8.0315340562639"><ele>391.6</ele><time>2026-03-26T17:43:52.999Z</time></trkpt><trkpt lat="44.01741325076266" lon="8.031586036724295"><ele>394.2</ele><time>2026-03-26T17:43:53.999Z</time></trkpt><trkpt lat="44.0173195864235" lon="8.031634059941998"><ele>396.8</ele><time>2026-03-26T17:43:54.999Z</time></trkpt><trkpt lat="44.01720749824523" lon="8.031721427014224"><ele>399.40000000000003</ele><time>2026-03-26T17:43:55.999Z</time></trkpt><trkpt lat="44.01711298771889" lon="8.031793185462897"><ele>402.0</ele><time>2026-03-26T17:43:56.999Z</time></trkpt><trkpt lat="44.0170363326917" lon="8.03187240156466"><ele>397.0</ele><time>2026-03-26T17:43:57.999Z</time></trkpt><trkpt lat="44.01695387752482" lon="8.031870677735258"><ele>392.0</ele><time>2026-03-26T17:43:58.999Z</time></trkpt><trkpt lat="44.01688949749382" lon="8.03186383984471"><ele>387.0</ele><time>2026-03-26T17:43:59.999Z</time></trkpt><trkpt lat="44.016808463625686" lon="8.031823097368303"><ele>382.0</ele><time>2026-03-26T17:44:00.999Z</time></trkpt><trkpt lat="44.016703657510035" lon="8.031789944822174"><ele>377.0</ele><time>2026-03-26T17:44:01.999Z</time></trkpt><trkpt lat="44.016598324832096" lon="8.03180290164936"><ele>372.0</ele><time>2026-03-26T17:44:02.999Z</time></trkpt><trkpt lat="44.016531529161355" lon="8.031836816645125"><ele>372.0</ele><time>2026-03-26T17:44:03.999Z</time></trkpt><trkpt lat="44.01648142848419" lon="8.031909644115572"><ele>372.0</ele><time>2026-03-26T17:44:04.999Z</time></trkpt><trkpt lat="44.01640651964176" lon="8.032103766322496"><ele>372.0</ele><time>2026-03-26T17:44:06.999Z</time></trkpt><trkpt lat="44.016363749115385" lon="8.032224276291505"><ele>372.0</ele><time>2026-03-26T17:44:07.999Z</time></trkpt><trkpt lat="44.016307213254954" lon="8.032290346067054"><ele>372.0</ele><time>2026-03-26T17:44:08.999Z</time></trkpt><trkpt lat="44.01620766594331" lon="8.032335355598946"><ele>372.0</ele><time>2026-03-26T17:44:09.999Z</time></trkpt><trkpt lat="44.01608978432605" lon="8.032387383783421"><ele>372.0</ele><time>2026-03-26T17:44:10.999Z</time></trkpt><trkpt lat="44.01593780864183" lon="8.032455531085052"><ele>372.0</ele><time>2026-03-26T17:44:11.999Z</time></trkpt><trkpt lat="44.0158120162443" lon="8.032499535341405"><ele>372.0</ele><time>2026-03-26T17:44:12.999Z</time></trkpt><trkpt lat="44.01570892298512" lon="8.032527133329058"><ele>364.25</ele><time>2026-03-26T17:44:13.999Z</time></trkpt><trkpt lat="44.01559479871177" lon="8.032449561126793"><ele>356.5</ele><time>2026-03-26T17:44:15.999Z</time></trkpt><trkpt lat="44.01550460066933" lon="8.032321308755623"><ele>348.75</ele><time>2026-03-26T17:44:16.999Z</time></trkpt><trkpt lat="44.01543595768063" lon="8.032174819347288"><ele>341.0</ele><time>2026-03-26T17:44:17.999Z</time></trkpt><trkpt lat="44.01535249530841" lon="8.032027426304788"><ele>341.0</ele><time>2026-03-26T17:44:18.999Z</time></trkpt><trkpt lat="44.01530588828006" lon="8.031931254416463"><ele>341.0</ele><time>2026-03-26T17:44:19.999Z</time></trkpt><trkpt lat="44.01527971532313" lon="8.0318457495173"><ele>341.0</ele><time>2026-03-26T17:44:20.999Z</time></trkpt><trkpt lat="44.01524638607901" lon="8.031727314934502"><ele>341.0</ele><time>2026-03-26T17:44:22Z</time></trkpt><trkpt lat="44.01522709937348" lon="8.031565241850165"><ele>341.0</ele><time>2026-03-26T17:44:23Z</time></trkpt><trkpt lat="44.01521862055882" lon="8.031368203824893"><ele>343.0</ele><time>2026-03-26T17:44:24Z</time></trkpt><trkpt lat="44.015224155710946" lon="8.031156275267337"><ele>345.0</ele><time>2026-03-26T17:44:25Z</time></trkpt><trkpt lat="44.01524541594323" lon="8.030990263115514"><ele>347.0</ele><time>2026-03-26T17:44:26Z</time></trkpt><trkpt lat="44.01529138070647" lon="8.03076969847107"><ele>349.0</ele><time>2026-03-26T17:44:27Z</time></trkpt><trkpt lat="44.01532748767791" lon="8.030592732594972"><ele>350.79999999999995</ele><time>2026-03-26T17:44:28Z</time></trkpt><trkpt lat="44.01533649584522" lon="8.030479132848775"><ele>352.59999999999997</ele><time>2026-03-26T17:44:29Z</time></trkpt><trkpt lat="44.01531313574965" lon="8.030392874855298"><ele>354.4</ele><time>2026-03-26T17:44:30Z</time></trkpt><trkpt lat="44.0152432804339" lon="8.030280484569657"><ele>356.2</ele><time>2026-03-26T17:44:31Z</time></trkpt><trkpt lat="44.01518309328068" lon="8.03008131185502"><ele>358.0</ele><time>2026-03-26T17:44:32Z</time></trkpt><trkpt lat="44.01515383529528" lon="8.0299040089768"><ele>357.5</ele><time>2026-03-26T17:44:33Z</time></trkpt><trkpt lat="44.0150745803294" lon="8.02975376614023"><ele>357.0</ele><time>2026-03-26T17:44:34Z</time></trkpt><trkpt lat="44.01500939753597" lon="8.029641779745644"><ele>356.5</ele><time>2026-03-26T17:44:35Z</time></trkpt><trkpt lat="44.01488830634962" lon="8.02948082464619"><ele>356.0</ele><time>2026-03-26T17:44:36Z</time></trkpt><trkpt lat="44.01481192370598" lon="8.02937250069388"><ele>356.0</ele><time>2026-03-26T17:44:37Z</time></trkpt><trkpt lat="44.01478614611942" lon="8.029221714258405"><ele>356.0</ele><time>2026-03-26T17:44:39Z</time></trkpt><trkpt lat="44.01484478412225" lon="8.029122871926946"><ele>356.0</ele><time>2026-03-26T17:44:41Z</time></trkpt><trkpt lat="44.01486334246561" lon="8.029003750459468"><ele>356.0</ele><time>2026-03-26T17:44:43Z</time></trkpt><trkpt lat="44.0147404794404" lon="8.028900901685587"><ele>356.0</ele><time>2026-03-26T17:44:45Z</time></trkpt><trkpt lat="44.01468762094395" lon="8.028815398553077"><ele>361.0</ele><time>2026-03-26T17:44:46Z</time></trkpt><trkpt lat="44.01465988144277" lon="8.028717535182095"><ele>366.0</ele><time>2026-03-26T17:44:47Z</time></trkpt><trkpt lat="44.01466007310083" lon="8.028596153966605"><ele>371.0</ele><time>2026-03-26T17:44:48Z</time></trkpt><trkpt lat="44.0146645949513" lon="8.02843914986112"><ele>376.0</ele><time>2026-03-26T17:44:49Z</time></trkpt><trkpt lat="44.01466883553039" lon="8.028277351261645"><ele>381.0</ele><time>2026-03-26T17:44:50Z</time></trkpt><trkpt lat="44.014660482279844" lon="8.028149601133475"><ele>386.1666666666667</ele><time>2026-03-26T17:44:51Z</time></trkpt><trkpt lat="44.014638955923395" lon="8.028052244080712"><ele>391.33333333333337</ele><time>2026-03-26T17:44:52Z</time></trkpt><trkpt lat="44.01454593378791" lon="8.028027288894586"><ele>396.5</ele><time>2026-03-26T17:44:54Z</time></trkpt><trkpt lat="44.01445735047894" lon="8.028141124743767"><ele>401.6666666666667</ele><time>2026-03-26T17:44:56Z</time></trkpt><trkpt lat="44.014395812355104" lon="8.028224440676741"><ele>406.83333333333337</ele><time>2026-03-26T17:44:57Z</time></trkpt><trkpt lat="44.01433659857138" lon="8.028254279807106"><ele>412.0</ele><time>2026-03-26T17:44:58Z</time></trkpt><trkpt lat="44.014244844335195" lon="8.02825815248287"><ele>410.20000000000005</ele><time>2026-03-26T17:44:59Z</time></trkpt><trkpt lat="44.01413433498958" lon="8.028291182967651"><ele>408.4</ele><time>2026-03-26T17:45:00Z</time></trkpt><trkpt lat="44.01407336213573" lon="8.028372153426126"><ele>406.6</ele><time>2026-03-26T17:45:01Z</time></trkpt><trkpt lat="44.0139938526891" lon="8.028496580702617"><ele>404.79999999999995</ele><time>2026-03-26T17:45:01.999Z</time></trkpt><trkpt lat="44.01392674427069" lon="8.02856736109711"><ele>403.0</ele><time>2026-03-26T17:45:02.999Z</time></trkpt><trkpt lat="44.013853767365504" lon="8.028625104433509"><ele>403.0</ele><time>2026-03-26T17:45:03.999Z</time></trkpt><trkpt lat="44.01379643188392" lon="8.028691711474783"><ele>403.0</ele><time>2026-03-26T17:45:04.999Z</time></trkpt><trkpt lat="44.0137471986256" lon="8.028781814569061"><ele>403.0</ele><time>2026-03-26T17:45:05.999Z</time></trkpt><trkpt lat="44.013669853662925" lon="8.028936060658774"><ele>403.0</ele><time>2026-03-26T17:45:06.999Z</time></trkpt><trkpt lat="44.01357917906398" lon="8.029096639749516"><ele>403.0</ele><time>2026-03-26T17:45:07.999Z</time></trkpt><trkpt lat="44.013515393848195" lon="8.029203300214702"><ele>402.75</ele><time>2026-03-26T17:45:08.999Z</time></trkpt><trkpt lat="44.013432849829876" lon="8.029267722474529"><ele>402.5</ele><time>2026-03-26T17:45:09.999Z</time></trkpt><trkpt lat="44.01331377040115" lon="8.029319274183996"><ele>402.25</ele><time>2026-03-26T17:45:10.999Z</time></trkpt><trkpt lat="44.01319866572421" lon="8.029359641929913"><ele>402.0</ele><time>2026-03-26T17:45:11.999Z</time></trkpt><trkpt lat="44.01308890102756" lon="8.029405068889238"><ele>402.0</ele><time>2026-03-26T17:45:12.999Z</time></trkpt><trkpt lat="44.01300014196221" lon="8.02948756202712"><ele>402.0</ele><time>2026-03-26T17:45:13.999Z</time></trkpt><trkpt lat="44.01286781733285" lon="8.029636652071918"><ele>402.0</ele><time>2026-03-26T17:45:15.999Z</time></trkpt><trkpt lat="44.012782564934696" lon="8.029769766900579"><ele>402.0</ele><time>2026-03-26T17:45:16.999Z</time></trkpt><trkpt lat="44.01267852227996" lon="8.029886804434698"><ele>396.40000000000003</ele><time>2026-03-26T17:45:17.999Z</time></trkpt><trkpt lat="44.012596111820244" lon="8.030026763263892"><ele>390.8</ele><time>2026-03-26T17:45:18.999Z</time></trkpt><trkpt lat="44.01252666757485" lon="8.030149449081538"><ele>385.2</ele><time>2026-03-26T17:45:19.999Z</time></trkpt><trkpt lat="44.012487608170886" lon="8.030254973009791"><ele>379.6</ele><time>2026-03-26T17:45:20.999Z</time></trkpt><trkpt lat="44.0123795680589" lon="8.030257265607"><ele>374.0</ele><time>2026-03-26T17:45:21.999Z</time></trkpt><trkpt lat="44.01229775712458" lon="8.030237411083835"><ele>372.85714285714283</ele><time>2026-03-26T17:55:46Z</time></trkpt><trkpt lat="44.012360566771136" lon="8.030261121534574"><ele>371.7142857142857</ele><time>2026-03-26T17:56:06Z</time></trkpt><trkpt lat="44.01240709212622" lon="8.030197292340505"><ele>370.57142857142856</ele><time>2026-03-26T17:58:45.999Z</time></trkpt><trkpt lat="44.0124043958015" lon="8.030305678012574"><ele>369.42857142857144</ele><time>2026-03-26T17:58:51.999Z</time></trkpt><trkpt lat="44.01234109851471" lon="8.030254572092154"><ele>368.28571428571433</ele><time>2026-03-26T17:59:09Z</time></trkpt><trkpt lat="44.01227405140541" lon="8.030215038266123"><ele>367.14285714285717</ele><time>2026-03-26T17:59:12Z</time></trkpt><trkpt lat="44.01220184238412" lon="8.030182430112635"><ele>366.0</ele><time>2026-03-26T17:59:14Z</time></trkpt><trkpt lat="44.01212013608519" lon="8.03011853784414"><ele>366.0</ele><time>2026-03-26T17:59:16Z</time></trkpt><trkpt lat="44.01203400501065" lon="8.03001973785443"><ele>366.0</ele><time>2026-03-26T17:59:18Z</time></trkpt><trkpt lat="44.01198913270235" lon="8.029957114708854"><ele>366.0</ele><time>2026-03-26T17:59:19Z</time></trkpt><trkpt lat="44.011939507365895" lon="8.029901255650998"><ele>366.0</ele><time>2026-03-26T17:59:20Z</time></trkpt><trkpt lat="44.01189791211052" lon="8.029819681700957"><ele>366.0</ele><time>2026-03-26T17:59:21Z</time></trkpt><trkpt lat="44.01183013899862" lon="8.029782574051742"><ele>366.0</ele><time>2026-03-26T17:59:22Z</time></trkpt><trkpt lat="44.011763499563784" lon="8.029754014977865"><ele>364.6</ele><time>2026-03-26T17:59:23Z</time></trkpt><trkpt lat="44.01169694996671" lon="8.029734523057556"><ele>363.20000000000005</ele><time>2026-03-26T17:59:24Z</time></trkpt><trkpt lat="44.011598466409744" lon="8.029683662974202"><ele>361.79999999999995</ele><time>2026-03-26T17:59:26Z</time></trkpt><trkpt lat="44.0115818157872" lon="8.029574074237615"><ele>360.4</ele><time>2026-03-26T17:59:29Z</time></trkpt><trkpt lat="44.0115977030155" lon="8.029473895263157"><ele>359.0</ele><time>2026-03-26T17:59:31Z</time></trkpt><trkpt lat="44.011616436239265" lon="8.029290101893045"><ele>359.0</ele><time>2026-03-26T17:59:33Z</time></trkpt><trkpt lat="44.011623842535116" lon="8.029185993175426"><ele>359.0</ele><time>2026-03-26T17:59:34Z</time></trkpt><trkpt lat="44.01162907886523" lon="8.02907685071606"><ele>359.0</ele><time>2026-03-26T17:59:35Z</time></trkpt><trkpt lat="44.0116241549134" lon="8.028968145306285"><ele>359.0</ele><time>2026-03-26T17:59:36Z</time></trkpt><trkpt lat="44.01158737074181" lon="8.028851133548057"><ele>359.0</ele><time>2026-03-26T17:59:37Z</time></trkpt><trkpt lat="44.01153257744468" lon="8.028774537545944"><ele>359.0</ele><time>2026-03-26T17:59:38Z</time></trkpt><trkpt lat="44.01148718817347" lon="8.028709208646076"><ele>360.83333333333337</ele><time>2026-03-26T17:59:39Z</time></trkpt><trkpt lat="44.01143991997808" lon="8.028644676694169"><ele>362.6666666666667</ele><time>2026-03-26T17:59:40Z</time></trkpt><trkpt lat="44.01139255463683" lon="8.0285834486256"><ele>364.5</ele><time>2026-03-26T17:59:41Z</time></trkpt><trkpt lat="44.011345517218125" lon="8.028520406698657"><ele>366.3333333333333</ele><time>2026-03-26T17:59:42Z</time></trkpt><trkpt lat="44.01129989301247" lon="8.028376935654025"><ele>368.16666666666663</ele><time>2026-03-26T17:59:44Z</time></trkpt><trkpt lat="44.01131981591093" lon="8.028229877014335"><ele>370.0</ele><time>2026-03-26T17:59:46Z</time></trkpt><trkpt lat="44.01133834241867" lon="8.028091641963956"><ele>373.2</ele><time>2026-03-26T17:59:48Z</time></trkpt><trkpt lat="44.01135554644538" lon="8.027944197423759"><ele>376.4</ele><time>2026-03-26T17:59:50Z</time></trkpt><trkpt lat="44.01134992244694" lon="8.027795472051645"><ele>379.6</ele><time>2026-03-26T17:59:52Z</time></trkpt><trkpt lat="44.01131045455792" lon="8.02772494972876"><ele>382.8</ele><time>2026-03-26T17:59:53Z</time></trkpt><trkpt lat="44.011215976200454" lon="8.027641475865181"><ele>386.0</ele><time>2026-03-26T17:59:54.999Z</time></trkpt><trkpt lat="44.01113179032532" lon="8.027588758350454"><ele>390.3333333333333</ele><time>2026-03-26T17:59:56.999Z</time></trkpt><trkpt lat="44.011074149733346" lon="8.02746088739968"><ele>394.66666666666663</ele><time>2026-03-26T17:59:58.999Z</time></trkpt><trkpt lat="44.01102182696335" lon="8.027307045368929"><ele>399.0</ele><time>2026-03-26T18:00:00.999Z</time></trkpt><trkpt lat="44.01099347972066" lon="8.027223507696508"><ele>403.33333333333337</ele><time>2026-03-26T18:00:01.999Z</time></trkpt><trkpt lat="44.01097684177565" lon="8.027133016506498"><ele>407.6666666666667</ele><time>2026-03-26T18:00:02.999Z</time></trkpt><trkpt lat="44.01095302095183" lon="8.027047184145946"><ele>412.0</ele><time>2026-03-26T18:00:03.999Z</time></trkpt><trkpt lat="44.0109424079409" lon="8.02695483030375"><ele>412.0</ele><time>2026-03-26T18:00:04.999Z</time></trkpt><trkpt lat="44.01093299746574" lon="8.026859842722391"><ele>412.0</ele><time>2026-03-26T18:00:05.999Z</time></trkpt><trkpt lat="44.01090283764665" lon="8.026723941130896"><ele>412.0</ele><time>2026-03-26T18:00:07.999Z</time></trkpt><trkpt lat="44.010846125581566" lon="8.026636024647901"><ele>412.0</ele><time>2026-03-26T18:00:09.999Z</time></trkpt><trkpt lat="44.01073862471092" lon="8.026669640263338"><ele>412.0</ele><time>2026-03-26T18:00:11.999Z</time></trkpt><trkpt lat="44.01065048434848" lon="8.02677167086209"><ele>415.1666666666667</ele><time>2026-03-26T18:00:13.999Z</time></trkpt><trkpt lat="44.01054347552048" lon="8.026860184175218"><ele>418.33333333333337</ele><time>2026-03-26T18:00:15.999Z</time></trkpt><trkpt lat="44.01048047601146" lon="8.026904238236977"><ele>421.5</ele><time>2026-03-26T18:00:16.999Z</time></trkpt><trkpt lat="44.01041472090755" lon="8.026945581393"><ele>424.66666666666663</ele><time>2026-03-26T18:00:17.999Z</time></trkpt><trkpt lat="44.01033796318746" lon="8.026994084201835"><ele>427.8333333333333</ele><time>2026-03-26T18:00:18.999Z</time></trkpt><trkpt lat="44.01026483161833" lon="8.027025380731187"><ele>431.0</ele><time>2026-03-26T18:00:19.999Z</time></trkpt><trkpt lat="44.01021314603482" lon="8.027077111783967"><ele>430.99999999999994</ele><time>2026-03-26T18:00:20.999Z</time></trkpt><trkpt lat="44.01016052883197" lon="8.027146495060663"><ele>431.0</ele><time>2026-03-26T18:00:21.999Z</time></trkpt><trkpt lat="44.01012855694976" lon="8.027230517343794"><ele>431.0</ele><time>2026-03-26T18:00:22.999Z</time></trkpt><trkpt lat="44.010071494921135" lon="8.027307702513548"><ele>431.0</ele><time>2026-03-26T18:00:23.999Z</time></trkpt><trkpt lat="44.00999254805865" lon="8.027428712928765"><ele>430.99999999999994</ele><time>2026-03-26T18:00:25.999Z</time></trkpt><trkpt lat="44.009940504685446" lon="8.027496524218346"><ele>431.0</ele><time>2026-03-26T18:00:26.999Z</time></trkpt><trkpt lat="44.0098707241109" lon="8.027572006762185"><ele>429.16666666666663</ele><time>2026-03-26T18:00:27.999Z</time></trkpt><trkpt lat="44.009812375239264" lon="8.027627108955281"><ele>427.3333333333333</ele><time>2026-03-26T18:00:28.999Z</time></trkpt><trkpt lat="44.00974226186868" lon="8.02768660884186"><ele>425.5</ele><time>2026-03-26T18:00:29.999Z</time></trkpt><trkpt lat="44.00967939186847" lon="8.027739961815787"><ele>423.66666666666663</ele><time>2026-03-26T18:00:30.999Z</time></trkpt><trkpt lat="44.0096164374467" lon="8.027793386449835"><ele>421.8333333333333</ele><time>2026-03-26T18:00:31.999Z</time></trkpt><trkpt lat="44.00956405289393" lon="8.027855819705488"><ele>420.0</ele><time>2026-03-26T18:00:32.999Z</time></trkpt><trkpt lat="44.0094670985588" lon="8.027815180207957"><ele>420.0</ele><time>2026-03-26T18:00:34.999Z</time></trkpt><trkpt lat="44.00939018742504" lon="8.027715670439152"><ele>420.0</ele><time>2026-03-26T18:00:36.999Z</time></trkpt><trkpt lat="44.00929087534576" lon="8.02761673498502"><ele>420.0</ele><time>2026-03-26T18:00:38.999Z</time></trkpt><trkpt lat="44.009223692500925" lon="8.02757440851215"><ele>420.0</ele><time>2026-03-26T18:00:39.999Z</time></trkpt><trkpt lat="44.009139835897436" lon="8.027567853145856"><ele>420.0</ele><time>2026-03-26T18:00:40.999Z</time></trkpt><trkpt lat="44.009074273706695" lon="8.027577432189519"><ele>420.3333333333333</ele><time>2026-03-26T18:00:41.999Z</time></trkpt><trkpt lat="44.00901078094454" lon="8.027585035053473"><ele>420.66666666666663</ele><time>2026-03-26T18:00:42.999Z</time></trkpt><trkpt lat="44.00888806279946" lon="8.02756891538525"><ele>421.0</ele><time>2026-03-26T18:00:44.999Z</time></trkpt><trkpt lat="44.00882403200213" lon="8.027554039549514"><ele>421.3333333333333</ele><time>2026-03-26T18:00:45.999Z</time></trkpt><trkpt lat="44.00875623818474" lon="8.027532104907886"><ele>421.66666666666663</ele><time>2026-03-26T18:00:46.999Z</time></trkpt><trkpt lat="44.00869751751276" lon="8.0274896496967"><ele>422.0</ele><time>2026-03-26T18:00:47.999Z</time></trkpt><trkpt lat="44.008631095989045" lon="8.02744019870975"><ele>428.40000000000003</ele><time>2026-03-26T18:00:48.999Z</time></trkpt><trkpt lat="44.00856927911188" lon="8.02739522069695"><ele>434.8</ele><time>2026-03-26T18:00:49.999Z</time></trkpt><trkpt lat="44.008458085418646" lon="8.027368031253971"><ele>441.2</ele><time>2026-03-26T18:00:51.999Z</time></trkpt><trkpt lat="44.00833586871506" lon="8.0273896842106"><ele>447.6</ele><time>2026-03-26T18:00:53.999Z</time></trkpt><trkpt lat="44.00820920868669" lon="8.027405971404324"><ele>454.0</ele><time>2026-03-26T18:00:55.999Z</time></trkpt><trkpt lat="44.00809444572971" lon="8.027386752114843"><ele>455.83333333333337</ele><time>2026-03-26T18:00:57.999Z</time></trkpt><trkpt lat="44.00798979350393" lon="8.027439714490608"><ele>457.6666666666667</ele><time>2026-03-26T18:00:59.999Z</time></trkpt><trkpt lat="44.00797259791123" lon="8.027537107281713"><ele>459.5</ele><time>2026-03-26T18:01:00.999Z</time></trkpt><trkpt lat="44.00794249933433" lon="8.027614398574896"><ele>461.33333333333337</ele><time>2026-03-26T18:01:01.999Z</time></trkpt><trkpt lat="44.007878346460565" lon="8.027767205044709"><ele>463.1666666666667</ele><time>2026-03-26T18:01:03.999Z</time></trkpt><trkpt lat="44.00783799064569" lon="8.027855828567072"><ele>465.0</ele><time>2026-03-26T18:01:04.999Z</time></trkpt><trkpt lat="44.00780026139381" lon="8.027935939812561"><ele>463.1666666666667</ele><time>2026-03-26T18:01:05.999Z</time></trkpt><trkpt lat="44.007756027233775" lon="8.028018055037755"><ele>461.33333333333337</ele><time>2026-03-26T18:01:06.999Z</time></trkpt><trkpt lat="44.007714130818655" lon="8.028089187484992"><ele>459.5</ele><time>2026-03-26T18:01:07.999Z</time></trkpt><trkpt lat="44.007666831719355" lon="8.028153145872418"><ele>457.6666666666667</ele><time>2026-03-26T18:01:09Z</time></trkpt><trkpt lat="44.00760954067003" lon="8.028190887427531"><ele>455.83333333333337</ele><time>2026-03-26T18:01:10Z</time></trkpt><trkpt lat="44.00754350916276" lon="8.02815451420822"><ele>454.0</ele><time>2026-03-26T18:01:11Z</time></trkpt><trkpt lat="44.00743047877512" lon="8.028102352493583"><ele>454.00000000000006</ele><time>2026-03-26T18:01:13Z</time></trkpt><trkpt lat="44.00737088281783" lon="8.028029016302197"><ele>454.0</ele><time>2026-03-26T18:01:14Z</time></trkpt><trkpt lat="44.00729607676579" lon="8.02799058159393"><ele>454.0</ele><time>2026-03-26T18:01:15Z</time></trkpt><trkpt lat="44.00722471037991" lon="8.027960707830598"><ele>454.0</ele><time>2026-03-26T18:01:16Z</time></trkpt><trkpt lat="44.00715076877088" lon="8.02794601555837"><ele>454.00000000000006</ele><time>2026-03-26T18:01:17Z</time></trkpt><trkpt lat="44.00707766317447" lon="8.027974001490195"><ele>454.0</ele><time>2026-03-26T18:01:18Z</time></trkpt><trkpt lat="44.00700638161774" lon="8.02798328928032"><ele>454.00000000000006</ele><time>2026-03-26T18:01:19Z</time></trkpt><trkpt lat="44.0069429237444" lon="8.028050715822717"><ele>454.0</ele><time>2026-03-26T18:01:20Z</time></trkpt><trkpt lat="44.0068883864745" lon="8.028135208059876"><ele>454.0</ele><time>2026-03-26T18:01:21Z</time></trkpt><trkpt lat="44.0068334826401" lon="8.028211541156793"><ele>454.0</ele><time>2026-03-26T18:01:22Z</time></trkpt><trkpt lat="44.00677451616204" lon="8.028293522808664"><ele>454.00000000000006</ele><time>2026-03-26T18:01:23Z</time></trkpt><trkpt lat="44.00671631072322" lon="8.028375932713534"><ele>454.0</ele><time>2026-03-26T18:01:24Z</time></trkpt><trkpt lat="44.00665620766693" lon="8.028463341636026"><ele>452.6</ele><time>2026-03-26T18:01:25Z</time></trkpt><trkpt lat="44.00660287358768" lon="8.02854281988971"><ele>451.2</ele><time>2026-03-26T18:01:26Z</time></trkpt><trkpt lat="44.00656154907644" lon="8.02863638161302"><ele>449.80000000000007</ele><time>2026-03-26T18:01:27Z</time></trkpt><trkpt lat="44.00650247429869" lon="8.028684905570518"><ele>448.40000000000003</ele><time>2026-03-26T18:01:28Z</time></trkpt><trkpt lat="44.00639789725325" lon="8.028760594923387"><ele>447.0</ele><time>2026-03-26T18:01:30Z</time></trkpt><trkpt lat="44.00627993265005" lon="8.028730908448654"><ele>447.0</ele><time>2026-03-26T18:01:32Z</time></trkpt><trkpt lat="44.0061615067572" lon="8.028658681410324"><ele>447.0</ele><time>2026-03-26T18:01:34Z</time></trkpt><trkpt lat="44.006099018956334" lon="8.028623943233478"><ele>447.0</ele><time>2026-03-26T18:01:35Z</time></trkpt><trkpt lat="44.00603424232909" lon="8.028593715705394"><ele>447.0</ele><time>2026-03-26T18:01:36Z</time></trkpt><trkpt lat="44.00596141789934" lon="8.028596633151997"><ele>447.0</ele><time>2026-03-26T18:01:37Z</time></trkpt><trkpt lat="44.00590040083424" lon="8.028630207096924"><ele>447.0</ele><time>2026-03-26T18:01:38Z</time></trkpt><trkpt lat="44.00585235204113" lon="8.02872374569699"><ele>447.0</ele><time>2026-03-26T18:01:39Z</time></trkpt><trkpt lat="44.00585441930304" lon="8.028839248358532"><ele>447.0</ele><time>2026-03-26T18:01:40Z</time></trkpt><trkpt lat="44.00586872230343" lon="8.029015640153224"><ele>447.0</ele><time>2026-03-26T18:01:42Z</time></trkpt><trkpt lat="44.00587832910462" lon="8.029118126853374"><ele>447.0</ele><time>2026-03-26T18:01:43Z</time></trkpt><trkpt lat="44.005867802028554" lon="8.029225288940205"><ele>447.0</ele><time>2026-03-26T18:01:44Z</time></trkpt><trkpt lat="44.005828869000524" lon="8.029327604859903"><ele>447.0</ele><time>2026-03-26T18:01:45Z</time></trkpt><trkpt lat="44.00579640462665" lon="8.02942794567668"><ele>448.0</ele><time>2026-03-26T18:01:46Z</time></trkpt><trkpt lat="44.005780114516654" lon="8.029536625547307"><ele>449.0</ele><time>2026-03-26T18:01:47Z</time></trkpt><trkpt lat="44.00576097310402" lon="8.029641547703692"><ele>450.0</ele><time>2026-03-26T18:01:48Z</time></trkpt><trkpt lat="44.00575862014703" lon="8.029758484775076"><ele>451.0</ele><time>2026-03-26T18:01:49Z</time></trkpt><trkpt lat="44.005765396631716" lon="8.029885007203466"><ele>452.0</ele><time>2026-03-26T18:01:49.999Z</time></trkpt><trkpt lat="44.00575332952701" lon="8.030002593230872"><ele>453.0</ele><time>2026-03-26T18:01:50.999Z</time></trkpt><trkpt lat="44.00576163111038" lon="8.030117498307838"><ele>453.0</ele><time>2026-03-26T18:01:51.999Z</time></trkpt><trkpt lat="44.00575565784885" lon="8.030231376097216"><ele>453.0</ele><time>2026-03-26T18:01:52.999Z</time></trkpt><trkpt lat="44.00575887955487" lon="8.03034534749815"><ele>453.0</ele><time>2026-03-26T18:01:53.999Z</time></trkpt><trkpt lat="44.0057746397984" lon="8.030458865428686"><ele>453.0</ele><time>2026-03-26T18:01:54.999Z</time></trkpt><trkpt lat="44.00580169359009" lon="8.03057775688501"><ele>453.0</ele><time>2026-03-26T18:01:55.999Z</time></trkpt><trkpt lat="44.00583511014961" lon="8.030691513990973"><ele>453.0</ele><time>2026-03-26T18:01:56.999Z</time></trkpt><trkpt lat="44.005875786167145" lon="8.030806996533208"><ele>450.8333333333333</ele><time>2026-03-26T18:01:57.999Z</time></trkpt><trkpt lat="44.00590555364651" lon="8.030932355395686"><ele>448.66666666666663</ele><time>2026-03-26T18:01:58.999Z</time></trkpt><trkpt lat="44.005940001874464" lon="8.031037626576225"><ele>446.5</ele><time>2026-03-26T18:01:59.999Z</time></trkpt><trkpt lat="44.00595543773556" lon="8.031138779809003"><ele>444.3333333333333</ele><time>2026-03-26T18:02:00.999Z</time></trkpt><trkpt lat="44.005959792092106" lon="8.031233728018849"><ele>442.16666666666663</ele><time>2026-03-26T18:02:01.999Z</time></trkpt><trkpt lat="44.00595288815788" lon="8.031321109047887"><ele>440.0</ele><time>2026-03-26T18:02:02.999Z</time></trkpt><trkpt lat="44.00593426007955" lon="8.031409789911551"><ele>439.99999999999994</ele><time>2026-03-26T18:02:03.999Z</time></trkpt><trkpt lat="44.005918522868825" lon="8.0315107390517"><ele>440.0</ele><time>2026-03-26T18:02:04.999Z</time></trkpt><trkpt lat="44.00590868384385" lon="8.031622364141983"><ele>440.0</ele><time>2026-03-26T18:02:05.999Z</time></trkpt><trkpt lat="44.00590645177733" lon="8.031755680894449"><ele>440.0</ele><time>2026-03-26T18:02:06.999Z</time></trkpt><trkpt lat="44.00590515132714" lon="8.031887047807428"><ele>439.99999999999994</ele><time>2026-03-26T18:02:07.999Z</time></trkpt><trkpt lat="44.0059127791764" lon="8.03200831945425"><ele>440.0</ele><time>2026-03-26T18:02:08.999Z</time></trkpt><trkpt lat="44.00593700747624" lon="8.032130062161258"><ele>440.3333333333333</ele><time>2026-03-26T18:02:09.999Z</time></trkpt><trkpt lat="44.00597485089015" lon="8.03223066282897"><ele>440.66666666666663</ele><time>2026-03-26T18:02:10.999Z</time></trkpt><trkpt lat="44.00602841243049" lon="8.032324122891623"><ele>441.0</ele><time>2026-03-26T18:02:11.999Z</time></trkpt><trkpt lat="44.006076456108964" lon="8.032401236784853"><ele>441.33333333333337</ele><time>2026-03-26T18:02:12.999Z</time></trkpt><trkpt lat="44.006121106729715" lon="8.03247487073959"><ele>441.6666666666667</ele><time>2026-03-26T18:02:13.999Z</time></trkpt><trkpt lat="44.0061637718414" lon="8.032556851709343"><ele>442.0</ele><time>2026-03-26T18:02:14.999Z</time></trkpt><trkpt lat="44.00620169979767" lon="8.032637045511292"><ele>442.00000000000006</ele><time>2026-03-26T18:02:15.999Z</time></trkpt><trkpt lat="44.006239961692806" lon="8.032726763070492"><ele>442.0</ele><time>2026-03-26T18:02:16.999Z</time></trkpt><trkpt lat="44.006270311028906" lon="8.0328155158267"><ele>442.0</ele><time>2026-03-26T18:02:17.999Z</time></trkpt><trkpt lat="44.00630949592917" lon="8.03290564055747"><ele>442.0</ele><time>2026-03-26T18:02:18.999Z</time></trkpt><trkpt lat="44.006302747091176" lon="8.033011426742476"><ele>442.0</ele><time>2026-03-26T18:02:19.999Z</time></trkpt><trkpt lat="44.00633697478177" lon="8.033101388872009"><ele>442.00000000000006</ele><time>2026-03-26T18:02:20.999Z</time></trkpt><trkpt lat="44.00635522601565" lon="8.033195196848645"><ele>442.0</ele><time>2026-03-26T18:02:21.999Z</time></trkpt><trkpt lat="44.00638320659028" lon="8.033293038886523"><ele>441.00000000000006</ele><time>2026-03-26T18:02:22.999Z</time></trkpt><trkpt lat="44.006403954895426" lon="8.03340663629728"><ele>440.0</ele><time>2026-03-26T18:02:23.999Z</time></trkpt><trkpt lat="44.006450958465685" lon="8.03350134633263"><ele>439.0</ele><time>2026-03-26T18:02:24.999Z</time></trkpt><trkpt lat="44.00651945698808" lon="8.033568660474984"><ele>438.0</ele><time>2026-03-26T18:02:25.999Z</time></trkpt><trkpt lat="44.006568904884695" lon="8.033656935954655"><ele>437.00000000000006</ele><time>2026-03-26T18:02:26.999Z</time></trkpt><trkpt lat="44.00661594943412" lon="8.033740494837165"><ele>436.0</ele><time>2026-03-26T18:02:27.999Z</time></trkpt><trkpt lat="44.00665307260347" lon="8.033835281734815"><ele>436.50000000000006</ele><time>2026-03-26T18:02:28.999Z</time></trkpt><trkpt lat="44.00667026921245" lon="8.03394442366527"><ele>437.0</ele><time>2026-03-26T18:02:29.999Z</time></trkpt><trkpt lat="44.00668149617752" lon="8.03405817583407"><ele>437.5</ele><time>2026-03-26T18:02:30.999Z</time></trkpt><trkpt lat="44.00669443362919" lon="8.034177140537428"><ele>438.0</ele><time>2026-03-26T18:02:31.999Z</time></trkpt><trkpt lat="44.006708875210485" lon="8.034291660784318"><ele>438.50000000000006</ele><time>2026-03-26T18:02:32.999Z</time></trkpt><trkpt lat="44.0067245408459" lon="8.034408189110922"><ele>439.0</ele><time>2026-03-26T18:02:33.999Z</time></trkpt><trkpt lat="44.00673833712081" lon="8.034508748132373"><ele>439.00000000000006</ele><time>2026-03-26T18:02:34.999Z</time></trkpt><trkpt lat="44.006764304981616" lon="8.034658962009617"><ele>439.0</ele><time>2026-03-26T18:02:36.999Z</time></trkpt><trkpt lat="44.00676127382413" lon="8.034749860627619"><ele>439.0</ele><time>2026-03-26T18:02:38.999Z</time></trkpt><trkpt lat="44.00677920194812" lon="8.034848161979639"><ele>439.0</ele><time>2026-03-26T18:02:40.999Z</time></trkpt><trkpt lat="44.00681082920218" lon="8.034993278920336"><ele>439.00000000000006</ele><time>2026-03-26T18:02:42.999Z</time></trkpt><trkpt lat="44.00683018846749" lon="8.035089038851746"><ele>439.0</ele><time>2026-03-26T18:02:43.999Z</time></trkpt><trkpt lat="44.00683932334022" lon="8.03518728475783"><ele>438.83333333333337</ele><time>2026-03-26T18:02:44.999Z</time></trkpt><trkpt lat="44.00685658525989" lon="8.035277256114712"><ele>438.6666666666667</ele><time>2026-03-26T18:02:45.999Z</time></trkpt><trkpt lat="44.00687769448809" lon="8.035362177645187"><ele>438.5</ele><time>2026-03-26T18:02:46.999Z</time></trkpt><trkpt lat="44.00689871335594" lon="8.035469166854837"><ele>438.33333333333337</ele><time>2026-03-26T18:02:47.999Z</time></trkpt><trkpt lat="44.00694334350413" lon="8.035564508366877"><ele>438.1666666666667</ele><time>2026-03-26T18:02:48.999Z</time></trkpt><trkpt lat="44.007005923784945" lon="8.03565712611562"><ele>438.0</ele><time>2026-03-26T18:02:49.999Z</time></trkpt><trkpt lat="44.00707722536402" lon="8.0357483882715"><ele>436.79999999999995</ele><time>2026-03-26T18:02:50.999Z</time></trkpt><trkpt lat="44.00714953596758" lon="8.035830555352579"><ele>435.59999999999997</ele><time>2026-03-26T18:02:51.999Z</time></trkpt><trkpt lat="44.00722108652301" lon="8.035913309833973"><ele>434.40000000000003</ele><time>2026-03-26T18:02:52.999Z</time></trkpt><trkpt lat="44.00728161481523" lon="8.03601523403378"><ele>433.20000000000005</ele><time>2026-03-26T18:02:53.999Z</time></trkpt><trkpt lat="44.007350440997655" lon="8.036108433505843"><ele>432.0</ele><time>2026-03-26T18:02:54.999Z</time></trkpt><trkpt lat="44.00741475770663" lon="8.036195585270308"><ele>432.0</ele><time>2026-03-26T18:02:55.999Z</time></trkpt><trkpt lat="44.00746670847325" lon="8.036303069810772"><ele>432.00000000000006</ele><time>2026-03-26T18:02:56.999Z</time></trkpt><trkpt lat="44.00750008164426" lon="8.03642621846603"><ele>432.00000000000006</ele><time>2026-03-26T18:02:57.999Z</time></trkpt><trkpt lat="44.007504481142625" lon="8.036559861867874"><ele>432.0</ele><time>2026-03-26T18:02:58.999Z</time></trkpt><trkpt lat="44.0074979917008" lon="8.036673418124298"><ele>432.0</ele><time>2026-03-26T18:02:59.999Z</time></trkpt><trkpt lat="44.00748216699959" lon="8.036798152097216"><ele>430.40000000000003</ele><time>2026-03-26T18:03:00.999Z</time></trkpt><trkpt lat="44.0074702686872" lon="8.036894900169015"><ele>428.80000000000007</ele><time>2026-03-26T18:03:01.999Z</time></trkpt><trkpt lat="44.00744126357936" lon="8.037084164194116"><ele>427.2</ele><time>2026-03-26T18:03:03.999Z</time></trkpt><trkpt lat="44.00741905026402" lon="8.037218670053514"><ele>425.6</ele><time>2026-03-26T18:03:04.999Z</time></trkpt><trkpt lat="44.00741421657096" lon="8.037316250403725"><ele>424.0</ele><time>2026-03-26T18:03:05.999Z</time></trkpt><trkpt lat="44.007399535586565" lon="8.037427436884672"><ele>424.83333333333337</ele><time>2026-03-26T18:03:06.999Z</time></trkpt><trkpt lat="44.00738131367924" lon="8.03753927320052"><ele>425.6666666666667</ele><time>2026-03-26T18:03:07.999Z</time></trkpt><trkpt lat="44.00735031753997" lon="8.037635046851454"><ele>426.5</ele><time>2026-03-26T18:03:08.999Z</time></trkpt><trkpt lat="44.00733048330621" lon="8.037756255961481"><ele>427.33333333333337</ele><time>2026-03-26T18:03:09.999Z</time></trkpt><trkpt lat="44.007310477337484" lon="8.037878514775555"><ele>428.1666666666667</ele><time>2026-03-26T18:03:10.999Z</time></trkpt><trkpt lat="44.00729233580228" lon="8.037989379755599"><ele>429.0</ele><time>2026-03-26T18:03:11.999Z</time></trkpt><trkpt lat="44.0072745241883" lon="8.038095414389135"><ele>429.0</ele><time>2026-03-26T18:03:12.999Z</time></trkpt><trkpt lat="44.007260651376434" lon="8.038245191198381"><ele>429.0</ele><time>2026-03-26T18:03:13.999Z</time></trkpt><trkpt lat="44.00727227348431" lon="8.038389010535488"><ele>429.0</ele><time>2026-03-26T18:03:14.999Z</time></trkpt><trkpt lat="44.00729179289388" lon="8.038522928467138"><ele>429.0</ele><time>2026-03-26T18:03:15.999Z</time></trkpt><trkpt lat="44.00732501196561" lon="8.038724822804301"><ele>430.6</ele><time>2026-03-26T18:03:17.999Z</time></trkpt><trkpt lat="44.00733714878473" lon="8.038854488303084"><ele>432.2</ele><time>2026-03-26T18:03:18.999Z</time></trkpt><trkpt lat="44.007353092879065" lon="8.038983125362234"><ele>433.80000000000007</ele><time>2026-03-26T18:03:19.999Z</time></trkpt><trkpt lat="44.00737362632204" lon="8.039117317323349"><ele>435.40000000000003</ele><time>2026-03-26T18:03:20.999Z</time></trkpt><trkpt lat="44.00740703961487" lon="8.039252196526412"><ele>437.0</ele><time>2026-03-26T18:03:21.999Z</time></trkpt><trkpt lat="44.00744179527283" lon="8.039373628899035"><ele>437.0</ele><time>2026-03-26T18:03:22.999Z</time></trkpt><trkpt lat="44.00749141604382" lon="8.039498190223945"><ele>437.00000000000006</ele><time>2026-03-26T18:03:23.999Z</time></trkpt><trkpt lat="44.007554978495484" lon="8.03962787857177"><ele>437.00000000000006</ele><time>2026-03-26T18:03:24.999Z</time></trkpt><trkpt lat="44.007632204468784" lon="8.039728578894401"><ele>437.0</ele><time>2026-03-26T18:03:25.999Z</time></trkpt><trkpt lat="44.00771006269061" lon="8.039811405544214"><ele>437.0</ele><time>2026-03-26T18:03:26.999Z</time></trkpt><trkpt lat="44.00778236158518" lon="8.039901312551626"><ele>440.3333333333333</ele><time>2026-03-26T18:03:27.999Z</time></trkpt><trkpt lat="44.00785013380329" lon="8.039987277163727"><ele>443.66666666666663</ele><time>2026-03-26T18:03:28.999Z</time></trkpt><trkpt lat="44.007912204889486" lon="8.040078019020076"><ele>447.0</ele><time>2026-03-26T18:03:29.999Z</time></trkpt><trkpt lat="44.00794503433349" lon="8.040182065703373"><ele>450.33333333333337</ele><time>2026-03-26T18:03:30.999Z</time></trkpt><trkpt lat="44.007977687573664" lon="8.040284980800553"><ele>453.6666666666667</ele><time>2026-03-26T18:03:31.999Z</time></trkpt><trkpt lat="44.00799881097937" lon="8.040393813826245"><ele>457.0</ele><time>2026-03-26T18:03:32.999Z</time></trkpt><trkpt lat="44.008010771477544" lon="8.040514518364164"><ele>457.00000000000006</ele><time>2026-03-26T18:03:33.999Z</time></trkpt><trkpt lat="44.00800904805261" lon="8.04062600703715"><ele>457.0</ele><time>2026-03-26T18:03:34.999Z</time></trkpt><trkpt lat="44.00800320368746" lon="8.040736271707193"><ele>457.0</ele><time>2026-03-26T18:03:35.999Z</time></trkpt><trkpt lat="44.00799691263337" lon="8.0408663466209"><ele>457.0</ele><time>2026-03-26T18:03:36.999Z</time></trkpt><trkpt lat="44.00799940588216" lon="8.040994918903309"><ele>457.00000000000006</ele><time>2026-03-26T18:03:37.999Z</time></trkpt><trkpt lat="44.00799283485208" lon="8.041109076301064"><ele>457.0</ele><time>2026-03-26T18:03:38.999Z</time></trkpt><trkpt lat="44.007987210801915" lon="8.041233002113623"><ele>456.40000000000003</ele><time>2026-03-26T18:03:39.999Z</time></trkpt><trkpt lat="44.00798292128464" lon="8.041361168148871"><ele>455.80000000000007</ele><time>2026-03-26T18:03:40.999Z</time></trkpt><trkpt lat="44.00796716478806" lon="8.041481462125562"><ele>455.2</ele><time>2026-03-26T18:03:41.999Z</time></trkpt><trkpt lat="44.00796069218175" lon="8.041615371807312"><ele>454.6</ele><time>2026-03-26T18:03:42.999Z</time></trkpt><trkpt lat="44.0079539201283" lon="8.04175547670125"><ele>454.0</ele><time>2026-03-26T18:03:43.999Z</time></trkpt><trkpt lat="44.007951167513305" lon="8.041889922085927"><ele>454.0</ele><time>2026-03-26T18:03:44.999Z</time></trkpt><trkpt lat="44.00795069425194" lon="8.042030775249899"><ele>454.0</ele><time>2026-03-26T18:03:45.999Z</time></trkpt><trkpt lat="44.00794790901355" lon="8.042157568826454"><ele>454.0</ele><time>2026-03-26T18:03:46.999Z</time></trkpt><trkpt lat="44.007928981247964" lon="8.042277864650215"><ele>454.0</ele><time>2026-03-26T18:03:47.999Z</time></trkpt><trkpt lat="44.00792379476182" lon="8.042386535397972"><ele>454.0</ele><time>2026-03-26T18:03:48.999Z</time></trkpt><trkpt lat="44.007932912150785" lon="8.042518843982604"><ele>454.2</ele><time>2026-03-26T18:03:49.999Z</time></trkpt><trkpt lat="44.00792750402777" lon="8.042643463658264"><ele>454.4</ele><time>2026-03-26T18:03:50.999Z</time></trkpt><trkpt lat="44.007906942558535" lon="8.042771404776959"><ele>454.6</ele><time>2026-03-26T18:03:51.999Z</time></trkpt><trkpt lat="44.00792789194723" lon="8.042905789506918"><ele>454.8</ele><time>2026-03-26T18:03:52.999Z</time></trkpt><trkpt lat="44.00794362500444" lon="8.043037091461331"><ele>455.0</ele><time>2026-03-26T18:03:53.999Z</time></trkpt><trkpt lat="44.00794823603244" lon="8.043176121096273"><ele>454.8</ele><time>2026-03-26T18:03:54.999Z</time></trkpt><trkpt lat="44.0079675382288" lon="8.04331388332192"><ele>454.6</ele><time>2026-03-26T18:03:55.999Z</time></trkpt><trkpt lat="44.00797999130873" lon="8.043455946111767"><ele>454.4</ele><time>2026-03-26T18:03:56.999Z</time></trkpt><trkpt lat="44.00798944977982" lon="8.043593238685375"><ele>454.2</ele><time>2026-03-26T18:03:57.999Z</time></trkpt><trkpt lat="44.00799101019221" lon="8.043727412096155"><ele>454.0</ele><time>2026-03-26T18:03:58.999Z</time></trkpt><trkpt lat="44.00798477892638" lon="8.043856210634253"><ele>454.0</ele><time>2026-03-26T18:03:59.999Z</time></trkpt><trkpt lat="44.007976778533724" lon="8.043985014066434"><ele>454.0</ele><time>2026-03-26T18:04:00.999Z</time></trkpt><trkpt lat="44.00796801102835" lon="8.04411214748909"><ele>454.0</ele><time>2026-03-26T18:04:01.999Z</time></trkpt><trkpt lat="44.00795857877898" lon="8.044238129811516"><ele>454.0</ele><time>2026-03-26T18:04:02.999Z</time></trkpt><trkpt lat="44.00794579726932" lon="8.044364489405567"><ele>454.0</ele><time>2026-03-26T18:04:03.999Z</time></trkpt><trkpt lat="44.007934593372255" lon="8.044489504328972"><ele>454.50000000000006</ele><time>2026-03-26T18:04:04.999Z</time></trkpt><trkpt lat="44.00792158757029" lon="8.044615959015642"><ele>455.0</ele><time>2026-03-26T18:04:05.999Z</time></trkpt><trkpt lat="44.00791336028813" lon="8.044721294602533"><ele>455.5</ele><time>2026-03-26T18:04:06.999Z</time></trkpt><trkpt lat="44.00789953832323" lon="8.044833473454503"><ele>456.0</ele><time>2026-03-26T18:04:07.999Z</time></trkpt><trkpt lat="44.007885667352504" lon="8.044948377964085"><ele>456.50000000000006</ele><time>2026-03-26T18:04:08.999Z</time></trkpt><trkpt lat="44.00787217232523" lon="8.045064816690777"><ele>457.0</ele><time>2026-03-26T18:04:09.999Z</time></trkpt><trkpt lat="44.00786200710053" lon="8.045179543376744"><ele>457.1666666666667</ele><time>2026-03-26T18:04:10.999Z</time></trkpt><trkpt lat="44.0078668847814" lon="8.04529732914162"><ele>457.33333333333337</ele><time>2026-03-26T18:04:11.999Z</time></trkpt><trkpt lat="44.00789146187189" lon="8.045414871819625"><ele>457.5</ele><time>2026-03-26T18:04:12.999Z</time></trkpt><trkpt lat="44.00793547365993" lon="8.0455182317887"><ele>457.66666666666663</ele><time>2026-03-26T18:04:13.999Z</time></trkpt><trkpt lat="44.00799318781276" lon="8.045608149187268"><ele>457.8333333333333</ele><time>2026-03-26T18:04:14.999Z</time></trkpt><trkpt lat="44.00806447438589" lon="8.045678394858347"><ele>458.0</ele><time>2026-03-26T18:04:15.999Z</time></trkpt><trkpt lat="44.00814333547035" lon="8.045729925759538"><ele>457.99999999999994</ele><time>2026-03-26T18:04:16.999Z</time></trkpt><trkpt lat="44.00821744477203" lon="8.045776545423085"><ele>458.0</ele><time>2026-03-26T18:04:17.999Z</time></trkpt><trkpt lat="44.00828303335117" lon="8.04583176729065"><ele>458.0</ele><time>2026-03-26T18:04:18.999Z</time></trkpt><trkpt lat="44.00835065361589" lon="8.045899773098316"><ele>458.0</ele><time>2026-03-26T18:04:19.999Z</time></trkpt><trkpt lat="44.00839680039947" lon="8.046003273241991"><ele>457.99999999999994</ele><time>2026-03-26T18:04:20.999Z</time></trkpt><trkpt lat="44.008454553102624" lon="8.046078481916117"><ele>458.0</ele><time>2026-03-26T18:04:21.999Z</time></trkpt><trkpt lat="44.0084981650079" lon="8.046184103540934"><ele>458.49999999999994</ele><time>2026-03-26T18:04:22.999Z</time></trkpt><trkpt lat="44.008543199325786" lon="8.046279580432486"><ele>459.0</ele><time>2026-03-26T18:04:23.999Z</time></trkpt><trkpt lat="44.00858487904637" lon="8.046387426434386"><ele>459.5</ele><time>2026-03-26T18:04:24.999Z</time></trkpt><trkpt lat="44.00863318010738" lon="8.046479023486185"><ele>460.0</ele><time>2026-03-26T18:04:25.999Z</time></trkpt><trkpt lat="44.008677427645324" lon="8.046568359008825"><ele>460.49999999999994</ele><time>2026-03-26T18:04:26.999Z</time></trkpt><trkpt lat="44.00872881538401" lon="8.046648054526239"><ele>461.0</ele><time>2026-03-26T18:04:27.999Z</time></trkpt><trkpt lat="44.00879222823914" lon="8.04671149049094"><ele>460.99999999999994</ele><time>2026-03-26T18:04:28.999Z</time></trkpt><trkpt lat="44.008866444695386" lon="8.046759244449035"><ele>461.0</ele><time>2026-03-26T18:04:29.999Z</time></trkpt><trkpt lat="44.00894432841128" lon="8.046793830485399"><ele>461.0</ele><time>2026-03-26T18:04:30.999Z</time></trkpt><trkpt lat="44.00902354103391" lon="8.046826035704516"><ele>461.0</ele><time>2026-03-26T18:04:31.999Z</time></trkpt><trkpt lat="44.009099474158525" lon="8.046849251224748"><ele>460.99999999999994</ele><time>2026-03-26T18:04:32.999Z</time></trkpt><trkpt lat="44.009172399176144" lon="8.046873901042593"><ele>461.0</ele><time>2026-03-26T18:04:33.999Z</time></trkpt><trkpt lat="44.00923656428873" lon="8.046918368927754"><ele>460.8333333333333</ele><time>2026-03-26T18:04:34.999Z</time></trkpt><trkpt lat="44.00928920715778" lon="8.046993995594393"><ele>460.66666666666663</ele><time>2026-03-26T18:04:35.999Z</time></trkpt><trkpt lat="44.00931465309322" lon="8.0471069443615"><ele>460.5</ele><time>2026-03-26T18:04:36.999Z</time></trkpt><trkpt lat="44.0093623736536" lon="8.047206824171694"><ele>460.33333333333337</ele><time>2026-03-26T18:04:37.999Z</time></trkpt><trkpt lat="44.00940388677376" lon="8.047317808776329"><ele>460.1666666666667</ele><time>2026-03-26T18:04:38.999Z</time></trkpt><trkpt lat="44.00946358559004" lon="8.04741354868466"><ele>460.0</ele><time>2026-03-26T18:04:39.999Z</time></trkpt><trkpt lat="44.00953397920704" lon="8.047507559022845"><ele>460.00000000000006</ele><time>2026-03-26T18:04:40.999Z</time></trkpt><trkpt lat="44.00960621854184" lon="8.047579394937555"><ele>460.0</ele><time>2026-03-26T18:04:41.999Z</time></trkpt><trkpt lat="44.00966933336299" lon="8.047654120299269"><ele>460.0</ele><time>2026-03-26T18:04:42.999Z</time></trkpt><trkpt lat="44.00972790464856" lon="8.047738921680018"><ele>460.0</ele><time>2026-03-26T18:04:43.999Z</time></trkpt><trkpt lat="44.00975820866775" lon="8.047842785085374"><ele>460.00000000000006</ele><time>2026-03-26T18:04:44.999Z</time></trkpt><trkpt lat="44.00979783173817" lon="8.047942143798753"><ele>460.0</ele><time>2026-03-26T18:04:45.999Z</time></trkpt><trkpt lat="44.009850816285955" lon="8.048038012736372"><ele>460.00000000000006</ele><time>2026-03-26T18:04:46.999Z</time></trkpt><trkpt lat="44.00990191976289" lon="8.048128448743556"><ele>460.0</ele><time>2026-03-26T18:04:47.999Z</time></trkpt><trkpt lat="44.00996025838701" lon="8.048212718371055"><ele>460.0</ele><time>2026-03-26T18:04:48.999Z</time></trkpt><trkpt lat="44.01002136515388" lon="8.048296714089812"><ele>460.0</ele><time>2026-03-26T18:04:49.999Z</time></trkpt><trkpt lat="44.01008047891242" lon="8.048382910886371"><ele>460.00000000000006</ele><time>2026-03-26T18:04:50.999Z</time></trkpt><trkpt lat="44.01013978427823" lon="8.048469468136316"><ele>460.0</ele><time>2026-03-26T18:04:51.999Z</time></trkpt><trkpt lat="44.010202146296386" lon="8.048553008710762"><ele>462.33333333333337</ele><time>2026-03-26T18:04:52.999Z</time></trkpt><trkpt lat="44.01027677431062" lon="8.048617227680321"><ele>464.6666666666667</ele><time>2026-03-26T18:04:53.999Z</time></trkpt><trkpt lat="44.010360231518725" lon="8.048647021493474"><ele>467.0</ele><time>2026-03-26T18:04:54.999Z</time></trkpt><trkpt lat="44.01044829915356" lon="8.04864502850439"><ele>469.33333333333337</ele><time>2026-03-26T18:04:55.999Z</time></trkpt><trkpt lat="44.01053348481057" lon="8.048642256544714"><ele>471.6666666666667</ele><time>2026-03-26T18:04:56.999Z</time></trkpt><trkpt lat="44.01061560954579" lon="8.048654019809986"><ele>474.0</ele><time>2026-03-26T18:04:57.999Z</time></trkpt><trkpt lat="44.01069172907127" lon="8.048664269238582"><ele>474.0</ele><time>2026-03-26T18:04:58.999Z</time></trkpt><trkpt lat="44.01077173884393" lon="8.048708219148882"><ele>474.0</ele><time>2026-03-26T18:04:59.999Z</time></trkpt><trkpt lat="44.01083822885705" lon="8.048782804259424"><ele>474.0</ele><time>2026-03-26T18:05:00.999Z</time></trkpt><trkpt lat="44.010901221944316" lon="8.048822066642119"><ele>474.0</ele><time>2026-03-26T18:05:01.999Z</time></trkpt><trkpt lat="44.01097105188788" lon="8.049005371998183"><ele>474.0</ele><time>2026-03-26T18:05:03.999Z</time></trkpt><trkpt lat="44.01101528488065" lon="8.049099779652652"><ele>473.8333333333333</ele><time>2026-03-26T18:05:04.999Z</time></trkpt><trkpt lat="44.01106485354703" lon="8.04919996110642"><ele>473.66666666666663</ele><time>2026-03-26T18:05:05.999Z</time></trkpt><trkpt lat="44.011124120045096" lon="8.049285250853854"><ele>473.5</ele><time>2026-03-26T18:05:06.999Z</time></trkpt><trkpt lat="44.011154379237546" lon="8.049383730136356"><ele>473.3333333333333</ele><time>2026-03-26T18:05:07.999Z</time></trkpt><trkpt lat="44.01117599726418" lon="8.049507324028628"><ele>473.16666666666663</ele><time>2026-03-26T18:05:08.999Z</time></trkpt><trkpt lat="44.01118661015627" lon="8.049630790104993"><ele>473.0</ele><time>2026-03-26T18:05:09.999Z</time></trkpt><trkpt lat="44.0111838283033" lon="8.049732663573856"><ele>472.99999999999994</ele><time>2026-03-26T18:05:10.999Z</time></trkpt><trkpt lat="44.01120808344721" lon="8.049837053794151"><ele>473.0</ele><time>2026-03-26T18:05:11.999Z</time></trkpt><trkpt lat="44.01125171299162" lon="8.049929854914314"><ele>473.0</ele><time>2026-03-26T18:05:12.999Z</time></trkpt><trkpt lat="44.01131805512379" lon="8.049997185957059"><ele>473.0</ele><time>2026-03-26T18:05:13.999Z</time></trkpt><trkpt lat="44.01138981062807" lon="8.050049000868798"><ele>472.99999999999994</ele><time>2026-03-26T18:05:14.999Z</time></trkpt><trkpt lat="44.011434408102204" lon="8.050133382419645"><ele>473.0</ele><time>2026-03-26T18:05:15.999Z</time></trkpt><trkpt lat="44.011464829446155" lon="8.050210061470533"><ele>469.8333333333333</ele><time>2026-03-26T18:05:16.999Z</time></trkpt><trkpt lat="44.01148478704126" lon="8.0503194902123"><ele>466.66666666666663</ele><time>2026-03-26T18:05:17.999Z</time></trkpt><trkpt lat="44.01152398159112" lon="8.050430533598387"><ele>463.5</ele><time>2026-03-26T18:05:18.999Z</time></trkpt><trkpt lat="44.011558235256416" lon="8.050531758818265"><ele>460.33333333333337</ele><time>2026-03-26T18:05:19.999Z</time></trkpt><trkpt lat="44.01160979374262" lon="8.050618340522822"><ele>457.1666666666667</ele><time>2026-03-26T18:05:20.999Z</time></trkpt><trkpt lat="44.011670159723714" lon="8.050698484899117"><ele>454.0</ele><time>2026-03-26T18:05:21.999Z</time></trkpt><trkpt lat="44.01172786512443" lon="8.050775107182002"><ele>459.2</ele><time>2026-03-26T18:05:22.999Z</time></trkpt><trkpt lat="44.01177374993433" lon="8.05085340579054"><ele>464.4</ele><time>2026-03-26T18:05:23.999Z</time></trkpt><trkpt lat="44.01181365411408" lon="8.050925530118795"><ele>469.6</ele><time>2026-03-26T18:05:24.999Z</time></trkpt><trkpt lat="44.011894665105544" lon="8.051027000671233"><ele>474.8</ele><time>2026-03-26T18:05:26.999Z</time></trkpt><trkpt lat="44.01182041455023" lon="8.05123844501079"><ele>480.0</ele><time>2026-03-26T18:05:27.999Z</time></trkpt><trkpt lat="44.01179515710015" lon="8.051358434873277"><ele>480.0</ele><time>2026-03-26T18:05:28.999Z</time></trkpt><trkpt lat="44.01178587516696" lon="8.051482017358751"><ele>480.0</ele><time>2026-03-26T18:05:29.999Z</time></trkpt><trkpt lat="44.0117890192949" lon="8.051610981859152"><ele>480.0</ele><time>2026-03-26T18:05:30.999Z</time></trkpt><trkpt lat="44.01180663935498" lon="8.051749230398507"><ele>480.0</ele><time>2026-03-26T18:05:31.999Z</time></trkpt><trkpt lat="44.011826692048444" lon="8.051878723870805"><ele>480.0</ele><time>2026-03-26T18:05:32.999Z</time></trkpt><trkpt lat="44.011848327208895" lon="8.052009673731007"><ele>479.0</ele><time>2026-03-26T18:05:33.999Z</time></trkpt><trkpt lat="44.01186304398915" lon="8.052139268883641"><ele>478.0</ele><time>2026-03-26T18:05:34.999Z</time></trkpt><trkpt lat="44.01187118450085" lon="8.052270781527758"><ele>477.0</ele><time>2026-03-26T18:05:35.999Z</time></trkpt><trkpt lat="44.01188288568804" lon="8.052398757980876"><ele>476.0</ele><time>2026-03-26T18:05:36.999Z</time></trkpt><trkpt lat="44.0119023424213" lon="8.052522191403911"><ele>475.0</ele><time>2026-03-26T18:05:37.999Z</time></trkpt><trkpt lat="44.011926698798774" lon="8.05263526513619"><ele>474.50000000000006</ele><time>2026-03-26T18:05:38.999Z</time></trkpt><trkpt lat="44.01195307117537" lon="8.052740153286368"><ele>474.0</ele><time>2026-03-26T18:05:39.999Z</time></trkpt><trkpt lat="44.01196625158985" lon="8.052851804379529"><ele>473.5</ele><time>2026-03-26T18:05:40.999Z</time></trkpt><trkpt lat="44.01196852488842" lon="8.052966106644156"><ele>473.0</ele><time>2026-03-26T18:05:41.999Z</time></trkpt><trkpt lat="44.01195588281523" lon="8.053083697721082"><ele>472.50000000000006</ele><time>2026-03-26T18:05:42.999Z</time></trkpt><trkpt lat="44.01193683617269" lon="8.053196844528077"><ele>472.0</ele><time>2026-03-26T18:05:43.999Z</time></trkpt><trkpt lat="44.011918254514995" lon="8.053313168579706"><ele>472.00000000000006</ele><time>2026-03-26T18:05:44.999Z</time></trkpt><trkpt lat="44.011894083868654" lon="8.05341867478327"><ele>472.0</ele><time>2026-03-26T18:05:45.999Z</time></trkpt><trkpt lat="44.01185736166242" lon="8.053514062464735"><ele>472.0</ele><time>2026-03-26T18:05:46.999Z</time></trkpt><trkpt lat="44.011794522900814" lon="8.053587339975676"><ele>472.0</ele><time>2026-03-26T18:05:47.999Z</time></trkpt><trkpt lat="44.01171676603583" lon="8.053652916064454"><ele>472.00000000000006</ele><time>2026-03-26T18:05:48.999Z</time></trkpt><trkpt lat="44.01165626623129" lon="8.053727160467632"><ele>472.0</ele><time>2026-03-26T18:05:49.999Z</time></trkpt><trkpt lat="44.011617415202394" lon="8.053825834004973"><ele>468.83333333333337</ele><time>2026-03-26T18:05:50.999Z</time></trkpt><trkpt lat="44.011596350287334" lon="8.053944082393425"><ele>465.6666666666667</ele><time>2026-03-26T18:05:51.999Z</time></trkpt><trkpt lat="44.01156542953061" lon="8.054053523327653"><ele>462.5</ele><time>2026-03-26T18:05:52.999Z</time></trkpt><trkpt lat="44.011521800693856" lon="8.05415298562614"><ele>459.33333333333337</ele><time>2026-03-26T18:05:53.999Z</time></trkpt><trkpt lat="44.011473903873714" lon="8.054257850105945"><ele>456.1666666666667</ele><time>2026-03-26T18:05:54.999Z</time></trkpt><trkpt lat="44.01143219509806" lon="8.054359551626693"><ele>453.0</ele><time>2026-03-26T18:05:55.999Z</time></trkpt><trkpt lat="44.01138943482101" lon="8.054472110229487"><ele>453.0</ele><time>2026-03-26T18:05:56.999Z</time></trkpt><trkpt lat="44.011346179334595" lon="8.054576998785556"><ele>453.0</ele><time>2026-03-26T18:05:57.999Z</time></trkpt><trkpt lat="44.01130387965054" lon="8.054673922835226"><ele>453.0</ele><time>2026-03-26T18:05:58.999Z</time></trkpt><trkpt lat="44.01126050864714" lon="8.0547601105675"><ele>453.0</ele><time>2026-03-26T18:05:59.999Z</time></trkpt><trkpt lat="44.01121630027611" lon="8.05483902205429"><ele>453.0</ele><time>2026-03-26T18:06:00.999Z</time></trkpt><trkpt lat="44.01115711550748" lon="8.054989949461271"><ele>453.0</ele><time>2026-03-26T18:06:02.999Z</time></trkpt><trkpt lat="44.01116308309375" lon="8.05507937384327"><ele>453.8333333333333</ele><time>2026-03-26T18:06:03.999Z</time></trkpt><trkpt lat="44.01124604799072" lon="8.055177504656895"><ele>454.66666666666663</ele><time>2026-03-26T18:06:05.999Z</time></trkpt><trkpt lat="44.01131343777374" lon="8.055181710788501"><ele>455.5</ele><time>2026-03-26T18:06:06.999Z</time></trkpt><trkpt lat="44.011391756235156" lon="8.055160068056182"><ele>456.3333333333333</ele><time>2026-03-26T18:06:07.999Z</time></trkpt><trkpt lat="44.01146709852896" lon="8.055126549040684"><ele>457.16666666666663</ele><time>2026-03-26T18:06:08.999Z</time></trkpt><trkpt lat="44.01154463739954" lon="8.055097112417752"><ele>458.0</ele><time>2026-03-26T18:06:09.999Z</time></trkpt><trkpt lat="44.01162638052769" lon="8.055072375457943"><ele>460.49999999999994</ele><time>2026-03-26T18:06:10.999Z</time></trkpt><trkpt lat="44.011709159970614" lon="8.055046459483528"><ele>463.0</ele><time>2026-03-26T18:06:11.999Z</time></trkpt><trkpt lat="44.01179553872006" lon="8.05502850372452"><ele>465.5</ele><time>2026-03-26T18:06:12.999Z</time></trkpt><trkpt lat="44.01188416216892" lon="8.05500909380676"><ele>468.0</ele><time>2026-03-26T18:06:13.999Z</time></trkpt><trkpt lat="44.01196978283847" lon="8.054981491975816"><ele>470.49999999999994</ele><time>2026-03-26T18:06:14.999Z</time></trkpt><trkpt lat="44.01205419164615" lon="8.054949829739515"><ele>473.0</ele><time>2026-03-26T18:06:15.999Z</time></trkpt><trkpt lat="44.01213733417829" lon="8.054929233085113"><ele>474.49999999999994</ele><time>2026-03-26T18:06:16.999Z</time></trkpt><trkpt lat="44.01222302115809" lon="8.05492378243332"><ele>476.0</ele><time>2026-03-26T18:06:17.999Z</time></trkpt><trkpt lat="44.01231052668124" lon="8.054924845185017"><ele>477.5</ele><time>2026-03-26T18:06:18.999Z</time></trkpt><trkpt lat="44.01240144889027" lon="8.054931999363687"><ele>479.0</ele><time>2026-03-26T18:06:19.999Z</time></trkpt><trkpt lat="44.01249059840199" lon="8.054943610723123"><ele>480.49999999999994</ele><time>2026-03-26T18:06:20.999Z</time></trkpt><trkpt lat="44.01257459455755" lon="8.054956351767522"><ele>482.0</ele><time>2026-03-26T18:06:21.999Z</time></trkpt><trkpt lat="44.012655501437635" lon="8.054968750036549"><ele>482.0</ele><time>2026-03-26T18:06:22.999Z</time></trkpt><trkpt lat="44.012729196665276" lon="8.054981643334042"><ele>482.00000000000006</ele><time>2026-03-26T18:06:23.999Z</time></trkpt><trkpt lat="44.01279754855437" lon="8.055013715114315"><ele>482.0</ele><time>2026-03-26T18:06:24.999Z</time></trkpt><trkpt lat="44.01284971703988" lon="8.055070520996985"><ele>482.0</ele><time>2026-03-26T18:06:25.999Z</time></trkpt><trkpt lat="44.01289245101487" lon="8.055160829525631"><ele>482.00000000000006</ele><time>2026-03-26T18:06:26.999Z</time></trkpt><trkpt lat="44.01292997587928" lon="8.055254418361296"><ele>482.0</ele><time>2026-03-26T18:06:27.999Z</time></trkpt><trkpt lat="44.01297939444362" lon="8.055340808645695"><ele>482.0</ele><time>2026-03-26T18:06:28.999Z</time></trkpt><trkpt lat="44.01303866130725" lon="8.055410743300055"><ele>481.99999999999994</ele><time>2026-03-26T18:06:29.999Z</time></trkpt><trkpt lat="44.013105978204536" lon="8.055473481752896"><ele>482.0</ele><time>2026-03-26T18:06:30.999Z</time></trkpt><trkpt lat="44.013168562205266" lon="8.055549000060374"><ele>482.0</ele><time>2026-03-26T18:06:31.999Z</time></trkpt><trkpt lat="44.01322986341632" lon="8.05562406425712"><ele>482.0</ele><time>2026-03-26T18:06:32.999Z</time></trkpt><trkpt lat="44.01330008103224" lon="8.055692778348492"><ele>481.99999999999994</ele><time>2026-03-26T18:06:33.999Z</time></trkpt><trkpt lat="44.013376373643574" lon="8.05575063663727"><ele>482.0</ele><time>2026-03-26T18:06:34.999Z</time></trkpt><trkpt lat="44.01345533228761" lon="8.055800675517322"><ele>480.3333333333333</ele><time>2026-03-26T18:06:35.999Z</time></trkpt><trkpt lat="44.01352848221143" lon="8.055855478566894"><ele>478.66666666666663</ele><time>2026-03-26T18:06:36.999Z</time></trkpt><trkpt lat="44.013593402338905" lon="8.055922012055579"><ele>477.0</ele><time>2026-03-26T18:06:37.999Z</time></trkpt><trkpt lat="44.01365834771703" lon="8.055989743093466"><ele>475.33333333333337</ele><time>2026-03-26T18:06:38.999Z</time></trkpt><trkpt lat="44.01372025697779" lon="8.056063970994803"><ele>473.6666666666667</ele><time>2026-03-26T18:06:39.999Z</time></trkpt><trkpt lat="44.01377716359631" lon="8.056133846934536"><ele>472.0</ele><time>2026-03-26T18:06:40.999Z</time></trkpt><trkpt lat="44.013821112919906" lon="8.056209398011072"><ele>472.00000000000006</ele><time>2026-03-26T18:06:41.999Z</time></trkpt><trkpt lat="44.01385533317448" lon="8.056298834246535"><ele>472.0</ele><time>2026-03-26T18:06:42.999Z</time></trkpt><trkpt lat="44.01388340809701" lon="8.056405549920335"><ele>472.0</ele><time>2026-03-26T18:06:43.999Z</time></trkpt><trkpt lat="44.01391207961164" lon="8.05650878719416"><ele>472.0</ele><time>2026-03-26T18:06:44.999Z</time></trkpt><trkpt lat="44.01393060864051" lon="8.056606769915879"><ele>472.00000000000006</ele><time>2026-03-26T18:06:45.999Z</time></trkpt><trkpt lat="44.013935436883145" lon="8.056713606194212"><ele>472.0</ele><time>2026-03-26T18:06:46.999Z</time></trkpt><trkpt lat="44.01393069674259" lon="8.056823004198778"><ele>468.85714285714283</ele><time>2026-03-26T18:06:47.999Z</time></trkpt><trkpt lat="44.01392295283072" lon="8.056919010180044"><ele>465.7142857142858</ele><time>2026-03-26T18:06:48.999Z</time></trkpt><trkpt lat="44.01391157814243" lon="8.057018971564775"><ele>462.5714285714286</ele><time>2026-03-26T18:06:49.999Z</time></trkpt><trkpt lat="44.013913985201306" lon="8.057115169897967"><ele>459.42857142857144</ele><time>2026-03-26T18:06:50.999Z</time></trkpt><trkpt lat="44.013934143235886" lon="8.057210528519127"><ele>456.28571428571433</ele><time>2026-03-26T18:06:51.999Z</time></trkpt><trkpt lat="44.013968202606456" lon="8.057304256804807"><ele>453.1428571428572</ele><time>2026-03-26T18:06:52.999Z</time></trkpt><trkpt lat="44.01401699494924" lon="8.057389014822512"><ele>450.00000000000006</ele><time>2026-03-26T18:06:53.999Z</time></trkpt><trkpt lat="44.01407557161587" lon="8.057465081290733"><ele>448.5</ele><time>2026-03-26T18:06:54.999Z</time></trkpt><trkpt lat="44.01414262314527" lon="8.057535489506842"><ele>447.0</ele><time>2026-03-26T18:06:55.999Z</time></trkpt><trkpt lat="44.01420854177283" lon="8.057608278603523"><ele>445.5</ele><time>2026-03-26T18:06:56.999Z</time></trkpt><trkpt lat="44.01426499372086" lon="8.057682910821422"><ele>444.0</ele><time>2026-03-26T18:06:57.999Z</time></trkpt><trkpt lat="44.014313289948376" lon="8.057767353375818"><ele>442.5</ele><time>2026-03-26T18:06:58.999Z</time></trkpt><trkpt lat="44.014353002120075" lon="8.057852341686358"><ele>441.0</ele><time>2026-03-26T18:06:59.999Z</time></trkpt><trkpt lat="44.01438546040701" lon="8.057943238675442"><ele>444.8333333333333</ele><time>2026-03-26T18:07:00.999Z</time></trkpt><trkpt lat="44.014408165735766" lon="8.058046420327969"><ele>448.66666666666663</ele><time>2026-03-26T18:07:01.999Z</time></trkpt><trkpt lat="44.01441342681089" lon="8.05815809508808"><ele>452.5</ele><time>2026-03-26T18:07:02.999Z</time></trkpt><trkpt lat="44.01440943918172" lon="8.058273056472485"><ele>456.3333333333333</ele><time>2026-03-26T18:07:03.999Z</time></trkpt><trkpt lat="44.014398992815686" lon="8.058389720273285"><ele>460.16666666666663</ele><time>2026-03-26T18:07:04.999Z</time></trkpt><trkpt lat="44.014396150871356" lon="8.058508489164712"><ele>464.0</ele><time>2026-03-26T18:07:05.999Z</time></trkpt><trkpt lat="44.014406437476865" lon="8.05862807177276"><ele>463.99999999999994</ele><time>2026-03-26T18:07:06.999Z</time></trkpt><trkpt lat="44.01442195833852" lon="8.058747521584554"><ele>464.0</ele><time>2026-03-26T18:07:07.999Z</time></trkpt><trkpt lat="44.014438041151664" lon="8.05886412824464"><ele>464.0</ele><time>2026-03-26T18:07:08.999Z</time></trkpt><trkpt lat="44.014455511164925" lon="8.058976080499285"><ele>464.0</ele><time>2026-03-26T18:07:09.999Z</time></trkpt><trkpt lat="44.01447418315197" lon="8.059095512735938"><ele>463.99999999999994</ele><time>2026-03-26T18:07:10.999Z</time></trkpt><trkpt lat="44.01449111122257" lon="8.059213764089696"><ele>464.0</ele><time>2026-03-26T18:07:11.999Z</time></trkpt><trkpt lat="44.01450680087164" lon="8.059329210714958"><ele>461.99999999999994</ele><time>2026-03-26T18:07:12.999Z</time></trkpt><trkpt lat="44.01452034037154" lon="8.059443093999885"><ele>460.0</ele><time>2026-03-26T18:07:13.999Z</time></trkpt><trkpt lat="44.01453281014958" lon="8.059557292827984"><ele>458.0</ele><time>2026-03-26T18:07:14.999Z</time></trkpt><trkpt lat="44.01454139991284" lon="8.05967114655553"><ele>456.0</ele><time>2026-03-26T18:07:15.999Z</time></trkpt><trkpt lat="44.01454736113611" lon="8.059783425759303"><ele>453.99999999999994</ele><time>2026-03-26T18:07:16.999Z</time></trkpt><trkpt lat="44.0145524455393" lon="8.05989546243803"><ele>452.0</ele><time>2026-03-26T18:07:17.999Z</time></trkpt><trkpt lat="44.0145607082273" lon="8.06000422602949"><ele>450.99999999999994</ele><time>2026-03-26T18:07:18.999Z</time></trkpt><trkpt lat="44.01456445984311" lon="8.060108970839291"><ele>450.0</ele><time>2026-03-26T18:07:19.999Z</time></trkpt><trkpt lat="44.014559099413546" lon="8.060219952864115"><ele>449.0</ele><time>2026-03-26T18:07:20.999Z</time></trkpt><trkpt lat="44.014547287001086" lon="8.060326392839583"><ele>448.0</ele><time>2026-03-26T18:07:21.999Z</time></trkpt><trkpt lat="44.014530155780754" lon="8.060431304131638"><ele>446.99999999999994</ele><time>2026-03-26T18:07:22.999Z</time></trkpt><trkpt lat="44.01452573190372" lon="8.060534405799086"><ele>446.0</ele><time>2026-03-26T18:07:23.999Z</time></trkpt><trkpt lat="44.01454425896543" lon="8.060629184102291"><ele>445.99999999999994</ele><time>2026-03-26T18:07:24.999Z</time></trkpt><trkpt lat="44.01458332280372" lon="8.060724379956136"><ele>446.0</ele><time>2026-03-26T18:07:25.999Z</time></trkpt><trkpt lat="44.01464564607238" lon="8.060788197610986"><ele>446.0</ele><time>2026-03-26T18:07:26.999Z</time></trkpt><trkpt lat="44.01472070247963" lon="8.060829610686614"><ele>446.0</ele><time>2026-03-26T18:07:27.999Z</time></trkpt><trkpt lat="44.014798445511325" lon="8.060862423323563"><ele>445.99999999999994</ele><time>2026-03-26T18:07:28.999Z</time></trkpt><trkpt lat="44.01487361574266" lon="8.06089928342954"><ele>446.0</ele><time>2026-03-26T18:07:29.999Z</time></trkpt><trkpt lat="44.014943848196516" lon="8.060939776099994"><ele>450.57142857142856</ele><time>2026-03-26T18:07:30.999Z</time></trkpt><trkpt lat="44.01500989239893" lon="8.060984914648259"><ele>455.1428571428571</ele><time>2026-03-26T18:07:31.999Z</time></trkpt><trkpt lat="44.01506381093776" lon="8.061050898134493"><ele>459.7142857142858</ele><time>2026-03-26T18:07:32.999Z</time></trkpt><trkpt lat="44.01510232459104" lon="8.061130640309347"><ele>464.28571428571433</ele><time>2026-03-26T18:07:33.999Z</time></trkpt><trkpt lat="44.01512734273554" lon="8.06122637182834"><ele>468.8571428571429</ele><time>2026-03-26T18:07:34.999Z</time></trkpt><trkpt lat="44.015125255250915" lon="8.061334124135483"><ele>473.4285714285715</ele><time>2026-03-26T18:07:35.999Z</time></trkpt><trkpt lat="44.01509953053671" lon="8.061433789301265"><ele>478.00000000000006</ele><time>2026-03-26T18:07:36.999Z</time></trkpt><trkpt lat="44.01506452370574" lon="8.061527471742998"><ele>475.33333333333337</ele><time>2026-03-26T18:07:37.999Z</time></trkpt><trkpt lat="44.01503784928806" lon="8.061629952091034"><ele>472.6666666666667</ele><time>2026-03-26T18:07:38.999Z</time></trkpt><trkpt lat="44.015025120031595" lon="8.061738004605404"><ele>470.0</ele><time>2026-03-26T18:07:39.999Z</time></trkpt><trkpt lat="44.01501907389228" lon="8.06184957149045"><ele>467.33333333333337</ele><time>2026-03-26T18:07:40.999Z</time></trkpt><trkpt lat="44.01500976353377" lon="8.061962155485116"><ele>464.6666666666667</ele><time>2026-03-26T18:07:41.999Z</time></trkpt><trkpt lat="44.01499644914749" lon="8.062070949390488"><ele>462.0</ele><time>2026-03-26T18:07:42.999Z</time></trkpt><trkpt lat="44.0149707255735" lon="8.062169475956276"><ele>456.85714285714283</ele><time>2026-03-26T18:07:43.999Z</time></trkpt><trkpt lat="44.01493193968935" lon="8.062255505812644"><ele>451.7142857142857</ele><time>2026-03-26T18:07:44.999Z</time></trkpt><trkpt lat="44.014883101942765" lon="8.062324065130234"><ele>446.57142857142856</ele><time>2026-03-26T18:07:45.999Z</time></trkpt><trkpt lat="44.01483177497684" lon="8.062386490825496"><ele>441.42857142857144</ele><time>2026-03-26T18:07:46.999Z</time></trkpt><trkpt lat="44.01479291893591" lon="8.062458717708592"><ele>436.2857142857143</ele><time>2026-03-26T18:07:47.999Z</time></trkpt><trkpt lat="44.014774998426105" lon="8.062550004681668"><ele>431.1428571428571</ele><time>2026-03-26T18:07:48.999Z</time></trkpt><trkpt lat="44.01477879903893" lon="8.062649125769354"><ele>426.0</ele><time>2026-03-26T18:07:49.999Z</time></trkpt><trkpt lat="44.01479381134511" lon="8.06275187926807"><ele>425.6666666666667</ele><time>2026-03-26T18:07:50.999Z</time></trkpt><trkpt lat="44.01480611990042" lon="8.062857940516555"><ele>425.33333333333337</ele><time>2026-03-26T18:07:51.999Z</time></trkpt><trkpt lat="44.0148088864288" lon="8.062967768521696"><ele>425.0</ele><time>2026-03-26T18:07:52.999Z</time></trkpt><trkpt lat="44.014797492442845" lon="8.063080443629014"><ele>424.6666666666667</ele><time>2026-03-26T18:07:53.999Z</time></trkpt><trkpt lat="44.014770944061844" lon="8.06319315496999"><ele>424.33333333333337</ele><time>2026-03-26T18:07:54.999Z</time></trkpt><trkpt lat="44.01473593117467" lon="8.063302605381933"><ele>424.0</ele><time>2026-03-26T18:07:55.999Z</time></trkpt><trkpt lat="44.01470432478284" lon="8.063406968671858"><ele>424.6666666666667</ele><time>2026-03-26T18:07:56.999Z</time></trkpt><trkpt lat="44.01466880647327" lon="8.063510716075344"><ele>425.33333333333337</ele><time>2026-03-26T18:07:57.999Z</time></trkpt><trkpt lat="44.014634426527905" lon="8.063611358298656"><ele>426.0</ele><time>2026-03-26T18:07:58.999Z</time></trkpt><trkpt lat="44.01461052149441" lon="8.063716475212834"><ele>426.66666666666663</ele><time>2026-03-26T18:07:59.999Z</time></trkpt><trkpt lat="44.014612465766454" lon="8.063825773601804"><ele>427.3333333333333</ele><time>2026-03-26T18:08:00.999Z</time></trkpt><trkpt lat="44.01463762067516" lon="8.063930367984304"><ele>428.0</ele><time>2026-03-26T18:08:01.999Z</time></trkpt><trkpt lat="44.014673938820316" lon="8.06402292855673"><ele>427.5714285714286</ele><time>2026-03-26T18:08:02.999Z</time></trkpt><trkpt lat="44.01469768925269" lon="8.064114668004366"><ele>427.14285714285717</ele><time>2026-03-26T18:08:03.999Z</time></trkpt><trkpt lat="44.014697687823734" lon="8.064210784039078"><ele>426.7142857142857</ele><time>2026-03-26T18:08:04.999Z</time></trkpt><trkpt lat="44.01467001982989" lon="8.064300027189917"><ele>426.28571428571433</ele><time>2026-03-26T18:08:05.999Z</time></trkpt><trkpt lat="44.014628802234725" lon="8.064387501921292"><ele>425.85714285714283</ele><time>2026-03-26T18:08:06.999Z</time></trkpt><trkpt lat="44.014596752582875" lon="8.064486327951766"><ele>425.42857142857144</ele><time>2026-03-26T18:08:07.999Z</time></trkpt><trkpt lat="44.01457765397467" lon="8.06459972975379"><ele>425.0</ele><time>2026-03-26T18:08:08.999Z</time></trkpt><trkpt lat="44.01456471781763" lon="8.06472241786684"><ele>424.99999999999994</ele><time>2026-03-26T18:08:09.999Z</time></trkpt><trkpt lat="44.01455024906262" lon="8.064849660522"><ele>425.0</ele><time>2026-03-26T18:08:10.999Z</time></trkpt><trkpt lat="44.01453783908327" lon="8.064972180310171"><ele>425.0</ele><time>2026-03-26T18:08:11.999Z</time></trkpt><trkpt lat="44.014524869728724" lon="8.065094453565825"><ele>425.0</ele><time>2026-03-26T18:08:12.999Z</time></trkpt><trkpt lat="44.01451088827949" lon="8.065213679553958"><ele>424.99999999999994</ele><time>2026-03-26T18:08:13.999Z</time></trkpt><trkpt lat="44.0144991533856" lon="8.065332675526566"><ele>425.0</ele><time>2026-03-26T18:08:14.999Z</time></trkpt><trkpt lat="44.014487284958484" lon="8.065450504519399"><ele>425.3333333333333</ele><time>2026-03-26T18:08:15.999Z</time></trkpt><trkpt lat="44.01447550306731" lon="8.065567141755965"><ele>425.66666666666663</ele><time>2026-03-26T18:08:16.999Z</time></trkpt><trkpt lat="44.01446304915105" lon="8.065678134384914"><ele>426.0</ele><time>2026-03-26T18:08:17.999Z</time></trkpt><trkpt lat="44.01443880019806" lon="8.06578016078882"><ele>426.33333333333337</ele><time>2026-03-26T18:08:18.999Z</time></trkpt><trkpt lat="44.01439829279632" lon="8.065870933579621"><ele>426.6666666666667</ele><time>2026-03-26T18:08:19.999Z</time></trkpt><trkpt lat="44.01434540289296" lon="8.06594313182339"><ele>427.0</ele><time>2026-03-26T18:08:20.999Z</time></trkpt><trkpt lat="44.01428318512241" lon="8.06600601452199"><ele>429.33333333333337</ele><time>2026-03-26T18:08:21.999Z</time></trkpt><trkpt lat="44.01421563564257" lon="8.066068882540872"><ele>431.6666666666667</ele><time>2026-03-26T18:08:22.999Z</time></trkpt><trkpt lat="44.014148245049746" lon="8.066130898638423"><ele>434.0</ele><time>2026-03-26T18:08:23.999Z</time></trkpt><trkpt lat="44.01408302064071" lon="8.066204800717928"><ele>436.33333333333337</ele><time>2026-03-26T18:08:24.999Z</time></trkpt><trkpt lat="44.01402930215195" lon="8.066288760489169"><ele>438.6666666666667</ele><time>2026-03-26T18:08:25.999Z</time></trkpt><trkpt lat="44.01398765938231" lon="8.066387585161207"><ele>441.0</ele><time>2026-03-26T18:08:26.999Z</time></trkpt><trkpt lat="44.01395384787456" lon="8.066491236318026"><ele>438.1666666666667</ele><time>2026-03-26T18:08:27.999Z</time></trkpt><trkpt lat="44.01391838962666" lon="8.06659549555171"><ele>435.33333333333337</ele><time>2026-03-26T18:08:28.999Z</time></trkpt><trkpt lat="44.01387327785186" lon="8.066689925835458"><ele>432.5</ele><time>2026-03-26T18:08:29.999Z</time></trkpt><trkpt lat="44.013815635742546" lon="8.066767921320688"><ele>429.6666666666667</ele><time>2026-03-26T18:08:30.999Z</time></trkpt><trkpt lat="44.01375076556313" lon="8.066828906457491"><ele>426.83333333333337</ele><time>2026-03-26T18:08:31.999Z</time></trkpt><trkpt lat="44.01368473041056" lon="8.06688707925851"><ele>424.0</ele><time>2026-03-26T18:08:32.999Z</time></trkpt><trkpt lat="44.01362745793556" lon="8.066954192591034"><ele>424.0</ele><time>2026-03-26T18:08:33.999Z</time></trkpt><trkpt lat="44.013565381565975" lon="8.06701819698082"><ele>424.0</ele><time>2026-03-26T18:08:34.999Z</time></trkpt><trkpt lat="44.01350540938059" lon="8.06708070857949"><ele>424.0</ele><time>2026-03-26T18:08:35.999Z</time></trkpt><trkpt lat="44.01344835857713" lon="8.067145213021574"><ele>424.0</ele><time>2026-03-26T18:08:36.999Z</time></trkpt><trkpt lat="44.0133961428788" lon="8.067211780507476"><ele>424.0</ele><time>2026-03-26T18:08:37.999Z</time></trkpt><trkpt lat="44.013344873499214" lon="8.067278590903884"><ele>424.0</ele><time>2026-03-26T18:08:38.999Z</time></trkpt><trkpt lat="44.01330107721821" lon="8.067349727278534"><ele>424.0</ele><time>2026-03-26T18:08:39.999Z</time></trkpt><trkpt lat="44.01327227553318" lon="8.06750312428799"><ele>426.1666666666667</ele><time>2026-03-26T18:08:41.999Z</time></trkpt><trkpt lat="44.01334196125933" lon="8.06763988307875"><ele>428.33333333333337</ele><time>2026-03-26T18:08:43.999Z</time></trkpt><trkpt lat="44.013397386650105" lon="8.067685429336747"><ele>430.5</ele><time>2026-03-26T18:08:44.999Z</time></trkpt><trkpt lat="44.01345884252495" lon="8.067738506901945"><ele>432.66666666666663</ele><time>2026-03-26T18:08:45.999Z</time></trkpt><trkpt lat="44.01351562268585" lon="8.067800505965948"><ele>434.8333333333333</ele><time>2026-03-26T18:08:46.999Z</time></trkpt><trkpt lat="44.01356894400585" lon="8.067874736217322"><ele>437.0</ele><time>2026-03-26T18:08:47.999Z</time></trkpt><trkpt lat="44.013615921729" lon="8.067957088130461"><ele>437.0</ele><time>2026-03-26T18:08:48.999Z</time></trkpt><trkpt lat="44.01365979883724" lon="8.068040853474434"><ele>437.0</ele><time>2026-03-26T18:08:49.999Z</time></trkpt><trkpt lat="44.0137018407622" lon="8.068115491918471"><ele>437.0</ele><time>2026-03-26T18:08:50.999Z</time></trkpt><trkpt lat="44.01374820465502" lon="8.068181277987177"><ele>437.0</ele><time>2026-03-26T18:08:51.999Z</time></trkpt><trkpt lat="44.013799977484474" lon="8.068240575893753"><ele>437.0</ele><time>2026-03-26T18:08:52.999Z</time></trkpt><trkpt lat="44.0138631534303" lon="8.068285389870256"><ele>437.0</ele><time>2026-03-26T18:08:53.999Z</time></trkpt><trkpt lat="44.01392975007126" lon="8.068321922915192"><ele>437.0</ele><time>2026-03-26T18:08:54.999Z</time></trkpt><trkpt lat="44.01399535488094" lon="8.068345721066029"><ele>434.49999999999994</ele><time>2026-03-26T18:08:55.999Z</time></trkpt><trkpt lat="44.014056429049774" lon="8.068367757967616"><ele>432.0</ele><time>2026-03-26T18:08:56.999Z</time></trkpt><trkpt lat="44.01415661768647" lon="8.068456300915848"><ele>429.5</ele><time>2026-03-26T18:08:58.999Z</time></trkpt><trkpt lat="44.014194572440935" lon="8.0685310858634"><ele>427.0</ele><time>2026-03-26T18:08:59.999Z</time></trkpt><trkpt lat="44.01421652014261" lon="8.068628068292067"><ele>424.49999999999994</ele><time>2026-03-26T18:09:00.999Z</time></trkpt><trkpt lat="44.01422959510601" lon="8.068726845590978"><ele>422.0</ele><time>2026-03-26T18:09:01.999Z</time></trkpt><trkpt lat="44.01424160892314" lon="8.068832028671896"><ele>424.8333333333333</ele><time>2026-03-26T18:09:02.999Z</time></trkpt><trkpt lat="44.01424633964792" lon="8.068941072421806"><ele>427.66666666666663</ele><time>2026-03-26T18:09:03.999Z</time></trkpt><trkpt lat="44.01424946742219" lon="8.069050539810409"><ele>430.5</ele><time>2026-03-26T18:09:04.999Z</time></trkpt><trkpt lat="44.01425534902603" lon="8.069161443511371"><ele>433.33333333333337</ele><time>2026-03-26T18:09:05.999Z</time></trkpt><trkpt lat="44.01425976910618" lon="8.069275562320769"><ele>436.1666666666667</ele><time>2026-03-26T18:09:06.999Z</time></trkpt><trkpt lat="44.014263285143514" lon="8.069389490140642"><ele>439.0</ele><time>2026-03-26T18:09:07.999Z</time></trkpt><trkpt lat="44.014264632301185" lon="8.06950540683364"><ele>439.00000000000006</ele><time>2026-03-26T18:09:08.999Z</time></trkpt><trkpt lat="44.01426196049377" lon="8.069618263127584"><ele>439.0</ele><time>2026-03-26T18:09:09.999Z</time></trkpt><trkpt lat="44.01425432250629" lon="8.069729418008123"><ele>439.0</ele><time>2026-03-26T18:09:10.999Z</time></trkpt><trkpt lat="44.014237471069976" lon="8.069843206742892"><ele>439.0</ele><time>2026-03-26T18:09:11.999Z</time></trkpt><trkpt lat="44.01421795613251" lon="8.06995226374758"><ele>439.00000000000006</ele><time>2026-03-26T18:09:12.999Z</time></trkpt><trkpt lat="44.014197742775785" lon="8.0700549714855"><ele>439.0</ele><time>2026-03-26T18:09:13.999Z</time></trkpt><trkpt lat="44.01418553502666" lon="8.070155151424615"><ele>439.50000000000006</ele><time>2026-03-26T18:09:14.999Z</time></trkpt><trkpt lat="44.014192465516" lon="8.070247866261143"><ele>440.0</ele><time>2026-03-26T18:09:15.999Z</time></trkpt><trkpt lat="44.01427350932392" lon="8.070385285109241"><ele>440.5</ele><time>2026-03-26T18:09:17.999Z</time></trkpt><trkpt lat="44.014332183610314" lon="8.070437135016995"><ele>441.0</ele><time>2026-03-26T18:09:18.999Z</time></trkpt><trkpt lat="44.014382033043894" lon="8.070509782629713"><ele>441.50000000000006</ele><time>2026-03-26T18:09:19.999Z</time></trkpt><trkpt lat="44.01439470884569" lon="8.070613778697949"><ele>442.0</ele><time>2026-03-26T18:09:20.999Z</time></trkpt><trkpt lat="44.01440356641621" lon="8.070718701433128"><ele>440.33333333333337</ele><time>2026-03-26T18:09:21.999Z</time></trkpt><trkpt lat="44.0144142033542" lon="8.070832377458485"><ele>438.6666666666667</ele><time>2026-03-26T18:09:22.999Z</time></trkpt><trkpt lat="44.01443599618838" lon="8.070948012482091"><ele>437.0</ele><time>2026-03-26T18:09:23.999Z</time></trkpt><trkpt lat="44.01443436913204" lon="8.071070547993532"><ele>435.33333333333337</ele><time>2026-03-26T18:09:24.999Z</time></trkpt><trkpt lat="44.014415853524284" lon="8.071192093791735"><ele>433.6666666666667</ele><time>2026-03-26T18:09:25.999Z</time></trkpt><trkpt lat="44.01438729529827" lon="8.071306102188473"><ele>432.0</ele><time>2026-03-26T18:09:26.999Z</time></trkpt><trkpt lat="44.014357076563876" lon="8.071413568409726"><ele>432.0</ele><time>2026-03-26T18:09:27.999Z</time></trkpt><trkpt lat="44.01433969199768" lon="8.071519438046082"><ele>432.0</ele><time>2026-03-26T18:09:28.999Z</time></trkpt><trkpt lat="44.014341502768325" lon="8.071623081583072"><ele>432.0</ele><time>2026-03-26T18:09:29.999Z</time></trkpt><trkpt lat="44.01435881079364" lon="8.071719795560348"><ele>432.0</ele><time>2026-03-26T18:09:30.999Z</time></trkpt><trkpt lat="44.01438659250794" lon="8.07180827854096"><ele>432.0</ele><time>2026-03-26T18:09:31.999Z</time></trkpt><trkpt lat="44.01440865111935" lon="8.071892950155407"><ele>432.0</ele><time>2026-03-26T18:09:32.999Z</time></trkpt><trkpt lat="44.01441621527648" lon="8.072067512588456"><ele>431.8333333333333</ele><time>2026-03-26T18:09:34.999Z</time></trkpt><trkpt lat="44.01437481126924" lon="8.072143170346564"><ele>431.66666666666663</ele><time>2026-03-26T18:09:35.999Z</time></trkpt><trkpt lat="44.01435854330389" lon="8.072238109821951"><ele>431.5</ele><time>2026-03-26T18:09:36.999Z</time></trkpt><trkpt lat="44.01432372449508" lon="8.072318367606437"><ele>431.3333333333333</ele><time>2026-03-26T18:09:37.999Z</time></trkpt><trkpt lat="44.01430239281651" lon="8.072408770713004"><ele>431.16666666666663</ele><time>2026-03-26T18:09:38.999Z</time></trkpt><trkpt lat="44.01431749414305" lon="8.072574406632658"><ele>431.0</ele><time>2026-03-26T18:09:40.999Z</time></trkpt><trkpt lat="44.01435968670277" lon="8.072639975722046"><ele>431.3333333333333</ele><time>2026-03-26T18:09:41.999Z</time></trkpt><trkpt lat="44.014421199368236" lon="8.072679761166727"><ele>431.66666666666663</ele><time>2026-03-26T18:09:42.999Z</time></trkpt><trkpt lat="44.01449655918865" lon="8.072695549394316"><ele>432.0</ele><time>2026-03-26T18:09:43.999Z</time></trkpt><trkpt lat="44.01457604577128" lon="8.072705941419457"><ele>432.33333333333337</ele><time>2026-03-26T18:09:44.999Z</time></trkpt><trkpt lat="44.01465578999235" lon="8.072714958379683"><ele>432.6666666666667</ele><time>2026-03-26T18:09:45.999Z</time></trkpt><trkpt lat="44.014742351810455" lon="8.072728047383784"><ele>433.0</ele><time>2026-03-26T18:09:46.999Z</time></trkpt><trkpt lat="44.01482533055462" lon="8.07275376902818"><ele>433.00000000000006</ele><time>2026-03-26T18:09:47.999Z</time></trkpt><trkpt lat="44.014904203550074" lon="8.07279988412898"><ele>433.0</ele><time>2026-03-26T18:09:48.999Z</time></trkpt><trkpt lat="44.014977452056776" lon="8.072862028508089"><ele>433.0</ele><time>2026-03-26T18:09:49.999Z</time></trkpt><trkpt lat="44.01504685639286" lon="8.07292484218289"><ele>433.0</ele><time>2026-03-26T18:09:50.999Z</time></trkpt><trkpt lat="44.01512491986376" lon="8.072972282822573"><ele>433.00000000000006</ele><time>2026-03-26T18:09:51.999Z</time></trkpt><trkpt lat="44.0152081756463" lon="8.073001223777315"><ele>433.0</ele><time>2026-03-26T18:09:52.999Z</time></trkpt><trkpt lat="44.01529395662492" lon="8.073023215172077"><ele>437.59999999999997</ele><time>2026-03-26T18:09:53.999Z</time></trkpt><trkpt lat="44.01538166453536" lon="8.073050518800912"><ele>442.19999999999993</ele><time>2026-03-26T18:09:54.999Z</time></trkpt><trkpt lat="44.01546805905284" lon="8.07308694729783"><ele>446.8</ele><time>2026-03-26T18:09:55.999Z</time></trkpt><trkpt lat="44.01555427692389" lon="8.073128496037144"><ele>451.4</ele><time>2026-03-26T18:09:56.999Z</time></trkpt><trkpt lat="44.01563981434267" lon="8.073175541144446"><ele>456.0</ele><time>2026-03-26T18:09:57.999Z</time></trkpt><trkpt lat="44.01572547057884" lon="8.073220514703735"><ele>456.0</ele><time>2026-03-26T18:09:58.999Z</time></trkpt><trkpt lat="44.01581214572844" lon="8.073262860526233"><ele>456.0</ele><time>2026-03-26T18:09:59.999Z</time></trkpt><trkpt lat="44.01589107416405" lon="8.073306244135724"><ele>456.0</ele><time>2026-03-26T18:10:00.999Z</time></trkpt><trkpt lat="44.015961534642074" lon="8.073353509731025"><ele>456.0</ele><time>2026-03-26T18:10:01.999Z</time></trkpt><trkpt lat="44.01602257834693" lon="8.073421188917466"><ele>456.0</ele><time>2026-03-26T18:10:02.999Z</time></trkpt><trkpt lat="44.016075519110174" lon="8.07350527563502"><ele>456.0</ele><time>2026-03-26T18:10:03.999Z</time></trkpt><trkpt lat="44.016118598675185" lon="8.073603158919651"><ele>455.5</ele><time>2026-03-26T18:10:04.999Z</time></trkpt><trkpt lat="44.01615329340396" lon="8.073705771897739"><ele>455.0</ele><time>2026-03-26T18:10:05.999Z</time></trkpt><trkpt lat="44.01618886922537" lon="8.073812186513807"><ele>454.5</ele><time>2026-03-26T18:10:06.999Z</time></trkpt><trkpt lat="44.016224852984884" lon="8.073916106031552"><ele>454.0</ele><time>2026-03-26T18:10:07.999Z</time></trkpt><trkpt lat="44.01625902790295" lon="8.074027783370365"><ele>453.5</ele><time>2026-03-26T18:10:08.999Z</time></trkpt><trkpt lat="44.016297045709095" lon="8.074132777746787"><ele>453.0</ele><time>2026-03-26T18:10:09.999Z</time></trkpt><trkpt lat="44.016324712097436" lon="8.074243423441844"><ele>449.5</ele><time>2026-03-26T18:10:10.999Z</time></trkpt><trkpt lat="44.01634535955333" lon="8.074356761529346"><ele>446.0</ele><time>2026-03-26T18:10:11.999Z</time></trkpt><trkpt lat="44.0163607587943" lon="8.074469223235669"><ele>442.5</ele><time>2026-03-26T18:10:12.999Z</time></trkpt><trkpt lat="44.01636734838334" lon="8.074583540658141"><ele>439.0</ele><time>2026-03-26T18:10:13.999Z</time></trkpt><trkpt lat="44.016367257106566" lon="8.074696836900081"><ele>435.5</ele><time>2026-03-26T18:10:14.999Z</time></trkpt><trkpt lat="44.01636450416556" lon="8.074815857103257"><ele>432.0</ele><time>2026-03-26T18:10:15.999Z</time></trkpt><trkpt lat="44.01636986329748" lon="8.074932695217"><ele>430.8333333333333</ele><time>2026-03-26T18:10:16.999Z</time></trkpt><trkpt lat="44.0163662666307" lon="8.075054904440638"><ele>429.66666666666663</ele><time>2026-03-26T18:10:17.999Z</time></trkpt><trkpt lat="44.0163786178328" lon="8.075177317036186"><ele>428.5</ele><time>2026-03-26T18:10:18.999Z</time></trkpt><trkpt lat="44.016398866344275" lon="8.075293511522283"><ele>427.3333333333333</ele><time>2026-03-26T18:10:19.999Z</time></trkpt><trkpt lat="44.01641918698003" lon="8.075406658957206"><ele>426.16666666666663</ele><time>2026-03-26T18:10:20.999Z</time></trkpt><trkpt lat="44.016432967440466" lon="8.075520826472612"><ele>425.0</ele><time>2026-03-26T18:10:21.999Z</time></trkpt><trkpt lat="44.01644259697208" lon="8.075635372862811"><ele>424.99999999999994</ele><time>2026-03-26T18:10:22.999Z</time></trkpt><trkpt lat="44.0164443068377" lon="8.075747267266669"><ele>425.0</ele><time>2026-03-26T18:10:23.999Z</time></trkpt><trkpt lat="44.01643825967078" lon="8.075861902060062"><ele>425.0</ele><time>2026-03-26T18:10:24.999Z</time></trkpt><trkpt lat="44.0164387302982" lon="8.07597852669845"><ele>425.0</ele><time>2026-03-26T18:10:25.999Z</time></trkpt><trkpt lat="44.016396665269" lon="8.076084564495734"><ele>424.99999999999994</ele><time>2026-03-26T18:10:26.999Z</time></trkpt><trkpt lat="44.01636583126049" lon="8.076199814963138"><ele>425.0</ele><time>2026-03-26T18:10:27.999Z</time></trkpt><trkpt lat="44.01634626343218" lon="8.076320971637774"><ele>425.3333333333333</ele><time>2026-03-26T18:10:28.999Z</time></trkpt><trkpt lat="44.01633602266385" lon="8.076445661169423"><ele>425.66666666666663</ele><time>2026-03-26T18:10:29.999Z</time></trkpt><trkpt lat="44.01632853609442" lon="8.076571870659274"><ele>426.0</ele><time>2026-03-26T18:10:30.999Z</time></trkpt><trkpt lat="44.016322953574196" lon="8.076696245631155"><ele>426.33333333333337</ele><time>2026-03-26T18:10:31.999Z</time></trkpt><trkpt lat="44.0163181379283" lon="8.076816944372071"><ele>426.6666666666667</ele><time>2026-03-26T18:10:32.999Z</time></trkpt><trkpt lat="44.01625833696015" lon="8.076912589513402"><ele>427.0</ele><time>2026-03-26T18:10:33.999Z</time></trkpt><trkpt lat="44.016206580045214" lon="8.077011997052516"><ele>427.00000000000006</ele><time>2026-03-26T18:10:34.999Z</time></trkpt><trkpt lat="44.01616296388247" lon="8.077117552931673"><ele>427.0</ele><time>2026-03-26T18:10:35.999Z</time></trkpt><trkpt lat="44.01610535036185" lon="8.077209765598102"><ele>427.0</ele><time>2026-03-26T18:10:36.999Z</time></trkpt><trkpt lat="44.016051857560655" lon="8.077309153947859"><ele>427.0</ele><time>2026-03-26T18:10:37.999Z</time></trkpt><trkpt lat="44.01600367067559" lon="8.077408061673067"><ele>427.00000000000006</ele><time>2026-03-26T18:10:38.999Z</time></trkpt><trkpt lat="44.01595654500312" lon="8.077509695527839"><ele>427.0</ele><time>2026-03-26T18:10:39.999Z</time></trkpt><trkpt lat="44.01591461138259" lon="8.077602722251077"><ele>428.83333333333337</ele><time>2026-03-26T18:10:40.999Z</time></trkpt><trkpt lat="44.01588032311252" lon="8.077694334957318"><ele>430.6666666666667</ele><time>2026-03-26T18:10:41.999Z</time></trkpt><trkpt lat="44.01585186383343" lon="8.077784498939666"><ele>432.5</ele><time>2026-03-26T18:10:42.999Z</time></trkpt><trkpt lat="44.01584189044583" lon="8.077872498058221"><ele>434.33333333333337</ele><time>2026-03-26T18:10:43.999Z</time></trkpt><trkpt lat="44.01586768484548" lon="8.07804383571058"><ele>436.1666666666667</ele><time>2026-03-26T18:10:45.999Z</time></trkpt><trkpt lat="44.01591391720119" lon="8.078115240846579"><ele>438.0</ele><time>2026-03-26T18:10:46.999Z</time></trkpt><trkpt lat="44.01598551520053" lon="8.078156660059417"><ele>438.0</ele><time>2026-03-26T18:10:47.999Z</time></trkpt><trkpt lat="44.01605085177616" lon="8.078214739687352"><ele>438.0</ele><time>2026-03-26T18:10:48.999Z</time></trkpt><trkpt lat="44.01611465241674" lon="8.078267920166525"><ele>438.0</ele><time>2026-03-26T18:10:49.999Z</time></trkpt><trkpt lat="44.016180570791406" lon="8.07833323502791"><ele>438.0</ele><time>2026-03-26T18:10:50.999Z</time></trkpt><trkpt lat="44.01622483494108" lon="8.078425745572755"><ele>438.0</ele><time>2026-03-26T18:10:51.999Z</time></trkpt><trkpt lat="44.01626978328676" lon="8.078524425354578"><ele>438.0</ele><time>2026-03-26T18:10:52.999Z</time></trkpt><trkpt lat="44.01631230311782" lon="8.078631297256385"><ele>437.1666666666667</ele><time>2026-03-26T18:10:53.999Z</time></trkpt><trkpt lat="44.016345467322296" lon="8.07875086926613"><ele>436.33333333333337</ele><time>2026-03-26T18:10:54.999Z</time></trkpt><trkpt lat="44.01636888241144" lon="8.078864927605913"><ele>435.5</ele><time>2026-03-26T18:10:55.999Z</time></trkpt><trkpt lat="44.01638558328768" lon="8.078978279004609"><ele>434.6666666666667</ele><time>2026-03-26T18:10:56.999Z</time></trkpt><trkpt lat="44.01639917551444" lon="8.07909560285768"><ele>433.83333333333337</ele><time>2026-03-26T18:10:57.999Z</time></trkpt><trkpt lat="44.01641933471255" lon="8.079220050662801"><ele>433.0</ele><time>2026-03-26T18:10:58.999Z</time></trkpt><trkpt lat="44.01643673173147" lon="8.079340227211675"><ele>428.59999999999997</ele><time>2026-03-26T18:10:59.999Z</time></trkpt><trkpt lat="44.01645445744003" lon="8.07946164900082"><ele>424.19999999999993</ele><time>2026-03-26T18:11:00.999Z</time></trkpt><trkpt lat="44.01647320229602" lon="8.079581505271038"><ele>419.8</ele><time>2026-03-26T18:11:01.999Z</time></trkpt><trkpt lat="44.01649171748946" lon="8.079703736824328"><ele>415.4</ele><time>2026-03-26T18:11:02.999Z</time></trkpt><trkpt lat="44.016510745163586" lon="8.079832105561955"><ele>411.0</ele><time>2026-03-26T18:11:03.999Z</time></trkpt><trkpt lat="44.01653020533575" lon="8.079965978444596"><ele>409.8</ele><time>2026-03-26T18:11:04.999Z</time></trkpt><trkpt lat="44.01654652639381" lon="8.080102927355224"><ele>408.6</ele><time>2026-03-26T18:11:05.999Z</time></trkpt><trkpt lat="44.01656003548896" lon="8.080241303797553"><ele>407.4</ele><time>2026-03-26T18:11:06.999Z</time></trkpt><trkpt lat="44.016568773384044" lon="8.08037959182852"><ele>406.2</ele><time>2026-03-26T18:11:07.999Z</time></trkpt><trkpt lat="44.01657571507974" lon="8.080514124816716"><ele>405.0</ele><time>2026-03-26T18:11:08.999Z</time></trkpt><trkpt lat="44.01659051852937" lon="8.080642034115904"><ele>405.0</ele><time>2026-03-26T18:11:09.999Z</time></trkpt><trkpt lat="44.016614317661336" lon="8.08076410850569"><ele>405.0</ele><time>2026-03-26T18:11:10.999Z</time></trkpt><trkpt lat="44.01662865928362" lon="8.080890190197282"><ele>405.0</ele><time>2026-03-26T18:11:11.999Z</time></trkpt><trkpt lat="44.01666244040839" lon="8.08100510673436"><ele>405.0</ele><time>2026-03-26T18:11:12.999Z</time></trkpt><trkpt lat="44.01669910587173" lon="8.081114705839594"><ele>405.0</ele><time>2026-03-26T18:11:13.999Z</time></trkpt><trkpt lat="44.01673417908693" lon="8.081223434826683"><ele>405.0</ele><time>2026-03-26T18:11:14.999Z</time></trkpt><trkpt lat="44.016765451933836" lon="8.081331568504442"><ele>409.1666666666667</ele><time>2026-03-26T18:11:15.999Z</time></trkpt><trkpt lat="44.01679476745531" lon="8.081440361671724"><ele>413.33333333333337</ele><time>2026-03-26T18:11:16.999Z</time></trkpt><trkpt lat="44.01683585755555" lon="8.081540673776024"><ele>417.5</ele><time>2026-03-26T18:11:17.999Z</time></trkpt><trkpt lat="44.01685248652007" lon="8.081649172751346"><ele>421.6666666666667</ele><time>2026-03-26T18:11:18.999Z</time></trkpt><trkpt lat="44.01685603586209" lon="8.081757209199216"><ele>425.83333333333337</ele><time>2026-03-26T18:11:19.999Z</time></trkpt><trkpt lat="44.016844958901956" lon="8.081866609970772"><ele>430.0</ele><time>2026-03-26T18:11:20.999Z</time></trkpt><trkpt lat="44.01682324908093" lon="8.081973365002083"><ele>430.00000000000006</ele><time>2026-03-26T18:11:21.999Z</time></trkpt><trkpt lat="44.01678845644513" lon="8.082073646951654"><ele>430.0</ele><time>2026-03-26T18:11:22.999Z</time></trkpt><trkpt lat="44.01674194947645" lon="8.082162553927347"><ele>430.0</ele><time>2026-03-26T18:11:23.999Z</time></trkpt><trkpt lat="44.016676558458364" lon="8.082223219474765"><ele>430.0</ele><time>2026-03-26T18:11:24.999Z</time></trkpt><trkpt lat="44.01662312133723" lon="8.0823016007617"><ele>430.00000000000006</ele><time>2026-03-26T18:11:25.999Z</time></trkpt><trkpt lat="44.01655746656844" lon="8.082358642276796"><ele>430.0</ele><time>2026-03-26T18:11:26.999Z</time></trkpt><trkpt lat="44.01649010260666" lon="8.082411405960054"><ele>428.33333333333337</ele><time>2026-03-26T18:11:27.999Z</time></trkpt><trkpt lat="44.016421383633826" lon="8.082467282538031"><ele>426.6666666666667</ele><time>2026-03-26T18:11:28.999Z</time></trkpt><trkpt lat="44.016353300758176" lon="8.082520746964242"><ele>425.0</ele><time>2026-03-26T18:11:29.999Z</time></trkpt><trkpt lat="44.01628159489115" lon="8.082572849221613"><ele>423.33333333333337</ele><time>2026-03-26T18:11:30.999Z</time></trkpt><trkpt lat="44.016214822463155" lon="8.082629132264698"><ele>421.6666666666667</ele><time>2026-03-26T18:11:31.999Z</time></trkpt><trkpt lat="44.01615800776015" lon="8.082700557085976"><ele>420.0</ele><time>2026-03-26T18:11:32.999Z</time></trkpt><trkpt lat="44.016118280942266" lon="8.082788709536782"><ele>420.0</ele><time>2026-03-26T18:11:33.999Z</time></trkpt><trkpt lat="44.01609382764404" lon="8.082890294003358"><ele>420.0</ele><time>2026-03-26T18:11:34.999Z</time></trkpt><trkpt lat="44.01609231367342" lon="8.083000622539231"><ele>420.0</ele><time>2026-03-26T18:11:35.999Z</time></trkpt><trkpt lat="44.01610673569061" lon="8.083107647946898"><ele>420.0</ele><time>2026-03-26T18:11:36.999Z</time></trkpt><trkpt lat="44.01612744891231" lon="8.083217298149743"><ele>420.0</ele><time>2026-03-26T18:11:37.999Z</time></trkpt><trkpt lat="44.01613906832259" lon="8.0833336485874"><ele>420.0</ele><time>2026-03-26T18:11:38.998Z</time></trkpt><trkpt lat="44.01614169140708" lon="8.083452346928944"><ele>421.8333333333333</ele><time>2026-03-26T18:11:39.998Z</time></trkpt><trkpt lat="44.01613865735808" lon="8.0835712906807"><ele>423.66666666666663</ele><time>2026-03-26T18:11:40.998Z</time></trkpt><trkpt lat="44.01613339726356" lon="8.083691135557517"><ele>425.5</ele><time>2026-03-26T18:11:41.998Z</time></trkpt><trkpt lat="44.016124904665624" lon="8.083811887753729"><ele>427.3333333333333</ele><time>2026-03-26T18:11:42.998Z</time></trkpt><trkpt lat="44.016111138607734" lon="8.083930600226129"><ele>429.16666666666663</ele><time>2026-03-26T18:11:43.998Z</time></trkpt><trkpt lat="44.01609389145914" lon="8.084050538737873"><ele>431.0</ele><time>2026-03-26T18:11:44.998Z</time></trkpt><trkpt lat="44.01608541982382" lon="8.084172282454555"><ele>431.3333333333333</ele><time>2026-03-26T18:11:45.998Z</time></trkpt><trkpt lat="44.01608611321339" lon="8.084295905284808"><ele>431.66666666666663</ele><time>2026-03-26T18:11:46.998Z</time></trkpt><trkpt lat="44.016091592887214" lon="8.084410301454415"><ele>432.0</ele><time>2026-03-26T18:11:47.999Z</time></trkpt><trkpt lat="44.01609577862235" lon="8.084517620412267"><ele>432.33333333333337</ele><time>2026-03-26T18:11:48.999Z</time></trkpt><trkpt lat="44.01608446684933" lon="8.08462184413235"><ele>432.6666666666667</ele><time>2026-03-26T18:11:49.999Z</time></trkpt><trkpt lat="44.016054335991576" lon="8.084720264115878"><ele>433.0</ele><time>2026-03-26T18:11:50.999Z</time></trkpt><trkpt lat="44.01600805322256" lon="8.084809009737777"><ele>433.00000000000006</ele><time>2026-03-26T18:11:51.999Z</time></trkpt><trkpt lat="44.01594770136811" lon="8.084884277184658"><ele>433.0</ele><time>2026-03-26T18:11:52.999Z</time></trkpt><trkpt lat="44.01587383709393" lon="8.084942387657678"><ele>433.0</ele><time>2026-03-26T18:11:53.999Z</time></trkpt><trkpt lat="44.01581857138856" lon="8.085028542535182"><ele>433.0</ele><time>2026-03-26T18:11:54.999Z</time></trkpt><trkpt lat="44.015748783722636" lon="8.085097056099867"><ele>433.00000000000006</ele><time>2026-03-26T18:11:55.999Z</time></trkpt><trkpt lat="44.015669847085164" lon="8.085151764117171"><ele>433.0</ele><time>2026-03-26T18:11:56.999Z</time></trkpt><trkpt lat="44.01559291074108" lon="8.085204511622319"><ele>431.99999999999994</ele><time>2026-03-26T18:11:57.999Z</time></trkpt><trkpt lat="44.015512000971746" lon="8.085253795445885"><ele>431.0</ele><time>2026-03-26T18:11:58.999Z</time></trkpt><trkpt lat="44.01544279846567" lon="8.085310557434202"><ele>430.0</ele><time>2026-03-26T18:11:59.999Z</time></trkpt><trkpt lat="44.01538524320297" lon="8.085363976685485"><ele>429.0</ele><time>2026-03-26T18:12:00.999Z</time></trkpt><trkpt lat="44.01533522222001" lon="8.085425600449252"><ele>428.0</ele><time>2026-03-26T18:12:02.999Z</time></trkpt><trkpt lat="44.015283959819925" lon="8.085482963966903"><ele>426.99999999999994</ele><time>2026-03-26T18:12:06.999Z</time></trkpt><trkpt lat="44.01521945774063" lon="8.085540027463137"><ele>426.0</ele><time>2026-03-26T18:12:08.999Z</time></trkpt><trkpt lat="44.015121380965795" lon="8.085573231196609"><ele>426.0</ele><time>2026-03-26T18:12:10.999Z</time></trkpt><trkpt lat="44.015010141989066" lon="8.085575759493246"><ele>426.0</ele><time>2026-03-26T18:12:12.999Z</time></trkpt><trkpt lat="44.014925379450446" lon="8.085588817414495"><ele>426.0</ele><time>2026-03-26T18:12:14.999Z</time></trkpt><trkpt lat="44.014862798685236" lon="8.085646694387641"><ele>426.0</ele><time>2026-03-26T18:12:16.999Z</time></trkpt><trkpt lat="44.01489168317651" lon="8.085795968600385"><ele>426.0</ele><time>2026-03-26T18:12:18.999Z</time></trkpt><trkpt lat="44.01497175155856" lon="8.085925233681099"><ele>427.99999999999994</ele><time>2026-03-26T18:12:20.999Z</time></trkpt><trkpt lat="44.01502759406104" lon="8.086000105929612"><ele>430.0</ele><time>2026-03-26T18:12:21.999Z</time></trkpt><trkpt lat="44.01507934966725" lon="8.086070838080978"><ele>432.0</ele><time>2026-03-26T18:12:22.999Z</time></trkpt><trkpt lat="44.01513425191849" lon="8.086126451155707"><ele>434.0</ele><time>2026-03-26T18:12:23.999Z</time></trkpt><trkpt lat="44.01520169616693" lon="8.08616318282863"><ele>436.0</ele><time>2026-03-26T18:12:24.999Z</time></trkpt><trkpt lat="44.01527865194039" lon="8.086190252133939"><ele>437.99999999999994</ele><time>2026-03-26T18:12:25.999Z</time></trkpt><trkpt lat="44.01534274352193" lon="8.086238442001806"><ele>440.0</ele><time>2026-03-26T18:12:26.999Z</time></trkpt><trkpt lat="44.015405348066984" lon="8.08627531744368"><ele>439.99999999999994</ele><time>2026-03-26T18:12:27.999Z</time></trkpt><trkpt lat="44.015465584843064" lon="8.086315514094315"><ele>440.0</ele><time>2026-03-26T18:12:28.999Z</time></trkpt><trkpt lat="44.01553393889371" lon="8.086474572345326"><ele>440.0</ele><time>2026-03-26T18:12:30.999Z</time></trkpt><trkpt lat="44.01555735477763" lon="8.086564731873791"><ele>440.0</ele><time>2026-03-26T18:12:31.999Z</time></trkpt><trkpt lat="44.01558003915803" lon="8.086659911265963"><ele>439.99999999999994</ele><time>2026-03-26T18:12:32.999Z</time></trkpt><trkpt lat="44.01560146064259" lon="8.086759403631165"><ele>440.0</ele><time>2026-03-26T18:12:33.999Z</time></trkpt><trkpt lat="44.01563370860174" lon="8.086863381051927"><ele>436.8333333333333</ele><time>2026-03-26T18:12:34.999Z</time></trkpt><trkpt lat="44.01565217620741" lon="8.086969083876246"><ele>433.66666666666663</ele><time>2026-03-26T18:12:35.999Z</time></trkpt><trkpt lat="44.01567058420583" lon="8.087072266049347"><ele>430.5</ele><time>2026-03-26T18:12:36.999Z</time></trkpt><trkpt lat="44.01568869876342" lon="8.087189657216415"><ele>427.33333333333337</ele><time>2026-03-26T18:12:37.999Z</time></trkpt><trkpt lat="44.015703731448134" lon="8.08729990767198"><ele>424.1666666666667</ele><time>2026-03-26T18:12:38.999Z</time></trkpt><trkpt lat="44.01571669442224" lon="8.087417130603203"><ele>421.0</ele><time>2026-03-26T18:12:39.999Z</time></trkpt><trkpt lat="44.01572938280405" lon="8.087531835077687"><ele>417.83333333333337</ele><time>2026-03-26T18:12:40.999Z</time></trkpt><trkpt lat="44.015748377380994" lon="8.087644041186065"><ele>414.6666666666667</ele><time>2026-03-26T18:12:41.999Z</time></trkpt><trkpt lat="44.015777955963195" lon="8.087750825487003"><ele>411.5</ele><time>2026-03-26T18:12:42.999Z</time></trkpt><trkpt lat="44.01581189020869" lon="8.087858348142424"><ele>408.33333333333337</ele><time>2026-03-26T18:12:43.999Z</time></trkpt><trkpt lat="44.01584853293099" lon="8.087965847304416"><ele>405.1666666666667</ele><time>2026-03-26T18:12:44.999Z</time></trkpt><trkpt lat="44.015884638602934" lon="8.088075334069062"><ele>402.0</ele><time>2026-03-26T18:12:45.999Z</time></trkpt><trkpt lat="44.01591802554051" lon="8.088186788897412"><ele>406.8333333333333</ele><time>2026-03-26T18:12:46.999Z</time></trkpt><trkpt lat="44.01595659659708" lon="8.088294430719431"><ele>411.66666666666663</ele><time>2026-03-26T18:12:47.999Z</time></trkpt><trkpt lat="44.01599776836777" lon="8.088392424867"><ele>416.5</ele><time>2026-03-26T18:12:48.999Z</time></trkpt><trkpt lat="44.01604289962741" lon="8.08847603254176"><ele>421.3333333333333</ele><time>2026-03-26T18:12:49.999Z</time></trkpt><trkpt lat="44.01608752877509" lon="8.088559268167396"><ele>426.16666666666663</ele><time>2026-03-26T18:12:50.999Z</time></trkpt><trkpt lat="44.01612506686216" lon="8.088648799770906"><ele>431.0</ele><time>2026-03-26T18:12:51.999Z</time></trkpt><trkpt lat="44.016157266987264" lon="8.088748991150839"><ele>430.99999999999994</ele><time>2026-03-26T18:12:52.999Z</time></trkpt><trkpt lat="44.01617798126206" lon="8.088855376206803"><ele>431.0</ele><time>2026-03-26T18:12:53.999Z</time></trkpt><trkpt lat="44.01619193906918" lon="8.088967513861553"><ele>431.0</ele><time>2026-03-26T18:12:54.999Z</time></trkpt><trkpt lat="44.016192849742225" lon="8.089083646870643"><ele>431.0</ele><time>2026-03-26T18:12:55.999Z</time></trkpt><trkpt lat="44.01618430806296" lon="8.089205105953521"><ele>430.99999999999994</ele><time>2026-03-26T18:12:56.999Z</time></trkpt><trkpt lat="44.016178900953456" lon="8.089319648312722"><ele>431.0</ele><time>2026-03-26T18:12:57.999Z</time></trkpt><trkpt lat="44.01618327140741" lon="8.089441841017681"><ele>429.49999999999994</ele><time>2026-03-26T18:12:58.999Z</time></trkpt><trkpt lat="44.016193724672576" lon="8.089561141917592"><ele>428.0</ele><time>2026-03-26T18:12:59.999Z</time></trkpt><trkpt lat="44.01621182960976" lon="8.08967670662292"><ele>426.5</ele><time>2026-03-26T18:13:00.999Z</time></trkpt><trkpt lat="44.01623222630894" lon="8.089787906147253"><ele>425.0</ele><time>2026-03-26T18:13:01.999Z</time></trkpt><trkpt lat="44.01623560914204" lon="8.089895047183315"><ele>423.49999999999994</ele><time>2026-03-26T18:13:02.999Z</time></trkpt><trkpt lat="44.01626913548533" lon="8.08998800729977"><ele>422.0</ele><time>2026-03-26T18:13:03.999Z</time></trkpt><trkpt lat="44.016275130205024" lon="8.090096079671268"><ele>421.99999999999994</ele><time>2026-03-26T18:13:04.999Z</time></trkpt><trkpt lat="44.01626741757515" lon="8.090201355499323"><ele>422.0</ele><time>2026-03-26T18:13:05.999Z</time></trkpt><trkpt lat="44.016228130351635" lon="8.090299547488371"><ele>422.0</ele><time>2026-03-26T18:13:06.999Z</time></trkpt><trkpt lat="44.01619539125372" lon="8.090394413469065"><ele>422.0</ele><time>2026-03-26T18:13:07.999Z</time></trkpt><trkpt lat="44.016168338323865" lon="8.090505298032145"><ele>421.99999999999994</ele><time>2026-03-26T18:13:08.999Z</time></trkpt><trkpt lat="44.01612491663611" lon="8.090602979188038"><ele>422.0</ele><time>2026-03-26T18:13:09.999Z</time></trkpt><trkpt lat="44.016085626029025" lon="8.090701143820855"><ele>422.42857142857144</ele><time>2026-03-26T18:13:10.999Z</time></trkpt><trkpt lat="44.01604986348493" lon="8.090799172801908"><ele>422.8571428571429</ele><time>2026-03-26T18:13:11.999Z</time></trkpt><trkpt lat="44.01601851421668" lon="8.09089294062469"><ele>423.2857142857143</ele><time>2026-03-26T18:13:12.999Z</time></trkpt><trkpt lat="44.016001453901566" lon="8.090988101777194"><ele>423.7142857142857</ele><time>2026-03-26T18:13:13.999Z</time></trkpt><trkpt lat="44.016009086287866" lon="8.091084845104284"><ele>424.1428571428571</ele><time>2026-03-26T18:13:14.999Z</time></trkpt><trkpt lat="44.01604019572456" lon="8.09117954288638"><ele>424.57142857142856</ele><time>2026-03-26T18:13:15.999Z</time></trkpt><trkpt lat="44.01608966039035" lon="8.09126094390318"><ele>425.0</ele><time>2026-03-26T18:13:16.999Z</time></trkpt><trkpt lat="44.0161469837804" lon="8.09133191317533"><ele>424.99999999999994</ele><time>2026-03-26T18:13:17.999Z</time></trkpt><trkpt lat="44.016197286879795" lon="8.09141149232883"><ele>425.0</ele><time>2026-03-26T18:13:18.999Z</time></trkpt><trkpt lat="44.01623832637848" lon="8.091496505089433"><ele>425.0</ele><time>2026-03-26T18:13:20Z</time></trkpt><trkpt lat="44.01626962910674" lon="8.091586475726656"><ele>425.0</ele><time>2026-03-26T18:13:21Z</time></trkpt><trkpt lat="44.01629172413721" lon="8.09168686823873"><ele>424.99999999999994</ele><time>2026-03-26T18:13:22Z</time></trkpt><trkpt lat="44.01630040318193" lon="8.09179771356045"><ele>425.0</ele><time>2026-03-26T18:13:23Z</time></trkpt><trkpt lat="44.01629884601008" lon="8.091915154265731"><ele>424.66666666666663</ele><time>2026-03-26T18:13:24Z</time></trkpt><trkpt lat="44.01628082660365" lon="8.092034219677048"><ele>424.3333333333333</ele><time>2026-03-26T18:13:25Z</time></trkpt><trkpt lat="44.016258904612485" lon="8.092145594211868"><ele>424.0</ele><time>2026-03-26T18:13:26Z</time></trkpt><trkpt lat="44.01623542524685" lon="8.092263241664677"><ele>423.66666666666663</ele><time>2026-03-26T18:13:27Z</time></trkpt><trkpt lat="44.01620904510767" lon="8.092377409649343"><ele>423.3333333333333</ele><time>2026-03-26T18:13:28Z</time></trkpt><trkpt lat="44.01618181569122" lon="8.092484686238363"><ele>423.0</ele><time>2026-03-26T18:13:29Z</time></trkpt><trkpt lat="44.016149852717675" lon="8.092591438482417"><ele>423.6666666666667</ele><time>2026-03-26T18:13:30Z</time></trkpt><trkpt lat="44.01611261339633" lon="8.092695717412216"><ele>424.33333333333337</ele><time>2026-03-26T18:13:31Z</time></trkpt><trkpt lat="44.01607505518644" lon="8.092801627044562"><ele>425.0</ele><time>2026-03-26T18:13:32Z</time></trkpt><trkpt lat="44.01603266606097" lon="8.09291230353774"><ele>425.6666666666667</ele><time>2026-03-26T18:13:33Z</time></trkpt><trkpt lat="44.015986948377254" lon="8.093018441895037"><ele>426.33333333333337</ele><time>2026-03-26T18:13:34Z</time></trkpt><trkpt lat="44.01594182541482" lon="8.093118647886872"><ele>427.0</ele><time>2026-03-26T18:13:35Z</time></trkpt><trkpt lat="44.01589503463289" lon="8.093214856379335"><ele>428.00000000000006</ele><time>2026-03-26T18:13:36Z</time></trkpt><trkpt lat="44.01583870822044" lon="8.093307154568299"><ele>429.0</ele><time>2026-03-26T18:13:37Z</time></trkpt><trkpt lat="44.015768676093394" lon="8.093377470619254"><ele>430.0</ele><time>2026-03-26T18:13:38Z</time></trkpt><trkpt lat="44.015704039922575" lon="8.093457459634926"><ele>431.0</ele><time>2026-03-26T18:13:39Z</time></trkpt><trkpt lat="44.01563749590335" lon="8.093536004086092"><ele>432.00000000000006</ele><time>2026-03-26T18:13:40Z</time></trkpt><trkpt lat="44.015579386596485" lon="8.093635273762269"><ele>433.0</ele><time>2026-03-26T18:13:41Z</time></trkpt><trkpt lat="44.015509429996506" lon="8.093713744841208"><ele>433.1666666666667</ele><time>2026-03-26T18:13:42Z</time></trkpt><trkpt lat="44.01543916668712" lon="8.093786135687266"><ele>433.33333333333337</ele><time>2026-03-26T18:13:43Z</time></trkpt><trkpt lat="44.015362842614806" lon="8.09385494550207"><ele>433.5</ele><time>2026-03-26T18:13:44Z</time></trkpt><trkpt lat="44.015290843263976" lon="8.093926699425191"><ele>433.66666666666663</ele><time>2026-03-26T18:13:44.998Z</time></trkpt><trkpt lat="44.0152130931061" lon="8.093979555923955"><ele>433.8333333333333</ele><time>2026-03-26T18:13:45.998Z</time></trkpt><trkpt lat="44.015148652340564" lon="8.094058377274585"><ele>434.0</ele><time>2026-03-26T18:13:46.998Z</time></trkpt><trkpt lat="44.01510717672527" lon="8.094155578194943"><ele>433.99999999999994</ele><time>2026-03-26T18:13:47.998Z</time></trkpt><trkpt lat="44.01504731153705" lon="8.094230758567894"><ele>434.0</ele><time>2026-03-26T18:13:48.998Z</time></trkpt><trkpt lat="44.01498670868514" lon="8.094286866924687"><ele>434.0</ele><time>2026-03-26T18:13:49.998Z</time></trkpt><trkpt lat="44.014918823575606" lon="8.094331257859812"><ele>434.0</ele><time>2026-03-26T18:13:50.998Z</time></trkpt><trkpt lat="44.01485633567745" lon="8.094364869126286"><ele>433.99999999999994</ele><time>2026-03-26T18:13:51.998Z</time></trkpt><trkpt lat="44.01479815766423" lon="8.094402478221719"><ele>434.0</ele><time>2026-03-26T18:13:52.998Z</time></trkpt><trkpt lat="44.01474042109587" lon="8.094549435292379"><ele>431.16666666666663</ele><time>2026-03-26T18:13:54.999Z</time></trkpt><trkpt lat="44.01474083210323" lon="8.09464946911059"><ele>428.3333333333333</ele><time>2026-03-26T18:13:55.999Z</time></trkpt><trkpt lat="44.014745593032394" lon="8.094760725991124"><ele>425.5</ele><time>2026-03-26T18:13:56.999Z</time></trkpt><trkpt lat="44.01474493316055" lon="8.094875239602692"><ele>422.66666666666663</ele><time>2026-03-26T18:13:57.999Z</time></trkpt><trkpt lat="44.014729883133796" lon="8.094998369569463"><ele>419.8333333333333</ele><time>2026-03-26T18:13:58.999Z</time></trkpt><trkpt lat="44.01471342411844" lon="8.095124992302251"><ele>417.0</ele><time>2026-03-26T18:13:59.999Z</time></trkpt><trkpt lat="44.01470107187442" lon="8.09524216970975"><ele>417.0</ele><time>2026-03-26T18:14:00.999Z</time></trkpt><trkpt lat="44.01470084092059" lon="8.095355653874307"><ele>417.0</ele><time>2026-03-26T18:14:01.999Z</time></trkpt><trkpt lat="44.01472185364976" lon="8.095461318921457"><ele>417.0</ele><time>2026-03-26T18:14:02.999Z</time></trkpt><trkpt lat="44.01476812651721" lon="8.0955514307933"><ele>417.0</ele><time>2026-03-26T18:14:03.999Z</time></trkpt><trkpt lat="44.01483249301779" lon="8.095616150341534"><ele>417.0</ele><time>2026-03-26T18:14:04.999Z</time></trkpt><trkpt lat="44.01488818876877" lon="8.095663975989988"><ele>417.0</ele><time>2026-03-26T18:14:05.999Z</time></trkpt><trkpt lat="44.01496009608465" lon="8.095806698893698"><ele>420.8333333333333</ele><time>2026-03-26T18:14:07.999Z</time></trkpt><trkpt lat="44.01499961356786" lon="8.09588910375813"><ele>424.66666666666663</ele><time>2026-03-26T18:14:08.999Z</time></trkpt><trkpt lat="44.01501230117658" lon="8.095994197280277"><ele>428.5</ele><time>2026-03-26T18:14:09.999Z</time></trkpt><trkpt lat="44.015015992013645" lon="8.09610369623628"><ele>432.3333333333333</ele><time>2026-03-26T18:14:10.999Z</time></trkpt><trkpt lat="44.01501536278383" lon="8.096220687095526"><ele>436.16666666666663</ele><time>2026-03-26T18:14:11.999Z</time></trkpt><trkpt lat="44.01501335063892" lon="8.096345106842511"><ele>440.0</ele><time>2026-03-26T18:14:12.999Z</time></trkpt><trkpt lat="44.01500116032815" lon="8.096462298242002"><ele>435.66666666666663</ele><time>2026-03-26T18:14:13.999Z</time></trkpt><trkpt lat="44.01498017320603" lon="8.096576177916306"><ele>431.3333333333333</ele><time>2026-03-26T18:14:14.999Z</time></trkpt><trkpt lat="44.01497196910707" lon="8.096685746762212"><ele>427.0</ele><time>2026-03-26T18:14:15.999Z</time></trkpt><trkpt lat="44.01496889231798" lon="8.096788880224233"><ele>422.66666666666663</ele><time>2026-03-26T18:14:16.999Z</time></trkpt><trkpt lat="44.014860037384395" lon="8.096881019885256"><ele>418.3333333333333</ele><time>2026-03-26T18:14:17.999Z</time></trkpt><trkpt lat="44.014849978614" lon="8.096989121088884"><ele>414.0</ele><time>2026-03-26T18:14:18.999Z</time></trkpt><trkpt lat="44.01483741800523" lon="8.097109700836569"><ele>413.1666666666667</ele><time>2026-03-26T18:14:19.999Z</time></trkpt><trkpt lat="44.014826889209274" lon="8.097233652151482"><ele>412.33333333333337</ele><time>2026-03-26T18:14:20.999Z</time></trkpt><trkpt lat="44.01481981058196" lon="8.097358844222457"><ele>411.5</ele><time>2026-03-26T18:14:21.999Z</time></trkpt><trkpt lat="44.01481744848279" lon="8.097481403977481"><ele>410.6666666666667</ele><time>2026-03-26T18:14:22.999Z</time></trkpt><trkpt lat="44.01482114746814" lon="8.097603027700869"><ele>409.83333333333337</ele><time>2026-03-26T18:14:23.999Z</time></trkpt><trkpt lat="44.01483548669105" lon="8.097721136062038"><ele>409.0</ele><time>2026-03-26T18:14:24.999Z</time></trkpt><trkpt lat="44.014857427573176" lon="8.09783490872905"><ele>408.83333333333337</ele><time>2026-03-26T18:14:25.999Z</time></trkpt><trkpt lat="44.014883858270345" lon="8.09794875826127"><ele>408.6666666666667</ele><time>2026-03-26T18:14:26.999Z</time></trkpt><trkpt lat="44.014909551294906" lon="8.098055952985066"><ele>408.5</ele><time>2026-03-26T18:14:27.999Z</time></trkpt><trkpt lat="44.01492944562586" lon="8.09816366841287"><ele>408.33333333333337</ele><time>2026-03-26T18:14:28.999Z</time></trkpt><trkpt lat="44.01494331958134" lon="8.098265137403834"><ele>408.1666666666667</ele><time>2026-03-26T18:14:29.999Z</time></trkpt><trkpt lat="44.01494791724412" lon="8.098366391515885"><ele>408.0</ele><time>2026-03-26T18:14:30.999Z</time></trkpt><trkpt lat="44.014938667952954" lon="8.09847094301628"><ele>408.6666666666667</ele><time>2026-03-26T18:14:31.999Z</time></trkpt><trkpt lat="44.01491342780524" lon="8.098573763718175"><ele>409.33333333333337</ele><time>2026-03-26T18:14:32.999Z</time></trkpt><trkpt lat="44.014874416143385" lon="8.098669876190746"><ele>410.0</ele><time>2026-03-26T18:14:33.999Z</time></trkpt><trkpt lat="44.01482696035326" lon="8.098759394811465"><ele>410.6666666666667</ele><time>2026-03-26T18:14:34.999Z</time></trkpt><trkpt lat="44.01477718862615" lon="8.098841695423596"><ele>411.33333333333337</ele><time>2026-03-26T18:14:35.999Z</time></trkpt><trkpt lat="44.01472552099831" lon="8.098911397578028"><ele>412.0</ele><time>2026-03-26T18:14:36.999Z</time></trkpt><trkpt lat="44.01466678403101" lon="8.098972155248088"><ele>412.00000000000006</ele><time>2026-03-26T18:14:37.999Z</time></trkpt><trkpt lat="44.01460158337619" lon="8.099016874656035"><ele>412.0</ele><time>2026-03-26T18:14:38.999Z</time></trkpt><trkpt lat="44.0145345961547" lon="8.099060271785461"><ele>412.0</ele><time>2026-03-26T18:14:40Z</time></trkpt><trkpt lat="44.014474968809076" lon="8.099111131924177"><ele>412.0</ele><time>2026-03-26T18:14:41Z</time></trkpt><trkpt lat="44.01440276468057" lon="8.099254382341408"><ele>412.00000000000006</ele><time>2026-03-26T18:14:43Z</time></trkpt><trkpt lat="44.01440417267037" lon="8.099345073845917"><ele>412.0</ele><time>2026-03-26T18:14:44Z</time></trkpt><trkpt lat="44.014429992684335" lon="8.099436699290782"><ele>413.50000000000006</ele><time>2026-03-26T18:14:45Z</time></trkpt><trkpt lat="44.014478956689835" lon="8.099509875348064"><ele>415.0</ele><time>2026-03-26T18:14:46Z</time></trkpt><trkpt lat="44.01454040574238" lon="8.0995546384401"><ele>416.5</ele><time>2026-03-26T18:14:47Z</time></trkpt><trkpt lat="44.01461412634907" lon="8.099571265492989"><ele>418.0</ele><time>2026-03-26T18:14:48Z</time></trkpt><trkpt lat="44.01468793066679" lon="8.099589865841251"><ele>419.50000000000006</ele><time>2026-03-26T18:14:49Z</time></trkpt><trkpt lat="44.014765189237856" lon="8.099611209962557"><ele>421.0</ele><time>2026-03-26T18:14:50Z</time></trkpt><trkpt lat="44.01484166627667" lon="8.099651514237001"><ele>421.00000000000006</ele><time>2026-03-26T18:14:51Z</time></trkpt><trkpt lat="44.01491824656223" lon="8.099693595351763"><ele>421.0</ele><time>2026-03-26T18:14:52Z</time></trkpt><trkpt lat="44.01499792782675" lon="8.099741458335272"><ele>421.0</ele><time>2026-03-26T18:14:53Z</time></trkpt><trkpt lat="44.01507669158105" lon="8.099780507731516"><ele>421.0</ele><time>2026-03-26T18:14:54Z</time></trkpt><trkpt lat="44.01515491856892" lon="8.099820456946185"><ele>421.00000000000006</ele><time>2026-03-26T18:14:55Z</time></trkpt><trkpt lat="44.015224104180604" lon="8.099883204941435"><ele>421.0</ele><time>2026-03-26T18:14:56Z</time></trkpt><trkpt lat="44.015290500738395" lon="8.099953565648573"><ele>421.50000000000006</ele><time>2026-03-26T18:14:57Z</time></trkpt><trkpt lat="44.01535107808258" lon="8.100039998766661"><ele>422.0</ele><time>2026-03-26T18:14:58Z</time></trkpt><trkpt lat="44.01540371223593" lon="8.100133549197276"><ele>422.5</ele><time>2026-03-26T18:14:59Z</time></trkpt><trkpt lat="44.01544955724775" lon="8.100236033500133"><ele>423.0</ele><time>2026-03-26T18:15:00Z</time></trkpt><trkpt lat="44.01548554893383" lon="8.100350128119297"><ele>423.50000000000006</ele><time>2026-03-26T18:15:01Z</time></trkpt><trkpt lat="44.015513173463475" lon="8.100467987136815"><ele>424.0</ele><time>2026-03-26T18:15:02Z</time></trkpt><trkpt lat="44.015535575068036" lon="8.10058378844373"><ele>424.0</ele><time>2026-03-26T18:15:03Z</time></trkpt><trkpt lat="44.01555166126134" lon="8.10070079597507"><ele>424.0</ele><time>2026-03-26T18:15:04Z</time></trkpt><trkpt lat="44.015562736172264" lon="8.100823685643435"><ele>424.0</ele><time>2026-03-26T18:15:05Z</time></trkpt><trkpt lat="44.01556155843129" lon="8.100953221684257"><ele>424.0</ele><time>2026-03-26T18:15:06Z</time></trkpt><trkpt lat="44.01555554209369" lon="8.10108679773176"><ele>424.0</ele><time>2026-03-26T18:15:07Z</time></trkpt><trkpt lat="44.015548927078896" lon="8.101218435254019"><ele>421.1666666666667</ele><time>2026-03-26T18:15:08Z</time></trkpt><trkpt lat="44.01553947695496" lon="8.101341056046756"><ele>418.33333333333337</ele><time>2026-03-26T18:15:09Z</time></trkpt><trkpt lat="44.01552840495356" lon="8.101459414151202"><ele>415.5</ele><time>2026-03-26T18:15:10Z</time></trkpt><trkpt lat="44.01551148600126" lon="8.10157895790612"><ele>412.66666666666663</ele><time>2026-03-26T18:15:11Z</time></trkpt><trkpt lat="44.015484597822685" lon="8.101699375606202"><ele>409.8333333333333</ele><time>2026-03-26T18:15:12Z</time></trkpt><trkpt lat="44.01545084895104" lon="8.101820546478022"><ele>407.0</ele><time>2026-03-26T18:15:13Z</time></trkpt><trkpt lat="44.015407530370766" lon="8.101939905374875"><ele>406.99999999999994</ele><time>2026-03-26T18:15:14Z</time></trkpt><trkpt lat="44.015357316605986" lon="8.102048940104213"><ele>407.0</ele><time>2026-03-26T18:15:15Z</time></trkpt><trkpt lat="44.015297699591954" lon="8.102149038453106"><ele>407.0</ele><time>2026-03-26T18:15:16Z</time></trkpt><trkpt lat="44.0152360030107" lon="8.102238475083043"><ele>407.0</ele><time>2026-03-26T18:15:17Z</time></trkpt><trkpt lat="44.015176411243274" lon="8.10231764734605"><ele>406.99999999999994</ele><time>2026-03-26T18:15:18Z</time></trkpt><trkpt lat="44.0151290230884" lon="8.102386014293069"><ele>407.0</ele><time>2026-03-26T18:15:19Z</time></trkpt><trkpt lat="44.015073703709284" lon="8.102450321803772"><ele>408.8571428571429</ele><time>2026-03-26T18:15:20Z</time></trkpt><trkpt lat="44.01502097193451" lon="8.10252252516966"><ele>410.7142857142857</ele><time>2026-03-26T18:15:21Z</time></trkpt><trkpt lat="44.01497968662681" lon="8.10259405316608"><ele>412.57142857142856</ele><time>2026-03-26T18:15:22Z</time></trkpt><trkpt lat="44.014953341085665" lon="8.102683816220019"><ele>414.42857142857144</ele><time>2026-03-26T18:15:23Z</time></trkpt><trkpt lat="44.01494354164424" lon="8.102782601151077"><ele>416.2857142857143</ele><time>2026-03-26T18:15:24Z</time></trkpt><trkpt lat="44.01494614647259" lon="8.102880372469508"><ele>418.14285714285717</ele><time>2026-03-26T18:15:25Z</time></trkpt><trkpt lat="44.0149576271012" lon="8.102979783235153"><ele>420.0</ele><time>2026-03-26T18:15:26Z</time></trkpt><trkpt lat="44.014964579292176" lon="8.10307378504892"><ele>416.6666666666667</ele><time>2026-03-26T18:15:27Z</time></trkpt><trkpt lat="44.014962882212636" lon="8.103180471776083"><ele>413.33333333333337</ele><time>2026-03-26T18:15:28Z</time></trkpt><trkpt lat="44.01495883843698" lon="8.103284710793908"><ele>410.0</ele><time>2026-03-26T18:15:29Z</time></trkpt><trkpt lat="44.014953927861406" lon="8.103387172192814"><ele>406.6666666666667</ele><time>2026-03-26T18:15:30Z</time></trkpt><trkpt lat="44.01493896540032" lon="8.103496559004977"><ele>403.33333333333337</ele><time>2026-03-26T18:15:31Z</time></trkpt><trkpt lat="44.014904412907086" lon="8.103601887808841"><ele>400.0</ele><time>2026-03-26T18:15:32Z</time></trkpt><trkpt lat="44.01485454255727" lon="8.10368985180765"><ele>400.00000000000006</ele><time>2026-03-26T18:15:33Z</time></trkpt><trkpt lat="44.01480139213294" lon="8.103766338528088"><ele>400.0</ele><time>2026-03-26T18:15:34Z</time></trkpt><trkpt lat="44.014749132689154" lon="8.103839953489214"><ele>400.0</ele><time>2026-03-26T18:15:35Z</time></trkpt><trkpt lat="44.014714800196465" lon="8.103933029412273"><ele>400.0</ele><time>2026-03-26T18:15:36Z</time></trkpt><trkpt lat="44.01470338061794" lon="8.10403645600291"><ele>400.00000000000006</ele><time>2026-03-26T18:15:37Z</time></trkpt><trkpt lat="44.014702505071014" lon="8.104149537910487"><ele>400.0</ele><time>2026-03-26T18:15:38Z</time></trkpt><trkpt lat="44.01470164169729" lon="8.104248510426132"><ele>402.8</ele><time>2026-03-26T18:15:39Z</time></trkpt><trkpt lat="44.01465415742439" lon="8.104414066292245"><ele>405.6</ele><time>2026-03-26T18:15:41Z</time></trkpt><trkpt lat="44.014612076590176" lon="8.104509569092224"><ele>408.4</ele><time>2026-03-26T18:15:42Z</time></trkpt><trkpt lat="44.01454158366197" lon="8.104583713119982"><ele>411.2</ele><time>2026-03-26T18:15:43Z</time></trkpt><trkpt lat="44.01446585970478" lon="8.10465260442947"><ele>414.0</ele><time>2026-03-26T18:15:44Z</time></trkpt><trkpt lat="44.01439371867482" lon="8.104716949184912"><ele>414.0</ele><time>2026-03-26T18:15:45Z</time></trkpt><trkpt lat="44.01433480735474" lon="8.104780936170165"><ele>414.0</ele><time>2026-03-26T18:15:46Z</time></trkpt><trkpt lat="44.01428352529659" lon="8.104845563666439"><ele>414.0</ele><time>2026-03-26T18:15:47Z</time></trkpt><trkpt lat="44.014214541354136" lon="8.104968658045385"><ele>414.0</ele><time>2026-03-26T18:15:49Z</time></trkpt><trkpt lat="44.01422628056923" lon="8.105121166921542"><ele>414.0</ele><time>2026-03-26T18:15:50.999Z</time></trkpt><trkpt lat="44.014271745772255" lon="8.105181805159926"><ele>414.0</ele><time>2026-03-26T18:15:51.999Z</time></trkpt><trkpt lat="44.01433152712573" lon="8.105225687422625"><ele>416.5</ele><time>2026-03-26T18:15:52.999Z</time></trkpt><trkpt lat="44.014398035872695" lon="8.105269878978815"><ele>419.0</ele><time>2026-03-26T18:15:53.999Z</time></trkpt><trkpt lat="44.01446826552729" lon="8.105329210687698"><ele>421.5</ele><time>2026-03-26T18:15:54.999Z</time></trkpt><trkpt lat="44.0145439777396" lon="8.105394196364008"><ele>424.0</ele><time>2026-03-26T18:15:55.999Z</time></trkpt><trkpt lat="44.01462088881621" lon="8.10546187135257"><ele>426.5</ele><time>2026-03-26T18:15:56.999Z</time></trkpt><trkpt lat="44.01469886646834" lon="8.105527711028074"><ele>429.0</ele><time>2026-03-26T18:15:57.999Z</time></trkpt><trkpt lat="44.014777286395976" lon="8.105592010121523"><ele>429.0</ele><time>2026-03-26T18:15:58.999Z</time></trkpt><trkpt lat="44.014858505337614" lon="8.105645648676678"><ele>429.0</ele><time>2026-03-26T18:15:59.999Z</time></trkpt><trkpt lat="44.014943081569925" lon="8.105678536239255"><ele>429.0</ele><time>2026-03-26T18:16:00.999Z</time></trkpt><trkpt lat="44.0150188649531" lon="8.105711871557041"><ele>429.0</ele><time>2026-03-26T18:16:01.999Z</time></trkpt><trkpt lat="44.015082945096964" lon="8.105771316578025"><ele>429.0</ele><time>2026-03-26T18:16:02.999Z</time></trkpt><trkpt lat="44.01513412111845" lon="8.105852791867528"><ele>429.0</ele><time>2026-03-26T18:16:03.999Z</time></trkpt><trkpt lat="44.01517423443743" lon="8.105947681421677"><ele>428.0</ele><time>2026-03-26T18:16:04.999Z</time></trkpt><trkpt lat="44.01520623141204" lon="8.106047819220587"><ele>427.0</ele><time>2026-03-26T18:16:05.999Z</time></trkpt><trkpt lat="44.015235594650015" lon="8.10615244050499"><ele>426.0</ele><time>2026-03-26T18:16:06.999Z</time></trkpt><trkpt lat="44.01525973075807" lon="8.106266488458077"><ele>425.0</ele><time>2026-03-26T18:16:07.999Z</time></trkpt><trkpt lat="44.01528393233434" lon="8.106380289255634"><ele>424.0</ele><time>2026-03-26T18:16:08.999Z</time></trkpt><trkpt lat="44.01531096776255" lon="8.106490737396697"><ele>423.0</ele><time>2026-03-26T18:16:09.999Z</time></trkpt><trkpt lat="44.015333387078584" lon="8.10660500451739"><ele>423.0</ele><time>2026-03-26T18:16:10.999Z</time></trkpt><trkpt lat="44.015354918692324" lon="8.106716742151676"><ele>423.0</ele><time>2026-03-26T18:16:11.999Z</time></trkpt><trkpt lat="44.0153798881606" lon="8.106823386466269"><ele>423.0</ele><time>2026-03-26T18:16:12.999Z</time></trkpt><trkpt lat="44.015400871570606" lon="8.106924367532319"><ele>423.0</ele><time>2026-03-26T18:16:13.999Z</time></trkpt><trkpt lat="44.01541999523512" lon="8.107021521074845"><ele>423.0</ele><time>2026-03-26T18:16:14.999Z</time></trkpt><trkpt lat="44.015440948940885" lon="8.10712339618061"><ele>423.0</ele><time>2026-03-26T18:16:15.999Z</time></trkpt><trkpt lat="44.01546407029513" lon="8.10721769207301"><ele>423.0</ele><time>2026-03-26T18:16:16.999Z</time></trkpt><trkpt lat="44.01550050914875" lon="8.107306700229396"><ele>423.0</ele><time>2026-03-26T18:16:17.999Z</time></trkpt><trkpt lat="44.015543245590415" lon="8.107383214744317"><ele>423.0</ele><time>2026-03-26T18:16:18.999Z</time></trkpt><trkpt lat="44.01563190501905" lon="8.10750168073782"><ele>423.0</ele><time>2026-03-26T18:16:20.999Z</time></trkpt><trkpt lat="44.01569262246885" lon="8.107632921490378"><ele>423.0</ele><time>2026-03-26T18:16:22.999Z</time></trkpt><trkpt lat="44.015703399455425" lon="8.107811347880661"><ele>422.3333333333333</ele><time>2026-03-26T18:16:24.999Z</time></trkpt><trkpt lat="44.015693165306885" lon="8.107913874616756"><ele>421.66666666666663</ele><time>2026-03-26T18:16:25.999Z</time></trkpt><trkpt lat="44.01568151730184" lon="8.108010805004833"><ele>421.0</ele><time>2026-03-26T18:16:26.999Z</time></trkpt><trkpt lat="44.015670987819774" lon="8.10810523440721"><ele>420.3333333333333</ele><time>2026-03-26T18:16:27.999Z</time></trkpt><trkpt lat="44.015628711192555" lon="8.108272285510097"><ele>419.66666666666663</ele><time>2026-03-26T18:16:29.999Z</time></trkpt><trkpt lat="44.0155821975181" lon="8.108338277306542"><ele>419.0</ele><time>2026-03-26T18:16:30.999Z</time></trkpt><trkpt lat="44.015524039673224" lon="8.108389318576359"><ele>419.0</ele><time>2026-03-26T18:16:31.999Z</time></trkpt><trkpt lat="44.01545549157364" lon="8.108438577129801"><ele>419.0</ele><time>2026-03-26T18:16:33Z</time></trkpt><trkpt lat="44.01535249633643" lon="8.108529224734912"><ele>419.0</ele><time>2026-03-26T18:16:35Z</time></trkpt><trkpt lat="44.01529090494751" lon="8.10865893152224"><ele>419.0</ele><time>2026-03-26T18:16:37Z</time></trkpt><trkpt lat="44.015287612441" lon="8.108834903464896"><ele>419.0</ele><time>2026-03-26T18:16:39Z</time></trkpt><trkpt lat="44.01530992910378" lon="8.108926217223289"><ele>418.99999999999994</ele><time>2026-03-26T18:16:40Z</time></trkpt><trkpt lat="44.015339582518386" lon="8.109015369062243"><ele>419.0</ele><time>2026-03-26T18:16:41Z</time></trkpt><trkpt lat="44.01537609041465" lon="8.1090892445937"><ele>419.0</ele><time>2026-03-26T18:16:42Z</time></trkpt><trkpt lat="44.0154164490788" lon="8.109157493801831"><ele>419.0</ele><time>2026-03-26T18:16:43Z</time></trkpt><trkpt lat="44.015447999533095" lon="8.109234012818685"><ele>419.0</ele><time>2026-03-26T18:16:44Z</time></trkpt><trkpt lat="44.01546557301192" lon="8.109322064561123"><ele>418.99999999999994</ele><time>2026-03-26T18:16:45Z</time></trkpt><trkpt lat="44.01547408530286" lon="8.109410165281163"><ele>419.0</ele><time>2026-03-26T18:16:46Z</time></trkpt><trkpt lat="44.01546083894949" lon="8.109496314551032"><ele>419.8333333333333</ele><time>2026-03-26T18:16:47Z</time></trkpt><trkpt lat="44.01543037055129" lon="8.109584319825817"><ele>420.66666666666663</ele><time>2026-03-26T18:16:48Z</time></trkpt><trkpt lat="44.015393317052045" lon="8.109662531251114"><ele>421.5</ele><time>2026-03-26T18:16:49Z</time></trkpt><trkpt lat="44.01533531862998" lon="8.10973058576108"><ele>422.33333333333337</ele><time>2026-03-26T18:16:50Z</time></trkpt><trkpt lat="44.01527173101485" lon="8.109799898952133"><ele>423.1666666666667</ele><time>2026-03-26T18:16:51Z</time></trkpt><trkpt lat="44.015200792154644" lon="8.109872570429289"><ele>424.0</ele><time>2026-03-26T18:16:52Z</time></trkpt><trkpt lat="44.015133071103584" lon="8.10994850214345"><ele>422.33333333333337</ele><time>2026-03-26T18:16:53Z</time></trkpt><trkpt lat="44.01506591942598" lon="8.110024075559267"><ele>420.6666666666667</ele><time>2026-03-26T18:16:54Z</time></trkpt><trkpt lat="44.01499949001444" lon="8.11009500252778"><ele>419.0</ele><time>2026-03-26T18:16:55Z</time></trkpt><trkpt lat="44.01493202668166" lon="8.110152333371152"><ele>417.33333333333337</ele><time>2026-03-26T18:16:56Z</time></trkpt><trkpt lat="44.01486225097289" lon="8.110195588317527"><ele>415.6666666666667</ele><time>2026-03-26T18:16:57Z</time></trkpt><trkpt lat="44.01479336319957" lon="8.110228525923711"><ele>414.0</ele><time>2026-03-26T18:16:58Z</time></trkpt><trkpt lat="44.01472449157184" lon="8.110254168695533"><ele>414.0</ele><time>2026-03-26T18:16:59Z</time></trkpt><trkpt lat="44.01466329104923" lon="8.110288157445357"><ele>414.0</ele><time>2026-03-26T18:17:00Z</time></trkpt><trkpt lat="44.01455787812233" lon="8.110370580965412"><ele>414.0</ele><time>2026-03-26T18:17:02Z</time></trkpt><trkpt lat="44.0145103399648" lon="8.11050438510926"><ele>414.0</ele><time>2026-03-26T18:17:04Z</time></trkpt><trkpt lat="44.01453187962972" lon="8.11058972492919"><ele>414.0</ele><time>2026-03-26T18:17:05Z</time></trkpt><trkpt lat="44.014567970429894" lon="8.110673383025773"><ele>414.0</ele><time>2026-03-26T18:17:06Z</time></trkpt><trkpt lat="44.0146186085395" lon="8.110744676715269"><ele>414.1666666666667</ele><time>2026-03-26T18:17:07Z</time></trkpt><trkpt lat="44.01467689608655" lon="8.110812269663327"><ele>414.33333333333337</ele><time>2026-03-26T18:17:08Z</time></trkpt><trkpt lat="44.01474363832811" lon="8.110875571658449"><ele>414.5</ele><time>2026-03-26T18:17:09Z</time></trkpt><trkpt lat="44.01480642850221" lon="8.110941923399379"><ele>414.6666666666667</ele><time>2026-03-26T18:17:10Z</time></trkpt><trkpt lat="44.014866927282185" lon="8.111011240013587"><ele>414.83333333333337</ele><time>2026-03-26T18:17:11Z</time></trkpt><trkpt lat="44.01491552039807" lon="8.111088120946368"><ele>415.0</ele><time>2026-03-26T18:17:12Z</time></trkpt><trkpt lat="44.01495739637394" lon="8.111175312791348"><ele>413.50000000000006</ele><time>2026-03-26T18:17:13Z</time></trkpt><trkpt lat="44.01499247135046" lon="8.11126860698913"><ele>412.0</ele><time>2026-03-26T18:17:14Z</time></trkpt><trkpt lat="44.015019375545585" lon="8.111373165871722"><ele>410.5</ele><time>2026-03-26T18:17:15Z</time></trkpt><trkpt lat="44.01502453221106" lon="8.111480587310975"><ele>409.0</ele><time>2026-03-26T18:17:16Z</time></trkpt><trkpt lat="44.015023160594005" lon="8.111592552033729"><ele>407.50000000000006</ele><time>2026-03-26T18:17:17Z</time></trkpt><trkpt lat="44.01500488465566" lon="8.111695524731758"><ele>406.0</ele><time>2026-03-26T18:17:18Z</time></trkpt><trkpt lat="44.014973838666165" lon="8.111800341658622"><ele>406.00000000000006</ele><time>2026-03-26T18:17:19Z</time></trkpt><trkpt lat="44.01494355858529" lon="8.111904197887297"><ele>406.0</ele><time>2026-03-26T18:17:20Z</time></trkpt><trkpt lat="44.01490082174548" lon="8.111997789670633"><ele>406.0</ele><time>2026-03-26T18:17:21Z</time></trkpt><trkpt lat="44.014859792788926" lon="8.112081988528061"><ele>406.0</ele><time>2026-03-26T18:17:22Z</time></trkpt><trkpt lat="44.01480321334179" lon="8.112165811817071"><ele>406.00000000000006</ele><time>2026-03-26T18:17:23Z</time></trkpt><trkpt lat="44.014760083236396" lon="8.112254422276544"><ele>406.0</ele><time>2026-03-26T18:17:24Z</time></trkpt><trkpt lat="44.01471855238598" lon="8.112354825538826"><ele>406.50000000000006</ele><time>2026-03-26T18:17:25Z</time></trkpt><trkpt lat="44.01470540788454" lon="8.112447711505071"><ele>407.0</ele><time>2026-03-26T18:17:26Z</time></trkpt><trkpt lat="44.01471236585113" lon="8.112546894786743"><ele>407.5</ele><time>2026-03-26T18:17:27Z</time></trkpt><trkpt lat="44.01473910961194" lon="8.112644356084505"><ele>408.0</ele><time>2026-03-26T18:17:28Z</time></trkpt><trkpt lat="44.014778457436584" lon="8.112739872350407"><ele>408.50000000000006</ele><time>2026-03-26T18:17:29Z</time></trkpt><trkpt lat="44.01481207263636" lon="8.112841602480156"><ele>409.0</ele><time>2026-03-26T18:17:30Z</time></trkpt><trkpt lat="44.01483669255983" lon="8.112944365759398"><ele>409.00000000000006</ele><time>2026-03-26T18:17:31Z</time></trkpt><trkpt lat="44.01485280056184" lon="8.113051708545404"><ele>409.0</ele><time>2026-03-26T18:17:32Z</time></trkpt><trkpt lat="44.014862418149555" lon="8.11316323098878"><ele>409.0</ele><time>2026-03-26T18:17:33Z</time></trkpt><trkpt lat="44.01485905466639" lon="8.113277107921068"><ele>409.0</ele><time>2026-03-26T18:17:34Z</time></trkpt><trkpt lat="44.014845124401184" lon="8.11339276147348"><ele>409.00000000000006</ele><time>2026-03-26T18:17:35Z</time></trkpt><trkpt lat="44.014824423504" lon="8.113513613640352"><ele>409.0</ele><time>2026-03-26T18:17:36Z</time></trkpt><trkpt lat="44.01479649320124" lon="8.113638086587923"><ele>409.6</ele><time>2026-03-26T18:17:37Z</time></trkpt><trkpt lat="44.014765462957065" lon="8.113768170844134"><ele>410.2</ele><time>2026-03-26T18:17:38Z</time></trkpt><trkpt lat="44.014729074699815" lon="8.113897490201067"><ele>410.8</ele><time>2026-03-26T18:17:39Z</time></trkpt><trkpt lat="44.01469424467311" lon="8.114033283651489"><ele>411.40000000000003</ele><time>2026-03-26T18:17:40Z</time></trkpt><trkpt lat="44.0146515045541" lon="8.114172456204496"><ele>412.0</ele><time>2026-03-26T18:17:41Z</time></trkpt><trkpt lat="44.01461219690195" lon="8.11430282867149"><ele>412.0</ele><time>2026-03-26T18:17:42Z</time></trkpt><trkpt lat="44.014576151326075" lon="8.114428628903447"><ele>412.0</ele><time>2026-03-26T18:17:43Z</time></trkpt><trkpt lat="44.01453768076461" lon="8.114550762087147"><ele>412.0</ele><time>2026-03-26T18:17:44Z</time></trkpt><trkpt lat="44.01449507405853" lon="8.114669495462698"><ele>412.0</ele><time>2026-03-26T18:17:45Z</time></trkpt><trkpt lat="44.0144460449075" lon="8.11478353356059"><ele>412.0</ele><time>2026-03-26T18:17:46Z</time></trkpt><trkpt lat="44.01438937845408" lon="8.114897464457288"><ele>413.40000000000003</ele><time>2026-03-26T18:17:47Z</time></trkpt><trkpt lat="44.01433386872308" lon="8.115007540694208"><ele>414.8</ele><time>2026-03-26T18:17:48Z</time></trkpt><trkpt lat="44.01427584095339" lon="8.115115974704496"><ele>416.2</ele><time>2026-03-26T18:17:49Z</time></trkpt><trkpt lat="44.014216753525" lon="8.115224401163823"><ele>417.6</ele><time>2026-03-26T18:17:50Z</time></trkpt><trkpt lat="44.01415749385249" lon="8.115327781273304"><ele>419.0</ele><time>2026-03-26T18:17:51Z</time></trkpt><trkpt lat="44.01409538319277" lon="8.115429670886522"><ele>415.79999999999995</ele><time>2026-03-26T18:17:52Z</time></trkpt><trkpt lat="44.014035301769646" lon="8.115533945865364"><ele>412.59999999999997</ele><time>2026-03-26T18:17:53Z</time></trkpt><trkpt lat="44.013983035198414" lon="8.115644421752641"><ele>409.4</ele><time>2026-03-26T18:17:54Z</time></trkpt><trkpt lat="44.013931697159464" lon="8.115754616944555"><ele>406.2</ele><time>2026-03-26T18:17:55Z</time></trkpt><trkpt lat="44.013883953480764" lon="8.11586905951181"><ele>403.0</ele><time>2026-03-26T18:17:56Z</time></trkpt><trkpt lat="44.0138427934074" lon="8.115979787418764"><ele>403.00000000000006</ele><time>2026-03-26T18:17:56.999Z</time></trkpt><trkpt lat="44.01379834898763" lon="8.116084814186875"><ele>403.0</ele><time>2026-03-26T18:17:57.999Z</time></trkpt><trkpt lat="44.013754687705394" lon="8.116186080186568"><ele>403.0</ele><time>2026-03-26T18:17:58.999Z</time></trkpt><trkpt lat="44.0137161497213" lon="8.116286628737297"><ele>403.0</ele><time>2026-03-26T18:17:59.999Z</time></trkpt><trkpt lat="44.013682942536676" lon="8.116394385268556"><ele>403.00000000000006</ele><time>2026-03-26T18:18:00.999Z</time></trkpt><trkpt lat="44.01366852928943" lon="8.116504558082681"><ele>403.0</ele><time>2026-03-26T18:18:01.999Z</time></trkpt><trkpt lat="44.013662621845484" lon="8.116617832144794"><ele>404.1666666666667</ele><time>2026-03-26T18:18:02.999Z</time></trkpt><trkpt lat="44.013663778940675" lon="8.116740458095745"><ele>405.33333333333337</ele><time>2026-03-26T18:18:03.999Z</time></trkpt><trkpt lat="44.01366310447105" lon="8.11686061258169"><ele>406.5</ele><time>2026-03-26T18:18:04.999Z</time></trkpt><trkpt lat="44.01364893131001" lon="8.116985952365049"><ele>407.66666666666663</ele><time>2026-03-26T18:18:05.999Z</time></trkpt><trkpt lat="44.01362041069326" lon="8.117103615491132"><ele>408.8333333333333</ele><time>2026-03-26T18:18:06.999Z</time></trkpt><trkpt lat="44.013579932550215" lon="8.11721669345947"><ele>410.0</ele><time>2026-03-26T18:18:07.999Z</time></trkpt><trkpt lat="44.01352896946957" lon="8.117320764746884"><ele>411.16666666666663</ele><time>2026-03-26T18:18:08.999Z</time></trkpt><trkpt lat="44.013471030348306" lon="8.117422559577163"><ele>412.3333333333333</ele><time>2026-03-26T18:18:09.999Z</time></trkpt><trkpt lat="44.01341073225606" lon="8.117516765478365"><ele>413.5</ele><time>2026-03-26T18:18:10.999Z</time></trkpt><trkpt lat="44.01334683804953" lon="8.117593774105666"><ele>414.66666666666663</ele><time>2026-03-26T18:18:11.999Z</time></trkpt><trkpt lat="44.01328136265507" lon="8.117661002254588"><ele>415.8333333333333</ele><time>2026-03-26T18:18:12.999Z</time></trkpt><trkpt lat="44.013214953539084" lon="8.117724981307648"><ele>417.0</ele><time>2026-03-26T18:18:13.999Z</time></trkpt><trkpt lat="44.01315245702866" lon="8.117795484638567"><ele>416.5</ele><time>2026-03-26T18:18:14.999Z</time></trkpt><trkpt lat="44.01310626036679" lon="8.117879016549834"><ele>416.0</ele><time>2026-03-26T18:18:15.999Z</time></trkpt><trkpt lat="44.01307261881087" lon="8.117975858184254"><ele>415.5</ele><time>2026-03-26T18:18:16.999Z</time></trkpt><trkpt lat="44.01304744573695" lon="8.118086353143303"><ele>415.0</ele><time>2026-03-26T18:18:17.999Z</time></trkpt><trkpt lat="44.01302741657114" lon="8.118194968763854"><ele>414.5</ele><time>2026-03-26T18:18:18.999Z</time></trkpt><trkpt lat="44.01300443974212" lon="8.118311430435584"><ele>414.0</ele><time>2026-03-26T18:18:19.999Z</time></trkpt><trkpt lat="44.01297088715352" lon="8.118422290285617"><ele>414.0</ele><time>2026-03-26T18:18:20.999Z</time></trkpt><trkpt lat="44.012933390689376" lon="8.118537356057482"><ele>414.0</ele><time>2026-03-26T18:18:21.999Z</time></trkpt><trkpt lat="44.01288949747277" lon="8.118648915171418"><ele>414.0</ele><time>2026-03-26T18:18:22.999Z</time></trkpt><trkpt lat="44.0128473035881" lon="8.11875591372901"><ele>414.0</ele><time>2026-03-26T18:18:23.999Z</time></trkpt><trkpt lat="44.0128004442666" lon="8.11886156514865"><ele>414.0</ele><time>2026-03-26T18:18:24.999Z</time></trkpt><trkpt lat="44.012745667140045" lon="8.118961018529884"><ele>414.0</ele><time>2026-03-26T18:18:25.999Z</time></trkpt><trkpt lat="44.01268328811217" lon="8.119052343598028"><ele>413.2</ele><time>2026-03-26T18:18:26.999Z</time></trkpt><trkpt lat="44.01261605005046" lon="8.119135877096795"><ele>412.4</ele><time>2026-03-26T18:18:27.999Z</time></trkpt><trkpt lat="44.01254065252016" lon="8.119206733232406"><ele>411.6</ele><time>2026-03-26T18:18:28.999Z</time></trkpt><trkpt lat="44.012456291717044" lon="8.1192668896141"><ele>410.8</ele><time>2026-03-26T18:18:30Z</time></trkpt><trkpt lat="44.012368926096954" lon="8.119326256081779"><ele>410.0</ele><time>2026-03-26T18:18:31Z</time></trkpt><trkpt lat="44.012286703796114" lon="8.119390070762785"><ele>410.0</ele><time>2026-03-26T18:18:32Z</time></trkpt><trkpt lat="44.01220921362951" lon="8.119465509266888"><ele>410.0</ele><time>2026-03-26T18:18:33Z</time></trkpt><trkpt lat="44.01213679794442" lon="8.119546170188103"><ele>410.0</ele><time>2026-03-26T18:18:34Z</time></trkpt><trkpt lat="44.012067977884215" lon="8.119620324413976"><ele>410.0</ele><time>2026-03-26T18:18:35Z</time></trkpt><trkpt lat="44.01199622956051" lon="8.119689979189134"><ele>410.0</ele><time>2026-03-26T18:18:36Z</time></trkpt><trkpt lat="44.01191684644938" lon="8.1197427769392"><ele>410.0</ele><time>2026-03-26T18:18:37Z</time></trkpt><trkpt lat="44.01182919349167" lon="8.119786022204003"><ele>410.0</ele><time>2026-03-26T18:18:38Z</time></trkpt><trkpt lat="44.01174079182341" lon="8.119823366122581"><ele>410.0</ele><time>2026-03-26T18:18:39Z</time></trkpt><trkpt lat="44.01164840082544" lon="8.119850633003438"><ele>410.0</ele><time>2026-03-26T18:18:40Z</time></trkpt><trkpt lat="44.01156054330807" lon="8.119872796442868"><ele>410.0</ele><time>2026-03-26T18:18:41Z</time></trkpt><trkpt lat="44.01148011745916" lon="8.119898039756947"><ele>409.8333333333333</ele><time>2026-03-26T18:18:42Z</time></trkpt><trkpt lat="44.011403239792635" lon="8.119928240395877"><ele>409.66666666666663</ele><time>2026-03-26T18:18:43Z</time></trkpt><trkpt lat="44.011334224195885" lon="8.11995707031675"><ele>409.5</ele><time>2026-03-26T18:18:44Z</time></trkpt><trkpt lat="44.01127157105299" lon="8.119990187988924"><ele>409.33333333333337</ele><time>2026-03-26T18:18:45Z</time></trkpt><trkpt lat="44.01118409494582" lon="8.120082757914169"><ele>409.1666666666667</ele><time>2026-03-26T18:18:47Z</time></trkpt><trkpt lat="44.01115263872417" lon="8.120218524789228"><ele>409.0</ele><time>2026-03-26T18:18:49Z</time></trkpt><trkpt lat="44.011199307541446" lon="8.120332226498656"><ele>409.00000000000006</ele><time>2026-03-26T18:18:51Z</time></trkpt><trkpt lat="44.01130048546206" lon="8.12039793902527"><ele>409.0</ele><time>2026-03-26T18:18:53Z</time></trkpt><trkpt lat="44.011361149900196" lon="8.120429508698738"><ele>409.0</ele><time>2026-03-26T18:18:54Z</time></trkpt><trkpt lat="44.01142953388275" lon="8.12047728296789"><ele>409.0</ele><time>2026-03-26T18:18:55Z</time></trkpt><trkpt lat="44.01149845380703" lon="8.120528789154344"><ele>409.00000000000006</ele><time>2026-03-26T18:18:56Z</time></trkpt><trkpt lat="44.01157119852134" lon="8.120593466024955"><ele>409.0</ele><time>2026-03-26T18:18:57Z</time></trkpt><trkpt lat="44.01164410783617" lon="8.120665026024218"><ele>412.4</ele><time>2026-03-26T18:18:58Z</time></trkpt><trkpt lat="44.0117163098038" lon="8.12074228588113"><ele>415.79999999999995</ele><time>2026-03-26T18:18:59Z</time></trkpt><trkpt lat="44.01178514270756" lon="8.120831262884446"><ele>419.20000000000005</ele><time>2026-03-26T18:19:00Z</time></trkpt><trkpt lat="44.011852066658655" lon="8.120924523006677"><ele>422.6</ele><time>2026-03-26T18:19:01Z</time></trkpt><trkpt lat="44.01192536063449" lon="8.121013218609582"><ele>426.0</ele><time>2026-03-26T18:19:02Z</time></trkpt><trkpt lat="44.012006579818234" lon="8.121090303304697"><ele>426.0</ele><time>2026-03-26T18:19:03Z</time></trkpt><trkpt lat="44.012090831326056" lon="8.121165804291588"><ele>426.0</ele><time>2026-03-26T18:19:04Z</time></trkpt><trkpt lat="44.012172371694774" lon="8.121228030262637"><ele>426.0</ele><time>2026-03-26T18:19:05Z</time></trkpt><trkpt lat="44.01225143041574" lon="8.121292549750978"><ele>426.0</ele><time>2026-03-26T18:19:06Z</time></trkpt><trkpt lat="44.01232553545831" lon="8.121377075706643"><ele>426.0</ele><time>2026-03-26T18:19:07Z</time></trkpt><trkpt lat="44.012388581328636" lon="8.12146589759965"><ele>426.0</ele><time>2026-03-26T18:19:08Z</time></trkpt><trkpt lat="44.012443689467815" lon="8.121551552580414"><ele>426.0</ele><time>2026-03-26T18:19:09Z</time></trkpt><trkpt lat="44.01248895806214" lon="8.12164512180976"><ele>426.0</ele><time>2026-03-26T18:19:10Z</time></trkpt><trkpt lat="44.01252498759396" lon="8.121756879378509"><ele>426.0</ele><time>2026-03-26T18:19:11Z</time></trkpt><trkpt lat="44.01255742458442" lon="8.121876291956676"><ele>426.0</ele><time>2026-03-26T18:19:12Z</time></trkpt><trkpt lat="44.01258326108485" lon="8.122010930180721"><ele>426.0</ele><time>2026-03-26T18:19:13Z</time></trkpt><trkpt lat="44.01261485740262" lon="8.12214235277585"><ele>425.0</ele><time>2026-03-26T18:19:14Z</time></trkpt><trkpt lat="44.01264722031538" lon="8.12227793374505"><ele>424.0</ele><time>2026-03-26T18:19:15Z</time></trkpt><trkpt lat="44.01267924669037" lon="8.122414504954719"><ele>423.0</ele><time>2026-03-26T18:19:16Z</time></trkpt><trkpt lat="44.01270398519395" lon="8.12255225975385"><ele>422.0</ele><time>2026-03-26T18:19:17Z</time></trkpt><trkpt lat="44.01271540919241" lon="8.122693846016231"><ele>421.0</ele><time>2026-03-26T18:19:18Z</time></trkpt><trkpt lat="44.012712361230335" lon="8.12283643601676"><ele>421.0</ele><time>2026-03-26T18:19:19Z</time></trkpt><trkpt lat="44.01269810359895" lon="8.122982444998721"><ele>421.0</ele><time>2026-03-26T18:19:20Z</time></trkpt><trkpt lat="44.01267874878599" lon="8.123128541469297"><ele>421.0</ele><time>2026-03-26T18:19:21Z</time></trkpt><trkpt lat="44.012658856408166" lon="8.12326622210752"><ele>421.0</ele><time>2026-03-26T18:19:22Z</time></trkpt><trkpt lat="44.01263403549697" lon="8.123401013609508"><ele>421.0</ele><time>2026-03-26T18:19:23Z</time></trkpt><trkpt lat="44.01260551684429" lon="8.123525500276106"><ele>421.00000000000006</ele><time>2026-03-26T18:19:24Z</time></trkpt><trkpt lat="44.01257250265697" lon="8.123647491075884"><ele>421.0</ele><time>2026-03-26T18:19:25Z</time></trkpt><trkpt lat="44.012538764952545" lon="8.123760677888393"><ele>421.0</ele><time>2026-03-26T18:19:26Z</time></trkpt><trkpt lat="44.01250267381546" lon="8.123868501011732"><ele>421.0</ele><time>2026-03-26T18:19:27Z</time></trkpt><trkpt lat="44.01246338307293" lon="8.123968406348027"><ele>421.00000000000006</ele><time>2026-03-26T18:19:28Z</time></trkpt><trkpt lat="44.01241161925563" lon="8.124056989853981"><ele>421.0</ele><time>2026-03-26T18:19:29Z</time></trkpt><trkpt lat="44.01234266579058" lon="8.124127900559198"><ele>419.14285714285717</ele><time>2026-03-26T18:19:30Z</time></trkpt><trkpt lat="44.0122743551541" lon="8.124184216912168"><ele>417.2857142857143</ele><time>2026-03-26T18:19:31Z</time></trkpt><trkpt lat="44.01221123936239" lon="8.124233973511815"><ele>415.42857142857144</ele><time>2026-03-26T18:19:32Z</time></trkpt><trkpt lat="44.01213482692274" lon="8.124279868586008"><ele>413.57142857142856</ele><time>2026-03-26T18:19:33Z</time></trkpt><trkpt lat="44.01208234779036" lon="8.124346915005903"><ele>411.7142857142857</ele><time>2026-03-26T18:19:34Z</time></trkpt><trkpt lat="44.012048681472905" lon="8.124422419639563"><ele>409.8571428571429</ele><time>2026-03-26T18:19:35Z</time></trkpt><trkpt lat="44.012037434886956" lon="8.124512698122345"><ele>408.0</ele><time>2026-03-26T18:19:36Z</time></trkpt><trkpt lat="44.01204436028418" lon="8.124602851483662"><ele>408.0</ele><time>2026-03-26T18:19:37Z</time></trkpt><trkpt lat="44.01205277681604" lon="8.124791890569968"><ele>408.0</ele><time>2026-03-26T18:19:39Z</time></trkpt><trkpt lat="44.01204567865936" lon="8.124900214677952"><ele>408.0</ele><time>2026-03-26T18:19:40Z</time></trkpt><trkpt lat="44.01202512203469" lon="8.125009497507516"><ele>408.0</ele><time>2026-03-26T18:19:41Z</time></trkpt><trkpt lat="44.01199361242664" lon="8.125118005027543"><ele>408.0</ele><time>2026-03-26T18:19:42Z</time></trkpt><trkpt lat="44.01195098766874" lon="8.125229480772543"><ele>409.79999999999995</ele><time>2026-03-26T18:19:43Z</time></trkpt><trkpt lat="44.01190545724882" lon="8.125339005232643"><ele>411.6</ele><time>2026-03-26T18:19:44.001Z</time></trkpt><trkpt lat="44.01185720046943" lon="8.125452921238821"><ele>413.4</ele><time>2026-03-26T18:19:45.001Z</time></trkpt><trkpt lat="44.011807595877" lon="8.125564566999971"><ele>415.20000000000005</ele><time>2026-03-26T18:19:46.001Z</time></trkpt><trkpt lat="44.01175371840654" lon="8.125675148703426"><ele>417.0</ele><time>2026-03-26T18:19:47.001Z</time></trkpt><trkpt lat="44.01169860558673" lon="8.125781735524788"><ele>414.3333333333333</ele><time>2026-03-26T18:19:48.001Z</time></trkpt><trkpt lat="44.011647319405284" lon="8.125884685703394"><ele>411.66666666666663</ele><time>2026-03-26T18:19:49.001Z</time></trkpt><trkpt lat="44.01160170232448" lon="8.125984998398934"><ele>409.0</ele><time>2026-03-26T18:19:50.001Z</time></trkpt><trkpt lat="44.011561002681425" lon="8.126083157780789"><ele>406.3333333333333</ele><time>2026-03-26T18:19:51.001Z</time></trkpt><trkpt lat="44.01152386191864" lon="8.12618367813933"><ele>403.66666666666663</ele><time>2026-03-26T18:19:52.001Z</time></trkpt><trkpt lat="44.01148730445169" lon="8.126285931519094"><ele>401.0</ele><time>2026-03-26T18:19:53.001Z</time></trkpt><trkpt lat="44.01145273099269" lon="8.126383824639941"><ele>400.99999999999994</ele><time>2026-03-26T18:19:54.001Z</time></trkpt><trkpt lat="44.011410998170476" lon="8.126481324456597"><ele>401.0</ele><time>2026-03-26T18:19:55.001Z</time></trkpt><trkpt lat="44.01136074232399" lon="8.126571461579465"><ele>401.0</ele><time>2026-03-26T18:19:56.001Z</time></trkpt><trkpt lat="44.011301829529856" lon="8.12665348689967"><ele>401.0</ele><time>2026-03-26T18:19:57.001Z</time></trkpt><trkpt lat="44.01123152922798" lon="8.126721390298412"><ele>400.99999999999994</ele><time>2026-03-26T18:19:58.001Z</time></trkpt><trkpt lat="44.011152786599446" lon="8.126784052193916"><ele>401.0</ele><time>2026-03-26T18:19:59.001Z</time></trkpt><trkpt lat="44.01106922710888" lon="8.126847938786815"><ele>402.0</ele><time>2026-03-26T18:20:00.001Z</time></trkpt><trkpt lat="44.01098587750583" lon="8.126915524570817"><ele>403.0</ele><time>2026-03-26T18:20:01.001Z</time></trkpt><trkpt lat="44.01089951182244" lon="8.126982189069683"><ele>404.0</ele><time>2026-03-26T18:20:02.001Z</time></trkpt><trkpt lat="44.01080627462533" lon="8.127050605547701"><ele>405.0</ele><time>2026-03-26T18:20:02.999Z</time></trkpt><trkpt lat="44.01072300495333" lon="8.127120803509591"><ele>406.0</ele><time>2026-03-26T18:20:03.999Z</time></trkpt><trkpt lat="44.01063448633315" lon="8.127177586592499"><ele>406.0</ele><time>2026-03-26T18:20:04.999Z</time></trkpt><trkpt lat="44.01054531572675" lon="8.127222707116397"><ele>406.0</ele><time>2026-03-26T18:20:05.999Z</time></trkpt><trkpt lat="44.01045820653268" lon="8.12725558374029"><ele>406.0</ele><time>2026-03-26T18:20:06.999Z</time></trkpt><trkpt lat="44.01036817236127" lon="8.127269559801851"><ele>406.0</ele><time>2026-03-26T18:20:07.999Z</time></trkpt><trkpt lat="44.010278085148656" lon="8.127275226105594"><ele>406.0</ele><time>2026-03-26T18:20:08.999Z</time></trkpt><trkpt lat="44.010185467487034" lon="8.127275360101413"><ele>406.00000000000006</ele><time>2026-03-26T18:20:09.999Z</time></trkpt><trkpt lat="44.01009789916347" lon="8.12727378621622"><ele>406.0</ele><time>2026-03-26T18:20:10.999Z</time></trkpt><trkpt lat="44.01001623280506" lon="8.12726971427115"><ele>406.0</ele><time>2026-03-26T18:20:11.999Z</time></trkpt><trkpt lat="44.009938453466766" lon="8.12726542645612"><ele>406.0</ele><time>2026-03-26T18:20:12.999Z</time></trkpt><trkpt lat="44.00987117574909" lon="8.127283259947317"><ele>406.00000000000006</ele><time>2026-03-26T18:20:13.999Z</time></trkpt><trkpt lat="44.00979237153346" lon="8.127388926393639"><ele>406.0</ele><time>2026-03-26T18:20:15.999Z</time></trkpt><trkpt lat="44.00979906941483" lon="8.127541971281113"><ele>404.6666666666667</ele><time>2026-03-26T18:20:17.999Z</time></trkpt><trkpt lat="44.00983215626126" lon="8.127628290134977"><ele>403.33333333333337</ele><time>2026-03-26T18:20:18.999Z</time></trkpt><trkpt lat="44.00986921669725" lon="8.127716499246116"><ele>402.0</ele><time>2026-03-26T18:20:19.999Z</time></trkpt><trkpt lat="44.00990551851317" lon="8.127815666414252"><ele>400.66666666666663</ele><time>2026-03-26T18:20:20.999Z</time></trkpt><trkpt lat="44.00993957467419" lon="8.127920858455058"><ele>399.3333333333333</ele><time>2026-03-26T18:20:21.999Z</time></trkpt><trkpt lat="44.00997269110144" lon="8.128034020607673"><ele>398.0</ele><time>2026-03-26T18:20:22.999Z</time></trkpt><trkpt lat="44.00999968295471" lon="8.128147601205145"><ele>401.8333333333333</ele><time>2026-03-26T18:20:23.999Z</time></trkpt><trkpt lat="44.01001461787298" lon="8.128263797973375"><ele>405.66666666666663</ele><time>2026-03-26T18:20:24.999Z</time></trkpt><trkpt lat="44.01001818507085" lon="8.128381980682464"><ele>409.5</ele><time>2026-03-26T18:20:25.999Z</time></trkpt><trkpt lat="44.01000936138039" lon="8.128502995449995"><ele>413.33333333333337</ele><time>2026-03-26T18:20:26.999Z</time></trkpt><trkpt lat="44.00999913180762" lon="8.128617694817665"><ele>417.1666666666667</ele><time>2026-03-26T18:20:28Z</time></trkpt><trkpt lat="44.010001805759956" lon="8.128728352033571"><ele>421.0</ele><time>2026-03-26T18:20:29Z</time></trkpt><trkpt lat="44.0100163665742" lon="8.128833887406113"><ele>421.00000000000006</ele><time>2026-03-26T18:20:30Z</time></trkpt><trkpt lat="44.0100314081022" lon="8.128940413654865"><ele>421.0</ele><time>2026-03-26T18:20:31Z</time></trkpt><trkpt lat="44.01004600497318" lon="8.129053378868937"><ele>421.0</ele><time>2026-03-26T18:20:32Z</time></trkpt><trkpt lat="44.01002697533911" lon="8.129174696130855"><ele>421.0</ele><time>2026-03-26T18:20:33Z</time></trkpt><trkpt lat="44.010000081732386" lon="8.129283830731465"><ele>421.00000000000006</ele><time>2026-03-26T18:20:34Z</time></trkpt><trkpt lat="44.00999065532623" lon="8.129379633249279"><ele>421.0</ele><time>2026-03-26T18:20:35Z</time></trkpt><trkpt lat="44.009993775984796" lon="8.129472208946003"><ele>420.6666666666667</ele><time>2026-03-26T18:20:36Z</time></trkpt><trkpt lat="44.01002824966597" lon="8.129564697093887"><ele>420.33333333333337</ele><time>2026-03-26T18:20:37Z</time></trkpt><trkpt lat="44.01006498556237" lon="8.129642532382832"><ele>420.0</ele><time>2026-03-26T18:20:38Z</time></trkpt><trkpt lat="44.01012272714453" lon="8.129681543898318"><ele>419.66666666666663</ele><time>2026-03-26T18:20:39Z</time></trkpt><trkpt lat="44.010188167345845" lon="8.129820705522839"><ele>419.3333333333333</ele><time>2026-03-26T18:20:41Z</time></trkpt><trkpt lat="44.010182543794514" lon="8.12993098088865"><ele>419.0</ele><time>2026-03-26T18:20:42Z</time></trkpt><trkpt lat="44.01016398242905" lon="8.130020643622576"><ele>418.99999999999994</ele><time>2026-03-26T18:20:43Z</time></trkpt><trkpt lat="44.010129619073666" lon="8.130102865262737"><ele>419.0</ele><time>2026-03-26T18:20:44Z</time></trkpt><trkpt lat="44.01010229258397" lon="8.130201690179547"><ele>419.0</ele><time>2026-03-26T18:20:45Z</time></trkpt><trkpt lat="44.01005973747014" lon="8.130275659663742"><ele>419.0</ele><time>2026-03-26T18:20:46Z</time></trkpt><trkpt lat="44.009952667282604" lon="8.130397549814607"><ele>418.99999999999994</ele><time>2026-03-26T18:20:48Z</time></trkpt><trkpt lat="44.009878959748775" lon="8.130444067386215"><ele>419.0</ele><time>2026-03-26T18:20:49Z</time></trkpt><trkpt lat="44.00979647319072" lon="8.130475502871096"><ele>415.3333333333333</ele><time>2026-03-26T18:20:50Z</time></trkpt><trkpt lat="44.00971477276211" lon="8.130480396391592"><ele>411.66666666666663</ele><time>2026-03-26T18:20:51Z</time></trkpt><trkpt lat="44.00963614520231" lon="8.13046982441424"><ele>408.0</ele><time>2026-03-26T18:20:52Z</time></trkpt><trkpt lat="44.00955701230375" lon="8.130468298881551"><ele>404.33333333333337</ele><time>2026-03-26T18:20:53Z</time></trkpt><trkpt lat="44.009471091646006" lon="8.130468583275299"><ele>400.6666666666667</ele><time>2026-03-26T18:20:54Z</time></trkpt><trkpt lat="44.0093815149674" lon="8.130479620156981"><ele>397.0</ele><time>2026-03-26T18:20:55Z</time></trkpt><trkpt lat="44.00929473202133" lon="8.130488051110301"><ele>397.00000000000006</ele><time>2026-03-26T18:20:56Z</time></trkpt><trkpt lat="44.00920952036585" lon="8.130496077958734"><ele>397.0</ele><time>2026-03-26T18:20:57Z</time></trkpt><trkpt lat="44.009127079493" lon="8.130496912371434"><ele>397.0</ele><time>2026-03-26T18:20:58Z</time></trkpt><trkpt lat="44.00905210265068" lon="8.130495812452386"><ele>397.0</ele><time>2026-03-26T18:20:59Z</time></trkpt><trkpt lat="44.008985926115585" lon="8.130495581871894"><ele>397.00000000000006</ele><time>2026-03-26T18:21:00Z</time></trkpt><trkpt lat="44.008893388406506" lon="8.130567739924905"><ele>397.0</ele><time>2026-03-26T18:21:02Z</time></trkpt><trkpt lat="44.008885803746175" lon="8.130701407422492"><ele>395.8</ele><time>2026-03-26T18:21:04Z</time></trkpt><trkpt lat="44.008961634565225" lon="8.130803834793703"><ele>394.6</ele><time>2026-03-26T18:21:06Z</time></trkpt><trkpt lat="44.00907803910901" lon="8.13086843189965"><ele>393.40000000000003</ele><time>2026-03-26T18:21:08Z</time></trkpt><trkpt lat="44.00914118216617" lon="8.130909407477082"><ele>392.20000000000005</ele><time>2026-03-26T18:21:09Z</time></trkpt><trkpt lat="44.009204504901135" lon="8.130948854040883"><ele>391.0</ele><time>2026-03-26T18:21:10Z</time></trkpt><trkpt lat="44.00928596437054" lon="8.130991217161132"><ele>393.50000000000006</ele><time>2026-03-26T18:21:11Z</time></trkpt><trkpt lat="44.009361883700166" lon="8.131037044590874"><ele>396.0</ele><time>2026-03-26T18:21:12Z</time></trkpt><trkpt lat="44.0094332424944" lon="8.13110426236416"><ele>398.5</ele><time>2026-03-26T18:21:13Z</time></trkpt><trkpt lat="44.00949625117103" lon="8.131186763841075"><ele>401.0</ele><time>2026-03-26T18:21:14Z</time></trkpt><trkpt lat="44.009545517048096" lon="8.131280275559627"><ele>403.50000000000006</ele><time>2026-03-26T18:21:15Z</time></trkpt><trkpt lat="44.00958262054034" lon="8.131378569089282"><ele>406.0</ele><time>2026-03-26T18:21:16Z</time></trkpt><trkpt lat="44.0096314632538" lon="8.13144996573627"><ele>406.00000000000006</ele><time>2026-03-26T18:21:17Z</time></trkpt><trkpt lat="44.009692561401906" lon="8.131491666617734"><ele>406.0</ele><time>2026-03-26T18:21:18Z</time></trkpt><trkpt lat="44.009765110785416" lon="8.131503616400684"><ele>406.0</ele><time>2026-03-26T18:21:19Z</time></trkpt><trkpt lat="44.00984164753215" lon="8.131487898621314"><ele>406.0</ele><time>2026-03-26T18:21:20Z</time></trkpt><trkpt lat="44.00992371204326" lon="8.131470762145005"><ele>406.00000000000006</ele><time>2026-03-26T18:21:21Z</time></trkpt><trkpt lat="44.01000965114165" lon="8.131458623422036"><ele>406.0</ele><time>2026-03-26T18:21:22Z</time></trkpt><trkpt lat="44.0100953408872" lon="8.13144926901017"><ele>404.6666666666667</ele><time>2026-03-26T18:21:23Z</time></trkpt><trkpt lat="44.010177026547666" lon="8.131436931231308"><ele>403.33333333333337</ele><time>2026-03-26T18:21:24Z</time></trkpt><trkpt lat="44.01025555250855" lon="8.131427588859275"><ele>402.0</ele><time>2026-03-26T18:21:25Z</time></trkpt><trkpt lat="44.01033721399191" lon="8.131432545083756"><ele>400.66666666666663</ele><time>2026-03-26T18:21:26Z</time></trkpt><trkpt lat="44.01040937051834" lon="8.131462113439612"><ele>399.3333333333333</ele><time>2026-03-26T18:21:27.001Z</time></trkpt><trkpt lat="44.01046736659494" lon="8.131517187508633"><ele>398.0</ele><time>2026-03-26T18:21:28.001Z</time></trkpt><trkpt lat="44.0105115568701" lon="8.131602392932242"><ele>398.0</ele><time>2026-03-26T18:21:29.001Z</time></trkpt><trkpt lat="44.01054345094165" lon="8.13171309083615"><ele>398.0</ele><time>2026-03-26T18:21:30.001Z</time></trkpt><trkpt lat="44.010549753466634" lon="8.13184691906952"><ele>398.0</ele><time>2026-03-26T18:21:31.001Z</time></trkpt><trkpt lat="44.01055602506911" lon="8.131976496772763"><ele>398.0</ele><time>2026-03-26T18:21:32.001Z</time></trkpt><trkpt lat="44.01055634290422" lon="8.13210861774089"><ele>398.0</ele><time>2026-03-26T18:21:33.001Z</time></trkpt><trkpt lat="44.01055848878171" lon="8.132243756504254"><ele>398.0</ele><time>2026-03-26T18:21:34.001Z</time></trkpt><trkpt lat="44.01056094759083" lon="8.132374718774482"><ele>398.0</ele><time>2026-03-26T18:21:35.001Z</time></trkpt><trkpt lat="44.01056439996861" lon="8.132507977625602"><ele>398.0</ele><time>2026-03-26T18:21:36.001Z</time></trkpt><trkpt lat="44.01057695676519" lon="8.132639536186696"><ele>398.0</ele><time>2026-03-26T18:21:37.001Z</time></trkpt><trkpt lat="44.01060972339915" lon="8.13276268268479"><ele>398.0</ele><time>2026-03-26T18:21:38.001Z</time></trkpt><trkpt lat="44.010652826668334" lon="8.132878708200641"><ele>396.2</ele><time>2026-03-26T18:21:39.001Z</time></trkpt><trkpt lat="44.01070205423575" lon="8.132990926755536"><ele>394.4</ele><time>2026-03-26T18:21:40.001Z</time></trkpt><trkpt lat="44.01075408014887" lon="8.133101206659115"><ele>392.59999999999997</ele><time>2026-03-26T18:21:41.001Z</time></trkpt><trkpt lat="44.01080753131797" lon="8.133213377518688"><ele>390.79999999999995</ele><time>2026-03-26T18:21:42.001Z</time></trkpt><trkpt lat="44.01086131771628" lon="8.133325227197268"><ele>389.0</ele><time>2026-03-26T18:21:43.001Z</time></trkpt><trkpt lat="44.01091653640231" lon="8.133437283006206"><ele>389.0</ele><time>2026-03-26T18:21:44.001Z</time></trkpt><trkpt lat="44.01096611751608" lon="8.133548152083735"><ele>389.0</ele><time>2026-03-26T18:21:45.001Z</time></trkpt><trkpt lat="44.01101949482512" lon="8.133657308002297"><ele>389.0</ele><time>2026-03-26T18:21:46.001Z</time></trkpt><trkpt lat="44.011067785306054" lon="8.133769191443363"><ele>389.0</ele><time>2026-03-26T18:21:47.001Z</time></trkpt><trkpt lat="44.01110299844824" lon="8.133886485120973"><ele>389.0</ele><time>2026-03-26T18:21:48.001Z</time></trkpt><trkpt lat="44.01111517933739" lon="8.134011919896318"><ele>388.2</ele><time>2026-03-26T18:21:49.001Z</time></trkpt><trkpt lat="44.0111215285787" lon="8.13413698327966"><ele>387.4</ele><time>2026-03-26T18:21:50.001Z</time></trkpt><trkpt lat="44.01112227245405" lon="8.134260623791171"><ele>386.6</ele><time>2026-03-26T18:21:51.001Z</time></trkpt><trkpt lat="44.01112366199855" lon="8.134385280496517"><ele>385.8</ele><time>2026-03-26T18:21:52.001Z</time></trkpt><trkpt lat="44.01113028535716" lon="8.134513767053585"><ele>385.0</ele><time>2026-03-26T18:21:53.001Z</time></trkpt><trkpt lat="44.01114208442648" lon="8.134645097768871"><ele>385.0</ele><time>2026-03-26T18:21:54.001Z</time></trkpt><trkpt lat="44.01115718236418" lon="8.134775102529293"><ele>385.0</ele><time>2026-03-26T18:21:55.001Z</time></trkpt><trkpt lat="44.011173425745795" lon="8.134909047497954"><ele>385.0</ele><time>2026-03-26T18:21:56.001Z</time></trkpt><trkpt lat="44.011190910192504" lon="8.135048015963399"><ele>385.0</ele><time>2026-03-26T18:21:57.001Z</time></trkpt><trkpt lat="44.01120917812691" lon="8.135183048001162"><ele>385.0</ele><time>2026-03-26T18:21:58.001Z</time></trkpt><trkpt lat="44.011227257377115" lon="8.13531808627894"><ele>382.8</ele><time>2026-03-26T18:21:59.001Z</time></trkpt><trkpt lat="44.01124456128936" lon="8.135457752407557"><ele>380.6</ele><time>2026-03-26T18:22:00.001Z</time></trkpt><trkpt lat="44.01125349621781" lon="8.135595797287673"><ele>378.4</ele><time>2026-03-26T18:22:01.001Z</time></trkpt><trkpt lat="44.011250546942534" lon="8.135728995723024"><ele>376.2</ele><time>2026-03-26T18:22:02.001Z</time></trkpt><trkpt lat="44.011226466563606" lon="8.13585566180643"><ele>374.0</ele><time>2026-03-26T18:22:03.001Z</time></trkpt><trkpt lat="44.01118654558378" lon="8.135973531654056"><ele>373.0</ele><time>2026-03-26T18:22:04.001Z</time></trkpt><trkpt lat="44.01113396843331" lon="8.136080563368147"><ele>372.0</ele><time>2026-03-26T18:22:05.001Z</time></trkpt><trkpt lat="44.0110812129205" lon="8.136180605561984"><ele>371.0</ele><time>2026-03-26T18:22:06.001Z</time></trkpt><trkpt lat="44.011033868600634" lon="8.136298861104166"><ele>370.0</ele><time>2026-03-26T18:22:07.001Z</time></trkpt><trkpt lat="44.01099604157857" lon="8.136409157660912"><ele>369.0</ele><time>2026-03-26T18:22:08.001Z</time></trkpt><trkpt lat="44.01094408524198" lon="8.136510570914957"><ele>371.5</ele><time>2026-03-26T18:22:08.999Z</time></trkpt><trkpt lat="44.010876985097504" lon="8.136588696738086"><ele>374.0</ele><time>2026-03-26T18:22:09.999Z</time></trkpt><trkpt lat="44.01079076973818" lon="8.136626930336917"><ele>376.5</ele><time>2026-03-26T18:22:10.999Z</time></trkpt><trkpt lat="44.01070897151029" lon="8.136672734378578"><ele>379.0</ele><time>2026-03-26T18:22:11.999Z</time></trkpt><trkpt lat="44.01063341234053" lon="8.13673362498684"><ele>381.5</ele><time>2026-03-26T18:22:12.999Z</time></trkpt><trkpt lat="44.010549517883305" lon="8.136760904777294"><ele>384.0</ele><time>2026-03-26T18:22:13.999Z</time></trkpt><trkpt lat="44.01046958163762" lon="8.136788259682312"><ele>379.2857142857143</ele><time>2026-03-26T18:22:14.999Z</time></trkpt><trkpt lat="44.010395614725695" lon="8.136823393358052"><ele>374.57142857142856</ele><time>2026-03-26T18:22:15.999Z</time></trkpt><trkpt lat="44.010334478134034" lon="8.136885876353654"><ele>369.8571428571429</ele><time>2026-03-26T18:22:16.999Z</time></trkpt><trkpt lat="44.01028951161441" lon="8.136969371719502"><ele>365.1428571428571</ele><time>2026-03-26T18:22:17.999Z</time></trkpt><trkpt lat="44.010273071286726" lon="8.137069392325506"><ele>360.42857142857144</ele><time>2026-03-26T18:22:18.999Z</time></trkpt><trkpt lat="44.010282661104526" lon="8.137169358002398"><ele>355.7142857142857</ele><time>2026-03-26T18:22:19.999Z</time></trkpt><trkpt lat="44.01030793312" lon="8.137261963956693"><ele>351.0</ele><time>2026-03-26T18:22:20.999Z</time></trkpt><trkpt lat="44.010340502541496" lon="8.137353861826583"><ele>353.0</ele><time>2026-03-26T18:22:21.999Z</time></trkpt><trkpt lat="44.010371824813184" lon="8.137448850820592"><ele>355.0</ele><time>2026-03-26T18:22:22.999Z</time></trkpt><trkpt lat="44.01038182841151" lon="8.13754862407739"><ele>357.0</ele><time>2026-03-26T18:22:23.999Z</time></trkpt><trkpt lat="44.01039809136118" lon="8.137635348714808"><ele>359.0</ele><time>2026-03-26T18:22:24.999Z</time></trkpt><trkpt lat="44.01041119384149" lon="8.137804220039762"><ele>361.0</ele><time>2026-03-26T18:22:26.999Z</time></trkpt><trkpt lat="44.01030689524029" lon="8.137912306102388"><ele>361.0</ele><time>2026-03-26T18:22:29Z</time></trkpt><trkpt lat="44.01024018737184" lon="8.13794153753194"><ele>361.0</ele><time>2026-03-26T18:22:30Z</time></trkpt><trkpt lat="44.01017076750687" lon="8.137976083646034"><ele>361.0</ele><time>2026-03-26T18:22:31Z</time></trkpt><trkpt lat="44.01009892407638" lon="8.13800889072055"><ele>361.0</ele><time>2026-03-26T18:22:32Z</time></trkpt><trkpt lat="44.01002190117531" lon="8.138043027337465"><ele>361.0</ele><time>2026-03-26T18:22:33Z</time></trkpt><trkpt lat="44.00994471684826" lon="8.138076236790747"><ele>361.0</ele><time>2026-03-26T18:22:34Z</time></trkpt><trkpt lat="44.00986780857568" lon="8.138091190573391"><ele>358.0</ele><time>2026-03-26T18:22:35Z</time></trkpt><trkpt lat="44.009807388570195" lon="8.138136682774748"><ele>355.0</ele><time>2026-03-26T18:22:36Z</time></trkpt><trkpt lat="44.00975347834352" lon="8.138187665500281"><ele>352.0</ele><time>2026-03-26T18:22:37Z</time></trkpt><trkpt lat="44.00975299356083" lon="8.138312140421158"><ele>349.0</ele><time>2026-03-26T18:22:38Z</time></trkpt><trkpt lat="44.00973384790712" lon="8.138427742914201"><ele>346.0</ele><time>2026-03-26T18:22:39Z</time></trkpt><trkpt lat="44.00974265604154" lon="8.13854717968182"><ele>343.0</ele><time>2026-03-26T18:22:40Z</time></trkpt><trkpt lat="44.00975503335172" lon="8.138670796581014"><ele>343.0</ele><time>2026-03-26T18:22:41Z</time></trkpt><trkpt lat="44.00977146253665" lon="8.138793848376114"><ele>343.0</ele><time>2026-03-26T18:22:42Z</time></trkpt><trkpt lat="44.00978489329532" lon="8.13891200398514"><ele>343.0</ele><time>2026-03-26T18:22:43Z</time></trkpt><trkpt lat="44.009781663238975" lon="8.139013684102133"><ele>343.0</ele><time>2026-03-26T18:22:44Z</time></trkpt><trkpt lat="44.00975756289586" lon="8.13910191818764"><ele>343.0</ele><time>2026-03-26T18:22:45Z</time></trkpt><trkpt lat="44.00971520020331" lon="8.139167167091815"><ele>343.0</ele><time>2026-03-26T18:22:46Z</time></trkpt><trkpt lat="44.00960912617568" lon="8.139226485047647"><ele>343.5</ele><time>2026-03-26T18:22:48Z</time></trkpt><trkpt lat="44.00948399399338" lon="8.139207393793269"><ele>344.0</ele><time>2026-03-26T18:22:50Z</time></trkpt><trkpt lat="44.00941587753018" lon="8.139216788406074"><ele>344.5</ele><time>2026-03-26T18:22:51Z</time></trkpt><trkpt lat="44.00934157278934" lon="8.139235829091403"><ele>345.0</ele><time>2026-03-26T18:22:52Z</time></trkpt><trkpt lat="44.00925196232963" lon="8.13926559232415"><ele>345.5</ele><time>2026-03-26T18:22:53Z</time></trkpt><trkpt lat="44.00917439704268" lon="8.139288660002611"><ele>346.0</ele><time>2026-03-26T18:22:54Z</time></trkpt><trkpt lat="44.00909719505788" lon="8.139276887540719"><ele>346.0</ele><time>2026-03-26T18:22:55Z</time></trkpt><trkpt lat="44.00900960411658" lon="8.13924960439534"><ele>346.0</ele><time>2026-03-26T18:22:56Z</time></trkpt><trkpt lat="44.008915268514734" lon="8.139239565398242"><ele>346.0</ele><time>2026-03-26T18:22:57Z</time></trkpt><trkpt lat="44.00882233415211" lon="8.139252428288598"><ele>346.0</ele><time>2026-03-26T18:22:58Z</time></trkpt><trkpt lat="44.008734802129936" lon="8.139267787787674"><ele>346.0</ele><time>2026-03-26T18:22:59Z</time></trkpt><trkpt lat="44.00864893764631" lon="8.139292442261837"><ele>346.0</ele><time>2026-03-26T18:23:00Z</time></trkpt><trkpt lat="44.008565637457586" lon="8.139342773908371"><ele>346.0</ele><time>2026-03-26T18:23:01Z</time></trkpt><trkpt lat="44.00849314134102" lon="8.139411417424537"><ele>346.0</ele><time>2026-03-26T18:23:02Z</time></trkpt><trkpt lat="44.008425965711616" lon="8.139472840674898"><ele>346.0</ele><time>2026-03-26T18:23:03Z</time></trkpt><trkpt lat="44.00835712745687" lon="8.13953379556078"><ele>346.0</ele><time>2026-03-26T18:23:04Z</time></trkpt><trkpt lat="44.00828814673058" lon="8.139595159166564"><ele>346.0</ele><time>2026-03-26T18:23:05Z</time></trkpt><trkpt lat="44.00820388588141" lon="8.139583932022413"><ele>345.0</ele><time>2026-03-26T18:23:06Z</time></trkpt><trkpt lat="44.00811414632964" lon="8.1395756810824"><ele>344.0</ele><time>2026-03-26T18:23:07Z</time></trkpt><trkpt lat="44.008024781267444" lon="8.139567626737533"><ele>343.0</ele><time>2026-03-26T18:23:08Z</time></trkpt><trkpt lat="44.007938308026226" lon="8.139556553246605"><ele>342.0</ele><time>2026-03-26T18:23:09Z</time></trkpt><trkpt lat="44.00785377858887" lon="8.139541562385103"><ele>341.0</ele><time>2026-03-26T18:23:10Z</time></trkpt><trkpt lat="44.00777055418319" lon="8.139524211029745"><ele>340.0</ele><time>2026-03-26T18:23:11Z</time></trkpt><trkpt lat="44.00768635925908" lon="8.139525656084928"><ele>340.0</ele><time>2026-03-26T18:23:12Z</time></trkpt><trkpt lat="44.0076089377395" lon="8.139503369838302"><ele>340.0</ele><time>2026-03-26T18:23:13Z</time></trkpt><trkpt lat="44.00753946279289" lon="8.139487607482273"><ele>340.0</ele><time>2026-03-26T18:23:14.001Z</time></trkpt><trkpt lat="44.007476156418015" lon="8.139496425076985"><ele>340.0</ele><time>2026-03-26T18:23:15.001Z</time></trkpt><trkpt lat="44.00738437621277" lon="8.13958933692218"><ele>340.0</ele><time>2026-03-26T18:23:17.001Z</time></trkpt><trkpt lat="44.00737131739191" lon="8.139747439288115"><ele>340.0</ele><time>2026-03-26T18:23:19.001Z</time></trkpt><trkpt lat="44.00744647185446" lon="8.139881359226077"><ele>341.16666666666663</ele><time>2026-03-26T18:23:21.001Z</time></trkpt><trkpt lat="44.007505968640444" lon="8.139934187056701"><ele>342.3333333333333</ele><time>2026-03-26T18:23:22.001Z</time></trkpt><trkpt lat="44.00756743589246" lon="8.13999742476601"><ele>343.5</ele><time>2026-03-26T18:23:23.001Z</time></trkpt><trkpt lat="44.00763323710655" lon="8.140070386998046"><ele>344.6666666666667</ele><time>2026-03-26T18:23:24.001Z</time></trkpt><trkpt lat="44.007700266885216" lon="8.140144003774536"><ele>345.83333333333337</ele><time>2026-03-26T18:23:25.001Z</time></trkpt><trkpt lat="44.00777569476319" lon="8.140211915339412"><ele>347.0</ele><time>2026-03-26T18:23:26.001Z</time></trkpt><trkpt lat="44.00785084626302" lon="8.140267924451043"><ele>347.0</ele><time>2026-03-26T18:23:27.001Z</time></trkpt><trkpt lat="44.0079341259222" lon="8.140307337222376"><ele>347.0</ele><time>2026-03-26T18:23:28.001Z</time></trkpt><trkpt lat="44.008015968102164" lon="8.140338072254915"><ele>347.0</ele><time>2026-03-26T18:23:29.001Z</time></trkpt><trkpt lat="44.00808916398522" lon="8.140376513245673"><ele>347.0</ele><time>2026-03-26T18:23:30.001Z</time></trkpt><trkpt lat="44.00815396691532" lon="8.140429836424657"><ele>347.0</ele><time>2026-03-26T18:23:31.001Z</time></trkpt><trkpt lat="44.008213892934094" lon="8.140489137004206"><ele>347.0</ele><time>2026-03-26T18:23:32.001Z</time></trkpt><trkpt lat="44.008266813144296" lon="8.140557972833015"><ele>347.0</ele><time>2026-03-26T18:23:33.001Z</time></trkpt><trkpt lat="44.008322753805466" lon="8.140618845201548"><ele>347.0</ele><time>2026-03-26T18:23:34.001Z</time></trkpt><trkpt lat="44.00838113266576" lon="8.140670840321354"><ele>347.0</ele><time>2026-03-26T18:23:35.001Z</time></trkpt><trkpt lat="44.00844305227042" lon="8.140711835544092"><ele>347.0</ele><time>2026-03-26T18:23:36.001Z</time></trkpt><trkpt lat="44.00850980180697" lon="8.140752891261052"><ele>347.0</ele><time>2026-03-26T18:23:37.001Z</time></trkpt><trkpt lat="44.008578934550144" lon="8.140789971343436"><ele>347.0</ele><time>2026-03-26T18:23:38.001Z</time></trkpt><trkpt lat="44.00864593836105" lon="8.140846876469437"><ele>347.0</ele><time>2026-03-26T18:23:39.001Z</time></trkpt><trkpt lat="44.00872827358949" lon="8.140849617370485"><ele>345.8571428571429</ele><time>2026-03-26T18:23:40.001Z</time></trkpt><trkpt lat="44.008807411501145" lon="8.140864564545868"><ele>344.71428571428567</ele><time>2026-03-26T18:23:41.001Z</time></trkpt><trkpt lat="44.0088804935417" lon="8.140908950011061"><ele>343.57142857142856</ele><time>2026-03-26T18:23:42.001Z</time></trkpt><trkpt lat="44.00894701476204" lon="8.140946366253088"><ele>342.42857142857144</ele><time>2026-03-26T18:23:43.001Z</time></trkpt><trkpt lat="44.00901312419761" lon="8.1409753714585"><ele>341.28571428571433</ele><time>2026-03-26T18:23:44.001Z</time></trkpt><trkpt lat="44.00906180921875" lon="8.141046702355485"><ele>340.1428571428571</ele><time>2026-03-26T18:23:45.001Z</time></trkpt><trkpt lat="44.00908321735058" lon="8.141136310575346"><ele>339.0</ele><time>2026-03-26T18:23:46.001Z</time></trkpt><trkpt lat="44.009103793946174" lon="8.14121979725993"><ele>339.0</ele><time>2026-03-26T18:23:47.001Z</time></trkpt><trkpt lat="44.009124421240806" lon="8.141314255620673"><ele>339.0</ele><time>2026-03-26T18:23:48.001Z</time></trkpt><trkpt lat="44.009159431084" lon="8.141401298653468"><ele>339.0</ele><time>2026-03-26T18:23:49.001Z</time></trkpt><trkpt lat="44.00918190209023" lon="8.14149826238841"><ele>339.0</ele><time>2026-03-26T18:23:50.001Z</time></trkpt><trkpt lat="44.00918743155331" lon="8.141603503420468"><ele>339.0</ele><time>2026-03-26T18:23:51.001Z</time></trkpt><trkpt lat="44.009208871114865" lon="8.141702003762276"><ele>339.0</ele><time>2026-03-26T18:23:52.001Z</time></trkpt><trkpt lat="44.00923051400735" lon="8.141801438149672"><ele>339.0</ele><time>2026-03-26T18:23:53.001Z</time></trkpt><trkpt lat="44.009265484474874" lon="8.141891289202297"><ele>338.4</ele><time>2026-03-26T18:23:54.001Z</time></trkpt><trkpt lat="44.009297130845354" lon="8.14206176357056"><ele>337.79999999999995</ele><time>2026-03-26T18:23:56.001Z</time></trkpt><trkpt lat="44.009329281603875" lon="8.142139274028919"><ele>337.20000000000005</ele><time>2026-03-26T18:23:57.001Z</time></trkpt><trkpt lat="44.00943311098435" lon="8.14222832366938"><ele>336.6</ele><time>2026-03-26T18:23:59.001Z</time></trkpt><trkpt lat="44.00948925092416" lon="8.142288240189204"><ele>336.0</ele><time>2026-03-26T18:24:00.001Z</time></trkpt><trkpt lat="44.00956044936513" lon="8.142329142648387"><ele>336.0</ele><time>2026-03-26T18:24:01.001Z</time></trkpt><trkpt lat="44.009632623193276" lon="8.142372846395235"><ele>336.0</ele><time>2026-03-26T18:24:02.001Z</time></trkpt><trkpt lat="44.009695176995386" lon="8.142413557640497"><ele>336.0</ele><time>2026-03-26T18:24:03.001Z</time></trkpt><trkpt lat="44.00978182107129" lon="8.142519617249658"><ele>336.0</ele><time>2026-03-26T18:24:05.001Z</time></trkpt><trkpt lat="44.00982843790404" lon="8.142588034896296"><ele>336.0</ele><time>2026-03-26T18:24:06.001Z</time></trkpt><trkpt lat="44.00985908721605" lon="8.142674387398767"><ele>336.0</ele><time>2026-03-26T18:24:07.001Z</time></trkpt><trkpt lat="44.009891383659024" lon="8.14277240309892"><ele>336.2857142857143</ele><time>2026-03-26T18:24:08.001Z</time></trkpt><trkpt lat="44.00993084422354" lon="8.142855677057023"><ele>336.57142857142856</ele><time>2026-03-26T18:24:09.001Z</time></trkpt><trkpt lat="44.0099667706772" lon="8.142934619441142"><ele>336.8571428571429</ele><time>2026-03-26T18:24:10.001Z</time></trkpt><trkpt lat="44.01001485733496" lon="8.143001516601133"><ele>337.1428571428571</ele><time>2026-03-26T18:24:11.001Z</time></trkpt><trkpt lat="44.01008749725102" lon="8.14301961097628"><ele>337.42857142857144</ele><time>2026-03-26T18:24:12.001Z</time></trkpt><trkpt lat="44.010153784914564" lon="8.143016386590403"><ele>337.7142857142857</ele><time>2026-03-26T18:24:13.001Z</time></trkpt><trkpt lat="44.01022407026279" lon="8.143000403580738"><ele>338.0</ele><time>2026-03-26T18:24:14.001Z</time></trkpt><trkpt lat="44.01029407773323" lon="8.142988606898873"><ele>338.0</ele><time>2026-03-26T18:24:14.999Z</time></trkpt><trkpt lat="44.010371247350555" lon="8.142954528888335"><ele>338.0</ele><time>2026-03-26T18:24:15.999Z</time></trkpt><trkpt lat="44.010442092356335" lon="8.14291292732897"><ele>338.0</ele><time>2026-03-26T18:24:16.999Z</time></trkpt><trkpt lat="44.010514540295574" lon="8.142860538135158"><ele>338.0</ele><time>2026-03-26T18:24:17.999Z</time></trkpt><trkpt lat="44.01058028560922" lon="8.142806563591382"><ele>338.0</ele><time>2026-03-26T18:24:18.999Z</time></trkpt><trkpt lat="44.01064522100428" lon="8.142747111211468"><ele>338.0</ele><time>2026-03-26T18:24:19.999Z</time></trkpt><trkpt lat="44.01070389283656" lon="8.142693114958957"><ele>338.0</ele><time>2026-03-26T18:24:20.999Z</time></trkpt><trkpt lat="44.01076303201878" lon="8.142638688547791"><ele>338.0</ele><time>2026-03-26T18:24:21.999Z</time></trkpt><trkpt lat="44.01082288421653" lon="8.14258566995923"><ele>338.0</ele><time>2026-03-26T18:24:22.999Z</time></trkpt><trkpt lat="44.01088225318956" lon="8.142534007874772"><ele>338.0</ele><time>2026-03-26T18:24:23.999Z</time></trkpt><trkpt lat="44.01094297875269" lon="8.142481424295864"><ele>338.0</ele><time>2026-03-26T18:24:24.999Z</time></trkpt><trkpt lat="44.01100248461317" lon="8.142429896941552"><ele>338.0</ele><time>2026-03-26T18:24:25.999Z</time></trkpt><trkpt lat="44.01106017658338" lon="8.142394226551598"><ele>338.0</ele><time>2026-03-26T18:24:26.999Z</time></trkpt><trkpt lat="44.01111662758008" lon="8.14235093020767"><ele>337.0</ele><time>2026-03-26T18:24:27.999Z</time></trkpt><trkpt lat="44.0111929226435" lon="8.142401363325044"><ele>336.0</ele><time>2026-03-26T18:24:28.999Z</time></trkpt><trkpt lat="44.01127476535401" lon="8.142367917905718"><ele>335.0</ele><time>2026-03-26T18:24:29.999Z</time></trkpt><trkpt lat="44.01135611733408" lon="8.142372374805609"><ele>334.0</ele><time>2026-03-26T18:24:31Z</time></trkpt><trkpt lat="44.01142902763823" lon="8.142362964235552"><ele>333.0</ele><time>2026-03-26T18:24:32Z</time></trkpt><trkpt lat="44.01150280796808" lon="8.14238376403959"><ele>332.0</ele><time>2026-03-26T18:24:33Z</time></trkpt><trkpt lat="44.011568915620465" lon="8.142437695336426"><ele>332.0</ele><time>2026-03-26T18:24:34Z</time></trkpt><trkpt lat="44.01161873685338" lon="8.142501711558777"><ele>332.0</ele><time>2026-03-26T18:24:35Z</time></trkpt><trkpt lat="44.01166662207855" lon="8.142565261207057"><ele>332.0</ele><time>2026-03-26T18:24:36Z</time></trkpt><trkpt lat="44.011710899874814" lon="8.142628987682983"><ele>332.0</ele><time>2026-03-26T18:24:37Z</time></trkpt><trkpt lat="44.01181361540381" lon="8.142696893108694"><ele>332.0</ele><time>2026-03-26T18:24:39Z</time></trkpt><trkpt lat="44.011945308107535" lon="8.142654240310307"><ele>332.0</ele><time>2026-03-26T18:24:41Z</time></trkpt><trkpt lat="44.01201496496742" lon="8.142618467733998"><ele>331.1666666666667</ele><time>2026-03-26T18:24:42Z</time></trkpt><trkpt lat="44.01207995374939" lon="8.14260959672017"><ele>330.33333333333337</ele><time>2026-03-26T18:24:43Z</time></trkpt><trkpt lat="44.01214348491714" lon="8.142639718910026"><ele>329.5</ele><time>2026-03-26T18:24:44Z</time></trkpt><trkpt lat="44.01221888502412" lon="8.142672938256554"><ele>328.6666666666667</ele><time>2026-03-26T18:24:45Z</time></trkpt><trkpt lat="44.012286988917914" lon="8.142680464273683"><ele>327.8333333333333</ele><time>2026-03-26T18:24:46Z</time></trkpt><trkpt lat="44.01241982559808" lon="8.142736375123254"><ele>327.0</ele><time>2026-03-26T18:24:48Z</time></trkpt><trkpt lat="44.01246812560118" lon="8.142798617788"><ele>328.5</ele><time>2026-03-26T18:24:49Z</time></trkpt><trkpt lat="44.0125466196309" lon="8.142942948520666"><ele>330.0</ele><time>2026-03-26T18:24:51Z</time></trkpt><trkpt lat="44.01258924623941" lon="8.14304093679677"><ele>331.5</ele><time>2026-03-26T18:24:52Z</time></trkpt><trkpt lat="44.01263249820702" lon="8.143136756494545"><ele>333.0</ele><time>2026-03-26T18:24:53Z</time></trkpt><trkpt lat="44.012672776549614" lon="8.143229679588535"><ele>334.5</ele><time>2026-03-26T18:24:54Z</time></trkpt><trkpt lat="44.01270805068962" lon="8.143323818006229"><ele>336.0</ele><time>2026-03-26T18:24:55Z</time></trkpt><trkpt lat="44.01273266740984" lon="8.143416036084822"><ele>331.5</ele><time>2026-03-26T18:24:56Z</time></trkpt><trkpt lat="44.01275285202157" lon="8.143504635032373"><ele>327.0</ele><time>2026-03-26T18:24:57Z</time></trkpt><trkpt lat="44.0127710276355" lon="8.143673887766713"><ele>322.5</ele><time>2026-03-26T18:24:59Z</time></trkpt><trkpt lat="44.01274177026462" lon="8.143758244177052"><ele>318.0</ele><time>2026-03-26T18:25:00Z</time></trkpt><trkpt lat="44.01269586760583" lon="8.143830527315302"><ele>313.5</ele><time>2026-03-26T18:25:01Z</time></trkpt><trkpt lat="44.012633101269685" lon="8.143888969012531"><ele>309.0</ele><time>2026-03-26T18:25:02Z</time></trkpt><trkpt lat="44.01257628082533" lon="8.143950385130793"><ele>309.00000000000006</ele><time>2026-03-26T18:25:03Z</time></trkpt><trkpt lat="44.01252492932276" lon="8.144021202017612"><ele>309.0</ele><time>2026-03-26T18:25:04Z</time></trkpt><trkpt lat="44.01247864014557" lon="8.144098988756305"><ele>309.0</ele><time>2026-03-26T18:25:05Z</time></trkpt><trkpt lat="44.01245142462267" lon="8.144188772436408"><ele>309.0</ele><time>2026-03-26T18:25:06Z</time></trkpt><trkpt lat="44.01243931861643" lon="8.144287250393464"><ele>309.0</ele><time>2026-03-26T18:25:07Z</time></trkpt><trkpt lat="44.01243795664619" lon="8.144386115236879"><ele>309.00000000000006</ele><time>2026-03-26T18:25:08Z</time></trkpt><trkpt lat="44.01243769306517" lon="8.144483024836168"><ele>309.0</ele><time>2026-03-26T18:25:09Z</time></trkpt><trkpt lat="44.012446836238716" lon="8.14457904649311"><ele>308.4</ele><time>2026-03-26T18:25:10Z</time></trkpt><trkpt lat="44.01251374201449" lon="8.144715633834672"><ele>307.79999999999995</ele><time>2026-03-26T18:25:12Z</time></trkpt><trkpt lat="44.01263645643534" lon="8.144794959859116"><ele>307.20000000000005</ele><time>2026-03-26T18:25:14Z</time></trkpt><trkpt lat="44.012704263485645" lon="8.144843168014084"><ele>306.6</ele><time>2026-03-26T18:25:15Z</time></trkpt><trkpt lat="44.01276695983072" lon="8.144878664830967"><ele>306.0</ele><time>2026-03-26T18:25:16Z</time></trkpt><trkpt lat="44.012830006432836" lon="8.144916988379585"><ele>304.1666666666667</ele><time>2026-03-26T18:25:17Z</time></trkpt><trkpt lat="44.01288705295082" lon="8.144967085014287"><ele>302.3333333333333</ele><time>2026-03-26T18:25:18Z</time></trkpt><trkpt lat="44.01295613393068" lon="8.145115797692094"><ele>300.5</ele><time>2026-03-26T18:25:20Z</time></trkpt><trkpt lat="44.01297705485517" lon="8.145213317085288"><ele>298.66666666666663</ele><time>2026-03-26T18:25:21Z</time></trkpt><trkpt lat="44.01297991735732" lon="8.145316089039753"><ele>296.8333333333333</ele><time>2026-03-26T18:25:22.001Z</time></trkpt><trkpt lat="44.01298217053993" lon="8.145433283178066"><ele>295.0</ele><time>2026-03-26T18:25:23.001Z</time></trkpt><trkpt lat="44.01298436585427" lon="8.145552278239634"><ele>295.0</ele><time>2026-03-26T18:25:24.001Z</time></trkpt><trkpt lat="44.01298770963917" lon="8.145671829159378"><ele>295.0</ele><time>2026-03-26T18:25:25.001Z</time></trkpt><trkpt lat="44.01299171620913" lon="8.14579909446866"><ele>295.0</ele><time>2026-03-26T18:25:26.001Z</time></trkpt><trkpt lat="44.01299542514102" lon="8.145916905773984"><ele>295.0</ele><time>2026-03-26T18:25:27.001Z</time></trkpt><trkpt lat="44.01299714583137" lon="8.146039732927916"><ele>295.0</ele><time>2026-03-26T18:25:28.001Z</time></trkpt><trkpt lat="44.012998787144575" lon="8.146162322222116"><ele>295.0</ele><time>2026-03-26T18:25:29.001Z</time></trkpt><trkpt lat="44.01300042207856" lon="8.146284434927015"><ele>292.16666666666663</ele><time>2026-03-26T18:25:30.001Z</time></trkpt><trkpt lat="44.01300250148297" lon="8.146402779491064"><ele>289.3333333333333</ele><time>2026-03-26T18:25:31.001Z</time></trkpt><trkpt lat="44.01300509601245" lon="8.146512836106238"><ele>286.5</ele><time>2026-03-26T18:25:32.001Z</time></trkpt><trkpt lat="44.0130074519498" lon="8.146612771629702"><ele>283.6666666666667</ele><time>2026-03-26T18:25:33.001Z</time></trkpt><trkpt lat="44.013010017918106" lon="8.1467207315235"><ele>280.83333333333337</ele><time>2026-03-26T18:25:34.001Z</time></trkpt><trkpt lat="44.013013906170315" lon="8.146819680548479"><ele>278.0</ele><time>2026-03-26T18:25:35.001Z</time></trkpt><trkpt lat="44.01301575096596" lon="8.146920747045518"><ele>277.1666666666667</ele><time>2026-03-26T18:25:36.001Z</time></trkpt><trkpt lat="44.01302723832241" lon="8.147029061956294"><ele>276.33333333333337</ele><time>2026-03-26T18:25:37.001Z</time></trkpt><trkpt lat="44.01298600472815" lon="8.147117899958335"><ele>275.5</ele><time>2026-03-26T18:25:38.001Z</time></trkpt><trkpt lat="44.012950678081026" lon="8.147224856220713"><ele>274.6666666666667</ele><time>2026-03-26T18:25:39.001Z</time></trkpt><trkpt lat="44.012912253999325" lon="8.147330755903937"><ele>273.8333333333333</ele><time>2026-03-26T18:25:40.001Z</time></trkpt><trkpt lat="44.01287310413419" lon="8.14743965722117"><ele>273.0</ele><time>2026-03-26T18:25:41.001Z</time></trkpt><trkpt lat="44.01283453472089" lon="8.147546942577227"><ele>273.0</ele><time>2026-03-26T18:25:42.001Z</time></trkpt><trkpt lat="44.012813309224036" lon="8.147668802152545"><ele>273.0</ele><time>2026-03-26T18:25:43.001Z</time></trkpt><trkpt lat="44.012772599379" lon="8.147774198996041"><ele>273.0</ele><time>2026-03-26T18:25:44.001Z</time></trkpt><trkpt lat="44.012728999563414" lon="8.147878089255968"><ele>273.0</ele><time>2026-03-26T18:25:45.001Z</time></trkpt><trkpt lat="44.01268597515353" lon="8.14797746054166"><ele>273.0</ele><time>2026-03-26T18:25:46.001Z</time></trkpt><trkpt lat="44.012640728490396" lon="8.148071900690653"><ele>273.0</ele><time>2026-03-26T18:25:47.001Z</time></trkpt><trkpt lat="44.012594939940605" lon="8.14816438810873"><ele>275.3333333333333</ele><time>2026-03-26T18:25:48.001Z</time></trkpt><trkpt lat="44.01255138868364" lon="8.14825530180387"><ele>277.6666666666667</ele><time>2026-03-26T18:25:49.001Z</time></trkpt><trkpt lat="44.01250901217249" lon="8.148343664043475"><ele>280.0</ele><time>2026-03-26T18:25:50.001Z</time></trkpt><trkpt lat="44.012470733000825" lon="8.148434526471986"><ele>282.33333333333337</ele><time>2026-03-26T18:25:51.001Z</time></trkpt><trkpt lat="44.0124464197089" lon="8.148534458209552"><ele>284.6666666666667</ele><time>2026-03-26T18:25:52.001Z</time></trkpt><trkpt lat="44.012437939495186" lon="8.14864057791088"><ele>287.0</ele><time>2026-03-26T18:25:53.001Z</time></trkpt><trkpt lat="44.012440582442075" lon="8.148744958852102"><ele>286.0</ele><time>2026-03-26T18:25:54.001Z</time></trkpt><trkpt lat="44.01245144142425" lon="8.148849841454863"><ele>285.0</ele><time>2026-03-26T18:25:55.001Z</time></trkpt><trkpt lat="44.012459533521216" lon="8.14895810705617"><ele>284.0</ele><time>2026-03-26T18:25:56.001Z</time></trkpt><trkpt lat="44.012479838771135" lon="8.149053459233414"><ele>283.0</ele><time>2026-03-26T18:25:57.001Z</time></trkpt><trkpt lat="44.012501864277695" lon="8.149151424460316"><ele>282.0</ele><time>2026-03-26T18:25:58.001Z</time></trkpt><trkpt lat="44.01254231539293" lon="8.14924569301886"><ele>281.0</ele><time>2026-03-26T18:25:59.001Z</time></trkpt><trkpt lat="44.012593637074126" lon="8.149334570726575"><ele>281.0</ele><time>2026-03-26T18:26:00.001Z</time></trkpt><trkpt lat="44.01264777014708" lon="8.149422256856973"><ele>281.0</ele><time>2026-03-26T18:26:01.001Z</time></trkpt><trkpt lat="44.01268572901708" lon="8.149525191721944"><ele>281.0</ele><time>2026-03-26T18:26:02.001Z</time></trkpt><trkpt lat="44.01273228494464" lon="8.149617751159056"><ele>281.0</ele><time>2026-03-26T18:26:03.001Z</time></trkpt><trkpt lat="44.01276899909999" lon="8.149714253749645"><ele>281.0</ele><time>2026-03-26T18:26:04.001Z</time></trkpt><trkpt lat="44.01279766926349" lon="8.149817262126435"><ele>281.0</ele><time>2026-03-26T18:26:05.001Z</time></trkpt><trkpt lat="44.01282085573964" lon="8.14992996096217"><ele>278.0</ele><time>2026-03-26T18:26:06.001Z</time></trkpt><trkpt lat="44.01284128899579" lon="8.15004442881819"><ele>275.0</ele><time>2026-03-26T18:26:07.001Z</time></trkpt><trkpt lat="44.01285815883836" lon="8.150160813402293"><ele>272.0</ele><time>2026-03-26T18:26:08.001Z</time></trkpt><trkpt lat="44.0128742040908" lon="8.150278632714794"><ele>269.0</ele><time>2026-03-26T18:26:09.001Z</time></trkpt><trkpt lat="44.01288782428297" lon="8.150390355325507"><ele>266.0</ele><time>2026-03-26T18:26:10.001Z</time></trkpt><trkpt lat="44.012891350919645" lon="8.15049436306637"><ele>263.0</ele><time>2026-03-26T18:26:11.001Z</time></trkpt><trkpt lat="44.01287568934417" lon="8.150593398170253"><ele>263.0</ele><time>2026-03-26T18:26:12.002Z</time></trkpt><trkpt lat="44.01286014350526" lon="8.15068645790955"><ele>263.0</ele><time>2026-03-26T18:26:13.002Z</time></trkpt><trkpt lat="44.01283894636918" lon="8.150837383850646"><ele>263.0</ele><time>2026-03-26T18:26:15.002Z</time></trkpt><trkpt lat="44.012848925135096" lon="8.150983114384626"><ele>263.0</ele><time>2026-03-26T18:26:17.002Z</time></trkpt><trkpt lat="44.012909573622174" lon="8.15110369986811"><ele>263.0</ele><time>2026-03-26T18:26:19.002Z</time></trkpt><trkpt lat="44.012973510577254" lon="8.151158246340042"><ele>262.4</ele><time>2026-03-26T18:26:21Z</time></trkpt><trkpt lat="44.01304026909162" lon="8.15120755293576"><ele>261.8</ele><time>2026-03-26T18:26:37Z</time></trkpt><trkpt lat="44.01313301371922" lon="8.15125644380779"><ele>261.2</ele><time>2026-03-26T18:26:40Z</time></trkpt><trkpt lat="44.01323088955949" lon="8.151305105173043"><ele>260.6</ele><time>2026-03-26T18:26:42Z</time></trkpt><trkpt lat="44.01333534613609" lon="8.151360841213112"><ele>260.0</ele><time>2026-03-26T18:26:44Z</time></trkpt><trkpt lat="44.01342861923136" lon="8.15143340236318"><ele>260.0</ele><time>2026-03-26T18:26:46Z</time></trkpt><trkpt lat="44.01350536970311" lon="8.151533311250756"><ele>260.0</ele><time>2026-03-26T18:26:48Z</time></trkpt><trkpt lat="44.01358477977085" lon="8.151652376800934"><ele>260.0</ele><time>2026-03-26T18:26:50Z</time></trkpt><trkpt lat="44.01367464765582" lon="8.151750134018869"><ele>260.0</ele><time>2026-03-26T18:26:52Z</time></trkpt><trkpt lat="44.01377580318259" lon="8.15181454966022"><ele>260.0</ele><time>2026-03-26T18:26:54Z</time></trkpt><trkpt lat="44.01386671390153" lon="8.151875895925453"><ele>260.0</ele><time>2026-03-26T18:26:56.001Z</time></trkpt><trkpt lat="44.01392487317254" lon="8.151921943907453"><ele>260.0</ele><time>2026-03-26T18:26:58.001Z</time></trkpt><trkpt lat="44.01398380320712" lon="8.152012900984424"><ele>260.0</ele><time>2026-03-26T18:27:01.001Z</time></trkpt><trkpt lat="44.01400997841992" lon="8.152098415938884"><ele>260.0</ele><time>2026-03-26T18:27:03.001Z</time></trkpt><trkpt lat="44.01401928547063" lon="8.152223556741532"><ele>260.0</ele><time>2026-03-26T18:27:06.001Z</time></trkpt><trkpt lat="44.01393703575477" lon="8.152251933203834"><ele>260.0</ele><time>2026-03-26T18:27:08.001Z</time></trkpt><trkpt lat="44.01386388536546" lon="8.152264840692538"><ele>260.0</ele><time>2026-03-26T18:27:10.001Z</time></trkpt><trkpt lat="44.01378666834426" lon="8.152185412528127"><ele>260.0</ele><time>2026-03-26T18:27:12.001Z</time></trkpt><trkpt lat="44.013732721167564" lon="8.152056499545415"><ele>260.0</ele><time>2026-03-26T18:27:14.001Z</time></trkpt><trkpt lat="44.01367324107573" lon="8.151937140076678"><ele>260.0</ele><time>2026-03-26T18:27:16.001Z</time></trkpt><trkpt lat="44.01359834307619" lon="8.151846744712104"><ele>260.0</ele><time>2026-03-26T18:27:18.001Z</time></trkpt><trkpt lat="44.01351767307872" lon="8.151774218169672"><ele>260.0</ele><time>2026-03-26T18:27:20.001Z</time></trkpt><trkpt lat="44.01343252127957" lon="8.151702277015584"><ele>260.0</ele><time>2026-03-26T18:27:22.001Z</time></trkpt><trkpt lat="44.013338115380655" lon="8.151632916369142"><ele>260.0</ele><time>2026-03-26T18:27:24.001Z</time></trkpt><trkpt lat="44.01323225942025" lon="8.15156744591719"><ele>260.0</ele><time>2026-03-26T18:27:26.001Z</time></trkpt><trkpt lat="44.013120641664514" lon="8.151511742127239"><ele>260.0</ele><time>2026-03-26T18:27:28.001Z</time></trkpt><trkpt lat="44.013003191897766" lon="8.151465129367946"><ele>260.0</ele><time>2026-03-26T18:27:30.001Z</time></trkpt><trkpt lat="44.01288645755233" lon="8.15142943547459"><ele>260.0</ele><time>2026-03-26T18:27:32.001Z</time></trkpt><trkpt lat="44.01276982269569" lon="8.151416432863176"><ele>260.0</ele><time>2026-03-26T18:27:34.001Z</time></trkpt><trkpt lat="44.01266008998296" lon="8.151411719715963"><ele>260.0</ele><time>2026-03-26T18:27:36.001Z</time></trkpt><trkpt lat="44.01259353951091" lon="8.151396302731438"><ele>260.0</ele><time>2026-03-26T18:27:37.001Z</time></trkpt><trkpt lat="44.01252877626625" lon="8.15138573608708"><ele>254.2</ele><time>2026-03-26T18:27:38.001Z</time></trkpt><trkpt lat="44.01240533619932" lon="8.151330598413631"><ele>248.4</ele><time>2026-03-26T18:27:40.001Z</time></trkpt><trkpt lat="44.01233439179403" lon="8.151309272165623"><ele>242.60000000000002</ele><time>2026-03-26T18:27:41.001Z</time></trkpt><trkpt lat="44.012268899361814" lon="8.151272905641914"><ele>236.8</ele><time>2026-03-26T18:27:42.001Z</time></trkpt><trkpt lat="44.012164126634474" lon="8.15119671406814"><ele>231.0</ele><time>2026-03-26T18:27:44.001Z</time></trkpt><trkpt lat="44.0120949132794" lon="8.151062478482844"><ele>231.0</ele><time>2026-03-26T18:27:46.001Z</time></trkpt><trkpt lat="44.012060093767715" lon="8.150902420699946"><ele>231.0</ele><time>2026-03-26T18:27:48.002Z</time></trkpt><trkpt lat="44.012091666073474" lon="8.150736009881973"><ele>231.0</ele><time>2026-03-26T18:27:50.002Z</time></trkpt><trkpt lat="44.0121366555918" lon="8.150585789839031"><ele>231.0</ele><time>2026-03-26T18:27:52.002Z</time></trkpt><trkpt lat="44.0121932947893" lon="8.15042770787398"><ele>231.4</ele><time>2026-03-26T18:27:54.002Z</time></trkpt><trkpt lat="44.01222084412853" lon="8.150346203487343"><ele>231.8</ele><time>2026-03-26T18:27:55.002Z</time></trkpt><trkpt lat="44.01223971678774" lon="8.15026093163692"><ele>232.20000000000002</ele><time>2026-03-26T18:27:56.002Z</time></trkpt><trkpt lat="44.012222423874775" lon="8.150089077455839"><ele>232.60000000000002</ele><time>2026-03-26T18:27:58.002Z</time></trkpt><trkpt lat="44.01218785213853" lon="8.149935994610173"><ele>233.0</ele><time>2026-03-26T18:28:00.002Z</time></trkpt><trkpt lat="44.01211982913849" lon="8.149811818225754"><ele>235.0</ele><time>2026-03-26T18:28:02.002Z</time></trkpt><trkpt lat="44.01202240906257" lon="8.149727378590395"><ele>237.0</ele><time>2026-03-26T18:28:04.002Z</time></trkpt><trkpt lat="44.01192799181912" lon="8.149631276830679"><ele>239.0</ele><time>2026-03-26T18:28:06.002Z</time></trkpt><trkpt lat="44.01184686227214" lon="8.149502476697586"><ele>241.0</ele><time>2026-03-26T18:28:08.002Z</time></trkpt><trkpt lat="44.01180280535335" lon="8.14943301909311"><ele>243.0</ele><time>2026-03-26T18:28:09.002Z</time></trkpt><trkpt lat="44.01175902072012" lon="8.149369491520734"><ele>243.0</ele><time>2026-03-26T18:28:10.002Z</time></trkpt><trkpt lat="44.011711225084746" lon="8.149307863783136"><ele>243.0</ele><time>2026-03-26T18:28:11.002Z</time></trkpt><trkpt lat="44.01166205143161" lon="8.149247873730454"><ele>243.0</ele><time>2026-03-26T18:28:12.002Z</time></trkpt><trkpt lat="44.01161354342826" lon="8.14919159443653"><ele>243.0</ele><time>2026-03-26T18:28:13.002Z</time></trkpt><trkpt lat="44.01156587253001" lon="8.149131467946122"><ele>243.0</ele><time>2026-03-26T18:28:14.002Z</time></trkpt><trkpt lat="44.01151832254792" lon="8.149070060859177"><ele>243.0</ele><time>2026-03-26T18:28:15.002Z</time></trkpt><trkpt lat="44.01147435844409" lon="8.148997478426526"><ele>243.0</ele><time>2026-03-26T18:28:16.002Z</time></trkpt><trkpt lat="44.011437577334895" lon="8.148911815365366"><ele>238.14285714285714</ele><time>2026-03-26T18:28:17.002Z</time></trkpt><trkpt lat="44.01141358308519" lon="8.148819029438934"><ele>233.2857142857143</ele><time>2026-03-26T18:28:18.002Z</time></trkpt><trkpt lat="44.01139202265789" lon="8.148723742538532"><ele>228.42857142857144</ele><time>2026-03-26T18:28:19.002Z</time></trkpt><trkpt lat="44.01137053484506" lon="8.148628167754504"><ele>223.57142857142856</ele><time>2026-03-26T18:28:20.002Z</time></trkpt><trkpt lat="44.01137154650063" lon="8.14852639934343"><ele>218.71428571428572</ele><time>2026-03-26T18:28:21.002Z</time></trkpt><trkpt lat="44.011367000915264" lon="8.148425482736661"><ele>213.85714285714286</ele><time>2026-03-26T18:28:22.002Z</time></trkpt><trkpt lat="44.01137037666641" lon="8.148323891307014"><ele>209.0</ele><time>2026-03-26T18:28:23.002Z</time></trkpt><trkpt lat="44.01137798974575" lon="8.148218854236415"><ele>209.71428571428572</ele><time>2026-03-26T18:28:24.002Z</time></trkpt><trkpt lat="44.01138583461652" lon="8.148112098040716"><ele>210.42857142857142</ele><time>2026-03-26T18:28:25.002Z</time></trkpt><trkpt lat="44.01139163705941" lon="8.148007818249871"><ele>211.14285714285717</ele><time>2026-03-26T18:28:26.002Z</time></trkpt><trkpt lat="44.01139988151485" lon="8.147901997648729"><ele>211.85714285714286</ele><time>2026-03-26T18:28:27.001Z</time></trkpt><trkpt lat="44.01141197059469" lon="8.1478127759146"><ele>212.57142857142858</ele><time>2026-03-26T18:28:28.001Z</time></trkpt><trkpt lat="44.011430560580735" lon="8.147721778426293"><ele>213.2857142857143</ele><time>2026-03-26T18:28:29.001Z</time></trkpt><trkpt lat="44.01144821600955" lon="8.147632604490628"><ele>214.0</ele><time>2026-03-26T18:28:30.001Z</time></trkpt><trkpt lat="44.01145343880035" lon="8.14753910043089"><ele>214.00000000000003</ele><time>2026-03-26T18:28:31.001Z</time></trkpt><trkpt lat="44.01146867748276" lon="8.147439871371324"><ele>214.0</ele><time>2026-03-26T18:28:32.001Z</time></trkpt><trkpt lat="44.01147046474633" lon="8.147346452691117"><ele>214.0</ele><time>2026-03-26T18:28:33.001Z</time></trkpt><trkpt lat="44.01146389154033" lon="8.147247965345871"><ele>214.0</ele><time>2026-03-26T18:28:34.001Z</time></trkpt><trkpt lat="44.0114509780469" lon="8.147152811196783"><ele>214.0</ele><time>2026-03-26T18:28:35.001Z</time></trkpt><trkpt lat="44.0114309954778" lon="8.147062490583819"><ele>214.00000000000003</ele><time>2026-03-26T18:28:36.001Z</time></trkpt><trkpt lat="44.01140886810547" lon="8.146970646463494"><ele>214.0</ele><time>2026-03-26T18:28:37.001Z</time></trkpt><trkpt lat="44.011380219139674" lon="8.146876030309363"><ele>214.99999999999997</ele><time>2026-03-26T18:28:38.001Z</time></trkpt><trkpt lat="44.01134072134244" lon="8.14678931350392"><ele>216.0</ele><time>2026-03-26T18:28:39.001Z</time></trkpt><trkpt lat="44.01129568690641" lon="8.146714066234619"><ele>217.0</ele><time>2026-03-26T18:28:40.001Z</time></trkpt><trkpt lat="44.011241321701036" lon="8.14664918377817"><ele>218.0</ele><time>2026-03-26T18:28:41.001Z</time></trkpt><trkpt lat="44.01116589096842" lon="8.14654263475704"><ele>218.99999999999997</ele><time>2026-03-26T18:28:43.001Z</time></trkpt><trkpt lat="44.01107116211663" lon="8.146475956520305"><ele>220.0</ele><time>2026-03-26T18:28:45.001Z</time></trkpt><trkpt lat="44.010968878938385" lon="8.146498232615045"><ele>220.0</ele><time>2026-03-26T18:28:47.001Z</time></trkpt><trkpt lat="44.01091368914444" lon="8.146606295186588"><ele>220.0</ele><time>2026-03-26T18:28:49.001Z</time></trkpt><trkpt lat="44.010922707310264" lon="8.146738841427466"><ele>220.0</ele><time>2026-03-26T18:28:51.001Z</time></trkpt><trkpt lat="44.01098590022316" lon="8.14686496622643"><ele>220.0</ele><time>2026-03-26T18:28:53.001Z</time></trkpt><trkpt lat="44.01105567061063" lon="8.147003583949976"><ele>220.0</ele><time>2026-03-26T18:28:55.001Z</time></trkpt><trkpt lat="44.01108287563982" lon="8.147163747662127"><ele>220.0</ele><time>2026-03-26T18:28:57.001Z</time></trkpt><trkpt lat="44.01108339812278" lon="8.147331658264932"><ele>220.0</ele><time>2026-03-26T18:28:59.001Z</time></trkpt><trkpt lat="44.01108196453317" lon="8.147507432345783"><ele>220.0</ele><time>2026-03-26T18:29:01.001Z</time></trkpt><trkpt lat="44.01106223905876" lon="8.147680670574035"><ele>220.0</ele><time>2026-03-26T18:29:03.001Z</time></trkpt><trkpt lat="44.01104160330315" lon="8.147775222391113"><ele>220.0</ele><time>2026-03-26T18:29:04.001Z</time></trkpt><trkpt lat="44.01100815023857" lon="8.14785977855633"><ele>218.99999999999997</ele><time>2026-03-26T18:29:05.001Z</time></trkpt><trkpt lat="44.011001115845396" lon="8.147959942002833"><ele>218.0</ele><time>2026-03-26T18:29:06.001Z</time></trkpt><trkpt lat="44.01097097971144" lon="8.148039974476346"><ele>217.0</ele><time>2026-03-26T18:29:07.001Z</time></trkpt><trkpt lat="44.01089221153791" lon="8.148186957469026"><ele>216.0</ele><time>2026-03-26T18:29:09.001Z</time></trkpt><trkpt lat="44.01087609926188" lon="8.148283846393658"><ele>214.99999999999997</ele><time>2026-03-26T18:29:10.001Z</time></trkpt><trkpt lat="44.01086812669827" lon="8.148379747099415"><ele>214.0</ele><time>2026-03-26T18:29:11.001Z</time></trkpt><trkpt lat="44.01085982615587" lon="8.1484762479211"><ele>213.0</ele><time>2026-03-26T18:29:12.001Z</time></trkpt><trkpt lat="44.01085107327772" lon="8.148575886190665"><ele>211.99999999999997</ele><time>2026-03-26T18:29:13.001Z</time></trkpt><trkpt lat="44.010838976672844" lon="8.148676779540661"><ele>211.0</ele><time>2026-03-26T18:29:14.001Z</time></trkpt><trkpt lat="44.01082921009567" lon="8.148773754194732"><ele>210.0</ele><time>2026-03-26T18:29:15.001Z</time></trkpt><trkpt lat="44.01079290139792" lon="8.148939029002829"><ele>209.0</ele><time>2026-03-26T18:29:17.001Z</time></trkpt><trkpt lat="44.010766411869575" lon="8.149090342126291"><ele>209.79999999999998</ele><time>2026-03-26T18:29:19.001Z</time></trkpt><trkpt lat="44.01079262372801" lon="8.149241532322627"><ele>210.6</ele><time>2026-03-26T18:29:21.001Z</time></trkpt><trkpt lat="44.01088034556229" lon="8.14936868993891"><ele>211.4</ele><time>2026-03-26T18:29:23.001Z</time></trkpt><trkpt lat="44.01091974722473" lon="8.14944401413436"><ele>212.2</ele><time>2026-03-26T18:29:24.001Z</time></trkpt><trkpt lat="44.010942427800344" lon="8.14961522439471"><ele>213.0</ele><time>2026-03-26T18:29:26.001Z</time></trkpt><trkpt lat="44.010943934694154" lon="8.149777931732398"><ele>211.2</ele><time>2026-03-26T18:29:28.001Z</time></trkpt><trkpt lat="44.010908135726616" lon="8.14993883507131"><ele>209.4</ele><time>2026-03-26T18:29:30.001Z</time></trkpt><trkpt lat="44.01085482188047" lon="8.150092347837235"><ele>207.6</ele><time>2026-03-26T18:29:32.001Z</time></trkpt><trkpt lat="44.010849952998704" lon="8.150189804372053"><ele>205.79999999999998</ele><time>2026-03-26T18:29:33.001Z</time></trkpt><trkpt lat="44.010850530866115" lon="8.150365465023926"><ele>204.0</ele><time>2026-03-26T18:29:35.002Z</time></trkpt><trkpt lat="44.010879695564796" lon="8.15044720291077"><ele>204.0</ele><time>2026-03-26T18:29:36.002Z</time></trkpt><trkpt lat="44.0109137962585" lon="8.150527299942702"><ele>204.0</ele><time>2026-03-26T18:29:37.002Z</time></trkpt><trkpt lat="44.01096016517372" lon="8.150587242799856"><ele>204.0</ele><time>2026-03-26T18:29:38.002Z</time></trkpt><trkpt lat="44.01100947423388" lon="8.150651542780261"><ele>204.0</ele><time>2026-03-26T18:29:39.002Z</time></trkpt><trkpt lat="44.01105397192648" lon="8.150714307297203"><ele>204.0</ele><time>2026-03-26T18:29:40.002Z</time></trkpt><trkpt lat="44.01111233945998" lon="8.150823307109137"><ele>204.0</ele><time>2026-03-26T18:29:42.002Z</time></trkpt><trkpt lat="44.011103931137335" lon="8.150933735051394"><ele>204.0</ele><time>2026-03-26T18:29:44.002Z</time></trkpt><trkpt lat="44.011074705797995" lon="8.15109141166666"><ele>203.2</ele><time>2026-03-26T18:29:46.002Z</time></trkpt><trkpt lat="44.01102407201926" lon="8.151238884693747"><ele>202.39999999999998</ele><time>2026-03-26T18:29:48.002Z</time></trkpt><trkpt lat="44.01098205045867" lon="8.15136870139363"><ele>201.6</ele><time>2026-03-26T18:29:50.002Z</time></trkpt><trkpt lat="44.01095131007576" lon="8.151495053722147"><ele>200.8</ele><time>2026-03-26T18:29:52.002Z</time></trkpt><trkpt lat="44.01091570854241" lon="8.151644515578944"><ele>200.0</ele><time>2026-03-26T18:29:54.002Z</time></trkpt><trkpt lat="44.010951019576666" lon="8.15173781316766"><ele>198.0</ele><time>2026-03-26T18:29:55.002Z</time></trkpt><trkpt lat="44.011014837600236" lon="8.151872949828748"><ele>196.0</ele><time>2026-03-26T18:29:57.002Z</time></trkpt><trkpt lat="44.01106920185289" lon="8.151919942372517"><ele>194.0</ele><time>2026-03-26T18:29:59.002Z</time></trkpt><trkpt lat="44.011129147306804" lon="8.152026861408043"><ele>192.0</ele><time>2026-03-26T18:30:05.002Z</time></trkpt><trkpt lat="44.011186164181055" lon="8.15210232603719"><ele>190.0</ele><time>2026-03-26T18:30:07.002Z</time></trkpt><trkpt lat="44.0112644647339" lon="8.152192882387473"><ele>190.0</ele><time>2026-03-26T18:30:09.002Z</time></trkpt><trkpt lat="44.01130204794645" lon="8.152313757700304"><ele>190.0</ele><time>2026-03-26T18:30:11.002Z</time></trkpt><trkpt lat="44.01127758318866" lon="8.152402641119647"><ele>190.0</ele><time>2026-03-26T18:30:12.002Z</time></trkpt><trkpt lat="44.01132181930347" lon="8.152537889523929"><ele>190.0</ele><time>2026-03-26T18:30:14.002Z</time></trkpt><trkpt lat="44.01126601585083" lon="8.152683549214114"><ele>190.0</ele><time>2026-03-26T18:30:16.002Z</time></trkpt><trkpt lat="44.011236885465706" lon="8.152846607034267"><ele>189.0</ele><time>2026-03-26T18:30:18.002Z</time></trkpt><trkpt lat="44.01123416908778" lon="8.152989257514614"><ele>188.0</ele><time>2026-03-26T18:30:20.002Z</time></trkpt><trkpt lat="44.01121384724117" lon="8.15307729275581"><ele>187.0</ele><time>2026-03-26T18:30:23.002Z</time></trkpt><trkpt lat="44.01120500124362" lon="8.153175694307158"><ele>186.0</ele><time>2026-03-26T18:30:45.001Z</time></trkpt><trkpt lat="44.0112096566191" lon="8.153280251230257"><ele>185.0</ele><time>2026-03-26T18:30:48.001Z</time></trkpt><trkpt lat="44.011145201051576" lon="8.153295165755589"><ele>184.0</ele><time>2026-03-26T18:30:50.001Z</time></trkpt><trkpt lat="44.011095388054024" lon="8.153217715790156"><ele>183.6</ele><time>2026-03-26T18:30:52.001Z</time></trkpt><trkpt lat="44.01106665496832" lon="8.153088741959895"><ele>183.2</ele><time>2026-03-26T18:30:55.001Z</time></trkpt><trkpt lat="44.0110501231687" lon="8.152953908617453"><ele>182.79999999999998</ele><time>2026-03-26T18:30:57.001Z</time></trkpt><trkpt lat="44.01104999805326" lon="8.15280102590425"><ele>182.39999999999998</ele><time>2026-03-26T18:30:59.001Z</time></trkpt><trkpt lat="44.01102847803264" lon="8.152635831267698"><ele>182.0</ele><time>2026-03-26T18:31:01.001Z</time></trkpt><trkpt lat="44.01098851126537" lon="8.152513675931646"><ele>182.0</ele><time>2026-03-26T18:31:03.001Z</time></trkpt><trkpt lat="44.01089277941589" lon="8.152454104479853"><ele>182.0</ele><time>2026-03-26T18:31:05.001Z</time></trkpt><trkpt lat="44.010778429763775" lon="8.152455511451935"><ele>182.0</ele><time>2026-03-26T18:31:07.001Z</time></trkpt><trkpt lat="44.01067794746296" lon="8.152555105639562"><ele>182.0</ele><time>2026-03-26T18:31:09.001Z</time></trkpt><trkpt lat="44.01064063896019" lon="8.152646419185228"><ele>182.0</ele><time>2026-03-26T18:31:10.001Z</time></trkpt><trkpt lat="44.01060963076156" lon="8.152736327108801"><ele>179.42857142857142</ele><time>2026-03-26T18:31:11.001Z</time></trkpt><trkpt lat="44.010576850093116" lon="8.152824731698121"><ele>176.85714285714286</ele><time>2026-03-26T18:31:12.001Z</time></trkpt><trkpt lat="44.010540090028655" lon="8.152913677509414"><ele>174.28571428571428</ele><time>2026-03-26T18:31:13.001Z</time></trkpt><trkpt lat="44.0105021908613" lon="8.153003358266622"><ele>171.71428571428572</ele><time>2026-03-26T18:31:14.001Z</time></trkpt><trkpt lat="44.01047275042466" lon="8.153086806562575"><ele>169.14285714285714</ele><time>2026-03-26T18:31:15.001Z</time></trkpt><trkpt lat="44.01044653845442" lon="8.153169864787483"><ele>166.57142857142856</ele><time>2026-03-26T18:31:16.001Z</time></trkpt><trkpt lat="44.01042375775575" lon="8.153259977294557"><ele>164.0</ele><time>2026-03-26T18:31:17.001Z</time></trkpt><trkpt lat="44.01041031244467" lon="8.153347961107695"><ele>164.0</ele><time>2026-03-26T18:31:18.001Z</time></trkpt><trkpt lat="44.010396423180985" lon="8.153438859590615"><ele>164.0</ele><time>2026-03-26T18:31:19.001Z</time></trkpt><trkpt lat="44.01036848385461" lon="8.153522261013538"><ele>164.0</ele><time>2026-03-26T18:31:20.001Z</time></trkpt><trkpt lat="44.010352478397024" lon="8.153680640955042"><ele>164.0</ele><time>2026-03-26T18:31:22.001Z</time></trkpt><trkpt lat="44.01036701720518" lon="8.15380736165507"><ele>164.0</ele><time>2026-03-26T18:31:24.001Z</time></trkpt><trkpt lat="44.0103839111692" lon="8.15395254829832"><ele>164.0</ele><time>2026-03-26T18:31:26.001Z</time></trkpt><trkpt lat="44.01042896494498" lon="8.154090712127248"><ele>161.25</ele><time>2026-03-26T18:31:28.002Z</time></trkpt><trkpt lat="44.010471156498554" lon="8.154238015218992"><ele>158.5</ele><time>2026-03-26T18:31:30.002Z</time></trkpt><trkpt lat="44.01050279822392" lon="8.154379421903405"><ele>155.75</ele><time>2026-03-26T18:31:32.002Z</time></trkpt><trkpt lat="44.01053877007078" lon="8.154531979513388"><ele>153.0</ele><time>2026-03-26T18:31:34.002Z</time></trkpt><trkpt lat="44.01049979902323" lon="8.154682243167445"><ele>153.0</ele><time>2026-03-26T18:31:36.002Z</time></trkpt><trkpt lat="44.01043266889691" lon="8.154811950535882"><ele>153.0</ele><time>2026-03-26T18:31:38.002Z</time></trkpt><trkpt lat="44.010365913460994" lon="8.154931154798843"><ele>153.0</ele><time>2026-03-26T18:31:40.002Z</time></trkpt><trkpt lat="44.01035940012536" lon="8.1550639693493"><ele>153.0</ele><time>2026-03-26T18:31:42.002Z</time></trkpt><trkpt lat="44.010396724770565" lon="8.15516218383853"><ele>153.0</ele><time>2026-03-26T18:31:44.002Z</time></trkpt><trkpt lat="44.01048679595819" lon="8.155199622546323"><ele>151.33333333333334</ele><time>2026-03-26T18:31:46.002Z</time></trkpt><trkpt lat="44.010550915065686" lon="8.155164376172959"><ele>149.66666666666666</ele><time>2026-03-26T18:31:48.002Z</time></trkpt><trkpt lat="44.010618133457626" lon="8.155118302955524"><ele>148.0</ele><time>2026-03-26T18:31:52.002Z</time></trkpt><trkpt lat="44.01064011329382" lon="8.155240435219312"><ele>146.33333333333331</ele><time>2026-03-26T18:32:14.002Z</time></trkpt><trkpt lat="44.01058532204985" lon="8.155321351068771"><ele>144.66666666666666</ele><time>2026-03-26T18:32:16.002Z</time></trkpt><trkpt lat="44.01049510868256" lon="8.155325034398993"><ele>143.0</ele><time>2026-03-26T18:32:18.002Z</time></trkpt><trkpt lat="44.010420026887346" lon="8.155338583289403"><ele>142.99999999999997</ele><time>2026-03-26T18:32:20.002Z</time></trkpt><trkpt lat="44.010343097911196" lon="8.155304481084904"><ele>143.0</ele><time>2026-03-26T18:32:22.002Z</time></trkpt><trkpt lat="44.01030571584428" lon="8.155233063059255"><ele>143.0</ele><time>2026-03-26T18:32:25.002Z</time></trkpt><trkpt lat="44.01036977786705" lon="8.155255717852713"><ele>143.0</ele><time>2026-03-26T18:37:42Z</time></trkpt><trkpt lat="44.01027957908347" lon="8.155224456774983"><ele>143.0</ele><time>2026-03-26T18:38:24.001Z</time></trkpt><trkpt lat="44.01031688855626" lon="8.155302923543395"><ele>142.99999999999997</ele><time>2026-03-26T18:39:07Z</time></trkpt><trkpt lat="44.01035404661537" lon="8.155384356681678"><ele>143.0</ele><time>2026-03-26T18:39:17Z</time></trkpt><trkpt lat="44.01042621708417" lon="8.155420285291221"><ele>143.0</ele><time>2026-03-26T18:39:21Z</time></trkpt><trkpt lat="44.01049108129428" lon="8.15542412322505"><ele>143.0</ele><time>2026-03-26T18:39:25Z</time></trkpt><trkpt lat="44.01055985169405" lon="8.155452595389182"><ele>143.0</ele><time>2026-03-26T18:39:31Z</time></trkpt><trkpt lat="44.01062180331276" lon="8.155408108683396"><ele>143.0</ele><time>2026-03-26T18:40:40.001Z</time></trkpt><trkpt lat="44.01066874036126" lon="8.155330922117372"><ele>143.0</ele><time>2026-03-26T18:40:58.001Z</time></trkpt><trkpt lat="44.01060083685488" lon="8.155418792838113"><ele>143.0</ele><time>2026-03-26T18:43:06.001Z</time></trkpt><trkpt lat="44.01058169959912" lon="8.155304606894575"><ele>143.0</ele><time>2026-03-26T18:43:20Z</time></trkpt><trkpt lat="44.010670003078076" lon="8.155324589072698"><ele>143.0</ele><time>2026-03-26T18:56:36Z</time></trkpt><trkpt lat="44.01074380314761" lon="8.155362048140054"><ele>143.0</ele><time>2026-03-26T18:56:37Z</time></trkpt><trkpt lat="44.01079978493867" lon="8.155475540093985"><ele>143.0</ele><time>2026-03-26T18:56:38Z</time></trkpt><trkpt lat="44.010852228225104" lon="8.155621109726841"><ele>143.0</ele><time>2026-03-26T18:56:39Z</time></trkpt><trkpt lat="44.01090226508751" lon="8.155687596210173"><ele>141.25</ele><time>2026-03-26T18:56:40Z</time></trkpt><trkpt lat="44.01101716376817" lon="8.155704559598748"><ele>139.5</ele><time>2026-03-26T18:56:41Z</time></trkpt><trkpt lat="44.01110387578668" lon="8.155733705387522"><ele>137.75</ele><time>2026-03-26T18:56:42Z</time></trkpt><trkpt lat="44.01104652092201" lon="8.155980179118613"><ele>136.0</ele><time>2026-03-26T18:56:44.062Z</time></trkpt><trkpt lat="44.01101639581046" lon="8.155796634630397"><ele>136.0</ele><time>2026-03-26T18:56:45.039Z</time></trkpt><trkpt lat="44.01093201767018" lon="8.155736985265662"><ele>136.0</ele><time>2026-03-26T18:56:47.039Z</time></trkpt><trkpt lat="44.01069026090991" lon="8.155802962959283"><ele>136.0</ele><time>2026-03-26T18:56:48.034Z</time></trkpt><trkpt lat="44.010688422584494" lon="8.155352636786482"><ele>143.0</ele><time>2026-03-26T18:57:12Z</time></trkpt></trkseg></trk></gpx>